<?xml version="1.0" encoding="UTF-8" standalone="no" ?>
<gpx xmlns="http://www.topografix.com/GPX/1/1" xmlns:xsi="http://www.w3.org/2001/XMLSchema-instance" xsi:schemaLocation="http://www.topografix.com/GPX/1/1 http://www.topografix.com/GPX/1/1/gpx.xsd" version="1.1" creator="VisuGPX - https://www.visugpx.com">
  <metadata>
    <name>Soueix-Rogalle Reconnaissance Mirabat Azas - L'ORSALHER VTT 2024</name>
    <desc><![CDATA[Une belle après-midi ou j'étais accompagné de Jean-Jacques, Philippe & Quentin.]]></desc>
  </metadata>
  <trk>
    <name><![CDATA[Soueix-Rogalle Reconnaissance Mirabat Azas - L'ORSALHER VTT 2024_1]]></name>
    <trkseg>
      <trkpt lat="42.89375" lon="1.21216">
        <ele>483.8</ele>
        <time>2024-02-04T11:16:03Z</time>
      </trkpt>
      <trkpt lat="42.89371" lon="1.21235">
        <ele>483.8</ele>
        <time>2024-02-04T11:16:07Z</time>
      </trkpt>
      <trkpt lat="42.8937" lon="1.2124">
        <ele>482.2</ele>
        <time>2024-02-04T11:16:08Z</time>
      </trkpt>
      <trkpt lat="42.89366" lon="1.21252">
        <ele>482.2</ele>
        <time>2024-02-04T11:16:11Z</time>
      </trkpt>
      <trkpt lat="42.89361" lon="1.21279">
        <ele>482.2</ele>
        <time>2024-02-04T11:16:17Z</time>
      </trkpt>
      <trkpt lat="42.89351" lon="1.2131">
        <ele>482.2</ele>
        <time>2024-02-04T11:16:24Z</time>
      </trkpt>
      <trkpt lat="42.89347" lon="1.21332">
        <ele>482.2</ele>
        <time>2024-02-04T11:16:29Z</time>
      </trkpt>
      <trkpt lat="42.8934" lon="1.21352">
        <ele>482.2</ele>
        <time>2024-02-04T11:16:35Z</time>
      </trkpt>
      <trkpt lat="42.89334" lon="1.21354">
        <ele>482.2</ele>
        <time>2024-02-04T11:16:37Z</time>
      </trkpt>
      <trkpt lat="42.89326" lon="1.21355">
        <ele>482.2</ele>
        <time>2024-02-04T11:16:39Z</time>
      </trkpt>
      <trkpt lat="42.89307" lon="1.21357">
        <ele>482.2</ele>
        <time>2024-02-04T11:16:45Z</time>
      </trkpt>
      <trkpt lat="42.8929" lon="1.21354">
        <ele>482.2</ele>
        <time>2024-02-04T11:16:51Z</time>
      </trkpt>
      <trkpt lat="42.89272" lon="1.21342">
        <ele>482.2</ele>
        <time>2024-02-04T11:16:58Z</time>
      </trkpt>
      <trkpt lat="42.89264" lon="1.21338">
        <ele>482.2</ele>
        <time>2024-02-04T11:17:01Z</time>
      </trkpt>
      <trkpt lat="42.89262" lon="1.2134">
        <ele>482.2</ele>
        <time>2024-02-04T11:17:02Z</time>
      </trkpt>
      <trkpt lat="42.89261" lon="1.2135">
        <ele>482.2</ele>
        <time>2024-02-04T11:17:05Z</time>
      </trkpt>
      <trkpt lat="42.89262" lon="1.21359">
        <ele>482.2</ele>
        <time>2024-02-04T11:17:07Z</time>
      </trkpt>
      <trkpt lat="42.89261" lon="1.21372">
        <ele>482.2</ele>
        <time>2024-02-04T11:17:10Z</time>
      </trkpt>
      <trkpt lat="42.89257" lon="1.21388">
        <ele>482.2</ele>
        <time>2024-02-04T11:17:14Z</time>
      </trkpt>
      <trkpt lat="42.89245" lon="1.21409">
        <ele>482.2</ele>
        <time>2024-02-04T11:17:19Z</time>
      </trkpt>
      <trkpt lat="42.89225" lon="1.21437">
        <ele>482.2</ele>
        <time>2024-02-04T11:17:27Z</time>
      </trkpt>
      <trkpt lat="42.89209" lon="1.21442">
        <ele>482.2</ele>
        <time>2024-02-04T11:17:32Z</time>
      </trkpt>
      <trkpt lat="42.89193" lon="1.21445">
        <ele>482.6</ele>
        <time>2024-02-04T11:17:37Z</time>
      </trkpt>
      <trkpt lat="42.8919" lon="1.21446">
        <ele>483</ele>
        <time>2024-02-04T11:17:38Z</time>
      </trkpt>
      <trkpt lat="42.89187" lon="1.21447">
        <ele>483.8</ele>
        <time>2024-02-04T11:17:39Z</time>
      </trkpt>
      <trkpt lat="42.89183" lon="1.21448">
        <ele>484.2</ele>
        <time>2024-02-04T11:17:40Z</time>
      </trkpt>
      <trkpt lat="42.8918" lon="1.21449">
        <ele>484.2</ele>
        <time>2024-02-04T11:17:41Z</time>
      </trkpt>
      <trkpt lat="42.89157" lon="1.21463">
        <ele>484.2</ele>
        <time>2024-02-04T11:17:49Z</time>
      </trkpt>
      <trkpt lat="42.89147" lon="1.21482">
        <ele>484.2</ele>
        <time>2024-02-04T11:17:55Z</time>
      </trkpt>
      <trkpt lat="42.89147" lon="1.2149">
        <ele>484.2</ele>
        <time>2024-02-04T11:17:57Z</time>
      </trkpt>
      <trkpt lat="42.8915" lon="1.21498">
        <ele>484.2</ele>
        <time>2024-02-04T11:17:59Z</time>
      </trkpt>
      <trkpt lat="42.8916" lon="1.21509">
        <ele>484.2</ele>
        <time>2024-02-04T11:18:02Z</time>
      </trkpt>
      <trkpt lat="42.89162" lon="1.21511">
        <ele>485.2</ele>
        <time>2024-02-04T11:18:03Z</time>
      </trkpt>
      <trkpt lat="42.89165" lon="1.21513">
        <ele>485.6</ele>
        <time>2024-02-04T11:18:04Z</time>
      </trkpt>
      <trkpt lat="42.89168" lon="1.21514">
        <ele>486</ele>
        <time>2024-02-04T11:18:05Z</time>
      </trkpt>
      <trkpt lat="42.8917" lon="1.21515">
        <ele>486.4</ele>
        <time>2024-02-04T11:18:06Z</time>
      </trkpt>
      <trkpt lat="42.89174" lon="1.21518">
        <ele>487</ele>
        <time>2024-02-04T11:18:08Z</time>
      </trkpt>
      <trkpt lat="42.89176" lon="1.2152">
        <ele>487.4</ele>
        <time>2024-02-04T11:18:09Z</time>
      </trkpt>
      <trkpt lat="42.89177" lon="1.21522">
        <ele>487.8</ele>
        <time>2024-02-04T11:18:10Z</time>
      </trkpt>
      <trkpt lat="42.89176" lon="1.21525">
        <ele>488.4</ele>
        <time>2024-02-04T11:18:11Z</time>
      </trkpt>
      <trkpt lat="42.89175" lon="1.21527">
        <ele>488.8</ele>
        <time>2024-02-04T11:18:12Z</time>
      </trkpt>
      <trkpt lat="42.8917" lon="1.2153">
        <ele>488.8</ele>
        <time>2024-02-04T11:18:15Z</time>
      </trkpt>
      <trkpt lat="42.89169" lon="1.2153">
        <ele>488.8</ele>
        <time>2024-02-04T11:18:16Z</time>
      </trkpt>
      <trkpt lat="42.89167" lon="1.21531">
        <ele>489.2</ele>
        <time>2024-02-04T11:18:17Z</time>
      </trkpt>
      <trkpt lat="42.89165" lon="1.21531">
        <ele>489.6</ele>
        <time>2024-02-04T11:18:18Z</time>
      </trkpt>
      <trkpt lat="42.89163" lon="1.21532">
        <ele>490</ele>
        <time>2024-02-04T11:18:19Z</time>
      </trkpt>
      <trkpt lat="42.89161" lon="1.21533">
        <ele>490.4</ele>
        <time>2024-02-04T11:18:20Z</time>
      </trkpt>
      <trkpt lat="42.89159" lon="1.21534">
        <ele>490.8</ele>
        <time>2024-02-04T11:18:21Z</time>
      </trkpt>
      <trkpt lat="42.89157" lon="1.21534">
        <ele>490.8</ele>
        <time>2024-02-04T11:18:22Z</time>
      </trkpt>
      <trkpt lat="42.89141" lon="1.21539">
        <ele>490.8</ele>
        <time>2024-02-04T11:18:27Z</time>
      </trkpt>
      <trkpt lat="42.89121" lon="1.21548">
        <ele>490.8</ele>
        <time>2024-02-04T11:18:32Z</time>
      </trkpt>
      <trkpt lat="42.89102" lon="1.21556">
        <ele>490.8</ele>
        <time>2024-02-04T11:18:37Z</time>
      </trkpt>
      <trkpt lat="42.89084" lon="1.21565">
        <ele>490.8</ele>
        <time>2024-02-04T11:18:41Z</time>
      </trkpt>
      <trkpt lat="42.8907" lon="1.21571">
        <ele>490.8</ele>
        <time>2024-02-04T11:18:44Z</time>
      </trkpt>
      <trkpt lat="42.89062" lon="1.21576">
        <ele>490.8</ele>
        <time>2024-02-04T11:18:46Z</time>
      </trkpt>
      <trkpt lat="42.8904" lon="1.21584">
        <ele>490.8</ele>
        <time>2024-02-04T11:18:52Z</time>
      </trkpt>
      <trkpt lat="42.89024" lon="1.21589">
        <ele>490.8</ele>
        <time>2024-02-04T11:18:57Z</time>
      </trkpt>
      <trkpt lat="42.89007" lon="1.21591">
        <ele>490.8</ele>
        <time>2024-02-04T11:19:02Z</time>
      </trkpt>
      <trkpt lat="42.88988" lon="1.21595">
        <ele>490.8</ele>
        <time>2024-02-04T11:19:07Z</time>
      </trkpt>
      <trkpt lat="42.88974" lon="1.21601">
        <ele>490.8</ele>
        <time>2024-02-04T11:19:11Z</time>
      </trkpt>
      <trkpt lat="42.88961" lon="1.216">
        <ele>490.8</ele>
        <time>2024-02-04T11:19:15Z</time>
      </trkpt>
      <trkpt lat="42.88958" lon="1.216">
        <ele>490.8</ele>
        <time>2024-02-04T11:19:16Z</time>
      </trkpt>
      <trkpt lat="42.88942" lon="1.21601">
        <ele>490.8</ele>
        <time>2024-02-04T11:19:22Z</time>
      </trkpt>
      <trkpt lat="42.8893" lon="1.216">
        <ele>490.8</ele>
        <time>2024-02-04T11:19:26Z</time>
      </trkpt>
      <trkpt lat="42.88916" lon="1.21599">
        <ele>490.8</ele>
        <time>2024-02-04T11:19:31Z</time>
      </trkpt>
      <trkpt lat="42.88902" lon="1.21596">
        <ele>490.8</ele>
        <time>2024-02-04T11:19:36Z</time>
      </trkpt>
      <trkpt lat="42.88897" lon="1.21596">
        <ele>491.2</ele>
        <time>2024-02-04T11:19:38Z</time>
      </trkpt>
      <trkpt lat="42.88895" lon="1.21595">
        <ele>491.6</ele>
        <time>2024-02-04T11:19:39Z</time>
      </trkpt>
      <trkpt lat="42.88892" lon="1.21595">
        <ele>492</ele>
        <time>2024-02-04T11:19:40Z</time>
      </trkpt>
      <trkpt lat="42.8889" lon="1.21594">
        <ele>492.4</ele>
        <time>2024-02-04T11:19:41Z</time>
      </trkpt>
      <trkpt lat="42.88887" lon="1.21594">
        <ele>493</ele>
        <time>2024-02-04T11:19:42Z</time>
      </trkpt>
      <trkpt lat="42.88872" lon="1.21594">
        <ele>493</ele>
        <time>2024-02-04T11:19:47Z</time>
      </trkpt>
      <trkpt lat="42.88868" lon="1.21593">
        <ele>493</ele>
        <time>2024-02-04T11:19:48Z</time>
      </trkpt>
      <trkpt lat="42.88853" lon="1.21589">
        <ele>493</ele>
        <time>2024-02-04T11:19:51Z</time>
      </trkpt>
      <trkpt lat="42.88849" lon="1.21587">
        <ele>493</ele>
        <time>2024-02-04T11:19:52Z</time>
      </trkpt>
      <trkpt lat="42.88834" lon="1.21584">
        <ele>493</ele>
        <time>2024-02-04T11:19:56Z</time>
      </trkpt>
      <trkpt lat="42.8883" lon="1.21582">
        <ele>493</ele>
        <time>2024-02-04T11:19:57Z</time>
      </trkpt>
      <trkpt lat="42.88818" lon="1.21571">
        <ele>493</ele>
        <time>2024-02-04T11:20:00Z</time>
      </trkpt>
      <trkpt lat="42.88815" lon="1.21568">
        <ele>492.6</ele>
        <time>2024-02-04T11:20:01Z</time>
      </trkpt>
      <trkpt lat="42.88812" lon="1.21566">
        <ele>492.2</ele>
        <time>2024-02-04T11:20:02Z</time>
      </trkpt>
      <trkpt lat="42.8881" lon="1.21564">
        <ele>491.8</ele>
        <time>2024-02-04T11:20:03Z</time>
      </trkpt>
      <trkpt lat="42.88808" lon="1.21563">
        <ele>491.4</ele>
        <time>2024-02-04T11:20:04Z</time>
      </trkpt>
      <trkpt lat="42.88806" lon="1.21561">
        <ele>491</ele>
        <time>2024-02-04T11:20:05Z</time>
      </trkpt>
      <trkpt lat="42.88798" lon="1.21556">
        <ele>491</ele>
        <time>2024-02-04T11:20:09Z</time>
      </trkpt>
      <trkpt lat="42.88791" lon="1.21557">
        <ele>491</ele>
        <time>2024-02-04T11:20:13Z</time>
      </trkpt>
      <trkpt lat="42.88792" lon="1.21559">
        <ele>491</ele>
        <time>2024-02-04T11:20:17Z</time>
      </trkpt>
      <trkpt lat="42.88791" lon="1.2156">
        <ele>491</ele>
        <time>2024-02-04T11:20:31Z</time>
      </trkpt>
      <trkpt lat="42.88791" lon="1.21573">
        <ele>491</ele>
        <time>2024-02-04T11:20:35Z</time>
      </trkpt>
      <trkpt lat="42.88789" lon="1.21584">
        <ele>491</ele>
        <time>2024-02-04T11:20:39Z</time>
      </trkpt>
      <trkpt lat="42.88787" lon="1.21587">
        <ele>491</ele>
        <time>2024-02-04T11:20:43Z</time>
      </trkpt>
      <trkpt lat="42.88787" lon="1.2159">
        <ele>491</ele>
        <time>2024-02-04T11:21:25Z</time>
      </trkpt>
      <trkpt lat="42.88785" lon="1.21593">
        <ele>491</ele>
        <time>2024-02-04T11:21:26Z</time>
      </trkpt>
      <trkpt lat="42.88783" lon="1.21597">
        <ele>491</ele>
        <time>2024-02-04T11:21:27Z</time>
      </trkpt>
      <trkpt lat="42.88779" lon="1.21601">
        <ele>491</ele>
        <time>2024-02-04T11:21:28Z</time>
      </trkpt>
      <trkpt lat="42.88762" lon="1.21621">
        <ele>491</ele>
        <time>2024-02-04T11:21:34Z</time>
      </trkpt>
      <trkpt lat="42.88744" lon="1.21638">
        <ele>491</ele>
        <time>2024-02-04T11:21:40Z</time>
      </trkpt>
      <trkpt lat="42.88739" lon="1.21644">
        <ele>491.4</ele>
        <time>2024-02-04T11:21:42Z</time>
      </trkpt>
      <trkpt lat="42.88737" lon="1.21647">
        <ele>491.8</ele>
        <time>2024-02-04T11:21:43Z</time>
      </trkpt>
      <trkpt lat="42.88735" lon="1.2165">
        <ele>492.2</ele>
        <time>2024-02-04T11:21:44Z</time>
      </trkpt>
      <trkpt lat="42.88733" lon="1.21654">
        <ele>492.6</ele>
        <time>2024-02-04T11:21:45Z</time>
      </trkpt>
      <trkpt lat="42.88731" lon="1.21657">
        <ele>493</ele>
        <time>2024-02-04T11:21:46Z</time>
      </trkpt>
      <trkpt lat="42.88724" lon="1.21682">
        <ele>493</ele>
        <time>2024-02-04T11:21:52Z</time>
      </trkpt>
      <trkpt lat="42.88726" lon="1.21709">
        <ele>493</ele>
        <time>2024-02-04T11:21:58Z</time>
      </trkpt>
      <trkpt lat="42.88726" lon="1.21714">
        <ele>493</ele>
        <time>2024-02-04T11:21:59Z</time>
      </trkpt>
      <trkpt lat="42.88726" lon="1.21724">
        <ele>493.4</ele>
        <time>2024-02-04T11:22:01Z</time>
      </trkpt>
      <trkpt lat="42.88725" lon="1.21727">
        <ele>493.8</ele>
        <time>2024-02-04T11:22:02Z</time>
      </trkpt>
      <trkpt lat="42.88724" lon="1.21731">
        <ele>494.2</ele>
        <time>2024-02-04T11:22:03Z</time>
      </trkpt>
      <trkpt lat="42.88724" lon="1.21736">
        <ele>494.6</ele>
        <time>2024-02-04T11:22:04Z</time>
      </trkpt>
      <trkpt lat="42.88725" lon="1.21742">
        <ele>495</ele>
        <time>2024-02-04T11:22:05Z</time>
      </trkpt>
      <trkpt lat="42.88727" lon="1.21756">
        <ele>495</ele>
        <time>2024-02-04T11:22:08Z</time>
      </trkpt>
      <trkpt lat="42.88724" lon="1.21775">
        <ele>495</ele>
        <time>2024-02-04T11:22:13Z</time>
      </trkpt>
      <trkpt lat="42.88716" lon="1.21792">
        <ele>495.4</ele>
        <time>2024-02-04T11:22:18Z</time>
      </trkpt>
      <trkpt lat="42.88714" lon="1.21795">
        <ele>495.8</ele>
        <time>2024-02-04T11:22:19Z</time>
      </trkpt>
      <trkpt lat="42.88713" lon="1.21799">
        <ele>496.2</ele>
        <time>2024-02-04T11:22:20Z</time>
      </trkpt>
      <trkpt lat="42.88712" lon="1.21803">
        <ele>496.6</ele>
        <time>2024-02-04T11:22:21Z</time>
      </trkpt>
      <trkpt lat="42.88711" lon="1.21807">
        <ele>497</ele>
        <time>2024-02-04T11:22:22Z</time>
      </trkpt>
      <trkpt lat="42.88705" lon="1.21838">
        <ele>497</ele>
        <time>2024-02-04T11:22:29Z</time>
      </trkpt>
      <trkpt lat="42.88704" lon="1.21842">
        <ele>497</ele>
        <time>2024-02-04T11:22:30Z</time>
      </trkpt>
      <trkpt lat="42.88697" lon="1.2185">
        <ele>497</ele>
        <time>2024-02-04T11:22:33Z</time>
      </trkpt>
      <trkpt lat="42.88689" lon="1.21861">
        <ele>497.4</ele>
        <time>2024-02-04T11:22:37Z</time>
      </trkpt>
      <trkpt lat="42.88688" lon="1.21864">
        <ele>498</ele>
        <time>2024-02-04T11:22:38Z</time>
      </trkpt>
      <trkpt lat="42.88684" lon="1.21866">
        <ele>498.4</ele>
        <time>2024-02-04T11:22:39Z</time>
      </trkpt>
      <trkpt lat="42.88682" lon="1.21869">
        <ele>498.8</ele>
        <time>2024-02-04T11:22:40Z</time>
      </trkpt>
      <trkpt lat="42.8868" lon="1.21872">
        <ele>499.2</ele>
        <time>2024-02-04T11:22:41Z</time>
      </trkpt>
      <trkpt lat="42.88681" lon="1.21878">
        <ele>499.2</ele>
        <time>2024-02-04T11:22:42Z</time>
      </trkpt>
      <trkpt lat="42.8868" lon="1.21881">
        <ele>499.2</ele>
        <time>2024-02-04T11:22:43Z</time>
      </trkpt>
      <trkpt lat="42.88678" lon="1.219">
        <ele>499.2</ele>
        <time>2024-02-04T11:22:48Z</time>
      </trkpt>
      <trkpt lat="42.88676" lon="1.21904">
        <ele>499.2</ele>
        <time>2024-02-04T11:22:49Z</time>
      </trkpt>
      <trkpt lat="42.88678" lon="1.21922">
        <ele>499.6</ele>
        <time>2024-02-04T11:22:53Z</time>
      </trkpt>
      <trkpt lat="42.88676" lon="1.21926">
        <ele>500</ele>
        <time>2024-02-04T11:22:54Z</time>
      </trkpt>
      <trkpt lat="42.88675" lon="1.21929">
        <ele>500.4</ele>
        <time>2024-02-04T11:22:55Z</time>
      </trkpt>
      <trkpt lat="42.88674" lon="1.21931">
        <ele>500.8</ele>
        <time>2024-02-04T11:22:56Z</time>
      </trkpt>
      <trkpt lat="42.88671" lon="1.21933">
        <ele>501.4</ele>
        <time>2024-02-04T11:22:57Z</time>
      </trkpt>
      <trkpt lat="42.88668" lon="1.21936">
        <ele>501.4</ele>
        <time>2024-02-04T11:22:58Z</time>
      </trkpt>
      <trkpt lat="42.88659" lon="1.21944">
        <ele>501.4</ele>
        <time>2024-02-04T11:23:02Z</time>
      </trkpt>
      <trkpt lat="42.88656" lon="1.21946">
        <ele>501.4</ele>
        <time>2024-02-04T11:23:03Z</time>
      </trkpt>
      <trkpt lat="42.88648" lon="1.2195">
        <ele>501.4</ele>
        <time>2024-02-04T11:23:05Z</time>
      </trkpt>
      <trkpt lat="42.88645" lon="1.21953">
        <ele>501.8</ele>
        <time>2024-02-04T11:23:06Z</time>
      </trkpt>
      <trkpt lat="42.88642" lon="1.21956">
        <ele>502.2</ele>
        <time>2024-02-04T11:23:07Z</time>
      </trkpt>
      <trkpt lat="42.88639" lon="1.21959">
        <ele>502.6</ele>
        <time>2024-02-04T11:23:08Z</time>
      </trkpt>
      <trkpt lat="42.88637" lon="1.21961">
        <ele>503</ele>
        <time>2024-02-04T11:23:09Z</time>
      </trkpt>
      <trkpt lat="42.88635" lon="1.21964">
        <ele>503.4</ele>
        <time>2024-02-04T11:23:10Z</time>
      </trkpt>
      <trkpt lat="42.88627" lon="1.21978">
        <ele>503.4</ele>
        <time>2024-02-04T11:23:14Z</time>
      </trkpt>
      <trkpt lat="42.88619" lon="1.21996">
        <ele>503.4</ele>
        <time>2024-02-04T11:23:19Z</time>
      </trkpt>
      <trkpt lat="42.8861" lon="1.22005">
        <ele>503.8</ele>
        <time>2024-02-04T11:23:22Z</time>
      </trkpt>
      <trkpt lat="42.88607" lon="1.22007">
        <ele>504.2</ele>
        <time>2024-02-04T11:23:23Z</time>
      </trkpt>
      <trkpt lat="42.88604" lon="1.22009">
        <ele>505</ele>
        <time>2024-02-04T11:23:24Z</time>
      </trkpt>
      <trkpt lat="42.88601" lon="1.22012">
        <ele>505.4</ele>
        <time>2024-02-04T11:23:25Z</time>
      </trkpt>
      <trkpt lat="42.88594" lon="1.2202">
        <ele>505.4</ele>
        <time>2024-02-04T11:23:28Z</time>
      </trkpt>
      <trkpt lat="42.88589" lon="1.22033">
        <ele>505.4</ele>
        <time>2024-02-04T11:23:32Z</time>
      </trkpt>
      <trkpt lat="42.88578" lon="1.22053">
        <ele>505.4</ele>
        <time>2024-02-04T11:23:38Z</time>
      </trkpt>
      <trkpt lat="42.88574" lon="1.22055">
        <ele>505.8</ele>
        <time>2024-02-04T11:23:39Z</time>
      </trkpt>
      <trkpt lat="42.88571" lon="1.22058">
        <ele>506.2</ele>
        <time>2024-02-04T11:23:40Z</time>
      </trkpt>
      <trkpt lat="42.88568" lon="1.2206">
        <ele>506.6</ele>
        <time>2024-02-04T11:23:41Z</time>
      </trkpt>
      <trkpt lat="42.88564" lon="1.22063">
        <ele>507</ele>
        <time>2024-02-04T11:23:42Z</time>
      </trkpt>
      <trkpt lat="42.8856" lon="1.22064">
        <ele>507.4</ele>
        <time>2024-02-04T11:23:43Z</time>
      </trkpt>
      <trkpt lat="42.88547" lon="1.22077">
        <ele>507.4</ele>
        <time>2024-02-04T11:23:47Z</time>
      </trkpt>
      <trkpt lat="42.88537" lon="1.22095">
        <ele>507.4</ele>
        <time>2024-02-04T11:23:51Z</time>
      </trkpt>
      <trkpt lat="42.88528" lon="1.22115">
        <ele>508</ele>
        <time>2024-02-04T11:23:55Z</time>
      </trkpt>
      <trkpt lat="42.88526" lon="1.2212">
        <ele>508.4</ele>
        <time>2024-02-04T11:23:56Z</time>
      </trkpt>
      <trkpt lat="42.88525" lon="1.22125">
        <ele>508.8</ele>
        <time>2024-02-04T11:23:57Z</time>
      </trkpt>
      <trkpt lat="42.88522" lon="1.22129">
        <ele>509.2</ele>
        <time>2024-02-04T11:23:58Z</time>
      </trkpt>
      <trkpt lat="42.88519" lon="1.22133">
        <ele>509.6</ele>
        <time>2024-02-04T11:23:59Z</time>
      </trkpt>
      <trkpt lat="42.88516" lon="1.22137">
        <ele>509.6</ele>
        <time>2024-02-04T11:24:00Z</time>
      </trkpt>
      <trkpt lat="42.88502" lon="1.22153">
        <ele>509.6</ele>
        <time>2024-02-04T11:24:05Z</time>
      </trkpt>
      <trkpt lat="42.88492" lon="1.22173">
        <ele>510</ele>
        <time>2024-02-04T11:24:10Z</time>
      </trkpt>
      <trkpt lat="42.8849" lon="1.22177">
        <ele>510.4</ele>
        <time>2024-02-04T11:24:11Z</time>
      </trkpt>
      <trkpt lat="42.88488" lon="1.22181">
        <ele>510.8</ele>
        <time>2024-02-04T11:24:12Z</time>
      </trkpt>
      <trkpt lat="42.88486" lon="1.22185">
        <ele>511.2</ele>
        <time>2024-02-04T11:24:13Z</time>
      </trkpt>
      <trkpt lat="42.88485" lon="1.22189">
        <ele>511.6</ele>
        <time>2024-02-04T11:24:14Z</time>
      </trkpt>
      <trkpt lat="42.88484" lon="1.22192">
        <ele>511.6</ele>
        <time>2024-02-04T11:24:15Z</time>
      </trkpt>
      <trkpt lat="42.88477" lon="1.22216">
        <ele>511.6</ele>
        <time>2024-02-04T11:24:21Z</time>
      </trkpt>
      <trkpt lat="42.8847" lon="1.22239">
        <ele>512</ele>
        <time>2024-02-04T11:24:27Z</time>
      </trkpt>
      <trkpt lat="42.88468" lon="1.22242">
        <ele>512.4</ele>
        <time>2024-02-04T11:24:28Z</time>
      </trkpt>
      <trkpt lat="42.88466" lon="1.22245">
        <ele>512.8</ele>
        <time>2024-02-04T11:24:29Z</time>
      </trkpt>
      <trkpt lat="42.88464" lon="1.22248">
        <ele>513.2</ele>
        <time>2024-02-04T11:24:30Z</time>
      </trkpt>
      <trkpt lat="42.88462" lon="1.22252">
        <ele>513.6</ele>
        <time>2024-02-04T11:24:31Z</time>
      </trkpt>
      <trkpt lat="42.88456" lon="1.22263">
        <ele>513.6</ele>
        <time>2024-02-04T11:24:34Z</time>
      </trkpt>
      <trkpt lat="42.88444" lon="1.22281">
        <ele>514</ele>
        <time>2024-02-04T11:24:40Z</time>
      </trkpt>
      <trkpt lat="42.88442" lon="1.22285">
        <ele>514.4</ele>
        <time>2024-02-04T11:24:41Z</time>
      </trkpt>
      <trkpt lat="42.88441" lon="1.22289">
        <ele>514.8</ele>
        <time>2024-02-04T11:24:42Z</time>
      </trkpt>
      <trkpt lat="42.88439" lon="1.22293">
        <ele>515.2</ele>
        <time>2024-02-04T11:24:43Z</time>
      </trkpt>
      <trkpt lat="42.88438" lon="1.22296">
        <ele>515.6</ele>
        <time>2024-02-04T11:24:44Z</time>
      </trkpt>
      <trkpt lat="42.88435" lon="1.22304">
        <ele>515.6</ele>
        <time>2024-02-04T11:24:46Z</time>
      </trkpt>
      <trkpt lat="42.88432" lon="1.22314">
        <ele>515.6</ele>
        <time>2024-02-04T11:24:49Z</time>
      </trkpt>
      <trkpt lat="42.88428" lon="1.22318">
        <ele>515.6</ele>
        <time>2024-02-04T11:24:51Z</time>
      </trkpt>
      <trkpt lat="42.8842" lon="1.22326">
        <ele>515.6</ele>
        <time>2024-02-04T11:24:54Z</time>
      </trkpt>
      <trkpt lat="42.88418" lon="1.22328">
        <ele>515.6</ele>
        <time>2024-02-04T11:24:55Z</time>
      </trkpt>
      <trkpt lat="42.88415" lon="1.22331">
        <ele>515.6</ele>
        <time>2024-02-04T11:24:59Z</time>
      </trkpt>
      <trkpt lat="42.88416" lon="1.22329">
        <ele>516</ele>
        <time>2024-02-04T11:25:00Z</time>
      </trkpt>
      <trkpt lat="42.88418" lon="1.22326">
        <ele>516.4</ele>
        <time>2024-02-04T11:25:01Z</time>
      </trkpt>
      <trkpt lat="42.88419" lon="1.22324">
        <ele>516.8</ele>
        <time>2024-02-04T11:25:02Z</time>
      </trkpt>
      <trkpt lat="42.8842" lon="1.22321">
        <ele>517.6</ele>
        <time>2024-02-04T11:25:03Z</time>
      </trkpt>
      <trkpt lat="42.8842" lon="1.22312">
        <ele>517.6</ele>
        <time>2024-02-04T11:25:06Z</time>
      </trkpt>
      <trkpt lat="42.88425" lon="1.22309">
        <ele>517.6</ele>
        <time>2024-02-04T11:25:09Z</time>
      </trkpt>
      <trkpt lat="42.88427" lon="1.22308">
        <ele>517.6</ele>
        <time>2024-02-04T11:25:10Z</time>
      </trkpt>
      <trkpt lat="42.8843" lon="1.22301">
        <ele>517.6</ele>
        <time>2024-02-04T11:25:12Z</time>
      </trkpt>
      <trkpt lat="42.88429" lon="1.22285">
        <ele>517.6</ele>
        <time>2024-02-04T11:25:16Z</time>
      </trkpt>
      <trkpt lat="42.88428" lon="1.22276">
        <ele>518</ele>
        <time>2024-02-04T11:25:19Z</time>
      </trkpt>
      <trkpt lat="42.88428" lon="1.22274">
        <ele>518.4</ele>
        <time>2024-02-04T11:25:20Z</time>
      </trkpt>
      <trkpt lat="42.88428" lon="1.22272">
        <ele>518.8</ele>
        <time>2024-02-04T11:25:21Z</time>
      </trkpt>
      <trkpt lat="42.88428" lon="1.22269">
        <ele>519.2</ele>
        <time>2024-02-04T11:25:22Z</time>
      </trkpt>
      <trkpt lat="42.8843" lon="1.22258">
        <ele>520.2</ele>
        <time>2024-02-04T11:25:26Z</time>
      </trkpt>
      <trkpt lat="42.88431" lon="1.22256">
        <ele>520.6</ele>
        <time>2024-02-04T11:25:27Z</time>
      </trkpt>
      <trkpt lat="42.88432" lon="1.22255">
        <ele>521.4</ele>
        <time>2024-02-04T11:25:28Z</time>
      </trkpt>
      <trkpt lat="42.88432" lon="1.22254">
        <ele>521.8</ele>
        <time>2024-02-04T11:25:29Z</time>
      </trkpt>
      <trkpt lat="42.88433" lon="1.22248">
        <ele>521.8</ele>
        <time>2024-02-04T11:25:31Z</time>
      </trkpt>
      <trkpt lat="42.88434" lon="1.22244">
        <ele>521.8</ele>
        <time>2024-02-04T11:25:32Z</time>
      </trkpt>
      <trkpt lat="42.88442" lon="1.22229">
        <ele>522.2</ele>
        <time>2024-02-04T11:25:37Z</time>
      </trkpt>
      <trkpt lat="42.88444" lon="1.22226">
        <ele>522.6</ele>
        <time>2024-02-04T11:25:38Z</time>
      </trkpt>
      <trkpt lat="42.88446" lon="1.22224">
        <ele>523</ele>
        <time>2024-02-04T11:25:39Z</time>
      </trkpt>
      <trkpt lat="42.88447" lon="1.22223">
        <ele>523.6</ele>
        <time>2024-02-04T11:25:40Z</time>
      </trkpt>
      <trkpt lat="42.88449" lon="1.22221">
        <ele>524</ele>
        <time>2024-02-04T11:25:41Z</time>
      </trkpt>
      <trkpt lat="42.88452" lon="1.22219">
        <ele>524</ele>
        <time>2024-02-04T11:25:42Z</time>
      </trkpt>
      <trkpt lat="42.88455" lon="1.22216">
        <ele>524</ele>
        <time>2024-02-04T11:25:43Z</time>
      </trkpt>
      <trkpt lat="42.88459" lon="1.22209">
        <ele>524.4</ele>
        <time>2024-02-04T11:25:45Z</time>
      </trkpt>
      <trkpt lat="42.88461" lon="1.22208">
        <ele>524.8</ele>
        <time>2024-02-04T11:25:46Z</time>
      </trkpt>
      <trkpt lat="42.88464" lon="1.22205">
        <ele>525.2</ele>
        <time>2024-02-04T11:25:47Z</time>
      </trkpt>
      <trkpt lat="42.88465" lon="1.22202">
        <ele>525.6</ele>
        <time>2024-02-04T11:25:48Z</time>
      </trkpt>
      <trkpt lat="42.88467" lon="1.22199">
        <ele>526.2</ele>
        <time>2024-02-04T11:25:49Z</time>
      </trkpt>
      <trkpt lat="42.88472" lon="1.22191">
        <ele>526.2</ele>
        <time>2024-02-04T11:25:51Z</time>
      </trkpt>
      <trkpt lat="42.88475" lon="1.22186">
        <ele>526.6</ele>
        <time>2024-02-04T11:25:52Z</time>
      </trkpt>
      <trkpt lat="42.88476" lon="1.22183">
        <ele>527.4</ele>
        <time>2024-02-04T11:25:53Z</time>
      </trkpt>
      <trkpt lat="42.88482" lon="1.22176">
        <ele>528.4</ele>
        <time>2024-02-04T11:25:55Z</time>
      </trkpt>
      <trkpt lat="42.88484" lon="1.22174">
        <ele>528.8</ele>
        <time>2024-02-04T11:25:56Z</time>
      </trkpt>
      <trkpt lat="42.88487" lon="1.22171">
        <ele>529.2</ele>
        <time>2024-02-04T11:25:57Z</time>
      </trkpt>
      <trkpt lat="42.88491" lon="1.22167">
        <ele>529.8</ele>
        <time>2024-02-04T11:25:58Z</time>
      </trkpt>
      <trkpt lat="42.88492" lon="1.22165">
        <ele>530.2</ele>
        <time>2024-02-04T11:25:59Z</time>
      </trkpt>
      <trkpt lat="42.88495" lon="1.22161">
        <ele>530.6</ele>
        <time>2024-02-04T11:26:00Z</time>
      </trkpt>
      <trkpt lat="42.88497" lon="1.22158">
        <ele>531</ele>
        <time>2024-02-04T11:26:01Z</time>
      </trkpt>
      <trkpt lat="42.88502" lon="1.22151">
        <ele>531.8</ele>
        <time>2024-02-04T11:26:03Z</time>
      </trkpt>
      <trkpt lat="42.88503" lon="1.22147">
        <ele>532.4</ele>
        <time>2024-02-04T11:26:04Z</time>
      </trkpt>
      <trkpt lat="42.88504" lon="1.22143">
        <ele>532.8</ele>
        <time>2024-02-04T11:26:05Z</time>
      </trkpt>
      <trkpt lat="42.88506" lon="1.2214">
        <ele>532.8</ele>
        <time>2024-02-04T11:26:06Z</time>
      </trkpt>
      <trkpt lat="42.88508" lon="1.22136">
        <ele>533.2</ele>
        <time>2024-02-04T11:26:07Z</time>
      </trkpt>
      <trkpt lat="42.8851" lon="1.22133">
        <ele>533.6</ele>
        <time>2024-02-04T11:26:08Z</time>
      </trkpt>
      <trkpt lat="42.88512" lon="1.2213">
        <ele>534</ele>
        <time>2024-02-04T11:26:09Z</time>
      </trkpt>
      <trkpt lat="42.88513" lon="1.22128">
        <ele>534.4</ele>
        <time>2024-02-04T11:26:10Z</time>
      </trkpt>
      <trkpt lat="42.88513" lon="1.22128">
        <ele>534.8</ele>
        <time>2024-02-04T11:26:11Z</time>
      </trkpt>
      <trkpt lat="42.88515" lon="1.22127">
        <ele>534.8</ele>
        <time>2024-02-04T11:26:12Z</time>
      </trkpt>
      <trkpt lat="42.88519" lon="1.22125">
        <ele>535.4</ele>
        <time>2024-02-04T11:26:14Z</time>
      </trkpt>
      <trkpt lat="42.88521" lon="1.22122">
        <ele>535.8</ele>
        <time>2024-02-04T11:26:15Z</time>
      </trkpt>
      <trkpt lat="42.88522" lon="1.22119">
        <ele>536.4</ele>
        <time>2024-02-04T11:26:16Z</time>
      </trkpt>
      <trkpt lat="42.88524" lon="1.22115">
        <ele>536.8</ele>
        <time>2024-02-04T11:26:17Z</time>
      </trkpt>
      <trkpt lat="42.88524" lon="1.22111">
        <ele>537.2</ele>
        <time>2024-02-04T11:26:18Z</time>
      </trkpt>
      <trkpt lat="42.88524" lon="1.22109">
        <ele>537.8</ele>
        <time>2024-02-04T11:26:19Z</time>
      </trkpt>
      <trkpt lat="42.88522" lon="1.22107">
        <ele>538.2</ele>
        <time>2024-02-04T11:26:20Z</time>
      </trkpt>
      <trkpt lat="42.88521" lon="1.22105">
        <ele>538.6</ele>
        <time>2024-02-04T11:26:21Z</time>
      </trkpt>
      <trkpt lat="42.8852" lon="1.22104">
        <ele>539.2</ele>
        <time>2024-02-04T11:26:22Z</time>
      </trkpt>
      <trkpt lat="42.88522" lon="1.22097">
        <ele>539.6</ele>
        <time>2024-02-04T11:26:24Z</time>
      </trkpt>
      <trkpt lat="42.88523" lon="1.22095">
        <ele>540</ele>
        <time>2024-02-04T11:26:25Z</time>
      </trkpt>
      <trkpt lat="42.88528" lon="1.22088">
        <ele>540.8</ele>
        <time>2024-02-04T11:26:27Z</time>
      </trkpt>
      <trkpt lat="42.88529" lon="1.22085">
        <ele>541.2</ele>
        <time>2024-02-04T11:26:28Z</time>
      </trkpt>
      <trkpt lat="42.88532" lon="1.2208">
        <ele>541.6</ele>
        <time>2024-02-04T11:26:29Z</time>
      </trkpt>
      <trkpt lat="42.88539" lon="1.22067">
        <ele>542</ele>
        <time>2024-02-04T11:26:33Z</time>
      </trkpt>
      <trkpt lat="42.8854" lon="1.22064">
        <ele>542.6</ele>
        <time>2024-02-04T11:26:34Z</time>
      </trkpt>
      <trkpt lat="42.88542" lon="1.22061">
        <ele>543</ele>
        <time>2024-02-04T11:26:35Z</time>
      </trkpt>
      <trkpt lat="42.88544" lon="1.22056">
        <ele>543.4</ele>
        <time>2024-02-04T11:26:36Z</time>
      </trkpt>
      <trkpt lat="42.88545" lon="1.22054">
        <ele>544</ele>
        <time>2024-02-04T11:26:37Z</time>
      </trkpt>
      <trkpt lat="42.88545" lon="1.22052">
        <ele>544</ele>
        <time>2024-02-04T11:26:38Z</time>
      </trkpt>
      <trkpt lat="42.88547" lon="1.2205">
        <ele>544.4</ele>
        <time>2024-02-04T11:26:39Z</time>
      </trkpt>
      <trkpt lat="42.88551" lon="1.22046">
        <ele>544.8</ele>
        <time>2024-02-04T11:26:40Z</time>
      </trkpt>
      <trkpt lat="42.88554" lon="1.22042">
        <ele>545.2</ele>
        <time>2024-02-04T11:26:41Z</time>
      </trkpt>
      <trkpt lat="42.88558" lon="1.2204">
        <ele>546.2</ele>
        <time>2024-02-04T11:26:42Z</time>
      </trkpt>
      <trkpt lat="42.88561" lon="1.22037">
        <ele>546.6</ele>
        <time>2024-02-04T11:26:43Z</time>
      </trkpt>
      <trkpt lat="42.88563" lon="1.22034">
        <ele>547</ele>
        <time>2024-02-04T11:26:44Z</time>
      </trkpt>
      <trkpt lat="42.88564" lon="1.22029">
        <ele>547.6</ele>
        <time>2024-02-04T11:26:45Z</time>
      </trkpt>
      <trkpt lat="42.88566" lon="1.22027">
        <ele>548</ele>
        <time>2024-02-04T11:26:46Z</time>
      </trkpt>
      <trkpt lat="42.88568" lon="1.22025">
        <ele>548.4</ele>
        <time>2024-02-04T11:26:47Z</time>
      </trkpt>
      <trkpt lat="42.88571" lon="1.22021">
        <ele>548.4</ele>
        <time>2024-02-04T11:26:49Z</time>
      </trkpt>
      <trkpt lat="42.88573" lon="1.22017">
        <ele>548.8</ele>
        <time>2024-02-04T11:26:50Z</time>
      </trkpt>
      <trkpt lat="42.88574" lon="1.22014">
        <ele>549.2</ele>
        <time>2024-02-04T11:26:51Z</time>
      </trkpt>
      <trkpt lat="42.88576" lon="1.2201">
        <ele>549.8</ele>
        <time>2024-02-04T11:26:52Z</time>
      </trkpt>
      <trkpt lat="42.88578" lon="1.22008">
        <ele>550.2</ele>
        <time>2024-02-04T11:26:53Z</time>
      </trkpt>
      <trkpt lat="42.88579" lon="1.22005">
        <ele>550.6</ele>
        <time>2024-02-04T11:26:54Z</time>
      </trkpt>
      <trkpt lat="42.88581" lon="1.21998">
        <ele>550.6</ele>
        <time>2024-02-04T11:26:56Z</time>
      </trkpt>
      <trkpt lat="42.88582" lon="1.21996">
        <ele>551</ele>
        <time>2024-02-04T11:26:57Z</time>
      </trkpt>
      <trkpt lat="42.88582" lon="1.21993">
        <ele>551.6</ele>
        <time>2024-02-04T11:26:58Z</time>
      </trkpt>
      <trkpt lat="42.88583" lon="1.2199">
        <ele>552</ele>
        <time>2024-02-04T11:26:59Z</time>
      </trkpt>
      <trkpt lat="42.88583" lon="1.21988">
        <ele>552.4</ele>
        <time>2024-02-04T11:27:00Z</time>
      </trkpt>
      <trkpt lat="42.88584" lon="1.21987">
        <ele>552.8</ele>
        <time>2024-02-04T11:27:01Z</time>
      </trkpt>
      <trkpt lat="42.88585" lon="1.21989">
        <ele>552.8</ele>
        <time>2024-02-04T11:27:04Z</time>
      </trkpt>
      <trkpt lat="42.88582" lon="1.21993">
        <ele>553.4</ele>
        <time>2024-02-04T11:27:06Z</time>
      </trkpt>
      <trkpt lat="42.8858" lon="1.21996">
        <ele>554.2</ele>
        <time>2024-02-04T11:27:07Z</time>
      </trkpt>
      <trkpt lat="42.88577" lon="1.21997">
        <ele>554.6</ele>
        <time>2024-02-04T11:27:08Z</time>
      </trkpt>
      <trkpt lat="42.88575" lon="1.21997">
        <ele>555</ele>
        <time>2024-02-04T11:27:09Z</time>
      </trkpt>
      <trkpt lat="42.88573" lon="1.21998">
        <ele>555</ele>
        <time>2024-02-04T11:27:10Z</time>
      </trkpt>
      <trkpt lat="42.88571" lon="1.22">
        <ele>555.4</ele>
        <time>2024-02-04T11:27:11Z</time>
      </trkpt>
      <trkpt lat="42.88569" lon="1.22001">
        <ele>556</ele>
        <time>2024-02-04T11:27:12Z</time>
      </trkpt>
      <trkpt lat="42.88567" lon="1.22003">
        <ele>556.4</ele>
        <time>2024-02-04T11:27:13Z</time>
      </trkpt>
      <trkpt lat="42.88565" lon="1.22004">
        <ele>556.8</ele>
        <time>2024-02-04T11:27:14Z</time>
      </trkpt>
      <trkpt lat="42.88563" lon="1.22005">
        <ele>557.2</ele>
        <time>2024-02-04T11:27:15Z</time>
      </trkpt>
      <trkpt lat="42.88559" lon="1.22007">
        <ele>557.2</ele>
        <time>2024-02-04T11:27:17Z</time>
      </trkpt>
      <trkpt lat="42.88552" lon="1.22014">
        <ele>557.2</ele>
        <time>2024-02-04T11:27:21Z</time>
      </trkpt>
      <trkpt lat="42.88551" lon="1.22015">
        <ele>557.2</ele>
        <time>2024-02-04T11:27:22Z</time>
      </trkpt>
      <trkpt lat="42.88547" lon="1.22018">
        <ele>557.2</ele>
        <time>2024-02-04T11:27:25Z</time>
      </trkpt>
      <trkpt lat="42.88542" lon="1.22022">
        <ele>557.2</ele>
        <time>2024-02-04T11:27:28Z</time>
      </trkpt>
      <trkpt lat="42.88534" lon="1.2203">
        <ele>557.6</ele>
        <time>2024-02-04T11:27:32Z</time>
      </trkpt>
      <trkpt lat="42.88532" lon="1.22032">
        <ele>558</ele>
        <time>2024-02-04T11:27:33Z</time>
      </trkpt>
      <trkpt lat="42.8853" lon="1.22034">
        <ele>558.6</ele>
        <time>2024-02-04T11:27:34Z</time>
      </trkpt>
      <trkpt lat="42.88528" lon="1.22036">
        <ele>559</ele>
        <time>2024-02-04T11:27:35Z</time>
      </trkpt>
      <trkpt lat="42.88526" lon="1.22038">
        <ele>559.4</ele>
        <time>2024-02-04T11:27:36Z</time>
      </trkpt>
      <trkpt lat="42.88524" lon="1.2204">
        <ele>559.4</ele>
        <time>2024-02-04T11:27:37Z</time>
      </trkpt>
      <trkpt lat="42.88514" lon="1.22046">
        <ele>559.8</ele>
        <time>2024-02-04T11:27:42Z</time>
      </trkpt>
      <trkpt lat="42.88511" lon="1.22047">
        <ele>560.2</ele>
        <time>2024-02-04T11:27:43Z</time>
      </trkpt>
      <trkpt lat="42.88508" lon="1.22047">
        <ele>560.6</ele>
        <time>2024-02-04T11:27:44Z</time>
      </trkpt>
      <trkpt lat="42.88506" lon="1.22047">
        <ele>561</ele>
        <time>2024-02-04T11:27:45Z</time>
      </trkpt>
      <trkpt lat="42.88504" lon="1.22049">
        <ele>561.6</ele>
        <time>2024-02-04T11:27:46Z</time>
      </trkpt>
      <trkpt lat="42.88499" lon="1.22052">
        <ele>561.6</ele>
        <time>2024-02-04T11:27:48Z</time>
      </trkpt>
      <trkpt lat="42.88464" lon="1.22032">
        <ele>562</ele>
        <time>2024-02-04T11:27:49Z</time>
      </trkpt>
      <trkpt lat="42.88438" lon="1.22026">
        <ele>562.4</ele>
        <time>2024-02-04T11:27:50Z</time>
      </trkpt>
      <trkpt lat="42.88421" lon="1.2204">
        <ele>562.8</ele>
        <time>2024-02-04T11:27:51Z</time>
      </trkpt>
      <trkpt lat="42.88411" lon="1.22043">
        <ele>563.2</ele>
        <time>2024-02-04T11:27:52Z</time>
      </trkpt>
      <trkpt lat="42.88404" lon="1.22045">
        <ele>563.6</ele>
        <time>2024-02-04T11:27:53Z</time>
      </trkpt>
      <trkpt lat="42.88396" lon="1.2205">
        <ele>564</ele>
        <time>2024-02-04T11:27:55Z</time>
      </trkpt>
      <trkpt lat="42.88393" lon="1.22052">
        <ele>564.6</ele>
        <time>2024-02-04T11:27:56Z</time>
      </trkpt>
      <trkpt lat="42.88391" lon="1.22054">
        <ele>565.4</ele>
        <time>2024-02-04T11:27:57Z</time>
      </trkpt>
      <trkpt lat="42.8839" lon="1.22056">
        <ele>566</ele>
        <time>2024-02-04T11:27:58Z</time>
      </trkpt>
      <trkpt lat="42.88388" lon="1.22058">
        <ele>566.4</ele>
        <time>2024-02-04T11:27:59Z</time>
      </trkpt>
      <trkpt lat="42.88386" lon="1.2206">
        <ele>566.8</ele>
        <time>2024-02-04T11:28:00Z</time>
      </trkpt>
      <trkpt lat="42.88384" lon="1.22061">
        <ele>567.2</ele>
        <time>2024-02-04T11:28:01Z</time>
      </trkpt>
      <trkpt lat="42.88382" lon="1.22063">
        <ele>567.6</ele>
        <time>2024-02-04T11:28:02Z</time>
      </trkpt>
      <trkpt lat="42.8838" lon="1.22065">
        <ele>568</ele>
        <time>2024-02-04T11:28:03Z</time>
      </trkpt>
      <trkpt lat="42.88378" lon="1.22067">
        <ele>568.4</ele>
        <time>2024-02-04T11:28:04Z</time>
      </trkpt>
      <trkpt lat="42.88377" lon="1.22069">
        <ele>569</ele>
        <time>2024-02-04T11:28:05Z</time>
      </trkpt>
      <trkpt lat="42.88375" lon="1.2207">
        <ele>569.4</ele>
        <time>2024-02-04T11:28:06Z</time>
      </trkpt>
      <trkpt lat="42.88374" lon="1.22072">
        <ele>569.8</ele>
        <time>2024-02-04T11:28:07Z</time>
      </trkpt>
      <trkpt lat="42.88372" lon="1.22074">
        <ele>570.2</ele>
        <time>2024-02-04T11:28:08Z</time>
      </trkpt>
      <trkpt lat="42.88368" lon="1.2208">
        <ele>570.2</ele>
        <time>2024-02-04T11:28:12Z</time>
      </trkpt>
      <trkpt lat="42.88367" lon="1.22081">
        <ele>570.2</ele>
        <time>2024-02-04T11:28:14Z</time>
      </trkpt>
      <trkpt lat="42.88359" lon="1.2209">
        <ele>570.2</ele>
        <time>2024-02-04T11:29:12Z</time>
      </trkpt>
      <trkpt lat="42.8836" lon="1.22097">
        <ele>570.2</ele>
        <time>2024-02-04T11:29:14Z</time>
      </trkpt>
      <trkpt lat="42.88353" lon="1.2212">
        <ele>570.2</ele>
        <time>2024-02-04T11:29:19Z</time>
      </trkpt>
      <trkpt lat="42.88346" lon="1.22135">
        <ele>569.8</ele>
        <time>2024-02-04T11:29:21Z</time>
      </trkpt>
      <trkpt lat="42.88342" lon="1.22144">
        <ele>569.4</ele>
        <time>2024-02-04T11:29:22Z</time>
      </trkpt>
      <trkpt lat="42.88337" lon="1.22152">
        <ele>569</ele>
        <time>2024-02-04T11:29:23Z</time>
      </trkpt>
      <trkpt lat="42.88332" lon="1.22159">
        <ele>568.6</ele>
        <time>2024-02-04T11:29:24Z</time>
      </trkpt>
      <trkpt lat="42.88328" lon="1.22168">
        <ele>568.2</ele>
        <time>2024-02-04T11:29:25Z</time>
      </trkpt>
      <trkpt lat="42.88323" lon="1.22176">
        <ele>567.6</ele>
        <time>2024-02-04T11:29:26Z</time>
      </trkpt>
      <trkpt lat="42.88319" lon="1.22183">
        <ele>567.2</ele>
        <time>2024-02-04T11:29:27Z</time>
      </trkpt>
      <trkpt lat="42.88314" lon="1.2219">
        <ele>566.6</ele>
        <time>2024-02-04T11:29:28Z</time>
      </trkpt>
      <trkpt lat="42.8831" lon="1.22197">
        <ele>566.2</ele>
        <time>2024-02-04T11:29:29Z</time>
      </trkpt>
      <trkpt lat="42.88306" lon="1.22203">
        <ele>565.6</ele>
        <time>2024-02-04T11:29:30Z</time>
      </trkpt>
      <trkpt lat="42.88303" lon="1.22207">
        <ele>565.6</ele>
        <time>2024-02-04T11:29:31Z</time>
      </trkpt>
      <trkpt lat="42.883" lon="1.22211">
        <ele>565.6</ele>
        <time>2024-02-04T11:29:32Z</time>
      </trkpt>
      <trkpt lat="42.88297" lon="1.22217">
        <ele>565.6</ele>
        <time>2024-02-04T11:29:35Z</time>
      </trkpt>
      <trkpt lat="42.88289" lon="1.22227">
        <ele>565.6</ele>
        <time>2024-02-04T11:29:40Z</time>
      </trkpt>
      <trkpt lat="42.88283" lon="1.22236">
        <ele>565.6</ele>
        <time>2024-02-04T11:29:45Z</time>
      </trkpt>
      <trkpt lat="42.8828" lon="1.22236">
        <ele>565.6</ele>
        <time>2024-02-04T11:29:48Z</time>
      </trkpt>
      <trkpt lat="42.8828" lon="1.22235">
        <ele>565.6</ele>
        <time>2024-02-04T11:29:49Z</time>
      </trkpt>
      <trkpt lat="42.88278" lon="1.22228">
        <ele>566</ele>
        <time>2024-02-04T11:29:51Z</time>
      </trkpt>
      <trkpt lat="42.88276" lon="1.22225">
        <ele>566.4</ele>
        <time>2024-02-04T11:29:52Z</time>
      </trkpt>
      <trkpt lat="42.88275" lon="1.22223">
        <ele>566.8</ele>
        <time>2024-02-04T11:29:53Z</time>
      </trkpt>
      <trkpt lat="42.88274" lon="1.2222">
        <ele>567.4</ele>
        <time>2024-02-04T11:29:54Z</time>
      </trkpt>
      <trkpt lat="42.88273" lon="1.22218">
        <ele>567.8</ele>
        <time>2024-02-04T11:29:55Z</time>
      </trkpt>
      <trkpt lat="42.88272" lon="1.22216">
        <ele>568.4</ele>
        <time>2024-02-04T11:29:56Z</time>
      </trkpt>
      <trkpt lat="42.88272" lon="1.22215">
        <ele>569</ele>
        <time>2024-02-04T11:29:57Z</time>
      </trkpt>
      <trkpt lat="42.88272" lon="1.22214">
        <ele>569.4</ele>
        <time>2024-02-04T11:29:58Z</time>
      </trkpt>
      <trkpt lat="42.88272" lon="1.22212">
        <ele>570</ele>
        <time>2024-02-04T11:29:59Z</time>
      </trkpt>
      <trkpt lat="42.88271" lon="1.2221">
        <ele>571.2</ele>
        <time>2024-02-04T11:30:00Z</time>
      </trkpt>
      <trkpt lat="42.88271" lon="1.22208">
        <ele>571.8</ele>
        <time>2024-02-04T11:30:01Z</time>
      </trkpt>
      <trkpt lat="42.88271" lon="1.22207">
        <ele>572.2</ele>
        <time>2024-02-04T11:30:02Z</time>
      </trkpt>
      <trkpt lat="42.88271" lon="1.22206">
        <ele>572.8</ele>
        <time>2024-02-04T11:30:03Z</time>
      </trkpt>
      <trkpt lat="42.88271" lon="1.22204">
        <ele>573.4</ele>
        <time>2024-02-04T11:30:04Z</time>
      </trkpt>
      <trkpt lat="42.88271" lon="1.22203">
        <ele>574</ele>
        <time>2024-02-04T11:30:05Z</time>
      </trkpt>
      <trkpt lat="42.88271" lon="1.22202">
        <ele>574.4</ele>
        <time>2024-02-04T11:30:06Z</time>
      </trkpt>
      <trkpt lat="42.8827" lon="1.22201">
        <ele>575</ele>
        <time>2024-02-04T11:30:07Z</time>
      </trkpt>
      <trkpt lat="42.8827" lon="1.22199">
        <ele>575.6</ele>
        <time>2024-02-04T11:30:08Z</time>
      </trkpt>
      <trkpt lat="42.8827" lon="1.22198">
        <ele>576.2</ele>
        <time>2024-02-04T11:30:09Z</time>
      </trkpt>
      <trkpt lat="42.8827" lon="1.22196">
        <ele>576.8</ele>
        <time>2024-02-04T11:30:10Z</time>
      </trkpt>
      <trkpt lat="42.8827" lon="1.22194">
        <ele>577.4</ele>
        <time>2024-02-04T11:30:11Z</time>
      </trkpt>
      <trkpt lat="42.8827" lon="1.22191">
        <ele>577.8</ele>
        <time>2024-02-04T11:30:12Z</time>
      </trkpt>
      <trkpt lat="42.8827" lon="1.22187">
        <ele>578.4</ele>
        <time>2024-02-04T11:30:13Z</time>
      </trkpt>
      <trkpt lat="42.8827" lon="1.22185">
        <ele>579</ele>
        <time>2024-02-04T11:30:14Z</time>
      </trkpt>
      <trkpt lat="42.8827" lon="1.22182">
        <ele>579.6</ele>
        <time>2024-02-04T11:30:15Z</time>
      </trkpt>
      <trkpt lat="42.88269" lon="1.22181">
        <ele>580</ele>
        <time>2024-02-04T11:30:16Z</time>
      </trkpt>
      <trkpt lat="42.88268" lon="1.22179">
        <ele>580.6</ele>
        <time>2024-02-04T11:30:17Z</time>
      </trkpt>
      <trkpt lat="42.88266" lon="1.22178">
        <ele>581.2</ele>
        <time>2024-02-04T11:30:18Z</time>
      </trkpt>
      <trkpt lat="42.88265" lon="1.22177">
        <ele>581.8</ele>
        <time>2024-02-04T11:30:19Z</time>
      </trkpt>
      <trkpt lat="42.88263" lon="1.22176">
        <ele>582.2</ele>
        <time>2024-02-04T11:30:20Z</time>
      </trkpt>
      <trkpt lat="42.88262" lon="1.22175">
        <ele>582.8</ele>
        <time>2024-02-04T11:30:21Z</time>
      </trkpt>
      <trkpt lat="42.8826" lon="1.22173">
        <ele>583.4</ele>
        <time>2024-02-04T11:30:22Z</time>
      </trkpt>
      <trkpt lat="42.88259" lon="1.22172">
        <ele>584</ele>
        <time>2024-02-04T11:30:23Z</time>
      </trkpt>
      <trkpt lat="42.88257" lon="1.22171">
        <ele>584.4</ele>
        <time>2024-02-04T11:30:24Z</time>
      </trkpt>
      <trkpt lat="42.88256" lon="1.22169">
        <ele>585.8</ele>
        <time>2024-02-04T11:30:25Z</time>
      </trkpt>
      <trkpt lat="42.88254" lon="1.22168">
        <ele>586.4</ele>
        <time>2024-02-04T11:30:26Z</time>
      </trkpt>
      <trkpt lat="42.88253" lon="1.22166">
        <ele>587.2</ele>
        <time>2024-02-04T11:30:27Z</time>
      </trkpt>
      <trkpt lat="42.88251" lon="1.22164">
        <ele>587.8</ele>
        <time>2024-02-04T11:30:28Z</time>
      </trkpt>
      <trkpt lat="42.88249" lon="1.22161">
        <ele>588.2</ele>
        <time>2024-02-04T11:30:29Z</time>
      </trkpt>
      <trkpt lat="42.88248" lon="1.22159">
        <ele>588.6</ele>
        <time>2024-02-04T11:30:30Z</time>
      </trkpt>
      <trkpt lat="42.88245" lon="1.22156">
        <ele>589</ele>
        <time>2024-02-04T11:30:31Z</time>
      </trkpt>
      <trkpt lat="42.88244" lon="1.22154">
        <ele>589.6</ele>
        <time>2024-02-04T11:30:32Z</time>
      </trkpt>
      <trkpt lat="42.88243" lon="1.22152">
        <ele>590</ele>
        <time>2024-02-04T11:30:33Z</time>
      </trkpt>
      <trkpt lat="42.88243" lon="1.22151">
        <ele>590</ele>
        <time>2024-02-04T11:30:34Z</time>
      </trkpt>
      <trkpt lat="42.88241" lon="1.22148">
        <ele>590</ele>
        <time>2024-02-04T11:31:42Z</time>
      </trkpt>
      <trkpt lat="42.88238" lon="1.22145">
        <ele>590</ele>
        <time>2024-02-04T11:31:44Z</time>
      </trkpt>
      <trkpt lat="42.88228" lon="1.22138">
        <ele>590</ele>
        <time>2024-02-04T11:31:50Z</time>
      </trkpt>
      <trkpt lat="42.88216" lon="1.2213">
        <ele>590</ele>
        <time>2024-02-04T11:31:56Z</time>
      </trkpt>
      <trkpt lat="42.88203" lon="1.22121">
        <ele>590</ele>
        <time>2024-02-04T11:32:01Z</time>
      </trkpt>
      <trkpt lat="42.88182" lon="1.22107">
        <ele>590</ele>
        <time>2024-02-04T11:32:07Z</time>
      </trkpt>
      <trkpt lat="42.88177" lon="1.22104">
        <ele>589.6</ele>
        <time>2024-02-04T11:32:08Z</time>
      </trkpt>
      <trkpt lat="42.88173" lon="1.22101">
        <ele>589</ele>
        <time>2024-02-04T11:32:09Z</time>
      </trkpt>
      <trkpt lat="42.88168" lon="1.22097">
        <ele>588.6</ele>
        <time>2024-02-04T11:32:10Z</time>
      </trkpt>
      <trkpt lat="42.88162" lon="1.22093">
        <ele>588.2</ele>
        <time>2024-02-04T11:32:11Z</time>
      </trkpt>
      <trkpt lat="42.88155" lon="1.22088">
        <ele>587.6</ele>
        <time>2024-02-04T11:32:12Z</time>
      </trkpt>
      <trkpt lat="42.88148" lon="1.22084">
        <ele>587</ele>
        <time>2024-02-04T11:32:13Z</time>
      </trkpt>
      <trkpt lat="42.88141" lon="1.22079">
        <ele>586.4</ele>
        <time>2024-02-04T11:32:14Z</time>
      </trkpt>
      <trkpt lat="42.88133" lon="1.22075">
        <ele>585.6</ele>
        <time>2024-02-04T11:32:15Z</time>
      </trkpt>
      <trkpt lat="42.88125" lon="1.2207">
        <ele>584.8</ele>
        <time>2024-02-04T11:32:16Z</time>
      </trkpt>
      <trkpt lat="42.88116" lon="1.22065">
        <ele>583.8</ele>
        <time>2024-02-04T11:32:17Z</time>
      </trkpt>
      <trkpt lat="42.88107" lon="1.22059">
        <ele>582.8</ele>
        <time>2024-02-04T11:32:18Z</time>
      </trkpt>
      <trkpt lat="42.88098" lon="1.22054">
        <ele>581.8</ele>
        <time>2024-02-04T11:32:19Z</time>
      </trkpt>
      <trkpt lat="42.88089" lon="1.22048">
        <ele>580.8</ele>
        <time>2024-02-04T11:32:20Z</time>
      </trkpt>
      <trkpt lat="42.8808" lon="1.22042">
        <ele>579.8</ele>
        <time>2024-02-04T11:32:21Z</time>
      </trkpt>
      <trkpt lat="42.8807" lon="1.22036">
        <ele>578.6</ele>
        <time>2024-02-04T11:32:22Z</time>
      </trkpt>
      <trkpt lat="42.88061" lon="1.2203">
        <ele>577.6</ele>
        <time>2024-02-04T11:32:23Z</time>
      </trkpt>
      <trkpt lat="42.88051" lon="1.22024">
        <ele>576.6</ele>
        <time>2024-02-04T11:32:24Z</time>
      </trkpt>
      <trkpt lat="42.88042" lon="1.22019">
        <ele>575.6</ele>
        <time>2024-02-04T11:32:25Z</time>
      </trkpt>
      <trkpt lat="42.88032" lon="1.22014">
        <ele>574.6</ele>
        <time>2024-02-04T11:32:26Z</time>
      </trkpt>
      <trkpt lat="42.88022" lon="1.22008">
        <ele>573.6</ele>
        <time>2024-02-04T11:32:27Z</time>
      </trkpt>
      <trkpt lat="42.88013" lon="1.22005">
        <ele>571.8</ele>
        <time>2024-02-04T11:32:28Z</time>
      </trkpt>
      <trkpt lat="42.88005" lon="1.22002">
        <ele>570.8</ele>
        <time>2024-02-04T11:32:29Z</time>
      </trkpt>
      <trkpt lat="42.87997" lon="1.22">
        <ele>570</ele>
        <time>2024-02-04T11:32:30Z</time>
      </trkpt>
      <trkpt lat="42.87988" lon="1.21996">
        <ele>569</ele>
        <time>2024-02-04T11:32:31Z</time>
      </trkpt>
      <trkpt lat="42.8798" lon="1.21991">
        <ele>568.2</ele>
        <time>2024-02-04T11:32:32Z</time>
      </trkpt>
      <trkpt lat="42.87971" lon="1.21986">
        <ele>567.2</ele>
        <time>2024-02-04T11:32:33Z</time>
      </trkpt>
      <trkpt lat="42.87963" lon="1.21982">
        <ele>566.2</ele>
        <time>2024-02-04T11:32:34Z</time>
      </trkpt>
      <trkpt lat="42.87956" lon="1.2198">
        <ele>565</ele>
        <time>2024-02-04T11:32:35Z</time>
      </trkpt>
      <trkpt lat="42.87948" lon="1.21979">
        <ele>563.8</ele>
        <time>2024-02-04T11:32:36Z</time>
      </trkpt>
      <trkpt lat="42.87942" lon="1.21979">
        <ele>562.8</ele>
        <time>2024-02-04T11:32:37Z</time>
      </trkpt>
      <trkpt lat="42.87936" lon="1.21981">
        <ele>561.8</ele>
        <time>2024-02-04T11:32:38Z</time>
      </trkpt>
      <trkpt lat="42.87929" lon="1.21985">
        <ele>560.8</ele>
        <time>2024-02-04T11:32:39Z</time>
      </trkpt>
      <trkpt lat="42.87923" lon="1.21989">
        <ele>559.6</ele>
        <time>2024-02-04T11:32:40Z</time>
      </trkpt>
      <trkpt lat="42.87917" lon="1.21991">
        <ele>558.8</ele>
        <time>2024-02-04T11:32:41Z</time>
      </trkpt>
      <trkpt lat="42.87912" lon="1.2199">
        <ele>557.8</ele>
        <time>2024-02-04T11:32:42Z</time>
      </trkpt>
      <trkpt lat="42.87908" lon="1.21989">
        <ele>557</ele>
        <time>2024-02-04T11:32:43Z</time>
      </trkpt>
      <trkpt lat="42.87904" lon="1.21985">
        <ele>556</ele>
        <time>2024-02-04T11:32:44Z</time>
      </trkpt>
      <trkpt lat="42.87902" lon="1.2198">
        <ele>555</ele>
        <time>2024-02-04T11:32:45Z</time>
      </trkpt>
      <trkpt lat="42.87901" lon="1.21976">
        <ele>555</ele>
        <time>2024-02-04T11:32:46Z</time>
      </trkpt>
      <trkpt lat="42.87899" lon="1.21967">
        <ele>555</ele>
        <time>2024-02-04T11:32:50Z</time>
      </trkpt>
      <trkpt lat="42.879" lon="1.21963">
        <ele>555</ele>
        <time>2024-02-04T11:32:52Z</time>
      </trkpt>
      <trkpt lat="42.87902" lon="1.21955">
        <ele>555</ele>
        <time>2024-02-04T11:32:55Z</time>
      </trkpt>
      <trkpt lat="42.87902" lon="1.21955">
        <ele>555</ele>
        <time>2024-02-04T11:32:56Z</time>
      </trkpt>
      <trkpt lat="42.87904" lon="1.2195">
        <ele>555</ele>
        <time>2024-02-04T11:33:15Z</time>
      </trkpt>
      <trkpt lat="42.87904" lon="1.21942">
        <ele>555</ele>
        <time>2024-02-04T11:33:17Z</time>
      </trkpt>
      <trkpt lat="42.87903" lon="1.21938">
        <ele>554.2</ele>
        <time>2024-02-04T11:33:18Z</time>
      </trkpt>
      <trkpt lat="42.87903" lon="1.21933">
        <ele>553.8</ele>
        <time>2024-02-04T11:33:19Z</time>
      </trkpt>
      <trkpt lat="42.87904" lon="1.21928">
        <ele>553.4</ele>
        <time>2024-02-04T11:33:20Z</time>
      </trkpt>
      <trkpt lat="42.87903" lon="1.21924">
        <ele>553</ele>
        <time>2024-02-04T11:33:21Z</time>
      </trkpt>
      <trkpt lat="42.87904" lon="1.2192">
        <ele>553</ele>
        <time>2024-02-04T11:33:22Z</time>
      </trkpt>
      <trkpt lat="42.87903" lon="1.21907">
        <ele>552.6</ele>
        <time>2024-02-04T11:33:25Z</time>
      </trkpt>
      <trkpt lat="42.87904" lon="1.21903">
        <ele>552.2</ele>
        <time>2024-02-04T11:33:26Z</time>
      </trkpt>
      <trkpt lat="42.87904" lon="1.21899">
        <ele>551.8</ele>
        <time>2024-02-04T11:33:27Z</time>
      </trkpt>
      <trkpt lat="42.87904" lon="1.21896">
        <ele>551.4</ele>
        <time>2024-02-04T11:33:28Z</time>
      </trkpt>
      <trkpt lat="42.87904" lon="1.21893">
        <ele>551</ele>
        <time>2024-02-04T11:33:29Z</time>
      </trkpt>
      <trkpt lat="42.87904" lon="1.21888">
        <ele>550.4</ele>
        <time>2024-02-04T11:33:31Z</time>
      </trkpt>
      <trkpt lat="42.87904" lon="1.21886">
        <ele>550</ele>
        <time>2024-02-04T11:33:32Z</time>
      </trkpt>
      <trkpt lat="42.87904" lon="1.21885">
        <ele>549.6</ele>
        <time>2024-02-04T11:33:33Z</time>
      </trkpt>
      <trkpt lat="42.87904" lon="1.21884">
        <ele>549.2</ele>
        <time>2024-02-04T11:33:34Z</time>
      </trkpt>
      <trkpt lat="42.87905" lon="1.21882">
        <ele>548.8</ele>
        <time>2024-02-04T11:33:35Z</time>
      </trkpt>
      <trkpt lat="42.87904" lon="1.21879">
        <ele>548.8</ele>
        <time>2024-02-04T11:33:37Z</time>
      </trkpt>
      <trkpt lat="42.87904" lon="1.21873">
        <ele>548.8</ele>
        <time>2024-02-04T11:33:40Z</time>
      </trkpt>
      <trkpt lat="42.87904" lon="1.2187">
        <ele>548.4</ele>
        <time>2024-02-04T11:33:42Z</time>
      </trkpt>
      <trkpt lat="42.87904" lon="1.21868">
        <ele>547.4</ele>
        <time>2024-02-04T11:33:43Z</time>
      </trkpt>
      <trkpt lat="42.87904" lon="1.21865">
        <ele>547</ele>
        <time>2024-02-04T11:33:44Z</time>
      </trkpt>
      <trkpt lat="42.87903" lon="1.21862">
        <ele>546.6</ele>
        <time>2024-02-04T11:33:45Z</time>
      </trkpt>
      <trkpt lat="42.879" lon="1.21856">
        <ele>546</ele>
        <time>2024-02-04T11:33:47Z</time>
      </trkpt>
      <trkpt lat="42.87899" lon="1.21854">
        <ele>545.6</ele>
        <time>2024-02-04T11:33:48Z</time>
      </trkpt>
      <trkpt lat="42.87897" lon="1.21851">
        <ele>545.2</ele>
        <time>2024-02-04T11:33:49Z</time>
      </trkpt>
      <trkpt lat="42.87895" lon="1.21849">
        <ele>544.8</ele>
        <time>2024-02-04T11:33:50Z</time>
      </trkpt>
      <trkpt lat="42.87894" lon="1.21848">
        <ele>544.2</ele>
        <time>2024-02-04T11:33:51Z</time>
      </trkpt>
      <trkpt lat="42.87894" lon="1.21848">
        <ele>543.8</ele>
        <time>2024-02-04T11:33:52Z</time>
      </trkpt>
      <trkpt lat="42.87893" lon="1.21847">
        <ele>543.4</ele>
        <time>2024-02-04T11:33:53Z</time>
      </trkpt>
      <trkpt lat="42.8789" lon="1.21844">
        <ele>542.2</ele>
        <time>2024-02-04T11:34:48Z</time>
      </trkpt>
      <trkpt lat="42.87883" lon="1.2184">
        <ele>542.2</ele>
        <time>2024-02-04T11:34:50Z</time>
      </trkpt>
      <trkpt lat="42.87878" lon="1.21839">
        <ele>542.2</ele>
        <time>2024-02-04T11:34:51Z</time>
      </trkpt>
      <trkpt lat="42.87863" lon="1.21838">
        <ele>541.8</ele>
        <time>2024-02-04T11:34:54Z</time>
      </trkpt>
      <trkpt lat="42.87856" lon="1.21837">
        <ele>541.2</ele>
        <time>2024-02-04T11:34:55Z</time>
      </trkpt>
      <trkpt lat="42.87849" lon="1.21836">
        <ele>540.2</ele>
        <time>2024-02-04T11:34:56Z</time>
      </trkpt>
      <trkpt lat="42.87841" lon="1.21835">
        <ele>539.4</ele>
        <time>2024-02-04T11:34:57Z</time>
      </trkpt>
      <trkpt lat="42.87833" lon="1.21835">
        <ele>538.8</ele>
        <time>2024-02-04T11:34:58Z</time>
      </trkpt>
      <trkpt lat="42.87825" lon="1.21836">
        <ele>538</ele>
        <time>2024-02-04T11:34:59Z</time>
      </trkpt>
      <trkpt lat="42.87816" lon="1.21837">
        <ele>537.4</ele>
        <time>2024-02-04T11:35:00Z</time>
      </trkpt>
      <trkpt lat="42.87807" lon="1.21839">
        <ele>536.6</ele>
        <time>2024-02-04T11:35:01Z</time>
      </trkpt>
      <trkpt lat="42.87798" lon="1.21842">
        <ele>535.8</ele>
        <time>2024-02-04T11:35:02Z</time>
      </trkpt>
      <trkpt lat="42.8779" lon="1.21845">
        <ele>534.8</ele>
        <time>2024-02-04T11:35:03Z</time>
      </trkpt>
      <trkpt lat="42.87781" lon="1.21849">
        <ele>534</ele>
        <time>2024-02-04T11:35:04Z</time>
      </trkpt>
      <trkpt lat="42.87772" lon="1.21853">
        <ele>533.2</ele>
        <time>2024-02-04T11:35:05Z</time>
      </trkpt>
      <trkpt lat="42.87763" lon="1.21857">
        <ele>532.4</ele>
        <time>2024-02-04T11:35:06Z</time>
      </trkpt>
      <trkpt lat="42.87753" lon="1.21857">
        <ele>531.6</ele>
        <time>2024-02-04T11:35:07Z</time>
      </trkpt>
      <trkpt lat="42.87744" lon="1.21856">
        <ele>530.6</ele>
        <time>2024-02-04T11:35:08Z</time>
      </trkpt>
      <trkpt lat="42.87733" lon="1.21854">
        <ele>529.6</ele>
        <time>2024-02-04T11:35:09Z</time>
      </trkpt>
      <trkpt lat="42.87723" lon="1.21854">
        <ele>528.8</ele>
        <time>2024-02-04T11:35:10Z</time>
      </trkpt>
      <trkpt lat="42.87712" lon="1.21855">
        <ele>527.8</ele>
        <time>2024-02-04T11:35:11Z</time>
      </trkpt>
      <trkpt lat="42.87702" lon="1.21856">
        <ele>527</ele>
        <time>2024-02-04T11:35:12Z</time>
      </trkpt>
      <trkpt lat="42.87691" lon="1.21858">
        <ele>526</ele>
        <time>2024-02-04T11:35:13Z</time>
      </trkpt>
      <trkpt lat="42.87682" lon="1.2186">
        <ele>525.2</ele>
        <time>2024-02-04T11:35:14Z</time>
      </trkpt>
      <trkpt lat="42.87673" lon="1.2186">
        <ele>524.4</ele>
        <time>2024-02-04T11:35:15Z</time>
      </trkpt>
      <trkpt lat="42.87664" lon="1.2186">
        <ele>523.4</ele>
        <time>2024-02-04T11:35:16Z</time>
      </trkpt>
      <trkpt lat="42.87655" lon="1.21859">
        <ele>522.4</ele>
        <time>2024-02-04T11:35:17Z</time>
      </trkpt>
      <trkpt lat="42.87645" lon="1.21859">
        <ele>521.6</ele>
        <time>2024-02-04T11:35:18Z</time>
      </trkpt>
      <trkpt lat="42.87636" lon="1.2186">
        <ele>520.8</ele>
        <time>2024-02-04T11:35:19Z</time>
      </trkpt>
      <trkpt lat="42.87627" lon="1.21864">
        <ele>520.2</ele>
        <time>2024-02-04T11:35:20Z</time>
      </trkpt>
      <trkpt lat="42.87619" lon="1.21867">
        <ele>518.8</ele>
        <time>2024-02-04T11:35:21Z</time>
      </trkpt>
      <trkpt lat="42.87609" lon="1.21869">
        <ele>518</ele>
        <time>2024-02-04T11:35:22Z</time>
      </trkpt>
      <trkpt lat="42.87601" lon="1.21869">
        <ele>517.2</ele>
        <time>2024-02-04T11:35:23Z</time>
      </trkpt>
      <trkpt lat="42.87593" lon="1.21869">
        <ele>516.4</ele>
        <time>2024-02-04T11:35:24Z</time>
      </trkpt>
      <trkpt lat="42.87586" lon="1.21868">
        <ele>515.4</ele>
        <time>2024-02-04T11:35:25Z</time>
      </trkpt>
      <trkpt lat="42.87579" lon="1.21864">
        <ele>514.4</ele>
        <time>2024-02-04T11:35:26Z</time>
      </trkpt>
      <trkpt lat="42.87573" lon="1.21859">
        <ele>513.6</ele>
        <time>2024-02-04T11:35:27Z</time>
      </trkpt>
      <trkpt lat="42.87566" lon="1.21854">
        <ele>512.6</ele>
        <time>2024-02-04T11:35:28Z</time>
      </trkpt>
      <trkpt lat="42.87559" lon="1.2185">
        <ele>511.6</ele>
        <time>2024-02-04T11:35:29Z</time>
      </trkpt>
      <trkpt lat="42.87552" lon="1.21847">
        <ele>511</ele>
        <time>2024-02-04T11:35:30Z</time>
      </trkpt>
      <trkpt lat="42.87548" lon="1.21844">
        <ele>510.2</ele>
        <time>2024-02-04T11:35:31Z</time>
      </trkpt>
      <trkpt lat="42.87543" lon="1.21842">
        <ele>509.6</ele>
        <time>2024-02-04T11:35:32Z</time>
      </trkpt>
      <trkpt lat="42.87541" lon="1.21841">
        <ele>509</ele>
        <time>2024-02-04T11:35:33Z</time>
      </trkpt>
      <trkpt lat="42.87539" lon="1.21839">
        <ele>508.4</ele>
        <time>2024-02-04T11:35:34Z</time>
      </trkpt>
      <trkpt lat="42.87539" lon="1.21837">
        <ele>508.4</ele>
        <time>2024-02-04T11:35:35Z</time>
      </trkpt>
      <trkpt lat="42.87538" lon="1.21835">
        <ele>508.4</ele>
        <time>2024-02-04T11:35:38Z</time>
      </trkpt>
      <trkpt lat="42.87534" lon="1.21835">
        <ele>508.4</ele>
        <time>2024-02-04T11:35:44Z</time>
      </trkpt>
      <trkpt lat="42.87534" lon="1.21836">
        <ele>508.4</ele>
        <time>2024-02-04T11:35:46Z</time>
      </trkpt>
      <trkpt lat="42.87534" lon="1.21836">
        <ele>508.4</ele>
        <time>2024-02-04T11:35:47Z</time>
      </trkpt>
      <trkpt lat="42.87537" lon="1.21829">
        <ele>508.4</ele>
        <time>2024-02-04T11:39:30Z</time>
      </trkpt>
      <trkpt lat="42.87536" lon="1.21824">
        <ele>508.4</ele>
        <time>2024-02-04T11:39:32Z</time>
      </trkpt>
      <trkpt lat="42.87528" lon="1.21809">
        <ele>508.4</ele>
        <time>2024-02-04T11:39:36Z</time>
      </trkpt>
      <trkpt lat="42.87525" lon="1.218">
        <ele>508</ele>
        <time>2024-02-04T11:39:38Z</time>
      </trkpt>
      <trkpt lat="42.87524" lon="1.21796">
        <ele>507.4</ele>
        <time>2024-02-04T11:39:39Z</time>
      </trkpt>
      <trkpt lat="42.87522" lon="1.21793">
        <ele>507</ele>
        <time>2024-02-04T11:39:40Z</time>
      </trkpt>
      <trkpt lat="42.8752" lon="1.21788">
        <ele>506.6</ele>
        <time>2024-02-04T11:39:41Z</time>
      </trkpt>
      <trkpt lat="42.87518" lon="1.21784">
        <ele>506.2</ele>
        <time>2024-02-04T11:39:42Z</time>
      </trkpt>
      <trkpt lat="42.87513" lon="1.21774">
        <ele>506.2</ele>
        <time>2024-02-04T11:39:45Z</time>
      </trkpt>
      <trkpt lat="42.87501" lon="1.21771">
        <ele>506.2</ele>
        <time>2024-02-04T11:39:49Z</time>
      </trkpt>
      <trkpt lat="42.87479" lon="1.21776">
        <ele>506.2</ele>
        <time>2024-02-04T11:39:55Z</time>
      </trkpt>
      <trkpt lat="42.87471" lon="1.21769">
        <ele>506.2</ele>
        <time>2024-02-04T11:39:58Z</time>
      </trkpt>
      <trkpt lat="42.87462" lon="1.21748">
        <ele>506.2</ele>
        <time>2024-02-04T11:40:03Z</time>
      </trkpt>
      <trkpt lat="42.87449" lon="1.21722">
        <ele>506.2</ele>
        <time>2024-02-04T11:40:10Z</time>
      </trkpt>
      <trkpt lat="42.87444" lon="1.21715">
        <ele>506.2</ele>
        <time>2024-02-04T11:40:14Z</time>
      </trkpt>
      <trkpt lat="42.87436" lon="1.21721">
        <ele>506.2</ele>
        <time>2024-02-04T11:40:17Z</time>
      </trkpt>
      <trkpt lat="42.87434" lon="1.21724">
        <ele>506.2</ele>
        <time>2024-02-04T11:40:18Z</time>
      </trkpt>
      <trkpt lat="42.87421" lon="1.21731">
        <ele>506.2</ele>
        <time>2024-02-04T11:40:23Z</time>
      </trkpt>
      <trkpt lat="42.87403" lon="1.21729">
        <ele>506.2</ele>
        <time>2024-02-04T11:40:30Z</time>
      </trkpt>
      <trkpt lat="42.87402" lon="1.21726">
        <ele>506.2</ele>
        <time>2024-02-04T11:40:31Z</time>
      </trkpt>
      <trkpt lat="42.87401" lon="1.21722">
        <ele>506.2</ele>
        <time>2024-02-04T11:40:33Z</time>
      </trkpt>
      <trkpt lat="42.87402" lon="1.21707">
        <ele>506.2</ele>
        <time>2024-02-04T11:40:37Z</time>
      </trkpt>
      <trkpt lat="42.87402" lon="1.21699">
        <ele>506.2</ele>
        <time>2024-02-04T11:40:39Z</time>
      </trkpt>
      <trkpt lat="42.87403" lon="1.21682">
        <ele>506.2</ele>
        <time>2024-02-04T11:40:44Z</time>
      </trkpt>
      <trkpt lat="42.87403" lon="1.21678">
        <ele>506.2</ele>
        <time>2024-02-04T11:40:48Z</time>
      </trkpt>
      <trkpt lat="42.87404" lon="1.21683">
        <ele>506.2</ele>
        <time>2024-02-04T11:40:52Z</time>
      </trkpt>
      <trkpt lat="42.87401" lon="1.217">
        <ele>506.2</ele>
        <time>2024-02-04T11:40:56Z</time>
      </trkpt>
      <trkpt lat="42.874" lon="1.21722">
        <ele>506.2</ele>
        <time>2024-02-04T11:41:01Z</time>
      </trkpt>
      <trkpt lat="42.87398" lon="1.21728">
        <ele>506.2</ele>
        <time>2024-02-04T11:41:03Z</time>
      </trkpt>
      <trkpt lat="42.87393" lon="1.21732">
        <ele>506.2</ele>
        <time>2024-02-04T11:41:05Z</time>
      </trkpt>
      <trkpt lat="42.87383" lon="1.21726">
        <ele>506.2</ele>
        <time>2024-02-04T11:41:08Z</time>
      </trkpt>
      <trkpt lat="42.8738" lon="1.21723">
        <ele>506.2</ele>
        <time>2024-02-04T11:41:09Z</time>
      </trkpt>
      <trkpt lat="42.8737" lon="1.21701">
        <ele>506.2</ele>
        <time>2024-02-04T11:41:14Z</time>
      </trkpt>
      <trkpt lat="42.87372" lon="1.21685">
        <ele>506.2</ele>
        <time>2024-02-04T11:41:17Z</time>
      </trkpt>
      <trkpt lat="42.87373" lon="1.2168">
        <ele>506.2</ele>
        <time>2024-02-04T11:41:18Z</time>
      </trkpt>
      <trkpt lat="42.87373" lon="1.21663">
        <ele>506.2</ele>
        <time>2024-02-04T11:41:22Z</time>
      </trkpt>
      <trkpt lat="42.8737" lon="1.2166">
        <ele>506.2</ele>
        <time>2024-02-04T11:41:23Z</time>
      </trkpt>
      <trkpt lat="42.8736" lon="1.21655">
        <ele>506.2</ele>
        <time>2024-02-04T11:41:26Z</time>
      </trkpt>
      <trkpt lat="42.87357" lon="1.21654">
        <ele>506.2</ele>
        <time>2024-02-04T11:41:27Z</time>
      </trkpt>
      <trkpt lat="42.87342" lon="1.21656">
        <ele>506.2</ele>
        <time>2024-02-04T11:41:31Z</time>
      </trkpt>
      <trkpt lat="42.87327" lon="1.21655">
        <ele>506.2</ele>
        <time>2024-02-04T11:41:36Z</time>
      </trkpt>
      <trkpt lat="42.87313" lon="1.21659">
        <ele>506.2</ele>
        <time>2024-02-04T11:41:42Z</time>
      </trkpt>
      <trkpt lat="42.87297" lon="1.21671">
        <ele>506.2</ele>
        <time>2024-02-04T11:41:48Z</time>
      </trkpt>
      <trkpt lat="42.8728" lon="1.21684">
        <ele>506.6</ele>
        <time>2024-02-04T11:41:54Z</time>
      </trkpt>
      <trkpt lat="42.87277" lon="1.21687">
        <ele>507</ele>
        <time>2024-02-04T11:41:55Z</time>
      </trkpt>
      <trkpt lat="42.87275" lon="1.2169">
        <ele>507.4</ele>
        <time>2024-02-04T11:41:56Z</time>
      </trkpt>
      <trkpt lat="42.87273" lon="1.21694">
        <ele>508.2</ele>
        <time>2024-02-04T11:41:57Z</time>
      </trkpt>
      <trkpt lat="42.87263" lon="1.21707">
        <ele>508.2</ele>
        <time>2024-02-04T11:42:01Z</time>
      </trkpt>
      <trkpt lat="42.87251" lon="1.21724">
        <ele>508.2</ele>
        <time>2024-02-04T11:42:06Z</time>
      </trkpt>
      <trkpt lat="42.87237" lon="1.2174">
        <ele>508.2</ele>
        <time>2024-02-04T11:42:12Z</time>
      </trkpt>
      <trkpt lat="42.87233" lon="1.21739">
        <ele>508.2</ele>
        <time>2024-02-04T11:42:13Z</time>
      </trkpt>
      <trkpt lat="42.87227" lon="1.21734">
        <ele>508.2</ele>
        <time>2024-02-04T11:42:15Z</time>
      </trkpt>
      <trkpt lat="42.87223" lon="1.21729">
        <ele>508.2</ele>
        <time>2024-02-04T11:42:17Z</time>
      </trkpt>
      <trkpt lat="42.87219" lon="1.21725">
        <ele>508.8</ele>
        <time>2024-02-04T11:42:19Z</time>
      </trkpt>
      <trkpt lat="42.87217" lon="1.21723">
        <ele>509.2</ele>
        <time>2024-02-04T11:42:20Z</time>
      </trkpt>
      <trkpt lat="42.87214" lon="1.21723">
        <ele>509.6</ele>
        <time>2024-02-04T11:42:21Z</time>
      </trkpt>
      <trkpt lat="42.87212" lon="1.21722">
        <ele>510.4</ele>
        <time>2024-02-04T11:42:22Z</time>
      </trkpt>
      <trkpt lat="42.87206" lon="1.21723">
        <ele>510.4</ele>
        <time>2024-02-04T11:42:24Z</time>
      </trkpt>
      <trkpt lat="42.87202" lon="1.21731">
        <ele>510.4</ele>
        <time>2024-02-04T11:42:27Z</time>
      </trkpt>
      <trkpt lat="42.87201" lon="1.21733">
        <ele>510.4</ele>
        <time>2024-02-04T11:42:28Z</time>
      </trkpt>
      <trkpt lat="42.87196" lon="1.21743">
        <ele>510.4</ele>
        <time>2024-02-04T11:42:32Z</time>
      </trkpt>
      <trkpt lat="42.87195" lon="1.21744">
        <ele>510.4</ele>
        <time>2024-02-04T11:42:33Z</time>
      </trkpt>
      <trkpt lat="42.87194" lon="1.21745">
        <ele>510.4</ele>
        <time>2024-02-04T11:42:35Z</time>
      </trkpt>
      <trkpt lat="42.87189" lon="1.21748">
        <ele>510.4</ele>
        <time>2024-02-04T11:42:53Z</time>
      </trkpt>
      <trkpt lat="42.87187" lon="1.21751">
        <ele>510.4</ele>
        <time>2024-02-04T11:42:54Z</time>
      </trkpt>
      <trkpt lat="42.87177" lon="1.2176">
        <ele>510.4</ele>
        <time>2024-02-04T11:42:58Z</time>
      </trkpt>
      <trkpt lat="42.87168" lon="1.21773">
        <ele>510.8</ele>
        <time>2024-02-04T11:43:02Z</time>
      </trkpt>
      <trkpt lat="42.87166" lon="1.21777">
        <ele>511.4</ele>
        <time>2024-02-04T11:43:03Z</time>
      </trkpt>
      <trkpt lat="42.87165" lon="1.2178">
        <ele>511.8</ele>
        <time>2024-02-04T11:43:04Z</time>
      </trkpt>
      <trkpt lat="42.87164" lon="1.21785">
        <ele>512.2</ele>
        <time>2024-02-04T11:43:05Z</time>
      </trkpt>
      <trkpt lat="42.87163" lon="1.21788">
        <ele>512.6</ele>
        <time>2024-02-04T11:43:06Z</time>
      </trkpt>
      <trkpt lat="42.87158" lon="1.21796">
        <ele>512.6</ele>
        <time>2024-02-04T11:43:08Z</time>
      </trkpt>
      <trkpt lat="42.87146" lon="1.2181">
        <ele>512.6</ele>
        <time>2024-02-04T11:43:13Z</time>
      </trkpt>
      <trkpt lat="42.8713" lon="1.21829">
        <ele>512.6</ele>
        <time>2024-02-04T11:43:19Z</time>
      </trkpt>
      <trkpt lat="42.87121" lon="1.21846">
        <ele>512.6</ele>
        <time>2024-02-04T11:43:24Z</time>
      </trkpt>
      <trkpt lat="42.87114" lon="1.21856">
        <ele>513</ele>
        <time>2024-02-04T11:43:27Z</time>
      </trkpt>
      <trkpt lat="42.87112" lon="1.21859">
        <ele>513.4</ele>
        <time>2024-02-04T11:43:28Z</time>
      </trkpt>
      <trkpt lat="42.87109" lon="1.21862">
        <ele>513.8</ele>
        <time>2024-02-04T11:43:29Z</time>
      </trkpt>
      <trkpt lat="42.87107" lon="1.21864">
        <ele>514.2</ele>
        <time>2024-02-04T11:43:30Z</time>
      </trkpt>
      <trkpt lat="42.87105" lon="1.21868">
        <ele>514.6</ele>
        <time>2024-02-04T11:43:31Z</time>
      </trkpt>
      <trkpt lat="42.87092" lon="1.21881">
        <ele>514.6</ele>
        <time>2024-02-04T11:43:36Z</time>
      </trkpt>
      <trkpt lat="42.87083" lon="1.21889">
        <ele>514.6</ele>
        <time>2024-02-04T11:43:40Z</time>
      </trkpt>
      <trkpt lat="42.8708" lon="1.21891">
        <ele>514.6</ele>
        <time>2024-02-04T11:43:41Z</time>
      </trkpt>
      <trkpt lat="42.87073" lon="1.21894">
        <ele>514.6</ele>
        <time>2024-02-04T11:43:44Z</time>
      </trkpt>
      <trkpt lat="42.87072" lon="1.21894">
        <ele>514.6</ele>
        <time>2024-02-04T11:43:45Z</time>
      </trkpt>
      <trkpt lat="42.87072" lon="1.21894">
        <ele>514.6</ele>
        <time>2024-02-04T11:43:46Z</time>
      </trkpt>
      <trkpt lat="42.8707" lon="1.21899">
        <ele>514.6</ele>
        <time>2024-02-04T11:46:19Z</time>
      </trkpt>
      <trkpt lat="42.87069" lon="1.21898">
        <ele>514.6</ele>
        <time>2024-02-04T11:46:20Z</time>
      </trkpt>
      <trkpt lat="42.87071" lon="1.21897">
        <ele>514.6</ele>
        <time>2024-02-04T11:46:22Z</time>
      </trkpt>
      <trkpt lat="42.87073" lon="1.21896">
        <ele>514.6</ele>
        <time>2024-02-04T11:46:23Z</time>
      </trkpt>
      <trkpt lat="42.87075" lon="1.2189">
        <ele>514.6</ele>
        <time>2024-02-04T11:46:26Z</time>
      </trkpt>
      <trkpt lat="42.87077" lon="1.21889">
        <ele>514.6</ele>
        <time>2024-02-04T11:46:27Z</time>
      </trkpt>
      <trkpt lat="42.87091" lon="1.21875">
        <ele>514.6</ele>
        <time>2024-02-04T11:46:33Z</time>
      </trkpt>
      <trkpt lat="42.87108" lon="1.21854">
        <ele>514.6</ele>
        <time>2024-02-04T11:46:40Z</time>
      </trkpt>
      <trkpt lat="42.87131" lon="1.21829">
        <ele>514.6</ele>
        <time>2024-02-04T11:46:47Z</time>
      </trkpt>
      <trkpt lat="42.87149" lon="1.21808">
        <ele>514.6</ele>
        <time>2024-02-04T11:46:53Z</time>
      </trkpt>
      <trkpt lat="42.87153" lon="1.21804">
        <ele>514.6</ele>
        <time>2024-02-04T11:46:54Z</time>
      </trkpt>
      <trkpt lat="42.87165" lon="1.21787">
        <ele>514.6</ele>
        <time>2024-02-04T11:46:58Z</time>
      </trkpt>
      <trkpt lat="42.87167" lon="1.21782">
        <ele>514.6</ele>
        <time>2024-02-04T11:46:59Z</time>
      </trkpt>
      <trkpt lat="42.87169" lon="1.21776">
        <ele>514.6</ele>
        <time>2024-02-04T11:47:00Z</time>
      </trkpt>
      <trkpt lat="42.87175" lon="1.21766">
        <ele>514.2</ele>
        <time>2024-02-04T11:47:02Z</time>
      </trkpt>
      <trkpt lat="42.87178" lon="1.21761">
        <ele>513.6</ele>
        <time>2024-02-04T11:47:03Z</time>
      </trkpt>
      <trkpt lat="42.87181" lon="1.21757">
        <ele>513.2</ele>
        <time>2024-02-04T11:47:04Z</time>
      </trkpt>
      <trkpt lat="42.87184" lon="1.21752">
        <ele>512.8</ele>
        <time>2024-02-04T11:47:05Z</time>
      </trkpt>
      <trkpt lat="42.87186" lon="1.21748">
        <ele>512.4</ele>
        <time>2024-02-04T11:47:06Z</time>
      </trkpt>
      <trkpt lat="42.87189" lon="1.21739">
        <ele>512.4</ele>
        <time>2024-02-04T11:47:08Z</time>
      </trkpt>
      <trkpt lat="42.87197" lon="1.2173">
        <ele>512.4</ele>
        <time>2024-02-04T11:47:10Z</time>
      </trkpt>
      <trkpt lat="42.87207" lon="1.2173">
        <ele>512.4</ele>
        <time>2024-02-04T11:47:12Z</time>
      </trkpt>
      <trkpt lat="42.87217" lon="1.21739">
        <ele>512</ele>
        <time>2024-02-04T11:47:14Z</time>
      </trkpt>
      <trkpt lat="42.87223" lon="1.21742">
        <ele>511.6</ele>
        <time>2024-02-04T11:47:15Z</time>
      </trkpt>
      <trkpt lat="42.87229" lon="1.21743">
        <ele>511.2</ele>
        <time>2024-02-04T11:47:16Z</time>
      </trkpt>
      <trkpt lat="42.87235" lon="1.21741">
        <ele>510.8</ele>
        <time>2024-02-04T11:47:17Z</time>
      </trkpt>
      <trkpt lat="42.87241" lon="1.21734">
        <ele>510.4</ele>
        <time>2024-02-04T11:47:18Z</time>
      </trkpt>
      <trkpt lat="42.87257" lon="1.21712">
        <ele>510.4</ele>
        <time>2024-02-04T11:47:22Z</time>
      </trkpt>
      <trkpt lat="42.87264" lon="1.21702">
        <ele>510.4</ele>
        <time>2024-02-04T11:47:24Z</time>
      </trkpt>
      <trkpt lat="42.8728" lon="1.21683">
        <ele>510.4</ele>
        <time>2024-02-04T11:47:28Z</time>
      </trkpt>
      <trkpt lat="42.87288" lon="1.21676">
        <ele>510</ele>
        <time>2024-02-04T11:47:30Z</time>
      </trkpt>
      <trkpt lat="42.87292" lon="1.21672">
        <ele>509.6</ele>
        <time>2024-02-04T11:47:31Z</time>
      </trkpt>
      <trkpt lat="42.87297" lon="1.21669">
        <ele>509.2</ele>
        <time>2024-02-04T11:47:32Z</time>
      </trkpt>
      <trkpt lat="42.873" lon="1.21667">
        <ele>508.8</ele>
        <time>2024-02-04T11:47:33Z</time>
      </trkpt>
      <trkpt lat="42.87304" lon="1.21664">
        <ele>508.4</ele>
        <time>2024-02-04T11:47:34Z</time>
      </trkpt>
      <trkpt lat="42.87328" lon="1.21655">
        <ele>508.4</ele>
        <time>2024-02-04T11:47:40Z</time>
      </trkpt>
      <trkpt lat="42.87346" lon="1.21657">
        <ele>508.4</ele>
        <time>2024-02-04T11:47:45Z</time>
      </trkpt>
      <trkpt lat="42.8736" lon="1.21653">
        <ele>508.4</ele>
        <time>2024-02-04T11:47:50Z</time>
      </trkpt>
      <trkpt lat="42.8737" lon="1.21641">
        <ele>508.4</ele>
        <time>2024-02-04T11:47:53Z</time>
      </trkpt>
      <trkpt lat="42.87372" lon="1.21636">
        <ele>508.4</ele>
        <time>2024-02-04T11:47:54Z</time>
      </trkpt>
      <trkpt lat="42.8738" lon="1.21628">
        <ele>508.4</ele>
        <time>2024-02-04T11:47:57Z</time>
      </trkpt>
      <trkpt lat="42.87386" lon="1.21627">
        <ele>508.4</ele>
        <time>2024-02-04T11:47:59Z</time>
      </trkpt>
      <trkpt lat="42.87393" lon="1.21622">
        <ele>508.4</ele>
        <time>2024-02-04T11:48:02Z</time>
      </trkpt>
      <trkpt lat="42.87395" lon="1.21625">
        <ele>508.4</ele>
        <time>2024-02-04T11:48:04Z</time>
      </trkpt>
      <trkpt lat="42.874" lon="1.21628">
        <ele>508.4</ele>
        <time>2024-02-04T11:48:05Z</time>
      </trkpt>
      <trkpt lat="42.8741" lon="1.21638">
        <ele>508.4</ele>
        <time>2024-02-04T11:48:08Z</time>
      </trkpt>
      <trkpt lat="42.87416" lon="1.21642">
        <ele>508.4</ele>
        <time>2024-02-04T11:48:10Z</time>
      </trkpt>
      <trkpt lat="42.87423" lon="1.21643">
        <ele>508.4</ele>
        <time>2024-02-04T11:48:12Z</time>
      </trkpt>
      <trkpt lat="42.87429" lon="1.21637">
        <ele>508.4</ele>
        <time>2024-02-04T11:48:14Z</time>
      </trkpt>
      <trkpt lat="42.87434" lon="1.21629">
        <ele>508.4</ele>
        <time>2024-02-04T11:48:16Z</time>
      </trkpt>
      <trkpt lat="42.87444" lon="1.21614">
        <ele>508.4</ele>
        <time>2024-02-04T11:48:20Z</time>
      </trkpt>
      <trkpt lat="42.87468" lon="1.21582">
        <ele>508.4</ele>
        <time>2024-02-04T11:48:28Z</time>
      </trkpt>
      <trkpt lat="42.87484" lon="1.21556">
        <ele>508</ele>
        <time>2024-02-04T11:48:34Z</time>
      </trkpt>
      <trkpt lat="42.87485" lon="1.21552">
        <ele>507.6</ele>
        <time>2024-02-04T11:48:35Z</time>
      </trkpt>
      <trkpt lat="42.87486" lon="1.21549">
        <ele>507.2</ele>
        <time>2024-02-04T11:48:36Z</time>
      </trkpt>
      <trkpt lat="42.87487" lon="1.21545">
        <ele>506.8</ele>
        <time>2024-02-04T11:48:37Z</time>
      </trkpt>
      <trkpt lat="42.87489" lon="1.21542">
        <ele>506.4</ele>
        <time>2024-02-04T11:48:38Z</time>
      </trkpt>
      <trkpt lat="42.87494" lon="1.2153">
        <ele>506.4</ele>
        <time>2024-02-04T11:48:41Z</time>
      </trkpt>
      <trkpt lat="42.87505" lon="1.21498">
        <ele>506.4</ele>
        <time>2024-02-04T11:48:48Z</time>
      </trkpt>
      <trkpt lat="42.87501" lon="1.21479">
        <ele>506.4</ele>
        <time>2024-02-04T11:48:52Z</time>
      </trkpt>
      <trkpt lat="42.87494" lon="1.21457">
        <ele>506.4</ele>
        <time>2024-02-04T11:48:56Z</time>
      </trkpt>
      <trkpt lat="42.87483" lon="1.21419">
        <ele>506.4</ele>
        <time>2024-02-04T11:49:03Z</time>
      </trkpt>
      <trkpt lat="42.87467" lon="1.21396">
        <ele>506.8</ele>
        <time>2024-02-04T11:49:09Z</time>
      </trkpt>
      <trkpt lat="42.87463" lon="1.21395">
        <ele>507.2</ele>
        <time>2024-02-04T11:49:10Z</time>
      </trkpt>
      <trkpt lat="42.87458" lon="1.21396">
        <ele>507.6</ele>
        <time>2024-02-04T11:49:11Z</time>
      </trkpt>
      <trkpt lat="42.87454" lon="1.21397">
        <ele>508</ele>
        <time>2024-02-04T11:49:12Z</time>
      </trkpt>
      <trkpt lat="42.87452" lon="1.21397">
        <ele>508.4</ele>
        <time>2024-02-04T11:49:13Z</time>
      </trkpt>
      <trkpt lat="42.87448" lon="1.21398">
        <ele>508.4</ele>
        <time>2024-02-04T11:49:14Z</time>
      </trkpt>
      <trkpt lat="42.87431" lon="1.21405">
        <ele>508.4</ele>
        <time>2024-02-04T11:49:19Z</time>
      </trkpt>
      <trkpt lat="42.87427" lon="1.21407">
        <ele>508.8</ele>
        <time>2024-02-04T11:49:20Z</time>
      </trkpt>
      <trkpt lat="42.87424" lon="1.21409">
        <ele>509.2</ele>
        <time>2024-02-04T11:49:21Z</time>
      </trkpt>
      <trkpt lat="42.87421" lon="1.21411">
        <ele>510</ele>
        <time>2024-02-04T11:49:22Z</time>
      </trkpt>
      <trkpt lat="42.87417" lon="1.21412">
        <ele>510.4</ele>
        <time>2024-02-04T11:49:23Z</time>
      </trkpt>
      <trkpt lat="42.8741" lon="1.21412">
        <ele>510.4</ele>
        <time>2024-02-04T11:49:25Z</time>
      </trkpt>
      <trkpt lat="42.87406" lon="1.2141">
        <ele>510.8</ele>
        <time>2024-02-04T11:49:26Z</time>
      </trkpt>
      <trkpt lat="42.87403" lon="1.21409">
        <ele>511.2</ele>
        <time>2024-02-04T11:49:27Z</time>
      </trkpt>
      <trkpt lat="42.87399" lon="1.21408">
        <ele>511.6</ele>
        <time>2024-02-04T11:49:28Z</time>
      </trkpt>
      <trkpt lat="42.87396" lon="1.21407">
        <ele>512</ele>
        <time>2024-02-04T11:49:29Z</time>
      </trkpt>
      <trkpt lat="42.87393" lon="1.21405">
        <ele>512.4</ele>
        <time>2024-02-04T11:49:30Z</time>
      </trkpt>
      <trkpt lat="42.87388" lon="1.21401">
        <ele>513</ele>
        <time>2024-02-04T11:49:32Z</time>
      </trkpt>
      <trkpt lat="42.87385" lon="1.214">
        <ele>513.4</ele>
        <time>2024-02-04T11:49:33Z</time>
      </trkpt>
      <trkpt lat="42.87382" lon="1.21398">
        <ele>513.8</ele>
        <time>2024-02-04T11:49:34Z</time>
      </trkpt>
      <trkpt lat="42.87379" lon="1.21397">
        <ele>514.2</ele>
        <time>2024-02-04T11:49:35Z</time>
      </trkpt>
      <trkpt lat="42.87377" lon="1.21395">
        <ele>514.8</ele>
        <time>2024-02-04T11:49:36Z</time>
      </trkpt>
      <trkpt lat="42.87372" lon="1.2139">
        <ele>515.2</ele>
        <time>2024-02-04T11:49:38Z</time>
      </trkpt>
      <trkpt lat="42.87369" lon="1.21389">
        <ele>515.6</ele>
        <time>2024-02-04T11:49:39Z</time>
      </trkpt>
      <trkpt lat="42.87366" lon="1.21388">
        <ele>516.2</ele>
        <time>2024-02-04T11:49:40Z</time>
      </trkpt>
      <trkpt lat="42.87363" lon="1.21387">
        <ele>516.6</ele>
        <time>2024-02-04T11:49:41Z</time>
      </trkpt>
      <trkpt lat="42.87361" lon="1.21385">
        <ele>517</ele>
        <time>2024-02-04T11:49:42Z</time>
      </trkpt>
      <trkpt lat="42.87356" lon="1.21381">
        <ele>517.6</ele>
        <time>2024-02-04T11:49:44Z</time>
      </trkpt>
      <trkpt lat="42.87353" lon="1.21379">
        <ele>518</ele>
        <time>2024-02-04T11:49:45Z</time>
      </trkpt>
      <trkpt lat="42.87351" lon="1.21377">
        <ele>518.4</ele>
        <time>2024-02-04T11:49:46Z</time>
      </trkpt>
      <trkpt lat="42.87349" lon="1.21376">
        <ele>519.4</ele>
        <time>2024-02-04T11:49:47Z</time>
      </trkpt>
      <trkpt lat="42.87344" lon="1.21372">
        <ele>519.8</ele>
        <time>2024-02-04T11:49:49Z</time>
      </trkpt>
      <trkpt lat="42.87341" lon="1.21372">
        <ele>520.4</ele>
        <time>2024-02-04T11:49:50Z</time>
      </trkpt>
      <trkpt lat="42.87339" lon="1.2137">
        <ele>520.8</ele>
        <time>2024-02-04T11:49:51Z</time>
      </trkpt>
      <trkpt lat="42.87337" lon="1.21369">
        <ele>521.2</ele>
        <time>2024-02-04T11:49:52Z</time>
      </trkpt>
      <trkpt lat="42.87334" lon="1.21368">
        <ele>521.6</ele>
        <time>2024-02-04T11:49:53Z</time>
      </trkpt>
      <trkpt lat="42.8733" lon="1.21365">
        <ele>522.2</ele>
        <time>2024-02-04T11:49:55Z</time>
      </trkpt>
      <trkpt lat="42.87327" lon="1.21364">
        <ele>522.6</ele>
        <time>2024-02-04T11:49:56Z</time>
      </trkpt>
      <trkpt lat="42.87325" lon="1.21362">
        <ele>523</ele>
        <time>2024-02-04T11:49:57Z</time>
      </trkpt>
      <trkpt lat="42.87323" lon="1.21361">
        <ele>523.6</ele>
        <time>2024-02-04T11:49:58Z</time>
      </trkpt>
      <trkpt lat="42.8732" lon="1.21359">
        <ele>524</ele>
        <time>2024-02-04T11:49:59Z</time>
      </trkpt>
      <trkpt lat="42.87318" lon="1.21358">
        <ele>524</ele>
        <time>2024-02-04T11:50:00Z</time>
      </trkpt>
      <trkpt lat="42.87316" lon="1.21356">
        <ele>524.4</ele>
        <time>2024-02-04T11:50:01Z</time>
      </trkpt>
      <trkpt lat="42.87314" lon="1.21355">
        <ele>524.8</ele>
        <time>2024-02-04T11:50:02Z</time>
      </trkpt>
      <trkpt lat="42.87311" lon="1.21353">
        <ele>525.2</ele>
        <time>2024-02-04T11:50:03Z</time>
      </trkpt>
      <trkpt lat="42.87309" lon="1.21351">
        <ele>525.6</ele>
        <time>2024-02-04T11:50:04Z</time>
      </trkpt>
      <trkpt lat="42.87307" lon="1.2135">
        <ele>526</ele>
        <time>2024-02-04T11:50:05Z</time>
      </trkpt>
      <trkpt lat="42.87301" lon="1.21348">
        <ele>526</ele>
        <time>2024-02-04T11:50:07Z</time>
      </trkpt>
      <trkpt lat="42.87299" lon="1.21347">
        <ele>526.4</ele>
        <time>2024-02-04T11:50:08Z</time>
      </trkpt>
      <trkpt lat="42.87297" lon="1.21345">
        <ele>526.8</ele>
        <time>2024-02-04T11:50:09Z</time>
      </trkpt>
      <trkpt lat="42.87294" lon="1.21344">
        <ele>527.2</ele>
        <time>2024-02-04T11:50:10Z</time>
      </trkpt>
      <trkpt lat="42.87291" lon="1.21343">
        <ele>528.2</ele>
        <time>2024-02-04T11:50:11Z</time>
      </trkpt>
      <trkpt lat="42.87284" lon="1.21339">
        <ele>528.6</ele>
        <time>2024-02-04T11:50:14Z</time>
      </trkpt>
      <trkpt lat="42.87282" lon="1.21338">
        <ele>529</ele>
        <time>2024-02-04T11:50:15Z</time>
      </trkpt>
      <trkpt lat="42.87279" lon="1.21338">
        <ele>529.4</ele>
        <time>2024-02-04T11:50:16Z</time>
      </trkpt>
      <trkpt lat="42.87277" lon="1.21337">
        <ele>529.8</ele>
        <time>2024-02-04T11:50:17Z</time>
      </trkpt>
      <trkpt lat="42.87275" lon="1.21336">
        <ele>530.4</ele>
        <time>2024-02-04T11:50:18Z</time>
      </trkpt>
      <trkpt lat="42.87271" lon="1.21334">
        <ele>530.4</ele>
        <time>2024-02-04T11:50:20Z</time>
      </trkpt>
      <trkpt lat="42.87269" lon="1.21332">
        <ele>530.8</ele>
        <time>2024-02-04T11:50:21Z</time>
      </trkpt>
      <trkpt lat="42.87267" lon="1.21332">
        <ele>531.2</ele>
        <time>2024-02-04T11:50:22Z</time>
      </trkpt>
      <trkpt lat="42.87265" lon="1.21331">
        <ele>531.6</ele>
        <time>2024-02-04T11:50:23Z</time>
      </trkpt>
      <trkpt lat="42.87263" lon="1.2133">
        <ele>532</ele>
        <time>2024-02-04T11:50:24Z</time>
      </trkpt>
      <trkpt lat="42.87261" lon="1.21329">
        <ele>532.4</ele>
        <time>2024-02-04T11:50:25Z</time>
      </trkpt>
      <trkpt lat="42.87259" lon="1.21328">
        <ele>532.4</ele>
        <time>2024-02-04T11:50:26Z</time>
      </trkpt>
      <trkpt lat="42.87254" lon="1.21326">
        <ele>532.8</ele>
        <time>2024-02-04T11:50:28Z</time>
      </trkpt>
      <trkpt lat="42.87251" lon="1.21324">
        <ele>533.4</ele>
        <time>2024-02-04T11:50:29Z</time>
      </trkpt>
      <trkpt lat="42.87249" lon="1.21323">
        <ele>533.8</ele>
        <time>2024-02-04T11:50:30Z</time>
      </trkpt>
      <trkpt lat="42.87246" lon="1.21322">
        <ele>534.2</ele>
        <time>2024-02-04T11:50:31Z</time>
      </trkpt>
      <trkpt lat="42.87242" lon="1.2132">
        <ele>534.6</ele>
        <time>2024-02-04T11:50:32Z</time>
      </trkpt>
      <trkpt lat="42.87234" lon="1.21317">
        <ele>535</ele>
        <time>2024-02-04T11:50:35Z</time>
      </trkpt>
      <trkpt lat="42.87231" lon="1.21316">
        <ele>536</ele>
        <time>2024-02-04T11:50:36Z</time>
      </trkpt>
      <trkpt lat="42.87229" lon="1.21314">
        <ele>536.4</ele>
        <time>2024-02-04T11:50:37Z</time>
      </trkpt>
      <trkpt lat="42.87226" lon="1.21314">
        <ele>536.8</ele>
        <time>2024-02-04T11:50:38Z</time>
      </trkpt>
      <trkpt lat="42.87223" lon="1.21313">
        <ele>536.8</ele>
        <time>2024-02-04T11:50:39Z</time>
      </trkpt>
      <trkpt lat="42.87215" lon="1.21309">
        <ele>537.2</ele>
        <time>2024-02-04T11:50:42Z</time>
      </trkpt>
      <trkpt lat="42.87213" lon="1.21308">
        <ele>537.6</ele>
        <time>2024-02-04T11:50:43Z</time>
      </trkpt>
      <trkpt lat="42.8721" lon="1.21307">
        <ele>538</ele>
        <time>2024-02-04T11:50:44Z</time>
      </trkpt>
      <trkpt lat="42.87207" lon="1.21306">
        <ele>538.6</ele>
        <time>2024-02-04T11:50:45Z</time>
      </trkpt>
      <trkpt lat="42.87204" lon="1.21305">
        <ele>539</ele>
        <time>2024-02-04T11:50:46Z</time>
      </trkpt>
      <trkpt lat="42.87193" lon="1.21302">
        <ele>539.4</ele>
        <time>2024-02-04T11:50:50Z</time>
      </trkpt>
      <trkpt lat="42.8719" lon="1.21302">
        <ele>539.8</ele>
        <time>2024-02-04T11:50:51Z</time>
      </trkpt>
      <trkpt lat="42.87187" lon="1.21302">
        <ele>540.2</ele>
        <time>2024-02-04T11:50:52Z</time>
      </trkpt>
      <trkpt lat="42.87185" lon="1.21303">
        <ele>540.6</ele>
        <time>2024-02-04T11:50:53Z</time>
      </trkpt>
      <trkpt lat="42.87182" lon="1.21302">
        <ele>541.2</ele>
        <time>2024-02-04T11:50:54Z</time>
      </trkpt>
      <trkpt lat="42.87172" lon="1.21301">
        <ele>541.6</ele>
        <time>2024-02-04T11:50:58Z</time>
      </trkpt>
      <trkpt lat="42.87169" lon="1.21301">
        <ele>542</ele>
        <time>2024-02-04T11:50:59Z</time>
      </trkpt>
      <trkpt lat="42.87166" lon="1.21301">
        <ele>542.6</ele>
        <time>2024-02-04T11:51:00Z</time>
      </trkpt>
      <trkpt lat="42.87164" lon="1.21301">
        <ele>543.4</ele>
        <time>2024-02-04T11:51:01Z</time>
      </trkpt>
      <trkpt lat="42.87159" lon="1.21301">
        <ele>543.8</ele>
        <time>2024-02-04T11:51:03Z</time>
      </trkpt>
      <trkpt lat="42.87156" lon="1.21301">
        <ele>544.2</ele>
        <time>2024-02-04T11:51:04Z</time>
      </trkpt>
      <trkpt lat="42.87153" lon="1.21301">
        <ele>544.6</ele>
        <time>2024-02-04T11:51:05Z</time>
      </trkpt>
      <trkpt lat="42.8715" lon="1.213">
        <ele>545</ele>
        <time>2024-02-04T11:51:06Z</time>
      </trkpt>
      <trkpt lat="42.87147" lon="1.213">
        <ele>545.4</ele>
        <time>2024-02-04T11:51:07Z</time>
      </trkpt>
      <trkpt lat="42.87137" lon="1.21302">
        <ele>546</ele>
        <time>2024-02-04T11:51:10Z</time>
      </trkpt>
      <trkpt lat="42.87134" lon="1.21302">
        <ele>546.4</ele>
        <time>2024-02-04T11:51:11Z</time>
      </trkpt>
      <trkpt lat="42.87131" lon="1.21303">
        <ele>546.8</ele>
        <time>2024-02-04T11:51:12Z</time>
      </trkpt>
      <trkpt lat="42.87128" lon="1.21304">
        <ele>547.4</ele>
        <time>2024-02-04T11:51:13Z</time>
      </trkpt>
      <trkpt lat="42.87126" lon="1.21305">
        <ele>547.8</ele>
        <time>2024-02-04T11:51:14Z</time>
      </trkpt>
      <trkpt lat="42.8712" lon="1.21307">
        <ele>548.2</ele>
        <time>2024-02-04T11:51:16Z</time>
      </trkpt>
      <trkpt lat="42.87116" lon="1.21308">
        <ele>548.6</ele>
        <time>2024-02-04T11:51:17Z</time>
      </trkpt>
      <trkpt lat="42.87113" lon="1.21309">
        <ele>549.2</ele>
        <time>2024-02-04T11:51:18Z</time>
      </trkpt>
      <trkpt lat="42.87111" lon="1.2131">
        <ele>549.6</ele>
        <time>2024-02-04T11:51:19Z</time>
      </trkpt>
      <trkpt lat="42.87108" lon="1.21311">
        <ele>550</ele>
        <time>2024-02-04T11:51:20Z</time>
      </trkpt>
      <trkpt lat="42.87102" lon="1.21315">
        <ele>550.4</ele>
        <time>2024-02-04T11:51:23Z</time>
      </trkpt>
      <trkpt lat="42.871" lon="1.21316">
        <ele>551</ele>
        <time>2024-02-04T11:51:24Z</time>
      </trkpt>
      <trkpt lat="42.87098" lon="1.21318">
        <ele>551.8</ele>
        <time>2024-02-04T11:51:25Z</time>
      </trkpt>
      <trkpt lat="42.87096" lon="1.2132">
        <ele>552.2</ele>
        <time>2024-02-04T11:51:26Z</time>
      </trkpt>
      <trkpt lat="42.87086" lon="1.21327">
        <ele>552.6</ele>
        <time>2024-02-04T11:51:30Z</time>
      </trkpt>
      <trkpt lat="42.87083" lon="1.21328">
        <ele>553.2</ele>
        <time>2024-02-04T11:51:31Z</time>
      </trkpt>
      <trkpt lat="42.87081" lon="1.2133">
        <ele>553.6</ele>
        <time>2024-02-04T11:51:32Z</time>
      </trkpt>
      <trkpt lat="42.87078" lon="1.21332">
        <ele>554</ele>
        <time>2024-02-04T11:51:33Z</time>
      </trkpt>
      <trkpt lat="42.87076" lon="1.21333">
        <ele>554.4</ele>
        <time>2024-02-04T11:51:34Z</time>
      </trkpt>
      <trkpt lat="42.87067" lon="1.21335">
        <ele>554.8</ele>
        <time>2024-02-04T11:51:37Z</time>
      </trkpt>
      <trkpt lat="42.87064" lon="1.21335">
        <ele>555.2</ele>
        <time>2024-02-04T11:51:38Z</time>
      </trkpt>
      <trkpt lat="42.87061" lon="1.21335">
        <ele>555.6</ele>
        <time>2024-02-04T11:51:39Z</time>
      </trkpt>
      <trkpt lat="42.87058" lon="1.21333">
        <ele>556</ele>
        <time>2024-02-04T11:51:40Z</time>
      </trkpt>
      <trkpt lat="42.87054" lon="1.21332">
        <ele>556.4</ele>
        <time>2024-02-04T11:51:41Z</time>
      </trkpt>
      <trkpt lat="42.87045" lon="1.2133">
        <ele>557</ele>
        <time>2024-02-04T11:51:44Z</time>
      </trkpt>
      <trkpt lat="42.87042" lon="1.2133">
        <ele>557.4</ele>
        <time>2024-02-04T11:51:45Z</time>
      </trkpt>
      <trkpt lat="42.87039" lon="1.21329">
        <ele>557.8</ele>
        <time>2024-02-04T11:51:46Z</time>
      </trkpt>
      <trkpt lat="42.87036" lon="1.21327">
        <ele>558.2</ele>
        <time>2024-02-04T11:51:47Z</time>
      </trkpt>
      <trkpt lat="42.87033" lon="1.21325">
        <ele>558.6</ele>
        <time>2024-02-04T11:51:48Z</time>
      </trkpt>
      <trkpt lat="42.87029" lon="1.21322">
        <ele>559</ele>
        <time>2024-02-04T11:51:50Z</time>
      </trkpt>
      <trkpt lat="42.87027" lon="1.2132">
        <ele>559.4</ele>
        <time>2024-02-04T11:51:51Z</time>
      </trkpt>
      <trkpt lat="42.87026" lon="1.21318">
        <ele>559.8</ele>
        <time>2024-02-04T11:51:52Z</time>
      </trkpt>
      <trkpt lat="42.87023" lon="1.21316">
        <ele>560.4</ele>
        <time>2024-02-04T11:51:53Z</time>
      </trkpt>
      <trkpt lat="42.87021" lon="1.21315">
        <ele>560.8</ele>
        <time>2024-02-04T11:51:54Z</time>
      </trkpt>
      <trkpt lat="42.87019" lon="1.21315">
        <ele>560.8</ele>
        <time>2024-02-04T11:51:55Z</time>
      </trkpt>
      <trkpt lat="42.87014" lon="1.21314">
        <ele>561.2</ele>
        <time>2024-02-04T11:51:57Z</time>
      </trkpt>
      <trkpt lat="42.87011" lon="1.21315">
        <ele>561.6</ele>
        <time>2024-02-04T11:51:58Z</time>
      </trkpt>
      <trkpt lat="42.87009" lon="1.21316">
        <ele>562</ele>
        <time>2024-02-04T11:51:59Z</time>
      </trkpt>
      <trkpt lat="42.87007" lon="1.21317">
        <ele>562.4</ele>
        <time>2024-02-04T11:52:00Z</time>
      </trkpt>
      <trkpt lat="42.87006" lon="1.21319">
        <ele>562.8</ele>
        <time>2024-02-04T11:52:01Z</time>
      </trkpt>
      <trkpt lat="42.87005" lon="1.21322">
        <ele>562.8</ele>
        <time>2024-02-04T11:52:02Z</time>
      </trkpt>
      <trkpt lat="42.87005" lon="1.21325">
        <ele>562.8</ele>
        <time>2024-02-04T11:52:03Z</time>
      </trkpt>
      <trkpt lat="42.87008" lon="1.21339">
        <ele>562.8</ele>
        <time>2024-02-04T11:52:07Z</time>
      </trkpt>
      <trkpt lat="42.87011" lon="1.21341">
        <ele>563.2</ele>
        <time>2024-02-04T11:52:09Z</time>
      </trkpt>
      <trkpt lat="42.87014" lon="1.21342">
        <ele>563.6</ele>
        <time>2024-02-04T11:52:10Z</time>
      </trkpt>
      <trkpt lat="42.87016" lon="1.21342">
        <ele>564</ele>
        <time>2024-02-04T11:52:11Z</time>
      </trkpt>
      <trkpt lat="42.87018" lon="1.21343">
        <ele>564.4</ele>
        <time>2024-02-04T11:52:12Z</time>
      </trkpt>
      <trkpt lat="42.8702" lon="1.21343">
        <ele>564.8</ele>
        <time>2024-02-04T11:52:13Z</time>
      </trkpt>
      <trkpt lat="42.87027" lon="1.2135">
        <ele>565.2</ele>
        <time>2024-02-04T11:52:17Z</time>
      </trkpt>
      <trkpt lat="42.87029" lon="1.21352">
        <ele>565.6</ele>
        <time>2024-02-04T11:52:18Z</time>
      </trkpt>
      <trkpt lat="42.87031" lon="1.21355">
        <ele>566.2</ele>
        <time>2024-02-04T11:52:19Z</time>
      </trkpt>
      <trkpt lat="42.87033" lon="1.21357">
        <ele>566.6</ele>
        <time>2024-02-04T11:52:20Z</time>
      </trkpt>
      <trkpt lat="42.87035" lon="1.2136">
        <ele>567</ele>
        <time>2024-02-04T11:52:21Z</time>
      </trkpt>
      <trkpt lat="42.87038" lon="1.21365">
        <ele>567</ele>
        <time>2024-02-04T11:52:23Z</time>
      </trkpt>
      <trkpt lat="42.87042" lon="1.21371">
        <ele>567.4</ele>
        <time>2024-02-04T11:52:25Z</time>
      </trkpt>
      <trkpt lat="42.87043" lon="1.21374">
        <ele>567.8</ele>
        <time>2024-02-04T11:52:26Z</time>
      </trkpt>
      <trkpt lat="42.87045" lon="1.21377">
        <ele>568.2</ele>
        <time>2024-02-04T11:52:27Z</time>
      </trkpt>
      <trkpt lat="42.87047" lon="1.2138">
        <ele>568.8</ele>
        <time>2024-02-04T11:52:28Z</time>
      </trkpt>
      <trkpt lat="42.87049" lon="1.21383">
        <ele>569.2</ele>
        <time>2024-02-04T11:52:29Z</time>
      </trkpt>
      <trkpt lat="42.87053" lon="1.21393">
        <ele>569.6</ele>
        <time>2024-02-04T11:52:32Z</time>
      </trkpt>
      <trkpt lat="42.87055" lon="1.21396">
        <ele>570</ele>
        <time>2024-02-04T11:52:33Z</time>
      </trkpt>
      <trkpt lat="42.87057" lon="1.21399">
        <ele>570.6</ele>
        <time>2024-02-04T11:52:34Z</time>
      </trkpt>
      <trkpt lat="42.8706" lon="1.21402">
        <ele>571</ele>
        <time>2024-02-04T11:52:35Z</time>
      </trkpt>
      <trkpt lat="42.87062" lon="1.21405">
        <ele>571.4</ele>
        <time>2024-02-04T11:52:36Z</time>
      </trkpt>
      <trkpt lat="42.87069" lon="1.21412">
        <ele>572</ele>
        <time>2024-02-04T11:52:39Z</time>
      </trkpt>
      <trkpt lat="42.87072" lon="1.21414">
        <ele>572.8</ele>
        <time>2024-02-04T11:52:40Z</time>
      </trkpt>
      <trkpt lat="42.87074" lon="1.21416">
        <ele>573.4</ele>
        <time>2024-02-04T11:52:41Z</time>
      </trkpt>
      <trkpt lat="42.87077" lon="1.21418">
        <ele>573.8</ele>
        <time>2024-02-04T11:52:42Z</time>
      </trkpt>
      <trkpt lat="42.87083" lon="1.21421">
        <ele>573.8</ele>
        <time>2024-02-04T11:52:44Z</time>
      </trkpt>
      <trkpt lat="42.87086" lon="1.21423">
        <ele>574.2</ele>
        <time>2024-02-04T11:52:45Z</time>
      </trkpt>
      <trkpt lat="42.87089" lon="1.21425">
        <ele>574.6</ele>
        <time>2024-02-04T11:52:46Z</time>
      </trkpt>
      <trkpt lat="42.87092" lon="1.21426">
        <ele>575</ele>
        <time>2024-02-04T11:52:47Z</time>
      </trkpt>
      <trkpt lat="42.87095" lon="1.21429">
        <ele>575.6</ele>
        <time>2024-02-04T11:52:48Z</time>
      </trkpt>
      <trkpt lat="42.87098" lon="1.21431">
        <ele>576</ele>
        <time>2024-02-04T11:52:49Z</time>
      </trkpt>
      <trkpt lat="42.87104" lon="1.21436">
        <ele>576.4</ele>
        <time>2024-02-04T11:52:51Z</time>
      </trkpt>
      <trkpt lat="42.87106" lon="1.21438">
        <ele>576.8</ele>
        <time>2024-02-04T11:52:52Z</time>
      </trkpt>
      <trkpt lat="42.87108" lon="1.21441">
        <ele>577.2</ele>
        <time>2024-02-04T11:52:53Z</time>
      </trkpt>
      <trkpt lat="42.87111" lon="1.21443">
        <ele>577.6</ele>
        <time>2024-02-04T11:52:54Z</time>
      </trkpt>
      <trkpt lat="42.87113" lon="1.21446">
        <ele>578</ele>
        <time>2024-02-04T11:52:55Z</time>
      </trkpt>
      <trkpt lat="42.87123" lon="1.21463">
        <ele>578</ele>
        <time>2024-02-04T11:53:00Z</time>
      </trkpt>
      <trkpt lat="42.87123" lon="1.21471">
        <ele>578.4</ele>
        <time>2024-02-04T11:53:02Z</time>
      </trkpt>
      <trkpt lat="42.87123" lon="1.21475">
        <ele>579</ele>
        <time>2024-02-04T11:53:03Z</time>
      </trkpt>
      <trkpt lat="42.87121" lon="1.21479">
        <ele>579.8</ele>
        <time>2024-02-04T11:53:04Z</time>
      </trkpt>
      <trkpt lat="42.87119" lon="1.21482">
        <ele>580.4</ele>
        <time>2024-02-04T11:53:05Z</time>
      </trkpt>
      <trkpt lat="42.8711" lon="1.21486">
        <ele>580.8</ele>
        <time>2024-02-04T11:53:08Z</time>
      </trkpt>
      <trkpt lat="42.87107" lon="1.21486">
        <ele>581.2</ele>
        <time>2024-02-04T11:53:09Z</time>
      </trkpt>
      <trkpt lat="42.87104" lon="1.21486">
        <ele>581.8</ele>
        <time>2024-02-04T11:53:10Z</time>
      </trkpt>
      <trkpt lat="42.87101" lon="1.21486">
        <ele>582.2</ele>
        <time>2024-02-04T11:53:11Z</time>
      </trkpt>
      <trkpt lat="42.87098" lon="1.21485">
        <ele>582.6</ele>
        <time>2024-02-04T11:53:12Z</time>
      </trkpt>
      <trkpt lat="42.87092" lon="1.21484">
        <ele>583.2</ele>
        <time>2024-02-04T11:53:14Z</time>
      </trkpt>
      <trkpt lat="42.8709" lon="1.21484">
        <ele>583.6</ele>
        <time>2024-02-04T11:53:15Z</time>
      </trkpt>
      <trkpt lat="42.87087" lon="1.21484">
        <ele>584</ele>
        <time>2024-02-04T11:53:16Z</time>
      </trkpt>
      <trkpt lat="42.87084" lon="1.21483">
        <ele>584.4</ele>
        <time>2024-02-04T11:53:17Z</time>
      </trkpt>
      <trkpt lat="42.87081" lon="1.21483">
        <ele>584.8</ele>
        <time>2024-02-04T11:53:18Z</time>
      </trkpt>
      <trkpt lat="42.87075" lon="1.21483">
        <ele>585.2</ele>
        <time>2024-02-04T11:53:20Z</time>
      </trkpt>
      <trkpt lat="42.87072" lon="1.21482">
        <ele>585.8</ele>
        <time>2024-02-04T11:53:21Z</time>
      </trkpt>
      <trkpt lat="42.87069" lon="1.21482">
        <ele>586.2</ele>
        <time>2024-02-04T11:53:22Z</time>
      </trkpt>
      <trkpt lat="42.87066" lon="1.21481">
        <ele>586.6</ele>
        <time>2024-02-04T11:53:23Z</time>
      </trkpt>
      <trkpt lat="42.87063" lon="1.21481">
        <ele>587</ele>
        <time>2024-02-04T11:53:24Z</time>
      </trkpt>
      <trkpt lat="42.87055" lon="1.21479">
        <ele>587.4</ele>
        <time>2024-02-04T11:53:27Z</time>
      </trkpt>
      <trkpt lat="42.87052" lon="1.21479">
        <ele>587.8</ele>
        <time>2024-02-04T11:53:28Z</time>
      </trkpt>
      <trkpt lat="42.87049" lon="1.21478">
        <ele>588.6</ele>
        <time>2024-02-04T11:53:29Z</time>
      </trkpt>
      <trkpt lat="42.87046" lon="1.21477">
        <ele>589</ele>
        <time>2024-02-04T11:53:30Z</time>
      </trkpt>
      <trkpt lat="42.87038" lon="1.21476">
        <ele>589.6</ele>
        <time>2024-02-04T11:53:33Z</time>
      </trkpt>
      <trkpt lat="42.87035" lon="1.21475">
        <ele>590</ele>
        <time>2024-02-04T11:53:34Z</time>
      </trkpt>
      <trkpt lat="42.87033" lon="1.21474">
        <ele>590.4</ele>
        <time>2024-02-04T11:53:35Z</time>
      </trkpt>
      <trkpt lat="42.8703" lon="1.21473">
        <ele>591</ele>
        <time>2024-02-04T11:53:36Z</time>
      </trkpt>
      <trkpt lat="42.87027" lon="1.21472">
        <ele>591.4</ele>
        <time>2024-02-04T11:53:37Z</time>
      </trkpt>
      <trkpt lat="42.87019" lon="1.21468">
        <ele>591.8</ele>
        <time>2024-02-04T11:53:40Z</time>
      </trkpt>
      <trkpt lat="42.87016" lon="1.21467">
        <ele>592.2</ele>
        <time>2024-02-04T11:53:41Z</time>
      </trkpt>
      <trkpt lat="42.87013" lon="1.21465">
        <ele>592.6</ele>
        <time>2024-02-04T11:53:42Z</time>
      </trkpt>
      <trkpt lat="42.87011" lon="1.21464">
        <ele>593.2</ele>
        <time>2024-02-04T11:53:43Z</time>
      </trkpt>
      <trkpt lat="42.87008" lon="1.21462">
        <ele>593.6</ele>
        <time>2024-02-04T11:53:44Z</time>
      </trkpt>
      <trkpt lat="42.87" lon="1.21459">
        <ele>594</ele>
        <time>2024-02-04T11:53:47Z</time>
      </trkpt>
      <trkpt lat="42.86997" lon="1.21458">
        <ele>594.4</ele>
        <time>2024-02-04T11:53:48Z</time>
      </trkpt>
      <trkpt lat="42.86994" lon="1.21456">
        <ele>595</ele>
        <time>2024-02-04T11:53:49Z</time>
      </trkpt>
      <trkpt lat="42.86991" lon="1.21455">
        <ele>595.4</ele>
        <time>2024-02-04T11:53:50Z</time>
      </trkpt>
      <trkpt lat="42.86988" lon="1.21454">
        <ele>595.8</ele>
        <time>2024-02-04T11:53:51Z</time>
      </trkpt>
      <trkpt lat="42.8698" lon="1.21451">
        <ele>596.8</ele>
        <time>2024-02-04T11:53:54Z</time>
      </trkpt>
      <trkpt lat="42.86977" lon="1.2145">
        <ele>597.2</ele>
        <time>2024-02-04T11:53:55Z</time>
      </trkpt>
      <trkpt lat="42.86974" lon="1.21449">
        <ele>597.8</ele>
        <time>2024-02-04T11:53:56Z</time>
      </trkpt>
      <trkpt lat="42.86971" lon="1.21448">
        <ele>598.2</ele>
        <time>2024-02-04T11:53:57Z</time>
      </trkpt>
      <trkpt lat="42.86966" lon="1.21447">
        <ele>598.2</ele>
        <time>2024-02-04T11:53:59Z</time>
      </trkpt>
      <trkpt lat="42.86963" lon="1.21447">
        <ele>598.6</ele>
        <time>2024-02-04T11:54:00Z</time>
      </trkpt>
      <trkpt lat="42.8696" lon="1.21446">
        <ele>599</ele>
        <time>2024-02-04T11:54:01Z</time>
      </trkpt>
      <trkpt lat="42.86957" lon="1.21446">
        <ele>599.6</ele>
        <time>2024-02-04T11:54:02Z</time>
      </trkpt>
      <trkpt lat="42.86954" lon="1.21446">
        <ele>600</ele>
        <time>2024-02-04T11:54:03Z</time>
      </trkpt>
      <trkpt lat="42.86951" lon="1.21446">
        <ele>600.4</ele>
        <time>2024-02-04T11:54:04Z</time>
      </trkpt>
      <trkpt lat="42.86948" lon="1.21446">
        <ele>600.4</ele>
        <time>2024-02-04T11:54:05Z</time>
      </trkpt>
      <trkpt lat="42.86942" lon="1.21447">
        <ele>600.8</ele>
        <time>2024-02-04T11:54:07Z</time>
      </trkpt>
      <trkpt lat="42.8694" lon="1.21447">
        <ele>601.2</ele>
        <time>2024-02-04T11:54:08Z</time>
      </trkpt>
      <trkpt lat="42.86938" lon="1.21448">
        <ele>601.8</ele>
        <time>2024-02-04T11:54:09Z</time>
      </trkpt>
      <trkpt lat="42.86935" lon="1.21449">
        <ele>602.2</ele>
        <time>2024-02-04T11:54:10Z</time>
      </trkpt>
      <trkpt lat="42.86933" lon="1.2145">
        <ele>602.6</ele>
        <time>2024-02-04T11:54:11Z</time>
      </trkpt>
      <trkpt lat="42.8692" lon="1.21453">
        <ele>603</ele>
        <time>2024-02-04T11:54:15Z</time>
      </trkpt>
      <trkpt lat="42.86917" lon="1.21455">
        <ele>603.4</ele>
        <time>2024-02-04T11:54:16Z</time>
      </trkpt>
      <trkpt lat="42.86914" lon="1.21457">
        <ele>603.8</ele>
        <time>2024-02-04T11:54:17Z</time>
      </trkpt>
      <trkpt lat="42.86911" lon="1.21459">
        <ele>604.2</ele>
        <time>2024-02-04T11:54:18Z</time>
      </trkpt>
      <trkpt lat="42.86908" lon="1.2146">
        <ele>604.6</ele>
        <time>2024-02-04T11:54:19Z</time>
      </trkpt>
      <trkpt lat="42.86894" lon="1.21465">
        <ele>605</ele>
        <time>2024-02-04T11:54:23Z</time>
      </trkpt>
      <trkpt lat="42.86891" lon="1.21465">
        <ele>605.4</ele>
        <time>2024-02-04T11:54:24Z</time>
      </trkpt>
      <trkpt lat="42.86888" lon="1.21465">
        <ele>605.8</ele>
        <time>2024-02-04T11:54:25Z</time>
      </trkpt>
      <trkpt lat="42.86884" lon="1.21465">
        <ele>606.2</ele>
        <time>2024-02-04T11:54:26Z</time>
      </trkpt>
      <trkpt lat="42.86882" lon="1.21464">
        <ele>606.6</ele>
        <time>2024-02-04T11:54:27Z</time>
      </trkpt>
      <trkpt lat="42.86873" lon="1.21458">
        <ele>606.6</ele>
        <time>2024-02-04T11:54:30Z</time>
      </trkpt>
      <trkpt lat="42.86864" lon="1.21451">
        <ele>607.2</ele>
        <time>2024-02-04T11:54:33Z</time>
      </trkpt>
      <trkpt lat="42.86862" lon="1.21449">
        <ele>607.6</ele>
        <time>2024-02-04T11:54:34Z</time>
      </trkpt>
      <trkpt lat="42.86859" lon="1.21446">
        <ele>608</ele>
        <time>2024-02-04T11:54:35Z</time>
      </trkpt>
      <trkpt lat="42.86857" lon="1.21444">
        <ele>608.4</ele>
        <time>2024-02-04T11:54:36Z</time>
      </trkpt>
      <trkpt lat="42.86855" lon="1.21441">
        <ele>608.8</ele>
        <time>2024-02-04T11:54:37Z</time>
      </trkpt>
      <trkpt lat="42.86848" lon="1.21433">
        <ele>609.2</ele>
        <time>2024-02-04T11:54:40Z</time>
      </trkpt>
      <trkpt lat="42.86846" lon="1.2143">
        <ele>609.6</ele>
        <time>2024-02-04T11:54:41Z</time>
      </trkpt>
      <trkpt lat="42.86844" lon="1.21428">
        <ele>610</ele>
        <time>2024-02-04T11:54:42Z</time>
      </trkpt>
      <trkpt lat="42.86842" lon="1.21425">
        <ele>610.4</ele>
        <time>2024-02-04T11:54:43Z</time>
      </trkpt>
      <trkpt lat="42.86839" lon="1.21423">
        <ele>610.8</ele>
        <time>2024-02-04T11:54:44Z</time>
      </trkpt>
      <trkpt lat="42.86833" lon="1.21419">
        <ele>611.2</ele>
        <time>2024-02-04T11:54:46Z</time>
      </trkpt>
      <trkpt lat="42.86831" lon="1.21417">
        <ele>611.6</ele>
        <time>2024-02-04T11:54:47Z</time>
      </trkpt>
      <trkpt lat="42.86828" lon="1.21415">
        <ele>612.2</ele>
        <time>2024-02-04T11:54:48Z</time>
      </trkpt>
      <trkpt lat="42.86826" lon="1.21413">
        <ele>612.6</ele>
        <time>2024-02-04T11:54:49Z</time>
      </trkpt>
      <trkpt lat="42.86823" lon="1.21412">
        <ele>613</ele>
        <time>2024-02-04T11:54:50Z</time>
      </trkpt>
      <trkpt lat="42.86821" lon="1.2141">
        <ele>613</ele>
        <time>2024-02-04T11:54:51Z</time>
      </trkpt>
      <trkpt lat="42.86816" lon="1.21407">
        <ele>613.4</ele>
        <time>2024-02-04T11:54:53Z</time>
      </trkpt>
      <trkpt lat="42.86814" lon="1.21405">
        <ele>613.8</ele>
        <time>2024-02-04T11:54:54Z</time>
      </trkpt>
      <trkpt lat="42.86811" lon="1.21404">
        <ele>614.4</ele>
        <time>2024-02-04T11:54:55Z</time>
      </trkpt>
      <trkpt lat="42.86809" lon="1.21403">
        <ele>614.8</ele>
        <time>2024-02-04T11:54:56Z</time>
      </trkpt>
      <trkpt lat="42.86807" lon="1.21402">
        <ele>615.2</ele>
        <time>2024-02-04T11:54:57Z</time>
      </trkpt>
      <trkpt lat="42.86802" lon="1.21399">
        <ele>615.6</ele>
        <time>2024-02-04T11:54:59Z</time>
      </trkpt>
      <trkpt lat="42.868" lon="1.21397">
        <ele>616</ele>
        <time>2024-02-04T11:55:00Z</time>
      </trkpt>
      <trkpt lat="42.86798" lon="1.21395">
        <ele>616.6</ele>
        <time>2024-02-04T11:55:01Z</time>
      </trkpt>
      <trkpt lat="42.86795" lon="1.21394">
        <ele>617</ele>
        <time>2024-02-04T11:55:02Z</time>
      </trkpt>
      <trkpt lat="42.86793" lon="1.21393">
        <ele>617.4</ele>
        <time>2024-02-04T11:55:03Z</time>
      </trkpt>
      <trkpt lat="42.86785" lon="1.21388">
        <ele>617.8</ele>
        <time>2024-02-04T11:55:06Z</time>
      </trkpt>
      <trkpt lat="42.86783" lon="1.21386">
        <ele>618.2</ele>
        <time>2024-02-04T11:55:07Z</time>
      </trkpt>
      <trkpt lat="42.8678" lon="1.21385">
        <ele>619.2</ele>
        <time>2024-02-04T11:55:08Z</time>
      </trkpt>
      <trkpt lat="42.86778" lon="1.21384">
        <ele>619.6</ele>
        <time>2024-02-04T11:55:09Z</time>
      </trkpt>
      <trkpt lat="42.86775" lon="1.21383">
        <ele>619.6</ele>
        <time>2024-02-04T11:55:10Z</time>
      </trkpt>
      <trkpt lat="42.86771" lon="1.2138">
        <ele>620</ele>
        <time>2024-02-04T11:55:12Z</time>
      </trkpt>
      <trkpt lat="42.86768" lon="1.21378">
        <ele>620.6</ele>
        <time>2024-02-04T11:55:13Z</time>
      </trkpt>
      <trkpt lat="42.86766" lon="1.21377">
        <ele>621</ele>
        <time>2024-02-04T11:55:14Z</time>
      </trkpt>
      <trkpt lat="42.86764" lon="1.21376">
        <ele>621.4</ele>
        <time>2024-02-04T11:55:15Z</time>
      </trkpt>
      <trkpt lat="42.86762" lon="1.21374">
        <ele>622</ele>
        <time>2024-02-04T11:55:16Z</time>
      </trkpt>
      <trkpt lat="42.86756" lon="1.2137">
        <ele>622.4</ele>
        <time>2024-02-04T11:55:19Z</time>
      </trkpt>
      <trkpt lat="42.86754" lon="1.21368">
        <ele>622.8</ele>
        <time>2024-02-04T11:55:20Z</time>
      </trkpt>
      <trkpt lat="42.86752" lon="1.21367">
        <ele>623.2</ele>
        <time>2024-02-04T11:55:21Z</time>
      </trkpt>
      <trkpt lat="42.86751" lon="1.21366">
        <ele>623.6</ele>
        <time>2024-02-04T11:55:22Z</time>
      </trkpt>
      <trkpt lat="42.86749" lon="1.21365">
        <ele>624</ele>
        <time>2024-02-04T11:55:23Z</time>
      </trkpt>
      <trkpt lat="42.86745" lon="1.21361">
        <ele>624.4</ele>
        <time>2024-02-04T11:55:26Z</time>
      </trkpt>
      <trkpt lat="42.86744" lon="1.21359">
        <ele>624.8</ele>
        <time>2024-02-04T11:55:27Z</time>
      </trkpt>
      <trkpt lat="42.86742" lon="1.21357">
        <ele>625.2</ele>
        <time>2024-02-04T11:55:28Z</time>
      </trkpt>
      <trkpt lat="42.8674" lon="1.21355">
        <ele>625.6</ele>
        <time>2024-02-04T11:55:29Z</time>
      </trkpt>
      <trkpt lat="42.86739" lon="1.21354">
        <ele>626</ele>
        <time>2024-02-04T11:55:30Z</time>
      </trkpt>
      <trkpt lat="42.86736" lon="1.2135">
        <ele>627</ele>
        <time>2024-02-04T11:55:33Z</time>
      </trkpt>
      <trkpt lat="42.86735" lon="1.21347">
        <ele>627.4</ele>
        <time>2024-02-04T11:55:34Z</time>
      </trkpt>
      <trkpt lat="42.86733" lon="1.21345">
        <ele>627.8</ele>
        <time>2024-02-04T11:55:35Z</time>
      </trkpt>
      <trkpt lat="42.86731" lon="1.21341">
        <ele>628.2</ele>
        <time>2024-02-04T11:55:36Z</time>
      </trkpt>
      <trkpt lat="42.86724" lon="1.21331">
        <ele>628.6</ele>
        <time>2024-02-04T11:55:39Z</time>
      </trkpt>
      <trkpt lat="42.86722" lon="1.21329">
        <ele>629</ele>
        <time>2024-02-04T11:55:40Z</time>
      </trkpt>
      <trkpt lat="42.86721" lon="1.21326">
        <ele>629.4</ele>
        <time>2024-02-04T11:55:41Z</time>
      </trkpt>
      <trkpt lat="42.86719" lon="1.21324">
        <ele>629.8</ele>
        <time>2024-02-04T11:55:42Z</time>
      </trkpt>
      <trkpt lat="42.86716" lon="1.21322">
        <ele>630.2</ele>
        <time>2024-02-04T11:55:43Z</time>
      </trkpt>
      <trkpt lat="42.86706" lon="1.21313">
        <ele>630.6</ele>
        <time>2024-02-04T11:55:47Z</time>
      </trkpt>
      <trkpt lat="42.86703" lon="1.21312">
        <ele>631.2</ele>
        <time>2024-02-04T11:55:48Z</time>
      </trkpt>
      <trkpt lat="42.867" lon="1.2131">
        <ele>631.6</ele>
        <time>2024-02-04T11:55:49Z</time>
      </trkpt>
      <trkpt lat="42.86698" lon="1.21309">
        <ele>632</ele>
        <time>2024-02-04T11:55:50Z</time>
      </trkpt>
      <trkpt lat="42.86695" lon="1.21307">
        <ele>632.4</ele>
        <time>2024-02-04T11:55:51Z</time>
      </trkpt>
      <trkpt lat="42.86688" lon="1.21304">
        <ele>632.4</ele>
        <time>2024-02-04T11:55:54Z</time>
      </trkpt>
      <trkpt lat="42.86685" lon="1.21303">
        <ele>632.8</ele>
        <time>2024-02-04T11:55:55Z</time>
      </trkpt>
      <trkpt lat="42.86683" lon="1.21301">
        <ele>633.2</ele>
        <time>2024-02-04T11:55:56Z</time>
      </trkpt>
      <trkpt lat="42.86681" lon="1.213">
        <ele>633.8</ele>
        <time>2024-02-04T11:55:57Z</time>
      </trkpt>
      <trkpt lat="42.86678" lon="1.21299">
        <ele>634.6</ele>
        <time>2024-02-04T11:55:58Z</time>
      </trkpt>
      <trkpt lat="42.86674" lon="1.21297">
        <ele>635</ele>
        <time>2024-02-04T11:56:00Z</time>
      </trkpt>
      <trkpt lat="42.86672" lon="1.21297">
        <ele>635.4</ele>
        <time>2024-02-04T11:56:01Z</time>
      </trkpt>
      <trkpt lat="42.8667" lon="1.21296">
        <ele>635.8</ele>
        <time>2024-02-04T11:56:02Z</time>
      </trkpt>
      <trkpt lat="42.86667" lon="1.21297">
        <ele>636.2</ele>
        <time>2024-02-04T11:56:03Z</time>
      </trkpt>
      <trkpt lat="42.86664" lon="1.21297">
        <ele>636.6</ele>
        <time>2024-02-04T11:56:04Z</time>
      </trkpt>
      <trkpt lat="42.86659" lon="1.21296">
        <ele>637</ele>
        <time>2024-02-04T11:56:06Z</time>
      </trkpt>
      <trkpt lat="42.86655" lon="1.21295">
        <ele>637.4</ele>
        <time>2024-02-04T11:56:07Z</time>
      </trkpt>
      <trkpt lat="42.86653" lon="1.21295">
        <ele>637.8</ele>
        <time>2024-02-04T11:56:08Z</time>
      </trkpt>
      <trkpt lat="42.8665" lon="1.21294">
        <ele>638.2</ele>
        <time>2024-02-04T11:56:09Z</time>
      </trkpt>
      <trkpt lat="42.86647" lon="1.21294">
        <ele>638.6</ele>
        <time>2024-02-04T11:56:10Z</time>
      </trkpt>
      <trkpt lat="42.86642" lon="1.21294">
        <ele>639</ele>
        <time>2024-02-04T11:56:12Z</time>
      </trkpt>
      <trkpt lat="42.86639" lon="1.21294">
        <ele>639.6</ele>
        <time>2024-02-04T11:56:13Z</time>
      </trkpt>
      <trkpt lat="42.86637" lon="1.21294">
        <ele>640</ele>
        <time>2024-02-04T11:56:14Z</time>
      </trkpt>
      <trkpt lat="42.86634" lon="1.21293">
        <ele>640.4</ele>
        <time>2024-02-04T11:56:15Z</time>
      </trkpt>
      <trkpt lat="42.86631" lon="1.21293">
        <ele>640.8</ele>
        <time>2024-02-04T11:56:16Z</time>
      </trkpt>
      <trkpt lat="42.86626" lon="1.21292">
        <ele>641.2</ele>
        <time>2024-02-04T11:56:18Z</time>
      </trkpt>
      <trkpt lat="42.86623" lon="1.21291">
        <ele>641.6</ele>
        <time>2024-02-04T11:56:19Z</time>
      </trkpt>
      <trkpt lat="42.86621" lon="1.2129">
        <ele>642</ele>
        <time>2024-02-04T11:56:20Z</time>
      </trkpt>
      <trkpt lat="42.86618" lon="1.21289">
        <ele>642.4</ele>
        <time>2024-02-04T11:56:21Z</time>
      </trkpt>
      <trkpt lat="42.86616" lon="1.21288">
        <ele>643</ele>
        <time>2024-02-04T11:56:22Z</time>
      </trkpt>
      <trkpt lat="42.86614" lon="1.21288">
        <ele>643.4</ele>
        <time>2024-02-04T11:56:23Z</time>
      </trkpt>
      <trkpt lat="42.86612" lon="1.21287">
        <ele>643.8</ele>
        <time>2024-02-04T11:56:24Z</time>
      </trkpt>
      <trkpt lat="42.8661" lon="1.21287">
        <ele>644.2</ele>
        <time>2024-02-04T11:56:25Z</time>
      </trkpt>
      <trkpt lat="42.86608" lon="1.21286">
        <ele>644.6</ele>
        <time>2024-02-04T11:56:26Z</time>
      </trkpt>
      <trkpt lat="42.86606" lon="1.21286">
        <ele>645</ele>
        <time>2024-02-04T11:56:27Z</time>
      </trkpt>
      <trkpt lat="42.86598" lon="1.21284">
        <ele>645.4</ele>
        <time>2024-02-04T11:56:30Z</time>
      </trkpt>
      <trkpt lat="42.86596" lon="1.21284">
        <ele>645.8</ele>
        <time>2024-02-04T11:56:31Z</time>
      </trkpt>
      <trkpt lat="42.86594" lon="1.21283">
        <ele>646.2</ele>
        <time>2024-02-04T11:56:32Z</time>
      </trkpt>
      <trkpt lat="42.86592" lon="1.21282">
        <ele>646.6</ele>
        <time>2024-02-04T11:56:33Z</time>
      </trkpt>
      <trkpt lat="42.86591" lon="1.2128">
        <ele>647</ele>
        <time>2024-02-04T11:56:34Z</time>
      </trkpt>
      <trkpt lat="42.86584" lon="1.21278">
        <ele>647.4</ele>
        <time>2024-02-04T11:56:37Z</time>
      </trkpt>
      <trkpt lat="42.86583" lon="1.21276">
        <ele>647.8</ele>
        <time>2024-02-04T11:56:38Z</time>
      </trkpt>
      <trkpt lat="42.86581" lon="1.21275">
        <ele>648.2</ele>
        <time>2024-02-04T11:56:39Z</time>
      </trkpt>
      <trkpt lat="42.86579" lon="1.21274">
        <ele>648.6</ele>
        <time>2024-02-04T11:56:40Z</time>
      </trkpt>
      <trkpt lat="42.86576" lon="1.21272">
        <ele>649</ele>
        <time>2024-02-04T11:56:41Z</time>
      </trkpt>
      <trkpt lat="42.86572" lon="1.21269">
        <ele>649</ele>
        <time>2024-02-04T11:56:43Z</time>
      </trkpt>
      <trkpt lat="42.86571" lon="1.21267">
        <ele>649.4</ele>
        <time>2024-02-04T11:56:44Z</time>
      </trkpt>
      <trkpt lat="42.86569" lon="1.21265">
        <ele>649.8</ele>
        <time>2024-02-04T11:56:45Z</time>
      </trkpt>
      <trkpt lat="42.86567" lon="1.21263">
        <ele>650.4</ele>
        <time>2024-02-04T11:56:46Z</time>
      </trkpt>
      <trkpt lat="42.86565" lon="1.21261">
        <ele>651.2</ele>
        <time>2024-02-04T11:56:47Z</time>
      </trkpt>
      <trkpt lat="42.86562" lon="1.21258">
        <ele>651.2</ele>
        <time>2024-02-04T11:56:49Z</time>
      </trkpt>
      <trkpt lat="42.86558" lon="1.21251">
        <ele>651.6</ele>
        <time>2024-02-04T11:56:52Z</time>
      </trkpt>
      <trkpt lat="42.86555" lon="1.21248">
        <ele>652</ele>
        <time>2024-02-04T11:56:53Z</time>
      </trkpt>
      <trkpt lat="42.86553" lon="1.21245">
        <ele>652.6</ele>
        <time>2024-02-04T11:56:54Z</time>
      </trkpt>
      <trkpt lat="42.86552" lon="1.21242">
        <ele>653</ele>
        <time>2024-02-04T11:56:55Z</time>
      </trkpt>
      <trkpt lat="42.8655" lon="1.2124">
        <ele>653.4</ele>
        <time>2024-02-04T11:56:56Z</time>
      </trkpt>
      <trkpt lat="42.86546" lon="1.21231">
        <ele>653.8</ele>
        <time>2024-02-04T11:56:59Z</time>
      </trkpt>
      <trkpt lat="42.86544" lon="1.21228">
        <ele>654.2</ele>
        <time>2024-02-04T11:57:00Z</time>
      </trkpt>
      <trkpt lat="42.86543" lon="1.21226">
        <ele>654.8</ele>
        <time>2024-02-04T11:57:01Z</time>
      </trkpt>
      <trkpt lat="42.86542" lon="1.21224">
        <ele>655.2</ele>
        <time>2024-02-04T11:57:02Z</time>
      </trkpt>
      <trkpt lat="42.8654" lon="1.21221">
        <ele>655.6</ele>
        <time>2024-02-04T11:57:03Z</time>
      </trkpt>
      <trkpt lat="42.86538" lon="1.21219">
        <ele>655.6</ele>
        <time>2024-02-04T11:57:04Z</time>
      </trkpt>
      <trkpt lat="42.86532" lon="1.21212">
        <ele>656</ele>
        <time>2024-02-04T11:57:07Z</time>
      </trkpt>
      <trkpt lat="42.8653" lon="1.21211">
        <ele>656.4</ele>
        <time>2024-02-04T11:57:08Z</time>
      </trkpt>
      <trkpt lat="42.86528" lon="1.21209">
        <ele>656.8</ele>
        <time>2024-02-04T11:57:09Z</time>
      </trkpt>
      <trkpt lat="42.86525" lon="1.21208">
        <ele>657.2</ele>
        <time>2024-02-04T11:57:10Z</time>
      </trkpt>
      <trkpt lat="42.86523" lon="1.21207">
        <ele>657.8</ele>
        <time>2024-02-04T11:57:11Z</time>
      </trkpt>
      <trkpt lat="42.86516" lon="1.21199">
        <ele>658.2</ele>
        <time>2024-02-04T11:57:16Z</time>
      </trkpt>
      <trkpt lat="42.86515" lon="1.21197">
        <ele>658.6</ele>
        <time>2024-02-04T11:57:17Z</time>
      </trkpt>
      <trkpt lat="42.86514" lon="1.21195">
        <ele>659</ele>
        <time>2024-02-04T11:57:18Z</time>
      </trkpt>
      <trkpt lat="42.86512" lon="1.21194">
        <ele>659.4</ele>
        <time>2024-02-04T11:57:19Z</time>
      </trkpt>
      <trkpt lat="42.86511" lon="1.21193">
        <ele>659.8</ele>
        <time>2024-02-04T11:57:20Z</time>
      </trkpt>
      <trkpt lat="42.86509" lon="1.21192">
        <ele>659.8</ele>
        <time>2024-02-04T11:57:21Z</time>
      </trkpt>
      <trkpt lat="42.86501" lon="1.21188">
        <ele>660.2</ele>
        <time>2024-02-04T11:57:25Z</time>
      </trkpt>
      <trkpt lat="42.86498" lon="1.21187">
        <ele>660.8</ele>
        <time>2024-02-04T11:57:26Z</time>
      </trkpt>
      <trkpt lat="42.86497" lon="1.21186">
        <ele>661.2</ele>
        <time>2024-02-04T11:57:27Z</time>
      </trkpt>
      <trkpt lat="42.86495" lon="1.21185">
        <ele>661.6</ele>
        <time>2024-02-04T11:57:28Z</time>
      </trkpt>
      <trkpt lat="42.86493" lon="1.21184">
        <ele>662</ele>
        <time>2024-02-04T11:57:29Z</time>
      </trkpt>
      <trkpt lat="42.86484" lon="1.21181">
        <ele>662.4</ele>
        <time>2024-02-04T11:57:33Z</time>
      </trkpt>
      <trkpt lat="42.86482" lon="1.21181">
        <ele>663</ele>
        <time>2024-02-04T11:57:34Z</time>
      </trkpt>
      <trkpt lat="42.8648" lon="1.21181">
        <ele>663.4</ele>
        <time>2024-02-04T11:57:35Z</time>
      </trkpt>
      <trkpt lat="42.86478" lon="1.2118">
        <ele>663.8</ele>
        <time>2024-02-04T11:57:36Z</time>
      </trkpt>
      <trkpt lat="42.86476" lon="1.2118">
        <ele>664.2</ele>
        <time>2024-02-04T11:57:37Z</time>
      </trkpt>
      <trkpt lat="42.86469" lon="1.2118">
        <ele>664.6</ele>
        <time>2024-02-04T11:57:40Z</time>
      </trkpt>
      <trkpt lat="42.86467" lon="1.2118">
        <ele>665.2</ele>
        <time>2024-02-04T11:57:41Z</time>
      </trkpt>
      <trkpt lat="42.86465" lon="1.2118">
        <ele>665.6</ele>
        <time>2024-02-04T11:57:42Z</time>
      </trkpt>
      <trkpt lat="42.86463" lon="1.21181">
        <ele>666</ele>
        <time>2024-02-04T11:57:43Z</time>
      </trkpt>
      <trkpt lat="42.8646" lon="1.21181">
        <ele>666.6</ele>
        <time>2024-02-04T11:57:44Z</time>
      </trkpt>
      <trkpt lat="42.86453" lon="1.21184">
        <ele>666.6</ele>
        <time>2024-02-04T11:57:47Z</time>
      </trkpt>
      <trkpt lat="42.86451" lon="1.21185">
        <ele>667</ele>
        <time>2024-02-04T11:57:48Z</time>
      </trkpt>
      <trkpt lat="42.86448" lon="1.21186">
        <ele>667.4</ele>
        <time>2024-02-04T11:57:49Z</time>
      </trkpt>
      <trkpt lat="42.86446" lon="1.21187">
        <ele>667.8</ele>
        <time>2024-02-04T11:57:50Z</time>
      </trkpt>
      <trkpt lat="42.86443" lon="1.21188">
        <ele>668.2</ele>
        <time>2024-02-04T11:57:51Z</time>
      </trkpt>
      <trkpt lat="42.86442" lon="1.21189">
        <ele>668.6</ele>
        <time>2024-02-04T11:57:52Z</time>
      </trkpt>
      <trkpt lat="42.86434" lon="1.21192">
        <ele>669</ele>
        <time>2024-02-04T11:57:56Z</time>
      </trkpt>
      <trkpt lat="42.86432" lon="1.21194">
        <ele>669.4</ele>
        <time>2024-02-04T11:57:57Z</time>
      </trkpt>
      <trkpt lat="42.8643" lon="1.21196">
        <ele>669.8</ele>
        <time>2024-02-04T11:57:58Z</time>
      </trkpt>
      <trkpt lat="42.86427" lon="1.21198">
        <ele>670.4</ele>
        <time>2024-02-04T11:57:59Z</time>
      </trkpt>
      <trkpt lat="42.86425" lon="1.212">
        <ele>670.8</ele>
        <time>2024-02-04T11:58:00Z</time>
      </trkpt>
      <trkpt lat="42.86419" lon="1.21208">
        <ele>671.2</ele>
        <time>2024-02-04T11:58:03Z</time>
      </trkpt>
      <trkpt lat="42.86418" lon="1.21211">
        <ele>671.6</ele>
        <time>2024-02-04T11:58:04Z</time>
      </trkpt>
      <trkpt lat="42.86417" lon="1.21214">
        <ele>672</ele>
        <time>2024-02-04T11:58:05Z</time>
      </trkpt>
      <trkpt lat="42.86415" lon="1.21216">
        <ele>672.4</ele>
        <time>2024-02-04T11:58:06Z</time>
      </trkpt>
      <trkpt lat="42.86413" lon="1.21218">
        <ele>672.8</ele>
        <time>2024-02-04T11:58:07Z</time>
      </trkpt>
      <trkpt lat="42.86408" lon="1.21225">
        <ele>672.8</ele>
        <time>2024-02-04T11:58:10Z</time>
      </trkpt>
      <trkpt lat="42.86407" lon="1.21228">
        <ele>673.4</ele>
        <time>2024-02-04T11:58:11Z</time>
      </trkpt>
      <trkpt lat="42.86405" lon="1.2123">
        <ele>673.8</ele>
        <time>2024-02-04T11:58:12Z</time>
      </trkpt>
      <trkpt lat="42.86404" lon="1.21232">
        <ele>674.2</ele>
        <time>2024-02-04T11:58:13Z</time>
      </trkpt>
      <trkpt lat="42.86402" lon="1.21234">
        <ele>674.6</ele>
        <time>2024-02-04T11:58:14Z</time>
      </trkpt>
      <trkpt lat="42.86401" lon="1.21237">
        <ele>675</ele>
        <time>2024-02-04T11:58:15Z</time>
      </trkpt>
      <trkpt lat="42.86397" lon="1.21241">
        <ele>675</ele>
        <time>2024-02-04T11:58:17Z</time>
      </trkpt>
      <trkpt lat="42.86393" lon="1.2125">
        <ele>675.4</ele>
        <time>2024-02-04T11:58:20Z</time>
      </trkpt>
      <trkpt lat="42.86391" lon="1.21252">
        <ele>675.8</ele>
        <time>2024-02-04T11:58:21Z</time>
      </trkpt>
      <trkpt lat="42.86389" lon="1.21255">
        <ele>676.2</ele>
        <time>2024-02-04T11:58:22Z</time>
      </trkpt>
      <trkpt lat="42.86387" lon="1.21257">
        <ele>676.6</ele>
        <time>2024-02-04T11:58:23Z</time>
      </trkpt>
      <trkpt lat="42.86385" lon="1.21259">
        <ele>677</ele>
        <time>2024-02-04T11:58:24Z</time>
      </trkpt>
      <trkpt lat="42.86379" lon="1.21264">
        <ele>677.6</ele>
        <time>2024-02-04T11:58:27Z</time>
      </trkpt>
      <trkpt lat="42.86377" lon="1.21265">
        <ele>678</ele>
        <time>2024-02-04T11:58:28Z</time>
      </trkpt>
      <trkpt lat="42.86375" lon="1.21267">
        <ele>678.4</ele>
        <time>2024-02-04T11:58:29Z</time>
      </trkpt>
      <trkpt lat="42.86373" lon="1.2127">
        <ele>678.8</ele>
        <time>2024-02-04T11:58:30Z</time>
      </trkpt>
      <trkpt lat="42.86371" lon="1.21272">
        <ele>679.2</ele>
        <time>2024-02-04T11:58:31Z</time>
      </trkpt>
      <trkpt lat="42.86366" lon="1.21277">
        <ele>679.2</ele>
        <time>2024-02-04T11:58:34Z</time>
      </trkpt>
      <trkpt lat="42.86364" lon="1.2128">
        <ele>679.6</ele>
        <time>2024-02-04T11:58:35Z</time>
      </trkpt>
      <trkpt lat="42.86363" lon="1.21282">
        <ele>680</ele>
        <time>2024-02-04T11:58:36Z</time>
      </trkpt>
      <trkpt lat="42.86361" lon="1.21284">
        <ele>680.4</ele>
        <time>2024-02-04T11:58:37Z</time>
      </trkpt>
      <trkpt lat="42.8636" lon="1.21287">
        <ele>681</ele>
        <time>2024-02-04T11:58:38Z</time>
      </trkpt>
      <trkpt lat="42.86359" lon="1.21288">
        <ele>681.4</ele>
        <time>2024-02-04T11:58:39Z</time>
      </trkpt>
      <trkpt lat="42.86357" lon="1.2129">
        <ele>681.4</ele>
        <time>2024-02-04T11:58:40Z</time>
      </trkpt>
      <trkpt lat="42.86352" lon="1.21298">
        <ele>681.8</ele>
        <time>2024-02-04T11:58:43Z</time>
      </trkpt>
      <trkpt lat="42.86351" lon="1.21301">
        <ele>682.2</ele>
        <time>2024-02-04T11:58:44Z</time>
      </trkpt>
      <trkpt lat="42.86349" lon="1.21303">
        <ele>682.6</ele>
        <time>2024-02-04T11:58:45Z</time>
      </trkpt>
      <trkpt lat="42.86348" lon="1.21305">
        <ele>683</ele>
        <time>2024-02-04T11:58:46Z</time>
      </trkpt>
      <trkpt lat="42.86346" lon="1.21307">
        <ele>683.4</ele>
        <time>2024-02-04T11:58:47Z</time>
      </trkpt>
      <trkpt lat="42.86344" lon="1.21311">
        <ele>683.4</ele>
        <time>2024-02-04T11:58:49Z</time>
      </trkpt>
      <trkpt lat="42.86343" lon="1.21317">
        <ele>683.4</ele>
        <time>2024-02-04T11:58:51Z</time>
      </trkpt>
      <trkpt lat="42.86343" lon="1.21319">
        <ele>683.8</ele>
        <time>2024-02-04T11:58:52Z</time>
      </trkpt>
      <trkpt lat="42.86342" lon="1.21321">
        <ele>684.4</ele>
        <time>2024-02-04T11:58:53Z</time>
      </trkpt>
      <trkpt lat="42.86342" lon="1.21323">
        <ele>684.8</ele>
        <time>2024-02-04T11:58:54Z</time>
      </trkpt>
      <trkpt lat="42.86342" lon="1.21325">
        <ele>685.2</ele>
        <time>2024-02-04T11:58:55Z</time>
      </trkpt>
      <trkpt lat="42.86342" lon="1.21326">
        <ele>685.6</ele>
        <time>2024-02-04T11:58:56Z</time>
      </trkpt>
      <trkpt lat="42.86342" lon="1.21328">
        <ele>685.6</ele>
        <time>2024-02-04T11:58:57Z</time>
      </trkpt>
      <trkpt lat="42.86342" lon="1.21329">
        <ele>685.6</ele>
        <time>2024-02-04T11:58:58Z</time>
      </trkpt>
      <trkpt lat="42.86343" lon="1.21334">
        <ele>685.6</ele>
        <time>2024-02-04T12:01:12Z</time>
      </trkpt>
      <trkpt lat="42.86344" lon="1.21339">
        <ele>685.6</ele>
        <time>2024-02-04T12:01:13Z</time>
      </trkpt>
      <trkpt lat="42.86344" lon="1.21351">
        <ele>685.6</ele>
        <time>2024-02-04T12:01:16Z</time>
      </trkpt>
      <trkpt lat="42.86343" lon="1.21357">
        <ele>685.6</ele>
        <time>2024-02-04T12:01:17Z</time>
      </trkpt>
      <trkpt lat="42.86342" lon="1.21363">
        <ele>686</ele>
        <time>2024-02-04T12:01:18Z</time>
      </trkpt>
      <trkpt lat="42.86341" lon="1.21369">
        <ele>686.4</ele>
        <time>2024-02-04T12:01:19Z</time>
      </trkpt>
      <trkpt lat="42.86339" lon="1.21375">
        <ele>686.8</ele>
        <time>2024-02-04T12:01:20Z</time>
      </trkpt>
      <trkpt lat="42.86336" lon="1.2138">
        <ele>687.2</ele>
        <time>2024-02-04T12:01:21Z</time>
      </trkpt>
      <trkpt lat="42.86334" lon="1.21385">
        <ele>687.6</ele>
        <time>2024-02-04T12:01:22Z</time>
      </trkpt>
      <trkpt lat="42.86331" lon="1.2139">
        <ele>687.6</ele>
        <time>2024-02-04T12:01:23Z</time>
      </trkpt>
      <trkpt lat="42.86322" lon="1.21398">
        <ele>688</ele>
        <time>2024-02-04T12:01:25Z</time>
      </trkpt>
      <trkpt lat="42.86318" lon="1.21403">
        <ele>688.6</ele>
        <time>2024-02-04T12:01:26Z</time>
      </trkpt>
      <trkpt lat="42.86314" lon="1.21408">
        <ele>689</ele>
        <time>2024-02-04T12:01:27Z</time>
      </trkpt>
      <trkpt lat="42.8631" lon="1.21414">
        <ele>689.6</ele>
        <time>2024-02-04T12:01:28Z</time>
      </trkpt>
      <trkpt lat="42.86305" lon="1.21419">
        <ele>690</ele>
        <time>2024-02-04T12:01:29Z</time>
      </trkpt>
      <trkpt lat="42.86293" lon="1.21434">
        <ele>691</ele>
        <time>2024-02-04T12:01:32Z</time>
      </trkpt>
      <trkpt lat="42.8629" lon="1.2144">
        <ele>691.4</ele>
        <time>2024-02-04T12:01:33Z</time>
      </trkpt>
      <trkpt lat="42.86287" lon="1.21443">
        <ele>691.8</ele>
        <time>2024-02-04T12:01:34Z</time>
      </trkpt>
      <trkpt lat="42.86284" lon="1.21447">
        <ele>692.4</ele>
        <time>2024-02-04T12:01:35Z</time>
      </trkpt>
      <trkpt lat="42.86275" lon="1.21457">
        <ele>692.8</ele>
        <time>2024-02-04T12:01:37Z</time>
      </trkpt>
      <trkpt lat="42.86271" lon="1.2146">
        <ele>693.2</ele>
        <time>2024-02-04T12:01:38Z</time>
      </trkpt>
      <trkpt lat="42.86266" lon="1.21464">
        <ele>693.6</ele>
        <time>2024-02-04T12:01:39Z</time>
      </trkpt>
      <trkpt lat="42.86262" lon="1.21467">
        <ele>694.2</ele>
        <time>2024-02-04T12:01:40Z</time>
      </trkpt>
      <trkpt lat="42.86257" lon="1.21471">
        <ele>694.6</ele>
        <time>2024-02-04T12:01:41Z</time>
      </trkpt>
      <trkpt lat="42.86253" lon="1.21475">
        <ele>694.6</ele>
        <time>2024-02-04T12:01:42Z</time>
      </trkpt>
      <trkpt lat="42.86246" lon="1.21483">
        <ele>694.6</ele>
        <time>2024-02-04T12:01:44Z</time>
      </trkpt>
      <trkpt lat="42.86244" lon="1.21489">
        <ele>695</ele>
        <time>2024-02-04T12:01:45Z</time>
      </trkpt>
      <trkpt lat="42.86243" lon="1.21493">
        <ele>695.4</ele>
        <time>2024-02-04T12:01:46Z</time>
      </trkpt>
      <trkpt lat="42.86242" lon="1.21497">
        <ele>695.8</ele>
        <time>2024-02-04T12:01:47Z</time>
      </trkpt>
      <trkpt lat="42.86241" lon="1.21501">
        <ele>696.2</ele>
        <time>2024-02-04T12:01:48Z</time>
      </trkpt>
      <trkpt lat="42.8624" lon="1.21505">
        <ele>696.8</ele>
        <time>2024-02-04T12:01:49Z</time>
      </trkpt>
      <trkpt lat="42.86239" lon="1.21509">
        <ele>696.8</ele>
        <time>2024-02-04T12:01:50Z</time>
      </trkpt>
      <trkpt lat="42.86234" lon="1.21537">
        <ele>696.8</ele>
        <time>2024-02-04T12:01:57Z</time>
      </trkpt>
      <trkpt lat="42.86226" lon="1.21555">
        <ele>696.8</ele>
        <time>2024-02-04T12:02:03Z</time>
      </trkpt>
      <trkpt lat="42.86221" lon="1.2156">
        <ele>696.8</ele>
        <time>2024-02-04T12:02:05Z</time>
      </trkpt>
      <trkpt lat="42.86219" lon="1.21561">
        <ele>697.2</ele>
        <time>2024-02-04T12:02:06Z</time>
      </trkpt>
      <trkpt lat="42.86217" lon="1.21563">
        <ele>697.6</ele>
        <time>2024-02-04T12:02:07Z</time>
      </trkpt>
      <trkpt lat="42.86214" lon="1.21564">
        <ele>698</ele>
        <time>2024-02-04T12:02:08Z</time>
      </trkpt>
      <trkpt lat="42.86212" lon="1.21565">
        <ele>698.4</ele>
        <time>2024-02-04T12:02:09Z</time>
      </trkpt>
      <trkpt lat="42.8621" lon="1.21566">
        <ele>698.8</ele>
        <time>2024-02-04T12:02:10Z</time>
      </trkpt>
      <trkpt lat="42.86202" lon="1.21568">
        <ele>698.8</ele>
        <time>2024-02-04T12:02:13Z</time>
      </trkpt>
      <trkpt lat="42.8619" lon="1.21572">
        <ele>699.2</ele>
        <time>2024-02-04T12:02:17Z</time>
      </trkpt>
      <trkpt lat="42.86187" lon="1.21573">
        <ele>699.6</ele>
        <time>2024-02-04T12:02:18Z</time>
      </trkpt>
      <trkpt lat="42.86184" lon="1.21574">
        <ele>700</ele>
        <time>2024-02-04T12:02:19Z</time>
      </trkpt>
      <trkpt lat="42.86182" lon="1.21576">
        <ele>700.6</ele>
        <time>2024-02-04T12:02:20Z</time>
      </trkpt>
      <trkpt lat="42.86179" lon="1.21578">
        <ele>701</ele>
        <time>2024-02-04T12:02:21Z</time>
      </trkpt>
      <trkpt lat="42.8617" lon="1.21586">
        <ele>701</ele>
        <time>2024-02-04T12:02:25Z</time>
      </trkpt>
      <trkpt lat="42.86165" lon="1.2159">
        <ele>701.4</ele>
        <time>2024-02-04T12:02:27Z</time>
      </trkpt>
      <trkpt lat="42.86164" lon="1.21593">
        <ele>701.8</ele>
        <time>2024-02-04T12:02:28Z</time>
      </trkpt>
      <trkpt lat="42.86162" lon="1.21596">
        <ele>702.2</ele>
        <time>2024-02-04T12:02:29Z</time>
      </trkpt>
      <trkpt lat="42.8616" lon="1.21599">
        <ele>702.6</ele>
        <time>2024-02-04T12:02:30Z</time>
      </trkpt>
      <trkpt lat="42.86158" lon="1.21601">
        <ele>703</ele>
        <time>2024-02-04T12:02:31Z</time>
      </trkpt>
      <trkpt lat="42.86152" lon="1.21618">
        <ele>703</ele>
        <time>2024-02-04T12:02:36Z</time>
      </trkpt>
      <trkpt lat="42.86144" lon="1.2164">
        <ele>703.4</ele>
        <time>2024-02-04T12:02:42Z</time>
      </trkpt>
      <trkpt lat="42.86143" lon="1.21644">
        <ele>703.8</ele>
        <time>2024-02-04T12:02:43Z</time>
      </trkpt>
      <trkpt lat="42.86141" lon="1.21647">
        <ele>704.2</ele>
        <time>2024-02-04T12:02:44Z</time>
      </trkpt>
      <trkpt lat="42.8614" lon="1.2165">
        <ele>704.6</ele>
        <time>2024-02-04T12:02:45Z</time>
      </trkpt>
      <trkpt lat="42.86138" lon="1.21653">
        <ele>705</ele>
        <time>2024-02-04T12:02:46Z</time>
      </trkpt>
      <trkpt lat="42.86134" lon="1.21659">
        <ele>705</ele>
        <time>2024-02-04T12:02:48Z</time>
      </trkpt>
      <trkpt lat="42.86118" lon="1.21675">
        <ele>705</ele>
        <time>2024-02-04T12:02:54Z</time>
      </trkpt>
      <trkpt lat="42.86105" lon="1.21683">
        <ele>705</ele>
        <time>2024-02-04T12:02:59Z</time>
      </trkpt>
      <trkpt lat="42.86097" lon="1.21688">
        <ele>705.4</ele>
        <time>2024-02-04T12:03:02Z</time>
      </trkpt>
      <trkpt lat="42.86095" lon="1.21691">
        <ele>705.8</ele>
        <time>2024-02-04T12:03:03Z</time>
      </trkpt>
      <trkpt lat="42.86092" lon="1.21693">
        <ele>706.2</ele>
        <time>2024-02-04T12:03:04Z</time>
      </trkpt>
      <trkpt lat="42.8609" lon="1.21695">
        <ele>706.6</ele>
        <time>2024-02-04T12:03:05Z</time>
      </trkpt>
      <trkpt lat="42.86087" lon="1.21697">
        <ele>707</ele>
        <time>2024-02-04T12:03:06Z</time>
      </trkpt>
      <trkpt lat="42.86074" lon="1.21707">
        <ele>707</ele>
        <time>2024-02-04T12:03:11Z</time>
      </trkpt>
      <trkpt lat="42.86063" lon="1.2172">
        <ele>707</ele>
        <time>2024-02-04T12:03:16Z</time>
      </trkpt>
      <trkpt lat="42.86056" lon="1.21726">
        <ele>707.4</ele>
        <time>2024-02-04T12:03:19Z</time>
      </trkpt>
      <trkpt lat="42.86055" lon="1.21729">
        <ele>707.8</ele>
        <time>2024-02-04T12:03:20Z</time>
      </trkpt>
      <trkpt lat="42.86053" lon="1.21731">
        <ele>708.2</ele>
        <time>2024-02-04T12:03:21Z</time>
      </trkpt>
      <trkpt lat="42.86051" lon="1.21734">
        <ele>708.6</ele>
        <time>2024-02-04T12:03:22Z</time>
      </trkpt>
      <trkpt lat="42.86049" lon="1.21736">
        <ele>709</ele>
        <time>2024-02-04T12:03:23Z</time>
      </trkpt>
      <trkpt lat="42.86048" lon="1.21739">
        <ele>709</ele>
        <time>2024-02-04T12:03:24Z</time>
      </trkpt>
      <trkpt lat="42.86046" lon="1.21751">
        <ele>709</ele>
        <time>2024-02-04T12:03:29Z</time>
      </trkpt>
      <trkpt lat="42.86045" lon="1.21751">
        <ele>709</ele>
        <time>2024-02-04T12:03:30Z</time>
      </trkpt>
      <trkpt lat="42.86045" lon="1.21751">
        <ele>709</ele>
        <time>2024-02-04T12:03:32Z</time>
      </trkpt>
      <trkpt lat="42.86046" lon="1.21753">
        <ele>709</ele>
        <time>2024-02-04T12:06:44Z</time>
      </trkpt>
      <trkpt lat="42.86045" lon="1.21757">
        <ele>709</ele>
        <time>2024-02-04T12:06:45Z</time>
      </trkpt>
      <trkpt lat="42.8604" lon="1.21785">
        <ele>709</ele>
        <time>2024-02-04T12:06:51Z</time>
      </trkpt>
      <trkpt lat="42.86027" lon="1.21805">
        <ele>709</ele>
        <time>2024-02-04T12:06:56Z</time>
      </trkpt>
      <trkpt lat="42.86021" lon="1.21812">
        <ele>709</ele>
        <time>2024-02-04T12:06:58Z</time>
      </trkpt>
      <trkpt lat="42.86014" lon="1.21819">
        <ele>709</ele>
        <time>2024-02-04T12:07:00Z</time>
      </trkpt>
      <trkpt lat="42.86" lon="1.21826">
        <ele>709</ele>
        <time>2024-02-04T12:07:04Z</time>
      </trkpt>
      <trkpt lat="42.85978" lon="1.21837">
        <ele>709</ele>
        <time>2024-02-04T12:07:10Z</time>
      </trkpt>
      <trkpt lat="42.85963" lon="1.2185">
        <ele>709</ele>
        <time>2024-02-04T12:07:14Z</time>
      </trkpt>
      <trkpt lat="42.85956" lon="1.21857">
        <ele>709</ele>
        <time>2024-02-04T12:07:16Z</time>
      </trkpt>
      <trkpt lat="42.85953" lon="1.21862">
        <ele>709</ele>
        <time>2024-02-04T12:07:17Z</time>
      </trkpt>
      <trkpt lat="42.85943" lon="1.21877">
        <ele>709</ele>
        <time>2024-02-04T12:07:21Z</time>
      </trkpt>
      <trkpt lat="42.85926" lon="1.21891">
        <ele>709</ele>
        <time>2024-02-04T12:07:26Z</time>
      </trkpt>
      <trkpt lat="42.85907" lon="1.21905">
        <ele>709</ele>
        <time>2024-02-04T12:07:31Z</time>
      </trkpt>
      <trkpt lat="42.85894" lon="1.21918">
        <ele>709</ele>
        <time>2024-02-04T12:07:35Z</time>
      </trkpt>
      <trkpt lat="42.85887" lon="1.21923">
        <ele>709</ele>
        <time>2024-02-04T12:07:37Z</time>
      </trkpt>
      <trkpt lat="42.85869" lon="1.21941">
        <ele>709</ele>
        <time>2024-02-04T12:07:43Z</time>
      </trkpt>
      <trkpt lat="42.85852" lon="1.21959">
        <ele>709.4</ele>
        <time>2024-02-04T12:07:49Z</time>
      </trkpt>
      <trkpt lat="42.85849" lon="1.21962">
        <ele>709.8</ele>
        <time>2024-02-04T12:07:50Z</time>
      </trkpt>
      <trkpt lat="42.85847" lon="1.21966">
        <ele>710.4</ele>
        <time>2024-02-04T12:07:51Z</time>
      </trkpt>
      <trkpt lat="42.85844" lon="1.21969">
        <ele>710.8</ele>
        <time>2024-02-04T12:07:52Z</time>
      </trkpt>
      <trkpt lat="42.85841" lon="1.21972">
        <ele>711.2</ele>
        <time>2024-02-04T12:07:53Z</time>
      </trkpt>
      <trkpt lat="42.8583" lon="1.21983">
        <ele>711.2</ele>
        <time>2024-02-04T12:07:57Z</time>
      </trkpt>
      <trkpt lat="42.85818" lon="1.21991">
        <ele>711.6</ele>
        <time>2024-02-04T12:08:01Z</time>
      </trkpt>
      <trkpt lat="42.85815" lon="1.21991">
        <ele>712</ele>
        <time>2024-02-04T12:08:02Z</time>
      </trkpt>
      <trkpt lat="42.85811" lon="1.21992">
        <ele>712.6</ele>
        <time>2024-02-04T12:08:03Z</time>
      </trkpt>
      <trkpt lat="42.85808" lon="1.21993">
        <ele>713</ele>
        <time>2024-02-04T12:08:04Z</time>
      </trkpt>
      <trkpt lat="42.85804" lon="1.21992">
        <ele>713.4</ele>
        <time>2024-02-04T12:08:05Z</time>
      </trkpt>
      <trkpt lat="42.85789" lon="1.2199">
        <ele>713.8</ele>
        <time>2024-02-04T12:08:10Z</time>
      </trkpt>
      <trkpt lat="42.85786" lon="1.2199">
        <ele>714.2</ele>
        <time>2024-02-04T12:08:11Z</time>
      </trkpt>
      <trkpt lat="42.85783" lon="1.2199">
        <ele>714.6</ele>
        <time>2024-02-04T12:08:12Z</time>
      </trkpt>
      <trkpt lat="42.8578" lon="1.2199">
        <ele>715</ele>
        <time>2024-02-04T12:08:13Z</time>
      </trkpt>
      <trkpt lat="42.85777" lon="1.2199">
        <ele>715.4</ele>
        <time>2024-02-04T12:08:14Z</time>
      </trkpt>
      <trkpt lat="42.85768" lon="1.21991">
        <ele>715.4</ele>
        <time>2024-02-04T12:08:17Z</time>
      </trkpt>
      <trkpt lat="42.85758" lon="1.21993">
        <ele>716</ele>
        <time>2024-02-04T12:08:20Z</time>
      </trkpt>
      <trkpt lat="42.85755" lon="1.21994">
        <ele>716.4</ele>
        <time>2024-02-04T12:08:21Z</time>
      </trkpt>
      <trkpt lat="42.85752" lon="1.21996">
        <ele>716.8</ele>
        <time>2024-02-04T12:08:22Z</time>
      </trkpt>
      <trkpt lat="42.85748" lon="1.21997">
        <ele>717.2</ele>
        <time>2024-02-04T12:08:23Z</time>
      </trkpt>
      <trkpt lat="42.85745" lon="1.21998">
        <ele>717.6</ele>
        <time>2024-02-04T12:08:24Z</time>
      </trkpt>
      <trkpt lat="42.85741" lon="1.21999">
        <ele>717.6</ele>
        <time>2024-02-04T12:08:25Z</time>
      </trkpt>
      <trkpt lat="42.85732" lon="1.22003">
        <ele>718</ele>
        <time>2024-02-04T12:08:28Z</time>
      </trkpt>
      <trkpt lat="42.85728" lon="1.22004">
        <ele>718.4</ele>
        <time>2024-02-04T12:08:29Z</time>
      </trkpt>
      <trkpt lat="42.85726" lon="1.22005">
        <ele>718.8</ele>
        <time>2024-02-04T12:08:30Z</time>
      </trkpt>
      <trkpt lat="42.85723" lon="1.22006">
        <ele>719.4</ele>
        <time>2024-02-04T12:08:31Z</time>
      </trkpt>
      <trkpt lat="42.8572" lon="1.22007">
        <ele>719.8</ele>
        <time>2024-02-04T12:08:32Z</time>
      </trkpt>
      <trkpt lat="42.85714" lon="1.2201">
        <ele>720.2</ele>
        <time>2024-02-04T12:08:34Z</time>
      </trkpt>
      <trkpt lat="42.85711" lon="1.22011">
        <ele>720.6</ele>
        <time>2024-02-04T12:08:35Z</time>
      </trkpt>
      <trkpt lat="42.85708" lon="1.22013">
        <ele>721</ele>
        <time>2024-02-04T12:08:36Z</time>
      </trkpt>
      <trkpt lat="42.85705" lon="1.22014">
        <ele>721.4</ele>
        <time>2024-02-04T12:08:37Z</time>
      </trkpt>
      <trkpt lat="42.85702" lon="1.22015">
        <ele>721.8</ele>
        <time>2024-02-04T12:08:38Z</time>
      </trkpt>
      <trkpt lat="42.85699" lon="1.22016">
        <ele>721.8</ele>
        <time>2024-02-04T12:08:39Z</time>
      </trkpt>
      <trkpt lat="42.85693" lon="1.22017">
        <ele>722.4</ele>
        <time>2024-02-04T12:08:41Z</time>
      </trkpt>
      <trkpt lat="42.8569" lon="1.22015">
        <ele>722.8</ele>
        <time>2024-02-04T12:08:42Z</time>
      </trkpt>
      <trkpt lat="42.85689" lon="1.22012">
        <ele>723.2</ele>
        <time>2024-02-04T12:08:43Z</time>
      </trkpt>
      <trkpt lat="42.85688" lon="1.22008">
        <ele>723.6</ele>
        <time>2024-02-04T12:08:44Z</time>
      </trkpt>
      <trkpt lat="42.8569" lon="1.22005">
        <ele>724</ele>
        <time>2024-02-04T12:08:45Z</time>
      </trkpt>
      <trkpt lat="42.85692" lon="1.22003">
        <ele>724</ele>
        <time>2024-02-04T12:08:46Z</time>
      </trkpt>
      <trkpt lat="42.85696" lon="1.21997">
        <ele>724.4</ele>
        <time>2024-02-04T12:08:48Z</time>
      </trkpt>
      <trkpt lat="42.85699" lon="1.21994">
        <ele>724.8</ele>
        <time>2024-02-04T12:08:49Z</time>
      </trkpt>
      <trkpt lat="42.85701" lon="1.21991">
        <ele>725.2</ele>
        <time>2024-02-04T12:08:50Z</time>
      </trkpt>
      <trkpt lat="42.85703" lon="1.21988">
        <ele>725.6</ele>
        <time>2024-02-04T12:08:51Z</time>
      </trkpt>
      <trkpt lat="42.85704" lon="1.21984">
        <ele>726</ele>
        <time>2024-02-04T12:08:52Z</time>
      </trkpt>
      <trkpt lat="42.85706" lon="1.21981">
        <ele>726</ele>
        <time>2024-02-04T12:08:53Z</time>
      </trkpt>
      <trkpt lat="42.85707" lon="1.21978">
        <ele>726.6</ele>
        <time>2024-02-04T12:08:54Z</time>
      </trkpt>
      <trkpt lat="42.85707" lon="1.21974">
        <ele>727</ele>
        <time>2024-02-04T12:08:55Z</time>
      </trkpt>
      <trkpt lat="42.85707" lon="1.21971">
        <ele>727.8</ele>
        <time>2024-02-04T12:08:56Z</time>
      </trkpt>
      <trkpt lat="42.85708" lon="1.21967">
        <ele>728.2</ele>
        <time>2024-02-04T12:08:57Z</time>
      </trkpt>
      <trkpt lat="42.85707" lon="1.21963">
        <ele>728.2</ele>
        <time>2024-02-04T12:08:58Z</time>
      </trkpt>
      <trkpt lat="42.85705" lon="1.21957">
        <ele>728.8</ele>
        <time>2024-02-04T12:09:00Z</time>
      </trkpt>
      <trkpt lat="42.85704" lon="1.21953">
        <ele>729.2</ele>
        <time>2024-02-04T12:09:01Z</time>
      </trkpt>
      <trkpt lat="42.85702" lon="1.2195">
        <ele>729.6</ele>
        <time>2024-02-04T12:09:02Z</time>
      </trkpt>
      <trkpt lat="42.857" lon="1.21947">
        <ele>730</ele>
        <time>2024-02-04T12:09:03Z</time>
      </trkpt>
      <trkpt lat="42.85698" lon="1.21944">
        <ele>730.6</ele>
        <time>2024-02-04T12:09:04Z</time>
      </trkpt>
      <trkpt lat="42.8569" lon="1.21935">
        <ele>731</ele>
        <time>2024-02-04T12:09:08Z</time>
      </trkpt>
      <trkpt lat="42.85688" lon="1.21933">
        <ele>731.4</ele>
        <time>2024-02-04T12:09:09Z</time>
      </trkpt>
      <trkpt lat="42.85685" lon="1.21931">
        <ele>731.8</ele>
        <time>2024-02-04T12:09:10Z</time>
      </trkpt>
      <trkpt lat="42.85683" lon="1.21929">
        <ele>732.2</ele>
        <time>2024-02-04T12:09:11Z</time>
      </trkpt>
      <trkpt lat="42.8568" lon="1.21928">
        <ele>732.6</ele>
        <time>2024-02-04T12:09:12Z</time>
      </trkpt>
      <trkpt lat="42.85672" lon="1.21928">
        <ele>733</ele>
        <time>2024-02-04T12:09:15Z</time>
      </trkpt>
      <trkpt lat="42.85669" lon="1.21928">
        <ele>733.6</ele>
        <time>2024-02-04T12:09:16Z</time>
      </trkpt>
      <trkpt lat="42.85666" lon="1.2193">
        <ele>734</ele>
        <time>2024-02-04T12:09:17Z</time>
      </trkpt>
      <trkpt lat="42.85663" lon="1.2193">
        <ele>734.4</ele>
        <time>2024-02-04T12:09:18Z</time>
      </trkpt>
      <trkpt lat="42.85661" lon="1.21931">
        <ele>734.8</ele>
        <time>2024-02-04T12:09:19Z</time>
      </trkpt>
      <trkpt lat="42.85653" lon="1.21936">
        <ele>735.2</ele>
        <time>2024-02-04T12:09:22Z</time>
      </trkpt>
      <trkpt lat="42.85651" lon="1.21938">
        <ele>735.6</ele>
        <time>2024-02-04T12:09:23Z</time>
      </trkpt>
      <trkpt lat="42.85648" lon="1.21939">
        <ele>736</ele>
        <time>2024-02-04T12:09:24Z</time>
      </trkpt>
      <trkpt lat="42.85645" lon="1.21941">
        <ele>736.6</ele>
        <time>2024-02-04T12:09:25Z</time>
      </trkpt>
      <trkpt lat="42.85642" lon="1.21943">
        <ele>737</ele>
        <time>2024-02-04T12:09:26Z</time>
      </trkpt>
      <trkpt lat="42.85633" lon="1.21951">
        <ele>737.4</ele>
        <time>2024-02-04T12:09:30Z</time>
      </trkpt>
      <trkpt lat="42.85631" lon="1.21955">
        <ele>737.8</ele>
        <time>2024-02-04T12:09:31Z</time>
      </trkpt>
      <trkpt lat="42.85629" lon="1.21958">
        <ele>738.2</ele>
        <time>2024-02-04T12:09:32Z</time>
      </trkpt>
      <trkpt lat="42.85627" lon="1.21961">
        <ele>738.6</ele>
        <time>2024-02-04T12:09:33Z</time>
      </trkpt>
      <trkpt lat="42.85624" lon="1.21964">
        <ele>739</ele>
        <time>2024-02-04T12:09:34Z</time>
      </trkpt>
      <trkpt lat="42.8562" lon="1.2197">
        <ele>739</ele>
        <time>2024-02-04T12:09:36Z</time>
      </trkpt>
      <trkpt lat="42.85614" lon="1.21979">
        <ele>739.4</ele>
        <time>2024-02-04T12:09:39Z</time>
      </trkpt>
      <trkpt lat="42.85612" lon="1.21982">
        <ele>740</ele>
        <time>2024-02-04T12:09:40Z</time>
      </trkpt>
      <trkpt lat="42.8561" lon="1.21985">
        <ele>740.4</ele>
        <time>2024-02-04T12:09:41Z</time>
      </trkpt>
      <trkpt lat="42.85608" lon="1.21988">
        <ele>740.8</ele>
        <time>2024-02-04T12:09:42Z</time>
      </trkpt>
      <trkpt lat="42.85606" lon="1.21991">
        <ele>741.2</ele>
        <time>2024-02-04T12:09:43Z</time>
      </trkpt>
      <trkpt lat="42.85599" lon="1.21999">
        <ele>741.6</ele>
        <time>2024-02-04T12:09:46Z</time>
      </trkpt>
      <trkpt lat="42.85597" lon="1.22002">
        <ele>742</ele>
        <time>2024-02-04T12:09:47Z</time>
      </trkpt>
      <trkpt lat="42.85595" lon="1.22005">
        <ele>742.6</ele>
        <time>2024-02-04T12:09:48Z</time>
      </trkpt>
      <trkpt lat="42.85592" lon="1.22007">
        <ele>743</ele>
        <time>2024-02-04T12:09:49Z</time>
      </trkpt>
      <trkpt lat="42.8559" lon="1.22009">
        <ele>743.4</ele>
        <time>2024-02-04T12:09:50Z</time>
      </trkpt>
      <trkpt lat="42.85587" lon="1.22011">
        <ele>743.4</ele>
        <time>2024-02-04T12:09:51Z</time>
      </trkpt>
      <trkpt lat="42.85581" lon="1.22012">
        <ele>743.8</ele>
        <time>2024-02-04T12:09:53Z</time>
      </trkpt>
      <trkpt lat="42.85578" lon="1.22012">
        <ele>744.2</ele>
        <time>2024-02-04T12:09:54Z</time>
      </trkpt>
      <trkpt lat="42.85575" lon="1.22011">
        <ele>744.6</ele>
        <time>2024-02-04T12:09:55Z</time>
      </trkpt>
      <trkpt lat="42.85572" lon="1.22011">
        <ele>745</ele>
        <time>2024-02-04T12:09:56Z</time>
      </trkpt>
      <trkpt lat="42.8557" lon="1.22011">
        <ele>745.4</ele>
        <time>2024-02-04T12:09:57Z</time>
      </trkpt>
      <trkpt lat="42.85565" lon="1.2201">
        <ele>745.8</ele>
        <time>2024-02-04T12:09:59Z</time>
      </trkpt>
      <trkpt lat="42.85562" lon="1.22009">
        <ele>746.4</ele>
        <time>2024-02-04T12:10:00Z</time>
      </trkpt>
      <trkpt lat="42.8556" lon="1.22008">
        <ele>746.8</ele>
        <time>2024-02-04T12:10:01Z</time>
      </trkpt>
      <trkpt lat="42.85557" lon="1.22007">
        <ele>747.2</ele>
        <time>2024-02-04T12:10:02Z</time>
      </trkpt>
      <trkpt lat="42.85554" lon="1.22007">
        <ele>747.6</ele>
        <time>2024-02-04T12:10:03Z</time>
      </trkpt>
      <trkpt lat="42.85552" lon="1.22006">
        <ele>747.6</ele>
        <time>2024-02-04T12:10:04Z</time>
      </trkpt>
      <trkpt lat="42.85549" lon="1.22006">
        <ele>748</ele>
        <time>2024-02-04T12:10:05Z</time>
      </trkpt>
      <trkpt lat="42.85547" lon="1.22005">
        <ele>748.4</ele>
        <time>2024-02-04T12:10:06Z</time>
      </trkpt>
      <trkpt lat="42.85544" lon="1.22004">
        <ele>748.8</ele>
        <time>2024-02-04T12:10:07Z</time>
      </trkpt>
      <trkpt lat="42.85542" lon="1.22004">
        <ele>749.4</ele>
        <time>2024-02-04T12:10:08Z</time>
      </trkpt>
      <trkpt lat="42.85539" lon="1.22003">
        <ele>749.8</ele>
        <time>2024-02-04T12:10:09Z</time>
      </trkpt>
      <trkpt lat="42.85534" lon="1.22002">
        <ele>750.2</ele>
        <time>2024-02-04T12:10:11Z</time>
      </trkpt>
      <trkpt lat="42.85532" lon="1.22001">
        <ele>750.6</ele>
        <time>2024-02-04T12:10:12Z</time>
      </trkpt>
      <trkpt lat="42.8553" lon="1.22">
        <ele>751.2</ele>
        <time>2024-02-04T12:10:13Z</time>
      </trkpt>
      <trkpt lat="42.85527" lon="1.21999">
        <ele>751.6</ele>
        <time>2024-02-04T12:10:14Z</time>
      </trkpt>
      <trkpt lat="42.85525" lon="1.21997">
        <ele>752</ele>
        <time>2024-02-04T12:10:15Z</time>
      </trkpt>
      <trkpt lat="42.8552" lon="1.21995">
        <ele>752.6</ele>
        <time>2024-02-04T12:10:17Z</time>
      </trkpt>
      <trkpt lat="42.85517" lon="1.21993">
        <ele>753</ele>
        <time>2024-02-04T12:10:18Z</time>
      </trkpt>
      <trkpt lat="42.85515" lon="1.21992">
        <ele>753.4</ele>
        <time>2024-02-04T12:10:19Z</time>
      </trkpt>
      <trkpt lat="42.85513" lon="1.21991">
        <ele>754</ele>
        <time>2024-02-04T12:10:20Z</time>
      </trkpt>
      <trkpt lat="42.8551" lon="1.21989">
        <ele>754.4</ele>
        <time>2024-02-04T12:10:21Z</time>
      </trkpt>
      <trkpt lat="42.85508" lon="1.21988">
        <ele>754.8</ele>
        <time>2024-02-04T12:10:22Z</time>
      </trkpt>
      <trkpt lat="42.85506" lon="1.21988">
        <ele>755.2</ele>
        <time>2024-02-04T12:10:23Z</time>
      </trkpt>
      <trkpt lat="42.85504" lon="1.21988">
        <ele>755.6</ele>
        <time>2024-02-04T12:10:24Z</time>
      </trkpt>
      <trkpt lat="42.85502" lon="1.21988">
        <ele>756</ele>
        <time>2024-02-04T12:10:25Z</time>
      </trkpt>
      <trkpt lat="42.855" lon="1.21989">
        <ele>756.6</ele>
        <time>2024-02-04T12:10:26Z</time>
      </trkpt>
      <trkpt lat="42.85498" lon="1.2199">
        <ele>757</ele>
        <time>2024-02-04T12:10:28Z</time>
      </trkpt>
      <trkpt lat="42.85497" lon="1.2199">
        <ele>757.4</ele>
        <time>2024-02-04T12:10:29Z</time>
      </trkpt>
      <trkpt lat="42.85496" lon="1.2199">
        <ele>757.8</ele>
        <time>2024-02-04T12:10:30Z</time>
      </trkpt>
      <trkpt lat="42.85496" lon="1.21989">
        <ele>758.2</ele>
        <time>2024-02-04T12:10:31Z</time>
      </trkpt>
      <trkpt lat="42.85495" lon="1.21989">
        <ele>758.6</ele>
        <time>2024-02-04T12:10:32Z</time>
      </trkpt>
      <trkpt lat="42.85494" lon="1.21988">
        <ele>758.6</ele>
        <time>2024-02-04T12:10:33Z</time>
      </trkpt>
      <trkpt lat="42.85491" lon="1.21985">
        <ele>758.6</ele>
        <time>2024-02-04T12:10:45Z</time>
      </trkpt>
      <trkpt lat="42.85488" lon="1.21983">
        <ele>758.6</ele>
        <time>2024-02-04T12:10:47Z</time>
      </trkpt>
      <trkpt lat="42.85482" lon="1.21982">
        <ele>759</ele>
        <time>2024-02-04T12:10:52Z</time>
      </trkpt>
      <trkpt lat="42.85481" lon="1.21981">
        <ele>759.4</ele>
        <time>2024-02-04T12:10:53Z</time>
      </trkpt>
      <trkpt lat="42.8548" lon="1.21981">
        <ele>759.8</ele>
        <time>2024-02-04T12:10:54Z</time>
      </trkpt>
      <trkpt lat="42.85479" lon="1.2198">
        <ele>760.2</ele>
        <time>2024-02-04T12:10:55Z</time>
      </trkpt>
      <trkpt lat="42.85478" lon="1.2198">
        <ele>760.6</ele>
        <time>2024-02-04T12:10:56Z</time>
      </trkpt>
      <trkpt lat="42.85476" lon="1.21978">
        <ele>760.6</ele>
        <time>2024-02-04T12:10:58Z</time>
      </trkpt>
      <trkpt lat="42.85469" lon="1.21974">
        <ele>760.6</ele>
        <time>2024-02-04T12:11:03Z</time>
      </trkpt>
      <trkpt lat="42.85463" lon="1.21971">
        <ele>761</ele>
        <time>2024-02-04T12:11:07Z</time>
      </trkpt>
      <trkpt lat="42.85461" lon="1.21971">
        <ele>761.4</ele>
        <time>2024-02-04T12:11:08Z</time>
      </trkpt>
      <trkpt lat="42.8546" lon="1.2197">
        <ele>761.8</ele>
        <time>2024-02-04T12:11:09Z</time>
      </trkpt>
      <trkpt lat="42.85458" lon="1.21969">
        <ele>762.2</ele>
        <time>2024-02-04T12:11:10Z</time>
      </trkpt>
      <trkpt lat="42.85455" lon="1.21968">
        <ele>762.6</ele>
        <time>2024-02-04T12:11:11Z</time>
      </trkpt>
      <trkpt lat="42.85445" lon="1.21964">
        <ele>762.6</ele>
        <time>2024-02-04T12:11:16Z</time>
      </trkpt>
      <trkpt lat="42.85439" lon="1.21963">
        <ele>763</ele>
        <time>2024-02-04T12:11:19Z</time>
      </trkpt>
      <trkpt lat="42.85437" lon="1.21963">
        <ele>763.4</ele>
        <time>2024-02-04T12:11:20Z</time>
      </trkpt>
      <trkpt lat="42.85435" lon="1.21962">
        <ele>763.8</ele>
        <time>2024-02-04T12:11:21Z</time>
      </trkpt>
      <trkpt lat="42.85433" lon="1.21962">
        <ele>764.2</ele>
        <time>2024-02-04T12:11:22Z</time>
      </trkpt>
      <trkpt lat="42.85432" lon="1.21962">
        <ele>764.6</ele>
        <time>2024-02-04T12:11:23Z</time>
      </trkpt>
      <trkpt lat="42.8543" lon="1.21962">
        <ele>764.6</ele>
        <time>2024-02-04T12:11:24Z</time>
      </trkpt>
      <trkpt lat="42.85423" lon="1.21958">
        <ele>765.2</ele>
        <time>2024-02-04T12:11:27Z</time>
      </trkpt>
      <trkpt lat="42.85421" lon="1.21958">
        <ele>765.6</ele>
        <time>2024-02-04T12:11:28Z</time>
      </trkpt>
      <trkpt lat="42.85418" lon="1.21957">
        <ele>766</ele>
        <time>2024-02-04T12:11:29Z</time>
      </trkpt>
      <trkpt lat="42.85416" lon="1.21956">
        <ele>766.4</ele>
        <time>2024-02-04T12:11:30Z</time>
      </trkpt>
      <trkpt lat="42.85413" lon="1.21956">
        <ele>766.8</ele>
        <time>2024-02-04T12:11:31Z</time>
      </trkpt>
      <trkpt lat="42.85409" lon="1.21953">
        <ele>766.8</ele>
        <time>2024-02-04T12:11:33Z</time>
      </trkpt>
      <trkpt lat="42.85404" lon="1.21951">
        <ele>767.4</ele>
        <time>2024-02-04T12:11:35Z</time>
      </trkpt>
      <trkpt lat="42.85402" lon="1.2195">
        <ele>767.8</ele>
        <time>2024-02-04T12:11:36Z</time>
      </trkpt>
      <trkpt lat="42.854" lon="1.21949">
        <ele>768.2</ele>
        <time>2024-02-04T12:11:37Z</time>
      </trkpt>
      <trkpt lat="42.85398" lon="1.21948">
        <ele>768.6</ele>
        <time>2024-02-04T12:11:38Z</time>
      </trkpt>
      <trkpt lat="42.85396" lon="1.21947">
        <ele>769.2</ele>
        <time>2024-02-04T12:11:39Z</time>
      </trkpt>
      <trkpt lat="42.85395" lon="1.21946">
        <ele>769.2</ele>
        <time>2024-02-04T12:11:40Z</time>
      </trkpt>
      <trkpt lat="42.85393" lon="1.21944">
        <ele>769.6</ele>
        <time>2024-02-04T12:11:41Z</time>
      </trkpt>
      <trkpt lat="42.85391" lon="1.21943">
        <ele>770</ele>
        <time>2024-02-04T12:11:42Z</time>
      </trkpt>
      <trkpt lat="42.85389" lon="1.21941">
        <ele>770.4</ele>
        <time>2024-02-04T12:11:43Z</time>
      </trkpt>
      <trkpt lat="42.85388" lon="1.21938">
        <ele>770.8</ele>
        <time>2024-02-04T12:11:44Z</time>
      </trkpt>
      <trkpt lat="42.85388" lon="1.21936">
        <ele>771.2</ele>
        <time>2024-02-04T12:11:45Z</time>
      </trkpt>
      <trkpt lat="42.85387" lon="1.21934">
        <ele>771.6</ele>
        <time>2024-02-04T12:11:46Z</time>
      </trkpt>
      <trkpt lat="42.85386" lon="1.21931">
        <ele>772</ele>
        <time>2024-02-04T12:11:47Z</time>
      </trkpt>
      <trkpt lat="42.85385" lon="1.21929">
        <ele>772.4</ele>
        <time>2024-02-04T12:11:48Z</time>
      </trkpt>
      <trkpt lat="42.85384" lon="1.21927">
        <ele>772.8</ele>
        <time>2024-02-04T12:11:49Z</time>
      </trkpt>
      <trkpt lat="42.85383" lon="1.21926">
        <ele>773.6</ele>
        <time>2024-02-04T12:11:50Z</time>
      </trkpt>
      <trkpt lat="42.85383" lon="1.21924">
        <ele>774.2</ele>
        <time>2024-02-04T12:11:51Z</time>
      </trkpt>
      <trkpt lat="42.85382" lon="1.21921">
        <ele>774.6</ele>
        <time>2024-02-04T12:11:52Z</time>
      </trkpt>
      <trkpt lat="42.85381" lon="1.21919">
        <ele>775</ele>
        <time>2024-02-04T12:11:53Z</time>
      </trkpt>
      <trkpt lat="42.8538" lon="1.21917">
        <ele>775.4</ele>
        <time>2024-02-04T12:11:54Z</time>
      </trkpt>
      <trkpt lat="42.85378" lon="1.21915">
        <ele>776</ele>
        <time>2024-02-04T12:11:55Z</time>
      </trkpt>
      <trkpt lat="42.85377" lon="1.21913">
        <ele>776.4</ele>
        <time>2024-02-04T12:11:56Z</time>
      </trkpt>
      <trkpt lat="42.85376" lon="1.21911">
        <ele>776.8</ele>
        <time>2024-02-04T12:11:57Z</time>
      </trkpt>
      <trkpt lat="42.85375" lon="1.2191">
        <ele>777.2</ele>
        <time>2024-02-04T12:11:58Z</time>
      </trkpt>
      <trkpt lat="42.85374" lon="1.21908">
        <ele>777.8</ele>
        <time>2024-02-04T12:11:59Z</time>
      </trkpt>
      <trkpt lat="42.85373" lon="1.21906">
        <ele>778.2</ele>
        <time>2024-02-04T12:12:00Z</time>
      </trkpt>
      <trkpt lat="42.85372" lon="1.21904">
        <ele>778.6</ele>
        <time>2024-02-04T12:12:01Z</time>
      </trkpt>
      <trkpt lat="42.85372" lon="1.21903">
        <ele>779</ele>
        <time>2024-02-04T12:12:02Z</time>
      </trkpt>
      <trkpt lat="42.85371" lon="1.21901">
        <ele>779.4</ele>
        <time>2024-02-04T12:12:03Z</time>
      </trkpt>
      <trkpt lat="42.8537" lon="1.21899">
        <ele>780</ele>
        <time>2024-02-04T12:12:04Z</time>
      </trkpt>
      <trkpt lat="42.85369" lon="1.21897">
        <ele>780.6</ele>
        <time>2024-02-04T12:12:05Z</time>
      </trkpt>
      <trkpt lat="42.85368" lon="1.21896">
        <ele>781.2</ele>
        <time>2024-02-04T12:12:06Z</time>
      </trkpt>
      <trkpt lat="42.85368" lon="1.21894">
        <ele>781.8</ele>
        <time>2024-02-04T12:12:07Z</time>
      </trkpt>
      <trkpt lat="42.85367" lon="1.21892">
        <ele>782.2</ele>
        <time>2024-02-04T12:12:08Z</time>
      </trkpt>
      <trkpt lat="42.85366" lon="1.21891">
        <ele>782.8</ele>
        <time>2024-02-04T12:12:09Z</time>
      </trkpt>
      <trkpt lat="42.85366" lon="1.21889">
        <ele>783.2</ele>
        <time>2024-02-04T12:12:10Z</time>
      </trkpt>
      <trkpt lat="42.85365" lon="1.21887">
        <ele>783.8</ele>
        <time>2024-02-04T12:12:11Z</time>
      </trkpt>
      <trkpt lat="42.85365" lon="1.21886">
        <ele>784.4</ele>
        <time>2024-02-04T12:12:12Z</time>
      </trkpt>
      <trkpt lat="42.85363" lon="1.21882">
        <ele>785.2</ele>
        <time>2024-02-04T12:12:14Z</time>
      </trkpt>
      <trkpt lat="42.85362" lon="1.2188">
        <ele>785.6</ele>
        <time>2024-02-04T12:12:15Z</time>
      </trkpt>
      <trkpt lat="42.85361" lon="1.21878">
        <ele>786.2</ele>
        <time>2024-02-04T12:12:16Z</time>
      </trkpt>
      <trkpt lat="42.8536" lon="1.21876">
        <ele>786.6</ele>
        <time>2024-02-04T12:12:17Z</time>
      </trkpt>
      <trkpt lat="42.85359" lon="1.21872">
        <ele>786.6</ele>
        <time>2024-02-04T12:12:19Z</time>
      </trkpt>
      <trkpt lat="42.85357" lon="1.21869">
        <ele>787.2</ele>
        <time>2024-02-04T12:12:21Z</time>
      </trkpt>
      <trkpt lat="42.85356" lon="1.21867">
        <ele>787.8</ele>
        <time>2024-02-04T12:12:22Z</time>
      </trkpt>
      <trkpt lat="42.85356" lon="1.21866">
        <ele>788.6</ele>
        <time>2024-02-04T12:12:23Z</time>
      </trkpt>
      <trkpt lat="42.85355" lon="1.21864">
        <ele>789.2</ele>
        <time>2024-02-04T12:12:24Z</time>
      </trkpt>
      <trkpt lat="42.85355" lon="1.21861">
        <ele>789.8</ele>
        <time>2024-02-04T12:12:25Z</time>
      </trkpt>
      <trkpt lat="42.85352" lon="1.21855">
        <ele>790.2</ele>
        <time>2024-02-04T12:12:28Z</time>
      </trkpt>
      <trkpt lat="42.85352" lon="1.21854">
        <ele>790.8</ele>
        <time>2024-02-04T12:12:29Z</time>
      </trkpt>
      <trkpt lat="42.85351" lon="1.21852">
        <ele>791.2</ele>
        <time>2024-02-04T12:12:30Z</time>
      </trkpt>
      <trkpt lat="42.85351" lon="1.21849">
        <ele>791.6</ele>
        <time>2024-02-04T12:12:31Z</time>
      </trkpt>
      <trkpt lat="42.8535" lon="1.21848">
        <ele>792</ele>
        <time>2024-02-04T12:12:32Z</time>
      </trkpt>
      <trkpt lat="42.85349" lon="1.21845">
        <ele>792.4</ele>
        <time>2024-02-04T12:12:34Z</time>
      </trkpt>
      <trkpt lat="42.85348" lon="1.21844">
        <ele>792.8</ele>
        <time>2024-02-04T12:12:35Z</time>
      </trkpt>
      <trkpt lat="42.85346" lon="1.21842">
        <ele>793.4</ele>
        <time>2024-02-04T12:12:36Z</time>
      </trkpt>
      <trkpt lat="42.85345" lon="1.2184">
        <ele>793.8</ele>
        <time>2024-02-04T12:12:37Z</time>
      </trkpt>
      <trkpt lat="42.85344" lon="1.21839">
        <ele>794.2</ele>
        <time>2024-02-04T12:12:38Z</time>
      </trkpt>
      <trkpt lat="42.85343" lon="1.21838">
        <ele>795.2</ele>
        <time>2024-02-04T12:12:39Z</time>
      </trkpt>
      <trkpt lat="42.85342" lon="1.21836">
        <ele>795.6</ele>
        <time>2024-02-04T12:12:40Z</time>
      </trkpt>
      <trkpt lat="42.8534" lon="1.21835">
        <ele>796</ele>
        <time>2024-02-04T12:12:41Z</time>
      </trkpt>
      <trkpt lat="42.85338" lon="1.21833">
        <ele>796.4</ele>
        <time>2024-02-04T12:12:42Z</time>
      </trkpt>
      <trkpt lat="42.85332" lon="1.21828">
        <ele>797</ele>
        <time>2024-02-04T12:12:46Z</time>
      </trkpt>
      <trkpt lat="42.8533" lon="1.21827">
        <ele>797.4</ele>
        <time>2024-02-04T12:12:47Z</time>
      </trkpt>
      <trkpt lat="42.85329" lon="1.21825">
        <ele>797.8</ele>
        <time>2024-02-04T12:12:48Z</time>
      </trkpt>
      <trkpt lat="42.85327" lon="1.21823">
        <ele>798.2</ele>
        <time>2024-02-04T12:12:49Z</time>
      </trkpt>
      <trkpt lat="42.85325" lon="1.21821">
        <ele>798.8</ele>
        <time>2024-02-04T12:12:50Z</time>
      </trkpt>
      <trkpt lat="42.85319" lon="1.21814">
        <ele>798.8</ele>
        <time>2024-02-04T12:12:54Z</time>
      </trkpt>
      <trkpt lat="42.85317" lon="1.21812">
        <ele>799.2</ele>
        <time>2024-02-04T12:12:55Z</time>
      </trkpt>
      <trkpt lat="42.85315" lon="1.21811">
        <ele>799.6</ele>
        <time>2024-02-04T12:12:56Z</time>
      </trkpt>
      <trkpt lat="42.85313" lon="1.2181">
        <ele>800</ele>
        <time>2024-02-04T12:12:57Z</time>
      </trkpt>
      <trkpt lat="42.85312" lon="1.21809">
        <ele>800.4</ele>
        <time>2024-02-04T12:12:58Z</time>
      </trkpt>
      <trkpt lat="42.85311" lon="1.21808">
        <ele>800.8</ele>
        <time>2024-02-04T12:12:59Z</time>
      </trkpt>
      <trkpt lat="42.85309" lon="1.21806">
        <ele>800.8</ele>
        <time>2024-02-04T12:13:00Z</time>
      </trkpt>
      <trkpt lat="42.85303" lon="1.21801">
        <ele>801.8</ele>
        <time>2024-02-04T12:13:04Z</time>
      </trkpt>
      <trkpt lat="42.85301" lon="1.218">
        <ele>802.2</ele>
        <time>2024-02-04T12:13:05Z</time>
      </trkpt>
      <trkpt lat="42.85299" lon="1.21799">
        <ele>802.6</ele>
        <time>2024-02-04T12:13:06Z</time>
      </trkpt>
      <trkpt lat="42.85297" lon="1.21798">
        <ele>803</ele>
        <time>2024-02-04T12:13:07Z</time>
      </trkpt>
      <trkpt lat="42.8529" lon="1.21794">
        <ele>803</ele>
        <time>2024-02-04T12:13:10Z</time>
      </trkpt>
      <trkpt lat="42.85287" lon="1.21791">
        <ele>803.4</ele>
        <time>2024-02-04T12:13:12Z</time>
      </trkpt>
      <trkpt lat="42.85285" lon="1.2179">
        <ele>803.8</ele>
        <time>2024-02-04T12:13:13Z</time>
      </trkpt>
      <trkpt lat="42.85283" lon="1.21789">
        <ele>804.2</ele>
        <time>2024-02-04T12:13:14Z</time>
      </trkpt>
      <trkpt lat="42.85281" lon="1.21787">
        <ele>804.6</ele>
        <time>2024-02-04T12:13:15Z</time>
      </trkpt>
      <trkpt lat="42.8528" lon="1.21785">
        <ele>805.2</ele>
        <time>2024-02-04T12:13:16Z</time>
      </trkpt>
      <trkpt lat="42.85279" lon="1.21783">
        <ele>805.2</ele>
        <time>2024-02-04T12:13:17Z</time>
      </trkpt>
      <trkpt lat="42.85273" lon="1.21778">
        <ele>805.2</ele>
        <time>2024-02-04T12:13:20Z</time>
      </trkpt>
      <trkpt lat="42.85269" lon="1.21774">
        <ele>805.6</ele>
        <time>2024-02-04T12:13:22Z</time>
      </trkpt>
      <trkpt lat="42.85267" lon="1.21773">
        <ele>806</ele>
        <time>2024-02-04T12:13:23Z</time>
      </trkpt>
      <trkpt lat="42.85265" lon="1.21772">
        <ele>806.4</ele>
        <time>2024-02-04T12:13:24Z</time>
      </trkpt>
      <trkpt lat="42.85263" lon="1.2177">
        <ele>806.8</ele>
        <time>2024-02-04T12:13:25Z</time>
      </trkpt>
      <trkpt lat="42.85261" lon="1.21769">
        <ele>807.2</ele>
        <time>2024-02-04T12:13:26Z</time>
      </trkpt>
      <trkpt lat="42.85249" lon="1.2176">
        <ele>807.6</ele>
        <time>2024-02-04T12:13:32Z</time>
      </trkpt>
      <trkpt lat="42.85247" lon="1.21759">
        <ele>808.2</ele>
        <time>2024-02-04T12:13:33Z</time>
      </trkpt>
      <trkpt lat="42.85245" lon="1.21758">
        <ele>808.6</ele>
        <time>2024-02-04T12:13:34Z</time>
      </trkpt>
      <trkpt lat="42.85243" lon="1.21756">
        <ele>809</ele>
        <time>2024-02-04T12:13:35Z</time>
      </trkpt>
      <trkpt lat="42.85241" lon="1.21754">
        <ele>809.6</ele>
        <time>2024-02-04T12:13:36Z</time>
      </trkpt>
      <trkpt lat="42.85237" lon="1.21753">
        <ele>809.6</ele>
        <time>2024-02-04T12:13:38Z</time>
      </trkpt>
      <trkpt lat="42.85228" lon="1.21746">
        <ele>809.6</ele>
        <time>2024-02-04T12:13:44Z</time>
      </trkpt>
      <trkpt lat="42.85226" lon="1.21744">
        <ele>810</ele>
        <time>2024-02-04T12:13:45Z</time>
      </trkpt>
      <trkpt lat="42.85224" lon="1.21742">
        <ele>810.4</ele>
        <time>2024-02-04T12:13:46Z</time>
      </trkpt>
      <trkpt lat="42.85222" lon="1.2174">
        <ele>810.8</ele>
        <time>2024-02-04T12:13:47Z</time>
      </trkpt>
      <trkpt lat="42.85221" lon="1.21738">
        <ele>811.2</ele>
        <time>2024-02-04T12:13:48Z</time>
      </trkpt>
      <trkpt lat="42.85219" lon="1.21736">
        <ele>811.6</ele>
        <time>2024-02-04T12:13:49Z</time>
      </trkpt>
      <trkpt lat="42.85213" lon="1.21724">
        <ele>812</ele>
        <time>2024-02-04T12:13:54Z</time>
      </trkpt>
      <trkpt lat="42.85212" lon="1.21721">
        <ele>812.4</ele>
        <time>2024-02-04T12:13:55Z</time>
      </trkpt>
      <trkpt lat="42.85211" lon="1.2172">
        <ele>812.8</ele>
        <time>2024-02-04T12:13:56Z</time>
      </trkpt>
      <trkpt lat="42.85211" lon="1.21718">
        <ele>813.2</ele>
        <time>2024-02-04T12:13:57Z</time>
      </trkpt>
      <trkpt lat="42.8521" lon="1.21716">
        <ele>813.6</ele>
        <time>2024-02-04T12:13:58Z</time>
      </trkpt>
      <trkpt lat="42.85209" lon="1.21715">
        <ele>813.6</ele>
        <time>2024-02-04T12:13:59Z</time>
      </trkpt>
      <trkpt lat="42.85207" lon="1.21712">
        <ele>813.6</ele>
        <time>2024-02-04T12:14:01Z</time>
      </trkpt>
      <trkpt lat="42.85206" lon="1.2171">
        <ele>814</ele>
        <time>2024-02-04T12:14:02Z</time>
      </trkpt>
      <trkpt lat="42.85205" lon="1.21708">
        <ele>814.4</ele>
        <time>2024-02-04T12:14:03Z</time>
      </trkpt>
      <trkpt lat="42.85204" lon="1.21705">
        <ele>815</ele>
        <time>2024-02-04T12:14:04Z</time>
      </trkpt>
      <trkpt lat="42.85203" lon="1.21703">
        <ele>815.4</ele>
        <time>2024-02-04T12:14:05Z</time>
      </trkpt>
      <trkpt lat="42.85202" lon="1.217">
        <ele>815.8</ele>
        <time>2024-02-04T12:14:06Z</time>
      </trkpt>
      <trkpt lat="42.85198" lon="1.21692">
        <ele>816.2</ele>
        <time>2024-02-04T12:14:09Z</time>
      </trkpt>
      <trkpt lat="42.85197" lon="1.2169">
        <ele>816.6</ele>
        <time>2024-02-04T12:14:10Z</time>
      </trkpt>
      <trkpt lat="42.85196" lon="1.21688">
        <ele>817.2</ele>
        <time>2024-02-04T12:14:11Z</time>
      </trkpt>
      <trkpt lat="42.85195" lon="1.21686">
        <ele>817.6</ele>
        <time>2024-02-04T12:14:12Z</time>
      </trkpt>
      <trkpt lat="42.85194" lon="1.21683">
        <ele>818</ele>
        <time>2024-02-04T12:14:13Z</time>
      </trkpt>
      <trkpt lat="42.85192" lon="1.21678">
        <ele>818.4</ele>
        <time>2024-02-04T12:14:15Z</time>
      </trkpt>
      <trkpt lat="42.85191" lon="1.21676">
        <ele>818.8</ele>
        <time>2024-02-04T12:14:16Z</time>
      </trkpt>
      <trkpt lat="42.8519" lon="1.21673">
        <ele>819.2</ele>
        <time>2024-02-04T12:14:17Z</time>
      </trkpt>
      <trkpt lat="42.85189" lon="1.21671">
        <ele>820</ele>
        <time>2024-02-04T12:14:18Z</time>
      </trkpt>
      <trkpt lat="42.85187" lon="1.21665">
        <ele>820.6</ele>
        <time>2024-02-04T12:14:21Z</time>
      </trkpt>
      <trkpt lat="42.85186" lon="1.21664">
        <ele>821</ele>
        <time>2024-02-04T12:14:22Z</time>
      </trkpt>
      <trkpt lat="42.85185" lon="1.21662">
        <ele>821.4</ele>
        <time>2024-02-04T12:14:23Z</time>
      </trkpt>
      <trkpt lat="42.85184" lon="1.2166">
        <ele>822</ele>
        <time>2024-02-04T12:14:24Z</time>
      </trkpt>
      <trkpt lat="42.85183" lon="1.21658">
        <ele>822.4</ele>
        <time>2024-02-04T12:14:25Z</time>
      </trkpt>
      <trkpt lat="42.85183" lon="1.21655">
        <ele>822.8</ele>
        <time>2024-02-04T12:14:27Z</time>
      </trkpt>
      <trkpt lat="42.85183" lon="1.21652">
        <ele>823.2</ele>
        <time>2024-02-04T12:14:28Z</time>
      </trkpt>
      <trkpt lat="42.85183" lon="1.2165">
        <ele>823.6</ele>
        <time>2024-02-04T12:14:29Z</time>
      </trkpt>
      <trkpt lat="42.85183" lon="1.21647">
        <ele>824</ele>
        <time>2024-02-04T12:14:30Z</time>
      </trkpt>
      <trkpt lat="42.85183" lon="1.21645">
        <ele>824.4</ele>
        <time>2024-02-04T12:14:31Z</time>
      </trkpt>
      <trkpt lat="42.85182" lon="1.2164">
        <ele>825</ele>
        <time>2024-02-04T12:14:33Z</time>
      </trkpt>
      <trkpt lat="42.85181" lon="1.21636">
        <ele>825.4</ele>
        <time>2024-02-04T12:14:34Z</time>
      </trkpt>
      <trkpt lat="42.8518" lon="1.21633">
        <ele>825.8</ele>
        <time>2024-02-04T12:14:35Z</time>
      </trkpt>
      <trkpt lat="42.8518" lon="1.2163">
        <ele>826.4</ele>
        <time>2024-02-04T12:14:36Z</time>
      </trkpt>
      <trkpt lat="42.8518" lon="1.21628">
        <ele>826.8</ele>
        <time>2024-02-04T12:14:37Z</time>
      </trkpt>
      <trkpt lat="42.8518" lon="1.21624">
        <ele>827.2</ele>
        <time>2024-02-04T12:14:39Z</time>
      </trkpt>
      <trkpt lat="42.85179" lon="1.21621">
        <ele>827.6</ele>
        <time>2024-02-04T12:14:40Z</time>
      </trkpt>
      <trkpt lat="42.85178" lon="1.21617">
        <ele>828</ele>
        <time>2024-02-04T12:14:41Z</time>
      </trkpt>
      <trkpt lat="42.85177" lon="1.21614">
        <ele>828.4</ele>
        <time>2024-02-04T12:14:42Z</time>
      </trkpt>
      <trkpt lat="42.85177" lon="1.21612">
        <ele>829</ele>
        <time>2024-02-04T12:14:43Z</time>
      </trkpt>
      <trkpt lat="42.85176" lon="1.21609">
        <ele>829.4</ele>
        <time>2024-02-04T12:14:44Z</time>
      </trkpt>
      <trkpt lat="42.85175" lon="1.21607">
        <ele>829.8</ele>
        <time>2024-02-04T12:14:45Z</time>
      </trkpt>
      <trkpt lat="42.85174" lon="1.21604">
        <ele>830.2</ele>
        <time>2024-02-04T12:14:46Z</time>
      </trkpt>
      <trkpt lat="42.85173" lon="1.21601">
        <ele>830.6</ele>
        <time>2024-02-04T12:14:47Z</time>
      </trkpt>
      <trkpt lat="42.85173" lon="1.216">
        <ele>831.2</ele>
        <time>2024-02-04T12:14:48Z</time>
      </trkpt>
      <trkpt lat="42.85172" lon="1.21598">
        <ele>831.6</ele>
        <time>2024-02-04T12:14:49Z</time>
      </trkpt>
      <trkpt lat="42.85171" lon="1.21595">
        <ele>832</ele>
        <time>2024-02-04T12:14:50Z</time>
      </trkpt>
      <trkpt lat="42.85171" lon="1.21593">
        <ele>832.4</ele>
        <time>2024-02-04T12:14:51Z</time>
      </trkpt>
      <trkpt lat="42.8517" lon="1.21591">
        <ele>832.8</ele>
        <time>2024-02-04T12:14:52Z</time>
      </trkpt>
      <trkpt lat="42.85168" lon="1.21588">
        <ele>833.2</ele>
        <time>2024-02-04T12:14:53Z</time>
      </trkpt>
      <trkpt lat="42.85167" lon="1.21587">
        <ele>833.6</ele>
        <time>2024-02-04T12:14:54Z</time>
      </trkpt>
      <trkpt lat="42.85165" lon="1.21585">
        <ele>834.2</ele>
        <time>2024-02-04T12:14:55Z</time>
      </trkpt>
      <trkpt lat="42.85164" lon="1.21582">
        <ele>834.6</ele>
        <time>2024-02-04T12:14:56Z</time>
      </trkpt>
      <trkpt lat="42.85162" lon="1.2158">
        <ele>835</ele>
        <time>2024-02-04T12:14:57Z</time>
      </trkpt>
      <trkpt lat="42.85162" lon="1.21579">
        <ele>835.4</ele>
        <time>2024-02-04T12:14:58Z</time>
      </trkpt>
      <trkpt lat="42.8516" lon="1.21571">
        <ele>837.6</ele>
        <time>2024-02-04T12:15:03Z</time>
      </trkpt>
      <trkpt lat="42.85159" lon="1.21569">
        <ele>838</ele>
        <time>2024-02-04T12:15:04Z</time>
      </trkpt>
      <trkpt lat="42.85159" lon="1.21567">
        <ele>838.4</ele>
        <time>2024-02-04T12:15:05Z</time>
      </trkpt>
      <trkpt lat="42.85158" lon="1.21565">
        <ele>838.8</ele>
        <time>2024-02-04T12:15:06Z</time>
      </trkpt>
      <trkpt lat="42.85157" lon="1.21563">
        <ele>839.2</ele>
        <time>2024-02-04T12:15:07Z</time>
      </trkpt>
      <trkpt lat="42.85156" lon="1.21561">
        <ele>840.2</ele>
        <time>2024-02-04T12:15:08Z</time>
      </trkpt>
      <trkpt lat="42.85156" lon="1.2156">
        <ele>840.6</ele>
        <time>2024-02-04T12:15:09Z</time>
      </trkpt>
      <trkpt lat="42.85155" lon="1.21558">
        <ele>841.2</ele>
        <time>2024-02-04T12:15:10Z</time>
      </trkpt>
      <trkpt lat="42.85155" lon="1.21556">
        <ele>841.6</ele>
        <time>2024-02-04T12:15:11Z</time>
      </trkpt>
      <trkpt lat="42.85154" lon="1.21554">
        <ele>842.2</ele>
        <time>2024-02-04T12:15:12Z</time>
      </trkpt>
      <trkpt lat="42.85154" lon="1.21552">
        <ele>842.8</ele>
        <time>2024-02-04T12:15:13Z</time>
      </trkpt>
      <trkpt lat="42.85153" lon="1.21549">
        <ele>843.4</ele>
        <time>2024-02-04T12:15:14Z</time>
      </trkpt>
      <trkpt lat="42.85152" lon="1.21548">
        <ele>844</ele>
        <time>2024-02-04T12:15:15Z</time>
      </trkpt>
      <trkpt lat="42.85151" lon="1.21546">
        <ele>844.6</ele>
        <time>2024-02-04T12:15:16Z</time>
      </trkpt>
      <trkpt lat="42.85149" lon="1.21544">
        <ele>845</ele>
        <time>2024-02-04T12:15:17Z</time>
      </trkpt>
      <trkpt lat="42.85149" lon="1.21543">
        <ele>845.6</ele>
        <time>2024-02-04T12:15:18Z</time>
      </trkpt>
      <trkpt lat="42.85147" lon="1.21541">
        <ele>846</ele>
        <time>2024-02-04T12:15:19Z</time>
      </trkpt>
      <trkpt lat="42.85146" lon="1.2154">
        <ele>846.4</ele>
        <time>2024-02-04T12:15:20Z</time>
      </trkpt>
      <trkpt lat="42.85146" lon="1.21537">
        <ele>846.8</ele>
        <time>2024-02-04T12:15:21Z</time>
      </trkpt>
      <trkpt lat="42.85143" lon="1.21532">
        <ele>847.2</ele>
        <time>2024-02-04T12:15:24Z</time>
      </trkpt>
      <trkpt lat="42.85142" lon="1.2153">
        <ele>847.6</ele>
        <time>2024-02-04T12:15:25Z</time>
      </trkpt>
      <trkpt lat="42.85142" lon="1.21529">
        <ele>848</ele>
        <time>2024-02-04T12:15:26Z</time>
      </trkpt>
      <trkpt lat="42.85141" lon="1.21528">
        <ele>848.4</ele>
        <time>2024-02-04T12:15:27Z</time>
      </trkpt>
      <trkpt lat="42.85138" lon="1.21516">
        <ele>851</ele>
        <time>2024-02-04T12:15:40Z</time>
      </trkpt>
      <trkpt lat="42.85136" lon="1.21513">
        <ele>851.4</ele>
        <time>2024-02-04T12:15:43Z</time>
      </trkpt>
      <trkpt lat="42.85135" lon="1.21512">
        <ele>851.8</ele>
        <time>2024-02-04T12:15:44Z</time>
      </trkpt>
      <trkpt lat="42.85133" lon="1.21509">
        <ele>852.2</ele>
        <time>2024-02-04T12:15:45Z</time>
      </trkpt>
      <trkpt lat="42.85131" lon="1.21506">
        <ele>852.6</ele>
        <time>2024-02-04T12:15:46Z</time>
      </trkpt>
      <trkpt lat="42.8513" lon="1.21504">
        <ele>853.2</ele>
        <time>2024-02-04T12:15:47Z</time>
      </trkpt>
      <trkpt lat="42.85128" lon="1.21502">
        <ele>853.2</ele>
        <time>2024-02-04T12:15:48Z</time>
      </trkpt>
      <trkpt lat="42.85126" lon="1.21498">
        <ele>853.6</ele>
        <time>2024-02-04T12:15:50Z</time>
      </trkpt>
      <trkpt lat="42.85125" lon="1.21497">
        <ele>854</ele>
        <time>2024-02-04T12:15:51Z</time>
      </trkpt>
      <trkpt lat="42.85124" lon="1.21495">
        <ele>854.6</ele>
        <time>2024-02-04T12:15:52Z</time>
      </trkpt>
      <trkpt lat="42.85123" lon="1.21492">
        <ele>855</ele>
        <time>2024-02-04T12:15:53Z</time>
      </trkpt>
      <trkpt lat="42.85121" lon="1.2149">
        <ele>855.4</ele>
        <time>2024-02-04T12:15:54Z</time>
      </trkpt>
      <trkpt lat="42.85118" lon="1.21484">
        <ele>856</ele>
        <time>2024-02-04T12:15:56Z</time>
      </trkpt>
      <trkpt lat="42.85117" lon="1.21482">
        <ele>857</ele>
        <time>2024-02-04T12:15:57Z</time>
      </trkpt>
      <trkpt lat="42.85116" lon="1.2148">
        <ele>857.4</ele>
        <time>2024-02-04T12:15:58Z</time>
      </trkpt>
      <trkpt lat="42.85115" lon="1.21478">
        <ele>857.8</ele>
        <time>2024-02-04T12:15:59Z</time>
      </trkpt>
      <trkpt lat="42.85113" lon="1.21473">
        <ele>858.2</ele>
        <time>2024-02-04T12:16:01Z</time>
      </trkpt>
      <trkpt lat="42.85112" lon="1.21471">
        <ele>858.6</ele>
        <time>2024-02-04T12:16:02Z</time>
      </trkpt>
      <trkpt lat="42.85111" lon="1.2147">
        <ele>859</ele>
        <time>2024-02-04T12:16:03Z</time>
      </trkpt>
      <trkpt lat="42.85109" lon="1.21467">
        <ele>859.4</ele>
        <time>2024-02-04T12:16:04Z</time>
      </trkpt>
      <trkpt lat="42.85108" lon="1.21465">
        <ele>860</ele>
        <time>2024-02-04T12:16:05Z</time>
      </trkpt>
      <trkpt lat="42.85105" lon="1.21458">
        <ele>860.4</ele>
        <time>2024-02-04T12:16:08Z</time>
      </trkpt>
      <trkpt lat="42.85105" lon="1.21457">
        <ele>860.8</ele>
        <time>2024-02-04T12:16:09Z</time>
      </trkpt>
      <trkpt lat="42.85104" lon="1.21455">
        <ele>861.4</ele>
        <time>2024-02-04T12:16:10Z</time>
      </trkpt>
      <trkpt lat="42.85104" lon="1.21454">
        <ele>861.8</ele>
        <time>2024-02-04T12:16:11Z</time>
      </trkpt>
      <trkpt lat="42.85102" lon="1.21449">
        <ele>862.2</ele>
        <time>2024-02-04T12:16:14Z</time>
      </trkpt>
      <trkpt lat="42.85101" lon="1.21447">
        <ele>862.6</ele>
        <time>2024-02-04T12:16:15Z</time>
      </trkpt>
      <trkpt lat="42.851" lon="1.21445">
        <ele>863.2</ele>
        <time>2024-02-04T12:16:16Z</time>
      </trkpt>
      <trkpt lat="42.85099" lon="1.21444">
        <ele>863.6</ele>
        <time>2024-02-04T12:16:17Z</time>
      </trkpt>
      <trkpt lat="42.85098" lon="1.21443">
        <ele>864</ele>
        <time>2024-02-04T12:16:18Z</time>
      </trkpt>
      <trkpt lat="42.85097" lon="1.21441">
        <ele>864.4</ele>
        <time>2024-02-04T12:16:19Z</time>
      </trkpt>
      <trkpt lat="42.85095" lon="1.21437">
        <ele>864.4</ele>
        <time>2024-02-04T12:16:21Z</time>
      </trkpt>
      <trkpt lat="42.85095" lon="1.21436">
        <ele>864.4</ele>
        <time>2024-02-04T12:16:22Z</time>
      </trkpt>
      <trkpt lat="42.85094" lon="1.21433">
        <ele>864.8</ele>
        <time>2024-02-04T12:16:23Z</time>
      </trkpt>
      <trkpt lat="42.85093" lon="1.21431">
        <ele>865.2</ele>
        <time>2024-02-04T12:16:24Z</time>
      </trkpt>
      <trkpt lat="42.85091" lon="1.21428">
        <ele>865.6</ele>
        <time>2024-02-04T12:16:25Z</time>
      </trkpt>
      <trkpt lat="42.8509" lon="1.21425">
        <ele>866</ele>
        <time>2024-02-04T12:16:26Z</time>
      </trkpt>
      <trkpt lat="42.85089" lon="1.21422">
        <ele>866.4</ele>
        <time>2024-02-04T12:16:27Z</time>
      </trkpt>
      <trkpt lat="42.85088" lon="1.21417">
        <ele>866.4</ele>
        <time>2024-02-04T12:16:29Z</time>
      </trkpt>
      <trkpt lat="42.85085" lon="1.21411">
        <ele>866.8</ele>
        <time>2024-02-04T12:16:32Z</time>
      </trkpt>
      <trkpt lat="42.85084" lon="1.21409">
        <ele>867.2</ele>
        <time>2024-02-04T12:16:33Z</time>
      </trkpt>
      <trkpt lat="42.85082" lon="1.21408">
        <ele>867.8</ele>
        <time>2024-02-04T12:16:34Z</time>
      </trkpt>
      <trkpt lat="42.85081" lon="1.21406">
        <ele>868.2</ele>
        <time>2024-02-04T12:16:35Z</time>
      </trkpt>
      <trkpt lat="42.85079" lon="1.21404">
        <ele>868.6</ele>
        <time>2024-02-04T12:16:36Z</time>
      </trkpt>
      <trkpt lat="42.85077" lon="1.21402">
        <ele>869</ele>
        <time>2024-02-04T12:16:37Z</time>
      </trkpt>
      <trkpt lat="42.85076" lon="1.214">
        <ele>869.4</ele>
        <time>2024-02-04T12:16:38Z</time>
      </trkpt>
      <trkpt lat="42.85075" lon="1.21399">
        <ele>869.8</ele>
        <time>2024-02-04T12:16:39Z</time>
      </trkpt>
      <trkpt lat="42.85074" lon="1.21398">
        <ele>870.2</ele>
        <time>2024-02-04T12:16:40Z</time>
      </trkpt>
      <trkpt lat="42.85073" lon="1.21397">
        <ele>870.6</ele>
        <time>2024-02-04T12:16:41Z</time>
      </trkpt>
      <trkpt lat="42.85069" lon="1.21392">
        <ele>871</ele>
        <time>2024-02-04T12:16:44Z</time>
      </trkpt>
      <trkpt lat="42.85068" lon="1.21391">
        <ele>871.4</ele>
        <time>2024-02-04T12:16:45Z</time>
      </trkpt>
      <trkpt lat="42.85066" lon="1.21389">
        <ele>872</ele>
        <time>2024-02-04T12:16:46Z</time>
      </trkpt>
      <trkpt lat="42.85065" lon="1.21387">
        <ele>872.8</ele>
        <time>2024-02-04T12:16:47Z</time>
      </trkpt>
      <trkpt lat="42.85057" lon="1.21378">
        <ele>873.2</ele>
        <time>2024-02-04T12:16:53Z</time>
      </trkpt>
      <trkpt lat="42.85055" lon="1.21376">
        <ele>873.6</ele>
        <time>2024-02-04T12:16:54Z</time>
      </trkpt>
      <trkpt lat="42.85053" lon="1.21374">
        <ele>874</ele>
        <time>2024-02-04T12:16:55Z</time>
      </trkpt>
      <trkpt lat="42.85051" lon="1.21372">
        <ele>874.4</ele>
        <time>2024-02-04T12:16:56Z</time>
      </trkpt>
      <trkpt lat="42.8505" lon="1.21371">
        <ele>874.8</ele>
        <time>2024-02-04T12:16:57Z</time>
      </trkpt>
      <trkpt lat="42.85049" lon="1.21369">
        <ele>874.8</ele>
        <time>2024-02-04T12:16:58Z</time>
      </trkpt>
      <trkpt lat="42.85048" lon="1.21367">
        <ele>874.8</ele>
        <time>2024-02-04T12:16:59Z</time>
      </trkpt>
      <trkpt lat="42.85048" lon="1.21365">
        <ele>875.2</ele>
        <time>2024-02-04T12:17:00Z</time>
      </trkpt>
      <trkpt lat="42.85046" lon="1.21364">
        <ele>875.6</ele>
        <time>2024-02-04T12:17:01Z</time>
      </trkpt>
      <trkpt lat="42.85046" lon="1.21362">
        <ele>876</ele>
        <time>2024-02-04T12:17:02Z</time>
      </trkpt>
      <trkpt lat="42.85046" lon="1.2136">
        <ele>876.4</ele>
        <time>2024-02-04T12:17:03Z</time>
      </trkpt>
      <trkpt lat="42.85043" lon="1.21359">
        <ele>876.8</ele>
        <time>2024-02-04T12:17:04Z</time>
      </trkpt>
      <trkpt lat="42.85041" lon="1.21356">
        <ele>876.8</ele>
        <time>2024-02-04T12:17:06Z</time>
      </trkpt>
      <trkpt lat="42.85041" lon="1.21354">
        <ele>877.2</ele>
        <time>2024-02-04T12:17:07Z</time>
      </trkpt>
      <trkpt lat="42.8504" lon="1.21352">
        <ele>877.6</ele>
        <time>2024-02-04T12:17:08Z</time>
      </trkpt>
      <trkpt lat="42.8504" lon="1.2135">
        <ele>878</ele>
        <time>2024-02-04T12:17:09Z</time>
      </trkpt>
      <trkpt lat="42.85039" lon="1.21349">
        <ele>878.4</ele>
        <time>2024-02-04T12:17:10Z</time>
      </trkpt>
      <trkpt lat="42.85037" lon="1.21346">
        <ele>879</ele>
        <time>2024-02-04T12:17:11Z</time>
      </trkpt>
      <trkpt lat="42.85036" lon="1.21342">
        <ele>879</ele>
        <time>2024-02-04T12:17:13Z</time>
      </trkpt>
      <trkpt lat="42.85034" lon="1.2134">
        <ele>879.4</ele>
        <time>2024-02-04T12:17:14Z</time>
      </trkpt>
      <trkpt lat="42.85033" lon="1.21337">
        <ele>879.8</ele>
        <time>2024-02-04T12:17:15Z</time>
      </trkpt>
      <trkpt lat="42.85032" lon="1.21335">
        <ele>880.4</ele>
        <time>2024-02-04T12:17:16Z</time>
      </trkpt>
      <trkpt lat="42.85031" lon="1.21332">
        <ele>880.8</ele>
        <time>2024-02-04T12:17:17Z</time>
      </trkpt>
      <trkpt lat="42.85029" lon="1.2133">
        <ele>881.4</ele>
        <time>2024-02-04T12:17:18Z</time>
      </trkpt>
      <trkpt lat="42.85027" lon="1.21327">
        <ele>881.8</ele>
        <time>2024-02-04T12:17:20Z</time>
      </trkpt>
      <trkpt lat="42.85027" lon="1.21325">
        <ele>882.4</ele>
        <time>2024-02-04T12:17:21Z</time>
      </trkpt>
      <trkpt lat="42.85026" lon="1.21324">
        <ele>882.8</ele>
        <time>2024-02-04T12:17:22Z</time>
      </trkpt>
      <trkpt lat="42.85025" lon="1.21322">
        <ele>883.4</ele>
        <time>2024-02-04T12:17:23Z</time>
      </trkpt>
      <trkpt lat="42.85024" lon="1.21321">
        <ele>883.8</ele>
        <time>2024-02-04T12:17:24Z</time>
      </trkpt>
      <trkpt lat="42.85022" lon="1.21319">
        <ele>884.2</ele>
        <time>2024-02-04T12:17:25Z</time>
      </trkpt>
      <trkpt lat="42.8502" lon="1.21317">
        <ele>884.8</ele>
        <time>2024-02-04T12:17:26Z</time>
      </trkpt>
      <trkpt lat="42.85018" lon="1.21314">
        <ele>885.2</ele>
        <time>2024-02-04T12:17:27Z</time>
      </trkpt>
      <trkpt lat="42.85016" lon="1.21311">
        <ele>885.6</ele>
        <time>2024-02-04T12:17:28Z</time>
      </trkpt>
      <trkpt lat="42.85014" lon="1.21308">
        <ele>886</ele>
        <time>2024-02-04T12:17:29Z</time>
      </trkpt>
      <trkpt lat="42.85012" lon="1.21305">
        <ele>886.6</ele>
        <time>2024-02-04T12:17:30Z</time>
      </trkpt>
      <trkpt lat="42.85011" lon="1.21303">
        <ele>887</ele>
        <time>2024-02-04T12:17:31Z</time>
      </trkpt>
      <trkpt lat="42.8501" lon="1.21301">
        <ele>887.4</ele>
        <time>2024-02-04T12:17:32Z</time>
      </trkpt>
      <trkpt lat="42.85008" lon="1.213">
        <ele>887.8</ele>
        <time>2024-02-04T12:17:33Z</time>
      </trkpt>
      <trkpt lat="42.85006" lon="1.21297">
        <ele>888.4</ele>
        <time>2024-02-04T12:17:34Z</time>
      </trkpt>
      <trkpt lat="42.85004" lon="1.21294">
        <ele>888.8</ele>
        <time>2024-02-04T12:17:35Z</time>
      </trkpt>
      <trkpt lat="42.85003" lon="1.2129">
        <ele>889.6</ele>
        <time>2024-02-04T12:17:36Z</time>
      </trkpt>
      <trkpt lat="42.85002" lon="1.21286">
        <ele>890</ele>
        <time>2024-02-04T12:17:37Z</time>
      </trkpt>
      <trkpt lat="42.85003" lon="1.21283">
        <ele>890.4</ele>
        <time>2024-02-04T12:17:38Z</time>
      </trkpt>
      <trkpt lat="42.85005" lon="1.2128">
        <ele>890.4</ele>
        <time>2024-02-04T12:17:39Z</time>
      </trkpt>
      <trkpt lat="42.8501" lon="1.2127">
        <ele>890.4</ele>
        <time>2024-02-04T12:17:42Z</time>
      </trkpt>
      <trkpt lat="42.85013" lon="1.21266">
        <ele>890.4</ele>
        <time>2024-02-04T12:17:44Z</time>
      </trkpt>
      <trkpt lat="42.85017" lon="1.21262">
        <ele>890.4</ele>
        <time>2024-02-04T12:17:47Z</time>
      </trkpt>
      <trkpt lat="42.85019" lon="1.21257">
        <ele>890.4</ele>
        <time>2024-02-04T12:17:49Z</time>
      </trkpt>
      <trkpt lat="42.85021" lon="1.21244">
        <ele>890.4</ele>
        <time>2024-02-04T12:17:55Z</time>
      </trkpt>
      <trkpt lat="42.8502" lon="1.2124">
        <ele>891</ele>
        <time>2024-02-04T12:17:56Z</time>
      </trkpt>
      <trkpt lat="42.85019" lon="1.21236">
        <ele>891.4</ele>
        <time>2024-02-04T12:17:57Z</time>
      </trkpt>
      <trkpt lat="42.85019" lon="1.21234">
        <ele>891.8</ele>
        <time>2024-02-04T12:17:58Z</time>
      </trkpt>
      <trkpt lat="42.85019" lon="1.21231">
        <ele>892.4</ele>
        <time>2024-02-04T12:17:59Z</time>
      </trkpt>
      <trkpt lat="42.85019" lon="1.21229">
        <ele>893</ele>
        <time>2024-02-04T12:18:00Z</time>
      </trkpt>
      <trkpt lat="42.85019" lon="1.21226">
        <ele>894</ele>
        <time>2024-02-04T12:18:01Z</time>
      </trkpt>
      <trkpt lat="42.85019" lon="1.21224">
        <ele>894.6</ele>
        <time>2024-02-04T12:18:02Z</time>
      </trkpt>
      <trkpt lat="42.85019" lon="1.21222">
        <ele>895.2</ele>
        <time>2024-02-04T12:18:03Z</time>
      </trkpt>
      <trkpt lat="42.85019" lon="1.2122">
        <ele>895.8</ele>
        <time>2024-02-04T12:18:04Z</time>
      </trkpt>
      <trkpt lat="42.85019" lon="1.21219">
        <ele>896.4</ele>
        <time>2024-02-04T12:18:05Z</time>
      </trkpt>
      <trkpt lat="42.85019" lon="1.21217">
        <ele>897</ele>
        <time>2024-02-04T12:18:06Z</time>
      </trkpt>
      <trkpt lat="42.85018" lon="1.21215">
        <ele>897.6</ele>
        <time>2024-02-04T12:18:07Z</time>
      </trkpt>
      <trkpt lat="42.85018" lon="1.21213">
        <ele>898.2</ele>
        <time>2024-02-04T12:18:08Z</time>
      </trkpt>
      <trkpt lat="42.85018" lon="1.21211">
        <ele>898.8</ele>
        <time>2024-02-04T12:18:09Z</time>
      </trkpt>
      <trkpt lat="42.85018" lon="1.21209">
        <ele>899.4</ele>
        <time>2024-02-04T12:18:10Z</time>
      </trkpt>
      <trkpt lat="42.85018" lon="1.21206">
        <ele>899.8</ele>
        <time>2024-02-04T12:18:11Z</time>
      </trkpt>
      <trkpt lat="42.85019" lon="1.21204">
        <ele>900.2</ele>
        <time>2024-02-04T12:18:12Z</time>
      </trkpt>
      <trkpt lat="42.85019" lon="1.21201">
        <ele>900.6</ele>
        <time>2024-02-04T12:18:13Z</time>
      </trkpt>
      <trkpt lat="42.85019" lon="1.21198">
        <ele>901</ele>
        <time>2024-02-04T12:18:14Z</time>
      </trkpt>
      <trkpt lat="42.85018" lon="1.21194">
        <ele>901.4</ele>
        <time>2024-02-04T12:18:15Z</time>
      </trkpt>
      <trkpt lat="42.85019" lon="1.21191">
        <ele>901.8</ele>
        <time>2024-02-04T12:18:16Z</time>
      </trkpt>
      <trkpt lat="42.85019" lon="1.21188">
        <ele>902.4</ele>
        <time>2024-02-04T12:18:17Z</time>
      </trkpt>
      <trkpt lat="42.8502" lon="1.21185">
        <ele>902.8</ele>
        <time>2024-02-04T12:18:18Z</time>
      </trkpt>
      <trkpt lat="42.8502" lon="1.21182">
        <ele>903.2</ele>
        <time>2024-02-04T12:18:19Z</time>
      </trkpt>
      <trkpt lat="42.8502" lon="1.21179">
        <ele>903.6</ele>
        <time>2024-02-04T12:18:20Z</time>
      </trkpt>
      <trkpt lat="42.8502" lon="1.21177">
        <ele>904</ele>
        <time>2024-02-04T12:18:21Z</time>
      </trkpt>
      <trkpt lat="42.8502" lon="1.21175">
        <ele>904.4</ele>
        <time>2024-02-04T12:18:22Z</time>
      </trkpt>
      <trkpt lat="42.8502" lon="1.21172">
        <ele>904.8</ele>
        <time>2024-02-04T12:18:23Z</time>
      </trkpt>
      <trkpt lat="42.8502" lon="1.2117">
        <ele>905.4</ele>
        <time>2024-02-04T12:18:24Z</time>
      </trkpt>
      <trkpt lat="42.8502" lon="1.21167">
        <ele>905.8</ele>
        <time>2024-02-04T12:18:25Z</time>
      </trkpt>
      <trkpt lat="42.85019" lon="1.21165">
        <ele>906.8</ele>
        <time>2024-02-04T12:18:26Z</time>
      </trkpt>
      <trkpt lat="42.85019" lon="1.21163">
        <ele>907.2</ele>
        <time>2024-02-04T12:18:27Z</time>
      </trkpt>
      <trkpt lat="42.85019" lon="1.21162">
        <ele>907.8</ele>
        <time>2024-02-04T12:18:28Z</time>
      </trkpt>
      <trkpt lat="42.85019" lon="1.21161">
        <ele>908.2</ele>
        <time>2024-02-04T12:18:29Z</time>
      </trkpt>
      <trkpt lat="42.85019" lon="1.21158">
        <ele>908.6</ele>
        <time>2024-02-04T12:18:30Z</time>
      </trkpt>
      <trkpt lat="42.85019" lon="1.21155">
        <ele>909.2</ele>
        <time>2024-02-04T12:18:31Z</time>
      </trkpt>
      <trkpt lat="42.85019" lon="1.21152">
        <ele>909.6</ele>
        <time>2024-02-04T12:18:32Z</time>
      </trkpt>
      <trkpt lat="42.85018" lon="1.2115">
        <ele>910</ele>
        <time>2024-02-04T12:18:33Z</time>
      </trkpt>
      <trkpt lat="42.85017" lon="1.21148">
        <ele>910.4</ele>
        <time>2024-02-04T12:18:34Z</time>
      </trkpt>
      <trkpt lat="42.85017" lon="1.21145">
        <ele>910.8</ele>
        <time>2024-02-04T12:18:35Z</time>
      </trkpt>
      <trkpt lat="42.85016" lon="1.21143">
        <ele>911.2</ele>
        <time>2024-02-04T12:18:36Z</time>
      </trkpt>
      <trkpt lat="42.85014" lon="1.2114">
        <ele>911.6</ele>
        <time>2024-02-04T12:18:37Z</time>
      </trkpt>
      <trkpt lat="42.85013" lon="1.21138">
        <ele>912.2</ele>
        <time>2024-02-04T12:18:38Z</time>
      </trkpt>
      <trkpt lat="42.85011" lon="1.21137">
        <ele>912.6</ele>
        <time>2024-02-04T12:18:39Z</time>
      </trkpt>
      <trkpt lat="42.8501" lon="1.21136">
        <ele>913.2</ele>
        <time>2024-02-04T12:18:40Z</time>
      </trkpt>
      <trkpt lat="42.85009" lon="1.21134">
        <ele>913.8</ele>
        <time>2024-02-04T12:18:41Z</time>
      </trkpt>
      <trkpt lat="42.85008" lon="1.21132">
        <ele>914.2</ele>
        <time>2024-02-04T12:18:42Z</time>
      </trkpt>
      <trkpt lat="42.85007" lon="1.2113">
        <ele>914.8</ele>
        <time>2024-02-04T12:18:43Z</time>
      </trkpt>
      <trkpt lat="42.85006" lon="1.21127">
        <ele>915.4</ele>
        <time>2024-02-04T12:18:44Z</time>
      </trkpt>
      <trkpt lat="42.85005" lon="1.21125">
        <ele>916</ele>
        <time>2024-02-04T12:18:45Z</time>
      </trkpt>
      <trkpt lat="42.85005" lon="1.21123">
        <ele>916.4</ele>
        <time>2024-02-04T12:18:46Z</time>
      </trkpt>
      <trkpt lat="42.85006" lon="1.2112">
        <ele>917</ele>
        <time>2024-02-04T12:18:47Z</time>
      </trkpt>
      <trkpt lat="42.85007" lon="1.21118">
        <ele>917.4</ele>
        <time>2024-02-04T12:18:48Z</time>
      </trkpt>
      <trkpt lat="42.85007" lon="1.21115">
        <ele>918</ele>
        <time>2024-02-04T12:18:49Z</time>
      </trkpt>
      <trkpt lat="42.85007" lon="1.21112">
        <ele>918.4</ele>
        <time>2024-02-04T12:18:50Z</time>
      </trkpt>
      <trkpt lat="42.85007" lon="1.21111">
        <ele>919.4</ele>
        <time>2024-02-04T12:18:51Z</time>
      </trkpt>
      <trkpt lat="42.85007" lon="1.21109">
        <ele>919.8</ele>
        <time>2024-02-04T12:18:52Z</time>
      </trkpt>
      <trkpt lat="42.85007" lon="1.21108">
        <ele>920.2</ele>
        <time>2024-02-04T12:18:53Z</time>
      </trkpt>
      <trkpt lat="42.85007" lon="1.21107">
        <ele>920.6</ele>
        <time>2024-02-04T12:18:54Z</time>
      </trkpt>
      <trkpt lat="42.85006" lon="1.21104">
        <ele>921</ele>
        <time>2024-02-04T12:18:55Z</time>
      </trkpt>
      <trkpt lat="42.85006" lon="1.21102">
        <ele>921.4</ele>
        <time>2024-02-04T12:18:56Z</time>
      </trkpt>
      <trkpt lat="42.85006" lon="1.211">
        <ele>921.8</ele>
        <time>2024-02-04T12:18:57Z</time>
      </trkpt>
      <trkpt lat="42.85006" lon="1.21097">
        <ele>922.2</ele>
        <time>2024-02-04T12:18:58Z</time>
      </trkpt>
      <trkpt lat="42.85006" lon="1.21095">
        <ele>922.6</ele>
        <time>2024-02-04T12:18:59Z</time>
      </trkpt>
      <trkpt lat="42.85006" lon="1.21094">
        <ele>923</ele>
        <time>2024-02-04T12:19:00Z</time>
      </trkpt>
      <trkpt lat="42.85006" lon="1.21093">
        <ele>923.6</ele>
        <time>2024-02-04T12:19:01Z</time>
      </trkpt>
      <trkpt lat="42.85005" lon="1.21092">
        <ele>924</ele>
        <time>2024-02-04T12:19:02Z</time>
      </trkpt>
      <trkpt lat="42.85004" lon="1.21092">
        <ele>924.6</ele>
        <time>2024-02-04T12:19:03Z</time>
      </trkpt>
      <trkpt lat="42.85003" lon="1.21091">
        <ele>925.2</ele>
        <time>2024-02-04T12:19:04Z</time>
      </trkpt>
      <trkpt lat="42.85002" lon="1.2109">
        <ele>925.6</ele>
        <time>2024-02-04T12:19:05Z</time>
      </trkpt>
      <trkpt lat="42.85002" lon="1.2109">
        <ele>925.6</ele>
        <time>2024-02-04T12:19:07Z</time>
      </trkpt>
      <trkpt lat="42.85033" lon="1.21031">
        <ele>939</ele>
        <time>2024-02-04T12:20:35Z</time>
      </trkpt>
      <trkpt lat="42.85033" lon="1.21029">
        <ele>939.4</ele>
        <time>2024-02-04T12:20:36Z</time>
      </trkpt>
      <trkpt lat="42.85032" lon="1.21027">
        <ele>939.8</ele>
        <time>2024-02-04T12:20:37Z</time>
      </trkpt>
      <trkpt lat="42.85032" lon="1.21025">
        <ele>940.2</ele>
        <time>2024-02-04T12:20:38Z</time>
      </trkpt>
      <trkpt lat="42.85032" lon="1.21024">
        <ele>940.6</ele>
        <time>2024-02-04T12:20:39Z</time>
      </trkpt>
      <trkpt lat="42.85031" lon="1.21022">
        <ele>941</ele>
        <time>2024-02-04T12:20:41Z</time>
      </trkpt>
      <trkpt lat="42.8503" lon="1.2102">
        <ele>941.4</ele>
        <time>2024-02-04T12:20:42Z</time>
      </trkpt>
      <trkpt lat="42.85029" lon="1.21018">
        <ele>941.8</ele>
        <time>2024-02-04T12:20:43Z</time>
      </trkpt>
      <trkpt lat="42.85028" lon="1.21016">
        <ele>942.2</ele>
        <time>2024-02-04T12:20:44Z</time>
      </trkpt>
      <trkpt lat="42.85026" lon="1.21014">
        <ele>942.6</ele>
        <time>2024-02-04T12:20:45Z</time>
      </trkpt>
      <trkpt lat="42.85025" lon="1.21013">
        <ele>943.2</ele>
        <time>2024-02-04T12:20:46Z</time>
      </trkpt>
      <trkpt lat="42.85024" lon="1.21012">
        <ele>943.6</ele>
        <time>2024-02-04T12:20:47Z</time>
      </trkpt>
      <trkpt lat="42.85023" lon="1.2101">
        <ele>944.2</ele>
        <time>2024-02-04T12:20:48Z</time>
      </trkpt>
      <trkpt lat="42.85022" lon="1.21008">
        <ele>944.6</ele>
        <time>2024-02-04T12:20:49Z</time>
      </trkpt>
      <trkpt lat="42.85022" lon="1.21006">
        <ele>945.2</ele>
        <time>2024-02-04T12:20:50Z</time>
      </trkpt>
      <trkpt lat="42.85022" lon="1.21004">
        <ele>945.8</ele>
        <time>2024-02-04T12:20:51Z</time>
      </trkpt>
      <trkpt lat="42.85021" lon="1.21002">
        <ele>946.4</ele>
        <time>2024-02-04T12:20:52Z</time>
      </trkpt>
      <trkpt lat="42.8502" lon="1.21001">
        <ele>946.8</ele>
        <time>2024-02-04T12:20:53Z</time>
      </trkpt>
      <trkpt lat="42.85019" lon="1.20999">
        <ele>947.4</ele>
        <time>2024-02-04T12:20:54Z</time>
      </trkpt>
      <trkpt lat="42.85019" lon="1.20998">
        <ele>948</ele>
        <time>2024-02-04T12:20:55Z</time>
      </trkpt>
      <trkpt lat="42.85018" lon="1.20997">
        <ele>948.4</ele>
        <time>2024-02-04T12:20:56Z</time>
      </trkpt>
      <trkpt lat="42.85017" lon="1.20995">
        <ele>948.8</ele>
        <time>2024-02-04T12:20:57Z</time>
      </trkpt>
      <trkpt lat="42.85017" lon="1.20994">
        <ele>949.2</ele>
        <time>2024-02-04T12:20:58Z</time>
      </trkpt>
      <trkpt lat="42.85016" lon="1.20993">
        <ele>949.8</ele>
        <time>2024-02-04T12:20:59Z</time>
      </trkpt>
      <trkpt lat="42.85012" lon="1.20989">
        <ele>950.2</ele>
        <time>2024-02-04T12:21:02Z</time>
      </trkpt>
      <trkpt lat="42.85012" lon="1.20988">
        <ele>950.6</ele>
        <time>2024-02-04T12:21:03Z</time>
      </trkpt>
      <trkpt lat="42.85012" lon="1.20987">
        <ele>951</ele>
        <time>2024-02-04T12:21:04Z</time>
      </trkpt>
      <trkpt lat="42.85012" lon="1.20986">
        <ele>951.4</ele>
        <time>2024-02-04T12:21:05Z</time>
      </trkpt>
      <trkpt lat="42.85012" lon="1.20984">
        <ele>951.8</ele>
        <time>2024-02-04T12:21:06Z</time>
      </trkpt>
      <trkpt lat="42.85012" lon="1.20979">
        <ele>951.8</ele>
        <time>2024-02-04T12:21:09Z</time>
      </trkpt>
      <trkpt lat="42.85011" lon="1.20977">
        <ele>952.2</ele>
        <time>2024-02-04T12:21:11Z</time>
      </trkpt>
      <trkpt lat="42.8501" lon="1.20975">
        <ele>952.6</ele>
        <time>2024-02-04T12:21:12Z</time>
      </trkpt>
      <trkpt lat="42.8501" lon="1.20973">
        <ele>953</ele>
        <time>2024-02-04T12:21:13Z</time>
      </trkpt>
      <trkpt lat="42.85009" lon="1.20971">
        <ele>953.4</ele>
        <time>2024-02-04T12:21:14Z</time>
      </trkpt>
      <trkpt lat="42.85008" lon="1.20969">
        <ele>953.8</ele>
        <time>2024-02-04T12:21:15Z</time>
      </trkpt>
      <trkpt lat="42.85007" lon="1.20966">
        <ele>953.8</ele>
        <time>2024-02-04T12:21:17Z</time>
      </trkpt>
      <trkpt lat="42.85005" lon="1.20963">
        <ele>954.8</ele>
        <time>2024-02-04T12:21:19Z</time>
      </trkpt>
      <trkpt lat="42.85005" lon="1.20962">
        <ele>955.2</ele>
        <time>2024-02-04T12:21:20Z</time>
      </trkpt>
      <trkpt lat="42.85005" lon="1.20961">
        <ele>955.6</ele>
        <time>2024-02-04T12:21:21Z</time>
      </trkpt>
      <trkpt lat="42.84998" lon="1.20947">
        <ele>958</ele>
        <time>2024-02-04T12:21:31Z</time>
      </trkpt>
      <trkpt lat="42.84997" lon="1.20945">
        <ele>958.4</ele>
        <time>2024-02-04T12:21:32Z</time>
      </trkpt>
      <trkpt lat="42.84996" lon="1.20943">
        <ele>958.8</ele>
        <time>2024-02-04T12:21:33Z</time>
      </trkpt>
      <trkpt lat="42.84995" lon="1.20942">
        <ele>959.2</ele>
        <time>2024-02-04T12:21:34Z</time>
      </trkpt>
      <trkpt lat="42.84994" lon="1.2094">
        <ele>959.6</ele>
        <time>2024-02-04T12:21:35Z</time>
      </trkpt>
      <trkpt lat="42.84993" lon="1.20939">
        <ele>960.2</ele>
        <time>2024-02-04T12:21:36Z</time>
      </trkpt>
      <trkpt lat="42.84993" lon="1.20935">
        <ele>960.6</ele>
        <time>2024-02-04T12:21:39Z</time>
      </trkpt>
      <trkpt lat="42.84994" lon="1.20934">
        <ele>961</ele>
        <time>2024-02-04T12:21:40Z</time>
      </trkpt>
      <trkpt lat="42.84993" lon="1.20932">
        <ele>961.4</ele>
        <time>2024-02-04T12:21:41Z</time>
      </trkpt>
      <trkpt lat="42.84992" lon="1.20931">
        <ele>962</ele>
        <time>2024-02-04T12:21:42Z</time>
      </trkpt>
      <trkpt lat="42.84992" lon="1.20929">
        <ele>962.4</ele>
        <time>2024-02-04T12:21:43Z</time>
      </trkpt>
      <trkpt lat="42.8499" lon="1.20926">
        <ele>962.4</ele>
        <time>2024-02-04T12:21:44Z</time>
      </trkpt>
      <trkpt lat="42.84981" lon="1.20912">
        <ele>962.4</ele>
        <time>2024-02-04T12:21:49Z</time>
      </trkpt>
      <trkpt lat="42.84976" lon="1.20889">
        <ele>962.4</ele>
        <time>2024-02-04T12:21:53Z</time>
      </trkpt>
      <trkpt lat="42.84974" lon="1.2088">
        <ele>962</ele>
        <time>2024-02-04T12:21:55Z</time>
      </trkpt>
      <trkpt lat="42.84974" lon="1.20878">
        <ele>961.6</ele>
        <time>2024-02-04T12:21:56Z</time>
      </trkpt>
      <trkpt lat="42.84972" lon="1.20872">
        <ele>960.4</ele>
        <time>2024-02-04T12:24:26Z</time>
      </trkpt>
      <trkpt lat="42.8497" lon="1.20861">
        <ele>960.4</ele>
        <time>2024-02-04T12:24:30Z</time>
      </trkpt>
      <trkpt lat="42.8497" lon="1.20855">
        <ele>960.4</ele>
        <time>2024-02-04T12:24:32Z</time>
      </trkpt>
      <trkpt lat="42.84973" lon="1.2085">
        <ele>960.4</ele>
        <time>2024-02-04T12:24:34Z</time>
      </trkpt>
      <trkpt lat="42.84975" lon="1.20848">
        <ele>960.4</ele>
        <time>2024-02-04T12:24:35Z</time>
      </trkpt>
      <trkpt lat="42.84977" lon="1.20839">
        <ele>960.4</ele>
        <time>2024-02-04T12:24:37Z</time>
      </trkpt>
      <trkpt lat="42.84978" lon="1.20827">
        <ele>960</ele>
        <time>2024-02-04T12:24:39Z</time>
      </trkpt>
      <trkpt lat="42.84979" lon="1.20822">
        <ele>959.6</ele>
        <time>2024-02-04T12:24:40Z</time>
      </trkpt>
      <trkpt lat="42.8498" lon="1.20816">
        <ele>959.2</ele>
        <time>2024-02-04T12:24:41Z</time>
      </trkpt>
      <trkpt lat="42.84981" lon="1.2081">
        <ele>958.8</ele>
        <time>2024-02-04T12:24:42Z</time>
      </trkpt>
      <trkpt lat="42.84983" lon="1.20801">
        <ele>958.2</ele>
        <time>2024-02-04T12:24:43Z</time>
      </trkpt>
      <trkpt lat="42.84985" lon="1.20793">
        <ele>957.6</ele>
        <time>2024-02-04T12:24:44Z</time>
      </trkpt>
      <trkpt lat="42.84987" lon="1.20785">
        <ele>957.2</ele>
        <time>2024-02-04T12:24:45Z</time>
      </trkpt>
      <trkpt lat="42.84989" lon="1.20777">
        <ele>956.4</ele>
        <time>2024-02-04T12:24:46Z</time>
      </trkpt>
      <trkpt lat="42.84991" lon="1.20769">
        <ele>955.8</ele>
        <time>2024-02-04T12:24:47Z</time>
      </trkpt>
      <trkpt lat="42.84994" lon="1.20762">
        <ele>955</ele>
        <time>2024-02-04T12:24:48Z</time>
      </trkpt>
      <trkpt lat="42.84996" lon="1.20753">
        <ele>954.4</ele>
        <time>2024-02-04T12:24:49Z</time>
      </trkpt>
      <trkpt lat="42.84999" lon="1.20747">
        <ele>953.6</ele>
        <time>2024-02-04T12:24:50Z</time>
      </trkpt>
      <trkpt lat="42.85002" lon="1.20741">
        <ele>953</ele>
        <time>2024-02-04T12:24:51Z</time>
      </trkpt>
      <trkpt lat="42.85004" lon="1.20735">
        <ele>952.2</ele>
        <time>2024-02-04T12:24:52Z</time>
      </trkpt>
      <trkpt lat="42.85007" lon="1.2073">
        <ele>951.4</ele>
        <time>2024-02-04T12:24:53Z</time>
      </trkpt>
      <trkpt lat="42.85009" lon="1.20723">
        <ele>950.6</ele>
        <time>2024-02-04T12:24:54Z</time>
      </trkpt>
      <trkpt lat="42.85011" lon="1.20718">
        <ele>950</ele>
        <time>2024-02-04T12:24:55Z</time>
      </trkpt>
      <trkpt lat="42.85012" lon="1.20713">
        <ele>949.2</ele>
        <time>2024-02-04T12:24:56Z</time>
      </trkpt>
      <trkpt lat="42.85013" lon="1.20709">
        <ele>948.6</ele>
        <time>2024-02-04T12:24:57Z</time>
      </trkpt>
      <trkpt lat="42.85015" lon="1.20704">
        <ele>947.8</ele>
        <time>2024-02-04T12:24:58Z</time>
      </trkpt>
      <trkpt lat="42.85016" lon="1.20698">
        <ele>947.2</ele>
        <time>2024-02-04T12:24:59Z</time>
      </trkpt>
      <trkpt lat="42.85019" lon="1.20686">
        <ele>946</ele>
        <time>2024-02-04T12:25:01Z</time>
      </trkpt>
      <trkpt lat="42.85021" lon="1.20679">
        <ele>945.6</ele>
        <time>2024-02-04T12:25:02Z</time>
      </trkpt>
      <trkpt lat="42.85024" lon="1.20671">
        <ele>945</ele>
        <time>2024-02-04T12:25:03Z</time>
      </trkpt>
      <trkpt lat="42.85026" lon="1.20663">
        <ele>944.4</ele>
        <time>2024-02-04T12:25:04Z</time>
      </trkpt>
      <trkpt lat="42.85027" lon="1.20655">
        <ele>944</ele>
        <time>2024-02-04T12:25:05Z</time>
      </trkpt>
      <trkpt lat="42.85028" lon="1.20646">
        <ele>943.4</ele>
        <time>2024-02-04T12:25:06Z</time>
      </trkpt>
      <trkpt lat="42.85028" lon="1.20638">
        <ele>943</ele>
        <time>2024-02-04T12:25:07Z</time>
      </trkpt>
      <trkpt lat="42.85028" lon="1.2063">
        <ele>942.4</ele>
        <time>2024-02-04T12:25:08Z</time>
      </trkpt>
      <trkpt lat="42.85028" lon="1.20622">
        <ele>941.8</ele>
        <time>2024-02-04T12:25:09Z</time>
      </trkpt>
      <trkpt lat="42.85028" lon="1.20613">
        <ele>941.2</ele>
        <time>2024-02-04T12:25:10Z</time>
      </trkpt>
      <trkpt lat="42.85027" lon="1.20604">
        <ele>940.6</ele>
        <time>2024-02-04T12:25:11Z</time>
      </trkpt>
      <trkpt lat="42.85026" lon="1.20595">
        <ele>940</ele>
        <time>2024-02-04T12:25:12Z</time>
      </trkpt>
      <trkpt lat="42.85024" lon="1.20587">
        <ele>939.2</ele>
        <time>2024-02-04T12:25:13Z</time>
      </trkpt>
      <trkpt lat="42.85023" lon="1.2058">
        <ele>938.6</ele>
        <time>2024-02-04T12:25:14Z</time>
      </trkpt>
      <trkpt lat="42.85024" lon="1.20573">
        <ele>937.8</ele>
        <time>2024-02-04T12:25:15Z</time>
      </trkpt>
      <trkpt lat="42.85024" lon="1.20567">
        <ele>937.2</ele>
        <time>2024-02-04T12:25:16Z</time>
      </trkpt>
      <trkpt lat="42.85024" lon="1.2056">
        <ele>936.6</ele>
        <time>2024-02-04T12:25:17Z</time>
      </trkpt>
      <trkpt lat="42.85024" lon="1.20551">
        <ele>936</ele>
        <time>2024-02-04T12:25:18Z</time>
      </trkpt>
      <trkpt lat="42.85024" lon="1.20542">
        <ele>935.4</ele>
        <time>2024-02-04T12:25:19Z</time>
      </trkpt>
      <trkpt lat="42.85025" lon="1.20534">
        <ele>934.8</ele>
        <time>2024-02-04T12:25:20Z</time>
      </trkpt>
      <trkpt lat="42.85026" lon="1.20525">
        <ele>934.2</ele>
        <time>2024-02-04T12:25:21Z</time>
      </trkpt>
      <trkpt lat="42.85027" lon="1.20519">
        <ele>933.4</ele>
        <time>2024-02-04T12:25:22Z</time>
      </trkpt>
      <trkpt lat="42.85028" lon="1.20514">
        <ele>932.8</ele>
        <time>2024-02-04T12:25:23Z</time>
      </trkpt>
      <trkpt lat="42.85029" lon="1.20512">
        <ele>932.2</ele>
        <time>2024-02-04T12:25:24Z</time>
      </trkpt>
      <trkpt lat="42.85029" lon="1.2051">
        <ele>931.6</ele>
        <time>2024-02-04T12:25:25Z</time>
      </trkpt>
      <trkpt lat="42.85029" lon="1.20508">
        <ele>930.4</ele>
        <time>2024-02-04T12:25:26Z</time>
      </trkpt>
      <trkpt lat="42.85031" lon="1.20496">
        <ele>930</ele>
        <time>2024-02-04T12:28:12Z</time>
      </trkpt>
      <trkpt lat="42.85033" lon="1.20484">
        <ele>930</ele>
        <time>2024-02-04T12:28:15Z</time>
      </trkpt>
      <trkpt lat="42.85039" lon="1.20468">
        <ele>929.4</ele>
        <time>2024-02-04T12:28:18Z</time>
      </trkpt>
      <trkpt lat="42.85042" lon="1.20462">
        <ele>929</ele>
        <time>2024-02-04T12:28:19Z</time>
      </trkpt>
      <trkpt lat="42.85046" lon="1.20456">
        <ele>928.2</ele>
        <time>2024-02-04T12:28:20Z</time>
      </trkpt>
      <trkpt lat="42.8505" lon="1.20449">
        <ele>927.8</ele>
        <time>2024-02-04T12:28:21Z</time>
      </trkpt>
      <trkpt lat="42.85053" lon="1.20444">
        <ele>927.4</ele>
        <time>2024-02-04T12:28:22Z</time>
      </trkpt>
      <trkpt lat="42.85057" lon="1.2044">
        <ele>926.8</ele>
        <time>2024-02-04T12:28:23Z</time>
      </trkpt>
      <trkpt lat="42.85061" lon="1.20435">
        <ele>926.4</ele>
        <time>2024-02-04T12:28:24Z</time>
      </trkpt>
      <trkpt lat="42.85064" lon="1.20431">
        <ele>926</ele>
        <time>2024-02-04T12:28:25Z</time>
      </trkpt>
      <trkpt lat="42.85067" lon="1.20427">
        <ele>925.4</ele>
        <time>2024-02-04T12:28:26Z</time>
      </trkpt>
      <trkpt lat="42.85071" lon="1.20423">
        <ele>925</ele>
        <time>2024-02-04T12:28:27Z</time>
      </trkpt>
      <trkpt lat="42.85074" lon="1.20418">
        <ele>924.4</ele>
        <time>2024-02-04T12:28:28Z</time>
      </trkpt>
      <trkpt lat="42.85077" lon="1.20413">
        <ele>924</ele>
        <time>2024-02-04T12:28:29Z</time>
      </trkpt>
      <trkpt lat="42.8508" lon="1.20408">
        <ele>923.4</ele>
        <time>2024-02-04T12:28:30Z</time>
      </trkpt>
      <trkpt lat="42.85083" lon="1.20404">
        <ele>923.4</ele>
        <time>2024-02-04T12:28:31Z</time>
      </trkpt>
      <trkpt lat="42.85086" lon="1.20399">
        <ele>923</ele>
        <time>2024-02-04T12:28:32Z</time>
      </trkpt>
      <trkpt lat="42.8509" lon="1.20393">
        <ele>922.4</ele>
        <time>2024-02-04T12:28:33Z</time>
      </trkpt>
      <trkpt lat="42.85094" lon="1.20387">
        <ele>922</ele>
        <time>2024-02-04T12:28:34Z</time>
      </trkpt>
      <trkpt lat="42.85097" lon="1.2038">
        <ele>921.4</ele>
        <time>2024-02-04T12:28:35Z</time>
      </trkpt>
      <trkpt lat="42.85101" lon="1.20372">
        <ele>921</ele>
        <time>2024-02-04T12:28:36Z</time>
      </trkpt>
      <trkpt lat="42.85104" lon="1.20366">
        <ele>920.4</ele>
        <time>2024-02-04T12:28:37Z</time>
      </trkpt>
      <trkpt lat="42.85108" lon="1.20359">
        <ele>919.8</ele>
        <time>2024-02-04T12:28:38Z</time>
      </trkpt>
      <trkpt lat="42.85111" lon="1.20352">
        <ele>919.2</ele>
        <time>2024-02-04T12:28:39Z</time>
      </trkpt>
      <trkpt lat="42.85113" lon="1.20346">
        <ele>918.6</ele>
        <time>2024-02-04T12:28:40Z</time>
      </trkpt>
      <trkpt lat="42.85116" lon="1.2034">
        <ele>918</ele>
        <time>2024-02-04T12:28:41Z</time>
      </trkpt>
      <trkpt lat="42.85118" lon="1.20334">
        <ele>917.4</ele>
        <time>2024-02-04T12:28:42Z</time>
      </trkpt>
      <trkpt lat="42.8512" lon="1.20327">
        <ele>916.8</ele>
        <time>2024-02-04T12:28:43Z</time>
      </trkpt>
      <trkpt lat="42.85122" lon="1.2032">
        <ele>916.2</ele>
        <time>2024-02-04T12:28:44Z</time>
      </trkpt>
      <trkpt lat="42.85123" lon="1.20312">
        <ele>915.2</ele>
        <time>2024-02-04T12:28:45Z</time>
      </trkpt>
      <trkpt lat="42.85124" lon="1.20304">
        <ele>914.6</ele>
        <time>2024-02-04T12:28:46Z</time>
      </trkpt>
      <trkpt lat="42.85123" lon="1.20297">
        <ele>914</ele>
        <time>2024-02-04T12:28:47Z</time>
      </trkpt>
      <trkpt lat="42.85121" lon="1.20291">
        <ele>913.4</ele>
        <time>2024-02-04T12:28:48Z</time>
      </trkpt>
      <trkpt lat="42.85117" lon="1.20287">
        <ele>912.8</ele>
        <time>2024-02-04T12:28:49Z</time>
      </trkpt>
      <trkpt lat="42.85113" lon="1.20282">
        <ele>912.2</ele>
        <time>2024-02-04T12:28:50Z</time>
      </trkpt>
      <trkpt lat="42.85109" lon="1.20277">
        <ele>911.6</ele>
        <time>2024-02-04T12:28:51Z</time>
      </trkpt>
      <trkpt lat="42.85105" lon="1.20274">
        <ele>911.2</ele>
        <time>2024-02-04T12:28:52Z</time>
      </trkpt>
      <trkpt lat="42.85103" lon="1.20273">
        <ele>910.8</ele>
        <time>2024-02-04T12:28:53Z</time>
      </trkpt>
      <trkpt lat="42.85103" lon="1.20273">
        <ele>910.4</ele>
        <time>2024-02-04T12:28:54Z</time>
      </trkpt>
      <trkpt lat="42.85101" lon="1.20273">
        <ele>909.8</ele>
        <time>2024-02-04T12:28:55Z</time>
      </trkpt>
      <trkpt lat="42.851" lon="1.20273">
        <ele>909.4</ele>
        <time>2024-02-04T12:28:56Z</time>
      </trkpt>
      <trkpt lat="42.85099" lon="1.20275">
        <ele>909.4</ele>
        <time>2024-02-04T12:28:57Z</time>
      </trkpt>
      <trkpt lat="42.85094" lon="1.20279">
        <ele>909</ele>
        <time>2024-02-04T12:29:00Z</time>
      </trkpt>
      <trkpt lat="42.85093" lon="1.20281">
        <ele>908.6</ele>
        <time>2024-02-04T12:29:01Z</time>
      </trkpt>
      <trkpt lat="42.85092" lon="1.20284">
        <ele>908.2</ele>
        <time>2024-02-04T12:29:02Z</time>
      </trkpt>
      <trkpt lat="42.8509" lon="1.20286">
        <ele>907.8</ele>
        <time>2024-02-04T12:29:03Z</time>
      </trkpt>
      <trkpt lat="42.85088" lon="1.2029">
        <ele>907.4</ele>
        <time>2024-02-04T12:29:04Z</time>
      </trkpt>
      <trkpt lat="42.85084" lon="1.20294">
        <ele>907.4</ele>
        <time>2024-02-04T12:29:05Z</time>
      </trkpt>
      <trkpt lat="42.85078" lon="1.20302">
        <ele>907</ele>
        <time>2024-02-04T12:29:07Z</time>
      </trkpt>
      <trkpt lat="42.85074" lon="1.20306">
        <ele>906.4</ele>
        <time>2024-02-04T12:29:08Z</time>
      </trkpt>
      <trkpt lat="42.8507" lon="1.2031">
        <ele>906</ele>
        <time>2024-02-04T12:29:09Z</time>
      </trkpt>
      <trkpt lat="42.85066" lon="1.20314">
        <ele>904.8</ele>
        <time>2024-02-04T12:29:10Z</time>
      </trkpt>
      <trkpt lat="42.85063" lon="1.20316">
        <ele>904.4</ele>
        <time>2024-02-04T12:29:11Z</time>
      </trkpt>
      <trkpt lat="42.8506" lon="1.20319">
        <ele>903.8</ele>
        <time>2024-02-04T12:29:12Z</time>
      </trkpt>
      <trkpt lat="42.85056" lon="1.20322">
        <ele>903.2</ele>
        <time>2024-02-04T12:29:13Z</time>
      </trkpt>
      <trkpt lat="42.85053" lon="1.20325">
        <ele>902.8</ele>
        <time>2024-02-04T12:29:14Z</time>
      </trkpt>
      <trkpt lat="42.85049" lon="1.20328">
        <ele>902.4</ele>
        <time>2024-02-04T12:29:15Z</time>
      </trkpt>
      <trkpt lat="42.85046" lon="1.20331">
        <ele>901.8</ele>
        <time>2024-02-04T12:29:16Z</time>
      </trkpt>
      <trkpt lat="42.85042" lon="1.20334">
        <ele>901.4</ele>
        <time>2024-02-04T12:29:17Z</time>
      </trkpt>
      <trkpt lat="42.85039" lon="1.20338">
        <ele>901</ele>
        <time>2024-02-04T12:29:18Z</time>
      </trkpt>
      <trkpt lat="42.85035" lon="1.20341">
        <ele>900.6</ele>
        <time>2024-02-04T12:29:19Z</time>
      </trkpt>
      <trkpt lat="42.85032" lon="1.20345">
        <ele>900.2</ele>
        <time>2024-02-04T12:29:20Z</time>
      </trkpt>
      <trkpt lat="42.85029" lon="1.20347">
        <ele>899.6</ele>
        <time>2024-02-04T12:29:21Z</time>
      </trkpt>
      <trkpt lat="42.85026" lon="1.2035">
        <ele>899.2</ele>
        <time>2024-02-04T12:29:22Z</time>
      </trkpt>
      <trkpt lat="42.85024" lon="1.20353">
        <ele>898.8</ele>
        <time>2024-02-04T12:29:23Z</time>
      </trkpt>
      <trkpt lat="42.85021" lon="1.20357">
        <ele>898.2</ele>
        <time>2024-02-04T12:29:24Z</time>
      </trkpt>
      <trkpt lat="42.85015" lon="1.20365">
        <ele>897.8</ele>
        <time>2024-02-04T12:29:26Z</time>
      </trkpt>
      <trkpt lat="42.85012" lon="1.20369">
        <ele>897.4</ele>
        <time>2024-02-04T12:29:27Z</time>
      </trkpt>
      <trkpt lat="42.85008" lon="1.20373">
        <ele>896.8</ele>
        <time>2024-02-04T12:29:28Z</time>
      </trkpt>
      <trkpt lat="42.85005" lon="1.20377">
        <ele>896.4</ele>
        <time>2024-02-04T12:29:29Z</time>
      </trkpt>
      <trkpt lat="42.85002" lon="1.20381">
        <ele>895.8</ele>
        <time>2024-02-04T12:29:30Z</time>
      </trkpt>
      <trkpt lat="42.84998" lon="1.20385">
        <ele>895.4</ele>
        <time>2024-02-04T12:29:31Z</time>
      </trkpt>
      <trkpt lat="42.84996" lon="1.20388">
        <ele>894.8</ele>
        <time>2024-02-04T12:29:32Z</time>
      </trkpt>
      <trkpt lat="42.84993" lon="1.20391">
        <ele>894.4</ele>
        <time>2024-02-04T12:29:33Z</time>
      </trkpt>
      <trkpt lat="42.84992" lon="1.20395">
        <ele>893.8</ele>
        <time>2024-02-04T12:29:34Z</time>
      </trkpt>
      <trkpt lat="42.84991" lon="1.20398">
        <ele>893.4</ele>
        <time>2024-02-04T12:29:35Z</time>
      </trkpt>
      <trkpt lat="42.84989" lon="1.204">
        <ele>893</ele>
        <time>2024-02-04T12:29:36Z</time>
      </trkpt>
      <trkpt lat="42.84986" lon="1.20405">
        <ele>892.6</ele>
        <time>2024-02-04T12:29:37Z</time>
      </trkpt>
      <trkpt lat="42.84984" lon="1.20409">
        <ele>892.2</ele>
        <time>2024-02-04T12:29:38Z</time>
      </trkpt>
      <trkpt lat="42.84982" lon="1.20413">
        <ele>891.8</ele>
        <time>2024-02-04T12:29:39Z</time>
      </trkpt>
      <trkpt lat="42.84976" lon="1.20424">
        <ele>891.4</ele>
        <time>2024-02-04T12:29:42Z</time>
      </trkpt>
      <trkpt lat="42.84974" lon="1.20427">
        <ele>890.8</ele>
        <time>2024-02-04T12:29:43Z</time>
      </trkpt>
      <trkpt lat="42.84972" lon="1.2043">
        <ele>890.4</ele>
        <time>2024-02-04T12:29:44Z</time>
      </trkpt>
      <trkpt lat="42.8497" lon="1.20433">
        <ele>890</ele>
        <time>2024-02-04T12:29:45Z</time>
      </trkpt>
      <trkpt lat="42.84967" lon="1.20436">
        <ele>889.6</ele>
        <time>2024-02-04T12:29:46Z</time>
      </trkpt>
      <trkpt lat="42.84963" lon="1.20442">
        <ele>889</ele>
        <time>2024-02-04T12:29:48Z</time>
      </trkpt>
      <trkpt lat="42.84962" lon="1.20444">
        <ele>888.6</ele>
        <time>2024-02-04T12:29:49Z</time>
      </trkpt>
      <trkpt lat="42.84961" lon="1.20445">
        <ele>888.2</ele>
        <time>2024-02-04T12:29:50Z</time>
      </trkpt>
      <trkpt lat="42.84961" lon="1.20446">
        <ele>887.8</ele>
        <time>2024-02-04T12:29:51Z</time>
      </trkpt>
      <trkpt lat="42.84959" lon="1.20449">
        <ele>887.4</ele>
        <time>2024-02-04T12:29:58Z</time>
      </trkpt>
      <trkpt lat="42.84958" lon="1.20451">
        <ele>887.4</ele>
        <time>2024-02-04T12:29:59Z</time>
      </trkpt>
      <trkpt lat="42.84951" lon="1.20462">
        <ele>887.4</ele>
        <time>2024-02-04T12:30:19Z</time>
      </trkpt>
      <trkpt lat="42.84947" lon="1.20465">
        <ele>887.4</ele>
        <time>2024-02-04T12:30:21Z</time>
      </trkpt>
      <trkpt lat="42.84947" lon="1.20467">
        <ele>887</ele>
        <time>2024-02-04T12:30:22Z</time>
      </trkpt>
      <trkpt lat="42.84945" lon="1.20469">
        <ele>886.6</ele>
        <time>2024-02-04T12:30:23Z</time>
      </trkpt>
      <trkpt lat="42.84945" lon="1.20471">
        <ele>885.8</ele>
        <time>2024-02-04T12:30:24Z</time>
      </trkpt>
      <trkpt lat="42.84944" lon="1.20472">
        <ele>885.4</ele>
        <time>2024-02-04T12:30:25Z</time>
      </trkpt>
      <trkpt lat="42.84937" lon="1.20482">
        <ele>885.4</ele>
        <time>2024-02-04T12:30:30Z</time>
      </trkpt>
      <trkpt lat="42.84935" lon="1.20484">
        <ele>885.4</ele>
        <time>2024-02-04T12:30:31Z</time>
      </trkpt>
      <trkpt lat="42.84929" lon="1.20494">
        <ele>884.8</ele>
        <time>2024-02-04T12:30:34Z</time>
      </trkpt>
      <trkpt lat="42.84926" lon="1.20498">
        <ele>884.4</ele>
        <time>2024-02-04T12:30:35Z</time>
      </trkpt>
      <trkpt lat="42.84924" lon="1.20504">
        <ele>884</ele>
        <time>2024-02-04T12:30:36Z</time>
      </trkpt>
      <trkpt lat="42.8492" lon="1.20509">
        <ele>883.6</ele>
        <time>2024-02-04T12:30:37Z</time>
      </trkpt>
      <trkpt lat="42.84917" lon="1.20512">
        <ele>883.2</ele>
        <time>2024-02-04T12:30:38Z</time>
      </trkpt>
      <trkpt lat="42.84914" lon="1.20514">
        <ele>883.2</ele>
        <time>2024-02-04T12:30:39Z</time>
      </trkpt>
      <trkpt lat="42.84911" lon="1.20517">
        <ele>882.6</ele>
        <time>2024-02-04T12:30:40Z</time>
      </trkpt>
      <trkpt lat="42.84908" lon="1.20519">
        <ele>882.2</ele>
        <time>2024-02-04T12:30:41Z</time>
      </trkpt>
      <trkpt lat="42.84905" lon="1.20521">
        <ele>881.8</ele>
        <time>2024-02-04T12:30:42Z</time>
      </trkpt>
      <trkpt lat="42.84902" lon="1.20522">
        <ele>881.2</ele>
        <time>2024-02-04T12:30:43Z</time>
      </trkpt>
      <trkpt lat="42.84898" lon="1.20525">
        <ele>880.8</ele>
        <time>2024-02-04T12:30:44Z</time>
      </trkpt>
      <trkpt lat="42.84895" lon="1.20529">
        <ele>880.4</ele>
        <time>2024-02-04T12:30:45Z</time>
      </trkpt>
      <trkpt lat="42.84892" lon="1.20531">
        <ele>879.8</ele>
        <time>2024-02-04T12:30:46Z</time>
      </trkpt>
      <trkpt lat="42.84889" lon="1.20534">
        <ele>879.4</ele>
        <time>2024-02-04T12:30:47Z</time>
      </trkpt>
      <trkpt lat="42.84886" lon="1.20535">
        <ele>878.8</ele>
        <time>2024-02-04T12:30:48Z</time>
      </trkpt>
      <trkpt lat="42.84883" lon="1.20539">
        <ele>878.4</ele>
        <time>2024-02-04T12:30:49Z</time>
      </trkpt>
      <trkpt lat="42.84879" lon="1.20542">
        <ele>878</ele>
        <time>2024-02-04T12:30:50Z</time>
      </trkpt>
      <trkpt lat="42.84876" lon="1.20545">
        <ele>877.4</ele>
        <time>2024-02-04T12:30:51Z</time>
      </trkpt>
      <trkpt lat="42.84872" lon="1.20547">
        <ele>877</ele>
        <time>2024-02-04T12:30:52Z</time>
      </trkpt>
      <trkpt lat="42.84869" lon="1.2055">
        <ele>876.6</ele>
        <time>2024-02-04T12:30:53Z</time>
      </trkpt>
      <trkpt lat="42.84866" lon="1.20552">
        <ele>876</ele>
        <time>2024-02-04T12:30:54Z</time>
      </trkpt>
      <trkpt lat="42.84861" lon="1.20556">
        <ele>875.6</ele>
        <time>2024-02-04T12:30:56Z</time>
      </trkpt>
      <trkpt lat="42.84858" lon="1.20559">
        <ele>875.2</ele>
        <time>2024-02-04T12:30:57Z</time>
      </trkpt>
      <trkpt lat="42.84857" lon="1.2056">
        <ele>874.6</ele>
        <time>2024-02-04T12:30:58Z</time>
      </trkpt>
      <trkpt lat="42.84854" lon="1.20561">
        <ele>874.2</ele>
        <time>2024-02-04T12:30:59Z</time>
      </trkpt>
      <trkpt lat="42.84851" lon="1.20563">
        <ele>873.8</ele>
        <time>2024-02-04T12:31:00Z</time>
      </trkpt>
      <trkpt lat="42.84846" lon="1.20565">
        <ele>873.4</ele>
        <time>2024-02-04T12:31:01Z</time>
      </trkpt>
      <trkpt lat="42.84843" lon="1.20567">
        <ele>873</ele>
        <time>2024-02-04T12:31:02Z</time>
      </trkpt>
      <trkpt lat="42.84839" lon="1.2057">
        <ele>872.6</ele>
        <time>2024-02-04T12:31:03Z</time>
      </trkpt>
      <trkpt lat="42.84836" lon="1.20572">
        <ele>872</ele>
        <time>2024-02-04T12:31:04Z</time>
      </trkpt>
      <trkpt lat="42.84832" lon="1.20573">
        <ele>871.6</ele>
        <time>2024-02-04T12:31:05Z</time>
      </trkpt>
      <trkpt lat="42.84829" lon="1.20575">
        <ele>871</ele>
        <time>2024-02-04T12:31:06Z</time>
      </trkpt>
      <trkpt lat="42.84827" lon="1.20577">
        <ele>870.6</ele>
        <time>2024-02-04T12:31:07Z</time>
      </trkpt>
      <trkpt lat="42.84824" lon="1.20578">
        <ele>870</ele>
        <time>2024-02-04T12:31:08Z</time>
      </trkpt>
      <trkpt lat="42.84822" lon="1.20579">
        <ele>869.6</ele>
        <time>2024-02-04T12:31:09Z</time>
      </trkpt>
      <trkpt lat="42.84822" lon="1.2058">
        <ele>869.6</ele>
        <time>2024-02-04T12:31:10Z</time>
      </trkpt>
      <trkpt lat="42.84814" lon="1.20584">
        <ele>869.6</ele>
        <time>2024-02-04T12:31:24Z</time>
      </trkpt>
      <trkpt lat="42.8481" lon="1.20583">
        <ele>869.2</ele>
        <time>2024-02-04T12:31:25Z</time>
      </trkpt>
      <trkpt lat="42.84805" lon="1.20582">
        <ele>868.8</ele>
        <time>2024-02-04T12:31:26Z</time>
      </trkpt>
      <trkpt lat="42.84801" lon="1.2058">
        <ele>868.4</ele>
        <time>2024-02-04T12:31:27Z</time>
      </trkpt>
      <trkpt lat="42.84797" lon="1.20577">
        <ele>867.8</ele>
        <time>2024-02-04T12:31:28Z</time>
      </trkpt>
      <trkpt lat="42.84793" lon="1.20575">
        <ele>867.4</ele>
        <time>2024-02-04T12:31:29Z</time>
      </trkpt>
      <trkpt lat="42.84789" lon="1.20575">
        <ele>867</ele>
        <time>2024-02-04T12:31:30Z</time>
      </trkpt>
      <trkpt lat="42.84785" lon="1.20575">
        <ele>866.6</ele>
        <time>2024-02-04T12:31:31Z</time>
      </trkpt>
      <trkpt lat="42.84782" lon="1.20574">
        <ele>866</ele>
        <time>2024-02-04T12:31:32Z</time>
      </trkpt>
      <trkpt lat="42.84778" lon="1.20573">
        <ele>865.6</ele>
        <time>2024-02-04T12:31:33Z</time>
      </trkpt>
      <trkpt lat="42.84774" lon="1.20572">
        <ele>865</ele>
        <time>2024-02-04T12:31:34Z</time>
      </trkpt>
      <trkpt lat="42.8477" lon="1.20569">
        <ele>864.6</ele>
        <time>2024-02-04T12:31:35Z</time>
      </trkpt>
      <trkpt lat="42.84765" lon="1.20565">
        <ele>864</ele>
        <time>2024-02-04T12:31:36Z</time>
      </trkpt>
      <trkpt lat="42.8476" lon="1.20563">
        <ele>863.4</ele>
        <time>2024-02-04T12:31:37Z</time>
      </trkpt>
      <trkpt lat="42.84755" lon="1.20559">
        <ele>862.4</ele>
        <time>2024-02-04T12:31:38Z</time>
      </trkpt>
      <trkpt lat="42.84752" lon="1.20552">
        <ele>862</ele>
        <time>2024-02-04T12:31:39Z</time>
      </trkpt>
      <trkpt lat="42.84749" lon="1.20545">
        <ele>861.4</ele>
        <time>2024-02-04T12:31:40Z</time>
      </trkpt>
      <trkpt lat="42.84746" lon="1.20544">
        <ele>860.8</ele>
        <time>2024-02-04T12:31:41Z</time>
      </trkpt>
      <trkpt lat="42.84743" lon="1.20543">
        <ele>860</ele>
        <time>2024-02-04T12:31:42Z</time>
      </trkpt>
      <trkpt lat="42.8474" lon="1.20542">
        <ele>859.4</ele>
        <time>2024-02-04T12:31:43Z</time>
      </trkpt>
      <trkpt lat="42.84736" lon="1.20544">
        <ele>858.8</ele>
        <time>2024-02-04T12:31:44Z</time>
      </trkpt>
      <trkpt lat="42.84734" lon="1.20546">
        <ele>858</ele>
        <time>2024-02-04T12:31:45Z</time>
      </trkpt>
      <trkpt lat="42.8473" lon="1.20547">
        <ele>858</ele>
        <time>2024-02-04T12:31:46Z</time>
      </trkpt>
      <trkpt lat="42.84717" lon="1.20552">
        <ele>858</ele>
        <time>2024-02-04T12:31:49Z</time>
      </trkpt>
      <trkpt lat="42.84713" lon="1.20554">
        <ele>858</ele>
        <time>2024-02-04T12:31:50Z</time>
      </trkpt>
      <trkpt lat="42.84704" lon="1.20558">
        <ele>857.6</ele>
        <time>2024-02-04T12:31:53Z</time>
      </trkpt>
      <trkpt lat="42.84702" lon="1.20558">
        <ele>857.2</ele>
        <time>2024-02-04T12:31:54Z</time>
      </trkpt>
      <trkpt lat="42.84701" lon="1.20559">
        <ele>856.8</ele>
        <time>2024-02-04T12:31:55Z</time>
      </trkpt>
      <trkpt lat="42.84698" lon="1.20559">
        <ele>856.4</ele>
        <time>2024-02-04T12:31:56Z</time>
      </trkpt>
      <trkpt lat="42.84696" lon="1.2056">
        <ele>856</ele>
        <time>2024-02-04T12:31:57Z</time>
      </trkpt>
      <trkpt lat="42.84692" lon="1.2056">
        <ele>856</ele>
        <time>2024-02-04T12:31:59Z</time>
      </trkpt>
      <trkpt lat="42.84683" lon="1.20551">
        <ele>856</ele>
        <time>2024-02-04T12:32:02Z</time>
      </trkpt>
      <trkpt lat="42.8468" lon="1.20548">
        <ele>855.2</ele>
        <time>2024-02-04T12:32:03Z</time>
      </trkpt>
      <trkpt lat="42.84678" lon="1.20545">
        <ele>854.8</ele>
        <time>2024-02-04T12:32:04Z</time>
      </trkpt>
      <trkpt lat="42.84675" lon="1.20542">
        <ele>854.2</ele>
        <time>2024-02-04T12:32:05Z</time>
      </trkpt>
      <trkpt lat="42.84675" lon="1.20538">
        <ele>853.6</ele>
        <time>2024-02-04T12:32:06Z</time>
      </trkpt>
      <trkpt lat="42.84674" lon="1.20532">
        <ele>853</ele>
        <time>2024-02-04T12:32:07Z</time>
      </trkpt>
      <trkpt lat="42.84675" lon="1.20527">
        <ele>852.6</ele>
        <time>2024-02-04T12:32:08Z</time>
      </trkpt>
      <trkpt lat="42.84676" lon="1.20521">
        <ele>852</ele>
        <time>2024-02-04T12:32:09Z</time>
      </trkpt>
      <trkpt lat="42.84677" lon="1.20515">
        <ele>852</ele>
        <time>2024-02-04T12:32:10Z</time>
      </trkpt>
      <trkpt lat="42.84677" lon="1.20509">
        <ele>851.6</ele>
        <time>2024-02-04T12:32:11Z</time>
      </trkpt>
      <trkpt lat="42.84677" lon="1.20502">
        <ele>851</ele>
        <time>2024-02-04T12:32:12Z</time>
      </trkpt>
      <trkpt lat="42.84676" lon="1.20494">
        <ele>850.6</ele>
        <time>2024-02-04T12:32:13Z</time>
      </trkpt>
      <trkpt lat="42.84675" lon="1.20487">
        <ele>850.2</ele>
        <time>2024-02-04T12:32:14Z</time>
      </trkpt>
      <trkpt lat="42.84673" lon="1.20478">
        <ele>849.6</ele>
        <time>2024-02-04T12:32:15Z</time>
      </trkpt>
      <trkpt lat="42.84675" lon="1.2047">
        <ele>849.2</ele>
        <time>2024-02-04T12:32:16Z</time>
      </trkpt>
      <trkpt lat="42.84676" lon="1.20464">
        <ele>848.8</ele>
        <time>2024-02-04T12:32:17Z</time>
      </trkpt>
      <trkpt lat="42.84677" lon="1.20462">
        <ele>848.4</ele>
        <time>2024-02-04T12:32:18Z</time>
      </trkpt>
      <trkpt lat="42.84678" lon="1.20461">
        <ele>848</ele>
        <time>2024-02-04T12:32:19Z</time>
      </trkpt>
      <trkpt lat="42.84679" lon="1.20459">
        <ele>847.6</ele>
        <time>2024-02-04T12:32:20Z</time>
      </trkpt>
      <trkpt lat="42.84681" lon="1.20454">
        <ele>847.6</ele>
        <time>2024-02-04T12:32:21Z</time>
      </trkpt>
      <trkpt lat="42.84684" lon="1.20437">
        <ele>847.2</ele>
        <time>2024-02-04T12:32:24Z</time>
      </trkpt>
      <trkpt lat="42.84685" lon="1.20431">
        <ele>846.8</ele>
        <time>2024-02-04T12:32:25Z</time>
      </trkpt>
      <trkpt lat="42.84686" lon="1.20427">
        <ele>846.2</ele>
        <time>2024-02-04T12:32:26Z</time>
      </trkpt>
      <trkpt lat="42.84687" lon="1.20424">
        <ele>845.8</ele>
        <time>2024-02-04T12:32:27Z</time>
      </trkpt>
      <trkpt lat="42.84688" lon="1.20421">
        <ele>844.8</ele>
        <time>2024-02-04T12:32:28Z</time>
      </trkpt>
      <trkpt lat="42.84689" lon="1.20417">
        <ele>844.2</ele>
        <time>2024-02-04T12:32:29Z</time>
      </trkpt>
      <trkpt lat="42.84689" lon="1.20411">
        <ele>843.8</ele>
        <time>2024-02-04T12:32:30Z</time>
      </trkpt>
      <trkpt lat="42.84688" lon="1.20407">
        <ele>843.2</ele>
        <time>2024-02-04T12:32:31Z</time>
      </trkpt>
      <trkpt lat="42.84688" lon="1.20403">
        <ele>843.2</ele>
        <time>2024-02-04T12:32:32Z</time>
      </trkpt>
      <trkpt lat="42.84688" lon="1.20391">
        <ele>843.2</ele>
        <time>2024-02-04T12:32:35Z</time>
      </trkpt>
      <trkpt lat="42.84689" lon="1.20387">
        <ele>842.8</ele>
        <time>2024-02-04T12:32:36Z</time>
      </trkpt>
      <trkpt lat="42.8469" lon="1.20382">
        <ele>842.2</ele>
        <time>2024-02-04T12:32:37Z</time>
      </trkpt>
      <trkpt lat="42.84691" lon="1.20374">
        <ele>841.8</ele>
        <time>2024-02-04T12:32:38Z</time>
      </trkpt>
      <trkpt lat="42.84691" lon="1.20365">
        <ele>841.2</ele>
        <time>2024-02-04T12:32:39Z</time>
      </trkpt>
      <trkpt lat="42.84692" lon="1.20357">
        <ele>840.6</ele>
        <time>2024-02-04T12:32:40Z</time>
      </trkpt>
      <trkpt lat="42.84693" lon="1.20348">
        <ele>840</ele>
        <time>2024-02-04T12:32:41Z</time>
      </trkpt>
      <trkpt lat="42.84695" lon="1.20337">
        <ele>839.4</ele>
        <time>2024-02-04T12:32:42Z</time>
      </trkpt>
      <trkpt lat="42.84697" lon="1.20328">
        <ele>838.6</ele>
        <time>2024-02-04T12:32:43Z</time>
      </trkpt>
      <trkpt lat="42.84698" lon="1.20319">
        <ele>838</ele>
        <time>2024-02-04T12:32:44Z</time>
      </trkpt>
      <trkpt lat="42.847" lon="1.20313">
        <ele>837.2</ele>
        <time>2024-02-04T12:32:45Z</time>
      </trkpt>
      <trkpt lat="42.84702" lon="1.20307">
        <ele>836.4</ele>
        <time>2024-02-04T12:32:46Z</time>
      </trkpt>
      <trkpt lat="42.84703" lon="1.20301">
        <ele>835.6</ele>
        <time>2024-02-04T12:32:47Z</time>
      </trkpt>
      <trkpt lat="42.84705" lon="1.20294">
        <ele>834.8</ele>
        <time>2024-02-04T12:32:48Z</time>
      </trkpt>
      <trkpt lat="42.84706" lon="1.20288">
        <ele>834.2</ele>
        <time>2024-02-04T12:32:49Z</time>
      </trkpt>
      <trkpt lat="42.84706" lon="1.20279">
        <ele>833.4</ele>
        <time>2024-02-04T12:32:50Z</time>
      </trkpt>
      <trkpt lat="42.84706" lon="1.20272">
        <ele>832.6</ele>
        <time>2024-02-04T12:32:51Z</time>
      </trkpt>
      <trkpt lat="42.84705" lon="1.20264">
        <ele>831</ele>
        <time>2024-02-04T12:32:52Z</time>
      </trkpt>
      <trkpt lat="42.84704" lon="1.20255">
        <ele>830.2</ele>
        <time>2024-02-04T12:32:53Z</time>
      </trkpt>
      <trkpt lat="42.84702" lon="1.20246">
        <ele>829.4</ele>
        <time>2024-02-04T12:32:54Z</time>
      </trkpt>
      <trkpt lat="42.84699" lon="1.20238">
        <ele>828.6</ele>
        <time>2024-02-04T12:32:55Z</time>
      </trkpt>
      <trkpt lat="42.84696" lon="1.20229">
        <ele>827.8</ele>
        <time>2024-02-04T12:32:56Z</time>
      </trkpt>
      <trkpt lat="42.84693" lon="1.20221">
        <ele>827</ele>
        <time>2024-02-04T12:32:57Z</time>
      </trkpt>
      <trkpt lat="42.8469" lon="1.20212">
        <ele>826.2</ele>
        <time>2024-02-04T12:32:58Z</time>
      </trkpt>
      <trkpt lat="42.84685" lon="1.20203">
        <ele>825.6</ele>
        <time>2024-02-04T12:32:59Z</time>
      </trkpt>
      <trkpt lat="42.8468" lon="1.20194">
        <ele>824.8</ele>
        <time>2024-02-04T12:33:00Z</time>
      </trkpt>
      <trkpt lat="42.84674" lon="1.20186">
        <ele>824</ele>
        <time>2024-02-04T12:33:01Z</time>
      </trkpt>
      <trkpt lat="42.84669" lon="1.20179">
        <ele>823.4</ele>
        <time>2024-02-04T12:33:02Z</time>
      </trkpt>
      <trkpt lat="42.84664" lon="1.20174">
        <ele>822.6</ele>
        <time>2024-02-04T12:33:03Z</time>
      </trkpt>
      <trkpt lat="42.84659" lon="1.20171">
        <ele>822</ele>
        <time>2024-02-04T12:33:04Z</time>
      </trkpt>
      <trkpt lat="42.84655" lon="1.20163">
        <ele>821.2</ele>
        <time>2024-02-04T12:33:05Z</time>
      </trkpt>
      <trkpt lat="42.84651" lon="1.20159">
        <ele>820.4</ele>
        <time>2024-02-04T12:33:06Z</time>
      </trkpt>
      <trkpt lat="42.84646" lon="1.20153">
        <ele>819.8</ele>
        <time>2024-02-04T12:33:07Z</time>
      </trkpt>
      <trkpt lat="42.84643" lon="1.20148">
        <ele>819.2</ele>
        <time>2024-02-04T12:33:08Z</time>
      </trkpt>
      <trkpt lat="42.84639" lon="1.20142">
        <ele>818.6</ele>
        <time>2024-02-04T12:33:09Z</time>
      </trkpt>
      <trkpt lat="42.84637" lon="1.20139">
        <ele>818</ele>
        <time>2024-02-04T12:33:10Z</time>
      </trkpt>
      <trkpt lat="42.84635" lon="1.20134">
        <ele>817.4</ele>
        <time>2024-02-04T12:33:11Z</time>
      </trkpt>
      <trkpt lat="42.84632" lon="1.20129">
        <ele>816.8</ele>
        <time>2024-02-04T12:33:12Z</time>
      </trkpt>
      <trkpt lat="42.84629" lon="1.20124">
        <ele>816.4</ele>
        <time>2024-02-04T12:33:13Z</time>
      </trkpt>
      <trkpt lat="42.84628" lon="1.2012">
        <ele>815.8</ele>
        <time>2024-02-04T12:33:14Z</time>
      </trkpt>
      <trkpt lat="42.84625" lon="1.20114">
        <ele>815.2</ele>
        <time>2024-02-04T12:33:15Z</time>
      </trkpt>
      <trkpt lat="42.84623" lon="1.20106">
        <ele>814.8</ele>
        <time>2024-02-04T12:33:16Z</time>
      </trkpt>
      <trkpt lat="42.84623" lon="1.20099">
        <ele>813.8</ele>
        <time>2024-02-04T12:33:17Z</time>
      </trkpt>
      <trkpt lat="42.84623" lon="1.20094">
        <ele>813.2</ele>
        <time>2024-02-04T12:33:18Z</time>
      </trkpt>
      <trkpt lat="42.84623" lon="1.20088">
        <ele>812.6</ele>
        <time>2024-02-04T12:33:19Z</time>
      </trkpt>
      <trkpt lat="42.84625" lon="1.20084">
        <ele>812</ele>
        <time>2024-02-04T12:33:20Z</time>
      </trkpt>
      <trkpt lat="42.84626" lon="1.20081">
        <ele>811.2</ele>
        <time>2024-02-04T12:33:21Z</time>
      </trkpt>
      <trkpt lat="42.84628" lon="1.20077">
        <ele>810.6</ele>
        <time>2024-02-04T12:33:22Z</time>
      </trkpt>
      <trkpt lat="42.8463" lon="1.20073">
        <ele>810</ele>
        <time>2024-02-04T12:33:23Z</time>
      </trkpt>
      <trkpt lat="42.84632" lon="1.20068">
        <ele>809.4</ele>
        <time>2024-02-04T12:33:24Z</time>
      </trkpt>
      <trkpt lat="42.84633" lon="1.20063">
        <ele>808.6</ele>
        <time>2024-02-04T12:33:25Z</time>
      </trkpt>
      <trkpt lat="42.84633" lon="1.20058">
        <ele>808</ele>
        <time>2024-02-04T12:33:26Z</time>
      </trkpt>
      <trkpt lat="42.84635" lon="1.20054">
        <ele>807.4</ele>
        <time>2024-02-04T12:33:27Z</time>
      </trkpt>
      <trkpt lat="42.84636" lon="1.20044">
        <ele>807</ele>
        <time>2024-02-04T12:33:29Z</time>
      </trkpt>
      <trkpt lat="42.84638" lon="1.20038">
        <ele>806.4</ele>
        <time>2024-02-04T12:33:30Z</time>
      </trkpt>
      <trkpt lat="42.84639" lon="1.20033">
        <ele>806</ele>
        <time>2024-02-04T12:33:31Z</time>
      </trkpt>
      <trkpt lat="42.84638" lon="1.20028">
        <ele>805.4</ele>
        <time>2024-02-04T12:33:32Z</time>
      </trkpt>
      <trkpt lat="42.84637" lon="1.20025">
        <ele>805</ele>
        <time>2024-02-04T12:33:33Z</time>
      </trkpt>
      <trkpt lat="42.84638" lon="1.20022">
        <ele>805</ele>
        <time>2024-02-04T12:33:34Z</time>
      </trkpt>
      <trkpt lat="42.84638" lon="1.20016">
        <ele>804.6</ele>
        <time>2024-02-04T12:33:37Z</time>
      </trkpt>
      <trkpt lat="42.84638" lon="1.20013">
        <ele>804.2</ele>
        <time>2024-02-04T12:33:38Z</time>
      </trkpt>
      <trkpt lat="42.84639" lon="1.20012">
        <ele>803.8</ele>
        <time>2024-02-04T12:33:39Z</time>
      </trkpt>
      <trkpt lat="42.84637" lon="1.20003">
        <ele>802.8</ele>
        <time>2024-02-04T12:34:04Z</time>
      </trkpt>
      <trkpt lat="42.84636" lon="1.20009">
        <ele>802.4</ele>
        <time>2024-02-04T12:34:06Z</time>
      </trkpt>
      <trkpt lat="42.84635" lon="1.20014">
        <ele>801.6</ele>
        <time>2024-02-04T12:34:07Z</time>
      </trkpt>
      <trkpt lat="42.84633" lon="1.20018">
        <ele>801.2</ele>
        <time>2024-02-04T12:34:08Z</time>
      </trkpt>
      <trkpt lat="42.84633" lon="1.20024">
        <ele>800.8</ele>
        <time>2024-02-04T12:34:09Z</time>
      </trkpt>
      <trkpt lat="42.84634" lon="1.20035">
        <ele>800.4</ele>
        <time>2024-02-04T12:34:11Z</time>
      </trkpt>
      <trkpt lat="42.84634" lon="1.20043">
        <ele>800</ele>
        <time>2024-02-04T12:34:12Z</time>
      </trkpt>
      <trkpt lat="42.84635" lon="1.20051">
        <ele>799.4</ele>
        <time>2024-02-04T12:34:13Z</time>
      </trkpt>
      <trkpt lat="42.84635" lon="1.20058">
        <ele>799</ele>
        <time>2024-02-04T12:34:14Z</time>
      </trkpt>
      <trkpt lat="42.84636" lon="1.20065">
        <ele>798.4</ele>
        <time>2024-02-04T12:34:15Z</time>
      </trkpt>
      <trkpt lat="42.84635" lon="1.20069">
        <ele>798</ele>
        <time>2024-02-04T12:34:16Z</time>
      </trkpt>
      <trkpt lat="42.84635" lon="1.20072">
        <ele>797.4</ele>
        <time>2024-02-04T12:34:17Z</time>
      </trkpt>
      <trkpt lat="42.84634" lon="1.20076">
        <ele>797</ele>
        <time>2024-02-04T12:34:18Z</time>
      </trkpt>
      <trkpt lat="42.84634" lon="1.20077">
        <ele>796.4</ele>
        <time>2024-02-04T12:34:19Z</time>
      </trkpt>
      <trkpt lat="42.84635" lon="1.20077">
        <ele>795.8</ele>
        <time>2024-02-04T12:34:20Z</time>
      </trkpt>
      <trkpt lat="42.84638" lon="1.20077">
        <ele>795.2</ele>
        <time>2024-02-04T12:34:21Z</time>
      </trkpt>
      <trkpt lat="42.8464" lon="1.2008">
        <ele>794.6</ele>
        <time>2024-02-04T12:34:22Z</time>
      </trkpt>
      <trkpt lat="42.84645" lon="1.20083">
        <ele>794</ele>
        <time>2024-02-04T12:34:23Z</time>
      </trkpt>
      <trkpt lat="42.8465" lon="1.20085">
        <ele>793.6</ele>
        <time>2024-02-04T12:34:24Z</time>
      </trkpt>
      <trkpt lat="42.84656" lon="1.20089">
        <ele>793.2</ele>
        <time>2024-02-04T12:34:25Z</time>
      </trkpt>
      <trkpt lat="42.84663" lon="1.20091">
        <ele>792.8</ele>
        <time>2024-02-04T12:34:26Z</time>
      </trkpt>
      <trkpt lat="42.84669" lon="1.20092">
        <ele>792</ele>
        <time>2024-02-04T12:34:27Z</time>
      </trkpt>
      <trkpt lat="42.84676" lon="1.20095">
        <ele>791.4</ele>
        <time>2024-02-04T12:34:28Z</time>
      </trkpt>
      <trkpt lat="42.84682" lon="1.20097">
        <ele>790.6</ele>
        <time>2024-02-04T12:34:29Z</time>
      </trkpt>
      <trkpt lat="42.84685" lon="1.20101">
        <ele>790</ele>
        <time>2024-02-04T12:34:30Z</time>
      </trkpt>
      <trkpt lat="42.84691" lon="1.20104">
        <ele>789.2</ele>
        <time>2024-02-04T12:34:31Z</time>
      </trkpt>
      <trkpt lat="42.84696" lon="1.20106">
        <ele>787.8</ele>
        <time>2024-02-04T12:34:32Z</time>
      </trkpt>
      <trkpt lat="42.84703" lon="1.20107">
        <ele>787</ele>
        <time>2024-02-04T12:34:33Z</time>
      </trkpt>
      <trkpt lat="42.84709" lon="1.20108">
        <ele>786.4</ele>
        <time>2024-02-04T12:34:34Z</time>
      </trkpt>
      <trkpt lat="42.84716" lon="1.20109">
        <ele>785.6</ele>
        <time>2024-02-04T12:34:35Z</time>
      </trkpt>
      <trkpt lat="42.84723" lon="1.2011">
        <ele>784.8</ele>
        <time>2024-02-04T12:34:36Z</time>
      </trkpt>
      <trkpt lat="42.84729" lon="1.20111">
        <ele>784</ele>
        <time>2024-02-04T12:34:37Z</time>
      </trkpt>
      <trkpt lat="42.84733" lon="1.20113">
        <ele>783.2</ele>
        <time>2024-02-04T12:34:38Z</time>
      </trkpt>
      <trkpt lat="42.84738" lon="1.20115">
        <ele>782.4</ele>
        <time>2024-02-04T12:34:39Z</time>
      </trkpt>
      <trkpt lat="42.84742" lon="1.2012">
        <ele>781.6</ele>
        <time>2024-02-04T12:34:40Z</time>
      </trkpt>
      <trkpt lat="42.84744" lon="1.20122">
        <ele>780.8</ele>
        <time>2024-02-04T12:34:41Z</time>
      </trkpt>
      <trkpt lat="42.84748" lon="1.20127">
        <ele>780.2</ele>
        <time>2024-02-04T12:34:42Z</time>
      </trkpt>
      <trkpt lat="42.84752" lon="1.20131">
        <ele>779.6</ele>
        <time>2024-02-04T12:34:43Z</time>
      </trkpt>
      <trkpt lat="42.84755" lon="1.20139">
        <ele>779</ele>
        <time>2024-02-04T12:34:44Z</time>
      </trkpt>
      <trkpt lat="42.84757" lon="1.20147">
        <ele>778.4</ele>
        <time>2024-02-04T12:34:45Z</time>
      </trkpt>
      <trkpt lat="42.84759" lon="1.20158">
        <ele>777.8</ele>
        <time>2024-02-04T12:34:46Z</time>
      </trkpt>
      <trkpt lat="42.84762" lon="1.2017">
        <ele>777.2</ele>
        <time>2024-02-04T12:34:47Z</time>
      </trkpt>
      <trkpt lat="42.84764" lon="1.2018">
        <ele>776.6</ele>
        <time>2024-02-04T12:34:48Z</time>
      </trkpt>
      <trkpt lat="42.84766" lon="1.20192">
        <ele>776</ele>
        <time>2024-02-04T12:34:49Z</time>
      </trkpt>
      <trkpt lat="42.84768" lon="1.20202">
        <ele>775.2</ele>
        <time>2024-02-04T12:34:50Z</time>
      </trkpt>
      <trkpt lat="42.84771" lon="1.2021">
        <ele>774.6</ele>
        <time>2024-02-04T12:34:51Z</time>
      </trkpt>
      <trkpt lat="42.84774" lon="1.20216">
        <ele>774</ele>
        <time>2024-02-04T12:34:52Z</time>
      </trkpt>
      <trkpt lat="42.84776" lon="1.20223">
        <ele>773.4</ele>
        <time>2024-02-04T12:34:53Z</time>
      </trkpt>
      <trkpt lat="42.84777" lon="1.20229">
        <ele>772.8</ele>
        <time>2024-02-04T12:34:54Z</time>
      </trkpt>
      <trkpt lat="42.84778" lon="1.20231">
        <ele>772</ele>
        <time>2024-02-04T12:34:55Z</time>
      </trkpt>
      <trkpt lat="42.84779" lon="1.20233">
        <ele>770.8</ele>
        <time>2024-02-04T12:34:56Z</time>
      </trkpt>
      <trkpt lat="42.84782" lon="1.20226">
        <ele>770.4</ele>
        <time>2024-02-04T12:34:58Z</time>
      </trkpt>
      <trkpt lat="42.84784" lon="1.20222">
        <ele>770</ele>
        <time>2024-02-04T12:34:59Z</time>
      </trkpt>
      <trkpt lat="42.84786" lon="1.20215">
        <ele>769.4</ele>
        <time>2024-02-04T12:35:00Z</time>
      </trkpt>
      <trkpt lat="42.84788" lon="1.20208">
        <ele>769</ele>
        <time>2024-02-04T12:35:01Z</time>
      </trkpt>
      <trkpt lat="42.8479" lon="1.20199">
        <ele>768.6</ele>
        <time>2024-02-04T12:35:02Z</time>
      </trkpt>
      <trkpt lat="42.8479" lon="1.20189">
        <ele>768.2</ele>
        <time>2024-02-04T12:35:03Z</time>
      </trkpt>
      <trkpt lat="42.84792" lon="1.20179">
        <ele>767.8</ele>
        <time>2024-02-04T12:35:04Z</time>
      </trkpt>
      <trkpt lat="42.84791" lon="1.20168">
        <ele>767.2</ele>
        <time>2024-02-04T12:35:05Z</time>
      </trkpt>
      <trkpt lat="42.84791" lon="1.20159">
        <ele>766.6</ele>
        <time>2024-02-04T12:35:06Z</time>
      </trkpt>
      <trkpt lat="42.84791" lon="1.20149">
        <ele>766</ele>
        <time>2024-02-04T12:35:07Z</time>
      </trkpt>
      <trkpt lat="42.8479" lon="1.20138">
        <ele>765.4</ele>
        <time>2024-02-04T12:35:08Z</time>
      </trkpt>
      <trkpt lat="42.84789" lon="1.20127">
        <ele>764.8</ele>
        <time>2024-02-04T12:35:09Z</time>
      </trkpt>
      <trkpt lat="42.84787" lon="1.20116">
        <ele>764</ele>
        <time>2024-02-04T12:35:10Z</time>
      </trkpt>
      <trkpt lat="42.84786" lon="1.20107">
        <ele>763.2</ele>
        <time>2024-02-04T12:35:11Z</time>
      </trkpt>
      <trkpt lat="42.84784" lon="1.20099">
        <ele>762.4</ele>
        <time>2024-02-04T12:35:12Z</time>
      </trkpt>
      <trkpt lat="42.84782" lon="1.20093">
        <ele>761.6</ele>
        <time>2024-02-04T12:35:13Z</time>
      </trkpt>
      <trkpt lat="42.84779" lon="1.20088">
        <ele>760.8</ele>
        <time>2024-02-04T12:35:14Z</time>
      </trkpt>
      <trkpt lat="42.84775" lon="1.20084">
        <ele>760</ele>
        <time>2024-02-04T12:35:15Z</time>
      </trkpt>
      <trkpt lat="42.84771" lon="1.2008">
        <ele>759.4</ele>
        <time>2024-02-04T12:35:16Z</time>
      </trkpt>
      <trkpt lat="42.84765" lon="1.20075">
        <ele>758.6</ele>
        <time>2024-02-04T12:35:17Z</time>
      </trkpt>
      <trkpt lat="42.8476" lon="1.20071">
        <ele>758</ele>
        <time>2024-02-04T12:35:18Z</time>
      </trkpt>
      <trkpt lat="42.84756" lon="1.20067">
        <ele>757.2</ele>
        <time>2024-02-04T12:35:19Z</time>
      </trkpt>
      <trkpt lat="42.84751" lon="1.20062">
        <ele>756.6</ele>
        <time>2024-02-04T12:35:20Z</time>
      </trkpt>
      <trkpt lat="42.84743" lon="1.20056">
        <ele>755.6</ele>
        <time>2024-02-04T12:35:21Z</time>
      </trkpt>
      <trkpt lat="42.84736" lon="1.20049">
        <ele>755</ele>
        <time>2024-02-04T12:35:22Z</time>
      </trkpt>
      <trkpt lat="42.84729" lon="1.20043">
        <ele>754.4</ele>
        <time>2024-02-04T12:35:23Z</time>
      </trkpt>
      <trkpt lat="42.84723" lon="1.20039">
        <ele>753.8</ele>
        <time>2024-02-04T12:35:24Z</time>
      </trkpt>
      <trkpt lat="42.84719" lon="1.20035">
        <ele>753.2</ele>
        <time>2024-02-04T12:35:25Z</time>
      </trkpt>
      <trkpt lat="42.84715" lon="1.20032">
        <ele>752.6</ele>
        <time>2024-02-04T12:35:26Z</time>
      </trkpt>
      <trkpt lat="42.84712" lon="1.20028">
        <ele>752</ele>
        <time>2024-02-04T12:35:27Z</time>
      </trkpt>
      <trkpt lat="42.84712" lon="1.20027">
        <ele>751.2</ele>
        <time>2024-02-04T12:35:28Z</time>
      </trkpt>
      <trkpt lat="42.84712" lon="1.20024">
        <ele>750.6</ele>
        <time>2024-02-04T12:35:29Z</time>
      </trkpt>
      <trkpt lat="42.84712" lon="1.20022">
        <ele>750</ele>
        <time>2024-02-04T12:35:30Z</time>
      </trkpt>
      <trkpt lat="42.84713" lon="1.20021">
        <ele>749.4</ele>
        <time>2024-02-04T12:35:31Z</time>
      </trkpt>
      <trkpt lat="42.84714" lon="1.20018">
        <ele>749.4</ele>
        <time>2024-02-04T12:35:32Z</time>
      </trkpt>
      <trkpt lat="42.84716" lon="1.20011">
        <ele>749.4</ele>
        <time>2024-02-04T12:35:34Z</time>
      </trkpt>
      <trkpt lat="42.84719" lon="1.20003">
        <ele>749</ele>
        <time>2024-02-04T12:35:36Z</time>
      </trkpt>
      <trkpt lat="42.8472" lon="1.19996">
        <ele>748.6</ele>
        <time>2024-02-04T12:35:37Z</time>
      </trkpt>
      <trkpt lat="42.84722" lon="1.19988">
        <ele>748.2</ele>
        <time>2024-02-04T12:35:38Z</time>
      </trkpt>
      <trkpt lat="42.84723" lon="1.1998">
        <ele>747.8</ele>
        <time>2024-02-04T12:35:39Z</time>
      </trkpt>
      <trkpt lat="42.84726" lon="1.19973">
        <ele>747.2</ele>
        <time>2024-02-04T12:35:40Z</time>
      </trkpt>
      <trkpt lat="42.84728" lon="1.19965">
        <ele>746.6</ele>
        <time>2024-02-04T12:35:41Z</time>
      </trkpt>
      <trkpt lat="42.84729" lon="1.19956">
        <ele>746.2</ele>
        <time>2024-02-04T12:35:42Z</time>
      </trkpt>
      <trkpt lat="42.84727" lon="1.19948">
        <ele>745.4</ele>
        <time>2024-02-04T12:35:43Z</time>
      </trkpt>
      <trkpt lat="42.84725" lon="1.19939">
        <ele>744.8</ele>
        <time>2024-02-04T12:35:44Z</time>
      </trkpt>
      <trkpt lat="42.84722" lon="1.19929">
        <ele>744.2</ele>
        <time>2024-02-04T12:35:45Z</time>
      </trkpt>
      <trkpt lat="42.84719" lon="1.19919">
        <ele>743</ele>
        <time>2024-02-04T12:35:46Z</time>
      </trkpt>
      <trkpt lat="42.84715" lon="1.1991">
        <ele>742.2</ele>
        <time>2024-02-04T12:35:47Z</time>
      </trkpt>
      <trkpt lat="42.84711" lon="1.19901">
        <ele>741.6</ele>
        <time>2024-02-04T12:35:48Z</time>
      </trkpt>
      <trkpt lat="42.84706" lon="1.19891">
        <ele>741</ele>
        <time>2024-02-04T12:35:49Z</time>
      </trkpt>
      <trkpt lat="42.84702" lon="1.19882">
        <ele>740.4</ele>
        <time>2024-02-04T12:35:50Z</time>
      </trkpt>
      <trkpt lat="42.84697" lon="1.19873">
        <ele>739.6</ele>
        <time>2024-02-04T12:35:51Z</time>
      </trkpt>
      <trkpt lat="42.84692" lon="1.19864">
        <ele>739</ele>
        <time>2024-02-04T12:35:52Z</time>
      </trkpt>
      <trkpt lat="42.84687" lon="1.19857">
        <ele>738.4</ele>
        <time>2024-02-04T12:35:53Z</time>
      </trkpt>
      <trkpt lat="42.84682" lon="1.1985">
        <ele>737.6</ele>
        <time>2024-02-04T12:35:54Z</time>
      </trkpt>
      <trkpt lat="42.84677" lon="1.19843">
        <ele>737</ele>
        <time>2024-02-04T12:35:55Z</time>
      </trkpt>
      <trkpt lat="42.84672" lon="1.19836">
        <ele>736.2</ele>
        <time>2024-02-04T12:35:56Z</time>
      </trkpt>
      <trkpt lat="42.84659" lon="1.19816">
        <ele>735.8</ele>
        <time>2024-02-04T12:35:59Z</time>
      </trkpt>
      <trkpt lat="42.84656" lon="1.19809">
        <ele>735.4</ele>
        <time>2024-02-04T12:36:00Z</time>
      </trkpt>
      <trkpt lat="42.84654" lon="1.19804">
        <ele>735</ele>
        <time>2024-02-04T12:36:01Z</time>
      </trkpt>
      <trkpt lat="42.84652" lon="1.19802">
        <ele>734.6</ele>
        <time>2024-02-04T12:36:02Z</time>
      </trkpt>
      <trkpt lat="42.84651" lon="1.19801">
        <ele>734</ele>
        <time>2024-02-04T12:36:03Z</time>
      </trkpt>
      <trkpt lat="42.84646" lon="1.19794">
        <ele>734</ele>
        <time>2024-02-04T12:36:06Z</time>
      </trkpt>
      <trkpt lat="42.84643" lon="1.19782">
        <ele>734.6</ele>
        <time>2024-02-04T12:36:08Z</time>
      </trkpt>
      <trkpt lat="42.84642" lon="1.19775">
        <ele>735</ele>
        <time>2024-02-04T12:36:09Z</time>
      </trkpt>
      <trkpt lat="42.84642" lon="1.19768">
        <ele>735.8</ele>
        <time>2024-02-04T12:36:10Z</time>
      </trkpt>
      <trkpt lat="42.84642" lon="1.19761">
        <ele>736.2</ele>
        <time>2024-02-04T12:36:11Z</time>
      </trkpt>
      <trkpt lat="42.84641" lon="1.19743">
        <ele>736.2</ele>
        <time>2024-02-04T12:36:14Z</time>
      </trkpt>
      <trkpt lat="42.8464" lon="1.19721">
        <ele>736.2</ele>
        <time>2024-02-04T12:36:18Z</time>
      </trkpt>
      <trkpt lat="42.84645" lon="1.1969">
        <ele>736.2</ele>
        <time>2024-02-04T12:36:22Z</time>
      </trkpt>
      <trkpt lat="42.84647" lon="1.19682">
        <ele>736.2</ele>
        <time>2024-02-04T12:36:23Z</time>
      </trkpt>
      <trkpt lat="42.84649" lon="1.19675">
        <ele>735.8</ele>
        <time>2024-02-04T12:36:24Z</time>
      </trkpt>
      <trkpt lat="42.8465" lon="1.19666">
        <ele>735.4</ele>
        <time>2024-02-04T12:36:25Z</time>
      </trkpt>
      <trkpt lat="42.84649" lon="1.19659">
        <ele>735</ele>
        <time>2024-02-04T12:36:26Z</time>
      </trkpt>
      <trkpt lat="42.84647" lon="1.19655">
        <ele>734.2</ele>
        <time>2024-02-04T12:36:27Z</time>
      </trkpt>
      <trkpt lat="42.84644" lon="1.19651">
        <ele>733.6</ele>
        <time>2024-02-04T12:36:28Z</time>
      </trkpt>
      <trkpt lat="42.84642" lon="1.19648">
        <ele>732.8</ele>
        <time>2024-02-04T12:36:29Z</time>
      </trkpt>
      <trkpt lat="42.8464" lon="1.19644">
        <ele>732.2</ele>
        <time>2024-02-04T12:36:30Z</time>
      </trkpt>
      <trkpt lat="42.84635" lon="1.19641">
        <ele>731.6</ele>
        <time>2024-02-04T12:36:31Z</time>
      </trkpt>
      <trkpt lat="42.84628" lon="1.19642">
        <ele>730.8</ele>
        <time>2024-02-04T12:36:32Z</time>
      </trkpt>
      <trkpt lat="42.84623" lon="1.19642">
        <ele>730.2</ele>
        <time>2024-02-04T12:36:33Z</time>
      </trkpt>
      <trkpt lat="42.84619" lon="1.19642">
        <ele>729.6</ele>
        <time>2024-02-04T12:36:34Z</time>
      </trkpt>
      <trkpt lat="42.84616" lon="1.1964">
        <ele>728.2</ele>
        <time>2024-02-04T12:36:35Z</time>
      </trkpt>
      <trkpt lat="42.84611" lon="1.19637">
        <ele>727.4</ele>
        <time>2024-02-04T12:36:36Z</time>
      </trkpt>
      <trkpt lat="42.84609" lon="1.19633">
        <ele>726.6</ele>
        <time>2024-02-04T12:36:37Z</time>
      </trkpt>
      <trkpt lat="42.84607" lon="1.19629">
        <ele>725.6</ele>
        <time>2024-02-04T12:36:38Z</time>
      </trkpt>
      <trkpt lat="42.84604" lon="1.19625">
        <ele>724.8</ele>
        <time>2024-02-04T12:36:39Z</time>
      </trkpt>
      <trkpt lat="42.84601" lon="1.19621">
        <ele>723.8</ele>
        <time>2024-02-04T12:36:40Z</time>
      </trkpt>
      <trkpt lat="42.84598" lon="1.19617">
        <ele>722.8</ele>
        <time>2024-02-04T12:36:41Z</time>
      </trkpt>
      <trkpt lat="42.84594" lon="1.19612">
        <ele>721.6</ele>
        <time>2024-02-04T12:36:42Z</time>
      </trkpt>
      <trkpt lat="42.84588" lon="1.19609">
        <ele>720.6</ele>
        <time>2024-02-04T12:36:43Z</time>
      </trkpt>
      <trkpt lat="42.84583" lon="1.19607">
        <ele>719.6</ele>
        <time>2024-02-04T12:36:44Z</time>
      </trkpt>
      <trkpt lat="42.84576" lon="1.19605">
        <ele>718.4</ele>
        <time>2024-02-04T12:36:45Z</time>
      </trkpt>
      <trkpt lat="42.84569" lon="1.19602">
        <ele>717.2</ele>
        <time>2024-02-04T12:36:46Z</time>
      </trkpt>
      <trkpt lat="42.84563" lon="1.196">
        <ele>716.2</ele>
        <time>2024-02-04T12:36:47Z</time>
      </trkpt>
      <trkpt lat="42.84559" lon="1.19599">
        <ele>715.4</ele>
        <time>2024-02-04T12:36:48Z</time>
      </trkpt>
      <trkpt lat="42.84555" lon="1.19597">
        <ele>714.4</ele>
        <time>2024-02-04T12:36:49Z</time>
      </trkpt>
      <trkpt lat="42.84554" lon="1.19598">
        <ele>713.4</ele>
        <time>2024-02-04T12:36:50Z</time>
      </trkpt>
      <trkpt lat="42.84552" lon="1.19598">
        <ele>712.6</ele>
        <time>2024-02-04T12:36:51Z</time>
      </trkpt>
      <trkpt lat="42.84549" lon="1.19597">
        <ele>710</ele>
        <time>2024-02-04T12:37:01Z</time>
      </trkpt>
      <trkpt lat="42.84544" lon="1.19592">
        <ele>709.6</ele>
        <time>2024-02-04T12:37:04Z</time>
      </trkpt>
      <trkpt lat="42.84542" lon="1.19591">
        <ele>709.2</ele>
        <time>2024-02-04T12:37:05Z</time>
      </trkpt>
      <trkpt lat="42.84541" lon="1.19591">
        <ele>708.6</ele>
        <time>2024-02-04T12:37:06Z</time>
      </trkpt>
      <trkpt lat="42.84538" lon="1.1959">
        <ele>708.2</ele>
        <time>2024-02-04T12:37:07Z</time>
      </trkpt>
      <trkpt lat="42.84536" lon="1.19589">
        <ele>707.8</ele>
        <time>2024-02-04T12:37:08Z</time>
      </trkpt>
      <trkpt lat="42.84534" lon="1.19588">
        <ele>707.8</ele>
        <time>2024-02-04T12:37:09Z</time>
      </trkpt>
      <trkpt lat="42.84532" lon="1.19586">
        <ele>707.2</ele>
        <time>2024-02-04T12:37:10Z</time>
      </trkpt>
      <trkpt lat="42.8453" lon="1.19583">
        <ele>706.8</ele>
        <time>2024-02-04T12:37:11Z</time>
      </trkpt>
      <trkpt lat="42.84527" lon="1.19581">
        <ele>706.2</ele>
        <time>2024-02-04T12:37:12Z</time>
      </trkpt>
      <trkpt lat="42.84524" lon="1.1958">
        <ele>705.8</ele>
        <time>2024-02-04T12:37:13Z</time>
      </trkpt>
      <trkpt lat="42.84522" lon="1.1958">
        <ele>705</ele>
        <time>2024-02-04T12:37:14Z</time>
      </trkpt>
      <trkpt lat="42.8452" lon="1.19579">
        <ele>704.4</ele>
        <time>2024-02-04T12:37:15Z</time>
      </trkpt>
      <trkpt lat="42.84518" lon="1.19578">
        <ele>703.8</ele>
        <time>2024-02-04T12:37:16Z</time>
      </trkpt>
      <trkpt lat="42.84518" lon="1.19577">
        <ele>703</ele>
        <time>2024-02-04T12:37:17Z</time>
      </trkpt>
      <trkpt lat="42.84516" lon="1.19577">
        <ele>702.4</ele>
        <time>2024-02-04T12:39:15Z</time>
      </trkpt>
      <trkpt lat="42.84503" lon="1.19571">
        <ele>702.4</ele>
        <time>2024-02-04T12:39:18Z</time>
      </trkpt>
      <trkpt lat="42.84498" lon="1.19571">
        <ele>702</ele>
        <time>2024-02-04T12:39:20Z</time>
      </trkpt>
      <trkpt lat="42.84495" lon="1.1957">
        <ele>701.4</ele>
        <time>2024-02-04T12:39:21Z</time>
      </trkpt>
      <trkpt lat="42.84493" lon="1.19569">
        <ele>701</ele>
        <time>2024-02-04T12:39:22Z</time>
      </trkpt>
      <trkpt lat="42.84489" lon="1.19568">
        <ele>700.6</ele>
        <time>2024-02-04T12:39:23Z</time>
      </trkpt>
      <trkpt lat="42.84486" lon="1.19567">
        <ele>700.2</ele>
        <time>2024-02-04T12:39:24Z</time>
      </trkpt>
      <trkpt lat="42.84483" lon="1.19567">
        <ele>700.2</ele>
        <time>2024-02-04T12:39:25Z</time>
      </trkpt>
      <trkpt lat="42.84479" lon="1.19567">
        <ele>700.2</ele>
        <time>2024-02-04T12:39:26Z</time>
      </trkpt>
      <trkpt lat="42.84475" lon="1.19567">
        <ele>699.8</ele>
        <time>2024-02-04T12:39:27Z</time>
      </trkpt>
      <trkpt lat="42.84471" lon="1.19564">
        <ele>698.8</ele>
        <time>2024-02-04T12:39:28Z</time>
      </trkpt>
      <trkpt lat="42.84467" lon="1.19563">
        <ele>698.4</ele>
        <time>2024-02-04T12:39:29Z</time>
      </trkpt>
      <trkpt lat="42.84463" lon="1.19561">
        <ele>698</ele>
        <time>2024-02-04T12:39:30Z</time>
      </trkpt>
      <trkpt lat="42.84457" lon="1.19559">
        <ele>697.6</ele>
        <time>2024-02-04T12:39:32Z</time>
      </trkpt>
      <trkpt lat="42.84456" lon="1.19558">
        <ele>697.2</ele>
        <time>2024-02-04T12:39:33Z</time>
      </trkpt>
      <trkpt lat="42.84455" lon="1.19558">
        <ele>696.6</ele>
        <time>2024-02-04T12:39:34Z</time>
      </trkpt>
      <trkpt lat="42.84452" lon="1.19555">
        <ele>696.2</ele>
        <time>2024-02-04T12:39:35Z</time>
      </trkpt>
      <trkpt lat="42.8445" lon="1.19553">
        <ele>695.8</ele>
        <time>2024-02-04T12:39:36Z</time>
      </trkpt>
      <trkpt lat="42.84447" lon="1.19552">
        <ele>695.4</ele>
        <time>2024-02-04T12:39:37Z</time>
      </trkpt>
      <trkpt lat="42.84444" lon="1.19549">
        <ele>694.8</ele>
        <time>2024-02-04T12:39:38Z</time>
      </trkpt>
      <trkpt lat="42.84442" lon="1.19548">
        <ele>694.4</ele>
        <time>2024-02-04T12:39:39Z</time>
      </trkpt>
      <trkpt lat="42.8444" lon="1.19547">
        <ele>693.8</ele>
        <time>2024-02-04T12:39:40Z</time>
      </trkpt>
      <trkpt lat="42.84436" lon="1.19545">
        <ele>693.4</ele>
        <time>2024-02-04T12:39:41Z</time>
      </trkpt>
      <trkpt lat="42.84434" lon="1.19544">
        <ele>693</ele>
        <time>2024-02-04T12:39:42Z</time>
      </trkpt>
      <trkpt lat="42.8443" lon="1.19542">
        <ele>692.4</ele>
        <time>2024-02-04T12:39:43Z</time>
      </trkpt>
      <trkpt lat="42.84426" lon="1.1954">
        <ele>692</ele>
        <time>2024-02-04T12:39:44Z</time>
      </trkpt>
      <trkpt lat="42.84423" lon="1.19539">
        <ele>691.6</ele>
        <time>2024-02-04T12:39:45Z</time>
      </trkpt>
      <trkpt lat="42.8442" lon="1.19536">
        <ele>691.2</ele>
        <time>2024-02-04T12:39:46Z</time>
      </trkpt>
      <trkpt lat="42.84415" lon="1.19532">
        <ele>690.8</ele>
        <time>2024-02-04T12:39:48Z</time>
      </trkpt>
      <trkpt lat="42.84413" lon="1.1953">
        <ele>690.2</ele>
        <time>2024-02-04T12:39:49Z</time>
      </trkpt>
      <trkpt lat="42.84409" lon="1.19529">
        <ele>689.8</ele>
        <time>2024-02-04T12:39:50Z</time>
      </trkpt>
      <trkpt lat="42.84406" lon="1.19527">
        <ele>689.2</ele>
        <time>2024-02-04T12:39:51Z</time>
      </trkpt>
      <trkpt lat="42.84402" lon="1.19525">
        <ele>688.4</ele>
        <time>2024-02-04T12:39:52Z</time>
      </trkpt>
      <trkpt lat="42.84398" lon="1.19522">
        <ele>687.8</ele>
        <time>2024-02-04T12:39:53Z</time>
      </trkpt>
      <trkpt lat="42.84394" lon="1.19522">
        <ele>687.4</ele>
        <time>2024-02-04T12:39:54Z</time>
      </trkpt>
      <trkpt lat="42.84389" lon="1.19519">
        <ele>687</ele>
        <time>2024-02-04T12:39:55Z</time>
      </trkpt>
      <trkpt lat="42.84385" lon="1.19518">
        <ele>686.6</ele>
        <time>2024-02-04T12:39:56Z</time>
      </trkpt>
      <trkpt lat="42.84379" lon="1.19517">
        <ele>686</ele>
        <time>2024-02-04T12:39:57Z</time>
      </trkpt>
      <trkpt lat="42.84375" lon="1.19516">
        <ele>685.6</ele>
        <time>2024-02-04T12:39:58Z</time>
      </trkpt>
      <trkpt lat="42.8437" lon="1.19516">
        <ele>685</ele>
        <time>2024-02-04T12:39:59Z</time>
      </trkpt>
      <trkpt lat="42.84366" lon="1.19515">
        <ele>684.6</ele>
        <time>2024-02-04T12:40:00Z</time>
      </trkpt>
      <trkpt lat="42.84362" lon="1.19514">
        <ele>684.2</ele>
        <time>2024-02-04T12:40:01Z</time>
      </trkpt>
      <trkpt lat="42.8435" lon="1.19514">
        <ele>684.2</ele>
        <time>2024-02-04T12:40:05Z</time>
      </trkpt>
      <trkpt lat="42.84334" lon="1.19515">
        <ele>684.2</ele>
        <time>2024-02-04T12:40:09Z</time>
      </trkpt>
      <trkpt lat="42.84326" lon="1.19516">
        <ele>684.2</ele>
        <time>2024-02-04T12:40:11Z</time>
      </trkpt>
      <trkpt lat="42.84319" lon="1.19517">
        <ele>684.2</ele>
        <time>2024-02-04T12:40:13Z</time>
      </trkpt>
      <trkpt lat="42.84303" lon="1.1952">
        <ele>683.8</ele>
        <time>2024-02-04T12:40:17Z</time>
      </trkpt>
      <trkpt lat="42.84301" lon="1.1952">
        <ele>683.4</ele>
        <time>2024-02-04T12:40:18Z</time>
      </trkpt>
      <trkpt lat="42.84297" lon="1.1952">
        <ele>683</ele>
        <time>2024-02-04T12:40:19Z</time>
      </trkpt>
      <trkpt lat="42.84295" lon="1.1952">
        <ele>682.6</ele>
        <time>2024-02-04T12:40:20Z</time>
      </trkpt>
      <trkpt lat="42.84294" lon="1.1952">
        <ele>682.2</ele>
        <time>2024-02-04T12:40:21Z</time>
      </trkpt>
      <trkpt lat="42.84294" lon="1.19521">
        <ele>682.2</ele>
        <time>2024-02-04T12:40:22Z</time>
      </trkpt>
      <trkpt lat="42.84293" lon="1.19521">
        <ele>682.2</ele>
        <time>2024-02-04T12:40:23Z</time>
      </trkpt>
      <trkpt lat="42.84288" lon="1.19522">
        <ele>680.2</ele>
        <time>2024-02-04T12:40:37Z</time>
      </trkpt>
      <trkpt lat="42.84282" lon="1.19525">
        <ele>680.2</ele>
        <time>2024-02-04T12:40:39Z</time>
      </trkpt>
      <trkpt lat="42.84273" lon="1.19529">
        <ele>679.6</ele>
        <time>2024-02-04T12:40:41Z</time>
      </trkpt>
      <trkpt lat="42.84265" lon="1.1953">
        <ele>679.2</ele>
        <time>2024-02-04T12:40:42Z</time>
      </trkpt>
      <trkpt lat="42.8426" lon="1.1953">
        <ele>678.8</ele>
        <time>2024-02-04T12:40:43Z</time>
      </trkpt>
      <trkpt lat="42.84255" lon="1.19533">
        <ele>678.2</ele>
        <time>2024-02-04T12:40:44Z</time>
      </trkpt>
      <trkpt lat="42.8425" lon="1.19537">
        <ele>677.6</ele>
        <time>2024-02-04T12:40:45Z</time>
      </trkpt>
      <trkpt lat="42.84245" lon="1.19539">
        <ele>677</ele>
        <time>2024-02-04T12:40:46Z</time>
      </trkpt>
      <trkpt lat="42.8424" lon="1.19541">
        <ele>676.2</ele>
        <time>2024-02-04T12:40:47Z</time>
      </trkpt>
      <trkpt lat="42.84234" lon="1.19543">
        <ele>675.4</ele>
        <time>2024-02-04T12:40:48Z</time>
      </trkpt>
      <trkpt lat="42.84229" lon="1.19545">
        <ele>674.4</ele>
        <time>2024-02-04T12:40:49Z</time>
      </trkpt>
      <trkpt lat="42.84223" lon="1.19547">
        <ele>673.6</ele>
        <time>2024-02-04T12:40:50Z</time>
      </trkpt>
      <trkpt lat="42.84218" lon="1.19549">
        <ele>672.4</ele>
        <time>2024-02-04T12:40:51Z</time>
      </trkpt>
      <trkpt lat="42.84214" lon="1.1955">
        <ele>671.4</ele>
        <time>2024-02-04T12:40:52Z</time>
      </trkpt>
      <trkpt lat="42.8421" lon="1.19552">
        <ele>670.2</ele>
        <time>2024-02-04T12:40:53Z</time>
      </trkpt>
      <trkpt lat="42.84205" lon="1.19555">
        <ele>669</ele>
        <time>2024-02-04T12:40:54Z</time>
      </trkpt>
      <trkpt lat="42.84203" lon="1.19559">
        <ele>667.8</ele>
        <time>2024-02-04T12:40:55Z</time>
      </trkpt>
      <trkpt lat="42.842" lon="1.1956">
        <ele>666.6</ele>
        <time>2024-02-04T12:40:56Z</time>
      </trkpt>
      <trkpt lat="42.84197" lon="1.19558">
        <ele>665.4</ele>
        <time>2024-02-04T12:40:57Z</time>
      </trkpt>
      <trkpt lat="42.84196" lon="1.19557">
        <ele>664.2</ele>
        <time>2024-02-04T12:40:58Z</time>
      </trkpt>
      <trkpt lat="42.84195" lon="1.19557">
        <ele>663</ele>
        <time>2024-02-04T12:40:59Z</time>
      </trkpt>
      <trkpt lat="42.84194" lon="1.19557">
        <ele>661.8</ele>
        <time>2024-02-04T12:41:00Z</time>
      </trkpt>
      <trkpt lat="42.84193" lon="1.19555">
        <ele>661.2</ele>
        <time>2024-02-04T12:41:01Z</time>
      </trkpt>
      <trkpt lat="42.84194" lon="1.19551">
        <ele>660.4</ele>
        <time>2024-02-04T12:41:02Z</time>
      </trkpt>
      <trkpt lat="42.84197" lon="1.19547">
        <ele>659.8</ele>
        <time>2024-02-04T12:41:03Z</time>
      </trkpt>
      <trkpt lat="42.84196" lon="1.19544">
        <ele>659.2</ele>
        <time>2024-02-04T12:41:04Z</time>
      </trkpt>
      <trkpt lat="42.84197" lon="1.19541">
        <ele>658.4</ele>
        <time>2024-02-04T12:41:05Z</time>
      </trkpt>
      <trkpt lat="42.84203" lon="1.19535">
        <ele>658</ele>
        <time>2024-02-04T12:41:07Z</time>
      </trkpt>
      <trkpt lat="42.84205" lon="1.19532">
        <ele>657.6</ele>
        <time>2024-02-04T12:41:08Z</time>
      </trkpt>
      <trkpt lat="42.84209" lon="1.19528">
        <ele>657.2</ele>
        <time>2024-02-04T12:41:09Z</time>
      </trkpt>
      <trkpt lat="42.84214" lon="1.19524">
        <ele>656.8</ele>
        <time>2024-02-04T12:41:10Z</time>
      </trkpt>
      <trkpt lat="42.84219" lon="1.1952">
        <ele>656.4</ele>
        <time>2024-02-04T12:41:11Z</time>
      </trkpt>
      <trkpt lat="42.84222" lon="1.19517">
        <ele>656.4</ele>
        <time>2024-02-04T12:41:12Z</time>
      </trkpt>
      <trkpt lat="42.84225" lon="1.19514">
        <ele>656</ele>
        <time>2024-02-04T12:41:14Z</time>
      </trkpt>
      <trkpt lat="42.84224" lon="1.19514">
        <ele>655.6</ele>
        <time>2024-02-04T12:41:15Z</time>
      </trkpt>
      <trkpt lat="42.84226" lon="1.19512">
        <ele>655.2</ele>
        <time>2024-02-04T12:41:16Z</time>
      </trkpt>
      <trkpt lat="42.84229" lon="1.19511">
        <ele>654.8</ele>
        <time>2024-02-04T12:41:17Z</time>
      </trkpt>
      <trkpt lat="42.84231" lon="1.19507">
        <ele>654.4</ele>
        <time>2024-02-04T12:41:18Z</time>
      </trkpt>
      <trkpt lat="42.84228" lon="1.19506">
        <ele>654.4</ele>
        <time>2024-02-04T12:41:20Z</time>
      </trkpt>
      <trkpt lat="42.84229" lon="1.19506">
        <ele>654.4</ele>
        <time>2024-02-04T12:41:21Z</time>
      </trkpt>
      <trkpt lat="42.84229" lon="1.19501">
        <ele>654.4</ele>
        <time>2024-02-04T12:41:29Z</time>
      </trkpt>
      <trkpt lat="42.84231" lon="1.19497">
        <ele>654.4</ele>
        <time>2024-02-04T12:41:30Z</time>
      </trkpt>
      <trkpt lat="42.84234" lon="1.19489">
        <ele>654</ele>
        <time>2024-02-04T12:41:32Z</time>
      </trkpt>
      <trkpt lat="42.84235" lon="1.19485">
        <ele>653.6</ele>
        <time>2024-02-04T12:41:33Z</time>
      </trkpt>
      <trkpt lat="42.84237" lon="1.1948">
        <ele>653</ele>
        <time>2024-02-04T12:41:34Z</time>
      </trkpt>
      <trkpt lat="42.84237" lon="1.19478">
        <ele>652.6</ele>
        <time>2024-02-04T12:41:35Z</time>
      </trkpt>
      <trkpt lat="42.84239" lon="1.19474">
        <ele>652.2</ele>
        <time>2024-02-04T12:41:36Z</time>
      </trkpt>
      <trkpt lat="42.84249" lon="1.19464">
        <ele>651.8</ele>
        <time>2024-02-04T12:41:39Z</time>
      </trkpt>
      <trkpt lat="42.84254" lon="1.19462">
        <ele>651.4</ele>
        <time>2024-02-04T12:41:40Z</time>
      </trkpt>
      <trkpt lat="42.84258" lon="1.1946">
        <ele>651</ele>
        <time>2024-02-04T12:41:41Z</time>
      </trkpt>
      <trkpt lat="42.84261" lon="1.19459">
        <ele>650.6</ele>
        <time>2024-02-04T12:41:42Z</time>
      </trkpt>
      <trkpt lat="42.84264" lon="1.19459">
        <ele>650.2</ele>
        <time>2024-02-04T12:41:43Z</time>
      </trkpt>
      <trkpt lat="42.84265" lon="1.19459">
        <ele>650.2</ele>
        <time>2024-02-04T12:41:44Z</time>
      </trkpt>
      <trkpt lat="42.84266" lon="1.19456">
        <ele>650.2</ele>
        <time>2024-02-04T12:41:45Z</time>
      </trkpt>
      <trkpt lat="42.84265" lon="1.19454">
        <ele>649.8</ele>
        <time>2024-02-04T12:41:46Z</time>
      </trkpt>
      <trkpt lat="42.84264" lon="1.19454">
        <ele>649.4</ele>
        <time>2024-02-04T12:41:47Z</time>
      </trkpt>
      <trkpt lat="42.84263" lon="1.19454">
        <ele>648.8</ele>
        <time>2024-02-04T12:41:48Z</time>
      </trkpt>
      <trkpt lat="42.84261" lon="1.19453">
        <ele>648.4</ele>
        <time>2024-02-04T12:41:49Z</time>
      </trkpt>
      <trkpt lat="42.84256" lon="1.19451">
        <ele>648</ele>
        <time>2024-02-04T12:41:50Z</time>
      </trkpt>
      <trkpt lat="42.84252" lon="1.19447">
        <ele>647.6</ele>
        <time>2024-02-04T12:41:52Z</time>
      </trkpt>
      <trkpt lat="42.84251" lon="1.19444">
        <ele>647</ele>
        <time>2024-02-04T12:41:53Z</time>
      </trkpt>
      <trkpt lat="42.8425" lon="1.1944">
        <ele>646.6</ele>
        <time>2024-02-04T12:41:54Z</time>
      </trkpt>
      <trkpt lat="42.84249" lon="1.19436">
        <ele>645.2</ele>
        <time>2024-02-04T12:41:55Z</time>
      </trkpt>
      <trkpt lat="42.84248" lon="1.1943">
        <ele>644.4</ele>
        <time>2024-02-04T12:41:56Z</time>
      </trkpt>
      <trkpt lat="42.84249" lon="1.19424">
        <ele>643.4</ele>
        <time>2024-02-04T12:41:57Z</time>
      </trkpt>
      <trkpt lat="42.84247" lon="1.19421">
        <ele>642.4</ele>
        <time>2024-02-04T12:41:58Z</time>
      </trkpt>
      <trkpt lat="42.84247" lon="1.19418">
        <ele>641.4</ele>
        <time>2024-02-04T12:41:59Z</time>
      </trkpt>
      <trkpt lat="42.84246" lon="1.19415">
        <ele>640.2</ele>
        <time>2024-02-04T12:42:00Z</time>
      </trkpt>
      <trkpt lat="42.84246" lon="1.19413">
        <ele>639.2</ele>
        <time>2024-02-04T12:42:01Z</time>
      </trkpt>
      <trkpt lat="42.84246" lon="1.19411">
        <ele>638.4</ele>
        <time>2024-02-04T12:42:02Z</time>
      </trkpt>
      <trkpt lat="42.84246" lon="1.19408">
        <ele>637.4</ele>
        <time>2024-02-04T12:42:03Z</time>
      </trkpt>
      <trkpt lat="42.84246" lon="1.19406">
        <ele>636.4</ele>
        <time>2024-02-04T12:42:04Z</time>
      </trkpt>
      <trkpt lat="42.84246" lon="1.19404">
        <ele>635.4</ele>
        <time>2024-02-04T12:42:05Z</time>
      </trkpt>
      <trkpt lat="42.84246" lon="1.19403">
        <ele>635</ele>
        <time>2024-02-04T12:42:06Z</time>
      </trkpt>
      <trkpt lat="42.84247" lon="1.19401">
        <ele>634.6</ele>
        <time>2024-02-04T12:42:07Z</time>
      </trkpt>
      <trkpt lat="42.84247" lon="1.19399">
        <ele>634</ele>
        <time>2024-02-04T12:42:08Z</time>
      </trkpt>
      <trkpt lat="42.84247" lon="1.19398">
        <ele>633.6</ele>
        <time>2024-02-04T12:42:09Z</time>
      </trkpt>
      <trkpt lat="42.84246" lon="1.19397">
        <ele>633</ele>
        <time>2024-02-04T12:42:10Z</time>
      </trkpt>
      <trkpt lat="42.84244" lon="1.19397">
        <ele>633</ele>
        <time>2024-02-04T12:42:12Z</time>
      </trkpt>
      <trkpt lat="42.84243" lon="1.19398">
        <ele>633</ele>
        <time>2024-02-04T12:42:13Z</time>
      </trkpt>
      <trkpt lat="42.84236" lon="1.19395">
        <ele>633</ele>
        <time>2024-02-04T12:42:17Z</time>
      </trkpt>
      <trkpt lat="42.84235" lon="1.19393">
        <ele>633</ele>
        <time>2024-02-04T12:42:18Z</time>
      </trkpt>
      <trkpt lat="42.84233" lon="1.19393">
        <ele>633</ele>
        <time>2024-02-04T12:42:21Z</time>
      </trkpt>
      <trkpt lat="42.84231" lon="1.19394">
        <ele>633</ele>
        <time>2024-02-04T12:42:22Z</time>
      </trkpt>
      <trkpt lat="42.84227" lon="1.19402">
        <ele>633</ele>
        <time>2024-02-04T12:42:26Z</time>
      </trkpt>
      <trkpt lat="42.84224" lon="1.19401">
        <ele>633</ele>
        <time>2024-02-04T12:42:29Z</time>
      </trkpt>
      <trkpt lat="42.84225" lon="1.19398">
        <ele>633</ele>
        <time>2024-02-04T12:42:30Z</time>
      </trkpt>
      <trkpt lat="42.84233" lon="1.19394">
        <ele>633</ele>
        <time>2024-02-04T12:42:34Z</time>
      </trkpt>
      <trkpt lat="42.84238" lon="1.19387">
        <ele>633</ele>
        <time>2024-02-04T12:42:37Z</time>
      </trkpt>
      <trkpt lat="42.84238" lon="1.19387">
        <ele>633</ele>
        <time>2024-02-04T12:42:38Z</time>
      </trkpt>
      <trkpt lat="42.8424" lon="1.19385">
        <ele>632.6</ele>
        <time>2024-02-04T12:42:39Z</time>
      </trkpt>
      <trkpt lat="42.84241" lon="1.19383">
        <ele>632.2</ele>
        <time>2024-02-04T12:42:40Z</time>
      </trkpt>
      <trkpt lat="42.84241" lon="1.19382">
        <ele>631.8</ele>
        <time>2024-02-04T12:42:41Z</time>
      </trkpt>
      <trkpt lat="42.84242" lon="1.19381">
        <ele>631.4</ele>
        <time>2024-02-04T12:42:42Z</time>
      </trkpt>
      <trkpt lat="42.84244" lon="1.1938">
        <ele>631</ele>
        <time>2024-02-04T12:42:43Z</time>
      </trkpt>
      <trkpt lat="42.84251" lon="1.19376">
        <ele>630.4</ele>
        <time>2024-02-04T12:42:46Z</time>
      </trkpt>
      <trkpt lat="42.84251" lon="1.19374">
        <ele>630</ele>
        <time>2024-02-04T12:42:47Z</time>
      </trkpt>
      <trkpt lat="42.84252" lon="1.19372">
        <ele>629.6</ele>
        <time>2024-02-04T12:42:48Z</time>
      </trkpt>
      <trkpt lat="42.84252" lon="1.19371">
        <ele>629.2</ele>
        <time>2024-02-04T12:42:49Z</time>
      </trkpt>
      <trkpt lat="42.84251" lon="1.19369">
        <ele>628.8</ele>
        <time>2024-02-04T12:42:50Z</time>
      </trkpt>
      <trkpt lat="42.84249" lon="1.19369">
        <ele>628.4</ele>
        <time>2024-02-04T12:42:51Z</time>
      </trkpt>
      <trkpt lat="42.84249" lon="1.19367">
        <ele>628</ele>
        <time>2024-02-04T12:42:52Z</time>
      </trkpt>
      <trkpt lat="42.84248" lon="1.19364">
        <ele>627.6</ele>
        <time>2024-02-04T12:42:53Z</time>
      </trkpt>
      <trkpt lat="42.84248" lon="1.19361">
        <ele>627.2</ele>
        <time>2024-02-04T12:42:54Z</time>
      </trkpt>
      <trkpt lat="42.8425" lon="1.19361">
        <ele>626.8</ele>
        <time>2024-02-04T12:42:55Z</time>
      </trkpt>
      <trkpt lat="42.84251" lon="1.19359">
        <ele>626.8</ele>
        <time>2024-02-04T12:42:57Z</time>
      </trkpt>
      <trkpt lat="42.84251" lon="1.19347">
        <ele>624.8</ele>
        <time>2024-02-04T12:43:04Z</time>
      </trkpt>
      <trkpt lat="42.8425" lon="1.19342">
        <ele>624.4</ele>
        <time>2024-02-04T12:43:05Z</time>
      </trkpt>
      <trkpt lat="42.84251" lon="1.1934">
        <ele>623.8</ele>
        <time>2024-02-04T12:43:06Z</time>
      </trkpt>
      <trkpt lat="42.84251" lon="1.19337">
        <ele>623.4</ele>
        <time>2024-02-04T12:43:07Z</time>
      </trkpt>
      <trkpt lat="42.84252" lon="1.19332">
        <ele>623</ele>
        <time>2024-02-04T12:43:08Z</time>
      </trkpt>
      <trkpt lat="42.84252" lon="1.19327">
        <ele>621.8</ele>
        <time>2024-02-04T12:43:09Z</time>
      </trkpt>
      <trkpt lat="42.84252" lon="1.19323">
        <ele>621</ele>
        <time>2024-02-04T12:43:10Z</time>
      </trkpt>
      <trkpt lat="42.84251" lon="1.19319">
        <ele>620.4</ele>
        <time>2024-02-04T12:43:11Z</time>
      </trkpt>
      <trkpt lat="42.84253" lon="1.19314">
        <ele>619.6</ele>
        <time>2024-02-04T12:43:12Z</time>
      </trkpt>
      <trkpt lat="42.84254" lon="1.1931">
        <ele>618.8</ele>
        <time>2024-02-04T12:43:13Z</time>
      </trkpt>
      <trkpt lat="42.84254" lon="1.19304">
        <ele>618</ele>
        <time>2024-02-04T12:43:14Z</time>
      </trkpt>
      <trkpt lat="42.84256" lon="1.193">
        <ele>617.2</ele>
        <time>2024-02-04T12:43:15Z</time>
      </trkpt>
      <trkpt lat="42.84257" lon="1.19297">
        <ele>616.4</ele>
        <time>2024-02-04T12:43:16Z</time>
      </trkpt>
      <trkpt lat="42.84258" lon="1.19294">
        <ele>615.6</ele>
        <time>2024-02-04T12:43:17Z</time>
      </trkpt>
      <trkpt lat="42.84259" lon="1.19292">
        <ele>614.8</ele>
        <time>2024-02-04T12:43:18Z</time>
      </trkpt>
      <trkpt lat="42.84259" lon="1.1929">
        <ele>614</ele>
        <time>2024-02-04T12:43:19Z</time>
      </trkpt>
      <trkpt lat="42.8426" lon="1.19287">
        <ele>613.2</ele>
        <time>2024-02-04T12:43:20Z</time>
      </trkpt>
      <trkpt lat="42.84261" lon="1.19284">
        <ele>612.4</ele>
        <time>2024-02-04T12:43:21Z</time>
      </trkpt>
      <trkpt lat="42.84261" lon="1.19282">
        <ele>611.6</ele>
        <time>2024-02-04T12:43:22Z</time>
      </trkpt>
      <trkpt lat="42.84261" lon="1.19281">
        <ele>610.8</ele>
        <time>2024-02-04T12:43:23Z</time>
      </trkpt>
      <trkpt lat="42.84262" lon="1.19279">
        <ele>610.2</ele>
        <time>2024-02-04T12:43:24Z</time>
      </trkpt>
      <trkpt lat="42.84262" lon="1.19279">
        <ele>609.6</ele>
        <time>2024-02-04T12:43:25Z</time>
      </trkpt>
      <trkpt lat="42.84263" lon="1.19275">
        <ele>609</ele>
        <time>2024-02-04T12:43:26Z</time>
      </trkpt>
      <trkpt lat="42.84263" lon="1.19271">
        <ele>608.4</ele>
        <time>2024-02-04T12:43:27Z</time>
      </trkpt>
      <trkpt lat="42.84263" lon="1.19266">
        <ele>608</ele>
        <time>2024-02-04T12:43:28Z</time>
      </trkpt>
      <trkpt lat="42.84263" lon="1.19262">
        <ele>607.4</ele>
        <time>2024-02-04T12:43:29Z</time>
      </trkpt>
      <trkpt lat="42.84263" lon="1.19258">
        <ele>606.8</ele>
        <time>2024-02-04T12:43:30Z</time>
      </trkpt>
      <trkpt lat="42.84263" lon="1.19254">
        <ele>606</ele>
        <time>2024-02-04T12:43:31Z</time>
      </trkpt>
      <trkpt lat="42.84262" lon="1.1925">
        <ele>605.2</ele>
        <time>2024-02-04T12:43:32Z</time>
      </trkpt>
      <trkpt lat="42.84263" lon="1.19246">
        <ele>603.6</ele>
        <time>2024-02-04T12:43:33Z</time>
      </trkpt>
      <trkpt lat="42.84263" lon="1.19243">
        <ele>602.8</ele>
        <time>2024-02-04T12:43:34Z</time>
      </trkpt>
      <trkpt lat="42.84263" lon="1.1924">
        <ele>602</ele>
        <time>2024-02-04T12:43:35Z</time>
      </trkpt>
      <trkpt lat="42.84262" lon="1.19237">
        <ele>601.2</ele>
        <time>2024-02-04T12:43:36Z</time>
      </trkpt>
      <trkpt lat="42.84262" lon="1.19233">
        <ele>600.6</ele>
        <time>2024-02-04T12:43:37Z</time>
      </trkpt>
      <trkpt lat="42.84262" lon="1.1923">
        <ele>599.8</ele>
        <time>2024-02-04T12:43:38Z</time>
      </trkpt>
      <trkpt lat="42.84262" lon="1.19229">
        <ele>599</ele>
        <time>2024-02-04T12:43:39Z</time>
      </trkpt>
      <trkpt lat="42.84262" lon="1.19228">
        <ele>598.4</ele>
        <time>2024-02-04T12:43:40Z</time>
      </trkpt>
      <trkpt lat="42.84263" lon="1.19226">
        <ele>597.8</ele>
        <time>2024-02-04T12:43:41Z</time>
      </trkpt>
      <trkpt lat="42.84262" lon="1.19219">
        <ele>595.8</ele>
        <time>2024-02-04T12:43:52Z</time>
      </trkpt>
      <trkpt lat="42.84262" lon="1.19216">
        <ele>595.4</ele>
        <time>2024-02-04T12:43:53Z</time>
      </trkpt>
      <trkpt lat="42.84262" lon="1.19213">
        <ele>595</ele>
        <time>2024-02-04T12:43:54Z</time>
      </trkpt>
      <trkpt lat="42.84262" lon="1.1921">
        <ele>594.6</ele>
        <time>2024-02-04T12:43:55Z</time>
      </trkpt>
      <trkpt lat="42.84262" lon="1.19207">
        <ele>594.2</ele>
        <time>2024-02-04T12:43:56Z</time>
      </trkpt>
      <trkpt lat="42.84262" lon="1.19204">
        <ele>593.6</ele>
        <time>2024-02-04T12:43:57Z</time>
      </trkpt>
      <trkpt lat="42.84263" lon="1.19201">
        <ele>592.6</ele>
        <time>2024-02-04T12:43:58Z</time>
      </trkpt>
      <trkpt lat="42.84263" lon="1.19199">
        <ele>591.8</ele>
        <time>2024-02-04T12:43:59Z</time>
      </trkpt>
      <trkpt lat="42.84263" lon="1.19198">
        <ele>591.2</ele>
        <time>2024-02-04T12:44:00Z</time>
      </trkpt>
      <trkpt lat="42.84266" lon="1.19196">
        <ele>589</ele>
        <time>2024-02-04T12:44:04Z</time>
      </trkpt>
      <trkpt lat="42.84269" lon="1.19196">
        <ele>588.6</ele>
        <time>2024-02-04T12:44:05Z</time>
      </trkpt>
      <trkpt lat="42.84271" lon="1.19196">
        <ele>588.2</ele>
        <time>2024-02-04T12:44:06Z</time>
      </trkpt>
      <trkpt lat="42.84273" lon="1.19197">
        <ele>587.8</ele>
        <time>2024-02-04T12:44:07Z</time>
      </trkpt>
      <trkpt lat="42.84275" lon="1.19199">
        <ele>587.4</ele>
        <time>2024-02-04T12:44:08Z</time>
      </trkpt>
      <trkpt lat="42.84277" lon="1.19201">
        <ele>587</ele>
        <time>2024-02-04T12:44:09Z</time>
      </trkpt>
      <trkpt lat="42.84279" lon="1.19203">
        <ele>587</ele>
        <time>2024-02-04T12:44:10Z</time>
      </trkpt>
      <trkpt lat="42.84283" lon="1.19207">
        <ele>587</ele>
        <time>2024-02-04T12:44:13Z</time>
      </trkpt>
      <trkpt lat="42.84288" lon="1.19208">
        <ele>587</ele>
        <time>2024-02-04T12:44:15Z</time>
      </trkpt>
      <trkpt lat="42.84296" lon="1.19205">
        <ele>587</ele>
        <time>2024-02-04T12:44:19Z</time>
      </trkpt>
      <trkpt lat="42.84307" lon="1.19205">
        <ele>582.8</ele>
        <time>2024-02-04T12:49:27Z</time>
      </trkpt>
      <trkpt lat="42.8431" lon="1.19207">
        <ele>582.8</ele>
        <time>2024-02-04T12:49:29Z</time>
      </trkpt>
      <trkpt lat="42.84324" lon="1.19223">
        <ele>582.8</ele>
        <time>2024-02-04T12:49:34Z</time>
      </trkpt>
      <trkpt lat="42.84331" lon="1.19231">
        <ele>582.4</ele>
        <time>2024-02-04T12:49:36Z</time>
      </trkpt>
      <trkpt lat="42.84334" lon="1.19235">
        <ele>582</ele>
        <time>2024-02-04T12:49:37Z</time>
      </trkpt>
      <trkpt lat="42.84337" lon="1.19237">
        <ele>581.6</ele>
        <time>2024-02-04T12:49:38Z</time>
      </trkpt>
      <trkpt lat="42.8434" lon="1.19239">
        <ele>581.2</ele>
        <time>2024-02-04T12:49:39Z</time>
      </trkpt>
      <trkpt lat="42.84342" lon="1.19241">
        <ele>580.8</ele>
        <time>2024-02-04T12:49:40Z</time>
      </trkpt>
      <trkpt lat="42.84344" lon="1.19244">
        <ele>580.4</ele>
        <time>2024-02-04T12:49:41Z</time>
      </trkpt>
      <trkpt lat="42.84347" lon="1.19247">
        <ele>580</ele>
        <time>2024-02-04T12:49:42Z</time>
      </trkpt>
      <trkpt lat="42.8435" lon="1.1925">
        <ele>579.6</ele>
        <time>2024-02-04T12:49:43Z</time>
      </trkpt>
      <trkpt lat="42.84353" lon="1.19253">
        <ele>578.6</ele>
        <time>2024-02-04T12:49:44Z</time>
      </trkpt>
      <trkpt lat="42.84356" lon="1.19256">
        <ele>578.2</ele>
        <time>2024-02-04T12:49:45Z</time>
      </trkpt>
      <trkpt lat="42.8436" lon="1.1926">
        <ele>577.8</ele>
        <time>2024-02-04T12:49:46Z</time>
      </trkpt>
      <trkpt lat="42.84363" lon="1.19262">
        <ele>577.4</ele>
        <time>2024-02-04T12:49:47Z</time>
      </trkpt>
      <trkpt lat="42.84367" lon="1.19265">
        <ele>577</ele>
        <time>2024-02-04T12:49:48Z</time>
      </trkpt>
      <trkpt lat="42.84371" lon="1.19266">
        <ele>576.6</ele>
        <time>2024-02-04T12:49:49Z</time>
      </trkpt>
      <trkpt lat="42.84375" lon="1.19268">
        <ele>576.2</ele>
        <time>2024-02-04T12:49:50Z</time>
      </trkpt>
      <trkpt lat="42.8438" lon="1.19269">
        <ele>575.8</ele>
        <time>2024-02-04T12:49:51Z</time>
      </trkpt>
      <trkpt lat="42.84385" lon="1.1927">
        <ele>575.2</ele>
        <time>2024-02-04T12:49:52Z</time>
      </trkpt>
      <trkpt lat="42.84391" lon="1.19272">
        <ele>574.8</ele>
        <time>2024-02-04T12:49:53Z</time>
      </trkpt>
      <trkpt lat="42.84398" lon="1.19273">
        <ele>574.2</ele>
        <time>2024-02-04T12:49:54Z</time>
      </trkpt>
      <trkpt lat="42.84405" lon="1.19273">
        <ele>573.8</ele>
        <time>2024-02-04T12:49:55Z</time>
      </trkpt>
      <trkpt lat="42.84411" lon="1.19272">
        <ele>573.2</ele>
        <time>2024-02-04T12:49:56Z</time>
      </trkpt>
      <trkpt lat="42.84417" lon="1.1927">
        <ele>572.6</ele>
        <time>2024-02-04T12:49:57Z</time>
      </trkpt>
      <trkpt lat="42.84424" lon="1.19268">
        <ele>572</ele>
        <time>2024-02-04T12:49:58Z</time>
      </trkpt>
      <trkpt lat="42.84431" lon="1.19263">
        <ele>571.4</ele>
        <time>2024-02-04T12:49:59Z</time>
      </trkpt>
      <trkpt lat="42.84438" lon="1.19257">
        <ele>570.8</ele>
        <time>2024-02-04T12:50:00Z</time>
      </trkpt>
      <trkpt lat="42.84444" lon="1.19249">
        <ele>570.2</ele>
        <time>2024-02-04T12:50:01Z</time>
      </trkpt>
      <trkpt lat="42.84451" lon="1.19242">
        <ele>569.6</ele>
        <time>2024-02-04T12:50:02Z</time>
      </trkpt>
      <trkpt lat="42.84458" lon="1.19234">
        <ele>568.8</ele>
        <time>2024-02-04T12:50:03Z</time>
      </trkpt>
      <trkpt lat="42.84466" lon="1.19227">
        <ele>568.2</ele>
        <time>2024-02-04T12:50:04Z</time>
      </trkpt>
      <trkpt lat="42.84473" lon="1.1922">
        <ele>567.4</ele>
        <time>2024-02-04T12:50:05Z</time>
      </trkpt>
      <trkpt lat="42.84479" lon="1.19213">
        <ele>566.4</ele>
        <time>2024-02-04T12:50:06Z</time>
      </trkpt>
      <trkpt lat="42.84487" lon="1.19209">
        <ele>565.4</ele>
        <time>2024-02-04T12:50:07Z</time>
      </trkpt>
      <trkpt lat="42.84496" lon="1.19206">
        <ele>564.4</ele>
        <time>2024-02-04T12:50:08Z</time>
      </trkpt>
      <trkpt lat="42.84506" lon="1.19204">
        <ele>562.2</ele>
        <time>2024-02-04T12:50:09Z</time>
      </trkpt>
      <trkpt lat="42.84514" lon="1.19204">
        <ele>561</ele>
        <time>2024-02-04T12:50:10Z</time>
      </trkpt>
      <trkpt lat="42.84522" lon="1.19203">
        <ele>559.8</ele>
        <time>2024-02-04T12:50:11Z</time>
      </trkpt>
      <trkpt lat="42.8453" lon="1.19201">
        <ele>558.8</ele>
        <time>2024-02-04T12:50:12Z</time>
      </trkpt>
      <trkpt lat="42.84538" lon="1.19199">
        <ele>557.8</ele>
        <time>2024-02-04T12:50:13Z</time>
      </trkpt>
      <trkpt lat="42.84545" lon="1.19199">
        <ele>556.8</ele>
        <time>2024-02-04T12:50:14Z</time>
      </trkpt>
      <trkpt lat="42.84553" lon="1.192">
        <ele>555.8</ele>
        <time>2024-02-04T12:50:15Z</time>
      </trkpt>
      <trkpt lat="42.84561" lon="1.19203">
        <ele>554.8</ele>
        <time>2024-02-04T12:50:16Z</time>
      </trkpt>
      <trkpt lat="42.84569" lon="1.19206">
        <ele>553.8</ele>
        <time>2024-02-04T12:50:17Z</time>
      </trkpt>
      <trkpt lat="42.84576" lon="1.19207">
        <ele>553.8</ele>
        <time>2024-02-04T12:50:18Z</time>
      </trkpt>
      <trkpt lat="42.84591" lon="1.19212">
        <ele>553.8</ele>
        <time>2024-02-04T12:50:20Z</time>
      </trkpt>
      <trkpt lat="42.84605" lon="1.19218">
        <ele>553.4</ele>
        <time>2024-02-04T12:50:22Z</time>
      </trkpt>
      <trkpt lat="42.84612" lon="1.1922">
        <ele>553</ele>
        <time>2024-02-04T12:50:23Z</time>
      </trkpt>
      <trkpt lat="42.84619" lon="1.19224">
        <ele>552.6</ele>
        <time>2024-02-04T12:50:24Z</time>
      </trkpt>
      <trkpt lat="42.84626" lon="1.19227">
        <ele>552.2</ele>
        <time>2024-02-04T12:50:25Z</time>
      </trkpt>
      <trkpt lat="42.84633" lon="1.19231">
        <ele>551.8</ele>
        <time>2024-02-04T12:50:26Z</time>
      </trkpt>
      <trkpt lat="42.84639" lon="1.19234">
        <ele>551.8</ele>
        <time>2024-02-04T12:50:27Z</time>
      </trkpt>
      <trkpt lat="42.84667" lon="1.19253">
        <ele>551.8</ele>
        <time>2024-02-04T12:50:32Z</time>
      </trkpt>
      <trkpt lat="42.84673" lon="1.19257">
        <ele>551.8</ele>
        <time>2024-02-04T12:50:33Z</time>
      </trkpt>
      <trkpt lat="42.84696" lon="1.19267">
        <ele>551.8</ele>
        <time>2024-02-04T12:50:37Z</time>
      </trkpt>
      <trkpt lat="42.84719" lon="1.19267">
        <ele>551.8</ele>
        <time>2024-02-04T12:50:41Z</time>
      </trkpt>
      <trkpt lat="42.8474" lon="1.19258">
        <ele>551.8</ele>
        <time>2024-02-04T12:50:45Z</time>
      </trkpt>
      <trkpt lat="42.84745" lon="1.19256">
        <ele>551.8</ele>
        <time>2024-02-04T12:50:46Z</time>
      </trkpt>
      <trkpt lat="42.84749" lon="1.19253">
        <ele>551.8</ele>
        <time>2024-02-04T12:50:47Z</time>
      </trkpt>
      <trkpt lat="42.8475" lon="1.19243">
        <ele>551.8</ele>
        <time>2024-02-04T12:50:49Z</time>
      </trkpt>
      <trkpt lat="42.84743" lon="1.19235">
        <ele>551.8</ele>
        <time>2024-02-04T12:50:51Z</time>
      </trkpt>
      <trkpt lat="42.8474" lon="1.19229">
        <ele>551.8</ele>
        <time>2024-02-04T12:50:52Z</time>
      </trkpt>
      <trkpt lat="42.8473" lon="1.19204">
        <ele>551.8</ele>
        <time>2024-02-04T12:50:56Z</time>
      </trkpt>
      <trkpt lat="42.84727" lon="1.19192">
        <ele>551.8</ele>
        <time>2024-02-04T12:50:58Z</time>
      </trkpt>
      <trkpt lat="42.84719" lon="1.19163">
        <ele>551.8</ele>
        <time>2024-02-04T12:51:04Z</time>
      </trkpt>
      <trkpt lat="42.84714" lon="1.19152">
        <ele>552.2</ele>
        <time>2024-02-04T12:51:07Z</time>
      </trkpt>
      <trkpt lat="42.84713" lon="1.19148">
        <ele>552.6</ele>
        <time>2024-02-04T12:51:08Z</time>
      </trkpt>
      <trkpt lat="42.84711" lon="1.19145">
        <ele>553</ele>
        <time>2024-02-04T12:51:09Z</time>
      </trkpt>
      <trkpt lat="42.8471" lon="1.19141">
        <ele>553.6</ele>
        <time>2024-02-04T12:51:10Z</time>
      </trkpt>
      <trkpt lat="42.84709" lon="1.19138">
        <ele>554</ele>
        <time>2024-02-04T12:51:11Z</time>
      </trkpt>
      <trkpt lat="42.84704" lon="1.19127">
        <ele>554.4</ele>
        <time>2024-02-04T12:51:15Z</time>
      </trkpt>
      <trkpt lat="42.84703" lon="1.19123">
        <ele>554.8</ele>
        <time>2024-02-04T12:51:16Z</time>
      </trkpt>
      <trkpt lat="42.84702" lon="1.1912">
        <ele>555.2</ele>
        <time>2024-02-04T12:51:17Z</time>
      </trkpt>
      <trkpt lat="42.84701" lon="1.19117">
        <ele>555.6</ele>
        <time>2024-02-04T12:51:18Z</time>
      </trkpt>
      <trkpt lat="42.84701" lon="1.19114">
        <ele>556</ele>
        <time>2024-02-04T12:51:19Z</time>
      </trkpt>
      <trkpt lat="42.84702" lon="1.19111">
        <ele>556</ele>
        <time>2024-02-04T12:51:20Z</time>
      </trkpt>
      <trkpt lat="42.84703" lon="1.19107">
        <ele>556.4</ele>
        <time>2024-02-04T12:51:21Z</time>
      </trkpt>
      <trkpt lat="42.84705" lon="1.19104">
        <ele>556.8</ele>
        <time>2024-02-04T12:51:22Z</time>
      </trkpt>
      <trkpt lat="42.84706" lon="1.19101">
        <ele>557.6</ele>
        <time>2024-02-04T12:51:23Z</time>
      </trkpt>
      <trkpt lat="42.84707" lon="1.19098">
        <ele>558</ele>
        <time>2024-02-04T12:51:24Z</time>
      </trkpt>
      <trkpt lat="42.8471" lon="1.19091">
        <ele>558.4</ele>
        <time>2024-02-04T12:51:26Z</time>
      </trkpt>
      <trkpt lat="42.84712" lon="1.19088">
        <ele>559</ele>
        <time>2024-02-04T12:51:27Z</time>
      </trkpt>
      <trkpt lat="42.84714" lon="1.19084">
        <ele>559.4</ele>
        <time>2024-02-04T12:51:28Z</time>
      </trkpt>
      <trkpt lat="42.84715" lon="1.19081">
        <ele>559.8</ele>
        <time>2024-02-04T12:51:29Z</time>
      </trkpt>
      <trkpt lat="42.84716" lon="1.19077">
        <ele>560.2</ele>
        <time>2024-02-04T12:51:30Z</time>
      </trkpt>
      <trkpt lat="42.84718" lon="1.19071">
        <ele>560.8</ele>
        <time>2024-02-04T12:51:32Z</time>
      </trkpt>
      <trkpt lat="42.84719" lon="1.19067">
        <ele>561.2</ele>
        <time>2024-02-04T12:51:33Z</time>
      </trkpt>
      <trkpt lat="42.84719" lon="1.19063">
        <ele>561.6</ele>
        <time>2024-02-04T12:51:34Z</time>
      </trkpt>
      <trkpt lat="42.8472" lon="1.1906">
        <ele>562</ele>
        <time>2024-02-04T12:51:35Z</time>
      </trkpt>
      <trkpt lat="42.8472" lon="1.19057">
        <ele>562.4</ele>
        <time>2024-02-04T12:51:36Z</time>
      </trkpt>
      <trkpt lat="42.84722" lon="1.19046">
        <ele>562.4</ele>
        <time>2024-02-04T12:51:39Z</time>
      </trkpt>
      <trkpt lat="42.84722" lon="1.19043">
        <ele>562.8</ele>
        <time>2024-02-04T12:51:40Z</time>
      </trkpt>
      <trkpt lat="42.84722" lon="1.19039">
        <ele>563.2</ele>
        <time>2024-02-04T12:51:41Z</time>
      </trkpt>
      <trkpt lat="42.84722" lon="1.19036">
        <ele>563.6</ele>
        <time>2024-02-04T12:51:42Z</time>
      </trkpt>
      <trkpt lat="42.84722" lon="1.19032">
        <ele>564</ele>
        <time>2024-02-04T12:51:43Z</time>
      </trkpt>
      <trkpt lat="42.84722" lon="1.19028">
        <ele>564.4</ele>
        <time>2024-02-04T12:51:44Z</time>
      </trkpt>
      <trkpt lat="42.84722" lon="1.19024">
        <ele>564.4</ele>
        <time>2024-02-04T12:51:45Z</time>
      </trkpt>
      <trkpt lat="42.84723" lon="1.19017">
        <ele>564.8</ele>
        <time>2024-02-04T12:51:47Z</time>
      </trkpt>
      <trkpt lat="42.84724" lon="1.19013">
        <ele>565.8</ele>
        <time>2024-02-04T12:51:48Z</time>
      </trkpt>
      <trkpt lat="42.84724" lon="1.1901">
        <ele>566.2</ele>
        <time>2024-02-04T12:51:49Z</time>
      </trkpt>
      <trkpt lat="42.84725" lon="1.19007">
        <ele>566.6</ele>
        <time>2024-02-04T12:51:50Z</time>
      </trkpt>
      <trkpt lat="42.84726" lon="1.19003">
        <ele>566.6</ele>
        <time>2024-02-04T12:51:51Z</time>
      </trkpt>
      <trkpt lat="42.84727" lon="1.18999">
        <ele>567</ele>
        <time>2024-02-04T12:51:52Z</time>
      </trkpt>
      <trkpt lat="42.84728" lon="1.18996">
        <ele>567.4</ele>
        <time>2024-02-04T12:51:53Z</time>
      </trkpt>
      <trkpt lat="42.84728" lon="1.18994">
        <ele>567.8</ele>
        <time>2024-02-04T12:51:54Z</time>
      </trkpt>
      <trkpt lat="42.84728" lon="1.18991">
        <ele>568.4</ele>
        <time>2024-02-04T12:51:55Z</time>
      </trkpt>
      <trkpt lat="42.84729" lon="1.18987">
        <ele>568.8</ele>
        <time>2024-02-04T12:51:56Z</time>
      </trkpt>
      <trkpt lat="42.84731" lon="1.18979">
        <ele>569.2</ele>
        <time>2024-02-04T12:51:58Z</time>
      </trkpt>
      <trkpt lat="42.84731" lon="1.18975">
        <ele>569.6</ele>
        <time>2024-02-04T12:51:59Z</time>
      </trkpt>
      <trkpt lat="42.84732" lon="1.1897">
        <ele>570.2</ele>
        <time>2024-02-04T12:52:00Z</time>
      </trkpt>
      <trkpt lat="42.84732" lon="1.18967">
        <ele>570.6</ele>
        <time>2024-02-04T12:52:01Z</time>
      </trkpt>
      <trkpt lat="42.84733" lon="1.18962">
        <ele>571.2</ele>
        <time>2024-02-04T12:52:02Z</time>
      </trkpt>
      <trkpt lat="42.84733" lon="1.18958">
        <ele>571.6</ele>
        <time>2024-02-04T12:52:03Z</time>
      </trkpt>
      <trkpt lat="42.84734" lon="1.18954">
        <ele>572</ele>
        <time>2024-02-04T12:52:04Z</time>
      </trkpt>
      <trkpt lat="42.84734" lon="1.18951">
        <ele>572.4</ele>
        <time>2024-02-04T12:52:05Z</time>
      </trkpt>
      <trkpt lat="42.84735" lon="1.18947">
        <ele>572.8</ele>
        <time>2024-02-04T12:52:06Z</time>
      </trkpt>
      <trkpt lat="42.84736" lon="1.18944">
        <ele>573.2</ele>
        <time>2024-02-04T12:52:07Z</time>
      </trkpt>
      <trkpt lat="42.84737" lon="1.1894">
        <ele>573.6</ele>
        <time>2024-02-04T12:52:08Z</time>
      </trkpt>
      <trkpt lat="42.84738" lon="1.18936">
        <ele>574</ele>
        <time>2024-02-04T12:52:09Z</time>
      </trkpt>
      <trkpt lat="42.84739" lon="1.18932">
        <ele>574.4</ele>
        <time>2024-02-04T12:52:10Z</time>
      </trkpt>
      <trkpt lat="42.84739" lon="1.18927">
        <ele>574.8</ele>
        <time>2024-02-04T12:52:11Z</time>
      </trkpt>
      <trkpt lat="42.8474" lon="1.18923">
        <ele>575.2</ele>
        <time>2024-02-04T12:52:12Z</time>
      </trkpt>
      <trkpt lat="42.84741" lon="1.18919">
        <ele>575.6</ele>
        <time>2024-02-04T12:52:13Z</time>
      </trkpt>
      <trkpt lat="42.84743" lon="1.18915">
        <ele>576.2</ele>
        <time>2024-02-04T12:52:14Z</time>
      </trkpt>
      <trkpt lat="42.84744" lon="1.18912">
        <ele>576.6</ele>
        <time>2024-02-04T12:52:15Z</time>
      </trkpt>
      <trkpt lat="42.84744" lon="1.18908">
        <ele>577</ele>
        <time>2024-02-04T12:52:16Z</time>
      </trkpt>
      <trkpt lat="42.84746" lon="1.18903">
        <ele>577.4</ele>
        <time>2024-02-04T12:52:17Z</time>
      </trkpt>
      <trkpt lat="42.84748" lon="1.18896">
        <ele>577.4</ele>
        <time>2024-02-04T12:52:19Z</time>
      </trkpt>
      <trkpt lat="42.84749" lon="1.18892">
        <ele>577.8</ele>
        <time>2024-02-04T12:52:20Z</time>
      </trkpt>
      <trkpt lat="42.8475" lon="1.18888">
        <ele>578.2</ele>
        <time>2024-02-04T12:52:21Z</time>
      </trkpt>
      <trkpt lat="42.8475" lon="1.18884">
        <ele>578.6</ele>
        <time>2024-02-04T12:52:22Z</time>
      </trkpt>
      <trkpt lat="42.84751" lon="1.1888">
        <ele>579</ele>
        <time>2024-02-04T12:52:23Z</time>
      </trkpt>
      <trkpt lat="42.84752" lon="1.18877">
        <ele>579.4</ele>
        <time>2024-02-04T12:52:24Z</time>
      </trkpt>
      <trkpt lat="42.84753" lon="1.18873">
        <ele>579.4</ele>
        <time>2024-02-04T12:52:25Z</time>
      </trkpt>
      <trkpt lat="42.84755" lon="1.18865">
        <ele>580</ele>
        <time>2024-02-04T12:52:27Z</time>
      </trkpt>
      <trkpt lat="42.84756" lon="1.18862">
        <ele>580.4</ele>
        <time>2024-02-04T12:52:28Z</time>
      </trkpt>
      <trkpt lat="42.84757" lon="1.18858">
        <ele>580.8</ele>
        <time>2024-02-04T12:52:29Z</time>
      </trkpt>
      <trkpt lat="42.84758" lon="1.18854">
        <ele>581.2</ele>
        <time>2024-02-04T12:52:30Z</time>
      </trkpt>
      <trkpt lat="42.84759" lon="1.1885">
        <ele>581.6</ele>
        <time>2024-02-04T12:52:31Z</time>
      </trkpt>
      <trkpt lat="42.84759" lon="1.18846">
        <ele>581.6</ele>
        <time>2024-02-04T12:52:32Z</time>
      </trkpt>
      <trkpt lat="42.84761" lon="1.18838">
        <ele>582</ele>
        <time>2024-02-04T12:52:34Z</time>
      </trkpt>
      <trkpt lat="42.84762" lon="1.18834">
        <ele>582.4</ele>
        <time>2024-02-04T12:52:35Z</time>
      </trkpt>
      <trkpt lat="42.84763" lon="1.1883">
        <ele>582.8</ele>
        <time>2024-02-04T12:52:36Z</time>
      </trkpt>
      <trkpt lat="42.84765" lon="1.18826">
        <ele>583.8</ele>
        <time>2024-02-04T12:52:37Z</time>
      </trkpt>
      <trkpt lat="42.84766" lon="1.18822">
        <ele>583.8</ele>
        <time>2024-02-04T12:52:38Z</time>
      </trkpt>
      <trkpt lat="42.84767" lon="1.18819">
        <ele>584.2</ele>
        <time>2024-02-04T12:52:39Z</time>
      </trkpt>
      <trkpt lat="42.84769" lon="1.18815">
        <ele>584.6</ele>
        <time>2024-02-04T12:52:40Z</time>
      </trkpt>
      <trkpt lat="42.8477" lon="1.18812">
        <ele>585.2</ele>
        <time>2024-02-04T12:52:41Z</time>
      </trkpt>
      <trkpt lat="42.84771" lon="1.18808">
        <ele>585.6</ele>
        <time>2024-02-04T12:52:42Z</time>
      </trkpt>
      <trkpt lat="42.84772" lon="1.18805">
        <ele>586</ele>
        <time>2024-02-04T12:52:43Z</time>
      </trkpt>
      <trkpt lat="42.84773" lon="1.18801">
        <ele>586.4</ele>
        <time>2024-02-04T12:52:44Z</time>
      </trkpt>
      <trkpt lat="42.84774" lon="1.18798">
        <ele>586.8</ele>
        <time>2024-02-04T12:52:45Z</time>
      </trkpt>
      <trkpt lat="42.84776" lon="1.18795">
        <ele>587.2</ele>
        <time>2024-02-04T12:52:46Z</time>
      </trkpt>
      <trkpt lat="42.84777" lon="1.18792">
        <ele>587.6</ele>
        <time>2024-02-04T12:52:47Z</time>
      </trkpt>
      <trkpt lat="42.84779" lon="1.18789">
        <ele>588.2</ele>
        <time>2024-02-04T12:52:48Z</time>
      </trkpt>
      <trkpt lat="42.84781" lon="1.18783">
        <ele>588.6</ele>
        <time>2024-02-04T12:52:50Z</time>
      </trkpt>
      <trkpt lat="42.84782" lon="1.1878">
        <ele>589</ele>
        <time>2024-02-04T12:52:51Z</time>
      </trkpt>
      <trkpt lat="42.84783" lon="1.18776">
        <ele>589.6</ele>
        <time>2024-02-04T12:52:52Z</time>
      </trkpt>
      <trkpt lat="42.84784" lon="1.18773">
        <ele>590</ele>
        <time>2024-02-04T12:52:53Z</time>
      </trkpt>
      <trkpt lat="42.84786" lon="1.18769">
        <ele>590.4</ele>
        <time>2024-02-04T12:52:54Z</time>
      </trkpt>
      <trkpt lat="42.84787" lon="1.18763">
        <ele>590.8</ele>
        <time>2024-02-04T12:52:56Z</time>
      </trkpt>
      <trkpt lat="42.84788" lon="1.18759">
        <ele>591.2</ele>
        <time>2024-02-04T12:52:57Z</time>
      </trkpt>
      <trkpt lat="42.84789" lon="1.18756">
        <ele>591.6</ele>
        <time>2024-02-04T12:52:58Z</time>
      </trkpt>
      <trkpt lat="42.8479" lon="1.18753">
        <ele>592</ele>
        <time>2024-02-04T12:52:59Z</time>
      </trkpt>
      <trkpt lat="42.84791" lon="1.18749">
        <ele>592.4</ele>
        <time>2024-02-04T12:53:00Z</time>
      </trkpt>
      <trkpt lat="42.84792" lon="1.1874">
        <ele>593.4</ele>
        <time>2024-02-04T12:53:02Z</time>
      </trkpt>
      <trkpt lat="42.84793" lon="1.18736">
        <ele>593.8</ele>
        <time>2024-02-04T12:53:03Z</time>
      </trkpt>
      <trkpt lat="42.84794" lon="1.18732">
        <ele>594.4</ele>
        <time>2024-02-04T12:53:04Z</time>
      </trkpt>
      <trkpt lat="42.84795" lon="1.18727">
        <ele>594.8</ele>
        <time>2024-02-04T12:53:05Z</time>
      </trkpt>
      <trkpt lat="42.84797" lon="1.18716">
        <ele>595.2</ele>
        <time>2024-02-04T12:53:08Z</time>
      </trkpt>
      <trkpt lat="42.84798" lon="1.18713">
        <ele>595.6</ele>
        <time>2024-02-04T12:53:09Z</time>
      </trkpt>
      <trkpt lat="42.848" lon="1.1871">
        <ele>596.2</ele>
        <time>2024-02-04T12:53:10Z</time>
      </trkpt>
      <trkpt lat="42.848" lon="1.18707">
        <ele>596.6</ele>
        <time>2024-02-04T12:53:11Z</time>
      </trkpt>
      <trkpt lat="42.84801" lon="1.18703">
        <ele>597</ele>
        <time>2024-02-04T12:53:12Z</time>
      </trkpt>
      <trkpt lat="42.84801" lon="1.18696">
        <ele>597.4</ele>
        <time>2024-02-04T12:53:14Z</time>
      </trkpt>
      <trkpt lat="42.84802" lon="1.18692">
        <ele>597.8</ele>
        <time>2024-02-04T12:53:15Z</time>
      </trkpt>
      <trkpt lat="42.84802" lon="1.18689">
        <ele>598.2</ele>
        <time>2024-02-04T12:53:16Z</time>
      </trkpt>
      <trkpt lat="42.84801" lon="1.18685">
        <ele>598.6</ele>
        <time>2024-02-04T12:53:17Z</time>
      </trkpt>
      <trkpt lat="42.84801" lon="1.18682">
        <ele>599</ele>
        <time>2024-02-04T12:53:18Z</time>
      </trkpt>
      <trkpt lat="42.84799" lon="1.18675">
        <ele>599.6</ele>
        <time>2024-02-04T12:53:20Z</time>
      </trkpt>
      <trkpt lat="42.84799" lon="1.18672">
        <ele>600</ele>
        <time>2024-02-04T12:53:21Z</time>
      </trkpt>
      <trkpt lat="42.84799" lon="1.18668">
        <ele>600.4</ele>
        <time>2024-02-04T12:53:22Z</time>
      </trkpt>
      <trkpt lat="42.84799" lon="1.18664">
        <ele>600.8</ele>
        <time>2024-02-04T12:53:23Z</time>
      </trkpt>
      <trkpt lat="42.84798" lon="1.18661">
        <ele>601.2</ele>
        <time>2024-02-04T12:53:24Z</time>
      </trkpt>
      <trkpt lat="42.84798" lon="1.18651">
        <ele>602.2</ele>
        <time>2024-02-04T12:53:27Z</time>
      </trkpt>
      <trkpt lat="42.84799" lon="1.18648">
        <ele>602.8</ele>
        <time>2024-02-04T12:53:28Z</time>
      </trkpt>
      <trkpt lat="42.848" lon="1.18645">
        <ele>603.2</ele>
        <time>2024-02-04T12:53:29Z</time>
      </trkpt>
      <trkpt lat="42.84801" lon="1.18642">
        <ele>603.8</ele>
        <time>2024-02-04T12:53:30Z</time>
      </trkpt>
      <trkpt lat="42.84802" lon="1.1864">
        <ele>604.2</ele>
        <time>2024-02-04T12:53:31Z</time>
      </trkpt>
      <trkpt lat="42.84803" lon="1.18637">
        <ele>604.6</ele>
        <time>2024-02-04T12:53:32Z</time>
      </trkpt>
      <trkpt lat="42.84804" lon="1.18635">
        <ele>605.2</ele>
        <time>2024-02-04T12:53:33Z</time>
      </trkpt>
      <trkpt lat="42.84805" lon="1.18633">
        <ele>605.6</ele>
        <time>2024-02-04T12:53:34Z</time>
      </trkpt>
      <trkpt lat="42.84807" lon="1.1863">
        <ele>606</ele>
        <time>2024-02-04T12:53:35Z</time>
      </trkpt>
      <trkpt lat="42.84808" lon="1.18627">
        <ele>606.4</ele>
        <time>2024-02-04T12:53:36Z</time>
      </trkpt>
      <trkpt lat="42.84809" lon="1.18624">
        <ele>607</ele>
        <time>2024-02-04T12:53:37Z</time>
      </trkpt>
      <trkpt lat="42.8481" lon="1.18621">
        <ele>607.4</ele>
        <time>2024-02-04T12:53:38Z</time>
      </trkpt>
      <trkpt lat="42.84811" lon="1.18618">
        <ele>607.8</ele>
        <time>2024-02-04T12:53:39Z</time>
      </trkpt>
      <trkpt lat="42.84812" lon="1.18615">
        <ele>608.2</ele>
        <time>2024-02-04T12:53:40Z</time>
      </trkpt>
      <trkpt lat="42.84813" lon="1.18608">
        <ele>608.6</ele>
        <time>2024-02-04T12:53:42Z</time>
      </trkpt>
      <trkpt lat="42.84813" lon="1.18604">
        <ele>609.2</ele>
        <time>2024-02-04T12:53:43Z</time>
      </trkpt>
      <trkpt lat="42.84813" lon="1.18601">
        <ele>609.6</ele>
        <time>2024-02-04T12:53:44Z</time>
      </trkpt>
      <trkpt lat="42.84813" lon="1.18598">
        <ele>610</ele>
        <time>2024-02-04T12:53:45Z</time>
      </trkpt>
      <trkpt lat="42.84812" lon="1.18596">
        <ele>610.4</ele>
        <time>2024-02-04T12:53:46Z</time>
      </trkpt>
      <trkpt lat="42.8481" lon="1.1859">
        <ele>610.4</ele>
        <time>2024-02-04T12:53:48Z</time>
      </trkpt>
      <trkpt lat="42.84807" lon="1.18588">
        <ele>610.4</ele>
        <time>2024-02-04T12:53:50Z</time>
      </trkpt>
      <trkpt lat="42.84799" lon="1.18584">
        <ele>610.8</ele>
        <time>2024-02-04T12:53:54Z</time>
      </trkpt>
      <trkpt lat="42.84796" lon="1.18583">
        <ele>611.2</ele>
        <time>2024-02-04T12:53:55Z</time>
      </trkpt>
      <trkpt lat="42.84793" lon="1.18582">
        <ele>611.6</ele>
        <time>2024-02-04T12:53:56Z</time>
      </trkpt>
      <trkpt lat="42.84791" lon="1.18581">
        <ele>612</ele>
        <time>2024-02-04T12:53:57Z</time>
      </trkpt>
      <trkpt lat="42.84788" lon="1.18579">
        <ele>612.4</ele>
        <time>2024-02-04T12:53:58Z</time>
      </trkpt>
      <trkpt lat="42.84784" lon="1.18577">
        <ele>612.4</ele>
        <time>2024-02-04T12:54:00Z</time>
      </trkpt>
      <trkpt lat="42.84776" lon="1.1858">
        <ele>612.4</ele>
        <time>2024-02-04T12:54:04Z</time>
      </trkpt>
      <trkpt lat="42.84775" lon="1.18582">
        <ele>612.4</ele>
        <time>2024-02-04T12:54:05Z</time>
      </trkpt>
      <trkpt lat="42.84773" lon="1.18597">
        <ele>612.4</ele>
        <time>2024-02-04T12:54:10Z</time>
      </trkpt>
      <trkpt lat="42.84773" lon="1.18601">
        <ele>613</ele>
        <time>2024-02-04T12:54:11Z</time>
      </trkpt>
      <trkpt lat="42.84773" lon="1.18604">
        <ele>613.4</ele>
        <time>2024-02-04T12:54:12Z</time>
      </trkpt>
      <trkpt lat="42.84774" lon="1.18608">
        <ele>613.8</ele>
        <time>2024-02-04T12:54:13Z</time>
      </trkpt>
      <trkpt lat="42.84774" lon="1.18611">
        <ele>614.2</ele>
        <time>2024-02-04T12:54:14Z</time>
      </trkpt>
      <trkpt lat="42.84773" lon="1.18614">
        <ele>614.6</ele>
        <time>2024-02-04T12:54:15Z</time>
      </trkpt>
      <trkpt lat="42.84772" lon="1.18619">
        <ele>615.2</ele>
        <time>2024-02-04T12:54:17Z</time>
      </trkpt>
      <trkpt lat="42.84772" lon="1.18621">
        <ele>615.6</ele>
        <time>2024-02-04T12:54:18Z</time>
      </trkpt>
      <trkpt lat="42.84772" lon="1.18624">
        <ele>616</ele>
        <time>2024-02-04T12:54:19Z</time>
      </trkpt>
      <trkpt lat="42.84771" lon="1.18626">
        <ele>616.4</ele>
        <time>2024-02-04T12:54:20Z</time>
      </trkpt>
      <trkpt lat="42.84771" lon="1.18629">
        <ele>616.8</ele>
        <time>2024-02-04T12:54:21Z</time>
      </trkpt>
      <trkpt lat="42.84766" lon="1.1864">
        <ele>617.2</ele>
        <time>2024-02-04T12:54:25Z</time>
      </trkpt>
      <trkpt lat="42.84765" lon="1.18643">
        <ele>617.6</ele>
        <time>2024-02-04T12:54:26Z</time>
      </trkpt>
      <trkpt lat="42.84764" lon="1.18646">
        <ele>618</ele>
        <time>2024-02-04T12:54:27Z</time>
      </trkpt>
      <trkpt lat="42.84763" lon="1.18649">
        <ele>618.4</ele>
        <time>2024-02-04T12:54:28Z</time>
      </trkpt>
      <trkpt lat="42.84762" lon="1.18653">
        <ele>618.8</ele>
        <time>2024-02-04T12:54:29Z</time>
      </trkpt>
      <trkpt lat="42.84758" lon="1.18665">
        <ele>618.8</ele>
        <time>2024-02-04T12:54:33Z</time>
      </trkpt>
      <trkpt lat="42.84756" lon="1.18674">
        <ele>619.4</ele>
        <time>2024-02-04T12:54:36Z</time>
      </trkpt>
      <trkpt lat="42.84756" lon="1.18677">
        <ele>619.8</ele>
        <time>2024-02-04T12:54:37Z</time>
      </trkpt>
      <trkpt lat="42.84756" lon="1.1868">
        <ele>620.2</ele>
        <time>2024-02-04T12:54:38Z</time>
      </trkpt>
      <trkpt lat="42.84756" lon="1.18682">
        <ele>620.6</ele>
        <time>2024-02-04T12:54:39Z</time>
      </trkpt>
      <trkpt lat="42.84756" lon="1.18685">
        <ele>621.2</ele>
        <time>2024-02-04T12:54:40Z</time>
      </trkpt>
      <trkpt lat="42.84755" lon="1.18696">
        <ele>621.2</ele>
        <time>2024-02-04T12:54:43Z</time>
      </trkpt>
      <trkpt lat="42.84753" lon="1.18703">
        <ele>621.6</ele>
        <time>2024-02-04T12:54:45Z</time>
      </trkpt>
      <trkpt lat="42.84753" lon="1.18705">
        <ele>622</ele>
        <time>2024-02-04T12:54:46Z</time>
      </trkpt>
      <trkpt lat="42.84751" lon="1.18708">
        <ele>622.4</ele>
        <time>2024-02-04T12:54:47Z</time>
      </trkpt>
      <trkpt lat="42.8475" lon="1.18711">
        <ele>622.8</ele>
        <time>2024-02-04T12:54:48Z</time>
      </trkpt>
      <trkpt lat="42.84749" lon="1.18714">
        <ele>623.2</ele>
        <time>2024-02-04T12:54:49Z</time>
      </trkpt>
      <trkpt lat="42.84743" lon="1.18727">
        <ele>623.6</ele>
        <time>2024-02-04T12:54:54Z</time>
      </trkpt>
      <trkpt lat="42.84742" lon="1.18729">
        <ele>624</ele>
        <time>2024-02-04T12:54:55Z</time>
      </trkpt>
      <trkpt lat="42.8474" lon="1.18732">
        <ele>624.4</ele>
        <time>2024-02-04T12:54:56Z</time>
      </trkpt>
      <trkpt lat="42.84739" lon="1.18736">
        <ele>624.8</ele>
        <time>2024-02-04T12:54:57Z</time>
      </trkpt>
      <trkpt lat="42.84738" lon="1.18738">
        <ele>625.2</ele>
        <time>2024-02-04T12:54:58Z</time>
      </trkpt>
      <trkpt lat="42.84735" lon="1.18745">
        <ele>625.2</ele>
        <time>2024-02-04T12:55:00Z</time>
      </trkpt>
      <trkpt lat="42.8473" lon="1.18753">
        <ele>625.6</ele>
        <time>2024-02-04T12:55:03Z</time>
      </trkpt>
      <trkpt lat="42.84729" lon="1.18756">
        <ele>626</ele>
        <time>2024-02-04T12:55:04Z</time>
      </trkpt>
      <trkpt lat="42.84727" lon="1.18759">
        <ele>626.6</ele>
        <time>2024-02-04T12:55:05Z</time>
      </trkpt>
      <trkpt lat="42.84725" lon="1.18762">
        <ele>627</ele>
        <time>2024-02-04T12:55:06Z</time>
      </trkpt>
      <trkpt lat="42.84723" lon="1.18765">
        <ele>627.4</ele>
        <time>2024-02-04T12:55:07Z</time>
      </trkpt>
      <trkpt lat="42.84716" lon="1.18776">
        <ele>627.8</ele>
        <time>2024-02-04T12:55:11Z</time>
      </trkpt>
      <trkpt lat="42.84714" lon="1.18778">
        <ele>628.2</ele>
        <time>2024-02-04T12:55:12Z</time>
      </trkpt>
      <trkpt lat="42.84712" lon="1.18781">
        <ele>628.6</ele>
        <time>2024-02-04T12:55:13Z</time>
      </trkpt>
      <trkpt lat="42.8471" lon="1.18784">
        <ele>629</ele>
        <time>2024-02-04T12:55:14Z</time>
      </trkpt>
      <trkpt lat="42.84708" lon="1.18786">
        <ele>629.6</ele>
        <time>2024-02-04T12:55:15Z</time>
      </trkpt>
      <trkpt lat="42.84702" lon="1.18791">
        <ele>629.6</ele>
        <time>2024-02-04T12:55:18Z</time>
      </trkpt>
      <trkpt lat="42.847" lon="1.18792">
        <ele>629.6</ele>
        <time>2024-02-04T12:55:19Z</time>
      </trkpt>
      <trkpt lat="42.8469" lon="1.18793">
        <ele>630</ele>
        <time>2024-02-04T12:55:23Z</time>
      </trkpt>
      <trkpt lat="42.84687" lon="1.18793">
        <ele>630.4</ele>
        <time>2024-02-04T12:55:24Z</time>
      </trkpt>
      <trkpt lat="42.84684" lon="1.18793">
        <ele>630.8</ele>
        <time>2024-02-04T12:55:25Z</time>
      </trkpt>
      <trkpt lat="42.84681" lon="1.18792">
        <ele>631.2</ele>
        <time>2024-02-04T12:55:26Z</time>
      </trkpt>
      <trkpt lat="42.84679" lon="1.18792">
        <ele>631.6</ele>
        <time>2024-02-04T12:55:27Z</time>
      </trkpt>
      <trkpt lat="42.84672" lon="1.18792">
        <ele>631.6</ele>
        <time>2024-02-04T12:55:30Z</time>
      </trkpt>
      <trkpt lat="42.84671" lon="1.1879">
        <ele>631.6</ele>
        <time>2024-02-04T12:55:31Z</time>
      </trkpt>
      <trkpt lat="42.8467" lon="1.18783">
        <ele>632.2</ele>
        <time>2024-02-04T12:55:34Z</time>
      </trkpt>
      <trkpt lat="42.8467" lon="1.18781">
        <ele>632.6</ele>
        <time>2024-02-04T12:55:35Z</time>
      </trkpt>
      <trkpt lat="42.8467" lon="1.18781">
        <ele>633</ele>
        <time>2024-02-04T12:55:36Z</time>
      </trkpt>
      <trkpt lat="42.84674" lon="1.18779">
        <ele>634</ele>
        <time>2024-02-04T12:55:42Z</time>
      </trkpt>
      <trkpt lat="42.84677" lon="1.18777">
        <ele>634.4</ele>
        <time>2024-02-04T12:55:44Z</time>
      </trkpt>
      <trkpt lat="42.8468" lon="1.18776">
        <ele>634.8</ele>
        <time>2024-02-04T12:55:45Z</time>
      </trkpt>
      <trkpt lat="42.84682" lon="1.18773">
        <ele>635.2</ele>
        <time>2024-02-04T12:55:46Z</time>
      </trkpt>
      <trkpt lat="42.84684" lon="1.1877">
        <ele>635.6</ele>
        <time>2024-02-04T12:55:47Z</time>
      </trkpt>
      <trkpt lat="42.84687" lon="1.18767">
        <ele>636</ele>
        <time>2024-02-04T12:55:48Z</time>
      </trkpt>
      <trkpt lat="42.84689" lon="1.18765">
        <ele>636</ele>
        <time>2024-02-04T12:55:49Z</time>
      </trkpt>
      <trkpt lat="42.84702" lon="1.18753">
        <ele>636.4</ele>
        <time>2024-02-04T12:55:54Z</time>
      </trkpt>
      <trkpt lat="42.84704" lon="1.18749">
        <ele>636.8</ele>
        <time>2024-02-04T12:55:55Z</time>
      </trkpt>
      <trkpt lat="42.84705" lon="1.18746">
        <ele>637.6</ele>
        <time>2024-02-04T12:55:56Z</time>
      </trkpt>
      <trkpt lat="42.84706" lon="1.18743">
        <ele>638</ele>
        <time>2024-02-04T12:55:57Z</time>
      </trkpt>
      <trkpt lat="42.8471" lon="1.18734">
        <ele>638</ele>
        <time>2024-02-04T12:56:00Z</time>
      </trkpt>
      <trkpt lat="42.84714" lon="1.18722">
        <ele>638.4</ele>
        <time>2024-02-04T12:56:04Z</time>
      </trkpt>
      <trkpt lat="42.84715" lon="1.18718">
        <ele>639</ele>
        <time>2024-02-04T12:56:05Z</time>
      </trkpt>
      <trkpt lat="42.84716" lon="1.18715">
        <ele>639.4</ele>
        <time>2024-02-04T12:56:06Z</time>
      </trkpt>
      <trkpt lat="42.84716" lon="1.18713">
        <ele>639.8</ele>
        <time>2024-02-04T12:56:07Z</time>
      </trkpt>
      <trkpt lat="42.84717" lon="1.1871">
        <ele>640.2</ele>
        <time>2024-02-04T12:56:08Z</time>
      </trkpt>
      <trkpt lat="42.84719" lon="1.18703">
        <ele>640.2</ele>
        <time>2024-02-04T12:56:11Z</time>
      </trkpt>
      <trkpt lat="42.84721" lon="1.18694">
        <ele>640.6</ele>
        <time>2024-02-04T12:56:14Z</time>
      </trkpt>
      <trkpt lat="42.84721" lon="1.18691">
        <ele>641</ele>
        <time>2024-02-04T12:56:15Z</time>
      </trkpt>
      <trkpt lat="42.84722" lon="1.18688">
        <ele>641.6</ele>
        <time>2024-02-04T12:56:16Z</time>
      </trkpt>
      <trkpt lat="42.84723" lon="1.18685">
        <ele>642</ele>
        <time>2024-02-04T12:56:17Z</time>
      </trkpt>
      <trkpt lat="42.84723" lon="1.18681">
        <ele>642.4</ele>
        <time>2024-02-04T12:56:18Z</time>
      </trkpt>
      <trkpt lat="42.84724" lon="1.18671">
        <ele>642.8</ele>
        <time>2024-02-04T12:56:22Z</time>
      </trkpt>
      <trkpt lat="42.84724" lon="1.18668">
        <ele>643.2</ele>
        <time>2024-02-04T12:56:23Z</time>
      </trkpt>
      <trkpt lat="42.84724" lon="1.18666">
        <ele>643.6</ele>
        <time>2024-02-04T12:56:24Z</time>
      </trkpt>
      <trkpt lat="42.84724" lon="1.18663">
        <ele>644</ele>
        <time>2024-02-04T12:56:25Z</time>
      </trkpt>
      <trkpt lat="42.84724" lon="1.1866">
        <ele>644.4</ele>
        <time>2024-02-04T12:56:26Z</time>
      </trkpt>
      <trkpt lat="42.84724" lon="1.18658">
        <ele>644.4</ele>
        <time>2024-02-04T12:56:27Z</time>
      </trkpt>
      <trkpt lat="42.84726" lon="1.18642">
        <ele>645</ele>
        <time>2024-02-04T12:56:32Z</time>
      </trkpt>
      <trkpt lat="42.84726" lon="1.18639">
        <ele>645.4</ele>
        <time>2024-02-04T12:56:33Z</time>
      </trkpt>
      <trkpt lat="42.84726" lon="1.18636">
        <ele>645.8</ele>
        <time>2024-02-04T12:56:34Z</time>
      </trkpt>
      <trkpt lat="42.84726" lon="1.18632">
        <ele>646.2</ele>
        <time>2024-02-04T12:56:35Z</time>
      </trkpt>
      <trkpt lat="42.84726" lon="1.18628">
        <ele>646.6</ele>
        <time>2024-02-04T12:56:36Z</time>
      </trkpt>
      <trkpt lat="42.84725" lon="1.1862">
        <ele>646.6</ele>
        <time>2024-02-04T12:56:38Z</time>
      </trkpt>
      <trkpt lat="42.84723" lon="1.18609">
        <ele>647</ele>
        <time>2024-02-04T12:56:41Z</time>
      </trkpt>
      <trkpt lat="42.84722" lon="1.18606">
        <ele>647.4</ele>
        <time>2024-02-04T12:56:42Z</time>
      </trkpt>
      <trkpt lat="42.84721" lon="1.18602">
        <ele>647.8</ele>
        <time>2024-02-04T12:56:43Z</time>
      </trkpt>
      <trkpt lat="42.8472" lon="1.18599">
        <ele>648.2</ele>
        <time>2024-02-04T12:56:44Z</time>
      </trkpt>
      <trkpt lat="42.84719" lon="1.18596">
        <ele>648.6</ele>
        <time>2024-02-04T12:56:45Z</time>
      </trkpt>
      <trkpt lat="42.84716" lon="1.1859">
        <ele>648.6</ele>
        <time>2024-02-04T12:56:47Z</time>
      </trkpt>
      <trkpt lat="42.84715" lon="1.18587">
        <ele>648.6</ele>
        <time>2024-02-04T12:56:48Z</time>
      </trkpt>
      <trkpt lat="42.84715" lon="1.18583">
        <ele>649</ele>
        <time>2024-02-04T12:56:49Z</time>
      </trkpt>
      <trkpt lat="42.84714" lon="1.18581">
        <ele>649.4</ele>
        <time>2024-02-04T12:56:50Z</time>
      </trkpt>
      <trkpt lat="42.84712" lon="1.18578">
        <ele>649.8</ele>
        <time>2024-02-04T12:56:51Z</time>
      </trkpt>
      <trkpt lat="42.84711" lon="1.18575">
        <ele>650.2</ele>
        <time>2024-02-04T12:56:52Z</time>
      </trkpt>
      <trkpt lat="42.8471" lon="1.18572">
        <ele>650.8</ele>
        <time>2024-02-04T12:56:53Z</time>
      </trkpt>
      <trkpt lat="42.84707" lon="1.18556">
        <ele>651.2</ele>
        <time>2024-02-04T12:56:58Z</time>
      </trkpt>
      <trkpt lat="42.84706" lon="1.18553">
        <ele>651.6</ele>
        <time>2024-02-04T12:56:59Z</time>
      </trkpt>
      <trkpt lat="42.84706" lon="1.18549">
        <ele>652</ele>
        <time>2024-02-04T12:57:00Z</time>
      </trkpt>
      <trkpt lat="42.84706" lon="1.18545">
        <ele>652.4</ele>
        <time>2024-02-04T12:57:01Z</time>
      </trkpt>
      <trkpt lat="42.84705" lon="1.18542">
        <ele>652.8</ele>
        <time>2024-02-04T12:57:02Z</time>
      </trkpt>
      <trkpt lat="42.84705" lon="1.18539">
        <ele>652.8</ele>
        <time>2024-02-04T12:57:03Z</time>
      </trkpt>
      <trkpt lat="42.84702" lon="1.18529">
        <ele>653.2</ele>
        <time>2024-02-04T12:57:07Z</time>
      </trkpt>
      <trkpt lat="42.847" lon="1.18527">
        <ele>653.8</ele>
        <time>2024-02-04T12:57:08Z</time>
      </trkpt>
      <trkpt lat="42.847" lon="1.18525">
        <ele>654.2</ele>
        <time>2024-02-04T12:57:09Z</time>
      </trkpt>
      <trkpt lat="42.847" lon="1.18523">
        <ele>655</ele>
        <time>2024-02-04T12:57:10Z</time>
      </trkpt>
      <trkpt lat="42.84699" lon="1.18514">
        <ele>655</ele>
        <time>2024-02-04T12:57:13Z</time>
      </trkpt>
      <trkpt lat="42.84697" lon="1.18504">
        <ele>655.6</ele>
        <time>2024-02-04T12:57:16Z</time>
      </trkpt>
      <trkpt lat="42.84697" lon="1.18501">
        <ele>656</ele>
        <time>2024-02-04T12:57:17Z</time>
      </trkpt>
      <trkpt lat="42.84697" lon="1.18498">
        <ele>656.4</ele>
        <time>2024-02-04T12:57:18Z</time>
      </trkpt>
      <trkpt lat="42.84697" lon="1.18495">
        <ele>656.8</ele>
        <time>2024-02-04T12:57:19Z</time>
      </trkpt>
      <trkpt lat="42.84696" lon="1.18493">
        <ele>657.4</ele>
        <time>2024-02-04T12:57:20Z</time>
      </trkpt>
      <trkpt lat="42.84694" lon="1.18486">
        <ele>657.4</ele>
        <time>2024-02-04T12:57:23Z</time>
      </trkpt>
      <trkpt lat="42.84692" lon="1.18479">
        <ele>657.8</ele>
        <time>2024-02-04T12:57:25Z</time>
      </trkpt>
      <trkpt lat="42.84692" lon="1.18477">
        <ele>658.2</ele>
        <time>2024-02-04T12:57:26Z</time>
      </trkpt>
      <trkpt lat="42.8469" lon="1.18474">
        <ele>658.6</ele>
        <time>2024-02-04T12:57:27Z</time>
      </trkpt>
      <trkpt lat="42.84691" lon="1.1847">
        <ele>659</ele>
        <time>2024-02-04T12:57:28Z</time>
      </trkpt>
      <trkpt lat="42.84691" lon="1.18467">
        <ele>659.4</ele>
        <time>2024-02-04T12:57:29Z</time>
      </trkpt>
      <trkpt lat="42.84692" lon="1.18465">
        <ele>659.4</ele>
        <time>2024-02-04T12:57:30Z</time>
      </trkpt>
      <trkpt lat="42.84703" lon="1.18461">
        <ele>659.8</ele>
        <time>2024-02-04T12:57:35Z</time>
      </trkpt>
      <trkpt lat="42.84705" lon="1.1846">
        <ele>660.4</ele>
        <time>2024-02-04T12:57:36Z</time>
      </trkpt>
      <trkpt lat="42.84707" lon="1.18459">
        <ele>660.8</ele>
        <time>2024-02-04T12:57:37Z</time>
      </trkpt>
      <trkpt lat="42.84709" lon="1.1846">
        <ele>661.2</ele>
        <time>2024-02-04T12:57:38Z</time>
      </trkpt>
      <trkpt lat="42.84711" lon="1.18461">
        <ele>661.6</ele>
        <time>2024-02-04T12:57:39Z</time>
      </trkpt>
      <trkpt lat="42.84713" lon="1.18462">
        <ele>661.6</ele>
        <time>2024-02-04T12:57:40Z</time>
      </trkpt>
      <trkpt lat="42.84717" lon="1.18465">
        <ele>661.6</ele>
        <time>2024-02-04T12:57:42Z</time>
      </trkpt>
      <trkpt lat="42.84719" lon="1.18466">
        <ele>662</ele>
        <time>2024-02-04T12:57:43Z</time>
      </trkpt>
      <trkpt lat="42.84722" lon="1.18467">
        <ele>662.6</ele>
        <time>2024-02-04T12:57:44Z</time>
      </trkpt>
      <trkpt lat="42.84724" lon="1.18468">
        <ele>663</ele>
        <time>2024-02-04T12:57:45Z</time>
      </trkpt>
      <trkpt lat="42.84726" lon="1.18469">
        <ele>663.4</ele>
        <time>2024-02-04T12:57:46Z</time>
      </trkpt>
      <trkpt lat="42.84728" lon="1.1847">
        <ele>663.8</ele>
        <time>2024-02-04T12:57:47Z</time>
      </trkpt>
      <trkpt lat="42.84736" lon="1.1847">
        <ele>664.2</ele>
        <time>2024-02-04T12:57:51Z</time>
      </trkpt>
      <trkpt lat="42.84738" lon="1.1847">
        <ele>664.6</ele>
        <time>2024-02-04T12:57:52Z</time>
      </trkpt>
      <trkpt lat="42.8474" lon="1.1847">
        <ele>665</ele>
        <time>2024-02-04T12:57:53Z</time>
      </trkpt>
      <trkpt lat="42.84742" lon="1.1847">
        <ele>665.4</ele>
        <time>2024-02-04T12:57:54Z</time>
      </trkpt>
      <trkpt lat="42.84744" lon="1.18469">
        <ele>665.8</ele>
        <time>2024-02-04T12:57:55Z</time>
      </trkpt>
      <trkpt lat="42.84749" lon="1.18467">
        <ele>665.8</ele>
        <time>2024-02-04T12:57:57Z</time>
      </trkpt>
      <trkpt lat="42.84757" lon="1.1846">
        <ele>666.4</ele>
        <time>2024-02-04T12:58:01Z</time>
      </trkpt>
      <trkpt lat="42.84759" lon="1.18458">
        <ele>666.8</ele>
        <time>2024-02-04T12:58:02Z</time>
      </trkpt>
      <trkpt lat="42.84762" lon="1.18456">
        <ele>667.2</ele>
        <time>2024-02-04T12:58:03Z</time>
      </trkpt>
      <trkpt lat="42.84764" lon="1.18454">
        <ele>667.6</ele>
        <time>2024-02-04T12:58:04Z</time>
      </trkpt>
      <trkpt lat="42.84766" lon="1.18452">
        <ele>668</ele>
        <time>2024-02-04T12:58:05Z</time>
      </trkpt>
      <trkpt lat="42.84772" lon="1.18442">
        <ele>668</ele>
        <time>2024-02-04T12:58:09Z</time>
      </trkpt>
      <trkpt lat="42.84775" lon="1.18437">
        <ele>668.4</ele>
        <time>2024-02-04T12:58:11Z</time>
      </trkpt>
      <trkpt lat="42.84776" lon="1.18434">
        <ele>668.8</ele>
        <time>2024-02-04T12:58:12Z</time>
      </trkpt>
      <trkpt lat="42.84777" lon="1.18432">
        <ele>669.2</ele>
        <time>2024-02-04T12:58:13Z</time>
      </trkpt>
      <trkpt lat="42.84778" lon="1.1843">
        <ele>669.8</ele>
        <time>2024-02-04T12:58:14Z</time>
      </trkpt>
      <trkpt lat="42.8478" lon="1.18428">
        <ele>670.2</ele>
        <time>2024-02-04T12:58:15Z</time>
      </trkpt>
      <trkpt lat="42.84781" lon="1.18425">
        <ele>670.2</ele>
        <time>2024-02-04T12:58:16Z</time>
      </trkpt>
      <trkpt lat="42.84786" lon="1.18414">
        <ele>670.6</ele>
        <time>2024-02-04T12:58:20Z</time>
      </trkpt>
      <trkpt lat="42.84787" lon="1.18412">
        <ele>671</ele>
        <time>2024-02-04T12:58:21Z</time>
      </trkpt>
      <trkpt lat="42.84789" lon="1.1841">
        <ele>671.4</ele>
        <time>2024-02-04T12:58:22Z</time>
      </trkpt>
      <trkpt lat="42.8479" lon="1.18407">
        <ele>671.8</ele>
        <time>2024-02-04T12:58:23Z</time>
      </trkpt>
      <trkpt lat="42.84792" lon="1.18405">
        <ele>672.2</ele>
        <time>2024-02-04T12:58:24Z</time>
      </trkpt>
      <trkpt lat="42.84795" lon="1.18395">
        <ele>672.2</ele>
        <time>2024-02-04T12:58:27Z</time>
      </trkpt>
      <trkpt lat="42.84796" lon="1.18391">
        <ele>672.6</ele>
        <time>2024-02-04T12:58:28Z</time>
      </trkpt>
      <trkpt lat="42.84797" lon="1.18388">
        <ele>673</ele>
        <time>2024-02-04T12:58:29Z</time>
      </trkpt>
      <trkpt lat="42.84797" lon="1.18385">
        <ele>673.4</ele>
        <time>2024-02-04T12:58:30Z</time>
      </trkpt>
      <trkpt lat="42.84798" lon="1.18382">
        <ele>673.8</ele>
        <time>2024-02-04T12:58:31Z</time>
      </trkpt>
      <trkpt lat="42.84799" lon="1.18378">
        <ele>674.2</ele>
        <time>2024-02-04T12:58:32Z</time>
      </trkpt>
      <trkpt lat="42.848" lon="1.18374">
        <ele>674.2</ele>
        <time>2024-02-04T12:58:33Z</time>
      </trkpt>
      <trkpt lat="42.84804" lon="1.18357">
        <ele>674.8</ele>
        <time>2024-02-04T12:58:38Z</time>
      </trkpt>
      <trkpt lat="42.84805" lon="1.18354">
        <ele>675.2</ele>
        <time>2024-02-04T12:58:39Z</time>
      </trkpt>
      <trkpt lat="42.84806" lon="1.18352">
        <ele>675.6</ele>
        <time>2024-02-04T12:58:40Z</time>
      </trkpt>
      <trkpt lat="42.84806" lon="1.18348">
        <ele>676</ele>
        <time>2024-02-04T12:58:41Z</time>
      </trkpt>
      <trkpt lat="42.84807" lon="1.18345">
        <ele>676.4</ele>
        <time>2024-02-04T12:58:42Z</time>
      </trkpt>
      <trkpt lat="42.84808" lon="1.18339">
        <ele>676.4</ele>
        <time>2024-02-04T12:58:44Z</time>
      </trkpt>
      <trkpt lat="42.8481" lon="1.18333">
        <ele>676.8</ele>
        <time>2024-02-04T12:58:46Z</time>
      </trkpt>
      <trkpt lat="42.84811" lon="1.1833">
        <ele>677.2</ele>
        <time>2024-02-04T12:58:47Z</time>
      </trkpt>
      <trkpt lat="42.84812" lon="1.18328">
        <ele>677.6</ele>
        <time>2024-02-04T12:58:48Z</time>
      </trkpt>
      <trkpt lat="42.84812" lon="1.18324">
        <ele>678.4</ele>
        <time>2024-02-04T12:58:49Z</time>
      </trkpt>
      <trkpt lat="42.84815" lon="1.18313">
        <ele>678.4</ele>
        <time>2024-02-04T12:58:52Z</time>
      </trkpt>
      <trkpt lat="42.84817" lon="1.18306">
        <ele>679</ele>
        <time>2024-02-04T12:58:54Z</time>
      </trkpt>
      <trkpt lat="42.84818" lon="1.18303">
        <ele>679.4</ele>
        <time>2024-02-04T12:58:55Z</time>
      </trkpt>
      <trkpt lat="42.84819" lon="1.18299">
        <ele>679.8</ele>
        <time>2024-02-04T12:58:56Z</time>
      </trkpt>
      <trkpt lat="42.84819" lon="1.18296">
        <ele>680.2</ele>
        <time>2024-02-04T12:58:57Z</time>
      </trkpt>
      <trkpt lat="42.8482" lon="1.18293">
        <ele>680.6</ele>
        <time>2024-02-04T12:58:58Z</time>
      </trkpt>
      <trkpt lat="42.84821" lon="1.1828">
        <ele>681</ele>
        <time>2024-02-04T12:59:02Z</time>
      </trkpt>
      <trkpt lat="42.84822" lon="1.18277">
        <ele>681.4</ele>
        <time>2024-02-04T12:59:03Z</time>
      </trkpt>
      <trkpt lat="42.84824" lon="1.18274">
        <ele>681.8</ele>
        <time>2024-02-04T12:59:04Z</time>
      </trkpt>
      <trkpt lat="42.84825" lon="1.1827">
        <ele>682.2</ele>
        <time>2024-02-04T12:59:05Z</time>
      </trkpt>
      <trkpt lat="42.84826" lon="1.18266">
        <ele>682.6</ele>
        <time>2024-02-04T12:59:06Z</time>
      </trkpt>
      <trkpt lat="42.84828" lon="1.18263">
        <ele>682.6</ele>
        <time>2024-02-04T12:59:07Z</time>
      </trkpt>
      <trkpt lat="42.84832" lon="1.18248">
        <ele>683</ele>
        <time>2024-02-04T12:59:11Z</time>
      </trkpt>
      <trkpt lat="42.84833" lon="1.18245">
        <ele>683.4</ele>
        <time>2024-02-04T12:59:12Z</time>
      </trkpt>
      <trkpt lat="42.84834" lon="1.18243">
        <ele>684.2</ele>
        <time>2024-02-04T12:59:13Z</time>
      </trkpt>
      <trkpt lat="42.84835" lon="1.1824">
        <ele>684.6</ele>
        <time>2024-02-04T12:59:14Z</time>
      </trkpt>
      <trkpt lat="42.84837" lon="1.18235">
        <ele>684.6</ele>
        <time>2024-02-04T12:59:16Z</time>
      </trkpt>
      <trkpt lat="42.8484" lon="1.18227">
        <ele>685</ele>
        <time>2024-02-04T12:59:19Z</time>
      </trkpt>
      <trkpt lat="42.84841" lon="1.18224">
        <ele>685.6</ele>
        <time>2024-02-04T12:59:20Z</time>
      </trkpt>
      <trkpt lat="42.84842" lon="1.1822">
        <ele>686</ele>
        <time>2024-02-04T12:59:21Z</time>
      </trkpt>
      <trkpt lat="42.84843" lon="1.18218">
        <ele>686.4</ele>
        <time>2024-02-04T12:59:22Z</time>
      </trkpt>
      <trkpt lat="42.84843" lon="1.18215">
        <ele>686.8</ele>
        <time>2024-02-04T12:59:23Z</time>
      </trkpt>
      <trkpt lat="42.84845" lon="1.18203">
        <ele>686.8</ele>
        <time>2024-02-04T12:59:27Z</time>
      </trkpt>
      <trkpt lat="42.84846" lon="1.18201">
        <ele>687.2</ele>
        <time>2024-02-04T12:59:28Z</time>
      </trkpt>
      <trkpt lat="42.84846" lon="1.18197">
        <ele>687.6</ele>
        <time>2024-02-04T12:59:29Z</time>
      </trkpt>
      <trkpt lat="42.84846" lon="1.18194">
        <ele>688.2</ele>
        <time>2024-02-04T12:59:30Z</time>
      </trkpt>
      <trkpt lat="42.84847" lon="1.18191">
        <ele>688.6</ele>
        <time>2024-02-04T12:59:31Z</time>
      </trkpt>
      <trkpt lat="42.84847" lon="1.18187">
        <ele>689</ele>
        <time>2024-02-04T12:59:32Z</time>
      </trkpt>
      <trkpt lat="42.84848" lon="1.18184">
        <ele>689</ele>
        <time>2024-02-04T12:59:33Z</time>
      </trkpt>
      <trkpt lat="42.84849" lon="1.1818">
        <ele>689</ele>
        <time>2024-02-04T12:59:35Z</time>
      </trkpt>
      <trkpt lat="42.84849" lon="1.18178">
        <ele>689.4</ele>
        <time>2024-02-04T12:59:36Z</time>
      </trkpt>
      <trkpt lat="42.8485" lon="1.18174">
        <ele>690</ele>
        <time>2024-02-04T12:59:37Z</time>
      </trkpt>
      <trkpt lat="42.84851" lon="1.1817">
        <ele>690.8</ele>
        <time>2024-02-04T12:59:38Z</time>
      </trkpt>
      <trkpt lat="42.84851" lon="1.18167">
        <ele>691.2</ele>
        <time>2024-02-04T12:59:39Z</time>
      </trkpt>
      <trkpt lat="42.84851" lon="1.18158">
        <ele>691.2</ele>
        <time>2024-02-04T12:59:42Z</time>
      </trkpt>
      <trkpt lat="42.84852" lon="1.18156">
        <ele>691.2</ele>
        <time>2024-02-04T12:59:43Z</time>
      </trkpt>
      <trkpt lat="42.84853" lon="1.18153">
        <ele>691.6</ele>
        <time>2024-02-04T12:59:45Z</time>
      </trkpt>
      <trkpt lat="42.84854" lon="1.18151">
        <ele>692</ele>
        <time>2024-02-04T12:59:46Z</time>
      </trkpt>
      <trkpt lat="42.84855" lon="1.18148">
        <ele>692.6</ele>
        <time>2024-02-04T12:59:47Z</time>
      </trkpt>
      <trkpt lat="42.84856" lon="1.18147">
        <ele>693</ele>
        <time>2024-02-04T12:59:48Z</time>
      </trkpt>
      <trkpt lat="42.84857" lon="1.18144">
        <ele>693.4</ele>
        <time>2024-02-04T12:59:49Z</time>
      </trkpt>
      <trkpt lat="42.84858" lon="1.18129">
        <ele>693.8</ele>
        <time>2024-02-04T12:59:54Z</time>
      </trkpt>
      <trkpt lat="42.84858" lon="1.18126">
        <ele>694.2</ele>
        <time>2024-02-04T12:59:55Z</time>
      </trkpt>
      <trkpt lat="42.84859" lon="1.18123">
        <ele>694.8</ele>
        <time>2024-02-04T12:59:56Z</time>
      </trkpt>
      <trkpt lat="42.8486" lon="1.1812">
        <ele>695.2</ele>
        <time>2024-02-04T12:59:57Z</time>
      </trkpt>
      <trkpt lat="42.8486" lon="1.18117">
        <ele>695.6</ele>
        <time>2024-02-04T12:59:58Z</time>
      </trkpt>
      <trkpt lat="42.84862" lon="1.18106">
        <ele>695.6</ele>
        <time>2024-02-04T13:00:01Z</time>
      </trkpt>
      <trkpt lat="42.84862" lon="1.18101">
        <ele>696</ele>
        <time>2024-02-04T13:00:03Z</time>
      </trkpt>
      <trkpt lat="42.84863" lon="1.18099">
        <ele>696.4</ele>
        <time>2024-02-04T13:00:04Z</time>
      </trkpt>
      <trkpt lat="42.84863" lon="1.18097">
        <ele>696.8</ele>
        <time>2024-02-04T13:00:05Z</time>
      </trkpt>
      <trkpt lat="42.84863" lon="1.18094">
        <ele>697.4</ele>
        <time>2024-02-04T13:00:06Z</time>
      </trkpt>
      <trkpt lat="42.84862" lon="1.18092">
        <ele>697.8</ele>
        <time>2024-02-04T13:00:07Z</time>
      </trkpt>
      <trkpt lat="42.84863" lon="1.18088">
        <ele>697.8</ele>
        <time>2024-02-04T13:00:08Z</time>
      </trkpt>
      <trkpt lat="42.84868" lon="1.18072">
        <ele>698.2</ele>
        <time>2024-02-04T13:00:13Z</time>
      </trkpt>
      <trkpt lat="42.84869" lon="1.18069">
        <ele>698.6</ele>
        <time>2024-02-04T13:00:14Z</time>
      </trkpt>
      <trkpt lat="42.8487" lon="1.18067">
        <ele>699.2</ele>
        <time>2024-02-04T13:00:15Z</time>
      </trkpt>
      <trkpt lat="42.84871" lon="1.18065">
        <ele>699.6</ele>
        <time>2024-02-04T13:00:16Z</time>
      </trkpt>
      <trkpt lat="42.84872" lon="1.18062">
        <ele>700</ele>
        <time>2024-02-04T13:00:17Z</time>
      </trkpt>
      <trkpt lat="42.84872" lon="1.18057">
        <ele>700</ele>
        <time>2024-02-04T13:00:19Z</time>
      </trkpt>
      <trkpt lat="42.84871" lon="1.18048">
        <ele>700.4</ele>
        <time>2024-02-04T13:00:22Z</time>
      </trkpt>
      <trkpt lat="42.8487" lon="1.18042">
        <ele>700.8</ele>
        <time>2024-02-04T13:00:23Z</time>
      </trkpt>
      <trkpt lat="42.84869" lon="1.18038">
        <ele>701.2</ele>
        <time>2024-02-04T13:00:24Z</time>
      </trkpt>
      <trkpt lat="42.84868" lon="1.18032">
        <ele>701.6</ele>
        <time>2024-02-04T13:00:25Z</time>
      </trkpt>
      <trkpt lat="42.84867" lon="1.18027">
        <ele>702</ele>
        <time>2024-02-04T13:00:26Z</time>
      </trkpt>
      <trkpt lat="42.84866" lon="1.18017">
        <ele>702</ele>
        <time>2024-02-04T13:00:29Z</time>
      </trkpt>
      <trkpt lat="42.84865" lon="1.1801">
        <ele>702.4</ele>
        <time>2024-02-04T13:00:31Z</time>
      </trkpt>
      <trkpt lat="42.84864" lon="1.18007">
        <ele>702.8</ele>
        <time>2024-02-04T13:00:32Z</time>
      </trkpt>
      <trkpt lat="42.84863" lon="1.18005">
        <ele>703.4</ele>
        <time>2024-02-04T13:00:33Z</time>
      </trkpt>
      <trkpt lat="42.84862" lon="1.18003">
        <ele>703.8</ele>
        <time>2024-02-04T13:00:34Z</time>
      </trkpt>
      <trkpt lat="42.84862" lon="1.18003">
        <ele>704.2</ele>
        <time>2024-02-04T13:00:35Z</time>
      </trkpt>
      <trkpt lat="42.84861" lon="1.17999">
        <ele>704.2</ele>
        <time>2024-02-04T13:00:37Z</time>
      </trkpt>
      <trkpt lat="42.84864" lon="1.17993">
        <ele>704.2</ele>
        <time>2024-02-04T13:00:39Z</time>
      </trkpt>
      <trkpt lat="42.84866" lon="1.17991">
        <ele>704.6</ele>
        <time>2024-02-04T13:00:41Z</time>
      </trkpt>
      <trkpt lat="42.84868" lon="1.17991">
        <ele>705</ele>
        <time>2024-02-04T13:00:42Z</time>
      </trkpt>
      <trkpt lat="42.8487" lon="1.17991">
        <ele>705.4</ele>
        <time>2024-02-04T13:00:43Z</time>
      </trkpt>
      <trkpt lat="42.84873" lon="1.17991">
        <ele>705.8</ele>
        <time>2024-02-04T13:00:44Z</time>
      </trkpt>
      <trkpt lat="42.84875" lon="1.17992">
        <ele>706.2</ele>
        <time>2024-02-04T13:00:45Z</time>
      </trkpt>
      <trkpt lat="42.84883" lon="1.17995">
        <ele>706.2</ele>
        <time>2024-02-04T13:00:49Z</time>
      </trkpt>
      <trkpt lat="42.84888" lon="1.17996">
        <ele>706.6</ele>
        <time>2024-02-04T13:00:51Z</time>
      </trkpt>
      <trkpt lat="42.84892" lon="1.17981">
        <ele>707</ele>
        <time>2024-02-04T13:00:52Z</time>
      </trkpt>
      <trkpt lat="42.84896" lon="1.17979">
        <ele>707.8</ele>
        <time>2024-02-04T13:00:53Z</time>
      </trkpt>
      <trkpt lat="42.84899" lon="1.1798">
        <ele>708.4</ele>
        <time>2024-02-04T13:00:54Z</time>
      </trkpt>
      <trkpt lat="42.84901" lon="1.17981">
        <ele>708.4</ele>
        <time>2024-02-04T13:00:55Z</time>
      </trkpt>
      <trkpt lat="42.84908" lon="1.17978">
        <ele>708.8</ele>
        <time>2024-02-04T13:00:58Z</time>
      </trkpt>
      <trkpt lat="42.8491" lon="1.17978">
        <ele>709.2</ele>
        <time>2024-02-04T13:00:59Z</time>
      </trkpt>
      <trkpt lat="42.84911" lon="1.17977">
        <ele>709.6</ele>
        <time>2024-02-04T13:01:00Z</time>
      </trkpt>
      <trkpt lat="42.84911" lon="1.17976">
        <ele>710</ele>
        <time>2024-02-04T13:01:01Z</time>
      </trkpt>
      <trkpt lat="42.84912" lon="1.17973">
        <ele>710.6</ele>
        <time>2024-02-04T13:01:02Z</time>
      </trkpt>
      <trkpt lat="42.84911" lon="1.17967">
        <ele>710.6</ele>
        <time>2024-02-04T13:01:04Z</time>
      </trkpt>
      <trkpt lat="42.84911" lon="1.17959">
        <ele>711</ele>
        <time>2024-02-04T13:01:07Z</time>
      </trkpt>
      <trkpt lat="42.84911" lon="1.17957">
        <ele>711.4</ele>
        <time>2024-02-04T13:01:08Z</time>
      </trkpt>
      <trkpt lat="42.84911" lon="1.17954">
        <ele>711.8</ele>
        <time>2024-02-04T13:01:09Z</time>
      </trkpt>
      <trkpt lat="42.84912" lon="1.17951">
        <ele>712.2</ele>
        <time>2024-02-04T13:01:10Z</time>
      </trkpt>
      <trkpt lat="42.84912" lon="1.17949">
        <ele>712.6</ele>
        <time>2024-02-04T13:01:11Z</time>
      </trkpt>
      <trkpt lat="42.8491" lon="1.17943">
        <ele>712.6</ele>
        <time>2024-02-04T13:01:13Z</time>
      </trkpt>
      <trkpt lat="42.8491" lon="1.17938">
        <ele>713</ele>
        <time>2024-02-04T13:01:15Z</time>
      </trkpt>
      <trkpt lat="42.84911" lon="1.17934">
        <ele>713.4</ele>
        <time>2024-02-04T13:01:16Z</time>
      </trkpt>
      <trkpt lat="42.84911" lon="1.17931">
        <ele>714.2</ele>
        <time>2024-02-04T13:01:17Z</time>
      </trkpt>
      <trkpt lat="42.84912" lon="1.17927">
        <ele>714.8</ele>
        <time>2024-02-04T13:01:18Z</time>
      </trkpt>
      <trkpt lat="42.84915" lon="1.17914">
        <ele>715.2</ele>
        <time>2024-02-04T13:01:22Z</time>
      </trkpt>
      <trkpt lat="42.84915" lon="1.17911">
        <ele>715.6</ele>
        <time>2024-02-04T13:01:23Z</time>
      </trkpt>
      <trkpt lat="42.84917" lon="1.17908">
        <ele>716</ele>
        <time>2024-02-04T13:01:24Z</time>
      </trkpt>
      <trkpt lat="42.84919" lon="1.17905">
        <ele>716.4</ele>
        <time>2024-02-04T13:01:25Z</time>
      </trkpt>
      <trkpt lat="42.84921" lon="1.17902">
        <ele>716.8</ele>
        <time>2024-02-04T13:01:26Z</time>
      </trkpt>
      <trkpt lat="42.84924" lon="1.17897">
        <ele>716.8</ele>
        <time>2024-02-04T13:01:28Z</time>
      </trkpt>
      <trkpt lat="42.84923" lon="1.17891">
        <ele>717.2</ele>
        <time>2024-02-04T13:01:30Z</time>
      </trkpt>
      <trkpt lat="42.84923" lon="1.17888">
        <ele>717.6</ele>
        <time>2024-02-04T13:01:31Z</time>
      </trkpt>
      <trkpt lat="42.84924" lon="1.17886">
        <ele>718</ele>
        <time>2024-02-04T13:01:32Z</time>
      </trkpt>
      <trkpt lat="42.84925" lon="1.17885">
        <ele>718.4</ele>
        <time>2024-02-04T13:01:33Z</time>
      </trkpt>
      <trkpt lat="42.84926" lon="1.17883">
        <ele>718.8</ele>
        <time>2024-02-04T13:01:34Z</time>
      </trkpt>
      <trkpt lat="42.8493" lon="1.17882">
        <ele>718.8</ele>
        <time>2024-02-04T13:01:37Z</time>
      </trkpt>
      <trkpt lat="42.8493" lon="1.17884">
        <ele>719.2</ele>
        <time>2024-02-04T13:01:38Z</time>
      </trkpt>
      <trkpt lat="42.84931" lon="1.17885">
        <ele>719.6</ele>
        <time>2024-02-04T13:01:39Z</time>
      </trkpt>
      <trkpt lat="42.84933" lon="1.17886">
        <ele>720</ele>
        <time>2024-02-04T13:01:40Z</time>
      </trkpt>
      <trkpt lat="42.84935" lon="1.17886">
        <ele>720.4</ele>
        <time>2024-02-04T13:01:41Z</time>
      </trkpt>
      <trkpt lat="42.84936" lon="1.17885">
        <ele>720.8</ele>
        <time>2024-02-04T13:01:42Z</time>
      </trkpt>
      <trkpt lat="42.84938" lon="1.17886">
        <ele>720.8</ele>
        <time>2024-02-04T13:01:43Z</time>
      </trkpt>
      <trkpt lat="42.84943" lon="1.17889">
        <ele>721.2</ele>
        <time>2024-02-04T13:01:45Z</time>
      </trkpt>
      <trkpt lat="42.84945" lon="1.17891">
        <ele>721.6</ele>
        <time>2024-02-04T13:01:46Z</time>
      </trkpt>
      <trkpt lat="42.84946" lon="1.17893">
        <ele>722</ele>
        <time>2024-02-04T13:01:47Z</time>
      </trkpt>
      <trkpt lat="42.84947" lon="1.17894">
        <ele>722.4</ele>
        <time>2024-02-04T13:01:48Z</time>
      </trkpt>
      <trkpt lat="42.84948" lon="1.17896">
        <ele>722.8</ele>
        <time>2024-02-04T13:01:49Z</time>
      </trkpt>
      <trkpt lat="42.84949" lon="1.17899">
        <ele>722.8</ele>
        <time>2024-02-04T13:01:50Z</time>
      </trkpt>
      <trkpt lat="42.84959" lon="1.17907">
        <ele>723.2</ele>
        <time>2024-02-04T13:01:54Z</time>
      </trkpt>
      <trkpt lat="42.84961" lon="1.17909">
        <ele>723.6</ele>
        <time>2024-02-04T13:01:55Z</time>
      </trkpt>
      <trkpt lat="42.84963" lon="1.17911">
        <ele>724.2</ele>
        <time>2024-02-04T13:01:56Z</time>
      </trkpt>
      <trkpt lat="42.84964" lon="1.17914">
        <ele>724.6</ele>
        <time>2024-02-04T13:01:57Z</time>
      </trkpt>
      <trkpt lat="42.84967" lon="1.17917">
        <ele>725</ele>
        <time>2024-02-04T13:01:58Z</time>
      </trkpt>
      <trkpt lat="42.84974" lon="1.17927">
        <ele>725</ele>
        <time>2024-02-04T13:02:02Z</time>
      </trkpt>
      <trkpt lat="42.84982" lon="1.17934">
        <ele>725.4</ele>
        <time>2024-02-04T13:02:05Z</time>
      </trkpt>
      <trkpt lat="42.84985" lon="1.17936">
        <ele>725.8</ele>
        <time>2024-02-04T13:02:06Z</time>
      </trkpt>
      <trkpt lat="42.84987" lon="1.17938">
        <ele>726.6</ele>
        <time>2024-02-04T13:02:07Z</time>
      </trkpt>
      <trkpt lat="42.84989" lon="1.1794">
        <ele>727</ele>
        <time>2024-02-04T13:02:08Z</time>
      </trkpt>
      <trkpt lat="42.84994" lon="1.17944">
        <ele>727</ele>
        <time>2024-02-04T13:02:10Z</time>
      </trkpt>
      <trkpt lat="42.85009" lon="1.1795">
        <ele>727</ele>
        <time>2024-02-04T13:02:16Z</time>
      </trkpt>
      <trkpt lat="42.85016" lon="1.17947">
        <ele>727.4</ele>
        <time>2024-02-04T13:02:19Z</time>
      </trkpt>
      <trkpt lat="42.85018" lon="1.17946">
        <ele>727.8</ele>
        <time>2024-02-04T13:02:20Z</time>
      </trkpt>
      <trkpt lat="42.8502" lon="1.17944">
        <ele>728.2</ele>
        <time>2024-02-04T13:02:21Z</time>
      </trkpt>
      <trkpt lat="42.85022" lon="1.17942">
        <ele>728.6</ele>
        <time>2024-02-04T13:02:22Z</time>
      </trkpt>
      <trkpt lat="42.85024" lon="1.1794">
        <ele>729</ele>
        <time>2024-02-04T13:02:23Z</time>
      </trkpt>
      <trkpt lat="42.85031" lon="1.17929">
        <ele>729</ele>
        <time>2024-02-04T13:02:27Z</time>
      </trkpt>
      <trkpt lat="42.85032" lon="1.17927">
        <ele>729.4</ele>
        <time>2024-02-04T13:02:28Z</time>
      </trkpt>
      <trkpt lat="42.85034" lon="1.17924">
        <ele>729.8</ele>
        <time>2024-02-04T13:02:29Z</time>
      </trkpt>
      <trkpt lat="42.85036" lon="1.17921">
        <ele>730.2</ele>
        <time>2024-02-04T13:02:30Z</time>
      </trkpt>
      <trkpt lat="42.85038" lon="1.17918">
        <ele>730.6</ele>
        <time>2024-02-04T13:02:31Z</time>
      </trkpt>
      <trkpt lat="42.8504" lon="1.17916">
        <ele>731</ele>
        <time>2024-02-04T13:02:32Z</time>
      </trkpt>
      <trkpt lat="42.85052" lon="1.17911">
        <ele>731.6</ele>
        <time>2024-02-04T13:02:37Z</time>
      </trkpt>
      <trkpt lat="42.85055" lon="1.17912">
        <ele>732</ele>
        <time>2024-02-04T13:02:38Z</time>
      </trkpt>
      <trkpt lat="42.85058" lon="1.17912">
        <ele>732.4</ele>
        <time>2024-02-04T13:02:39Z</time>
      </trkpt>
      <trkpt lat="42.85061" lon="1.17913">
        <ele>732.8</ele>
        <time>2024-02-04T13:02:40Z</time>
      </trkpt>
      <trkpt lat="42.85064" lon="1.17914">
        <ele>733.2</ele>
        <time>2024-02-04T13:02:41Z</time>
      </trkpt>
      <trkpt lat="42.85069" lon="1.17916">
        <ele>733.2</ele>
        <time>2024-02-04T13:02:43Z</time>
      </trkpt>
      <trkpt lat="42.85076" lon="1.17921">
        <ele>733.6</ele>
        <time>2024-02-04T13:02:46Z</time>
      </trkpt>
      <trkpt lat="42.85078" lon="1.17922">
        <ele>734</ele>
        <time>2024-02-04T13:02:47Z</time>
      </trkpt>
      <trkpt lat="42.85081" lon="1.17923">
        <ele>734.4</ele>
        <time>2024-02-04T13:02:48Z</time>
      </trkpt>
      <trkpt lat="42.85083" lon="1.17925">
        <ele>734.8</ele>
        <time>2024-02-04T13:02:49Z</time>
      </trkpt>
      <trkpt lat="42.85084" lon="1.17927">
        <ele>735.2</ele>
        <time>2024-02-04T13:02:50Z</time>
      </trkpt>
      <trkpt lat="42.85092" lon="1.17938">
        <ele>735.2</ele>
        <time>2024-02-04T13:02:55Z</time>
      </trkpt>
      <trkpt lat="42.85094" lon="1.1794">
        <ele>736.2</ele>
        <time>2024-02-04T13:02:56Z</time>
      </trkpt>
      <trkpt lat="42.85096" lon="1.17942">
        <ele>736.6</ele>
        <time>2024-02-04T13:02:57Z</time>
      </trkpt>
      <trkpt lat="42.85098" lon="1.17944">
        <ele>737</ele>
        <time>2024-02-04T13:02:58Z</time>
      </trkpt>
      <trkpt lat="42.85099" lon="1.17947">
        <ele>737.4</ele>
        <time>2024-02-04T13:02:59Z</time>
      </trkpt>
      <trkpt lat="42.85106" lon="1.17957">
        <ele>737.8</ele>
        <time>2024-02-04T13:03:03Z</time>
      </trkpt>
      <trkpt lat="42.85107" lon="1.1796">
        <ele>738.2</ele>
        <time>2024-02-04T13:03:04Z</time>
      </trkpt>
      <trkpt lat="42.85109" lon="1.17963">
        <ele>738.6</ele>
        <time>2024-02-04T13:03:05Z</time>
      </trkpt>
      <trkpt lat="42.8511" lon="1.17966">
        <ele>739</ele>
        <time>2024-02-04T13:03:06Z</time>
      </trkpt>
      <trkpt lat="42.85112" lon="1.17969">
        <ele>739.4</ele>
        <time>2024-02-04T13:03:07Z</time>
      </trkpt>
      <trkpt lat="42.85115" lon="1.17976">
        <ele>739.4</ele>
        <time>2024-02-04T13:03:09Z</time>
      </trkpt>
      <trkpt lat="42.85121" lon="1.1799">
        <ele>739.8</ele>
        <time>2024-02-04T13:03:13Z</time>
      </trkpt>
      <trkpt lat="42.85122" lon="1.17993">
        <ele>740.4</ele>
        <time>2024-02-04T13:03:14Z</time>
      </trkpt>
      <trkpt lat="42.85123" lon="1.17997">
        <ele>740.8</ele>
        <time>2024-02-04T13:03:15Z</time>
      </trkpt>
      <trkpt lat="42.85124" lon="1.18">
        <ele>741.2</ele>
        <time>2024-02-04T13:03:16Z</time>
      </trkpt>
      <trkpt lat="42.85125" lon="1.18004">
        <ele>741.6</ele>
        <time>2024-02-04T13:03:17Z</time>
      </trkpt>
      <trkpt lat="42.85129" lon="1.18019">
        <ele>742</ele>
        <time>2024-02-04T13:03:21Z</time>
      </trkpt>
      <trkpt lat="42.8513" lon="1.18022">
        <ele>742.4</ele>
        <time>2024-02-04T13:03:22Z</time>
      </trkpt>
      <trkpt lat="42.8513" lon="1.18026">
        <ele>742.8</ele>
        <time>2024-02-04T13:03:23Z</time>
      </trkpt>
      <trkpt lat="42.85131" lon="1.18029">
        <ele>743.2</ele>
        <time>2024-02-04T13:03:24Z</time>
      </trkpt>
      <trkpt lat="42.85133" lon="1.18032">
        <ele>743.6</ele>
        <time>2024-02-04T13:03:25Z</time>
      </trkpt>
      <trkpt lat="42.85137" lon="1.18053">
        <ele>743.6</ele>
        <time>2024-02-04T13:03:31Z</time>
      </trkpt>
      <trkpt lat="42.85139" lon="1.1806">
        <ele>744</ele>
        <time>2024-02-04T13:03:33Z</time>
      </trkpt>
      <trkpt lat="42.8514" lon="1.18063">
        <ele>744.4</ele>
        <time>2024-02-04T13:03:34Z</time>
      </trkpt>
      <trkpt lat="42.85141" lon="1.18067">
        <ele>745</ele>
        <time>2024-02-04T13:03:35Z</time>
      </trkpt>
      <trkpt lat="42.85142" lon="1.1807">
        <ele>745.4</ele>
        <time>2024-02-04T13:03:36Z</time>
      </trkpt>
      <trkpt lat="42.85143" lon="1.18074">
        <ele>745.8</ele>
        <time>2024-02-04T13:03:37Z</time>
      </trkpt>
      <trkpt lat="42.8514" lon="1.18095">
        <ele>745.8</ele>
        <time>2024-02-04T13:03:42Z</time>
      </trkpt>
      <trkpt lat="42.85136" lon="1.18117">
        <ele>746.2</ele>
        <time>2024-02-04T13:03:47Z</time>
      </trkpt>
      <trkpt lat="42.85136" lon="1.18121">
        <ele>746.6</ele>
        <time>2024-02-04T13:03:48Z</time>
      </trkpt>
      <trkpt lat="42.85135" lon="1.18125">
        <ele>747</ele>
        <time>2024-02-04T13:03:49Z</time>
      </trkpt>
      <trkpt lat="42.85135" lon="1.18129">
        <ele>747.4</ele>
        <time>2024-02-04T13:03:50Z</time>
      </trkpt>
      <trkpt lat="42.85134" lon="1.18134">
        <ele>747.8</ele>
        <time>2024-02-04T13:03:51Z</time>
      </trkpt>
      <trkpt lat="42.85136" lon="1.18145">
        <ele>747.8</ele>
        <time>2024-02-04T13:03:54Z</time>
      </trkpt>
      <trkpt lat="42.85142" lon="1.1814">
        <ele>747.8</ele>
        <time>2024-02-04T13:03:57Z</time>
      </trkpt>
      <trkpt lat="42.85144" lon="1.18126">
        <ele>748.2</ele>
        <time>2024-02-04T13:04:00Z</time>
      </trkpt>
      <trkpt lat="42.85144" lon="1.18122">
        <ele>748.8</ele>
        <time>2024-02-04T13:04:01Z</time>
      </trkpt>
      <trkpt lat="42.85145" lon="1.18118">
        <ele>749.2</ele>
        <time>2024-02-04T13:04:02Z</time>
      </trkpt>
      <trkpt lat="42.85146" lon="1.18114">
        <ele>749.6</ele>
        <time>2024-02-04T13:04:03Z</time>
      </trkpt>
      <trkpt lat="42.85148" lon="1.1811">
        <ele>750.2</ele>
        <time>2024-02-04T13:04:04Z</time>
      </trkpt>
      <trkpt lat="42.85151" lon="1.18099">
        <ele>750.6</ele>
        <time>2024-02-04T13:04:07Z</time>
      </trkpt>
      <trkpt lat="42.85152" lon="1.18095">
        <ele>751</ele>
        <time>2024-02-04T13:04:08Z</time>
      </trkpt>
      <trkpt lat="42.85153" lon="1.18092">
        <ele>751.4</ele>
        <time>2024-02-04T13:04:09Z</time>
      </trkpt>
      <trkpt lat="42.85155" lon="1.18088">
        <ele>751.8</ele>
        <time>2024-02-04T13:04:10Z</time>
      </trkpt>
      <trkpt lat="42.85156" lon="1.18084">
        <ele>752.2</ele>
        <time>2024-02-04T13:04:11Z</time>
      </trkpt>
      <trkpt lat="42.8516" lon="1.18072">
        <ele>752.6</ele>
        <time>2024-02-04T13:04:14Z</time>
      </trkpt>
      <trkpt lat="42.8516" lon="1.18069">
        <ele>753</ele>
        <time>2024-02-04T13:04:15Z</time>
      </trkpt>
      <trkpt lat="42.85161" lon="1.18064">
        <ele>753.4</ele>
        <time>2024-02-04T13:04:16Z</time>
      </trkpt>
      <trkpt lat="42.85161" lon="1.1806">
        <ele>753.8</ele>
        <time>2024-02-04T13:04:17Z</time>
      </trkpt>
      <trkpt lat="42.85162" lon="1.18056">
        <ele>754.2</ele>
        <time>2024-02-04T13:04:18Z</time>
      </trkpt>
      <trkpt lat="42.85164" lon="1.1804">
        <ele>754.6</ele>
        <time>2024-02-04T13:04:22Z</time>
      </trkpt>
      <trkpt lat="42.85165" lon="1.18036">
        <ele>755</ele>
        <time>2024-02-04T13:04:23Z</time>
      </trkpt>
      <trkpt lat="42.85165" lon="1.18032">
        <ele>755.4</ele>
        <time>2024-02-04T13:04:24Z</time>
      </trkpt>
      <trkpt lat="42.85166" lon="1.18028">
        <ele>755.8</ele>
        <time>2024-02-04T13:04:25Z</time>
      </trkpt>
      <trkpt lat="42.85166" lon="1.18024">
        <ele>756.2</ele>
        <time>2024-02-04T13:04:26Z</time>
      </trkpt>
      <trkpt lat="42.85167" lon="1.18013">
        <ele>756.2</ele>
        <time>2024-02-04T13:04:29Z</time>
      </trkpt>
      <trkpt lat="42.85169" lon="1.18007">
        <ele>756.6</ele>
        <time>2024-02-04T13:04:31Z</time>
      </trkpt>
      <trkpt lat="42.8517" lon="1.18003">
        <ele>757</ele>
        <time>2024-02-04T13:04:32Z</time>
      </trkpt>
      <trkpt lat="42.8517" lon="1.17999">
        <ele>757.6</ele>
        <time>2024-02-04T13:04:33Z</time>
      </trkpt>
      <trkpt lat="42.85171" lon="1.17995">
        <ele>758</ele>
        <time>2024-02-04T13:04:34Z</time>
      </trkpt>
      <trkpt lat="42.85171" lon="1.17991">
        <ele>758.4</ele>
        <time>2024-02-04T13:04:35Z</time>
      </trkpt>
      <trkpt lat="42.85172" lon="1.17983">
        <ele>758.8</ele>
        <time>2024-02-04T13:04:37Z</time>
      </trkpt>
      <trkpt lat="42.85172" lon="1.17978">
        <ele>759.2</ele>
        <time>2024-02-04T13:04:38Z</time>
      </trkpt>
      <trkpt lat="42.85171" lon="1.17974">
        <ele>759.6</ele>
        <time>2024-02-04T13:04:39Z</time>
      </trkpt>
      <trkpt lat="42.85171" lon="1.17969">
        <ele>760.2</ele>
        <time>2024-02-04T13:04:40Z</time>
      </trkpt>
      <trkpt lat="42.8517" lon="1.17964">
        <ele>760.6</ele>
        <time>2024-02-04T13:04:41Z</time>
      </trkpt>
      <trkpt lat="42.85168" lon="1.17951">
        <ele>761</ele>
        <time>2024-02-04T13:04:44Z</time>
      </trkpt>
      <trkpt lat="42.85167" lon="1.17947">
        <ele>761.4</ele>
        <time>2024-02-04T13:04:45Z</time>
      </trkpt>
      <trkpt lat="42.85166" lon="1.17943">
        <ele>761.8</ele>
        <time>2024-02-04T13:04:46Z</time>
      </trkpt>
      <trkpt lat="42.85165" lon="1.17939">
        <ele>762.2</ele>
        <time>2024-02-04T13:04:47Z</time>
      </trkpt>
      <trkpt lat="42.85165" lon="1.17935">
        <ele>762.6</ele>
        <time>2024-02-04T13:04:48Z</time>
      </trkpt>
      <trkpt lat="42.8517" lon="1.17917">
        <ele>763.2</ele>
        <time>2024-02-04T13:04:53Z</time>
      </trkpt>
      <trkpt lat="42.85172" lon="1.17915">
        <ele>763.6</ele>
        <time>2024-02-04T13:04:54Z</time>
      </trkpt>
      <trkpt lat="42.85174" lon="1.17913">
        <ele>764</ele>
        <time>2024-02-04T13:04:55Z</time>
      </trkpt>
      <trkpt lat="42.85177" lon="1.17913">
        <ele>764.4</ele>
        <time>2024-02-04T13:04:56Z</time>
      </trkpt>
      <trkpt lat="42.85179" lon="1.17913">
        <ele>764.8</ele>
        <time>2024-02-04T13:04:57Z</time>
      </trkpt>
      <trkpt lat="42.85181" lon="1.17913">
        <ele>764.8</ele>
        <time>2024-02-04T13:04:58Z</time>
      </trkpt>
      <trkpt lat="42.85184" lon="1.17913">
        <ele>765.8</ele>
        <time>2024-02-04T13:05:00Z</time>
      </trkpt>
      <trkpt lat="42.85187" lon="1.17912">
        <ele>766.2</ele>
        <time>2024-02-04T13:05:01Z</time>
      </trkpt>
      <trkpt lat="42.85189" lon="1.17912">
        <ele>766.6</ele>
        <time>2024-02-04T13:05:02Z</time>
      </trkpt>
      <trkpt lat="42.85191" lon="1.17913">
        <ele>767</ele>
        <time>2024-02-04T13:05:03Z</time>
      </trkpt>
      <trkpt lat="42.85192" lon="1.17913">
        <ele>767</ele>
        <time>2024-02-04T13:05:04Z</time>
      </trkpt>
      <trkpt lat="42.85204" lon="1.17912">
        <ele>767.4</ele>
        <time>2024-02-04T13:05:10Z</time>
      </trkpt>
      <trkpt lat="42.85205" lon="1.17911">
        <ele>767.8</ele>
        <time>2024-02-04T13:05:11Z</time>
      </trkpt>
      <trkpt lat="42.85206" lon="1.1791">
        <ele>768.2</ele>
        <time>2024-02-04T13:05:12Z</time>
      </trkpt>
      <trkpt lat="42.85207" lon="1.1791">
        <ele>768.8</ele>
        <time>2024-02-04T13:05:13Z</time>
      </trkpt>
      <trkpt lat="42.85207" lon="1.1791">
        <ele>769.2</ele>
        <time>2024-02-04T13:05:14Z</time>
      </trkpt>
      <trkpt lat="42.8521" lon="1.17912">
        <ele>769.2</ele>
        <time>2024-02-04T13:06:16Z</time>
      </trkpt>
      <trkpt lat="42.8522" lon="1.17909">
        <ele>769.2</ele>
        <time>2024-02-04T13:06:21Z</time>
      </trkpt>
      <trkpt lat="42.85225" lon="1.17909">
        <ele>769.6</ele>
        <time>2024-02-04T13:06:23Z</time>
      </trkpt>
      <trkpt lat="42.85227" lon="1.17909">
        <ele>770.2</ele>
        <time>2024-02-04T13:06:24Z</time>
      </trkpt>
      <trkpt lat="42.85229" lon="1.17907">
        <ele>770.6</ele>
        <time>2024-02-04T13:06:25Z</time>
      </trkpt>
      <trkpt lat="42.85231" lon="1.17906">
        <ele>771</ele>
        <time>2024-02-04T13:06:26Z</time>
      </trkpt>
      <trkpt lat="42.85233" lon="1.17904">
        <ele>771.6</ele>
        <time>2024-02-04T13:06:27Z</time>
      </trkpt>
      <trkpt lat="42.85241" lon="1.17895">
        <ele>772</ele>
        <time>2024-02-04T13:06:31Z</time>
      </trkpt>
      <trkpt lat="42.85243" lon="1.17893">
        <ele>772.4</ele>
        <time>2024-02-04T13:06:32Z</time>
      </trkpt>
      <trkpt lat="42.85244" lon="1.17891">
        <ele>772.8</ele>
        <time>2024-02-04T13:06:33Z</time>
      </trkpt>
      <trkpt lat="42.85246" lon="1.17888">
        <ele>773.2</ele>
        <time>2024-02-04T13:06:34Z</time>
      </trkpt>
      <trkpt lat="42.85248" lon="1.17886">
        <ele>773.6</ele>
        <time>2024-02-04T13:06:35Z</time>
      </trkpt>
      <trkpt lat="42.85257" lon="1.17879">
        <ele>773.6</ele>
        <time>2024-02-04T13:06:39Z</time>
      </trkpt>
      <trkpt lat="42.85263" lon="1.17877">
        <ele>773.6</ele>
        <time>2024-02-04T13:06:43Z</time>
      </trkpt>
      <trkpt lat="42.85264" lon="1.17878">
        <ele>773.6</ele>
        <time>2024-02-04T13:06:46Z</time>
      </trkpt>
      <trkpt lat="42.85267" lon="1.17881">
        <ele>773.6</ele>
        <time>2024-02-04T13:07:02Z</time>
      </trkpt>
      <trkpt lat="42.85268" lon="1.17881">
        <ele>773.6</ele>
        <time>2024-02-04T13:07:03Z</time>
      </trkpt>
      <trkpt lat="42.85271" lon="1.17888">
        <ele>774</ele>
        <time>2024-02-04T13:07:07Z</time>
      </trkpt>
      <trkpt lat="42.85271" lon="1.1789">
        <ele>774.6</ele>
        <time>2024-02-04T13:07:08Z</time>
      </trkpt>
      <trkpt lat="42.85271" lon="1.17892">
        <ele>775</ele>
        <time>2024-02-04T13:07:09Z</time>
      </trkpt>
      <trkpt lat="42.85271" lon="1.17895">
        <ele>775.4</ele>
        <time>2024-02-04T13:07:10Z</time>
      </trkpt>
      <trkpt lat="42.85271" lon="1.17898">
        <ele>775.8</ele>
        <time>2024-02-04T13:07:11Z</time>
      </trkpt>
      <trkpt lat="42.85272" lon="1.179">
        <ele>775.8</ele>
        <time>2024-02-04T13:07:12Z</time>
      </trkpt>
      <trkpt lat="42.85273" lon="1.17905">
        <ele>776.4</ele>
        <time>2024-02-04T13:07:14Z</time>
      </trkpt>
      <trkpt lat="42.85273" lon="1.17907">
        <ele>776.8</ele>
        <time>2024-02-04T13:07:15Z</time>
      </trkpt>
      <trkpt lat="42.85274" lon="1.1791">
        <ele>777.2</ele>
        <time>2024-02-04T13:07:16Z</time>
      </trkpt>
      <trkpt lat="42.85274" lon="1.17913">
        <ele>777.8</ele>
        <time>2024-02-04T13:07:17Z</time>
      </trkpt>
      <trkpt lat="42.85274" lon="1.17915">
        <ele>778.2</ele>
        <time>2024-02-04T13:07:18Z</time>
      </trkpt>
      <trkpt lat="42.85274" lon="1.17918">
        <ele>778.6</ele>
        <time>2024-02-04T13:07:19Z</time>
      </trkpt>
      <trkpt lat="42.85274" lon="1.17921">
        <ele>779</ele>
        <time>2024-02-04T13:07:20Z</time>
      </trkpt>
      <trkpt lat="42.85274" lon="1.17923">
        <ele>779.4</ele>
        <time>2024-02-04T13:07:21Z</time>
      </trkpt>
      <trkpt lat="42.85275" lon="1.17925">
        <ele>779.8</ele>
        <time>2024-02-04T13:07:22Z</time>
      </trkpt>
      <trkpt lat="42.85276" lon="1.17928">
        <ele>780.4</ele>
        <time>2024-02-04T13:07:23Z</time>
      </trkpt>
      <trkpt lat="42.85277" lon="1.17932">
        <ele>780.8</ele>
        <time>2024-02-04T13:07:25Z</time>
      </trkpt>
      <trkpt lat="42.85278" lon="1.17934">
        <ele>781.2</ele>
        <time>2024-02-04T13:07:26Z</time>
      </trkpt>
      <trkpt lat="42.85278" lon="1.17936">
        <ele>781.6</ele>
        <time>2024-02-04T13:07:27Z</time>
      </trkpt>
      <trkpt lat="42.8528" lon="1.17938">
        <ele>782</ele>
        <time>2024-02-04T13:07:28Z</time>
      </trkpt>
      <trkpt lat="42.85281" lon="1.17939">
        <ele>782.8</ele>
        <time>2024-02-04T13:07:29Z</time>
      </trkpt>
      <trkpt lat="42.85282" lon="1.17941">
        <ele>783.2</ele>
        <time>2024-02-04T13:07:30Z</time>
      </trkpt>
      <trkpt lat="42.85283" lon="1.17943">
        <ele>783.6</ele>
        <time>2024-02-04T13:07:31Z</time>
      </trkpt>
      <trkpt lat="42.85284" lon="1.17944">
        <ele>784</ele>
        <time>2024-02-04T13:07:32Z</time>
      </trkpt>
      <trkpt lat="42.85284" lon="1.17946">
        <ele>784.4</ele>
        <time>2024-02-04T13:07:33Z</time>
      </trkpt>
      <trkpt lat="42.85286" lon="1.1795">
        <ele>784.4</ele>
        <time>2024-02-04T13:07:35Z</time>
      </trkpt>
      <trkpt lat="42.85287" lon="1.17951">
        <ele>784.8</ele>
        <time>2024-02-04T13:07:36Z</time>
      </trkpt>
      <trkpt lat="42.85288" lon="1.17953">
        <ele>785.2</ele>
        <time>2024-02-04T13:07:37Z</time>
      </trkpt>
      <trkpt lat="42.85289" lon="1.17954">
        <ele>785.8</ele>
        <time>2024-02-04T13:07:38Z</time>
      </trkpt>
      <trkpt lat="42.8529" lon="1.17955">
        <ele>786.2</ele>
        <time>2024-02-04T13:07:39Z</time>
      </trkpt>
      <trkpt lat="42.85291" lon="1.17957">
        <ele>786.6</ele>
        <time>2024-02-04T13:07:40Z</time>
      </trkpt>
      <trkpt lat="42.85292" lon="1.17958">
        <ele>786.6</ele>
        <time>2024-02-04T13:07:41Z</time>
      </trkpt>
      <trkpt lat="42.85293" lon="1.17959">
        <ele>787</ele>
        <time>2024-02-04T13:07:42Z</time>
      </trkpt>
      <trkpt lat="42.85294" lon="1.17961">
        <ele>787.4</ele>
        <time>2024-02-04T13:07:43Z</time>
      </trkpt>
      <trkpt lat="42.85295" lon="1.17962">
        <ele>787.8</ele>
        <time>2024-02-04T13:07:44Z</time>
      </trkpt>
      <trkpt lat="42.85296" lon="1.17963">
        <ele>788.2</ele>
        <time>2024-02-04T13:07:45Z</time>
      </trkpt>
      <trkpt lat="42.85297" lon="1.17964">
        <ele>788.6</ele>
        <time>2024-02-04T13:07:46Z</time>
      </trkpt>
      <trkpt lat="42.85297" lon="1.17968">
        <ele>788.6</ele>
        <time>2024-02-04T13:07:48Z</time>
      </trkpt>
      <trkpt lat="42.85296" lon="1.17969">
        <ele>789</ele>
        <time>2024-02-04T13:07:49Z</time>
      </trkpt>
      <trkpt lat="42.85296" lon="1.17972">
        <ele>789.6</ele>
        <time>2024-02-04T13:07:50Z</time>
      </trkpt>
      <trkpt lat="42.85296" lon="1.17974">
        <ele>790</ele>
        <time>2024-02-04T13:07:51Z</time>
      </trkpt>
      <trkpt lat="42.85296" lon="1.17976">
        <ele>790.4</ele>
        <time>2024-02-04T13:07:52Z</time>
      </trkpt>
      <trkpt lat="42.85295" lon="1.17979">
        <ele>790.8</ele>
        <time>2024-02-04T13:07:53Z</time>
      </trkpt>
      <trkpt lat="42.85295" lon="1.17983">
        <ele>791.4</ele>
        <time>2024-02-04T13:07:55Z</time>
      </trkpt>
      <trkpt lat="42.85294" lon="1.17986">
        <ele>791.8</ele>
        <time>2024-02-04T13:07:56Z</time>
      </trkpt>
      <trkpt lat="42.85294" lon="1.17989">
        <ele>792.2</ele>
        <time>2024-02-04T13:07:57Z</time>
      </trkpt>
      <trkpt lat="42.85295" lon="1.17992">
        <ele>792.6</ele>
        <time>2024-02-04T13:07:58Z</time>
      </trkpt>
      <trkpt lat="42.85295" lon="1.17994">
        <ele>793</ele>
        <time>2024-02-04T13:07:59Z</time>
      </trkpt>
      <trkpt lat="42.85296" lon="1.18002">
        <ele>793.4</ele>
        <time>2024-02-04T13:08:02Z</time>
      </trkpt>
      <trkpt lat="42.85296" lon="1.18004">
        <ele>793.8</ele>
        <time>2024-02-04T13:08:03Z</time>
      </trkpt>
      <trkpt lat="42.85297" lon="1.18006">
        <ele>794.4</ele>
        <time>2024-02-04T13:08:04Z</time>
      </trkpt>
      <trkpt lat="42.85297" lon="1.18008">
        <ele>794.8</ele>
        <time>2024-02-04T13:08:05Z</time>
      </trkpt>
      <trkpt lat="42.85298" lon="1.18009">
        <ele>795.2</ele>
        <time>2024-02-04T13:08:06Z</time>
      </trkpt>
      <trkpt lat="42.85299" lon="1.18011">
        <ele>795.6</ele>
        <time>2024-02-04T13:08:07Z</time>
      </trkpt>
      <trkpt lat="42.85299" lon="1.18013">
        <ele>796</ele>
        <time>2024-02-04T13:08:08Z</time>
      </trkpt>
      <trkpt lat="42.853" lon="1.18015">
        <ele>796.4</ele>
        <time>2024-02-04T13:08:09Z</time>
      </trkpt>
      <trkpt lat="42.853" lon="1.18017">
        <ele>796.8</ele>
        <time>2024-02-04T13:08:10Z</time>
      </trkpt>
      <trkpt lat="42.853" lon="1.18018">
        <ele>797.2</ele>
        <time>2024-02-04T13:08:11Z</time>
      </trkpt>
      <trkpt lat="42.85301" lon="1.18022">
        <ele>797.8</ele>
        <time>2024-02-04T13:08:13Z</time>
      </trkpt>
      <trkpt lat="42.85301" lon="1.18024">
        <ele>798.2</ele>
        <time>2024-02-04T13:08:14Z</time>
      </trkpt>
      <trkpt lat="42.85302" lon="1.18026">
        <ele>798.6</ele>
        <time>2024-02-04T13:08:15Z</time>
      </trkpt>
      <trkpt lat="42.85303" lon="1.18028">
        <ele>799</ele>
        <time>2024-02-04T13:08:16Z</time>
      </trkpt>
      <trkpt lat="42.85304" lon="1.1803">
        <ele>799.4</ele>
        <time>2024-02-04T13:08:17Z</time>
      </trkpt>
      <trkpt lat="42.85304" lon="1.18034">
        <ele>799.8</ele>
        <time>2024-02-04T13:08:19Z</time>
      </trkpt>
      <trkpt lat="42.85305" lon="1.18036">
        <ele>800.2</ele>
        <time>2024-02-04T13:08:20Z</time>
      </trkpt>
      <trkpt lat="42.85306" lon="1.18038">
        <ele>800.6</ele>
        <time>2024-02-04T13:08:21Z</time>
      </trkpt>
      <trkpt lat="42.85307" lon="1.18039">
        <ele>801</ele>
        <time>2024-02-04T13:08:22Z</time>
      </trkpt>
      <trkpt lat="42.85308" lon="1.1804">
        <ele>801.4</ele>
        <time>2024-02-04T13:08:23Z</time>
      </trkpt>
      <trkpt lat="42.85313" lon="1.18044">
        <ele>802</ele>
        <time>2024-02-04T13:08:26Z</time>
      </trkpt>
      <trkpt lat="42.85315" lon="1.18045">
        <ele>802.4</ele>
        <time>2024-02-04T13:08:27Z</time>
      </trkpt>
      <trkpt lat="42.85316" lon="1.18045">
        <ele>802.8</ele>
        <time>2024-02-04T13:08:28Z</time>
      </trkpt>
      <trkpt lat="42.85318" lon="1.18045">
        <ele>803.2</ele>
        <time>2024-02-04T13:08:29Z</time>
      </trkpt>
      <trkpt lat="42.8532" lon="1.18044">
        <ele>803.8</ele>
        <time>2024-02-04T13:08:30Z</time>
      </trkpt>
      <trkpt lat="42.85327" lon="1.18041">
        <ele>803.8</ele>
        <time>2024-02-04T13:08:34Z</time>
      </trkpt>
      <trkpt lat="42.85337" lon="1.18036">
        <ele>803.8</ele>
        <time>2024-02-04T13:08:39Z</time>
      </trkpt>
      <trkpt lat="42.85338" lon="1.18034">
        <ele>804.2</ele>
        <time>2024-02-04T13:08:40Z</time>
      </trkpt>
      <trkpt lat="42.8534" lon="1.18034">
        <ele>804.6</ele>
        <time>2024-02-04T13:08:41Z</time>
      </trkpt>
      <trkpt lat="42.85341" lon="1.18034">
        <ele>805</ele>
        <time>2024-02-04T13:08:42Z</time>
      </trkpt>
      <trkpt lat="42.85343" lon="1.18033">
        <ele>806</ele>
        <time>2024-02-04T13:08:43Z</time>
      </trkpt>
      <trkpt lat="42.85347" lon="1.18031">
        <ele>806</ele>
        <time>2024-02-04T13:08:46Z</time>
      </trkpt>
      <trkpt lat="42.8535" lon="1.18029">
        <ele>806</ele>
        <time>2024-02-04T13:08:48Z</time>
      </trkpt>
      <trkpt lat="42.85354" lon="1.18028">
        <ele>806.4</ele>
        <time>2024-02-04T13:08:50Z</time>
      </trkpt>
      <trkpt lat="42.85356" lon="1.18027">
        <ele>806.8</ele>
        <time>2024-02-04T13:08:51Z</time>
      </trkpt>
      <trkpt lat="42.85357" lon="1.18027">
        <ele>807.2</ele>
        <time>2024-02-04T13:08:52Z</time>
      </trkpt>
      <trkpt lat="42.85358" lon="1.18027">
        <ele>807.8</ele>
        <time>2024-02-04T13:08:53Z</time>
      </trkpt>
      <trkpt lat="42.8536" lon="1.18027">
        <ele>808.2</ele>
        <time>2024-02-04T13:08:54Z</time>
      </trkpt>
      <trkpt lat="42.85363" lon="1.18029">
        <ele>808.6</ele>
        <time>2024-02-04T13:08:56Z</time>
      </trkpt>
      <trkpt lat="42.85365" lon="1.18029">
        <ele>809</ele>
        <time>2024-02-04T13:08:57Z</time>
      </trkpt>
      <trkpt lat="42.85367" lon="1.18029">
        <ele>809.4</ele>
        <time>2024-02-04T13:08:58Z</time>
      </trkpt>
      <trkpt lat="42.85368" lon="1.18028">
        <ele>809.8</ele>
        <time>2024-02-04T13:08:59Z</time>
      </trkpt>
      <trkpt lat="42.8537" lon="1.18028">
        <ele>810.2</ele>
        <time>2024-02-04T13:09:00Z</time>
      </trkpt>
      <trkpt lat="42.85372" lon="1.18028">
        <ele>810.6</ele>
        <time>2024-02-04T13:09:01Z</time>
      </trkpt>
      <trkpt lat="42.85374" lon="1.18029">
        <ele>811.2</ele>
        <time>2024-02-04T13:09:02Z</time>
      </trkpt>
      <trkpt lat="42.85377" lon="1.18029">
        <ele>811.6</ele>
        <time>2024-02-04T13:09:03Z</time>
      </trkpt>
      <trkpt lat="42.85379" lon="1.1803">
        <ele>812.2</ele>
        <time>2024-02-04T13:09:04Z</time>
      </trkpt>
      <trkpt lat="42.85381" lon="1.1803">
        <ele>812.6</ele>
        <time>2024-02-04T13:09:05Z</time>
      </trkpt>
      <trkpt lat="42.85383" lon="1.18029">
        <ele>813</ele>
        <time>2024-02-04T13:09:06Z</time>
      </trkpt>
      <trkpt lat="42.85385" lon="1.18029">
        <ele>813.4</ele>
        <time>2024-02-04T13:09:07Z</time>
      </trkpt>
      <trkpt lat="42.85386" lon="1.18029">
        <ele>814.2</ele>
        <time>2024-02-04T13:09:08Z</time>
      </trkpt>
      <trkpt lat="42.85388" lon="1.18029">
        <ele>814.8</ele>
        <time>2024-02-04T13:09:09Z</time>
      </trkpt>
      <trkpt lat="42.8539" lon="1.18029">
        <ele>815.2</ele>
        <time>2024-02-04T13:09:10Z</time>
      </trkpt>
      <trkpt lat="42.85392" lon="1.18028">
        <ele>815.6</ele>
        <time>2024-02-04T13:09:11Z</time>
      </trkpt>
      <trkpt lat="42.85394" lon="1.18028">
        <ele>816</ele>
        <time>2024-02-04T13:09:12Z</time>
      </trkpt>
      <trkpt lat="42.85396" lon="1.18027">
        <ele>816.4</ele>
        <time>2024-02-04T13:09:13Z</time>
      </trkpt>
      <trkpt lat="42.85398" lon="1.18027">
        <ele>816.8</ele>
        <time>2024-02-04T13:09:14Z</time>
      </trkpt>
      <trkpt lat="42.85402" lon="1.18025">
        <ele>817.2</ele>
        <time>2024-02-04T13:09:16Z</time>
      </trkpt>
      <trkpt lat="42.85405" lon="1.18024">
        <ele>817.6</ele>
        <time>2024-02-04T13:09:17Z</time>
      </trkpt>
      <trkpt lat="42.85407" lon="1.18024">
        <ele>818</ele>
        <time>2024-02-04T13:09:18Z</time>
      </trkpt>
      <trkpt lat="42.85409" lon="1.18025">
        <ele>818.4</ele>
        <time>2024-02-04T13:09:19Z</time>
      </trkpt>
      <trkpt lat="42.8541" lon="1.18025">
        <ele>818.8</ele>
        <time>2024-02-04T13:09:20Z</time>
      </trkpt>
      <trkpt lat="42.85412" lon="1.18025">
        <ele>819.2</ele>
        <time>2024-02-04T13:09:22Z</time>
      </trkpt>
      <trkpt lat="42.85414" lon="1.18024">
        <ele>819.6</ele>
        <time>2024-02-04T13:09:23Z</time>
      </trkpt>
      <trkpt lat="42.85416" lon="1.18023">
        <ele>820.2</ele>
        <time>2024-02-04T13:09:24Z</time>
      </trkpt>
      <trkpt lat="42.85418" lon="1.18022">
        <ele>820.6</ele>
        <time>2024-02-04T13:09:25Z</time>
      </trkpt>
      <trkpt lat="42.8542" lon="1.18023">
        <ele>821</ele>
        <time>2024-02-04T13:09:26Z</time>
      </trkpt>
      <trkpt lat="42.85423" lon="1.18023">
        <ele>821</ele>
        <time>2024-02-04T13:09:27Z</time>
      </trkpt>
      <trkpt lat="42.85428" lon="1.18024">
        <ele>821</ele>
        <time>2024-02-04T13:09:29Z</time>
      </trkpt>
      <trkpt lat="42.85432" lon="1.18026">
        <ele>821.4</ele>
        <time>2024-02-04T13:09:31Z</time>
      </trkpt>
      <trkpt lat="42.85434" lon="1.18026">
        <ele>822.4</ele>
        <time>2024-02-04T13:09:32Z</time>
      </trkpt>
      <trkpt lat="42.85436" lon="1.18027">
        <ele>822.8</ele>
        <time>2024-02-04T13:09:33Z</time>
      </trkpt>
      <trkpt lat="42.85438" lon="1.18027">
        <ele>823.2</ele>
        <time>2024-02-04T13:09:34Z</time>
      </trkpt>
      <trkpt lat="42.85439" lon="1.18027">
        <ele>823.8</ele>
        <time>2024-02-04T13:09:35Z</time>
      </trkpt>
      <trkpt lat="42.85441" lon="1.18027">
        <ele>824.2</ele>
        <time>2024-02-04T13:09:36Z</time>
      </trkpt>
      <trkpt lat="42.85443" lon="1.18027">
        <ele>824.8</ele>
        <time>2024-02-04T13:09:37Z</time>
      </trkpt>
      <trkpt lat="42.85445" lon="1.18027">
        <ele>825.2</ele>
        <time>2024-02-04T13:09:38Z</time>
      </trkpt>
      <trkpt lat="42.85449" lon="1.18027">
        <ele>825.6</ele>
        <time>2024-02-04T13:09:40Z</time>
      </trkpt>
      <trkpt lat="42.85451" lon="1.18027">
        <ele>826</ele>
        <time>2024-02-04T13:09:41Z</time>
      </trkpt>
      <trkpt lat="42.85453" lon="1.18028">
        <ele>826.6</ele>
        <time>2024-02-04T13:09:42Z</time>
      </trkpt>
      <trkpt lat="42.85455" lon="1.18028">
        <ele>827</ele>
        <time>2024-02-04T13:09:43Z</time>
      </trkpt>
      <trkpt lat="42.85456" lon="1.18028">
        <ele>827.4</ele>
        <time>2024-02-04T13:09:44Z</time>
      </trkpt>
      <trkpt lat="42.85462" lon="1.18028">
        <ele>827.4</ele>
        <time>2024-02-04T13:09:47Z</time>
      </trkpt>
      <trkpt lat="42.85464" lon="1.18028">
        <ele>827.8</ele>
        <time>2024-02-04T13:09:48Z</time>
      </trkpt>
      <trkpt lat="42.85466" lon="1.18029">
        <ele>828.4</ele>
        <time>2024-02-04T13:09:49Z</time>
      </trkpt>
      <trkpt lat="42.85468" lon="1.18029">
        <ele>828.8</ele>
        <time>2024-02-04T13:09:50Z</time>
      </trkpt>
      <trkpt lat="42.8547" lon="1.1803">
        <ele>829.2</ele>
        <time>2024-02-04T13:09:51Z</time>
      </trkpt>
      <trkpt lat="42.85471" lon="1.18029">
        <ele>829.6</ele>
        <time>2024-02-04T13:09:52Z</time>
      </trkpt>
      <trkpt lat="42.85475" lon="1.1803">
        <ele>830</ele>
        <time>2024-02-04T13:09:54Z</time>
      </trkpt>
      <trkpt lat="42.85476" lon="1.1803">
        <ele>830.6</ele>
        <time>2024-02-04T13:09:55Z</time>
      </trkpt>
      <trkpt lat="42.85478" lon="1.18031">
        <ele>831</ele>
        <time>2024-02-04T13:09:56Z</time>
      </trkpt>
      <trkpt lat="42.8548" lon="1.18031">
        <ele>831.8</ele>
        <time>2024-02-04T13:09:57Z</time>
      </trkpt>
      <trkpt lat="42.85482" lon="1.18031">
        <ele>831.8</ele>
        <time>2024-02-04T13:09:58Z</time>
      </trkpt>
      <trkpt lat="42.85484" lon="1.18031">
        <ele>832.2</ele>
        <time>2024-02-04T13:09:59Z</time>
      </trkpt>
      <trkpt lat="42.85486" lon="1.18032">
        <ele>832.6</ele>
        <time>2024-02-04T13:10:00Z</time>
      </trkpt>
      <trkpt lat="42.85489" lon="1.18034">
        <ele>833</ele>
        <time>2024-02-04T13:10:01Z</time>
      </trkpt>
      <trkpt lat="42.85491" lon="1.18036">
        <ele>833.4</ele>
        <time>2024-02-04T13:10:02Z</time>
      </trkpt>
      <trkpt lat="42.85493" lon="1.18036">
        <ele>834</ele>
        <time>2024-02-04T13:10:03Z</time>
      </trkpt>
      <trkpt lat="42.85495" lon="1.18037">
        <ele>834.4</ele>
        <time>2024-02-04T13:10:04Z</time>
      </trkpt>
      <trkpt lat="42.85496" lon="1.18037">
        <ele>835</ele>
        <time>2024-02-04T13:10:05Z</time>
      </trkpt>
      <trkpt lat="42.85497" lon="1.18037">
        <ele>835.4</ele>
        <time>2024-02-04T13:10:06Z</time>
      </trkpt>
      <trkpt lat="42.85499" lon="1.18037">
        <ele>836</ele>
        <time>2024-02-04T13:10:07Z</time>
      </trkpt>
      <trkpt lat="42.855" lon="1.18036">
        <ele>836.4</ele>
        <time>2024-02-04T13:10:08Z</time>
      </trkpt>
      <trkpt lat="42.85501" lon="1.18037">
        <ele>836.4</ele>
        <time>2024-02-04T13:10:09Z</time>
      </trkpt>
      <trkpt lat="42.85502" lon="1.18038">
        <ele>836.4</ele>
        <time>2024-02-04T13:10:10Z</time>
      </trkpt>
      <trkpt lat="42.85505" lon="1.18037">
        <ele>837</ele>
        <time>2024-02-04T13:10:12Z</time>
      </trkpt>
      <trkpt lat="42.85505" lon="1.18037">
        <ele>837.4</ele>
        <time>2024-02-04T13:10:13Z</time>
      </trkpt>
      <trkpt lat="42.85505" lon="1.18038">
        <ele>837.8</ele>
        <time>2024-02-04T13:10:14Z</time>
      </trkpt>
      <trkpt lat="42.85507" lon="1.18039">
        <ele>838.4</ele>
        <time>2024-02-04T13:10:15Z</time>
      </trkpt>
      <trkpt lat="42.85509" lon="1.18039">
        <ele>838.8</ele>
        <time>2024-02-04T13:10:16Z</time>
      </trkpt>
      <trkpt lat="42.8551" lon="1.18038">
        <ele>839.2</ele>
        <time>2024-02-04T13:10:17Z</time>
      </trkpt>
      <trkpt lat="42.85513" lon="1.18037">
        <ele>839.6</ele>
        <time>2024-02-04T13:10:18Z</time>
      </trkpt>
      <trkpt lat="42.85515" lon="1.18036">
        <ele>840.2</ele>
        <time>2024-02-04T13:10:19Z</time>
      </trkpt>
      <trkpt lat="42.85517" lon="1.18036">
        <ele>840.6</ele>
        <time>2024-02-04T13:10:20Z</time>
      </trkpt>
      <trkpt lat="42.85519" lon="1.18036">
        <ele>841</ele>
        <time>2024-02-04T13:10:21Z</time>
      </trkpt>
      <trkpt lat="42.8552" lon="1.18037">
        <ele>841</ele>
        <time>2024-02-04T13:10:22Z</time>
      </trkpt>
      <trkpt lat="42.85523" lon="1.18038">
        <ele>841.4</ele>
        <time>2024-02-04T13:10:24Z</time>
      </trkpt>
      <trkpt lat="42.85524" lon="1.18039">
        <ele>842</ele>
        <time>2024-02-04T13:10:25Z</time>
      </trkpt>
      <trkpt lat="42.85526" lon="1.1804">
        <ele>842.4</ele>
        <time>2024-02-04T13:10:26Z</time>
      </trkpt>
      <trkpt lat="42.85527" lon="1.1804">
        <ele>842.8</ele>
        <time>2024-02-04T13:10:27Z</time>
      </trkpt>
      <trkpt lat="42.85528" lon="1.18039">
        <ele>843.2</ele>
        <time>2024-02-04T13:10:28Z</time>
      </trkpt>
      <trkpt lat="42.8553" lon="1.18038">
        <ele>843.6</ele>
        <time>2024-02-04T13:10:31Z</time>
      </trkpt>
      <trkpt lat="42.85532" lon="1.1804">
        <ele>844.2</ele>
        <time>2024-02-04T13:10:32Z</time>
      </trkpt>
      <trkpt lat="42.85534" lon="1.1804">
        <ele>844.6</ele>
        <time>2024-02-04T13:10:33Z</time>
      </trkpt>
      <trkpt lat="42.85536" lon="1.18041">
        <ele>845</ele>
        <time>2024-02-04T13:10:34Z</time>
      </trkpt>
      <trkpt lat="42.85538" lon="1.18041">
        <ele>845.6</ele>
        <time>2024-02-04T13:10:35Z</time>
      </trkpt>
      <trkpt lat="42.85539" lon="1.18041">
        <ele>845.6</ele>
        <time>2024-02-04T13:10:36Z</time>
      </trkpt>
      <trkpt lat="42.85543" lon="1.18043">
        <ele>846</ele>
        <time>2024-02-04T13:10:39Z</time>
      </trkpt>
      <trkpt lat="42.85544" lon="1.18044">
        <ele>846.4</ele>
        <time>2024-02-04T13:10:40Z</time>
      </trkpt>
      <trkpt lat="42.85546" lon="1.18045">
        <ele>846.8</ele>
        <time>2024-02-04T13:10:41Z</time>
      </trkpt>
      <trkpt lat="42.85547" lon="1.18044">
        <ele>847.4</ele>
        <time>2024-02-04T13:10:42Z</time>
      </trkpt>
      <trkpt lat="42.85549" lon="1.18045">
        <ele>847.8</ele>
        <time>2024-02-04T13:10:43Z</time>
      </trkpt>
      <trkpt lat="42.85554" lon="1.18046">
        <ele>848.6</ele>
        <time>2024-02-04T13:10:46Z</time>
      </trkpt>
      <trkpt lat="42.85555" lon="1.18046">
        <ele>849</ele>
        <time>2024-02-04T13:10:47Z</time>
      </trkpt>
      <trkpt lat="42.85556" lon="1.18047">
        <ele>849.4</ele>
        <time>2024-02-04T13:10:48Z</time>
      </trkpt>
      <trkpt lat="42.85558" lon="1.18047">
        <ele>849.8</ele>
        <time>2024-02-04T13:10:49Z</time>
      </trkpt>
      <trkpt lat="42.85564" lon="1.18049">
        <ele>849.8</ele>
        <time>2024-02-04T13:10:53Z</time>
      </trkpt>
      <trkpt lat="42.85572" lon="1.18052">
        <ele>850.2</ele>
        <time>2024-02-04T13:10:57Z</time>
      </trkpt>
      <trkpt lat="42.85573" lon="1.18052">
        <ele>850.6</ele>
        <time>2024-02-04T13:10:58Z</time>
      </trkpt>
      <trkpt lat="42.85575" lon="1.18053">
        <ele>851</ele>
        <time>2024-02-04T13:10:59Z</time>
      </trkpt>
      <trkpt lat="42.85577" lon="1.18054">
        <ele>851.4</ele>
        <time>2024-02-04T13:11:00Z</time>
      </trkpt>
      <trkpt lat="42.85578" lon="1.18054">
        <ele>851.8</ele>
        <time>2024-02-04T13:11:01Z</time>
      </trkpt>
      <trkpt lat="42.85579" lon="1.18055">
        <ele>852.4</ele>
        <time>2024-02-04T13:11:02Z</time>
      </trkpt>
      <trkpt lat="42.8558" lon="1.18054">
        <ele>852.8</ele>
        <time>2024-02-04T13:11:03Z</time>
      </trkpt>
      <trkpt lat="42.85582" lon="1.18054">
        <ele>853.2</ele>
        <time>2024-02-04T13:11:04Z</time>
      </trkpt>
      <trkpt lat="42.85583" lon="1.18055">
        <ele>853.6</ele>
        <time>2024-02-04T13:11:05Z</time>
      </trkpt>
      <trkpt lat="42.85585" lon="1.18055">
        <ele>854</ele>
        <time>2024-02-04T13:11:06Z</time>
      </trkpt>
      <trkpt lat="42.85587" lon="1.18056">
        <ele>854</ele>
        <time>2024-02-04T13:11:08Z</time>
      </trkpt>
      <trkpt lat="42.85588" lon="1.18056">
        <ele>854.4</ele>
        <time>2024-02-04T13:11:09Z</time>
      </trkpt>
      <trkpt lat="42.8559" lon="1.18057">
        <ele>854.8</ele>
        <time>2024-02-04T13:11:10Z</time>
      </trkpt>
      <trkpt lat="42.85591" lon="1.18058">
        <ele>855.8</ele>
        <time>2024-02-04T13:11:11Z</time>
      </trkpt>
      <trkpt lat="42.85593" lon="1.1806">
        <ele>856.2</ele>
        <time>2024-02-04T13:11:12Z</time>
      </trkpt>
      <trkpt lat="42.85594" lon="1.18061">
        <ele>856.2</ele>
        <time>2024-02-04T13:11:13Z</time>
      </trkpt>
      <trkpt lat="42.85595" lon="1.18062">
        <ele>856.2</ele>
        <time>2024-02-04T13:11:14Z</time>
      </trkpt>
      <trkpt lat="42.85596" lon="1.18062">
        <ele>856.6</ele>
        <time>2024-02-04T13:11:15Z</time>
      </trkpt>
      <trkpt lat="42.85597" lon="1.18064">
        <ele>857</ele>
        <time>2024-02-04T13:11:16Z</time>
      </trkpt>
      <trkpt lat="42.85598" lon="1.18064">
        <ele>857.6</ele>
        <time>2024-02-04T13:11:17Z</time>
      </trkpt>
      <trkpt lat="42.856" lon="1.18064">
        <ele>858</ele>
        <time>2024-02-04T13:11:18Z</time>
      </trkpt>
      <trkpt lat="42.85601" lon="1.18065">
        <ele>858.4</ele>
        <time>2024-02-04T13:11:19Z</time>
      </trkpt>
      <trkpt lat="42.85608" lon="1.18066">
        <ele>859</ele>
        <time>2024-02-04T13:11:23Z</time>
      </trkpt>
      <trkpt lat="42.85609" lon="1.18066">
        <ele>859.4</ele>
        <time>2024-02-04T13:11:24Z</time>
      </trkpt>
      <trkpt lat="42.8561" lon="1.18067">
        <ele>859.8</ele>
        <time>2024-02-04T13:11:25Z</time>
      </trkpt>
      <trkpt lat="42.85612" lon="1.18067">
        <ele>860.4</ele>
        <time>2024-02-04T13:11:26Z</time>
      </trkpt>
      <trkpt lat="42.85613" lon="1.18066">
        <ele>860.8</ele>
        <time>2024-02-04T13:11:27Z</time>
      </trkpt>
      <trkpt lat="42.85617" lon="1.18067">
        <ele>860.8</ele>
        <time>2024-02-04T13:11:30Z</time>
      </trkpt>
      <trkpt lat="42.85621" lon="1.18068">
        <ele>861.2</ele>
        <time>2024-02-04T13:11:32Z</time>
      </trkpt>
      <trkpt lat="42.85622" lon="1.18067">
        <ele>861.6</ele>
        <time>2024-02-04T13:11:33Z</time>
      </trkpt>
      <trkpt lat="42.85624" lon="1.18067">
        <ele>862</ele>
        <time>2024-02-04T13:11:34Z</time>
      </trkpt>
      <trkpt lat="42.85624" lon="1.18068">
        <ele>862.4</ele>
        <time>2024-02-04T13:11:35Z</time>
      </trkpt>
      <trkpt lat="42.85626" lon="1.18069">
        <ele>862.8</ele>
        <time>2024-02-04T13:11:36Z</time>
      </trkpt>
      <trkpt lat="42.85633" lon="1.18071">
        <ele>862.8</ele>
        <time>2024-02-04T13:11:41Z</time>
      </trkpt>
      <trkpt lat="42.85635" lon="1.1807">
        <ele>863.2</ele>
        <time>2024-02-04T13:11:42Z</time>
      </trkpt>
      <trkpt lat="42.85636" lon="1.1807">
        <ele>863.6</ele>
        <time>2024-02-04T13:11:43Z</time>
      </trkpt>
      <trkpt lat="42.85637" lon="1.1807">
        <ele>864.2</ele>
        <time>2024-02-04T13:11:44Z</time>
      </trkpt>
      <trkpt lat="42.85638" lon="1.18071">
        <ele>864.6</ele>
        <time>2024-02-04T13:11:45Z</time>
      </trkpt>
      <trkpt lat="42.85639" lon="1.18072">
        <ele>865</ele>
        <time>2024-02-04T13:11:46Z</time>
      </trkpt>
      <trkpt lat="42.85645" lon="1.18074">
        <ele>865.4</ele>
        <time>2024-02-04T13:11:50Z</time>
      </trkpt>
      <trkpt lat="42.85647" lon="1.18074">
        <ele>865.8</ele>
        <time>2024-02-04T13:11:51Z</time>
      </trkpt>
      <trkpt lat="42.85648" lon="1.18075">
        <ele>866.2</ele>
        <time>2024-02-04T13:11:52Z</time>
      </trkpt>
      <trkpt lat="42.8565" lon="1.18074">
        <ele>866.6</ele>
        <time>2024-02-04T13:11:53Z</time>
      </trkpt>
      <trkpt lat="42.85652" lon="1.18074">
        <ele>867</ele>
        <time>2024-02-04T13:11:54Z</time>
      </trkpt>
      <trkpt lat="42.85654" lon="1.18075">
        <ele>867</ele>
        <time>2024-02-04T13:11:56Z</time>
      </trkpt>
      <trkpt lat="42.85658" lon="1.18076">
        <ele>867.4</ele>
        <time>2024-02-04T13:11:59Z</time>
      </trkpt>
      <trkpt lat="42.8566" lon="1.18077">
        <ele>867.8</ele>
        <time>2024-02-04T13:12:00Z</time>
      </trkpt>
      <trkpt lat="42.85661" lon="1.18078">
        <ele>868.8</ele>
        <time>2024-02-04T13:12:01Z</time>
      </trkpt>
      <trkpt lat="42.85662" lon="1.18079">
        <ele>869.2</ele>
        <time>2024-02-04T13:12:02Z</time>
      </trkpt>
      <trkpt lat="42.85666" lon="1.18079">
        <ele>869.6</ele>
        <time>2024-02-04T13:12:05Z</time>
      </trkpt>
      <trkpt lat="42.85668" lon="1.1808">
        <ele>870</ele>
        <time>2024-02-04T13:12:06Z</time>
      </trkpt>
      <trkpt lat="42.85669" lon="1.1808">
        <ele>870.6</ele>
        <time>2024-02-04T13:12:07Z</time>
      </trkpt>
      <trkpt lat="42.85671" lon="1.18082">
        <ele>871</ele>
        <time>2024-02-04T13:12:08Z</time>
      </trkpt>
      <trkpt lat="42.85673" lon="1.18083">
        <ele>871.4</ele>
        <time>2024-02-04T13:12:09Z</time>
      </trkpt>
      <trkpt lat="42.85677" lon="1.18086">
        <ele>871.4</ele>
        <time>2024-02-04T13:12:12Z</time>
      </trkpt>
      <trkpt lat="42.85679" lon="1.18087">
        <ele>871.8</ele>
        <time>2024-02-04T13:12:13Z</time>
      </trkpt>
      <trkpt lat="42.8568" lon="1.18088">
        <ele>872.2</ele>
        <time>2024-02-04T13:12:14Z</time>
      </trkpt>
      <trkpt lat="42.85681" lon="1.18089">
        <ele>872.8</ele>
        <time>2024-02-04T13:12:15Z</time>
      </trkpt>
      <trkpt lat="42.85682" lon="1.18089">
        <ele>873.2</ele>
        <time>2024-02-04T13:12:16Z</time>
      </trkpt>
      <trkpt lat="42.85683" lon="1.18091">
        <ele>873.6</ele>
        <time>2024-02-04T13:12:17Z</time>
      </trkpt>
      <trkpt lat="42.85687" lon="1.18092">
        <ele>873.6</ele>
        <time>2024-02-04T13:12:19Z</time>
      </trkpt>
      <trkpt lat="42.85688" lon="1.18091">
        <ele>874</ele>
        <time>2024-02-04T13:12:20Z</time>
      </trkpt>
      <trkpt lat="42.8569" lon="1.18091">
        <ele>874.6</ele>
        <time>2024-02-04T13:12:21Z</time>
      </trkpt>
      <trkpt lat="42.85691" lon="1.18091">
        <ele>875</ele>
        <time>2024-02-04T13:12:22Z</time>
      </trkpt>
      <trkpt lat="42.85691" lon="1.18092">
        <ele>875.4</ele>
        <time>2024-02-04T13:12:23Z</time>
      </trkpt>
      <trkpt lat="42.85692" lon="1.18093">
        <ele>875.8</ele>
        <time>2024-02-04T13:12:24Z</time>
      </trkpt>
      <trkpt lat="42.85694" lon="1.18093">
        <ele>875.8</ele>
        <time>2024-02-04T13:12:26Z</time>
      </trkpt>
      <trkpt lat="42.85698" lon="1.18094">
        <ele>875.8</ele>
        <time>2024-02-04T13:14:26Z</time>
      </trkpt>
      <trkpt lat="42.85699" lon="1.18093">
        <ele>875.8</ele>
        <time>2024-02-04T13:14:27Z</time>
      </trkpt>
      <trkpt lat="42.8571" lon="1.1809">
        <ele>875.8</ele>
        <time>2024-02-04T13:14:31Z</time>
      </trkpt>
      <trkpt lat="42.85724" lon="1.18086">
        <ele>875.8</ele>
        <time>2024-02-04T13:14:36Z</time>
      </trkpt>
      <trkpt lat="42.85725" lon="1.18086">
        <ele>875.8</ele>
        <time>2024-02-04T13:14:37Z</time>
      </trkpt>
      <trkpt lat="42.85731" lon="1.18088">
        <ele>875.8</ele>
        <time>2024-02-04T13:14:40Z</time>
      </trkpt>
      <trkpt lat="42.85744" lon="1.18081">
        <ele>875.8</ele>
        <time>2024-02-04T13:14:45Z</time>
      </trkpt>
      <trkpt lat="42.85756" lon="1.18076">
        <ele>875.8</ele>
        <time>2024-02-04T13:14:52Z</time>
      </trkpt>
      <trkpt lat="42.85757" lon="1.18077">
        <ele>875.8</ele>
        <time>2024-02-04T13:14:54Z</time>
      </trkpt>
      <trkpt lat="42.85766" lon="1.18079">
        <ele>880</ele>
        <time>2024-02-04T13:15:26Z</time>
      </trkpt>
      <trkpt lat="42.85768" lon="1.18076">
        <ele>880</ele>
        <time>2024-02-04T13:15:27Z</time>
      </trkpt>
      <trkpt lat="42.85774" lon="1.18072">
        <ele>879.4</ele>
        <time>2024-02-04T13:15:29Z</time>
      </trkpt>
      <trkpt lat="42.85777" lon="1.1807">
        <ele>879</ele>
        <time>2024-02-04T13:15:30Z</time>
      </trkpt>
      <trkpt lat="42.85779" lon="1.18067">
        <ele>878.6</ele>
        <time>2024-02-04T13:15:31Z</time>
      </trkpt>
      <trkpt lat="42.85782" lon="1.18066">
        <ele>878.2</ele>
        <time>2024-02-04T13:15:32Z</time>
      </trkpt>
      <trkpt lat="42.85784" lon="1.18066">
        <ele>877.8</ele>
        <time>2024-02-04T13:15:33Z</time>
      </trkpt>
      <trkpt lat="42.85789" lon="1.18064">
        <ele>877.8</ele>
        <time>2024-02-04T13:15:35Z</time>
      </trkpt>
      <trkpt lat="42.85797" lon="1.18058">
        <ele>877.8</ele>
        <time>2024-02-04T13:15:37Z</time>
      </trkpt>
      <trkpt lat="42.85804" lon="1.18054">
        <ele>877.8</ele>
        <time>2024-02-04T13:15:39Z</time>
      </trkpt>
      <trkpt lat="42.85824" lon="1.18042">
        <ele>877.8</ele>
        <time>2024-02-04T13:15:45Z</time>
      </trkpt>
      <trkpt lat="42.85837" lon="1.1804">
        <ele>877.8</ele>
        <time>2024-02-04T13:15:50Z</time>
      </trkpt>
      <trkpt lat="42.85846" lon="1.18048">
        <ele>877.8</ele>
        <time>2024-02-04T13:15:54Z</time>
      </trkpt>
      <trkpt lat="42.85848" lon="1.18051">
        <ele>877.8</ele>
        <time>2024-02-04T13:15:55Z</time>
      </trkpt>
      <trkpt lat="42.85855" lon="1.18073">
        <ele>877.8</ele>
        <time>2024-02-04T13:15:59Z</time>
      </trkpt>
      <trkpt lat="42.85862" lon="1.1808">
        <ele>877.8</ele>
        <time>2024-02-04T13:16:01Z</time>
      </trkpt>
      <trkpt lat="42.8587" lon="1.18086">
        <ele>877.8</ele>
        <time>2024-02-04T13:16:03Z</time>
      </trkpt>
      <trkpt lat="42.85873" lon="1.1809">
        <ele>877.4</ele>
        <time>2024-02-04T13:16:04Z</time>
      </trkpt>
      <trkpt lat="42.85877" lon="1.18091">
        <ele>877</ele>
        <time>2024-02-04T13:16:05Z</time>
      </trkpt>
      <trkpt lat="42.85881" lon="1.18094">
        <ele>876.6</ele>
        <time>2024-02-04T13:16:06Z</time>
      </trkpt>
      <trkpt lat="42.85885" lon="1.18097">
        <ele>876.2</ele>
        <time>2024-02-04T13:16:07Z</time>
      </trkpt>
      <trkpt lat="42.85889" lon="1.18099">
        <ele>875.8</ele>
        <time>2024-02-04T13:16:08Z</time>
      </trkpt>
      <trkpt lat="42.85904" lon="1.18107">
        <ele>875.8</ele>
        <time>2024-02-04T13:16:12Z</time>
      </trkpt>
      <trkpt lat="42.85915" lon="1.18109">
        <ele>875.4</ele>
        <time>2024-02-04T13:16:15Z</time>
      </trkpt>
      <trkpt lat="42.8592" lon="1.1811">
        <ele>874.8</ele>
        <time>2024-02-04T13:16:16Z</time>
      </trkpt>
      <trkpt lat="42.85924" lon="1.18112">
        <ele>874.4</ele>
        <time>2024-02-04T13:16:17Z</time>
      </trkpt>
      <trkpt lat="42.85928" lon="1.18113">
        <ele>874</ele>
        <time>2024-02-04T13:16:18Z</time>
      </trkpt>
      <trkpt lat="42.85933" lon="1.18115">
        <ele>873.6</ele>
        <time>2024-02-04T13:16:19Z</time>
      </trkpt>
      <trkpt lat="42.85951" lon="1.18115">
        <ele>873.6</ele>
        <time>2024-02-04T13:16:24Z</time>
      </trkpt>
      <trkpt lat="42.8596" lon="1.18115">
        <ele>873.6</ele>
        <time>2024-02-04T13:16:28Z</time>
      </trkpt>
      <trkpt lat="42.85986" lon="1.18122">
        <ele>873.2</ele>
        <time>2024-02-04T13:16:32Z</time>
      </trkpt>
      <trkpt lat="42.85991" lon="1.18122">
        <ele>872.4</ele>
        <time>2024-02-04T13:16:33Z</time>
      </trkpt>
      <trkpt lat="42.85997" lon="1.18122">
        <ele>871.8</ele>
        <time>2024-02-04T13:16:34Z</time>
      </trkpt>
      <trkpt lat="42.86002" lon="1.18122">
        <ele>871.4</ele>
        <time>2024-02-04T13:16:35Z</time>
      </trkpt>
      <trkpt lat="42.86017" lon="1.18125">
        <ele>871.4</ele>
        <time>2024-02-04T13:16:38Z</time>
      </trkpt>
      <trkpt lat="42.86031" lon="1.18129">
        <ele>871.4</ele>
        <time>2024-02-04T13:16:41Z</time>
      </trkpt>
      <trkpt lat="42.86057" lon="1.18137">
        <ele>871</ele>
        <time>2024-02-04T13:16:42Z</time>
      </trkpt>
      <trkpt lat="42.86065" lon="1.18141">
        <ele>870.6</ele>
        <time>2024-02-04T13:16:43Z</time>
      </trkpt>
      <trkpt lat="42.86075" lon="1.18148">
        <ele>870.2</ele>
        <time>2024-02-04T13:16:44Z</time>
      </trkpt>
      <trkpt lat="42.8608" lon="1.18151">
        <ele>869.8</ele>
        <time>2024-02-04T13:16:45Z</time>
      </trkpt>
      <trkpt lat="42.86085" lon="1.18155">
        <ele>869.2</ele>
        <time>2024-02-04T13:16:46Z</time>
      </trkpt>
      <trkpt lat="42.8609" lon="1.18159">
        <ele>869.2</ele>
        <time>2024-02-04T13:16:47Z</time>
      </trkpt>
      <trkpt lat="42.86094" lon="1.18164">
        <ele>869.2</ele>
        <time>2024-02-04T13:16:48Z</time>
      </trkpt>
      <trkpt lat="42.86109" lon="1.18188">
        <ele>869.2</ele>
        <time>2024-02-04T13:16:53Z</time>
      </trkpt>
      <trkpt lat="42.86122" lon="1.18212">
        <ele>869.2</ele>
        <time>2024-02-04T13:16:58Z</time>
      </trkpt>
      <trkpt lat="42.86124" lon="1.18216">
        <ele>869.8</ele>
        <time>2024-02-04T13:16:59Z</time>
      </trkpt>
      <trkpt lat="42.86126" lon="1.1822">
        <ele>870.2</ele>
        <time>2024-02-04T13:17:00Z</time>
      </trkpt>
      <trkpt lat="42.86128" lon="1.18224">
        <ele>870.8</ele>
        <time>2024-02-04T13:17:01Z</time>
      </trkpt>
      <trkpt lat="42.86129" lon="1.18228">
        <ele>871.4</ele>
        <time>2024-02-04T13:17:02Z</time>
      </trkpt>
      <trkpt lat="42.86132" lon="1.18233">
        <ele>871.8</ele>
        <time>2024-02-04T13:17:03Z</time>
      </trkpt>
      <trkpt lat="42.86139" lon="1.18246">
        <ele>872.2</ele>
        <time>2024-02-04T13:17:06Z</time>
      </trkpt>
      <trkpt lat="42.86141" lon="1.1825">
        <ele>872.6</ele>
        <time>2024-02-04T13:17:07Z</time>
      </trkpt>
      <trkpt lat="42.86143" lon="1.18254">
        <ele>873</ele>
        <time>2024-02-04T13:17:08Z</time>
      </trkpt>
      <trkpt lat="42.86145" lon="1.18259">
        <ele>873.4</ele>
        <time>2024-02-04T13:17:09Z</time>
      </trkpt>
      <trkpt lat="42.86147" lon="1.18263">
        <ele>873.8</ele>
        <time>2024-02-04T13:17:10Z</time>
      </trkpt>
      <trkpt lat="42.86156" lon="1.1828">
        <ele>874.2</ele>
        <time>2024-02-04T13:17:14Z</time>
      </trkpt>
      <trkpt lat="42.86158" lon="1.18282">
        <ele>874.8</ele>
        <time>2024-02-04T13:17:15Z</time>
      </trkpt>
      <trkpt lat="42.86159" lon="1.18286">
        <ele>875.2</ele>
        <time>2024-02-04T13:17:16Z</time>
      </trkpt>
      <trkpt lat="42.8616" lon="1.18288">
        <ele>875.6</ele>
        <time>2024-02-04T13:17:17Z</time>
      </trkpt>
      <trkpt lat="42.8616" lon="1.18289">
        <ele>876</ele>
        <time>2024-02-04T13:17:18Z</time>
      </trkpt>
      <trkpt lat="42.86161" lon="1.1829">
        <ele>876</ele>
        <time>2024-02-04T13:17:19Z</time>
      </trkpt>
      <trkpt lat="42.86161" lon="1.18291">
        <ele>876</ele>
        <time>2024-02-04T13:17:34Z</time>
      </trkpt>
      <trkpt lat="42.86162" lon="1.18295">
        <ele>876</ele>
        <time>2024-02-04T13:17:35Z</time>
      </trkpt>
      <trkpt lat="42.86164" lon="1.18322">
        <ele>876</ele>
        <time>2024-02-04T13:17:41Z</time>
      </trkpt>
      <trkpt lat="42.86163" lon="1.18344">
        <ele>876.4</ele>
        <time>2024-02-04T13:17:46Z</time>
      </trkpt>
      <trkpt lat="42.86163" lon="1.18349">
        <ele>877.2</ele>
        <time>2024-02-04T13:17:47Z</time>
      </trkpt>
      <trkpt lat="42.86162" lon="1.18354">
        <ele>877.6</ele>
        <time>2024-02-04T13:17:48Z</time>
      </trkpt>
      <trkpt lat="42.86162" lon="1.18359">
        <ele>878</ele>
        <time>2024-02-04T13:17:49Z</time>
      </trkpt>
      <trkpt lat="42.86161" lon="1.1837">
        <ele>878</ele>
        <time>2024-02-04T13:17:51Z</time>
      </trkpt>
      <trkpt lat="42.86163" lon="1.18392">
        <ele>878</ele>
        <time>2024-02-04T13:17:56Z</time>
      </trkpt>
      <trkpt lat="42.86164" lon="1.18395">
        <ele>877.6</ele>
        <time>2024-02-04T13:17:57Z</time>
      </trkpt>
      <trkpt lat="42.86164" lon="1.18401">
        <ele>877.2</ele>
        <time>2024-02-04T13:17:58Z</time>
      </trkpt>
      <trkpt lat="42.86165" lon="1.18407">
        <ele>876.6</ele>
        <time>2024-02-04T13:17:59Z</time>
      </trkpt>
      <trkpt lat="42.86165" lon="1.18413">
        <ele>876.2</ele>
        <time>2024-02-04T13:18:00Z</time>
      </trkpt>
      <trkpt lat="42.86166" lon="1.18418">
        <ele>875.8</ele>
        <time>2024-02-04T13:18:01Z</time>
      </trkpt>
      <trkpt lat="42.86166" lon="1.18423">
        <ele>875.4</ele>
        <time>2024-02-04T13:18:02Z</time>
      </trkpt>
      <trkpt lat="42.86167" lon="1.18428">
        <ele>875</ele>
        <time>2024-02-04T13:18:03Z</time>
      </trkpt>
      <trkpt lat="42.86166" lon="1.18433">
        <ele>874.4</ele>
        <time>2024-02-04T13:18:04Z</time>
      </trkpt>
      <trkpt lat="42.86167" lon="1.18439">
        <ele>874</ele>
        <time>2024-02-04T13:18:05Z</time>
      </trkpt>
      <trkpt lat="42.86167" lon="1.18443">
        <ele>873.6</ele>
        <time>2024-02-04T13:18:06Z</time>
      </trkpt>
      <trkpt lat="42.86166" lon="1.18463">
        <ele>873.6</ele>
        <time>2024-02-04T13:18:10Z</time>
      </trkpt>
      <trkpt lat="42.86158" lon="1.18498">
        <ele>873.6</ele>
        <time>2024-02-04T13:18:16Z</time>
      </trkpt>
      <trkpt lat="42.86157" lon="1.18505">
        <ele>873.2</ele>
        <time>2024-02-04T13:18:17Z</time>
      </trkpt>
      <trkpt lat="42.86156" lon="1.18512">
        <ele>872.6</ele>
        <time>2024-02-04T13:18:18Z</time>
      </trkpt>
      <trkpt lat="42.86154" lon="1.1852">
        <ele>872.2</ele>
        <time>2024-02-04T13:18:19Z</time>
      </trkpt>
      <trkpt lat="42.86153" lon="1.18529">
        <ele>871.8</ele>
        <time>2024-02-04T13:18:20Z</time>
      </trkpt>
      <trkpt lat="42.86153" lon="1.18537">
        <ele>871.2</ele>
        <time>2024-02-04T13:18:21Z</time>
      </trkpt>
      <trkpt lat="42.86151" lon="1.18547">
        <ele>870.6</ele>
        <time>2024-02-04T13:18:22Z</time>
      </trkpt>
      <trkpt lat="42.8615" lon="1.18556">
        <ele>870</ele>
        <time>2024-02-04T13:18:23Z</time>
      </trkpt>
      <trkpt lat="42.86149" lon="1.18564">
        <ele>869.2</ele>
        <time>2024-02-04T13:18:24Z</time>
      </trkpt>
      <trkpt lat="42.86147" lon="1.18571">
        <ele>868.6</ele>
        <time>2024-02-04T13:18:25Z</time>
      </trkpt>
      <trkpt lat="42.86145" lon="1.18577">
        <ele>867.8</ele>
        <time>2024-02-04T13:18:26Z</time>
      </trkpt>
      <trkpt lat="42.86144" lon="1.18583">
        <ele>867.2</ele>
        <time>2024-02-04T13:18:27Z</time>
      </trkpt>
      <trkpt lat="42.86143" lon="1.18587">
        <ele>866.4</ele>
        <time>2024-02-04T13:18:28Z</time>
      </trkpt>
      <trkpt lat="42.86142" lon="1.18591">
        <ele>865.8</ele>
        <time>2024-02-04T13:18:29Z</time>
      </trkpt>
      <trkpt lat="42.8614" lon="1.18599">
        <ele>865.4</ele>
        <time>2024-02-04T13:18:30Z</time>
      </trkpt>
      <trkpt lat="42.86137" lon="1.18605">
        <ele>864.8</ele>
        <time>2024-02-04T13:18:31Z</time>
      </trkpt>
      <trkpt lat="42.86135" lon="1.18613">
        <ele>864</ele>
        <time>2024-02-04T13:18:32Z</time>
      </trkpt>
      <trkpt lat="42.8613" lon="1.18617">
        <ele>863.2</ele>
        <time>2024-02-04T13:18:33Z</time>
      </trkpt>
      <trkpt lat="42.86127" lon="1.18622">
        <ele>862.4</ele>
        <time>2024-02-04T13:18:34Z</time>
      </trkpt>
      <trkpt lat="42.86123" lon="1.18627">
        <ele>861.8</ele>
        <time>2024-02-04T13:18:35Z</time>
      </trkpt>
      <trkpt lat="42.86119" lon="1.18631">
        <ele>860</ele>
        <time>2024-02-04T13:18:36Z</time>
      </trkpt>
      <trkpt lat="42.86116" lon="1.18636">
        <ele>859</ele>
        <time>2024-02-04T13:18:37Z</time>
      </trkpt>
      <trkpt lat="42.86113" lon="1.18642">
        <ele>858</ele>
        <time>2024-02-04T13:18:38Z</time>
      </trkpt>
      <trkpt lat="42.86109" lon="1.18649">
        <ele>857</ele>
        <time>2024-02-04T13:18:39Z</time>
      </trkpt>
      <trkpt lat="42.86106" lon="1.18658">
        <ele>855.8</ele>
        <time>2024-02-04T13:18:40Z</time>
      </trkpt>
      <trkpt lat="42.86103" lon="1.18664">
        <ele>854.8</ele>
        <time>2024-02-04T13:18:41Z</time>
      </trkpt>
      <trkpt lat="42.861" lon="1.18671">
        <ele>853.6</ele>
        <time>2024-02-04T13:18:42Z</time>
      </trkpt>
      <trkpt lat="42.86098" lon="1.18678">
        <ele>852.6</ele>
        <time>2024-02-04T13:18:43Z</time>
      </trkpt>
      <trkpt lat="42.86095" lon="1.18685">
        <ele>851.4</ele>
        <time>2024-02-04T13:18:44Z</time>
      </trkpt>
      <trkpt lat="42.86093" lon="1.18691">
        <ele>850.4</ele>
        <time>2024-02-04T13:18:45Z</time>
      </trkpt>
      <trkpt lat="42.86091" lon="1.18697">
        <ele>849.2</ele>
        <time>2024-02-04T13:18:46Z</time>
      </trkpt>
      <trkpt lat="42.8609" lon="1.18702">
        <ele>848.2</ele>
        <time>2024-02-04T13:18:47Z</time>
      </trkpt>
      <trkpt lat="42.86089" lon="1.18708">
        <ele>847.4</ele>
        <time>2024-02-04T13:18:48Z</time>
      </trkpt>
      <trkpt lat="42.86088" lon="1.18712">
        <ele>846.4</ele>
        <time>2024-02-04T13:18:49Z</time>
      </trkpt>
      <trkpt lat="42.86086" lon="1.18714">
        <ele>845.4</ele>
        <time>2024-02-04T13:18:50Z</time>
      </trkpt>
      <trkpt lat="42.86084" lon="1.18716">
        <ele>844.4</ele>
        <time>2024-02-04T13:18:51Z</time>
      </trkpt>
      <trkpt lat="42.86081" lon="1.18722">
        <ele>843.6</ele>
        <time>2024-02-04T13:18:52Z</time>
      </trkpt>
      <trkpt lat="42.86079" lon="1.18726">
        <ele>842.6</ele>
        <time>2024-02-04T13:18:53Z</time>
      </trkpt>
      <trkpt lat="42.86079" lon="1.18728">
        <ele>842</ele>
        <time>2024-02-04T13:18:54Z</time>
      </trkpt>
      <trkpt lat="42.86077" lon="1.18733">
        <ele>841.2</ele>
        <time>2024-02-04T13:18:55Z</time>
      </trkpt>
      <trkpt lat="42.86074" lon="1.18739">
        <ele>840.4</ele>
        <time>2024-02-04T13:18:56Z</time>
      </trkpt>
      <trkpt lat="42.86071" lon="1.18741">
        <ele>839.6</ele>
        <time>2024-02-04T13:18:57Z</time>
      </trkpt>
      <trkpt lat="42.86069" lon="1.18747">
        <ele>838.8</ele>
        <time>2024-02-04T13:18:58Z</time>
      </trkpt>
      <trkpt lat="42.86066" lon="1.18749">
        <ele>838</ele>
        <time>2024-02-04T13:18:59Z</time>
      </trkpt>
      <trkpt lat="42.86061" lon="1.18752">
        <ele>837.2</ele>
        <time>2024-02-04T13:19:00Z</time>
      </trkpt>
      <trkpt lat="42.86057" lon="1.18755">
        <ele>835.6</ele>
        <time>2024-02-04T13:19:01Z</time>
      </trkpt>
      <trkpt lat="42.86054" lon="1.18757">
        <ele>834.8</ele>
        <time>2024-02-04T13:19:02Z</time>
      </trkpt>
      <trkpt lat="42.8605" lon="1.18759">
        <ele>834</ele>
        <time>2024-02-04T13:19:03Z</time>
      </trkpt>
      <trkpt lat="42.86046" lon="1.18762">
        <ele>833.2</ele>
        <time>2024-02-04T13:19:04Z</time>
      </trkpt>
      <trkpt lat="42.86044" lon="1.18763">
        <ele>832.2</ele>
        <time>2024-02-04T13:19:05Z</time>
      </trkpt>
      <trkpt lat="42.86042" lon="1.18763">
        <ele>831.4</ele>
        <time>2024-02-04T13:19:06Z</time>
      </trkpt>
      <trkpt lat="42.8604" lon="1.18766">
        <ele>830.6</ele>
        <time>2024-02-04T13:19:07Z</time>
      </trkpt>
      <trkpt lat="42.86041" lon="1.18766">
        <ele>829.8</ele>
        <time>2024-02-04T13:19:08Z</time>
      </trkpt>
      <trkpt lat="42.86042" lon="1.18768">
        <ele>829.8</ele>
        <time>2024-02-04T13:19:09Z</time>
      </trkpt>
      <trkpt lat="42.86043" lon="1.18772">
        <ele>829.2</ele>
        <time>2024-02-04T13:19:10Z</time>
      </trkpt>
      <trkpt lat="42.86048" lon="1.18773">
        <ele>828.8</ele>
        <time>2024-02-04T13:19:11Z</time>
      </trkpt>
      <trkpt lat="42.86052" lon="1.18774">
        <ele>828.2</ele>
        <time>2024-02-04T13:19:12Z</time>
      </trkpt>
      <trkpt lat="42.86055" lon="1.18775">
        <ele>827.6</ele>
        <time>2024-02-04T13:19:13Z</time>
      </trkpt>
      <trkpt lat="42.86058" lon="1.18775">
        <ele>826.8</ele>
        <time>2024-02-04T13:19:14Z</time>
      </trkpt>
      <trkpt lat="42.86059" lon="1.18774">
        <ele>826.2</ele>
        <time>2024-02-04T13:19:15Z</time>
      </trkpt>
      <trkpt lat="42.8606" lon="1.18773">
        <ele>825.4</ele>
        <time>2024-02-04T13:19:16Z</time>
      </trkpt>
      <trkpt lat="42.86062" lon="1.18773">
        <ele>824.6</ele>
        <time>2024-02-04T13:19:17Z</time>
      </trkpt>
      <trkpt lat="42.86062" lon="1.18774">
        <ele>823.8</ele>
        <time>2024-02-04T13:19:18Z</time>
      </trkpt>
      <trkpt lat="42.86062" lon="1.18774">
        <ele>823</ele>
        <time>2024-02-04T13:19:19Z</time>
      </trkpt>
      <trkpt lat="42.86062" lon="1.18776">
        <ele>822.2</ele>
        <time>2024-02-04T13:19:20Z</time>
      </trkpt>
      <trkpt lat="42.8606" lon="1.18778">
        <ele>821.8</ele>
        <time>2024-02-04T13:19:21Z</time>
      </trkpt>
      <trkpt lat="42.86057" lon="1.18781">
        <ele>821.4</ele>
        <time>2024-02-04T13:19:22Z</time>
      </trkpt>
      <trkpt lat="42.86055" lon="1.18783">
        <ele>821</ele>
        <time>2024-02-04T13:19:23Z</time>
      </trkpt>
      <trkpt lat="42.86054" lon="1.18785">
        <ele>820.4</ele>
        <time>2024-02-04T13:19:24Z</time>
      </trkpt>
      <trkpt lat="42.86052" lon="1.18785">
        <ele>819.2</ele>
        <time>2024-02-04T13:19:25Z</time>
      </trkpt>
      <trkpt lat="42.86051" lon="1.18787">
        <ele>818.6</ele>
        <time>2024-02-04T13:19:26Z</time>
      </trkpt>
      <trkpt lat="42.86051" lon="1.18788">
        <ele>818</ele>
        <time>2024-02-04T13:19:27Z</time>
      </trkpt>
      <trkpt lat="42.8605" lon="1.18791">
        <ele>817.6</ele>
        <time>2024-02-04T13:19:28Z</time>
      </trkpt>
      <trkpt lat="42.86051" lon="1.1879">
        <ele>817.2</ele>
        <time>2024-02-04T13:19:29Z</time>
      </trkpt>
      <trkpt lat="42.86053" lon="1.18791">
        <ele>816.8</ele>
        <time>2024-02-04T13:19:30Z</time>
      </trkpt>
      <trkpt lat="42.86054" lon="1.18792">
        <ele>816.2</ele>
        <time>2024-02-04T13:19:31Z</time>
      </trkpt>
      <trkpt lat="42.86057" lon="1.18791">
        <ele>815.8</ele>
        <time>2024-02-04T13:19:32Z</time>
      </trkpt>
      <trkpt lat="42.86064" lon="1.1879">
        <ele>815.4</ele>
        <time>2024-02-04T13:19:34Z</time>
      </trkpt>
      <trkpt lat="42.86069" lon="1.1879">
        <ele>815</ele>
        <time>2024-02-04T13:19:35Z</time>
      </trkpt>
      <trkpt lat="42.86073" lon="1.18787">
        <ele>814.6</ele>
        <time>2024-02-04T13:19:36Z</time>
      </trkpt>
      <trkpt lat="42.86077" lon="1.18784">
        <ele>814.2</ele>
        <time>2024-02-04T13:19:37Z</time>
      </trkpt>
      <trkpt lat="42.86081" lon="1.18782">
        <ele>813.6</ele>
        <time>2024-02-04T13:19:38Z</time>
      </trkpt>
      <trkpt lat="42.86087" lon="1.1878">
        <ele>813</ele>
        <time>2024-02-04T13:19:39Z</time>
      </trkpt>
      <trkpt lat="42.86092" lon="1.18777">
        <ele>812.4</ele>
        <time>2024-02-04T13:19:40Z</time>
      </trkpt>
      <trkpt lat="42.86097" lon="1.18774">
        <ele>811.8</ele>
        <time>2024-02-04T13:19:41Z</time>
      </trkpt>
      <trkpt lat="42.86103" lon="1.18771">
        <ele>811.2</ele>
        <time>2024-02-04T13:19:42Z</time>
      </trkpt>
      <trkpt lat="42.86108" lon="1.18768">
        <ele>810.8</ele>
        <time>2024-02-04T13:19:43Z</time>
      </trkpt>
      <trkpt lat="42.86113" lon="1.18764">
        <ele>810.2</ele>
        <time>2024-02-04T13:19:44Z</time>
      </trkpt>
      <trkpt lat="42.86116" lon="1.18761">
        <ele>809.6</ele>
        <time>2024-02-04T13:19:45Z</time>
      </trkpt>
      <trkpt lat="42.86119" lon="1.18757">
        <ele>809</ele>
        <time>2024-02-04T13:19:46Z</time>
      </trkpt>
      <trkpt lat="42.86122" lon="1.18754">
        <ele>808.4</ele>
        <time>2024-02-04T13:19:47Z</time>
      </trkpt>
      <trkpt lat="42.86125" lon="1.1875">
        <ele>808</ele>
        <time>2024-02-04T13:19:48Z</time>
      </trkpt>
      <trkpt lat="42.86126" lon="1.18748">
        <ele>807.4</ele>
        <time>2024-02-04T13:19:49Z</time>
      </trkpt>
      <trkpt lat="42.86128" lon="1.18748">
        <ele>806.8</ele>
        <time>2024-02-04T13:19:50Z</time>
      </trkpt>
      <trkpt lat="42.86135" lon="1.18745">
        <ele>805.8</ele>
        <time>2024-02-04T13:20:18Z</time>
      </trkpt>
      <trkpt lat="42.86139" lon="1.18744">
        <ele>805.4</ele>
        <time>2024-02-04T13:20:19Z</time>
      </trkpt>
      <trkpt lat="42.86145" lon="1.18746">
        <ele>804.8</ele>
        <time>2024-02-04T13:20:20Z</time>
      </trkpt>
      <trkpt lat="42.86149" lon="1.18746">
        <ele>804.2</ele>
        <time>2024-02-04T13:20:21Z</time>
      </trkpt>
      <trkpt lat="42.86152" lon="1.18746">
        <ele>803.6</ele>
        <time>2024-02-04T13:20:22Z</time>
      </trkpt>
      <trkpt lat="42.86153" lon="1.18746">
        <ele>802.8</ele>
        <time>2024-02-04T13:20:23Z</time>
      </trkpt>
      <trkpt lat="42.86153" lon="1.18746">
        <ele>802</ele>
        <time>2024-02-04T13:20:24Z</time>
      </trkpt>
      <trkpt lat="42.86153" lon="1.18746">
        <ele>801.4</ele>
        <time>2024-02-04T13:20:25Z</time>
      </trkpt>
      <trkpt lat="42.8615" lon="1.18747">
        <ele>799.8</ele>
        <time>2024-02-04T13:20:33Z</time>
      </trkpt>
      <trkpt lat="42.86147" lon="1.18749">
        <ele>799.4</ele>
        <time>2024-02-04T13:20:34Z</time>
      </trkpt>
      <trkpt lat="42.86145" lon="1.18754">
        <ele>799</ele>
        <time>2024-02-04T13:20:35Z</time>
      </trkpt>
      <trkpt lat="42.86144" lon="1.18761">
        <ele>798.6</ele>
        <time>2024-02-04T13:20:36Z</time>
      </trkpt>
      <trkpt lat="42.86143" lon="1.18766">
        <ele>797.8</ele>
        <time>2024-02-04T13:20:37Z</time>
      </trkpt>
      <trkpt lat="42.86141" lon="1.18769">
        <ele>796.6</ele>
        <time>2024-02-04T13:20:38Z</time>
      </trkpt>
      <trkpt lat="42.8614" lon="1.18771">
        <ele>796</ele>
        <time>2024-02-04T13:20:39Z</time>
      </trkpt>
      <trkpt lat="42.86138" lon="1.18774">
        <ele>795.4</ele>
        <time>2024-02-04T13:20:40Z</time>
      </trkpt>
      <trkpt lat="42.86138" lon="1.18776">
        <ele>795</ele>
        <time>2024-02-04T13:20:41Z</time>
      </trkpt>
      <trkpt lat="42.86135" lon="1.1878">
        <ele>794.6</ele>
        <time>2024-02-04T13:20:42Z</time>
      </trkpt>
      <trkpt lat="42.86137" lon="1.1878">
        <ele>794</ele>
        <time>2024-02-04T13:20:43Z</time>
      </trkpt>
      <trkpt lat="42.86139" lon="1.18777">
        <ele>792.6</ele>
        <time>2024-02-04T13:20:46Z</time>
      </trkpt>
      <trkpt lat="42.86141" lon="1.18775">
        <ele>792.2</ele>
        <time>2024-02-04T13:20:47Z</time>
      </trkpt>
      <trkpt lat="42.86144" lon="1.18772">
        <ele>791.6</ele>
        <time>2024-02-04T13:20:48Z</time>
      </trkpt>
      <trkpt lat="42.86147" lon="1.18768">
        <ele>791.2</ele>
        <time>2024-02-04T13:20:49Z</time>
      </trkpt>
      <trkpt lat="42.86153" lon="1.18769">
        <ele>790.8</ele>
        <time>2024-02-04T13:20:50Z</time>
      </trkpt>
      <trkpt lat="42.86158" lon="1.1877">
        <ele>790.2</ele>
        <time>2024-02-04T13:20:51Z</time>
      </trkpt>
      <trkpt lat="42.86162" lon="1.18771">
        <ele>789.8</ele>
        <time>2024-02-04T13:20:52Z</time>
      </trkpt>
      <trkpt lat="42.86165" lon="1.18772">
        <ele>789.2</ele>
        <time>2024-02-04T13:20:53Z</time>
      </trkpt>
      <trkpt lat="42.86168" lon="1.18771">
        <ele>788.6</ele>
        <time>2024-02-04T13:20:54Z</time>
      </trkpt>
      <trkpt lat="42.86172" lon="1.18771">
        <ele>788</ele>
        <time>2024-02-04T13:20:55Z</time>
      </trkpt>
      <trkpt lat="42.86175" lon="1.1877">
        <ele>787.2</ele>
        <time>2024-02-04T13:20:56Z</time>
      </trkpt>
      <trkpt lat="42.86179" lon="1.18767">
        <ele>786.4</ele>
        <time>2024-02-04T13:20:57Z</time>
      </trkpt>
      <trkpt lat="42.86184" lon="1.18765">
        <ele>785.6</ele>
        <time>2024-02-04T13:20:58Z</time>
      </trkpt>
      <trkpt lat="42.86188" lon="1.18762">
        <ele>784.8</ele>
        <time>2024-02-04T13:20:59Z</time>
      </trkpt>
      <trkpt lat="42.86192" lon="1.18759">
        <ele>783.8</ele>
        <time>2024-02-04T13:21:00Z</time>
      </trkpt>
      <trkpt lat="42.86197" lon="1.18756">
        <ele>783</ele>
        <time>2024-02-04T13:21:01Z</time>
      </trkpt>
      <trkpt lat="42.86201" lon="1.18753">
        <ele>782</ele>
        <time>2024-02-04T13:21:02Z</time>
      </trkpt>
      <trkpt lat="42.86205" lon="1.1875">
        <ele>780.2</ele>
        <time>2024-02-04T13:21:03Z</time>
      </trkpt>
      <trkpt lat="42.86208" lon="1.18747">
        <ele>779.2</ele>
        <time>2024-02-04T13:21:04Z</time>
      </trkpt>
      <trkpt lat="42.86213" lon="1.18742">
        <ele>778.2</ele>
        <time>2024-02-04T13:21:05Z</time>
      </trkpt>
      <trkpt lat="42.86217" lon="1.18737">
        <ele>777.4</ele>
        <time>2024-02-04T13:21:06Z</time>
      </trkpt>
      <trkpt lat="42.86221" lon="1.18732">
        <ele>776.4</ele>
        <time>2024-02-04T13:21:07Z</time>
      </trkpt>
      <trkpt lat="42.86225" lon="1.18727">
        <ele>775.6</ele>
        <time>2024-02-04T13:21:08Z</time>
      </trkpt>
      <trkpt lat="42.86228" lon="1.18723">
        <ele>774.6</ele>
        <time>2024-02-04T13:21:09Z</time>
      </trkpt>
      <trkpt lat="42.8623" lon="1.18721">
        <ele>773.6</ele>
        <time>2024-02-04T13:21:10Z</time>
      </trkpt>
      <trkpt lat="42.86231" lon="1.18719">
        <ele>772.8</ele>
        <time>2024-02-04T13:21:11Z</time>
      </trkpt>
      <trkpt lat="42.86233" lon="1.18716">
        <ele>772</ele>
        <time>2024-02-04T13:21:12Z</time>
      </trkpt>
      <trkpt lat="42.86234" lon="1.18715">
        <ele>771.2</ele>
        <time>2024-02-04T13:21:13Z</time>
      </trkpt>
      <trkpt lat="42.86235" lon="1.18712">
        <ele>770.4</ele>
        <time>2024-02-04T13:21:14Z</time>
      </trkpt>
      <trkpt lat="42.86237" lon="1.1871">
        <ele>769.6</ele>
        <time>2024-02-04T13:21:15Z</time>
      </trkpt>
      <trkpt lat="42.86239" lon="1.18707">
        <ele>768.8</ele>
        <time>2024-02-04T13:21:16Z</time>
      </trkpt>
      <trkpt lat="42.86241" lon="1.18705">
        <ele>768.4</ele>
        <time>2024-02-04T13:21:17Z</time>
      </trkpt>
      <trkpt lat="42.86243" lon="1.18703">
        <ele>768</ele>
        <time>2024-02-04T13:21:18Z</time>
      </trkpt>
      <trkpt lat="42.86244" lon="1.18701">
        <ele>767.4</ele>
        <time>2024-02-04T13:21:19Z</time>
      </trkpt>
      <trkpt lat="42.86244" lon="1.187">
        <ele>767</ele>
        <time>2024-02-04T13:21:20Z</time>
      </trkpt>
      <trkpt lat="42.8625" lon="1.18696">
        <ele>762.4</ele>
        <time>2024-02-04T13:21:50Z</time>
      </trkpt>
      <trkpt lat="42.86249" lon="1.18705">
        <ele>762.4</ele>
        <time>2024-02-04T13:21:52Z</time>
      </trkpt>
      <trkpt lat="42.86248" lon="1.18712">
        <ele>761.8</ele>
        <time>2024-02-04T13:21:53Z</time>
      </trkpt>
      <trkpt lat="42.86247" lon="1.18719">
        <ele>761.4</ele>
        <time>2024-02-04T13:21:54Z</time>
      </trkpt>
      <trkpt lat="42.86246" lon="1.18725">
        <ele>760.8</ele>
        <time>2024-02-04T13:21:55Z</time>
      </trkpt>
      <trkpt lat="42.86245" lon="1.18732">
        <ele>760</ele>
        <time>2024-02-04T13:21:56Z</time>
      </trkpt>
      <trkpt lat="42.86243" lon="1.18737">
        <ele>759.4</ele>
        <time>2024-02-04T13:21:57Z</time>
      </trkpt>
      <trkpt lat="42.86242" lon="1.18741">
        <ele>758.6</ele>
        <time>2024-02-04T13:21:58Z</time>
      </trkpt>
      <trkpt lat="42.8624" lon="1.18744">
        <ele>757.8</ele>
        <time>2024-02-04T13:21:59Z</time>
      </trkpt>
      <trkpt lat="42.86239" lon="1.18746">
        <ele>757</ele>
        <time>2024-02-04T13:22:00Z</time>
      </trkpt>
      <trkpt lat="42.86237" lon="1.18748">
        <ele>756.4</ele>
        <time>2024-02-04T13:22:01Z</time>
      </trkpt>
      <trkpt lat="42.86237" lon="1.18751">
        <ele>755.6</ele>
        <time>2024-02-04T13:22:02Z</time>
      </trkpt>
      <trkpt lat="42.86236" lon="1.18755">
        <ele>754.8</ele>
        <time>2024-02-04T13:22:03Z</time>
      </trkpt>
      <trkpt lat="42.86235" lon="1.18759">
        <ele>754.8</ele>
        <time>2024-02-04T13:22:04Z</time>
      </trkpt>
      <trkpt lat="42.86232" lon="1.18771">
        <ele>754.2</ele>
        <time>2024-02-04T13:22:06Z</time>
      </trkpt>
      <trkpt lat="42.8623" lon="1.18777">
        <ele>753.6</ele>
        <time>2024-02-04T13:22:07Z</time>
      </trkpt>
      <trkpt lat="42.86227" lon="1.18784">
        <ele>753.2</ele>
        <time>2024-02-04T13:22:08Z</time>
      </trkpt>
      <trkpt lat="42.86224" lon="1.18791">
        <ele>752.4</ele>
        <time>2024-02-04T13:22:09Z</time>
      </trkpt>
      <trkpt lat="42.86221" lon="1.18798">
        <ele>751.6</ele>
        <time>2024-02-04T13:22:10Z</time>
      </trkpt>
      <trkpt lat="42.86219" lon="1.18804">
        <ele>751</ele>
        <time>2024-02-04T13:22:11Z</time>
      </trkpt>
      <trkpt lat="42.86217" lon="1.18808">
        <ele>750.2</ele>
        <time>2024-02-04T13:22:12Z</time>
      </trkpt>
      <trkpt lat="42.86217" lon="1.18811">
        <ele>749.4</ele>
        <time>2024-02-04T13:22:13Z</time>
      </trkpt>
      <trkpt lat="42.86217" lon="1.18812">
        <ele>748.6</ele>
        <time>2024-02-04T13:22:14Z</time>
      </trkpt>
      <trkpt lat="42.86218" lon="1.18812">
        <ele>748</ele>
        <time>2024-02-04T13:22:15Z</time>
      </trkpt>
      <trkpt lat="42.8622" lon="1.18811">
        <ele>747.4</ele>
        <time>2024-02-04T13:22:16Z</time>
      </trkpt>
      <trkpt lat="42.86222" lon="1.18809">
        <ele>746.2</ele>
        <time>2024-02-04T13:22:17Z</time>
      </trkpt>
      <trkpt lat="42.86225" lon="1.18806">
        <ele>745.8</ele>
        <time>2024-02-04T13:22:18Z</time>
      </trkpt>
      <trkpt lat="42.86228" lon="1.18803">
        <ele>745.2</ele>
        <time>2024-02-04T13:22:19Z</time>
      </trkpt>
      <trkpt lat="42.86232" lon="1.18799">
        <ele>744.8</ele>
        <time>2024-02-04T13:22:20Z</time>
      </trkpt>
      <trkpt lat="42.86236" lon="1.18795">
        <ele>744.4</ele>
        <time>2024-02-04T13:22:21Z</time>
      </trkpt>
      <trkpt lat="42.8624" lon="1.18791">
        <ele>744</ele>
        <time>2024-02-04T13:22:22Z</time>
      </trkpt>
      <trkpt lat="42.86243" lon="1.18787">
        <ele>743.6</ele>
        <time>2024-02-04T13:22:23Z</time>
      </trkpt>
      <trkpt lat="42.86247" lon="1.18784">
        <ele>743</ele>
        <time>2024-02-04T13:22:24Z</time>
      </trkpt>
      <trkpt lat="42.86251" lon="1.1878">
        <ele>742.6</ele>
        <time>2024-02-04T13:22:25Z</time>
      </trkpt>
      <trkpt lat="42.86255" lon="1.18776">
        <ele>742</ele>
        <time>2024-02-04T13:22:26Z</time>
      </trkpt>
      <trkpt lat="42.8626" lon="1.18771">
        <ele>741.4</ele>
        <time>2024-02-04T13:22:27Z</time>
      </trkpt>
      <trkpt lat="42.86265" lon="1.18766">
        <ele>740.6</ele>
        <time>2024-02-04T13:22:28Z</time>
      </trkpt>
      <trkpt lat="42.86269" lon="1.18761">
        <ele>739.8</ele>
        <time>2024-02-04T13:22:29Z</time>
      </trkpt>
      <trkpt lat="42.86274" lon="1.18755">
        <ele>739</ele>
        <time>2024-02-04T13:22:30Z</time>
      </trkpt>
      <trkpt lat="42.86278" lon="1.18749">
        <ele>738.2</ele>
        <time>2024-02-04T13:22:31Z</time>
      </trkpt>
      <trkpt lat="42.86283" lon="1.18743">
        <ele>737.2</ele>
        <time>2024-02-04T13:22:32Z</time>
      </trkpt>
      <trkpt lat="42.86287" lon="1.18737">
        <ele>736.4</ele>
        <time>2024-02-04T13:22:33Z</time>
      </trkpt>
      <trkpt lat="42.86291" lon="1.1873">
        <ele>735.6</ele>
        <time>2024-02-04T13:22:34Z</time>
      </trkpt>
      <trkpt lat="42.86295" lon="1.18723">
        <ele>734.8</ele>
        <time>2024-02-04T13:22:35Z</time>
      </trkpt>
      <trkpt lat="42.86299" lon="1.18716">
        <ele>734</ele>
        <time>2024-02-04T13:22:36Z</time>
      </trkpt>
      <trkpt lat="42.86303" lon="1.1871">
        <ele>733.2</ele>
        <time>2024-02-04T13:22:37Z</time>
      </trkpt>
      <trkpt lat="42.86306" lon="1.18703">
        <ele>732.2</ele>
        <time>2024-02-04T13:22:38Z</time>
      </trkpt>
      <trkpt lat="42.86309" lon="1.18697">
        <ele>731.2</ele>
        <time>2024-02-04T13:22:39Z</time>
      </trkpt>
      <trkpt lat="42.86311" lon="1.18692">
        <ele>730.4</ele>
        <time>2024-02-04T13:22:40Z</time>
      </trkpt>
      <trkpt lat="42.86312" lon="1.1869">
        <ele>728.6</ele>
        <time>2024-02-04T13:22:41Z</time>
      </trkpt>
      <trkpt lat="42.86312" lon="1.1869">
        <ele>727.6</ele>
        <time>2024-02-04T13:22:42Z</time>
      </trkpt>
      <trkpt lat="42.86315" lon="1.18679">
        <ele>725.6</ele>
        <time>2024-02-04T13:23:02Z</time>
      </trkpt>
      <trkpt lat="42.86317" lon="1.18673">
        <ele>725.2</ele>
        <time>2024-02-04T13:23:04Z</time>
      </trkpt>
      <trkpt lat="42.86319" lon="1.18669">
        <ele>724.4</ele>
        <time>2024-02-04T13:23:05Z</time>
      </trkpt>
      <trkpt lat="42.86321" lon="1.18665">
        <ele>724</ele>
        <time>2024-02-04T13:23:06Z</time>
      </trkpt>
      <trkpt lat="42.86322" lon="1.18662">
        <ele>723.6</ele>
        <time>2024-02-04T13:23:07Z</time>
      </trkpt>
      <trkpt lat="42.86324" lon="1.18659">
        <ele>723.6</ele>
        <time>2024-02-04T13:23:08Z</time>
      </trkpt>
      <trkpt lat="42.86326" lon="1.18654">
        <ele>723.2</ele>
        <time>2024-02-04T13:23:09Z</time>
      </trkpt>
      <trkpt lat="42.86329" lon="1.18649">
        <ele>722.6</ele>
        <time>2024-02-04T13:23:10Z</time>
      </trkpt>
      <trkpt lat="42.86331" lon="1.18642">
        <ele>722.2</ele>
        <time>2024-02-04T13:23:11Z</time>
      </trkpt>
      <trkpt lat="42.86334" lon="1.18636">
        <ele>721.6</ele>
        <time>2024-02-04T13:23:12Z</time>
      </trkpt>
      <trkpt lat="42.86336" lon="1.1863">
        <ele>721</ele>
        <time>2024-02-04T13:23:13Z</time>
      </trkpt>
      <trkpt lat="42.86339" lon="1.18623">
        <ele>720.4</ele>
        <time>2024-02-04T13:23:14Z</time>
      </trkpt>
      <trkpt lat="42.86342" lon="1.18615">
        <ele>719.6</ele>
        <time>2024-02-04T13:23:15Z</time>
      </trkpt>
      <trkpt lat="42.86346" lon="1.18607">
        <ele>718.8</ele>
        <time>2024-02-04T13:23:16Z</time>
      </trkpt>
      <trkpt lat="42.86351" lon="1.18598">
        <ele>718</ele>
        <time>2024-02-04T13:23:17Z</time>
      </trkpt>
      <trkpt lat="42.86355" lon="1.18589">
        <ele>717.2</ele>
        <time>2024-02-04T13:23:18Z</time>
      </trkpt>
      <trkpt lat="42.86359" lon="1.18581">
        <ele>716.2</ele>
        <time>2024-02-04T13:23:19Z</time>
      </trkpt>
      <trkpt lat="42.86364" lon="1.18572">
        <ele>715.2</ele>
        <time>2024-02-04T13:23:20Z</time>
      </trkpt>
      <trkpt lat="42.86368" lon="1.18564">
        <ele>714.2</ele>
        <time>2024-02-04T13:23:21Z</time>
      </trkpt>
      <trkpt lat="42.86373" lon="1.18556">
        <ele>713.2</ele>
        <time>2024-02-04T13:23:22Z</time>
      </trkpt>
      <trkpt lat="42.86376" lon="1.18549">
        <ele>712.2</ele>
        <time>2024-02-04T13:23:23Z</time>
      </trkpt>
      <trkpt lat="42.86379" lon="1.18543">
        <ele>711.2</ele>
        <time>2024-02-04T13:23:24Z</time>
      </trkpt>
      <trkpt lat="42.86382" lon="1.18537">
        <ele>710.2</ele>
        <time>2024-02-04T13:23:25Z</time>
      </trkpt>
      <trkpt lat="42.86383" lon="1.18531">
        <ele>709.2</ele>
        <time>2024-02-04T13:23:26Z</time>
      </trkpt>
      <trkpt lat="42.86385" lon="1.18526">
        <ele>708</ele>
        <time>2024-02-04T13:23:27Z</time>
      </trkpt>
      <trkpt lat="42.86387" lon="1.18521">
        <ele>707.2</ele>
        <time>2024-02-04T13:23:28Z</time>
      </trkpt>
      <trkpt lat="42.86391" lon="1.18516">
        <ele>706.2</ele>
        <time>2024-02-04T13:23:29Z</time>
      </trkpt>
      <trkpt lat="42.86393" lon="1.18509">
        <ele>704.2</ele>
        <time>2024-02-04T13:23:30Z</time>
      </trkpt>
      <trkpt lat="42.86395" lon="1.18502">
        <ele>703.4</ele>
        <time>2024-02-04T13:23:31Z</time>
      </trkpt>
      <trkpt lat="42.86398" lon="1.18495">
        <ele>702.4</ele>
        <time>2024-02-04T13:23:32Z</time>
      </trkpt>
      <trkpt lat="42.86401" lon="1.18487">
        <ele>701.4</ele>
        <time>2024-02-04T13:23:33Z</time>
      </trkpt>
      <trkpt lat="42.86403" lon="1.18479">
        <ele>700.4</ele>
        <time>2024-02-04T13:23:34Z</time>
      </trkpt>
      <trkpt lat="42.86405" lon="1.18472">
        <ele>699.4</ele>
        <time>2024-02-04T13:23:35Z</time>
      </trkpt>
      <trkpt lat="42.86407" lon="1.18465">
        <ele>698.2</ele>
        <time>2024-02-04T13:23:36Z</time>
      </trkpt>
      <trkpt lat="42.86409" lon="1.18458">
        <ele>697.2</ele>
        <time>2024-02-04T13:23:37Z</time>
      </trkpt>
      <trkpt lat="42.86411" lon="1.18451">
        <ele>696.2</ele>
        <time>2024-02-04T13:23:38Z</time>
      </trkpt>
      <trkpt lat="42.86413" lon="1.18443">
        <ele>695.4</ele>
        <time>2024-02-04T13:23:39Z</time>
      </trkpt>
      <trkpt lat="42.86415" lon="1.18436">
        <ele>694.4</ele>
        <time>2024-02-04T13:23:40Z</time>
      </trkpt>
      <trkpt lat="42.86415" lon="1.18428">
        <ele>693.4</ele>
        <time>2024-02-04T13:23:41Z</time>
      </trkpt>
      <trkpt lat="42.86415" lon="1.18421">
        <ele>692.6</ele>
        <time>2024-02-04T13:23:42Z</time>
      </trkpt>
      <trkpt lat="42.86416" lon="1.18415">
        <ele>691.8</ele>
        <time>2024-02-04T13:23:43Z</time>
      </trkpt>
      <trkpt lat="42.86417" lon="1.18409">
        <ele>691</ele>
        <time>2024-02-04T13:23:44Z</time>
      </trkpt>
      <trkpt lat="42.86417" lon="1.18403">
        <ele>690.2</ele>
        <time>2024-02-04T13:23:45Z</time>
      </trkpt>
      <trkpt lat="42.86418" lon="1.18398">
        <ele>689.4</ele>
        <time>2024-02-04T13:23:46Z</time>
      </trkpt>
      <trkpt lat="42.86419" lon="1.18393">
        <ele>688.8</ele>
        <time>2024-02-04T13:23:47Z</time>
      </trkpt>
      <trkpt lat="42.86419" lon="1.18391">
        <ele>688</ele>
        <time>2024-02-04T13:23:48Z</time>
      </trkpt>
      <trkpt lat="42.86419" lon="1.18388">
        <ele>687.2</ele>
        <time>2024-02-04T13:23:49Z</time>
      </trkpt>
      <trkpt lat="42.8642" lon="1.18384">
        <ele>686.4</ele>
        <time>2024-02-04T13:23:50Z</time>
      </trkpt>
      <trkpt lat="42.86419" lon="1.18381">
        <ele>685.6</ele>
        <time>2024-02-04T13:23:51Z</time>
      </trkpt>
      <trkpt lat="42.86419" lon="1.18377">
        <ele>684.8</ele>
        <time>2024-02-04T13:23:52Z</time>
      </trkpt>
      <trkpt lat="42.86421" lon="1.18374">
        <ele>684</ele>
        <time>2024-02-04T13:23:53Z</time>
      </trkpt>
      <trkpt lat="42.86423" lon="1.18356">
        <ele>683.4</ele>
        <time>2024-02-04T13:23:56Z</time>
      </trkpt>
      <trkpt lat="42.86423" lon="1.18349">
        <ele>683</ele>
        <time>2024-02-04T13:23:57Z</time>
      </trkpt>
      <trkpt lat="42.86425" lon="1.18341">
        <ele>682.4</ele>
        <time>2024-02-04T13:23:58Z</time>
      </trkpt>
      <trkpt lat="42.86427" lon="1.18332">
        <ele>681.8</ele>
        <time>2024-02-04T13:23:59Z</time>
      </trkpt>
      <trkpt lat="42.86429" lon="1.18324">
        <ele>681</ele>
        <time>2024-02-04T13:24:00Z</time>
      </trkpt>
      <trkpt lat="42.86429" lon="1.18316">
        <ele>680.4</ele>
        <time>2024-02-04T13:24:01Z</time>
      </trkpt>
      <trkpt lat="42.86427" lon="1.18307">
        <ele>679.6</ele>
        <time>2024-02-04T13:24:02Z</time>
      </trkpt>
      <trkpt lat="42.86425" lon="1.18298">
        <ele>678.8</ele>
        <time>2024-02-04T13:24:03Z</time>
      </trkpt>
      <trkpt lat="42.86422" lon="1.18289">
        <ele>678</ele>
        <time>2024-02-04T13:24:04Z</time>
      </trkpt>
      <trkpt lat="42.86421" lon="1.18281">
        <ele>677.2</ele>
        <time>2024-02-04T13:24:05Z</time>
      </trkpt>
      <trkpt lat="42.86422" lon="1.18274">
        <ele>676.2</ele>
        <time>2024-02-04T13:24:06Z</time>
      </trkpt>
      <trkpt lat="42.86421" lon="1.18268">
        <ele>675.4</ele>
        <time>2024-02-04T13:24:07Z</time>
      </trkpt>
      <trkpt lat="42.8642" lon="1.18264">
        <ele>674.6</ele>
        <time>2024-02-04T13:24:08Z</time>
      </trkpt>
      <trkpt lat="42.86419" lon="1.1826">
        <ele>673.8</ele>
        <time>2024-02-04T13:24:09Z</time>
      </trkpt>
      <trkpt lat="42.86418" lon="1.18255">
        <ele>673</ele>
        <time>2024-02-04T13:24:10Z</time>
      </trkpt>
      <trkpt lat="42.86417" lon="1.1825">
        <ele>672.2</ele>
        <time>2024-02-04T13:24:11Z</time>
      </trkpt>
      <trkpt lat="42.86416" lon="1.18244">
        <ele>671.4</ele>
        <time>2024-02-04T13:24:12Z</time>
      </trkpt>
      <trkpt lat="42.86416" lon="1.18237">
        <ele>671</ele>
        <time>2024-02-04T13:24:13Z</time>
      </trkpt>
      <trkpt lat="42.86417" lon="1.18229">
        <ele>670.4</ele>
        <time>2024-02-04T13:24:14Z</time>
      </trkpt>
      <trkpt lat="42.86417" lon="1.18221">
        <ele>670</ele>
        <time>2024-02-04T13:24:15Z</time>
      </trkpt>
      <trkpt lat="42.86417" lon="1.18211">
        <ele>669.2</ele>
        <time>2024-02-04T13:24:16Z</time>
      </trkpt>
      <trkpt lat="42.86418" lon="1.18201">
        <ele>668.6</ele>
        <time>2024-02-04T13:24:17Z</time>
      </trkpt>
      <trkpt lat="42.86418" lon="1.18191">
        <ele>667.6</ele>
        <time>2024-02-04T13:24:18Z</time>
      </trkpt>
      <trkpt lat="42.86418" lon="1.18182">
        <ele>666.8</ele>
        <time>2024-02-04T13:24:19Z</time>
      </trkpt>
      <trkpt lat="42.86418" lon="1.18174">
        <ele>664.8</ele>
        <time>2024-02-04T13:24:20Z</time>
      </trkpt>
      <trkpt lat="42.86417" lon="1.18167">
        <ele>663.8</ele>
        <time>2024-02-04T13:24:21Z</time>
      </trkpt>
      <trkpt lat="42.86416" lon="1.18163">
        <ele>662.8</ele>
        <time>2024-02-04T13:24:22Z</time>
      </trkpt>
      <trkpt lat="42.86416" lon="1.1816">
        <ele>661.8</ele>
        <time>2024-02-04T13:24:23Z</time>
      </trkpt>
      <trkpt lat="42.86416" lon="1.18158">
        <ele>660.8</ele>
        <time>2024-02-04T13:24:24Z</time>
      </trkpt>
      <trkpt lat="42.86416" lon="1.18156">
        <ele>660.2</ele>
        <time>2024-02-04T13:24:25Z</time>
      </trkpt>
      <trkpt lat="42.86415" lon="1.18153">
        <ele>659.6</ele>
        <time>2024-02-04T13:24:26Z</time>
      </trkpt>
      <trkpt lat="42.86415" lon="1.18149">
        <ele>658.8</ele>
        <time>2024-02-04T13:24:27Z</time>
      </trkpt>
      <trkpt lat="42.86415" lon="1.18146">
        <ele>658.2</ele>
        <time>2024-02-04T13:24:28Z</time>
      </trkpt>
      <trkpt lat="42.86414" lon="1.18144">
        <ele>657.6</ele>
        <time>2024-02-04T13:24:29Z</time>
      </trkpt>
      <trkpt lat="42.86411" lon="1.18141">
        <ele>657.6</ele>
        <time>2024-02-04T13:24:32Z</time>
      </trkpt>
      <trkpt lat="42.86409" lon="1.18141">
        <ele>657.6</ele>
        <time>2024-02-04T13:24:46Z</time>
      </trkpt>
      <trkpt lat="42.8641" lon="1.18145">
        <ele>657.6</ele>
        <time>2024-02-04T13:24:48Z</time>
      </trkpt>
      <trkpt lat="42.86412" lon="1.18149">
        <ele>657.6</ele>
        <time>2024-02-04T13:24:49Z</time>
      </trkpt>
      <trkpt lat="42.86413" lon="1.18154">
        <ele>657</ele>
        <time>2024-02-04T13:24:50Z</time>
      </trkpt>
      <trkpt lat="42.86414" lon="1.1816">
        <ele>656.6</ele>
        <time>2024-02-04T13:24:51Z</time>
      </trkpt>
      <trkpt lat="42.86416" lon="1.18165">
        <ele>656.2</ele>
        <time>2024-02-04T13:24:52Z</time>
      </trkpt>
      <trkpt lat="42.86417" lon="1.18169">
        <ele>655.8</ele>
        <time>2024-02-04T13:24:53Z</time>
      </trkpt>
      <trkpt lat="42.86418" lon="1.18173">
        <ele>655.2</ele>
        <time>2024-02-04T13:24:54Z</time>
      </trkpt>
      <trkpt lat="42.86418" lon="1.18176">
        <ele>654.8</ele>
        <time>2024-02-04T13:24:55Z</time>
      </trkpt>
      <trkpt lat="42.86419" lon="1.1818">
        <ele>654.2</ele>
        <time>2024-02-04T13:24:56Z</time>
      </trkpt>
      <trkpt lat="42.86419" lon="1.18185">
        <ele>653.8</ele>
        <time>2024-02-04T13:24:57Z</time>
      </trkpt>
      <trkpt lat="42.8642" lon="1.18191">
        <ele>653.2</ele>
        <time>2024-02-04T13:24:58Z</time>
      </trkpt>
      <trkpt lat="42.86421" lon="1.18197">
        <ele>652.6</ele>
        <time>2024-02-04T13:24:59Z</time>
      </trkpt>
      <trkpt lat="42.86422" lon="1.18204">
        <ele>652.2</ele>
        <time>2024-02-04T13:25:00Z</time>
      </trkpt>
      <trkpt lat="42.86424" lon="1.1821">
        <ele>651.6</ele>
        <time>2024-02-04T13:25:01Z</time>
      </trkpt>
      <trkpt lat="42.86425" lon="1.18217">
        <ele>651</ele>
        <time>2024-02-04T13:25:02Z</time>
      </trkpt>
      <trkpt lat="42.86427" lon="1.18224">
        <ele>650.2</ele>
        <time>2024-02-04T13:25:03Z</time>
      </trkpt>
      <trkpt lat="42.86429" lon="1.18232">
        <ele>649.6</ele>
        <time>2024-02-04T13:25:04Z</time>
      </trkpt>
      <trkpt lat="42.86433" lon="1.18239">
        <ele>648.8</ele>
        <time>2024-02-04T13:25:05Z</time>
      </trkpt>
      <trkpt lat="42.86436" lon="1.18246">
        <ele>648</ele>
        <time>2024-02-04T13:25:06Z</time>
      </trkpt>
      <trkpt lat="42.86441" lon="1.18252">
        <ele>647.4</ele>
        <time>2024-02-04T13:25:07Z</time>
      </trkpt>
      <trkpt lat="42.86446" lon="1.18259">
        <ele>646.6</ele>
        <time>2024-02-04T13:25:08Z</time>
      </trkpt>
      <trkpt lat="42.8645" lon="1.18265">
        <ele>645</ele>
        <time>2024-02-04T13:25:09Z</time>
      </trkpt>
      <trkpt lat="42.86454" lon="1.1827">
        <ele>644.2</ele>
        <time>2024-02-04T13:25:10Z</time>
      </trkpt>
      <trkpt lat="42.86458" lon="1.18276">
        <ele>643.4</ele>
        <time>2024-02-04T13:25:11Z</time>
      </trkpt>
      <trkpt lat="42.86461" lon="1.18283">
        <ele>642.6</ele>
        <time>2024-02-04T13:25:12Z</time>
      </trkpt>
      <trkpt lat="42.86462" lon="1.18288">
        <ele>641.8</ele>
        <time>2024-02-04T13:25:13Z</time>
      </trkpt>
      <trkpt lat="42.86463" lon="1.18293">
        <ele>641.2</ele>
        <time>2024-02-04T13:25:14Z</time>
      </trkpt>
      <trkpt lat="42.86463" lon="1.18297">
        <ele>640.4</ele>
        <time>2024-02-04T13:25:15Z</time>
      </trkpt>
      <trkpt lat="42.86463" lon="1.183">
        <ele>639.6</ele>
        <time>2024-02-04T13:25:16Z</time>
      </trkpt>
      <trkpt lat="42.86463" lon="1.18303">
        <ele>639</ele>
        <time>2024-02-04T13:25:17Z</time>
      </trkpt>
      <trkpt lat="42.86463" lon="1.18307">
        <ele>639</ele>
        <time>2024-02-04T13:25:18Z</time>
      </trkpt>
      <trkpt lat="42.86463" lon="1.18313">
        <ele>638.6</ele>
        <time>2024-02-04T13:25:19Z</time>
      </trkpt>
      <trkpt lat="42.86464" lon="1.18319">
        <ele>638.2</ele>
        <time>2024-02-04T13:25:20Z</time>
      </trkpt>
      <trkpt lat="42.86464" lon="1.18325">
        <ele>637.8</ele>
        <time>2024-02-04T13:25:21Z</time>
      </trkpt>
      <trkpt lat="42.86465" lon="1.18332">
        <ele>637.2</ele>
        <time>2024-02-04T13:25:22Z</time>
      </trkpt>
      <trkpt lat="42.86465" lon="1.1834">
        <ele>636.8</ele>
        <time>2024-02-04T13:25:23Z</time>
      </trkpt>
      <trkpt lat="42.86466" lon="1.18348">
        <ele>636.4</ele>
        <time>2024-02-04T13:25:24Z</time>
      </trkpt>
      <trkpt lat="42.86468" lon="1.18356">
        <ele>635.8</ele>
        <time>2024-02-04T13:25:25Z</time>
      </trkpt>
      <trkpt lat="42.86469" lon="1.18365">
        <ele>635.4</ele>
        <time>2024-02-04T13:25:26Z</time>
      </trkpt>
      <trkpt lat="42.86471" lon="1.18375">
        <ele>634.8</ele>
        <time>2024-02-04T13:25:27Z</time>
      </trkpt>
      <trkpt lat="42.86473" lon="1.18385">
        <ele>634.4</ele>
        <time>2024-02-04T13:25:28Z</time>
      </trkpt>
      <trkpt lat="42.86475" lon="1.18395">
        <ele>633.8</ele>
        <time>2024-02-04T13:25:29Z</time>
      </trkpt>
      <trkpt lat="42.86476" lon="1.18405">
        <ele>633.2</ele>
        <time>2024-02-04T13:25:30Z</time>
      </trkpt>
      <trkpt lat="42.86478" lon="1.18416">
        <ele>632.6</ele>
        <time>2024-02-04T13:25:31Z</time>
      </trkpt>
      <trkpt lat="42.8648" lon="1.18426">
        <ele>632</ele>
        <time>2024-02-04T13:25:32Z</time>
      </trkpt>
      <trkpt lat="42.86482" lon="1.18436">
        <ele>631.4</ele>
        <time>2024-02-04T13:25:33Z</time>
      </trkpt>
      <trkpt lat="42.86484" lon="1.18444">
        <ele>629.8</ele>
        <time>2024-02-04T13:25:34Z</time>
      </trkpt>
      <trkpt lat="42.86485" lon="1.18452">
        <ele>629</ele>
        <time>2024-02-04T13:25:35Z</time>
      </trkpt>
      <trkpt lat="42.86485" lon="1.18459">
        <ele>628.2</ele>
        <time>2024-02-04T13:25:36Z</time>
      </trkpt>
      <trkpt lat="42.86486" lon="1.18464">
        <ele>627.6</ele>
        <time>2024-02-04T13:25:37Z</time>
      </trkpt>
      <trkpt lat="42.86486" lon="1.18468">
        <ele>627</ele>
        <time>2024-02-04T13:25:38Z</time>
      </trkpt>
      <trkpt lat="42.86485" lon="1.18471">
        <ele>626.6</ele>
        <time>2024-02-04T13:25:39Z</time>
      </trkpt>
      <trkpt lat="42.86485" lon="1.18474">
        <ele>626.2</ele>
        <time>2024-02-04T13:25:40Z</time>
      </trkpt>
      <trkpt lat="42.86486" lon="1.18477">
        <ele>625.6</ele>
        <time>2024-02-04T13:25:41Z</time>
      </trkpt>
      <trkpt lat="42.86487" lon="1.18479">
        <ele>625.2</ele>
        <time>2024-02-04T13:25:42Z</time>
      </trkpt>
      <trkpt lat="42.8649" lon="1.18493">
        <ele>625.2</ele>
        <time>2024-02-04T13:25:46Z</time>
      </trkpt>
      <trkpt lat="42.86491" lon="1.185">
        <ele>624.8</ele>
        <time>2024-02-04T13:25:47Z</time>
      </trkpt>
      <trkpt lat="42.86491" lon="1.18506">
        <ele>624.2</ele>
        <time>2024-02-04T13:25:48Z</time>
      </trkpt>
      <trkpt lat="42.86491" lon="1.18512">
        <ele>623.8</ele>
        <time>2024-02-04T13:25:49Z</time>
      </trkpt>
      <trkpt lat="42.8649" lon="1.18516">
        <ele>623.4</ele>
        <time>2024-02-04T13:25:50Z</time>
      </trkpt>
      <trkpt lat="42.86489" lon="1.1852">
        <ele>622.8</ele>
        <time>2024-02-04T13:25:51Z</time>
      </trkpt>
      <trkpt lat="42.86489" lon="1.18522">
        <ele>622.4</ele>
        <time>2024-02-04T13:25:52Z</time>
      </trkpt>
      <trkpt lat="42.8649" lon="1.18523">
        <ele>622</ele>
        <time>2024-02-04T13:25:53Z</time>
      </trkpt>
      <trkpt lat="42.86491" lon="1.18522">
        <ele>621.6</ele>
        <time>2024-02-04T13:25:54Z</time>
      </trkpt>
      <trkpt lat="42.86493" lon="1.1852">
        <ele>621.2</ele>
        <time>2024-02-04T13:25:55Z</time>
      </trkpt>
      <trkpt lat="42.86496" lon="1.18516">
        <ele>620.6</ele>
        <time>2024-02-04T13:25:56Z</time>
      </trkpt>
      <trkpt lat="42.86499" lon="1.18511">
        <ele>620.2</ele>
        <time>2024-02-04T13:25:57Z</time>
      </trkpt>
      <trkpt lat="42.86502" lon="1.18506">
        <ele>619.4</ele>
        <time>2024-02-04T13:25:58Z</time>
      </trkpt>
      <trkpt lat="42.86506" lon="1.18501">
        <ele>619</ele>
        <time>2024-02-04T13:25:59Z</time>
      </trkpt>
      <trkpt lat="42.8651" lon="1.18495">
        <ele>618.4</ele>
        <time>2024-02-04T13:26:00Z</time>
      </trkpt>
      <trkpt lat="42.86514" lon="1.1849">
        <ele>617.8</ele>
        <time>2024-02-04T13:26:01Z</time>
      </trkpt>
      <trkpt lat="42.86518" lon="1.18485">
        <ele>617</ele>
        <time>2024-02-04T13:26:02Z</time>
      </trkpt>
      <trkpt lat="42.86522" lon="1.1848">
        <ele>616.2</ele>
        <time>2024-02-04T13:26:03Z</time>
      </trkpt>
      <trkpt lat="42.86524" lon="1.18473">
        <ele>615.6</ele>
        <time>2024-02-04T13:26:04Z</time>
      </trkpt>
      <trkpt lat="42.86525" lon="1.18466">
        <ele>614.8</ele>
        <time>2024-02-04T13:26:05Z</time>
      </trkpt>
      <trkpt lat="42.86527" lon="1.18457">
        <ele>613.8</ele>
        <time>2024-02-04T13:26:06Z</time>
      </trkpt>
      <trkpt lat="42.86528" lon="1.18448">
        <ele>613</ele>
        <time>2024-02-04T13:26:07Z</time>
      </trkpt>
      <trkpt lat="42.86528" lon="1.1844">
        <ele>612</ele>
        <time>2024-02-04T13:26:08Z</time>
      </trkpt>
      <trkpt lat="42.86527" lon="1.18431">
        <ele>611.2</ele>
        <time>2024-02-04T13:26:09Z</time>
      </trkpt>
      <trkpt lat="42.86527" lon="1.18426">
        <ele>610.2</ele>
        <time>2024-02-04T13:26:10Z</time>
      </trkpt>
      <trkpt lat="42.86528" lon="1.18422">
        <ele>609.2</ele>
        <time>2024-02-04T13:26:11Z</time>
      </trkpt>
      <trkpt lat="42.8653" lon="1.18418">
        <ele>608.4</ele>
        <time>2024-02-04T13:26:12Z</time>
      </trkpt>
      <trkpt lat="42.8653" lon="1.18413">
        <ele>607.8</ele>
        <time>2024-02-04T13:26:13Z</time>
      </trkpt>
      <trkpt lat="42.86529" lon="1.18408">
        <ele>607</ele>
        <time>2024-02-04T13:26:14Z</time>
      </trkpt>
      <trkpt lat="42.86526" lon="1.18399">
        <ele>606.4</ele>
        <time>2024-02-04T13:26:15Z</time>
      </trkpt>
      <trkpt lat="42.86525" lon="1.18394">
        <ele>605.8</ele>
        <time>2024-02-04T13:26:16Z</time>
      </trkpt>
      <trkpt lat="42.86523" lon="1.18389">
        <ele>605.2</ele>
        <time>2024-02-04T13:26:17Z</time>
      </trkpt>
      <trkpt lat="42.86522" lon="1.18384">
        <ele>604.8</ele>
        <time>2024-02-04T13:26:18Z</time>
      </trkpt>
      <trkpt lat="42.86522" lon="1.1838">
        <ele>604.2</ele>
        <time>2024-02-04T13:26:19Z</time>
      </trkpt>
      <trkpt lat="42.86522" lon="1.18377">
        <ele>603.8</ele>
        <time>2024-02-04T13:26:20Z</time>
      </trkpt>
      <trkpt lat="42.86523" lon="1.18375">
        <ele>603.4</ele>
        <time>2024-02-04T13:26:21Z</time>
      </trkpt>
      <trkpt lat="42.86523" lon="1.18374">
        <ele>603</ele>
        <time>2024-02-04T13:26:22Z</time>
      </trkpt>
      <trkpt lat="42.86522" lon="1.18366">
        <ele>603</ele>
        <time>2024-02-04T13:26:45Z</time>
      </trkpt>
      <trkpt lat="42.86523" lon="1.1836">
        <ele>603</ele>
        <time>2024-02-04T13:26:47Z</time>
      </trkpt>
      <trkpt lat="42.86525" lon="1.18353">
        <ele>602.4</ele>
        <time>2024-02-04T13:26:49Z</time>
      </trkpt>
      <trkpt lat="42.86526" lon="1.18353">
        <ele>602</ele>
        <time>2024-02-04T13:26:50Z</time>
      </trkpt>
      <trkpt lat="42.86527" lon="1.18355">
        <ele>601.6</ele>
        <time>2024-02-04T13:26:51Z</time>
      </trkpt>
      <trkpt lat="42.86528" lon="1.18359">
        <ele>600.8</ele>
        <time>2024-02-04T13:26:52Z</time>
      </trkpt>
      <trkpt lat="42.86529" lon="1.18364">
        <ele>600.2</ele>
        <time>2024-02-04T13:26:53Z</time>
      </trkpt>
      <trkpt lat="42.86531" lon="1.18368">
        <ele>599.6</ele>
        <time>2024-02-04T13:26:54Z</time>
      </trkpt>
      <trkpt lat="42.86533" lon="1.18371">
        <ele>598.8</ele>
        <time>2024-02-04T13:26:55Z</time>
      </trkpt>
      <trkpt lat="42.86534" lon="1.18375">
        <ele>598.2</ele>
        <time>2024-02-04T13:26:56Z</time>
      </trkpt>
      <trkpt lat="42.86534" lon="1.1838">
        <ele>597.6</ele>
        <time>2024-02-04T13:26:57Z</time>
      </trkpt>
      <trkpt lat="42.86535" lon="1.18386">
        <ele>596.8</ele>
        <time>2024-02-04T13:26:58Z</time>
      </trkpt>
      <trkpt lat="42.86535" lon="1.18393">
        <ele>596.2</ele>
        <time>2024-02-04T13:26:59Z</time>
      </trkpt>
      <trkpt lat="42.86536" lon="1.18401">
        <ele>595.6</ele>
        <time>2024-02-04T13:27:00Z</time>
      </trkpt>
      <trkpt lat="42.86536" lon="1.18408">
        <ele>594.8</ele>
        <time>2024-02-04T13:27:01Z</time>
      </trkpt>
      <trkpt lat="42.86537" lon="1.18416">
        <ele>594.2</ele>
        <time>2024-02-04T13:27:02Z</time>
      </trkpt>
      <trkpt lat="42.86538" lon="1.18425">
        <ele>593.6</ele>
        <time>2024-02-04T13:27:03Z</time>
      </trkpt>
      <trkpt lat="42.86538" lon="1.18434">
        <ele>592.8</ele>
        <time>2024-02-04T13:27:04Z</time>
      </trkpt>
      <trkpt lat="42.86539" lon="1.18444">
        <ele>592.2</ele>
        <time>2024-02-04T13:27:05Z</time>
      </trkpt>
      <trkpt lat="42.8654" lon="1.18455">
        <ele>591.4</ele>
        <time>2024-02-04T13:27:06Z</time>
      </trkpt>
      <trkpt lat="42.86542" lon="1.18466">
        <ele>590.6</ele>
        <time>2024-02-04T13:27:07Z</time>
      </trkpt>
      <trkpt lat="42.86543" lon="1.18477">
        <ele>589.8</ele>
        <time>2024-02-04T13:27:08Z</time>
      </trkpt>
      <trkpt lat="42.86545" lon="1.18487">
        <ele>588.8</ele>
        <time>2024-02-04T13:27:09Z</time>
      </trkpt>
      <trkpt lat="42.86547" lon="1.18498">
        <ele>587.8</ele>
        <time>2024-02-04T13:27:10Z</time>
      </trkpt>
      <trkpt lat="42.86548" lon="1.1851">
        <ele>586.8</ele>
        <time>2024-02-04T13:27:11Z</time>
      </trkpt>
      <trkpt lat="42.86549" lon="1.18521">
        <ele>585.8</ele>
        <time>2024-02-04T13:27:12Z</time>
      </trkpt>
      <trkpt lat="42.86551" lon="1.18532">
        <ele>583.8</ele>
        <time>2024-02-04T13:27:13Z</time>
      </trkpt>
      <trkpt lat="42.86552" lon="1.18543">
        <ele>582.8</ele>
        <time>2024-02-04T13:27:14Z</time>
      </trkpt>
      <trkpt lat="42.86553" lon="1.18553">
        <ele>581.8</ele>
        <time>2024-02-04T13:27:15Z</time>
      </trkpt>
      <trkpt lat="42.86553" lon="1.18564">
        <ele>580.6</ele>
        <time>2024-02-04T13:27:16Z</time>
      </trkpt>
      <trkpt lat="42.86552" lon="1.18574">
        <ele>579.6</ele>
        <time>2024-02-04T13:27:17Z</time>
      </trkpt>
      <trkpt lat="42.86549" lon="1.18584">
        <ele>578.8</ele>
        <time>2024-02-04T13:27:18Z</time>
      </trkpt>
      <trkpt lat="42.86547" lon="1.18594">
        <ele>577.8</ele>
        <time>2024-02-04T13:27:19Z</time>
      </trkpt>
      <trkpt lat="42.86544" lon="1.18603">
        <ele>577</ele>
        <time>2024-02-04T13:27:20Z</time>
      </trkpt>
      <trkpt lat="42.8654" lon="1.18613">
        <ele>576.2</ele>
        <time>2024-02-04T13:27:21Z</time>
      </trkpt>
      <trkpt lat="42.86536" lon="1.18623">
        <ele>575.4</ele>
        <time>2024-02-04T13:27:22Z</time>
      </trkpt>
      <trkpt lat="42.86533" lon="1.18633">
        <ele>574.8</ele>
        <time>2024-02-04T13:27:23Z</time>
      </trkpt>
      <trkpt lat="42.86529" lon="1.18642">
        <ele>574.2</ele>
        <time>2024-02-04T13:27:24Z</time>
      </trkpt>
      <trkpt lat="42.86527" lon="1.18651">
        <ele>573.6</ele>
        <time>2024-02-04T13:27:25Z</time>
      </trkpt>
      <trkpt lat="42.86525" lon="1.18658">
        <ele>573</ele>
        <time>2024-02-04T13:27:26Z</time>
      </trkpt>
      <trkpt lat="42.86524" lon="1.18663">
        <ele>572.4</ele>
        <time>2024-02-04T13:27:27Z</time>
      </trkpt>
      <trkpt lat="42.86523" lon="1.18666">
        <ele>571.8</ele>
        <time>2024-02-04T13:27:28Z</time>
      </trkpt>
      <trkpt lat="42.86522" lon="1.1867">
        <ele>571.2</ele>
        <time>2024-02-04T13:27:29Z</time>
      </trkpt>
      <trkpt lat="42.8652" lon="1.18674">
        <ele>570.6</ele>
        <time>2024-02-04T13:27:30Z</time>
      </trkpt>
      <trkpt lat="42.86518" lon="1.1869">
        <ele>570.2</ele>
        <time>2024-02-04T13:27:33Z</time>
      </trkpt>
      <trkpt lat="42.86517" lon="1.18696">
        <ele>569.8</ele>
        <time>2024-02-04T13:27:34Z</time>
      </trkpt>
      <trkpt lat="42.86515" lon="1.18703">
        <ele>569.2</ele>
        <time>2024-02-04T13:27:35Z</time>
      </trkpt>
      <trkpt lat="42.86514" lon="1.18711">
        <ele>568.8</ele>
        <time>2024-02-04T13:27:36Z</time>
      </trkpt>
      <trkpt lat="42.86516" lon="1.18719">
        <ele>567.8</ele>
        <time>2024-02-04T13:27:37Z</time>
      </trkpt>
      <trkpt lat="42.86519" lon="1.18728">
        <ele>567.4</ele>
        <time>2024-02-04T13:27:38Z</time>
      </trkpt>
      <trkpt lat="42.86524" lon="1.18735">
        <ele>566.8</ele>
        <time>2024-02-04T13:27:39Z</time>
      </trkpt>
      <trkpt lat="42.86529" lon="1.18741">
        <ele>566.4</ele>
        <time>2024-02-04T13:27:40Z</time>
      </trkpt>
      <trkpt lat="42.86535" lon="1.18747">
        <ele>565.6</ele>
        <time>2024-02-04T13:27:41Z</time>
      </trkpt>
      <trkpt lat="42.8654" lon="1.18755">
        <ele>565</ele>
        <time>2024-02-04T13:27:42Z</time>
      </trkpt>
      <trkpt lat="42.86546" lon="1.18762">
        <ele>564.2</ele>
        <time>2024-02-04T13:27:43Z</time>
      </trkpt>
      <trkpt lat="42.86551" lon="1.18771">
        <ele>563.4</ele>
        <time>2024-02-04T13:27:44Z</time>
      </trkpt>
      <trkpt lat="42.86556" lon="1.1878">
        <ele>562.6</ele>
        <time>2024-02-04T13:27:45Z</time>
      </trkpt>
      <trkpt lat="42.86562" lon="1.18789">
        <ele>561.8</ele>
        <time>2024-02-04T13:27:46Z</time>
      </trkpt>
      <trkpt lat="42.86568" lon="1.18798">
        <ele>560.8</ele>
        <time>2024-02-04T13:27:47Z</time>
      </trkpt>
      <trkpt lat="42.86573" lon="1.18808">
        <ele>560</ele>
        <time>2024-02-04T13:27:48Z</time>
      </trkpt>
      <trkpt lat="42.86577" lon="1.18817">
        <ele>559.2</ele>
        <time>2024-02-04T13:27:49Z</time>
      </trkpt>
      <trkpt lat="42.86582" lon="1.18825">
        <ele>558.6</ele>
        <time>2024-02-04T13:27:50Z</time>
      </trkpt>
      <trkpt lat="42.86586" lon="1.18831">
        <ele>558</ele>
        <time>2024-02-04T13:27:51Z</time>
      </trkpt>
      <trkpt lat="42.8659" lon="1.18834">
        <ele>557.4</ele>
        <time>2024-02-04T13:27:52Z</time>
      </trkpt>
      <trkpt lat="42.86594" lon="1.18834">
        <ele>556.8</ele>
        <time>2024-02-04T13:27:53Z</time>
      </trkpt>
      <trkpt lat="42.86596" lon="1.18832">
        <ele>556.2</ele>
        <time>2024-02-04T13:27:54Z</time>
      </trkpt>
      <trkpt lat="42.866" lon="1.18831">
        <ele>556.6</ele>
        <time>2024-02-04T13:27:55Z</time>
      </trkpt>
      <trkpt lat="42.86604" lon="1.1883">
        <ele>557</ele>
        <time>2024-02-04T13:27:56Z</time>
      </trkpt>
      <trkpt lat="42.86608" lon="1.18829">
        <ele>557.4</ele>
        <time>2024-02-04T13:27:57Z</time>
      </trkpt>
      <trkpt lat="42.86613" lon="1.18827">
        <ele>557.8</ele>
        <time>2024-02-04T13:27:58Z</time>
      </trkpt>
      <trkpt lat="42.86618" lon="1.18824">
        <ele>558.2</ele>
        <time>2024-02-04T13:27:59Z</time>
      </trkpt>
      <trkpt lat="42.86622" lon="1.18824">
        <ele>558.6</ele>
        <time>2024-02-04T13:28:00Z</time>
      </trkpt>
      <trkpt lat="42.86625" lon="1.18825">
        <ele>559</ele>
        <time>2024-02-04T13:28:01Z</time>
      </trkpt>
      <trkpt lat="42.86628" lon="1.18829">
        <ele>559.8</ele>
        <time>2024-02-04T13:28:02Z</time>
      </trkpt>
      <trkpt lat="42.86629" lon="1.18834">
        <ele>560.2</ele>
        <time>2024-02-04T13:28:03Z</time>
      </trkpt>
      <trkpt lat="42.8663" lon="1.18848">
        <ele>560.2</ele>
        <time>2024-02-04T13:28:06Z</time>
      </trkpt>
      <trkpt lat="42.86631" lon="1.18857">
        <ele>560.2</ele>
        <time>2024-02-04T13:28:08Z</time>
      </trkpt>
      <trkpt lat="42.86632" lon="1.18866">
        <ele>560.2</ele>
        <time>2024-02-04T13:28:10Z</time>
      </trkpt>
      <trkpt lat="42.86633" lon="1.18885">
        <ele>560.2</ele>
        <time>2024-02-04T13:28:15Z</time>
      </trkpt>
      <trkpt lat="42.86632" lon="1.18919">
        <ele>560.2</ele>
        <time>2024-02-04T13:28:21Z</time>
      </trkpt>
      <trkpt lat="42.86632" lon="1.18941">
        <ele>560.2</ele>
        <time>2024-02-04T13:28:24Z</time>
      </trkpt>
      <trkpt lat="42.86633" lon="1.18959">
        <ele>560.2</ele>
        <time>2024-02-04T13:28:27Z</time>
      </trkpt>
      <trkpt lat="42.86634" lon="1.18995">
        <ele>560.2</ele>
        <time>2024-02-04T13:28:32Z</time>
      </trkpt>
      <trkpt lat="42.86643" lon="1.19038">
        <ele>560.2</ele>
        <time>2024-02-04T13:28:39Z</time>
      </trkpt>
      <trkpt lat="42.86645" lon="1.19045">
        <ele>559.8</ele>
        <time>2024-02-04T13:28:40Z</time>
      </trkpt>
      <trkpt lat="42.86646" lon="1.19052">
        <ele>559.4</ele>
        <time>2024-02-04T13:28:41Z</time>
      </trkpt>
      <trkpt lat="42.86647" lon="1.19059">
        <ele>559</ele>
        <time>2024-02-04T13:28:42Z</time>
      </trkpt>
      <trkpt lat="42.86648" lon="1.19065">
        <ele>558.6</ele>
        <time>2024-02-04T13:28:43Z</time>
      </trkpt>
      <trkpt lat="42.8665" lon="1.19072">
        <ele>558.2</ele>
        <time>2024-02-04T13:28:44Z</time>
      </trkpt>
      <trkpt lat="42.86651" lon="1.19079">
        <ele>558.2</ele>
        <time>2024-02-04T13:28:45Z</time>
      </trkpt>
      <trkpt lat="42.86653" lon="1.19085">
        <ele>558.2</ele>
        <time>2024-02-04T13:28:46Z</time>
      </trkpt>
      <trkpt lat="42.86657" lon="1.19105">
        <ele>558.2</ele>
        <time>2024-02-04T13:28:49Z</time>
      </trkpt>
      <trkpt lat="42.86662" lon="1.19124">
        <ele>558.2</ele>
        <time>2024-02-04T13:28:52Z</time>
      </trkpt>
      <trkpt lat="42.86669" lon="1.19148">
        <ele>558.2</ele>
        <time>2024-02-04T13:28:56Z</time>
      </trkpt>
      <trkpt lat="42.86671" lon="1.19153">
        <ele>558.2</ele>
        <time>2024-02-04T13:28:57Z</time>
      </trkpt>
      <trkpt lat="42.86682" lon="1.19172">
        <ele>558.2</ele>
        <time>2024-02-04T13:29:01Z</time>
      </trkpt>
      <trkpt lat="42.86686" lon="1.19176">
        <ele>558.2</ele>
        <time>2024-02-04T13:29:02Z</time>
      </trkpt>
      <trkpt lat="42.86708" lon="1.192">
        <ele>558.2</ele>
        <time>2024-02-04T13:29:08Z</time>
      </trkpt>
      <trkpt lat="42.86712" lon="1.19204">
        <ele>558.2</ele>
        <time>2024-02-04T13:29:09Z</time>
      </trkpt>
      <trkpt lat="42.86723" lon="1.19214">
        <ele>557.8</ele>
        <time>2024-02-04T13:29:12Z</time>
      </trkpt>
      <trkpt lat="42.86726" lon="1.19218">
        <ele>557.4</ele>
        <time>2024-02-04T13:29:13Z</time>
      </trkpt>
      <trkpt lat="42.86729" lon="1.19221">
        <ele>557</ele>
        <time>2024-02-04T13:29:14Z</time>
      </trkpt>
      <trkpt lat="42.86732" lon="1.19224">
        <ele>556.6</ele>
        <time>2024-02-04T13:29:15Z</time>
      </trkpt>
      <trkpt lat="42.86734" lon="1.19228">
        <ele>556.2</ele>
        <time>2024-02-04T13:29:16Z</time>
      </trkpt>
      <trkpt lat="42.86742" lon="1.19238">
        <ele>556.2</ele>
        <time>2024-02-04T13:29:20Z</time>
      </trkpt>
      <trkpt lat="42.86744" lon="1.19244">
        <ele>556.2</ele>
        <time>2024-02-04T13:29:22Z</time>
      </trkpt>
      <trkpt lat="42.86742" lon="1.19249">
        <ele>556.2</ele>
        <time>2024-02-04T13:29:24Z</time>
      </trkpt>
      <trkpt lat="42.8674" lon="1.19254">
        <ele>556.2</ele>
        <time>2024-02-04T13:29:28Z</time>
      </trkpt>
      <trkpt lat="42.86737" lon="1.19258">
        <ele>554.2</ele>
        <time>2024-02-04T13:29:39Z</time>
      </trkpt>
      <trkpt lat="42.86732" lon="1.19273">
        <ele>554.2</ele>
        <time>2024-02-04T13:29:44Z</time>
      </trkpt>
      <trkpt lat="42.86724" lon="1.19292">
        <ele>554.2</ele>
        <time>2024-02-04T13:29:49Z</time>
      </trkpt>
      <trkpt lat="42.86721" lon="1.19297">
        <ele>553.8</ele>
        <time>2024-02-04T13:29:50Z</time>
      </trkpt>
      <trkpt lat="42.86718" lon="1.19303">
        <ele>553.2</ele>
        <time>2024-02-04T13:29:51Z</time>
      </trkpt>
      <trkpt lat="42.86714" lon="1.19309">
        <ele>552.8</ele>
        <time>2024-02-04T13:29:52Z</time>
      </trkpt>
      <trkpt lat="42.8671" lon="1.19315">
        <ele>552.4</ele>
        <time>2024-02-04T13:29:53Z</time>
      </trkpt>
      <trkpt lat="42.86705" lon="1.19322">
        <ele>552</ele>
        <time>2024-02-04T13:29:54Z</time>
      </trkpt>
      <trkpt lat="42.86697" lon="1.19338">
        <ele>551.4</ele>
        <time>2024-02-04T13:29:56Z</time>
      </trkpt>
      <trkpt lat="42.86691" lon="1.19347">
        <ele>551</ele>
        <time>2024-02-04T13:29:57Z</time>
      </trkpt>
      <trkpt lat="42.86686" lon="1.19357">
        <ele>550.6</ele>
        <time>2024-02-04T13:29:58Z</time>
      </trkpt>
      <trkpt lat="42.8668" lon="1.19367">
        <ele>549.8</ele>
        <time>2024-02-04T13:29:59Z</time>
      </trkpt>
      <trkpt lat="42.86674" lon="1.19377">
        <ele>549.2</ele>
        <time>2024-02-04T13:30:00Z</time>
      </trkpt>
      <trkpt lat="42.86668" lon="1.19388">
        <ele>548.6</ele>
        <time>2024-02-04T13:30:01Z</time>
      </trkpt>
      <trkpt lat="42.86663" lon="1.194">
        <ele>547.8</ele>
        <time>2024-02-04T13:30:02Z</time>
      </trkpt>
      <trkpt lat="42.86657" lon="1.19411">
        <ele>547.2</ele>
        <time>2024-02-04T13:30:03Z</time>
      </trkpt>
      <trkpt lat="42.8665" lon="1.19422">
        <ele>546.4</ele>
        <time>2024-02-04T13:30:04Z</time>
      </trkpt>
      <trkpt lat="42.86645" lon="1.19434">
        <ele>545.6</ele>
        <time>2024-02-04T13:30:05Z</time>
      </trkpt>
      <trkpt lat="42.86639" lon="1.19446">
        <ele>544.2</ele>
        <time>2024-02-04T13:30:06Z</time>
      </trkpt>
      <trkpt lat="42.86633" lon="1.19457">
        <ele>543.4</ele>
        <time>2024-02-04T13:30:07Z</time>
      </trkpt>
      <trkpt lat="42.86627" lon="1.19469">
        <ele>542.8</ele>
        <time>2024-02-04T13:30:08Z</time>
      </trkpt>
      <trkpt lat="42.86622" lon="1.19481">
        <ele>542.2</ele>
        <time>2024-02-04T13:30:09Z</time>
      </trkpt>
      <trkpt lat="42.86616" lon="1.19492">
        <ele>541.6</ele>
        <time>2024-02-04T13:30:10Z</time>
      </trkpt>
      <trkpt lat="42.86612" lon="1.19503">
        <ele>540.8</ele>
        <time>2024-02-04T13:30:11Z</time>
      </trkpt>
      <trkpt lat="42.86607" lon="1.19513">
        <ele>540.2</ele>
        <time>2024-02-04T13:30:12Z</time>
      </trkpt>
      <trkpt lat="42.86602" lon="1.19523">
        <ele>539.8</ele>
        <time>2024-02-04T13:30:13Z</time>
      </trkpt>
      <trkpt lat="42.86597" lon="1.19535">
        <ele>539.2</ele>
        <time>2024-02-04T13:30:14Z</time>
      </trkpt>
      <trkpt lat="42.86593" lon="1.19545">
        <ele>538.8</ele>
        <time>2024-02-04T13:30:15Z</time>
      </trkpt>
      <trkpt lat="42.86589" lon="1.19555">
        <ele>538.4</ele>
        <time>2024-02-04T13:30:16Z</time>
      </trkpt>
      <trkpt lat="42.86585" lon="1.19566">
        <ele>537.8</ele>
        <time>2024-02-04T13:30:17Z</time>
      </trkpt>
      <trkpt lat="42.86579" lon="1.19586">
        <ele>537.8</ele>
        <time>2024-02-04T13:30:19Z</time>
      </trkpt>
      <trkpt lat="42.86576" lon="1.19596">
        <ele>537.4</ele>
        <time>2024-02-04T13:30:20Z</time>
      </trkpt>
      <trkpt lat="42.86574" lon="1.19605">
        <ele>537</ele>
        <time>2024-02-04T13:30:21Z</time>
      </trkpt>
      <trkpt lat="42.86573" lon="1.19613">
        <ele>536.4</ele>
        <time>2024-02-04T13:30:22Z</time>
      </trkpt>
      <trkpt lat="42.86572" lon="1.19622">
        <ele>536</ele>
        <time>2024-02-04T13:30:23Z</time>
      </trkpt>
      <trkpt lat="42.86571" lon="1.1963">
        <ele>535.6</ele>
        <time>2024-02-04T13:30:24Z</time>
      </trkpt>
      <trkpt lat="42.8657" lon="1.19652">
        <ele>535.6</ele>
        <time>2024-02-04T13:30:28Z</time>
      </trkpt>
      <trkpt lat="42.86569" lon="1.19659">
        <ele>535.6</ele>
        <time>2024-02-04T13:30:32Z</time>
      </trkpt>
      <trkpt lat="42.86563" lon="1.19653">
        <ele>535.6</ele>
        <time>2024-02-04T13:30:36Z</time>
      </trkpt>
      <trkpt lat="42.86562" lon="1.1965">
        <ele>535.6</ele>
        <time>2024-02-04T13:30:37Z</time>
      </trkpt>
      <trkpt lat="42.8656" lon="1.19648">
        <ele>535.6</ele>
        <time>2024-02-04T13:30:38Z</time>
      </trkpt>
      <trkpt lat="42.86558" lon="1.19647">
        <ele>535.2</ele>
        <time>2024-02-04T13:30:39Z</time>
      </trkpt>
      <trkpt lat="42.86556" lon="1.19647">
        <ele>534.8</ele>
        <time>2024-02-04T13:30:40Z</time>
      </trkpt>
      <trkpt lat="42.86555" lon="1.19648">
        <ele>534.4</ele>
        <time>2024-02-04T13:30:41Z</time>
      </trkpt>
      <trkpt lat="42.86554" lon="1.19649">
        <ele>534</ele>
        <time>2024-02-04T13:30:42Z</time>
      </trkpt>
      <trkpt lat="42.86554" lon="1.19649">
        <ele>533.4</ele>
        <time>2024-02-04T13:30:43Z</time>
      </trkpt>
      <trkpt lat="42.86553" lon="1.19652">
        <ele>533.4</ele>
        <time>2024-02-04T13:32:06Z</time>
      </trkpt>
      <trkpt lat="42.86558" lon="1.19653">
        <ele>533.4</ele>
        <time>2024-02-04T13:32:10Z</time>
      </trkpt>
      <trkpt lat="42.8656" lon="1.19653">
        <ele>533.4</ele>
        <time>2024-02-04T13:32:13Z</time>
      </trkpt>
      <trkpt lat="42.86563" lon="1.19655">
        <ele>533.4</ele>
        <time>2024-02-04T13:33:53Z</time>
      </trkpt>
      <trkpt lat="42.86565" lon="1.19656">
        <ele>533.4</ele>
        <time>2024-02-04T13:33:54Z</time>
      </trkpt>
      <trkpt lat="42.86568" lon="1.19659">
        <ele>533.4</ele>
        <time>2024-02-04T13:33:56Z</time>
      </trkpt>
      <trkpt lat="42.8657" lon="1.19662">
        <ele>533.4</ele>
        <time>2024-02-04T13:33:58Z</time>
      </trkpt>
      <trkpt lat="42.86569" lon="1.19676">
        <ele>533.4</ele>
        <time>2024-02-04T13:34:01Z</time>
      </trkpt>
      <trkpt lat="42.86571" lon="1.19703">
        <ele>533.4</ele>
        <time>2024-02-04T13:34:07Z</time>
      </trkpt>
      <trkpt lat="42.86571" lon="1.19737">
        <ele>533.4</ele>
        <time>2024-02-04T13:34:15Z</time>
      </trkpt>
      <trkpt lat="42.86569" lon="1.19757">
        <ele>533.4</ele>
        <time>2024-02-04T13:34:20Z</time>
      </trkpt>
      <trkpt lat="42.8658" lon="1.1976">
        <ele>533.4</ele>
        <time>2024-02-04T13:34:23Z</time>
      </trkpt>
      <trkpt lat="42.8659" lon="1.1976">
        <ele>534</ele>
        <time>2024-02-04T13:34:26Z</time>
      </trkpt>
      <trkpt lat="42.86594" lon="1.1976">
        <ele>534.4</ele>
        <time>2024-02-04T13:34:27Z</time>
      </trkpt>
      <trkpt lat="42.86596" lon="1.19758">
        <ele>534.8</ele>
        <time>2024-02-04T13:34:28Z</time>
      </trkpt>
      <trkpt lat="42.86599" lon="1.19758">
        <ele>535.2</ele>
        <time>2024-02-04T13:34:29Z</time>
      </trkpt>
      <trkpt lat="42.86602" lon="1.19757">
        <ele>535.6</ele>
        <time>2024-02-04T13:34:30Z</time>
      </trkpt>
      <trkpt lat="42.86617" lon="1.19756">
        <ele>535.6</ele>
        <time>2024-02-04T13:34:35Z</time>
      </trkpt>
      <trkpt lat="42.8663" lon="1.1976">
        <ele>536.2</ele>
        <time>2024-02-04T13:34:39Z</time>
      </trkpt>
      <trkpt lat="42.86632" lon="1.19759">
        <ele>536.6</ele>
        <time>2024-02-04T13:34:40Z</time>
      </trkpt>
      <trkpt lat="42.86635" lon="1.19759">
        <ele>537</ele>
        <time>2024-02-04T13:34:41Z</time>
      </trkpt>
      <trkpt lat="42.86637" lon="1.19758">
        <ele>537.4</ele>
        <time>2024-02-04T13:34:42Z</time>
      </trkpt>
      <trkpt lat="42.86639" lon="1.19756">
        <ele>537.8</ele>
        <time>2024-02-04T13:34:43Z</time>
      </trkpt>
      <trkpt lat="42.86647" lon="1.19752">
        <ele>538.2</ele>
        <time>2024-02-04T13:34:46Z</time>
      </trkpt>
      <trkpt lat="42.86649" lon="1.19751">
        <ele>538.8</ele>
        <time>2024-02-04T13:34:47Z</time>
      </trkpt>
      <trkpt lat="42.86651" lon="1.19749">
        <ele>539.2</ele>
        <time>2024-02-04T13:34:48Z</time>
      </trkpt>
      <trkpt lat="42.86652" lon="1.19748">
        <ele>539.6</ele>
        <time>2024-02-04T13:34:49Z</time>
      </trkpt>
      <trkpt lat="42.86654" lon="1.19746">
        <ele>540.2</ele>
        <time>2024-02-04T13:34:50Z</time>
      </trkpt>
      <trkpt lat="42.86655" lon="1.19746">
        <ele>540.6</ele>
        <time>2024-02-04T13:34:51Z</time>
      </trkpt>
      <trkpt lat="42.86657" lon="1.19744">
        <ele>541</ele>
        <time>2024-02-04T13:34:52Z</time>
      </trkpt>
      <trkpt lat="42.86659" lon="1.19743">
        <ele>541.4</ele>
        <time>2024-02-04T13:34:53Z</time>
      </trkpt>
      <trkpt lat="42.86661" lon="1.19741">
        <ele>541.8</ele>
        <time>2024-02-04T13:34:54Z</time>
      </trkpt>
      <trkpt lat="42.86663" lon="1.19739">
        <ele>542.2</ele>
        <time>2024-02-04T13:34:55Z</time>
      </trkpt>
      <trkpt lat="42.86666" lon="1.19738">
        <ele>542.6</ele>
        <time>2024-02-04T13:34:56Z</time>
      </trkpt>
      <trkpt lat="42.86668" lon="1.19736">
        <ele>543</ele>
        <time>2024-02-04T13:34:57Z</time>
      </trkpt>
      <trkpt lat="42.8667" lon="1.19734">
        <ele>543.4</ele>
        <time>2024-02-04T13:34:58Z</time>
      </trkpt>
      <trkpt lat="42.86672" lon="1.19732">
        <ele>544</ele>
        <time>2024-02-04T13:34:59Z</time>
      </trkpt>
      <trkpt lat="42.86674" lon="1.1973">
        <ele>544.4</ele>
        <time>2024-02-04T13:35:00Z</time>
      </trkpt>
      <trkpt lat="42.86678" lon="1.19727">
        <ele>544.4</ele>
        <time>2024-02-04T13:35:02Z</time>
      </trkpt>
      <trkpt lat="42.8668" lon="1.19724">
        <ele>544.8</ele>
        <time>2024-02-04T13:35:03Z</time>
      </trkpt>
      <trkpt lat="42.86682" lon="1.19722">
        <ele>545.2</ele>
        <time>2024-02-04T13:35:04Z</time>
      </trkpt>
      <trkpt lat="42.86684" lon="1.1972">
        <ele>545.6</ele>
        <time>2024-02-04T13:35:05Z</time>
      </trkpt>
      <trkpt lat="42.86685" lon="1.19718">
        <ele>546</ele>
        <time>2024-02-04T13:35:06Z</time>
      </trkpt>
      <trkpt lat="42.86687" lon="1.19715">
        <ele>546.6</ele>
        <time>2024-02-04T13:35:07Z</time>
      </trkpt>
      <trkpt lat="42.86688" lon="1.19712">
        <ele>546.6</ele>
        <time>2024-02-04T13:35:08Z</time>
      </trkpt>
      <trkpt lat="42.86691" lon="1.19705">
        <ele>546.6</ele>
        <time>2024-02-04T13:35:11Z</time>
      </trkpt>
      <trkpt lat="42.86693" lon="1.19695">
        <ele>547</ele>
        <time>2024-02-04T13:35:14Z</time>
      </trkpt>
      <trkpt lat="42.86694" lon="1.19692">
        <ele>547.4</ele>
        <time>2024-02-04T13:35:15Z</time>
      </trkpt>
      <trkpt lat="42.86695" lon="1.19689">
        <ele>547.8</ele>
        <time>2024-02-04T13:35:16Z</time>
      </trkpt>
      <trkpt lat="42.86695" lon="1.19685">
        <ele>548.2</ele>
        <time>2024-02-04T13:35:17Z</time>
      </trkpt>
      <trkpt lat="42.86695" lon="1.19682">
        <ele>548.6</ele>
        <time>2024-02-04T13:35:18Z</time>
      </trkpt>
      <trkpt lat="42.86696" lon="1.19667">
        <ele>548.6</ele>
        <time>2024-02-04T13:35:22Z</time>
      </trkpt>
      <trkpt lat="42.86694" lon="1.19653">
        <ele>549.4</ele>
        <time>2024-02-04T13:35:26Z</time>
      </trkpt>
      <trkpt lat="42.86693" lon="1.1965">
        <ele>549.8</ele>
        <time>2024-02-04T13:35:27Z</time>
      </trkpt>
      <trkpt lat="42.86693" lon="1.19647">
        <ele>550.2</ele>
        <time>2024-02-04T13:35:28Z</time>
      </trkpt>
      <trkpt lat="42.86694" lon="1.19643">
        <ele>550.8</ele>
        <time>2024-02-04T13:35:29Z</time>
      </trkpt>
      <trkpt lat="42.86697" lon="1.19632">
        <ele>551.2</ele>
        <time>2024-02-04T13:35:32Z</time>
      </trkpt>
      <trkpt lat="42.86699" lon="1.19629">
        <ele>551.6</ele>
        <time>2024-02-04T13:35:33Z</time>
      </trkpt>
      <trkpt lat="42.86701" lon="1.19626">
        <ele>552</ele>
        <time>2024-02-04T13:35:34Z</time>
      </trkpt>
      <trkpt lat="42.86702" lon="1.19623">
        <ele>552.4</ele>
        <time>2024-02-04T13:35:35Z</time>
      </trkpt>
      <trkpt lat="42.86701" lon="1.19621">
        <ele>553</ele>
        <time>2024-02-04T13:35:36Z</time>
      </trkpt>
      <trkpt lat="42.86704" lon="1.19614">
        <ele>553.4</ele>
        <time>2024-02-04T13:35:38Z</time>
      </trkpt>
      <trkpt lat="42.86706" lon="1.19611">
        <ele>553.8</ele>
        <time>2024-02-04T13:35:39Z</time>
      </trkpt>
      <trkpt lat="42.86707" lon="1.19608">
        <ele>554.2</ele>
        <time>2024-02-04T13:35:40Z</time>
      </trkpt>
      <trkpt lat="42.86708" lon="1.19605">
        <ele>554.6</ele>
        <time>2024-02-04T13:35:41Z</time>
      </trkpt>
      <trkpt lat="42.86709" lon="1.19601">
        <ele>555</ele>
        <time>2024-02-04T13:35:42Z</time>
      </trkpt>
      <trkpt lat="42.8671" lon="1.19595">
        <ele>555.6</ele>
        <time>2024-02-04T13:35:44Z</time>
      </trkpt>
      <trkpt lat="42.8671" lon="1.19591">
        <ele>556</ele>
        <time>2024-02-04T13:35:45Z</time>
      </trkpt>
      <trkpt lat="42.86711" lon="1.19588">
        <ele>556.4</ele>
        <time>2024-02-04T13:35:46Z</time>
      </trkpt>
      <trkpt lat="42.86711" lon="1.19584">
        <ele>556.8</ele>
        <time>2024-02-04T13:35:47Z</time>
      </trkpt>
      <trkpt lat="42.86712" lon="1.19581">
        <ele>557.2</ele>
        <time>2024-02-04T13:35:48Z</time>
      </trkpt>
      <trkpt lat="42.86713" lon="1.19575">
        <ele>557.6</ele>
        <time>2024-02-04T13:35:50Z</time>
      </trkpt>
      <trkpt lat="42.86713" lon="1.19571">
        <ele>558.4</ele>
        <time>2024-02-04T13:35:51Z</time>
      </trkpt>
      <trkpt lat="42.86714" lon="1.19568">
        <ele>558.8</ele>
        <time>2024-02-04T13:35:52Z</time>
      </trkpt>
      <trkpt lat="42.86714" lon="1.19566">
        <ele>559.2</ele>
        <time>2024-02-04T13:35:53Z</time>
      </trkpt>
      <trkpt lat="42.86716" lon="1.19557">
        <ele>559.2</ele>
        <time>2024-02-04T13:35:57Z</time>
      </trkpt>
      <trkpt lat="42.86717" lon="1.19554">
        <ele>559.2</ele>
        <time>2024-02-04T13:35:58Z</time>
      </trkpt>
      <trkpt lat="42.86719" lon="1.19552">
        <ele>559.6</ele>
        <time>2024-02-04T13:35:59Z</time>
      </trkpt>
      <trkpt lat="42.8672" lon="1.19549">
        <ele>560</ele>
        <time>2024-02-04T13:36:00Z</time>
      </trkpt>
      <trkpt lat="42.86721" lon="1.19546">
        <ele>560.4</ele>
        <time>2024-02-04T13:36:01Z</time>
      </trkpt>
      <trkpt lat="42.86722" lon="1.19543">
        <ele>561</ele>
        <time>2024-02-04T13:36:02Z</time>
      </trkpt>
      <trkpt lat="42.86724" lon="1.1954">
        <ele>561.4</ele>
        <time>2024-02-04T13:36:03Z</time>
      </trkpt>
      <trkpt lat="42.86727" lon="1.19534">
        <ele>561.4</ele>
        <time>2024-02-04T13:36:05Z</time>
      </trkpt>
      <trkpt lat="42.86733" lon="1.19527">
        <ele>561.4</ele>
        <time>2024-02-04T13:36:08Z</time>
      </trkpt>
      <trkpt lat="42.86733" lon="1.19525">
        <ele>561.4</ele>
        <time>2024-02-04T13:36:09Z</time>
      </trkpt>
      <trkpt lat="42.86739" lon="1.19514">
        <ele>561.4</ele>
        <time>2024-02-04T13:36:14Z</time>
      </trkpt>
      <trkpt lat="42.86743" lon="1.195">
        <ele>561.4</ele>
        <time>2024-02-04T13:36:18Z</time>
      </trkpt>
      <trkpt lat="42.86747" lon="1.19492">
        <ele>561.8</ele>
        <time>2024-02-04T13:36:22Z</time>
      </trkpt>
      <trkpt lat="42.86747" lon="1.19488">
        <ele>562.2</ele>
        <time>2024-02-04T13:36:23Z</time>
      </trkpt>
      <trkpt lat="42.8675" lon="1.19483">
        <ele>562.6</ele>
        <time>2024-02-04T13:36:24Z</time>
      </trkpt>
      <trkpt lat="42.86751" lon="1.19479">
        <ele>563.2</ele>
        <time>2024-02-04T13:36:25Z</time>
      </trkpt>
      <trkpt lat="42.86753" lon="1.19475">
        <ele>563.6</ele>
        <time>2024-02-04T13:36:26Z</time>
      </trkpt>
      <trkpt lat="42.8676" lon="1.19458">
        <ele>563.6</ele>
        <time>2024-02-04T13:36:31Z</time>
      </trkpt>
      <trkpt lat="42.86769" lon="1.19438">
        <ele>563.6</ele>
        <time>2024-02-04T13:36:35Z</time>
      </trkpt>
      <trkpt lat="42.86772" lon="1.1943">
        <ele>564</ele>
        <time>2024-02-04T13:36:37Z</time>
      </trkpt>
      <trkpt lat="42.86774" lon="1.19425">
        <ele>564.4</ele>
        <time>2024-02-04T13:36:38Z</time>
      </trkpt>
      <trkpt lat="42.86776" lon="1.19419">
        <ele>564.8</ele>
        <time>2024-02-04T13:36:39Z</time>
      </trkpt>
      <trkpt lat="42.86778" lon="1.19414">
        <ele>565.8</ele>
        <time>2024-02-04T13:36:40Z</time>
      </trkpt>
      <trkpt lat="42.86789" lon="1.19386">
        <ele>565.8</ele>
        <time>2024-02-04T13:36:46Z</time>
      </trkpt>
      <trkpt lat="42.86799" lon="1.19358">
        <ele>565.8</ele>
        <time>2024-02-04T13:36:52Z</time>
      </trkpt>
      <trkpt lat="42.8681" lon="1.1934">
        <ele>565.8</ele>
        <time>2024-02-04T13:36:57Z</time>
      </trkpt>
      <trkpt lat="42.86829" lon="1.19328">
        <ele>565.8</ele>
        <time>2024-02-04T13:37:04Z</time>
      </trkpt>
      <trkpt lat="42.86834" lon="1.19325">
        <ele>566.2</ele>
        <time>2024-02-04T13:37:06Z</time>
      </trkpt>
      <trkpt lat="42.86837" lon="1.19323">
        <ele>566.6</ele>
        <time>2024-02-04T13:37:07Z</time>
      </trkpt>
      <trkpt lat="42.8684" lon="1.19322">
        <ele>567</ele>
        <time>2024-02-04T13:37:08Z</time>
      </trkpt>
      <trkpt lat="42.86843" lon="1.1932">
        <ele>567.4</ele>
        <time>2024-02-04T13:37:09Z</time>
      </trkpt>
      <trkpt lat="42.86845" lon="1.19318">
        <ele>567.8</ele>
        <time>2024-02-04T13:37:10Z</time>
      </trkpt>
      <trkpt lat="42.86853" lon="1.19308">
        <ele>567.8</ele>
        <time>2024-02-04T13:37:14Z</time>
      </trkpt>
      <trkpt lat="42.86854" lon="1.19305">
        <ele>568.2</ele>
        <time>2024-02-04T13:37:15Z</time>
      </trkpt>
      <trkpt lat="42.86856" lon="1.19302">
        <ele>568.6</ele>
        <time>2024-02-04T13:37:16Z</time>
      </trkpt>
      <trkpt lat="42.86857" lon="1.19299">
        <ele>569</ele>
        <time>2024-02-04T13:37:17Z</time>
      </trkpt>
      <trkpt lat="42.8686" lon="1.19296">
        <ele>569.4</ele>
        <time>2024-02-04T13:37:18Z</time>
      </trkpt>
      <trkpt lat="42.86862" lon="1.19293">
        <ele>569.8</ele>
        <time>2024-02-04T13:37:19Z</time>
      </trkpt>
      <trkpt lat="42.86864" lon="1.19291">
        <ele>570.2</ele>
        <time>2024-02-04T13:37:20Z</time>
      </trkpt>
      <trkpt lat="42.86866" lon="1.19288">
        <ele>570.8</ele>
        <time>2024-02-04T13:37:21Z</time>
      </trkpt>
      <trkpt lat="42.86867" lon="1.19285">
        <ele>571.2</ele>
        <time>2024-02-04T13:37:22Z</time>
      </trkpt>
      <trkpt lat="42.86869" lon="1.19283">
        <ele>571.6</ele>
        <time>2024-02-04T13:37:23Z</time>
      </trkpt>
      <trkpt lat="42.86871" lon="1.1928">
        <ele>572</ele>
        <time>2024-02-04T13:37:24Z</time>
      </trkpt>
      <trkpt lat="42.86874" lon="1.19279">
        <ele>572</ele>
        <time>2024-02-04T13:37:25Z</time>
      </trkpt>
      <trkpt lat="42.86876" lon="1.19277">
        <ele>572.4</ele>
        <time>2024-02-04T13:37:26Z</time>
      </trkpt>
      <trkpt lat="42.86878" lon="1.19275">
        <ele>573</ele>
        <time>2024-02-04T13:37:27Z</time>
      </trkpt>
      <trkpt lat="42.86881" lon="1.19272">
        <ele>573.4</ele>
        <time>2024-02-04T13:37:28Z</time>
      </trkpt>
      <trkpt lat="42.86883" lon="1.19269">
        <ele>573.8</ele>
        <time>2024-02-04T13:37:29Z</time>
      </trkpt>
      <trkpt lat="42.86885" lon="1.19267">
        <ele>574.8</ele>
        <time>2024-02-04T13:37:30Z</time>
      </trkpt>
      <trkpt lat="42.86887" lon="1.19264">
        <ele>575.2</ele>
        <time>2024-02-04T13:37:31Z</time>
      </trkpt>
      <trkpt lat="42.8689" lon="1.19262">
        <ele>575.8</ele>
        <time>2024-02-04T13:37:32Z</time>
      </trkpt>
      <trkpt lat="42.86892" lon="1.19259">
        <ele>576.2</ele>
        <time>2024-02-04T13:37:33Z</time>
      </trkpt>
      <trkpt lat="42.86893" lon="1.19257">
        <ele>576.6</ele>
        <time>2024-02-04T13:37:34Z</time>
      </trkpt>
      <trkpt lat="42.86893" lon="1.19255">
        <ele>576.6</ele>
        <time>2024-02-04T13:37:35Z</time>
      </trkpt>
      <trkpt lat="42.86894" lon="1.19253">
        <ele>576.6</ele>
        <time>2024-02-04T13:37:36Z</time>
      </trkpt>
      <trkpt lat="42.86894" lon="1.19251">
        <ele>577.2</ele>
        <time>2024-02-04T13:37:37Z</time>
      </trkpt>
      <trkpt lat="42.86895" lon="1.19248">
        <ele>577.6</ele>
        <time>2024-02-04T13:37:38Z</time>
      </trkpt>
      <trkpt lat="42.86895" lon="1.19246">
        <ele>578</ele>
        <time>2024-02-04T13:37:39Z</time>
      </trkpt>
      <trkpt lat="42.86896" lon="1.19243">
        <ele>578.4</ele>
        <time>2024-02-04T13:37:40Z</time>
      </trkpt>
      <trkpt lat="42.86896" lon="1.19241">
        <ele>579</ele>
        <time>2024-02-04T13:37:41Z</time>
      </trkpt>
      <trkpt lat="42.86901" lon="1.19234">
        <ele>579.4</ele>
        <time>2024-02-04T13:37:43Z</time>
      </trkpt>
      <trkpt lat="42.86904" lon="1.1923">
        <ele>579.8</ele>
        <time>2024-02-04T13:37:44Z</time>
      </trkpt>
      <trkpt lat="42.86906" lon="1.19227">
        <ele>580.2</ele>
        <time>2024-02-04T13:37:45Z</time>
      </trkpt>
      <trkpt lat="42.86909" lon="1.19224">
        <ele>580.6</ele>
        <time>2024-02-04T13:37:46Z</time>
      </trkpt>
      <trkpt lat="42.86912" lon="1.1922">
        <ele>581</ele>
        <time>2024-02-04T13:37:47Z</time>
      </trkpt>
      <trkpt lat="42.86924" lon="1.19207">
        <ele>581</ele>
        <time>2024-02-04T13:37:51Z</time>
      </trkpt>
      <trkpt lat="42.86938" lon="1.19194">
        <ele>581</ele>
        <time>2024-02-04T13:37:55Z</time>
      </trkpt>
      <trkpt lat="42.86951" lon="1.19184">
        <ele>581</ele>
        <time>2024-02-04T13:37:59Z</time>
      </trkpt>
      <trkpt lat="42.86953" lon="1.1918">
        <ele>581</ele>
        <time>2024-02-04T13:38:00Z</time>
      </trkpt>
      <trkpt lat="42.86953" lon="1.19173">
        <ele>581</ele>
        <time>2024-02-04T13:38:02Z</time>
      </trkpt>
      <trkpt lat="42.86954" lon="1.19165">
        <ele>581.4</ele>
        <time>2024-02-04T13:38:05Z</time>
      </trkpt>
      <trkpt lat="42.86955" lon="1.19162">
        <ele>581.8</ele>
        <time>2024-02-04T13:38:06Z</time>
      </trkpt>
      <trkpt lat="42.86956" lon="1.19159">
        <ele>582.2</ele>
        <time>2024-02-04T13:38:07Z</time>
      </trkpt>
      <trkpt lat="42.86958" lon="1.19157">
        <ele>582.8</ele>
        <time>2024-02-04T13:38:08Z</time>
      </trkpt>
      <trkpt lat="42.86959" lon="1.19155">
        <ele>583.2</ele>
        <time>2024-02-04T13:38:09Z</time>
      </trkpt>
      <trkpt lat="42.86962" lon="1.19151">
        <ele>583.6</ele>
        <time>2024-02-04T13:38:11Z</time>
      </trkpt>
      <trkpt lat="42.86963" lon="1.1915">
        <ele>584</ele>
        <time>2024-02-04T13:38:12Z</time>
      </trkpt>
      <trkpt lat="42.86965" lon="1.19148">
        <ele>584.6</ele>
        <time>2024-02-04T13:38:13Z</time>
      </trkpt>
      <trkpt lat="42.86966" lon="1.19146">
        <ele>585</ele>
        <time>2024-02-04T13:38:14Z</time>
      </trkpt>
      <trkpt lat="42.86968" lon="1.19145">
        <ele>585.4</ele>
        <time>2024-02-04T13:38:15Z</time>
      </trkpt>
      <trkpt lat="42.86969" lon="1.19144">
        <ele>586</ele>
        <time>2024-02-04T13:38:16Z</time>
      </trkpt>
      <trkpt lat="42.86971" lon="1.19143">
        <ele>586.4</ele>
        <time>2024-02-04T13:38:17Z</time>
      </trkpt>
      <trkpt lat="42.86973" lon="1.19142">
        <ele>587</ele>
        <time>2024-02-04T13:38:18Z</time>
      </trkpt>
      <trkpt lat="42.86975" lon="1.19141">
        <ele>588.2</ele>
        <time>2024-02-04T13:38:19Z</time>
      </trkpt>
      <trkpt lat="42.86977" lon="1.19139">
        <ele>588.8</ele>
        <time>2024-02-04T13:38:20Z</time>
      </trkpt>
      <trkpt lat="42.8698" lon="1.19138">
        <ele>589.4</ele>
        <time>2024-02-04T13:38:21Z</time>
      </trkpt>
      <trkpt lat="42.86981" lon="1.19135">
        <ele>590</ele>
        <time>2024-02-04T13:38:22Z</time>
      </trkpt>
      <trkpt lat="42.86983" lon="1.19132">
        <ele>590</ele>
        <time>2024-02-04T13:38:23Z</time>
      </trkpt>
      <trkpt lat="42.86991" lon="1.1912">
        <ele>590</ele>
        <time>2024-02-04T13:38:28Z</time>
      </trkpt>
      <trkpt lat="42.87" lon="1.19109">
        <ele>590</ele>
        <time>2024-02-04T13:38:34Z</time>
      </trkpt>
      <trkpt lat="42.87007" lon="1.19102">
        <ele>590.4</ele>
        <time>2024-02-04T13:38:39Z</time>
      </trkpt>
      <trkpt lat="42.87008" lon="1.191">
        <ele>590.8</ele>
        <time>2024-02-04T13:38:40Z</time>
      </trkpt>
      <trkpt lat="42.8701" lon="1.19099">
        <ele>591.2</ele>
        <time>2024-02-04T13:38:41Z</time>
      </trkpt>
      <trkpt lat="42.87011" lon="1.19097">
        <ele>591.6</ele>
        <time>2024-02-04T13:38:42Z</time>
      </trkpt>
      <trkpt lat="42.87012" lon="1.19095">
        <ele>592</ele>
        <time>2024-02-04T13:38:43Z</time>
      </trkpt>
      <trkpt lat="42.87018" lon="1.19088">
        <ele>592.6</ele>
        <time>2024-02-04T13:38:47Z</time>
      </trkpt>
      <trkpt lat="42.87019" lon="1.19086">
        <ele>593</ele>
        <time>2024-02-04T13:38:48Z</time>
      </trkpt>
      <trkpt lat="42.8702" lon="1.19084">
        <ele>593.4</ele>
        <time>2024-02-04T13:38:49Z</time>
      </trkpt>
      <trkpt lat="42.87021" lon="1.19082">
        <ele>594</ele>
        <time>2024-02-04T13:38:50Z</time>
      </trkpt>
      <trkpt lat="42.87022" lon="1.19081">
        <ele>594.4</ele>
        <time>2024-02-04T13:38:51Z</time>
      </trkpt>
      <trkpt lat="42.87026" lon="1.19077">
        <ele>594.8</ele>
        <time>2024-02-04T13:38:53Z</time>
      </trkpt>
      <trkpt lat="42.87027" lon="1.19076">
        <ele>595.2</ele>
        <time>2024-02-04T13:38:54Z</time>
      </trkpt>
      <trkpt lat="42.87028" lon="1.19075">
        <ele>595.6</ele>
        <time>2024-02-04T13:38:55Z</time>
      </trkpt>
      <trkpt lat="42.87029" lon="1.19074">
        <ele>596.2</ele>
        <time>2024-02-04T13:38:56Z</time>
      </trkpt>
      <trkpt lat="42.8703" lon="1.19073">
        <ele>596.6</ele>
        <time>2024-02-04T13:38:57Z</time>
      </trkpt>
      <trkpt lat="42.87034" lon="1.19071">
        <ele>597</ele>
        <time>2024-02-04T13:38:59Z</time>
      </trkpt>
      <trkpt lat="42.87036" lon="1.1907">
        <ele>597.4</ele>
        <time>2024-02-04T13:39:00Z</time>
      </trkpt>
      <trkpt lat="42.87038" lon="1.19068">
        <ele>598</ele>
        <time>2024-02-04T13:39:01Z</time>
      </trkpt>
      <trkpt lat="42.8704" lon="1.19066">
        <ele>598.4</ele>
        <time>2024-02-04T13:39:02Z</time>
      </trkpt>
      <trkpt lat="42.87041" lon="1.19065">
        <ele>598.8</ele>
        <time>2024-02-04T13:39:03Z</time>
      </trkpt>
      <trkpt lat="42.87045" lon="1.19063">
        <ele>599.4</ele>
        <time>2024-02-04T13:39:05Z</time>
      </trkpt>
      <trkpt lat="42.87047" lon="1.19062">
        <ele>599.8</ele>
        <time>2024-02-04T13:39:06Z</time>
      </trkpt>
      <trkpt lat="42.8705" lon="1.19059">
        <ele>600.2</ele>
        <time>2024-02-04T13:39:07Z</time>
      </trkpt>
      <trkpt lat="42.87051" lon="1.19057">
        <ele>601</ele>
        <time>2024-02-04T13:39:08Z</time>
      </trkpt>
      <trkpt lat="42.87056" lon="1.19054">
        <ele>601.6</ele>
        <time>2024-02-04T13:39:10Z</time>
      </trkpt>
      <trkpt lat="42.87059" lon="1.19052">
        <ele>602</ele>
        <time>2024-02-04T13:39:11Z</time>
      </trkpt>
      <trkpt lat="42.8706" lon="1.19049">
        <ele>602.4</ele>
        <time>2024-02-04T13:39:12Z</time>
      </trkpt>
      <trkpt lat="42.87062" lon="1.19047">
        <ele>602.8</ele>
        <time>2024-02-04T13:39:13Z</time>
      </trkpt>
      <trkpt lat="42.87064" lon="1.19045">
        <ele>603.4</ele>
        <time>2024-02-04T13:39:14Z</time>
      </trkpt>
      <trkpt lat="42.87072" lon="1.19037">
        <ele>603.8</ele>
        <time>2024-02-04T13:39:18Z</time>
      </trkpt>
      <trkpt lat="42.87074" lon="1.19035">
        <ele>604.2</ele>
        <time>2024-02-04T13:39:19Z</time>
      </trkpt>
      <trkpt lat="42.87076" lon="1.19034">
        <ele>604.8</ele>
        <time>2024-02-04T13:39:20Z</time>
      </trkpt>
      <trkpt lat="42.87078" lon="1.19032">
        <ele>605.2</ele>
        <time>2024-02-04T13:39:21Z</time>
      </trkpt>
      <trkpt lat="42.87081" lon="1.1903">
        <ele>605.6</ele>
        <time>2024-02-04T13:39:22Z</time>
      </trkpt>
      <trkpt lat="42.87085" lon="1.19025">
        <ele>605.6</ele>
        <time>2024-02-04T13:39:24Z</time>
      </trkpt>
      <trkpt lat="42.87088" lon="1.19019">
        <ele>606.2</ele>
        <time>2024-02-04T13:39:26Z</time>
      </trkpt>
      <trkpt lat="42.87089" lon="1.19015">
        <ele>606.6</ele>
        <time>2024-02-04T13:39:27Z</time>
      </trkpt>
      <trkpt lat="42.87091" lon="1.19012">
        <ele>607</ele>
        <time>2024-02-04T13:39:28Z</time>
      </trkpt>
      <trkpt lat="42.87092" lon="1.19008">
        <ele>607.4</ele>
        <time>2024-02-04T13:39:29Z</time>
      </trkpt>
      <trkpt lat="42.87094" lon="1.19006">
        <ele>607.8</ele>
        <time>2024-02-04T13:39:30Z</time>
      </trkpt>
      <trkpt lat="42.87105" lon="1.18988">
        <ele>607.8</ele>
        <time>2024-02-04T13:39:35Z</time>
      </trkpt>
      <trkpt lat="42.87121" lon="1.18968">
        <ele>607.8</ele>
        <time>2024-02-04T13:39:41Z</time>
      </trkpt>
      <trkpt lat="42.8713" lon="1.18959">
        <ele>607.8</ele>
        <time>2024-02-04T13:39:44Z</time>
      </trkpt>
      <trkpt lat="42.87132" lon="1.18956">
        <ele>607.8</ele>
        <time>2024-02-04T13:39:45Z</time>
      </trkpt>
      <trkpt lat="42.87138" lon="1.18945">
        <ele>607.8</ele>
        <time>2024-02-04T13:39:48Z</time>
      </trkpt>
      <trkpt lat="42.87137" lon="1.18943">
        <ele>607.8</ele>
        <time>2024-02-04T13:39:49Z</time>
      </trkpt>
      <trkpt lat="42.87136" lon="1.18939">
        <ele>607.8</ele>
        <time>2024-02-04T13:39:51Z</time>
      </trkpt>
      <trkpt lat="42.87133" lon="1.1893">
        <ele>607.8</ele>
        <time>2024-02-04T13:39:54Z</time>
      </trkpt>
      <trkpt lat="42.8713" lon="1.18922">
        <ele>607.8</ele>
        <time>2024-02-04T13:39:56Z</time>
      </trkpt>
      <trkpt lat="42.87124" lon="1.18913">
        <ele>607.8</ele>
        <time>2024-02-04T13:39:59Z</time>
      </trkpt>
      <trkpt lat="42.87121" lon="1.18907">
        <ele>608.2</ele>
        <time>2024-02-04T13:40:01Z</time>
      </trkpt>
      <trkpt lat="42.8712" lon="1.18904">
        <ele>608.6</ele>
        <time>2024-02-04T13:40:02Z</time>
      </trkpt>
      <trkpt lat="42.87119" lon="1.189">
        <ele>609</ele>
        <time>2024-02-04T13:40:03Z</time>
      </trkpt>
      <trkpt lat="42.87117" lon="1.18898">
        <ele>609.4</ele>
        <time>2024-02-04T13:40:04Z</time>
      </trkpt>
      <trkpt lat="42.87117" lon="1.18896">
        <ele>610</ele>
        <time>2024-02-04T13:40:05Z</time>
      </trkpt>
      <trkpt lat="42.87117" lon="1.18893">
        <ele>610.4</ele>
        <time>2024-02-04T13:40:06Z</time>
      </trkpt>
      <trkpt lat="42.87117" lon="1.1889">
        <ele>611</ele>
        <time>2024-02-04T13:40:07Z</time>
      </trkpt>
      <trkpt lat="42.87118" lon="1.18886">
        <ele>611.4</ele>
        <time>2024-02-04T13:40:08Z</time>
      </trkpt>
      <trkpt lat="42.87119" lon="1.18882">
        <ele>612</ele>
        <time>2024-02-04T13:40:09Z</time>
      </trkpt>
      <trkpt lat="42.87121" lon="1.18878">
        <ele>612.4</ele>
        <time>2024-02-04T13:40:11Z</time>
      </trkpt>
      <trkpt lat="42.87121" lon="1.18878">
        <ele>612.8</ele>
        <time>2024-02-04T13:40:12Z</time>
      </trkpt>
      <trkpt lat="42.87122" lon="1.18878">
        <ele>613.2</ele>
        <time>2024-02-04T13:40:13Z</time>
      </trkpt>
      <trkpt lat="42.87122" lon="1.18869">
        <ele>614</ele>
        <time>2024-02-04T13:40:20Z</time>
      </trkpt>
      <trkpt lat="42.87122" lon="1.18866">
        <ele>614</ele>
        <time>2024-02-04T13:40:21Z</time>
      </trkpt>
      <trkpt lat="42.87122" lon="1.18864">
        <ele>614</ele>
        <time>2024-02-04T13:40:22Z</time>
      </trkpt>
      <trkpt lat="42.87124" lon="1.18858">
        <ele>614.6</ele>
        <time>2024-02-04T13:40:24Z</time>
      </trkpt>
      <trkpt lat="42.87125" lon="1.18856">
        <ele>615</ele>
        <time>2024-02-04T13:40:25Z</time>
      </trkpt>
      <trkpt lat="42.87126" lon="1.18853">
        <ele>615.4</ele>
        <time>2024-02-04T13:40:26Z</time>
      </trkpt>
      <trkpt lat="42.87126" lon="1.1885">
        <ele>615.8</ele>
        <time>2024-02-04T13:40:27Z</time>
      </trkpt>
      <trkpt lat="42.87127" lon="1.18847">
        <ele>616.2</ele>
        <time>2024-02-04T13:40:28Z</time>
      </trkpt>
      <trkpt lat="42.8713" lon="1.18841">
        <ele>616.6</ele>
        <time>2024-02-04T13:40:30Z</time>
      </trkpt>
      <trkpt lat="42.87131" lon="1.1884">
        <ele>617.2</ele>
        <time>2024-02-04T13:40:31Z</time>
      </trkpt>
      <trkpt lat="42.87132" lon="1.18841">
        <ele>617.6</ele>
        <time>2024-02-04T13:40:32Z</time>
      </trkpt>
      <trkpt lat="42.87133" lon="1.18843">
        <ele>618</ele>
        <time>2024-02-04T13:40:33Z</time>
      </trkpt>
      <trkpt lat="42.87135" lon="1.18844">
        <ele>618.4</ele>
        <time>2024-02-04T13:40:34Z</time>
      </trkpt>
      <trkpt lat="42.8714" lon="1.1885">
        <ele>618.8</ele>
        <time>2024-02-04T13:40:38Z</time>
      </trkpt>
      <trkpt lat="42.87142" lon="1.18852">
        <ele>619.2</ele>
        <time>2024-02-04T13:40:39Z</time>
      </trkpt>
      <trkpt lat="42.87143" lon="1.18854">
        <ele>619.8</ele>
        <time>2024-02-04T13:40:40Z</time>
      </trkpt>
      <trkpt lat="42.87145" lon="1.18857">
        <ele>620.2</ele>
        <time>2024-02-04T13:40:41Z</time>
      </trkpt>
      <trkpt lat="42.87145" lon="1.18859">
        <ele>620.6</ele>
        <time>2024-02-04T13:40:42Z</time>
      </trkpt>
      <trkpt lat="42.87146" lon="1.1886">
        <ele>621</ele>
        <time>2024-02-04T13:40:43Z</time>
      </trkpt>
      <trkpt lat="42.87146" lon="1.18861">
        <ele>621.4</ele>
        <time>2024-02-04T13:40:44Z</time>
      </trkpt>
      <trkpt lat="42.87146" lon="1.18862">
        <ele>622</ele>
        <time>2024-02-04T13:40:45Z</time>
      </trkpt>
      <trkpt lat="42.87147" lon="1.18864">
        <ele>622.4</ele>
        <time>2024-02-04T13:40:46Z</time>
      </trkpt>
      <trkpt lat="42.87148" lon="1.18865">
        <ele>622.8</ele>
        <time>2024-02-04T13:40:47Z</time>
      </trkpt>
      <trkpt lat="42.8715" lon="1.18867">
        <ele>622.8</ele>
        <time>2024-02-04T13:40:49Z</time>
      </trkpt>
      <trkpt lat="42.87154" lon="1.18866">
        <ele>622.8</ele>
        <time>2024-02-04T13:40:55Z</time>
      </trkpt>
      <trkpt lat="42.87157" lon="1.18865">
        <ele>622.8</ele>
        <time>2024-02-04T13:40:58Z</time>
      </trkpt>
      <trkpt lat="42.87158" lon="1.18865">
        <ele>622.8</ele>
        <time>2024-02-04T13:41:06Z</time>
      </trkpt>
      <trkpt lat="42.87159" lon="1.18864">
        <ele>622.8</ele>
        <time>2024-02-04T13:41:07Z</time>
      </trkpt>
      <trkpt lat="42.87167" lon="1.18861">
        <ele>622.8</ele>
        <time>2024-02-04T13:41:11Z</time>
      </trkpt>
      <trkpt lat="42.8717" lon="1.1886">
        <ele>623.2</ele>
        <time>2024-02-04T13:41:12Z</time>
      </trkpt>
      <trkpt lat="42.87172" lon="1.18859">
        <ele>623.6</ele>
        <time>2024-02-04T13:41:13Z</time>
      </trkpt>
      <trkpt lat="42.87174" lon="1.18858">
        <ele>624</ele>
        <time>2024-02-04T13:41:14Z</time>
      </trkpt>
      <trkpt lat="42.87176" lon="1.18858">
        <ele>624.4</ele>
        <time>2024-02-04T13:41:15Z</time>
      </trkpt>
      <trkpt lat="42.87178" lon="1.18858">
        <ele>624.8</ele>
        <time>2024-02-04T13:41:16Z</time>
      </trkpt>
      <trkpt lat="42.87181" lon="1.18857">
        <ele>624.8</ele>
        <time>2024-02-04T13:41:17Z</time>
      </trkpt>
      <trkpt lat="42.87193" lon="1.18859">
        <ele>624.8</ele>
        <time>2024-02-04T13:41:22Z</time>
      </trkpt>
      <trkpt lat="42.87196" lon="1.18862">
        <ele>625.2</ele>
        <time>2024-02-04T13:41:24Z</time>
      </trkpt>
      <trkpt lat="42.87198" lon="1.18864">
        <ele>625.6</ele>
        <time>2024-02-04T13:41:25Z</time>
      </trkpt>
      <trkpt lat="42.872" lon="1.18867">
        <ele>626</ele>
        <time>2024-02-04T13:41:26Z</time>
      </trkpt>
      <trkpt lat="42.872" lon="1.18869">
        <ele>626.6</ele>
        <time>2024-02-04T13:41:27Z</time>
      </trkpt>
      <trkpt lat="42.87201" lon="1.18872">
        <ele>627</ele>
        <time>2024-02-04T13:41:28Z</time>
      </trkpt>
      <trkpt lat="42.87201" lon="1.18874">
        <ele>627.4</ele>
        <time>2024-02-04T13:41:29Z</time>
      </trkpt>
      <trkpt lat="42.87201" lon="1.18875">
        <ele>627.8</ele>
        <time>2024-02-04T13:41:30Z</time>
      </trkpt>
      <trkpt lat="42.87202" lon="1.18877">
        <ele>628.2</ele>
        <time>2024-02-04T13:41:31Z</time>
      </trkpt>
      <trkpt lat="42.87203" lon="1.18878">
        <ele>628.6</ele>
        <time>2024-02-04T13:41:32Z</time>
      </trkpt>
      <trkpt lat="42.87205" lon="1.1888">
        <ele>629.2</ele>
        <time>2024-02-04T13:41:33Z</time>
      </trkpt>
      <trkpt lat="42.87206" lon="1.18882">
        <ele>629.6</ele>
        <time>2024-02-04T13:41:34Z</time>
      </trkpt>
      <trkpt lat="42.87208" lon="1.18884">
        <ele>630.2</ele>
        <time>2024-02-04T13:41:35Z</time>
      </trkpt>
      <trkpt lat="42.87209" lon="1.18886">
        <ele>631.2</ele>
        <time>2024-02-04T13:41:36Z</time>
      </trkpt>
      <trkpt lat="42.8721" lon="1.18888">
        <ele>631.6</ele>
        <time>2024-02-04T13:41:37Z</time>
      </trkpt>
      <trkpt lat="42.8721" lon="1.1889">
        <ele>632</ele>
        <time>2024-02-04T13:41:38Z</time>
      </trkpt>
      <trkpt lat="42.87211" lon="1.18891">
        <ele>632.4</ele>
        <time>2024-02-04T13:41:39Z</time>
      </trkpt>
      <trkpt lat="42.87211" lon="1.18892">
        <ele>632.8</ele>
        <time>2024-02-04T13:41:40Z</time>
      </trkpt>
      <trkpt lat="42.87212" lon="1.18892">
        <ele>633.2</ele>
        <time>2024-02-04T13:41:41Z</time>
      </trkpt>
      <trkpt lat="42.87212" lon="1.18892">
        <ele>633.8</ele>
        <time>2024-02-04T13:41:42Z</time>
      </trkpt>
      <trkpt lat="42.87214" lon="1.18893">
        <ele>634.2</ele>
        <time>2024-02-04T13:41:43Z</time>
      </trkpt>
      <trkpt lat="42.87215" lon="1.18894">
        <ele>634.6</ele>
        <time>2024-02-04T13:41:44Z</time>
      </trkpt>
      <trkpt lat="42.87216" lon="1.18894">
        <ele>635.2</ele>
        <time>2024-02-04T13:41:45Z</time>
      </trkpt>
      <trkpt lat="42.87217" lon="1.18894">
        <ele>635.6</ele>
        <time>2024-02-04T13:41:46Z</time>
      </trkpt>
      <trkpt lat="42.87219" lon="1.18893">
        <ele>636.2</ele>
        <time>2024-02-04T13:41:47Z</time>
      </trkpt>
      <trkpt lat="42.87221" lon="1.18892">
        <ele>636.6</ele>
        <time>2024-02-04T13:41:48Z</time>
      </trkpt>
      <trkpt lat="42.87224" lon="1.18891">
        <ele>637</ele>
        <time>2024-02-04T13:41:49Z</time>
      </trkpt>
      <trkpt lat="42.87226" lon="1.1889">
        <ele>637.6</ele>
        <time>2024-02-04T13:41:50Z</time>
      </trkpt>
      <trkpt lat="42.87228" lon="1.18888">
        <ele>638</ele>
        <time>2024-02-04T13:41:51Z</time>
      </trkpt>
      <trkpt lat="42.87239" lon="1.1888">
        <ele>638</ele>
        <time>2024-02-04T13:41:56Z</time>
      </trkpt>
      <trkpt lat="42.8725" lon="1.18875">
        <ele>638.4</ele>
        <time>2024-02-04T13:42:00Z</time>
      </trkpt>
      <trkpt lat="42.87253" lon="1.18872">
        <ele>639.2</ele>
        <time>2024-02-04T13:42:01Z</time>
      </trkpt>
      <trkpt lat="42.87256" lon="1.18871">
        <ele>639.6</ele>
        <time>2024-02-04T13:42:02Z</time>
      </trkpt>
      <trkpt lat="42.8726" lon="1.18871">
        <ele>640</ele>
        <time>2024-02-04T13:42:03Z</time>
      </trkpt>
      <trkpt lat="42.87266" lon="1.18868">
        <ele>640</ele>
        <time>2024-02-04T13:42:05Z</time>
      </trkpt>
      <trkpt lat="42.8728" lon="1.18861">
        <ele>640</ele>
        <time>2024-02-04T13:42:09Z</time>
      </trkpt>
      <trkpt lat="42.87284" lon="1.18859">
        <ele>640</ele>
        <time>2024-02-04T13:42:10Z</time>
      </trkpt>
      <trkpt lat="42.87301" lon="1.1885">
        <ele>640</ele>
        <time>2024-02-04T13:42:15Z</time>
      </trkpt>
      <trkpt lat="42.87327" lon="1.18843">
        <ele>640</ele>
        <time>2024-02-04T13:42:22Z</time>
      </trkpt>
      <trkpt lat="42.87339" lon="1.1884">
        <ele>640.4</ele>
        <time>2024-02-04T13:42:26Z</time>
      </trkpt>
      <trkpt lat="42.87342" lon="1.18839">
        <ele>640.8</ele>
        <time>2024-02-04T13:42:27Z</time>
      </trkpt>
      <trkpt lat="42.87344" lon="1.18838">
        <ele>641.2</ele>
        <time>2024-02-04T13:42:28Z</time>
      </trkpt>
      <trkpt lat="42.87348" lon="1.18837">
        <ele>641.6</ele>
        <time>2024-02-04T13:42:29Z</time>
      </trkpt>
      <trkpt lat="42.8735" lon="1.18837">
        <ele>642</ele>
        <time>2024-02-04T13:42:30Z</time>
      </trkpt>
      <trkpt lat="42.87356" lon="1.18839">
        <ele>642</ele>
        <time>2024-02-04T13:42:32Z</time>
      </trkpt>
      <trkpt lat="42.87365" lon="1.18841">
        <ele>642.4</ele>
        <time>2024-02-04T13:42:35Z</time>
      </trkpt>
      <trkpt lat="42.87368" lon="1.1884">
        <ele>643</ele>
        <time>2024-02-04T13:42:36Z</time>
      </trkpt>
      <trkpt lat="42.87371" lon="1.18837">
        <ele>643.4</ele>
        <time>2024-02-04T13:42:37Z</time>
      </trkpt>
      <trkpt lat="42.87373" lon="1.18833">
        <ele>643.8</ele>
        <time>2024-02-04T13:42:38Z</time>
      </trkpt>
      <trkpt lat="42.87375" lon="1.1883">
        <ele>644.2</ele>
        <time>2024-02-04T13:42:39Z</time>
      </trkpt>
      <trkpt lat="42.8738" lon="1.18823">
        <ele>644.6</ele>
        <time>2024-02-04T13:42:41Z</time>
      </trkpt>
      <trkpt lat="42.87382" lon="1.1882">
        <ele>645.2</ele>
        <time>2024-02-04T13:42:42Z</time>
      </trkpt>
      <trkpt lat="42.87383" lon="1.18817">
        <ele>645.6</ele>
        <time>2024-02-04T13:42:43Z</time>
      </trkpt>
      <trkpt lat="42.87386" lon="1.18814">
        <ele>646</ele>
        <time>2024-02-04T13:42:44Z</time>
      </trkpt>
      <trkpt lat="42.87387" lon="1.18811">
        <ele>646.6</ele>
        <time>2024-02-04T13:42:45Z</time>
      </trkpt>
      <trkpt lat="42.87391" lon="1.18804">
        <ele>646.6</ele>
        <time>2024-02-04T13:42:47Z</time>
      </trkpt>
      <trkpt lat="42.87404" lon="1.18786">
        <ele>646.6</ele>
        <time>2024-02-04T13:42:52Z</time>
      </trkpt>
      <trkpt lat="42.87425" lon="1.18764">
        <ele>646.6</ele>
        <time>2024-02-04T13:42:59Z</time>
      </trkpt>
      <trkpt lat="42.87431" lon="1.18759">
        <ele>647</ele>
        <time>2024-02-04T13:43:01Z</time>
      </trkpt>
      <trkpt lat="42.87434" lon="1.18756">
        <ele>647.4</ele>
        <time>2024-02-04T13:43:02Z</time>
      </trkpt>
      <trkpt lat="42.87437" lon="1.18754">
        <ele>647.8</ele>
        <time>2024-02-04T13:43:03Z</time>
      </trkpt>
      <trkpt lat="42.8744" lon="1.18752">
        <ele>648.2</ele>
        <time>2024-02-04T13:43:04Z</time>
      </trkpt>
      <trkpt lat="42.87442" lon="1.1875">
        <ele>648.6</ele>
        <time>2024-02-04T13:43:05Z</time>
      </trkpt>
      <trkpt lat="42.87445" lon="1.1875">
        <ele>648.6</ele>
        <time>2024-02-04T13:43:06Z</time>
      </trkpt>
      <trkpt lat="42.87461" lon="1.18751">
        <ele>649</ele>
        <time>2024-02-04T13:43:11Z</time>
      </trkpt>
      <trkpt lat="42.87464" lon="1.18752">
        <ele>649.4</ele>
        <time>2024-02-04T13:43:12Z</time>
      </trkpt>
      <trkpt lat="42.87467" lon="1.18752">
        <ele>650</ele>
        <time>2024-02-04T13:43:13Z</time>
      </trkpt>
      <trkpt lat="42.8747" lon="1.18753">
        <ele>650.4</ele>
        <time>2024-02-04T13:43:14Z</time>
      </trkpt>
      <trkpt lat="42.87472" lon="1.18754">
        <ele>651.4</ele>
        <time>2024-02-04T13:43:15Z</time>
      </trkpt>
      <trkpt lat="42.87475" lon="1.18754">
        <ele>651.8</ele>
        <time>2024-02-04T13:43:16Z</time>
      </trkpt>
      <trkpt lat="42.87478" lon="1.18754">
        <ele>652.4</ele>
        <time>2024-02-04T13:43:17Z</time>
      </trkpt>
      <trkpt lat="42.87481" lon="1.18754">
        <ele>652.8</ele>
        <time>2024-02-04T13:43:18Z</time>
      </trkpt>
      <trkpt lat="42.87485" lon="1.18753">
        <ele>653.4</ele>
        <time>2024-02-04T13:43:19Z</time>
      </trkpt>
      <trkpt lat="42.87488" lon="1.18753">
        <ele>653.8</ele>
        <time>2024-02-04T13:43:20Z</time>
      </trkpt>
      <trkpt lat="42.87491" lon="1.18753">
        <ele>654.4</ele>
        <time>2024-02-04T13:43:21Z</time>
      </trkpt>
      <trkpt lat="42.87494" lon="1.18754">
        <ele>655</ele>
        <time>2024-02-04T13:43:22Z</time>
      </trkpt>
      <trkpt lat="42.87497" lon="1.18754">
        <ele>655.4</ele>
        <time>2024-02-04T13:43:23Z</time>
      </trkpt>
      <trkpt lat="42.875" lon="1.18753">
        <ele>656</ele>
        <time>2024-02-04T13:43:24Z</time>
      </trkpt>
      <trkpt lat="42.87503" lon="1.18753">
        <ele>656.6</ele>
        <time>2024-02-04T13:43:25Z</time>
      </trkpt>
      <trkpt lat="42.87506" lon="1.18753">
        <ele>657.2</ele>
        <time>2024-02-04T13:43:26Z</time>
      </trkpt>
      <trkpt lat="42.87508" lon="1.18752">
        <ele>657.6</ele>
        <time>2024-02-04T13:43:27Z</time>
      </trkpt>
      <trkpt lat="42.87516" lon="1.18747">
        <ele>658</ele>
        <time>2024-02-04T13:43:30Z</time>
      </trkpt>
      <trkpt lat="42.87519" lon="1.18745">
        <ele>658.4</ele>
        <time>2024-02-04T13:43:31Z</time>
      </trkpt>
      <trkpt lat="42.87522" lon="1.18745">
        <ele>658.8</ele>
        <time>2024-02-04T13:43:32Z</time>
      </trkpt>
      <trkpt lat="42.87525" lon="1.18744">
        <ele>659.4</ele>
        <time>2024-02-04T13:43:33Z</time>
      </trkpt>
      <trkpt lat="42.87528" lon="1.18742">
        <ele>659.8</ele>
        <time>2024-02-04T13:43:34Z</time>
      </trkpt>
      <trkpt lat="42.87534" lon="1.18738">
        <ele>660.2</ele>
        <time>2024-02-04T13:43:36Z</time>
      </trkpt>
      <trkpt lat="42.87535" lon="1.18736">
        <ele>660.6</ele>
        <time>2024-02-04T13:43:37Z</time>
      </trkpt>
      <trkpt lat="42.87536" lon="1.18733">
        <ele>661.2</ele>
        <time>2024-02-04T13:43:38Z</time>
      </trkpt>
      <trkpt lat="42.87538" lon="1.18731">
        <ele>662.2</ele>
        <time>2024-02-04T13:43:39Z</time>
      </trkpt>
      <trkpt lat="42.87545" lon="1.18723">
        <ele>662.2</ele>
        <time>2024-02-04T13:43:42Z</time>
      </trkpt>
      <trkpt lat="42.87548" lon="1.18721">
        <ele>662.6</ele>
        <time>2024-02-04T13:43:44Z</time>
      </trkpt>
      <trkpt lat="42.8755" lon="1.18722">
        <ele>663.2</ele>
        <time>2024-02-04T13:43:45Z</time>
      </trkpt>
      <trkpt lat="42.87552" lon="1.18722">
        <ele>663.6</ele>
        <time>2024-02-04T13:43:46Z</time>
      </trkpt>
      <trkpt lat="42.87553" lon="1.18723">
        <ele>664.2</ele>
        <time>2024-02-04T13:43:47Z</time>
      </trkpt>
      <trkpt lat="42.87555" lon="1.18724">
        <ele>664.6</ele>
        <time>2024-02-04T13:43:48Z</time>
      </trkpt>
      <trkpt lat="42.87557" lon="1.18723">
        <ele>665.2</ele>
        <time>2024-02-04T13:43:49Z</time>
      </trkpt>
      <trkpt lat="42.87558" lon="1.18724">
        <ele>665.8</ele>
        <time>2024-02-04T13:43:50Z</time>
      </trkpt>
      <trkpt lat="42.8756" lon="1.18724">
        <ele>666.4</ele>
        <time>2024-02-04T13:43:51Z</time>
      </trkpt>
      <trkpt lat="42.87561" lon="1.18724">
        <ele>667</ele>
        <time>2024-02-04T13:43:52Z</time>
      </trkpt>
      <trkpt lat="42.87561" lon="1.18724">
        <ele>667</ele>
        <time>2024-02-04T13:43:53Z</time>
      </trkpt>
      <trkpt lat="42.87562" lon="1.18728">
        <ele>667</ele>
        <time>2024-02-04T13:43:58Z</time>
      </trkpt>
      <trkpt lat="42.87561" lon="1.1873">
        <ele>667</ele>
        <time>2024-02-04T13:44:00Z</time>
      </trkpt>
      <trkpt lat="42.8756" lon="1.18737">
        <ele>667.4</ele>
        <time>2024-02-04T13:44:03Z</time>
      </trkpt>
      <trkpt lat="42.87559" lon="1.1874">
        <ele>668.4</ele>
        <time>2024-02-04T13:44:04Z</time>
      </trkpt>
      <trkpt lat="42.87558" lon="1.18742">
        <ele>668.8</ele>
        <time>2024-02-04T13:44:05Z</time>
      </trkpt>
      <trkpt lat="42.87557" lon="1.18745">
        <ele>669.2</ele>
        <time>2024-02-04T13:44:06Z</time>
      </trkpt>
      <trkpt lat="42.87556" lon="1.18748">
        <ele>669.2</ele>
        <time>2024-02-04T13:44:07Z</time>
      </trkpt>
      <trkpt lat="42.87554" lon="1.18758">
        <ele>669.2</ele>
        <time>2024-02-04T13:44:11Z</time>
      </trkpt>
      <trkpt lat="42.87553" lon="1.1876">
        <ele>669.6</ele>
        <time>2024-02-04T13:44:12Z</time>
      </trkpt>
      <trkpt lat="42.87553" lon="1.18763">
        <ele>670.2</ele>
        <time>2024-02-04T13:44:13Z</time>
      </trkpt>
      <trkpt lat="42.87552" lon="1.18765">
        <ele>670.6</ele>
        <time>2024-02-04T13:44:14Z</time>
      </trkpt>
      <trkpt lat="42.87551" lon="1.18767">
        <ele>671</ele>
        <time>2024-02-04T13:44:15Z</time>
      </trkpt>
      <trkpt lat="42.87551" lon="1.18769">
        <ele>671.4</ele>
        <time>2024-02-04T13:44:16Z</time>
      </trkpt>
      <trkpt lat="42.87547" lon="1.18782">
        <ele>671.4</ele>
        <time>2024-02-04T13:44:22Z</time>
      </trkpt>
      <trkpt lat="42.87546" lon="1.18788">
        <ele>671.8</ele>
        <time>2024-02-04T13:44:25Z</time>
      </trkpt>
      <trkpt lat="42.87545" lon="1.1879">
        <ele>672.4</ele>
        <time>2024-02-04T13:44:26Z</time>
      </trkpt>
      <trkpt lat="42.87544" lon="1.18793">
        <ele>672.8</ele>
        <time>2024-02-04T13:44:27Z</time>
      </trkpt>
      <trkpt lat="42.87544" lon="1.18795">
        <ele>673.2</ele>
        <time>2024-02-04T13:44:28Z</time>
      </trkpt>
      <trkpt lat="42.87543" lon="1.18797">
        <ele>673.6</ele>
        <time>2024-02-04T13:44:29Z</time>
      </trkpt>
      <trkpt lat="42.8754" lon="1.18807">
        <ele>673.6</ele>
        <time>2024-02-04T13:44:34Z</time>
      </trkpt>
      <trkpt lat="42.87537" lon="1.18812">
        <ele>674</ele>
        <time>2024-02-04T13:44:37Z</time>
      </trkpt>
      <trkpt lat="42.87536" lon="1.18814">
        <ele>674.6</ele>
        <time>2024-02-04T13:44:38Z</time>
      </trkpt>
      <trkpt lat="42.87535" lon="1.18816">
        <ele>675</ele>
        <time>2024-02-04T13:44:39Z</time>
      </trkpt>
      <trkpt lat="42.87534" lon="1.18818">
        <ele>675.4</ele>
        <time>2024-02-04T13:44:40Z</time>
      </trkpt>
      <trkpt lat="42.87533" lon="1.1882">
        <ele>675.8</ele>
        <time>2024-02-04T13:44:41Z</time>
      </trkpt>
      <trkpt lat="42.8753" lon="1.18829">
        <ele>675.8</ele>
        <time>2024-02-04T13:44:45Z</time>
      </trkpt>
      <trkpt lat="42.87526" lon="1.18835">
        <ele>676.4</ele>
        <time>2024-02-04T13:44:49Z</time>
      </trkpt>
      <trkpt lat="42.87525" lon="1.18836">
        <ele>676.8</ele>
        <time>2024-02-04T13:44:50Z</time>
      </trkpt>
      <trkpt lat="42.87524" lon="1.18838">
        <ele>677.2</ele>
        <time>2024-02-04T13:44:51Z</time>
      </trkpt>
      <trkpt lat="42.87522" lon="1.1884">
        <ele>677.6</ele>
        <time>2024-02-04T13:44:52Z</time>
      </trkpt>
      <trkpt lat="42.87521" lon="1.18842">
        <ele>678</ele>
        <time>2024-02-04T13:44:53Z</time>
      </trkpt>
      <trkpt lat="42.87519" lon="1.18846">
        <ele>678</ele>
        <time>2024-02-04T13:44:55Z</time>
      </trkpt>
      <trkpt lat="42.87511" lon="1.18857">
        <ele>678.4</ele>
        <time>2024-02-04T13:45:00Z</time>
      </trkpt>
      <trkpt lat="42.8751" lon="1.18859">
        <ele>678.8</ele>
        <time>2024-02-04T13:45:01Z</time>
      </trkpt>
      <trkpt lat="42.87509" lon="1.18861">
        <ele>679.2</ele>
        <time>2024-02-04T13:45:02Z</time>
      </trkpt>
      <trkpt lat="42.87508" lon="1.18863">
        <ele>679.6</ele>
        <time>2024-02-04T13:45:03Z</time>
      </trkpt>
      <trkpt lat="42.87506" lon="1.18865">
        <ele>680</ele>
        <time>2024-02-04T13:45:04Z</time>
      </trkpt>
      <trkpt lat="42.87502" lon="1.1887">
        <ele>680</ele>
        <time>2024-02-04T13:45:08Z</time>
      </trkpt>
      <trkpt lat="42.87496" lon="1.18876">
        <ele>680</ele>
        <time>2024-02-04T13:45:13Z</time>
      </trkpt>
      <trkpt lat="42.87494" lon="1.18883">
        <ele>680</ele>
        <time>2024-02-04T13:45:16Z</time>
      </trkpt>
      <trkpt lat="42.875" lon="1.18886">
        <ele>680</ele>
        <time>2024-02-04T13:45:18Z</time>
      </trkpt>
      <trkpt lat="42.87506" lon="1.18885">
        <ele>680.4</ele>
        <time>2024-02-04T13:45:21Z</time>
      </trkpt>
      <trkpt lat="42.87507" lon="1.18883">
        <ele>681</ele>
        <time>2024-02-04T13:45:22Z</time>
      </trkpt>
      <trkpt lat="42.87509" lon="1.18881">
        <ele>681.4</ele>
        <time>2024-02-04T13:45:23Z</time>
      </trkpt>
      <trkpt lat="42.87511" lon="1.18879">
        <ele>681.8</ele>
        <time>2024-02-04T13:45:24Z</time>
      </trkpt>
      <trkpt lat="42.87513" lon="1.18876">
        <ele>682.2</ele>
        <time>2024-02-04T13:45:25Z</time>
      </trkpt>
      <trkpt lat="42.87516" lon="1.18873">
        <ele>682.2</ele>
        <time>2024-02-04T13:45:27Z</time>
      </trkpt>
      <trkpt lat="42.87529" lon="1.18863">
        <ele>682.2</ele>
        <time>2024-02-04T13:45:33Z</time>
      </trkpt>
      <trkpt lat="42.87537" lon="1.18856">
        <ele>682.6</ele>
        <time>2024-02-04T13:45:37Z</time>
      </trkpt>
      <trkpt lat="42.87539" lon="1.18855">
        <ele>683</ele>
        <time>2024-02-04T13:45:38Z</time>
      </trkpt>
      <trkpt lat="42.87542" lon="1.18853">
        <ele>683.4</ele>
        <time>2024-02-04T13:45:39Z</time>
      </trkpt>
      <trkpt lat="42.87545" lon="1.1885">
        <ele>684</ele>
        <time>2024-02-04T13:45:40Z</time>
      </trkpt>
      <trkpt lat="42.87547" lon="1.18848">
        <ele>684.4</ele>
        <time>2024-02-04T13:45:41Z</time>
      </trkpt>
      <trkpt lat="42.87556" lon="1.18843">
        <ele>684.4</ele>
        <time>2024-02-04T13:45:44Z</time>
      </trkpt>
      <trkpt lat="42.87572" lon="1.18838">
        <ele>684.4</ele>
        <time>2024-02-04T13:45:49Z</time>
      </trkpt>
      <trkpt lat="42.87586" lon="1.18827">
        <ele>684.8</ele>
        <time>2024-02-04T13:45:54Z</time>
      </trkpt>
      <trkpt lat="42.87589" lon="1.18825">
        <ele>685.2</ele>
        <time>2024-02-04T13:45:55Z</time>
      </trkpt>
      <trkpt lat="42.87592" lon="1.18824">
        <ele>685.6</ele>
        <time>2024-02-04T13:45:56Z</time>
      </trkpt>
      <trkpt lat="42.87594" lon="1.18823">
        <ele>686</ele>
        <time>2024-02-04T13:45:57Z</time>
      </trkpt>
      <trkpt lat="42.87596" lon="1.18824">
        <ele>686.4</ele>
        <time>2024-02-04T13:45:58Z</time>
      </trkpt>
      <trkpt lat="42.87599" lon="1.18822">
        <ele>686.4</ele>
        <time>2024-02-04T13:45:59Z</time>
      </trkpt>
      <trkpt lat="42.87617" lon="1.18813">
        <ele>686.4</ele>
        <time>2024-02-04T13:46:05Z</time>
      </trkpt>
      <trkpt lat="42.87631" lon="1.18808">
        <ele>686.4</ele>
        <time>2024-02-04T13:46:10Z</time>
      </trkpt>
      <trkpt lat="42.87652" lon="1.18804">
        <ele>686.4</ele>
        <time>2024-02-04T13:46:16Z</time>
      </trkpt>
      <trkpt lat="42.87659" lon="1.18801">
        <ele>686.4</ele>
        <time>2024-02-04T13:46:19Z</time>
      </trkpt>
      <trkpt lat="42.87665" lon="1.18795">
        <ele>686.4</ele>
        <time>2024-02-04T13:46:21Z</time>
      </trkpt>
      <trkpt lat="42.87683" lon="1.18784">
        <ele>686.4</ele>
        <time>2024-02-04T13:46:26Z</time>
      </trkpt>
      <trkpt lat="42.87718" lon="1.18765">
        <ele>686.4</ele>
        <time>2024-02-04T13:46:34Z</time>
      </trkpt>
      <trkpt lat="42.87721" lon="1.18761">
        <ele>686.4</ele>
        <time>2024-02-04T13:46:35Z</time>
      </trkpt>
      <trkpt lat="42.87736" lon="1.1874">
        <ele>686.4</ele>
        <time>2024-02-04T13:46:39Z</time>
      </trkpt>
      <trkpt lat="42.87743" lon="1.18729">
        <ele>686.4</ele>
        <time>2024-02-04T13:46:41Z</time>
      </trkpt>
      <trkpt lat="42.87748" lon="1.18717">
        <ele>686.4</ele>
        <time>2024-02-04T13:46:43Z</time>
      </trkpt>
      <trkpt lat="42.8775" lon="1.18712">
        <ele>686</ele>
        <time>2024-02-04T13:46:44Z</time>
      </trkpt>
      <trkpt lat="42.87751" lon="1.18705">
        <ele>685.6</ele>
        <time>2024-02-04T13:46:45Z</time>
      </trkpt>
      <trkpt lat="42.87751" lon="1.18697">
        <ele>685</ele>
        <time>2024-02-04T13:46:46Z</time>
      </trkpt>
      <trkpt lat="42.87751" lon="1.1869">
        <ele>684.6</ele>
        <time>2024-02-04T13:46:47Z</time>
      </trkpt>
      <trkpt lat="42.87752" lon="1.18682">
        <ele>684.2</ele>
        <time>2024-02-04T13:46:48Z</time>
      </trkpt>
      <trkpt lat="42.87753" lon="1.18675">
        <ele>684.2</ele>
        <time>2024-02-04T13:46:49Z</time>
      </trkpt>
      <trkpt lat="42.87754" lon="1.18668">
        <ele>683.8</ele>
        <time>2024-02-04T13:46:50Z</time>
      </trkpt>
      <trkpt lat="42.87755" lon="1.18662">
        <ele>683.4</ele>
        <time>2024-02-04T13:46:51Z</time>
      </trkpt>
      <trkpt lat="42.87756" lon="1.18657">
        <ele>683</ele>
        <time>2024-02-04T13:46:52Z</time>
      </trkpt>
      <trkpt lat="42.87757" lon="1.18652">
        <ele>682.6</ele>
        <time>2024-02-04T13:46:53Z</time>
      </trkpt>
      <trkpt lat="42.87758" lon="1.18648">
        <ele>682.2</ele>
        <time>2024-02-04T13:46:54Z</time>
      </trkpt>
      <trkpt lat="42.87758" lon="1.18646">
        <ele>682.2</ele>
        <time>2024-02-04T13:46:55Z</time>
      </trkpt>
      <trkpt lat="42.87759" lon="1.18642">
        <ele>681.8</ele>
        <time>2024-02-04T13:46:56Z</time>
      </trkpt>
      <trkpt lat="42.8776" lon="1.1864">
        <ele>681.2</ele>
        <time>2024-02-04T13:46:57Z</time>
      </trkpt>
      <trkpt lat="42.87761" lon="1.18637">
        <ele>680.8</ele>
        <time>2024-02-04T13:46:58Z</time>
      </trkpt>
      <trkpt lat="42.87762" lon="1.18633">
        <ele>680.4</ele>
        <time>2024-02-04T13:46:59Z</time>
      </trkpt>
      <trkpt lat="42.87763" lon="1.18629">
        <ele>680</ele>
        <time>2024-02-04T13:47:00Z</time>
      </trkpt>
      <trkpt lat="42.87764" lon="1.18625">
        <ele>680</ele>
        <time>2024-02-04T13:47:01Z</time>
      </trkpt>
      <trkpt lat="42.87765" lon="1.18622">
        <ele>680</ele>
        <time>2024-02-04T13:47:02Z</time>
      </trkpt>
      <trkpt lat="42.87768" lon="1.18614">
        <ele>680</ele>
        <time>2024-02-04T13:47:05Z</time>
      </trkpt>
      <trkpt lat="42.87777" lon="1.18601">
        <ele>679.6</ele>
        <time>2024-02-04T13:47:10Z</time>
      </trkpt>
      <trkpt lat="42.87782" lon="1.18598">
        <ele>679.2</ele>
        <time>2024-02-04T13:47:11Z</time>
      </trkpt>
      <trkpt lat="42.87786" lon="1.18595">
        <ele>678.8</ele>
        <time>2024-02-04T13:47:12Z</time>
      </trkpt>
      <trkpt lat="42.87792" lon="1.1859">
        <ele>678.2</ele>
        <time>2024-02-04T13:47:13Z</time>
      </trkpt>
      <trkpt lat="42.87798" lon="1.18586">
        <ele>677.8</ele>
        <time>2024-02-04T13:47:14Z</time>
      </trkpt>
      <trkpt lat="42.87811" lon="1.18574">
        <ele>677.4</ele>
        <time>2024-02-04T13:47:16Z</time>
      </trkpt>
      <trkpt lat="42.87818" lon="1.18569">
        <ele>677</ele>
        <time>2024-02-04T13:47:17Z</time>
      </trkpt>
      <trkpt lat="42.87822" lon="1.1856">
        <ele>676.4</ele>
        <time>2024-02-04T13:47:18Z</time>
      </trkpt>
      <trkpt lat="42.87826" lon="1.18553">
        <ele>675.8</ele>
        <time>2024-02-04T13:47:19Z</time>
      </trkpt>
      <trkpt lat="42.87826" lon="1.18545">
        <ele>675.2</ele>
        <time>2024-02-04T13:47:20Z</time>
      </trkpt>
      <trkpt lat="42.87822" lon="1.18534">
        <ele>673.6</ele>
        <time>2024-02-04T13:47:21Z</time>
      </trkpt>
      <trkpt lat="42.8782" lon="1.18525">
        <ele>673</ele>
        <time>2024-02-04T13:47:22Z</time>
      </trkpt>
      <trkpt lat="42.87817" lon="1.18515">
        <ele>672.2</ele>
        <time>2024-02-04T13:47:23Z</time>
      </trkpt>
      <trkpt lat="42.87815" lon="1.18504">
        <ele>671.4</ele>
        <time>2024-02-04T13:47:24Z</time>
      </trkpt>
      <trkpt lat="42.87815" lon="1.18491">
        <ele>670.8</ele>
        <time>2024-02-04T13:47:25Z</time>
      </trkpt>
      <trkpt lat="42.87815" lon="1.18479">
        <ele>670.4</ele>
        <time>2024-02-04T13:47:26Z</time>
      </trkpt>
      <trkpt lat="42.87817" lon="1.18466">
        <ele>669.8</ele>
        <time>2024-02-04T13:47:27Z</time>
      </trkpt>
      <trkpt lat="42.87821" lon="1.18454">
        <ele>669.4</ele>
        <time>2024-02-04T13:47:28Z</time>
      </trkpt>
      <trkpt lat="42.87826" lon="1.18443">
        <ele>668.8</ele>
        <time>2024-02-04T13:47:29Z</time>
      </trkpt>
      <trkpt lat="42.87833" lon="1.18435">
        <ele>668.2</ele>
        <time>2024-02-04T13:47:30Z</time>
      </trkpt>
      <trkpt lat="42.87842" lon="1.18427">
        <ele>667.6</ele>
        <time>2024-02-04T13:47:31Z</time>
      </trkpt>
      <trkpt lat="42.8785" lon="1.18422">
        <ele>666.8</ele>
        <time>2024-02-04T13:47:32Z</time>
      </trkpt>
      <trkpt lat="42.8786" lon="1.18419">
        <ele>666.2</ele>
        <time>2024-02-04T13:47:33Z</time>
      </trkpt>
      <trkpt lat="42.87869" lon="1.18416">
        <ele>665.4</ele>
        <time>2024-02-04T13:47:34Z</time>
      </trkpt>
      <trkpt lat="42.87878" lon="1.18415">
        <ele>664.6</ele>
        <time>2024-02-04T13:47:35Z</time>
      </trkpt>
      <trkpt lat="42.87888" lon="1.18413">
        <ele>663.8</ele>
        <time>2024-02-04T13:47:36Z</time>
      </trkpt>
      <trkpt lat="42.87897" lon="1.18409">
        <ele>663</ele>
        <time>2024-02-04T13:47:37Z</time>
      </trkpt>
      <trkpt lat="42.87905" lon="1.18404">
        <ele>662.4</ele>
        <time>2024-02-04T13:47:38Z</time>
      </trkpt>
      <trkpt lat="42.87911" lon="1.184">
        <ele>661.6</ele>
        <time>2024-02-04T13:47:39Z</time>
      </trkpt>
      <trkpt lat="42.87916" lon="1.18395">
        <ele>660.8</ele>
        <time>2024-02-04T13:47:40Z</time>
      </trkpt>
      <trkpt lat="42.87918" lon="1.18393">
        <ele>659.8</ele>
        <time>2024-02-04T13:47:41Z</time>
      </trkpt>
      <trkpt lat="42.87919" lon="1.18393">
        <ele>659</ele>
        <time>2024-02-04T13:47:42Z</time>
      </trkpt>
      <trkpt lat="42.87919" lon="1.18393">
        <ele>658.2</ele>
        <time>2024-02-04T13:47:43Z</time>
      </trkpt>
      <trkpt lat="42.87912" lon="1.18385">
        <ele>654.6</ele>
        <time>2024-02-04T13:47:46Z</time>
      </trkpt>
      <trkpt lat="42.87902" lon="1.18374">
        <ele>654.2</ele>
        <time>2024-02-04T13:47:47Z</time>
      </trkpt>
      <trkpt lat="42.87894" lon="1.18367">
        <ele>653.8</ele>
        <time>2024-02-04T13:47:48Z</time>
      </trkpt>
      <trkpt lat="42.87887" lon="1.18362">
        <ele>653.4</ele>
        <time>2024-02-04T13:47:49Z</time>
      </trkpt>
      <trkpt lat="42.87878" lon="1.18356">
        <ele>653</ele>
        <time>2024-02-04T13:47:50Z</time>
      </trkpt>
      <trkpt lat="42.8787" lon="1.18352">
        <ele>652.4</ele>
        <time>2024-02-04T13:47:51Z</time>
      </trkpt>
      <trkpt lat="42.87861" lon="1.18345">
        <ele>651.8</ele>
        <time>2024-02-04T13:47:52Z</time>
      </trkpt>
      <trkpt lat="42.87852" lon="1.18338">
        <ele>651.2</ele>
        <time>2024-02-04T13:47:53Z</time>
      </trkpt>
      <trkpt lat="42.87843" lon="1.18331">
        <ele>650.6</ele>
        <time>2024-02-04T13:47:54Z</time>
      </trkpt>
      <trkpt lat="42.87833" lon="1.18323">
        <ele>650</ele>
        <time>2024-02-04T13:47:55Z</time>
      </trkpt>
      <trkpt lat="42.87824" lon="1.18313">
        <ele>649.6</ele>
        <time>2024-02-04T13:47:56Z</time>
      </trkpt>
      <trkpt lat="42.87815" lon="1.18303">
        <ele>649</ele>
        <time>2024-02-04T13:47:57Z</time>
      </trkpt>
      <trkpt lat="42.87809" lon="1.1829">
        <ele>648.6</ele>
        <time>2024-02-04T13:47:58Z</time>
      </trkpt>
      <trkpt lat="42.87806" lon="1.18276">
        <ele>648.2</ele>
        <time>2024-02-04T13:47:59Z</time>
      </trkpt>
      <trkpt lat="42.87804" lon="1.18263">
        <ele>647.6</ele>
        <time>2024-02-04T13:48:00Z</time>
      </trkpt>
      <trkpt lat="42.87803" lon="1.1825">
        <ele>647</ele>
        <time>2024-02-04T13:48:01Z</time>
      </trkpt>
      <trkpt lat="42.87804" lon="1.18239">
        <ele>646.2</ele>
        <time>2024-02-04T13:48:02Z</time>
      </trkpt>
      <trkpt lat="42.87807" lon="1.18228">
        <ele>645.6</ele>
        <time>2024-02-04T13:48:03Z</time>
      </trkpt>
      <trkpt lat="42.87809" lon="1.18218">
        <ele>644.8</ele>
        <time>2024-02-04T13:48:04Z</time>
      </trkpt>
      <trkpt lat="42.87812" lon="1.18207">
        <ele>644</ele>
        <time>2024-02-04T13:48:05Z</time>
      </trkpt>
      <trkpt lat="42.87816" lon="1.18198">
        <ele>643.2</ele>
        <time>2024-02-04T13:48:06Z</time>
      </trkpt>
      <trkpt lat="42.87821" lon="1.18189">
        <ele>642.6</ele>
        <time>2024-02-04T13:48:07Z</time>
      </trkpt>
      <trkpt lat="42.87825" lon="1.18182">
        <ele>641.8</ele>
        <time>2024-02-04T13:48:08Z</time>
      </trkpt>
      <trkpt lat="42.8783" lon="1.18174">
        <ele>641</ele>
        <time>2024-02-04T13:48:09Z</time>
      </trkpt>
      <trkpt lat="42.87835" lon="1.18167">
        <ele>640.2</ele>
        <time>2024-02-04T13:48:10Z</time>
      </trkpt>
      <trkpt lat="42.87841" lon="1.1816">
        <ele>639.8</ele>
        <time>2024-02-04T13:48:11Z</time>
      </trkpt>
      <trkpt lat="42.87847" lon="1.18154">
        <ele>639.4</ele>
        <time>2024-02-04T13:48:12Z</time>
      </trkpt>
      <trkpt lat="42.87854" lon="1.18148">
        <ele>639</ele>
        <time>2024-02-04T13:48:13Z</time>
      </trkpt>
      <trkpt lat="42.8786" lon="1.18141">
        <ele>638.4</ele>
        <time>2024-02-04T13:48:14Z</time>
      </trkpt>
      <trkpt lat="42.87866" lon="1.18133">
        <ele>637.8</ele>
        <time>2024-02-04T13:48:15Z</time>
      </trkpt>
      <trkpt lat="42.87871" lon="1.18124">
        <ele>636.8</ele>
        <time>2024-02-04T13:48:16Z</time>
      </trkpt>
      <trkpt lat="42.87871" lon="1.18111">
        <ele>636</ele>
        <time>2024-02-04T13:48:17Z</time>
      </trkpt>
      <trkpt lat="42.87873" lon="1.18099">
        <ele>635</ele>
        <time>2024-02-04T13:48:18Z</time>
      </trkpt>
      <trkpt lat="42.87877" lon="1.18088">
        <ele>634.2</ele>
        <time>2024-02-04T13:48:19Z</time>
      </trkpt>
      <trkpt lat="42.87883" lon="1.18078">
        <ele>633.2</ele>
        <time>2024-02-04T13:48:20Z</time>
      </trkpt>
      <trkpt lat="42.8789" lon="1.18067">
        <ele>633.2</ele>
        <time>2024-02-04T13:48:21Z</time>
      </trkpt>
      <trkpt lat="42.87904" lon="1.18047">
        <ele>632.8</ele>
        <time>2024-02-04T13:48:23Z</time>
      </trkpt>
      <trkpt lat="42.8791" lon="1.18037">
        <ele>632.4</ele>
        <time>2024-02-04T13:48:24Z</time>
      </trkpt>
      <trkpt lat="42.87918" lon="1.18027">
        <ele>632</ele>
        <time>2024-02-04T13:48:25Z</time>
      </trkpt>
      <trkpt lat="42.87925" lon="1.18018">
        <ele>631.6</ele>
        <time>2024-02-04T13:48:26Z</time>
      </trkpt>
      <trkpt lat="42.87932" lon="1.18008">
        <ele>631</ele>
        <time>2024-02-04T13:48:27Z</time>
      </trkpt>
      <trkpt lat="42.87939" lon="1.17998">
        <ele>630.4</ele>
        <time>2024-02-04T13:48:28Z</time>
      </trkpt>
      <trkpt lat="42.87946" lon="1.17988">
        <ele>629.8</ele>
        <time>2024-02-04T13:48:29Z</time>
      </trkpt>
      <trkpt lat="42.87953" lon="1.1798">
        <ele>629</ele>
        <time>2024-02-04T13:48:30Z</time>
      </trkpt>
      <trkpt lat="42.87959" lon="1.17973">
        <ele>628.4</ele>
        <time>2024-02-04T13:48:31Z</time>
      </trkpt>
      <trkpt lat="42.87963" lon="1.17967">
        <ele>627.8</ele>
        <time>2024-02-04T13:48:32Z</time>
      </trkpt>
      <trkpt lat="42.87967" lon="1.17961">
        <ele>627</ele>
        <time>2024-02-04T13:48:33Z</time>
      </trkpt>
      <trkpt lat="42.87968" lon="1.17956">
        <ele>626.2</ele>
        <time>2024-02-04T13:48:34Z</time>
      </trkpt>
      <trkpt lat="42.87966" lon="1.17952">
        <ele>624.6</ele>
        <time>2024-02-04T13:48:35Z</time>
      </trkpt>
      <trkpt lat="42.87961" lon="1.17947">
        <ele>623.8</ele>
        <time>2024-02-04T13:48:36Z</time>
      </trkpt>
      <trkpt lat="42.87956" lon="1.17945">
        <ele>623.8</ele>
        <time>2024-02-04T13:48:37Z</time>
      </trkpt>
      <trkpt lat="42.87937" lon="1.1794">
        <ele>623.8</ele>
        <time>2024-02-04T13:48:41Z</time>
      </trkpt>
      <trkpt lat="42.87931" lon="1.1794">
        <ele>623.8</ele>
        <time>2024-02-04T13:48:42Z</time>
      </trkpt>
      <trkpt lat="42.87921" lon="1.17937">
        <ele>624.4</ele>
        <time>2024-02-04T13:48:44Z</time>
      </trkpt>
      <trkpt lat="42.87915" lon="1.17936">
        <ele>624.8</ele>
        <time>2024-02-04T13:48:45Z</time>
      </trkpt>
      <trkpt lat="42.87911" lon="1.17934">
        <ele>625.4</ele>
        <time>2024-02-04T13:48:46Z</time>
      </trkpt>
      <trkpt lat="42.87907" lon="1.17933">
        <ele>625.8</ele>
        <time>2024-02-04T13:48:47Z</time>
      </trkpt>
      <trkpt lat="42.87902" lon="1.17931">
        <ele>626.2</ele>
        <time>2024-02-04T13:48:48Z</time>
      </trkpt>
      <trkpt lat="42.87898" lon="1.17928">
        <ele>626.8</ele>
        <time>2024-02-04T13:48:49Z</time>
      </trkpt>
      <trkpt lat="42.87894" lon="1.17927">
        <ele>627.2</ele>
        <time>2024-02-04T13:48:50Z</time>
      </trkpt>
      <trkpt lat="42.8789" lon="1.17926">
        <ele>627.6</ele>
        <time>2024-02-04T13:48:51Z</time>
      </trkpt>
      <trkpt lat="42.87886" lon="1.17924">
        <ele>628.2</ele>
        <time>2024-02-04T13:48:52Z</time>
      </trkpt>
      <trkpt lat="42.87882" lon="1.17923">
        <ele>628.6</ele>
        <time>2024-02-04T13:48:53Z</time>
      </trkpt>
      <trkpt lat="42.87879" lon="1.17921">
        <ele>629</ele>
        <time>2024-02-04T13:48:54Z</time>
      </trkpt>
      <trkpt lat="42.87875" lon="1.17918">
        <ele>629.6</ele>
        <time>2024-02-04T13:48:55Z</time>
      </trkpt>
      <trkpt lat="42.87871" lon="1.17916">
        <ele>630</ele>
        <time>2024-02-04T13:48:56Z</time>
      </trkpt>
      <trkpt lat="42.87867" lon="1.17915">
        <ele>630.4</ele>
        <time>2024-02-04T13:48:57Z</time>
      </trkpt>
      <trkpt lat="42.87863" lon="1.17914">
        <ele>631</ele>
        <time>2024-02-04T13:48:58Z</time>
      </trkpt>
      <trkpt lat="42.87859" lon="1.17912">
        <ele>631.4</ele>
        <time>2024-02-04T13:48:59Z</time>
      </trkpt>
      <trkpt lat="42.87855" lon="1.17913">
        <ele>632.2</ele>
        <time>2024-02-04T13:49:00Z</time>
      </trkpt>
      <trkpt lat="42.87852" lon="1.17915">
        <ele>632.6</ele>
        <time>2024-02-04T13:49:01Z</time>
      </trkpt>
      <trkpt lat="42.87849" lon="1.17916">
        <ele>633</ele>
        <time>2024-02-04T13:49:02Z</time>
      </trkpt>
      <trkpt lat="42.87839" lon="1.17923">
        <ele>633.4</ele>
        <time>2024-02-04T13:49:05Z</time>
      </trkpt>
      <trkpt lat="42.87836" lon="1.17924">
        <ele>633.8</ele>
        <time>2024-02-04T13:49:06Z</time>
      </trkpt>
      <trkpt lat="42.87833" lon="1.17925">
        <ele>634.4</ele>
        <time>2024-02-04T13:49:07Z</time>
      </trkpt>
      <trkpt lat="42.8783" lon="1.17927">
        <ele>634.8</ele>
        <time>2024-02-04T13:49:08Z</time>
      </trkpt>
      <trkpt lat="42.87826" lon="1.17928">
        <ele>635.2</ele>
        <time>2024-02-04T13:49:09Z</time>
      </trkpt>
      <trkpt lat="42.8782" lon="1.1793">
        <ele>635.6</ele>
        <time>2024-02-04T13:49:11Z</time>
      </trkpt>
      <trkpt lat="42.87817" lon="1.1793">
        <ele>636</ele>
        <time>2024-02-04T13:49:12Z</time>
      </trkpt>
      <trkpt lat="42.87814" lon="1.1793">
        <ele>636.4</ele>
        <time>2024-02-04T13:49:13Z</time>
      </trkpt>
      <trkpt lat="42.8781" lon="1.17929">
        <ele>636.8</ele>
        <time>2024-02-04T13:49:14Z</time>
      </trkpt>
      <trkpt lat="42.87806" lon="1.17929">
        <ele>637.2</ele>
        <time>2024-02-04T13:49:15Z</time>
      </trkpt>
      <trkpt lat="42.87795" lon="1.17929">
        <ele>637.6</ele>
        <time>2024-02-04T13:49:18Z</time>
      </trkpt>
      <trkpt lat="42.87791" lon="1.1793">
        <ele>638</ele>
        <time>2024-02-04T13:49:19Z</time>
      </trkpt>
      <trkpt lat="42.87787" lon="1.1793">
        <ele>638.6</ele>
        <time>2024-02-04T13:49:20Z</time>
      </trkpt>
      <trkpt lat="42.87783" lon="1.17929">
        <ele>639</ele>
        <time>2024-02-04T13:49:21Z</time>
      </trkpt>
      <trkpt lat="42.8778" lon="1.17929">
        <ele>639.4</ele>
        <time>2024-02-04T13:49:22Z</time>
      </trkpt>
      <trkpt lat="42.87774" lon="1.17931">
        <ele>640</ele>
        <time>2024-02-04T13:49:24Z</time>
      </trkpt>
      <trkpt lat="42.8777" lon="1.17932">
        <ele>640.4</ele>
        <time>2024-02-04T13:49:25Z</time>
      </trkpt>
      <trkpt lat="42.87767" lon="1.17933">
        <ele>640.8</ele>
        <time>2024-02-04T13:49:26Z</time>
      </trkpt>
      <trkpt lat="42.87764" lon="1.17934">
        <ele>641.2</ele>
        <time>2024-02-04T13:49:27Z</time>
      </trkpt>
      <trkpt lat="42.87762" lon="1.17934">
        <ele>641.8</ele>
        <time>2024-02-04T13:49:28Z</time>
      </trkpt>
      <trkpt lat="42.87756" lon="1.17937">
        <ele>642.2</ele>
        <time>2024-02-04T13:49:30Z</time>
      </trkpt>
      <trkpt lat="42.87752" lon="1.17939">
        <ele>642.6</ele>
        <time>2024-02-04T13:49:31Z</time>
      </trkpt>
      <trkpt lat="42.8775" lon="1.1794">
        <ele>643</ele>
        <time>2024-02-04T13:49:32Z</time>
      </trkpt>
      <trkpt lat="42.87747" lon="1.17941">
        <ele>643.6</ele>
        <time>2024-02-04T13:49:33Z</time>
      </trkpt>
      <trkpt lat="42.87745" lon="1.17941">
        <ele>644</ele>
        <time>2024-02-04T13:49:34Z</time>
      </trkpt>
      <trkpt lat="42.87742" lon="1.17942">
        <ele>644</ele>
        <time>2024-02-04T13:49:35Z</time>
      </trkpt>
      <trkpt lat="42.8773" lon="1.17944">
        <ele>644.4</ele>
        <time>2024-02-04T13:49:38Z</time>
      </trkpt>
      <trkpt lat="42.87727" lon="1.17944">
        <ele>644.8</ele>
        <time>2024-02-04T13:49:39Z</time>
      </trkpt>
      <trkpt lat="42.87723" lon="1.17943">
        <ele>645.2</ele>
        <time>2024-02-04T13:49:40Z</time>
      </trkpt>
      <trkpt lat="42.87719" lon="1.17942">
        <ele>645.8</ele>
        <time>2024-02-04T13:49:41Z</time>
      </trkpt>
      <trkpt lat="42.87716" lon="1.17942">
        <ele>646.2</ele>
        <time>2024-02-04T13:49:42Z</time>
      </trkpt>
      <trkpt lat="42.87701" lon="1.17938">
        <ele>646.2</ele>
        <time>2024-02-04T13:49:47Z</time>
      </trkpt>
      <trkpt lat="42.87693" lon="1.17939">
        <ele>647</ele>
        <time>2024-02-04T13:49:49Z</time>
      </trkpt>
      <trkpt lat="42.87689" lon="1.1794">
        <ele>647.4</ele>
        <time>2024-02-04T13:49:50Z</time>
      </trkpt>
      <trkpt lat="42.87686" lon="1.1794">
        <ele>647.8</ele>
        <time>2024-02-04T13:49:51Z</time>
      </trkpt>
      <trkpt lat="42.87682" lon="1.17941">
        <ele>648.2</ele>
        <time>2024-02-04T13:49:52Z</time>
      </trkpt>
      <trkpt lat="42.87679" lon="1.17943">
        <ele>648.2</ele>
        <time>2024-02-04T13:49:53Z</time>
      </trkpt>
      <trkpt lat="42.87661" lon="1.17959">
        <ele>648.2</ele>
        <time>2024-02-04T13:49:59Z</time>
      </trkpt>
      <trkpt lat="42.87659" lon="1.17963">
        <ele>648.6</ele>
        <time>2024-02-04T13:50:00Z</time>
      </trkpt>
      <trkpt lat="42.87657" lon="1.17966">
        <ele>649</ele>
        <time>2024-02-04T13:50:01Z</time>
      </trkpt>
      <trkpt lat="42.87655" lon="1.17968">
        <ele>649.6</ele>
        <time>2024-02-04T13:50:02Z</time>
      </trkpt>
      <trkpt lat="42.87653" lon="1.17972">
        <ele>650</ele>
        <time>2024-02-04T13:50:03Z</time>
      </trkpt>
      <trkpt lat="42.87651" lon="1.17975">
        <ele>650.4</ele>
        <time>2024-02-04T13:50:04Z</time>
      </trkpt>
      <trkpt lat="42.8763" lon="1.17995">
        <ele>650.4</ele>
        <time>2024-02-04T13:50:11Z</time>
      </trkpt>
      <trkpt lat="42.87627" lon="1.17998">
        <ele>650.8</ele>
        <time>2024-02-04T13:50:12Z</time>
      </trkpt>
      <trkpt lat="42.87624" lon="1.18">
        <ele>651.2</ele>
        <time>2024-02-04T13:50:13Z</time>
      </trkpt>
      <trkpt lat="42.87621" lon="1.18002">
        <ele>652.2</ele>
        <time>2024-02-04T13:50:14Z</time>
      </trkpt>
      <trkpt lat="42.87619" lon="1.18004">
        <ele>652.6</ele>
        <time>2024-02-04T13:50:15Z</time>
      </trkpt>
      <trkpt lat="42.87612" lon="1.18008">
        <ele>652.6</ele>
        <time>2024-02-04T13:50:17Z</time>
      </trkpt>
      <trkpt lat="42.87606" lon="1.18011">
        <ele>653</ele>
        <time>2024-02-04T13:50:19Z</time>
      </trkpt>
      <trkpt lat="42.87603" lon="1.18012">
        <ele>653.4</ele>
        <time>2024-02-04T13:50:20Z</time>
      </trkpt>
      <trkpt lat="42.876" lon="1.18014">
        <ele>653.8</ele>
        <time>2024-02-04T13:50:21Z</time>
      </trkpt>
      <trkpt lat="42.87596" lon="1.18015">
        <ele>654.2</ele>
        <time>2024-02-04T13:50:22Z</time>
      </trkpt>
      <trkpt lat="42.87593" lon="1.18016">
        <ele>654.8</ele>
        <time>2024-02-04T13:50:23Z</time>
      </trkpt>
      <trkpt lat="42.8758" lon="1.18016">
        <ele>655.2</ele>
        <time>2024-02-04T13:50:27Z</time>
      </trkpt>
      <trkpt lat="42.87577" lon="1.18015">
        <ele>655.6</ele>
        <time>2024-02-04T13:50:28Z</time>
      </trkpt>
      <trkpt lat="42.87574" lon="1.18014">
        <ele>656.2</ele>
        <time>2024-02-04T13:50:29Z</time>
      </trkpt>
      <trkpt lat="42.87572" lon="1.18013">
        <ele>656.6</ele>
        <time>2024-02-04T13:50:30Z</time>
      </trkpt>
      <trkpt lat="42.87569" lon="1.18011">
        <ele>657</ele>
        <time>2024-02-04T13:50:31Z</time>
      </trkpt>
      <trkpt lat="42.87565" lon="1.18008">
        <ele>657.4</ele>
        <time>2024-02-04T13:50:33Z</time>
      </trkpt>
      <trkpt lat="42.87563" lon="1.18006">
        <ele>657.8</ele>
        <time>2024-02-04T13:50:34Z</time>
      </trkpt>
      <trkpt lat="42.87561" lon="1.18003">
        <ele>658.4</ele>
        <time>2024-02-04T13:50:35Z</time>
      </trkpt>
      <trkpt lat="42.87559" lon="1.18">
        <ele>658.8</ele>
        <time>2024-02-04T13:50:36Z</time>
      </trkpt>
      <trkpt lat="42.87556" lon="1.17998">
        <ele>659.2</ele>
        <time>2024-02-04T13:50:37Z</time>
      </trkpt>
      <trkpt lat="42.8755" lon="1.17989">
        <ele>659.6</ele>
        <time>2024-02-04T13:50:41Z</time>
      </trkpt>
      <trkpt lat="42.87549" lon="1.17986">
        <ele>660</ele>
        <time>2024-02-04T13:50:42Z</time>
      </trkpt>
      <trkpt lat="42.87548" lon="1.17983">
        <ele>660.4</ele>
        <time>2024-02-04T13:50:43Z</time>
      </trkpt>
      <trkpt lat="42.87546" lon="1.17981">
        <ele>660.8</ele>
        <time>2024-02-04T13:50:44Z</time>
      </trkpt>
      <trkpt lat="42.87545" lon="1.17978">
        <ele>661.2</ele>
        <time>2024-02-04T13:50:45Z</time>
      </trkpt>
      <trkpt lat="42.87545" lon="1.17976">
        <ele>661.2</ele>
        <time>2024-02-04T13:50:46Z</time>
      </trkpt>
      <trkpt lat="42.87546" lon="1.17975">
        <ele>661.2</ele>
        <time>2024-02-04T13:50:47Z</time>
      </trkpt>
      <trkpt lat="42.87548" lon="1.17972">
        <ele>661.6</ele>
        <time>2024-02-04T13:50:48Z</time>
      </trkpt>
      <trkpt lat="42.87551" lon="1.17968">
        <ele>662</ele>
        <time>2024-02-04T13:50:49Z</time>
      </trkpt>
      <trkpt lat="42.87553" lon="1.17966">
        <ele>662.4</ele>
        <time>2024-02-04T13:50:50Z</time>
      </trkpt>
      <trkpt lat="42.87555" lon="1.17962">
        <ele>662.8</ele>
        <time>2024-02-04T13:50:51Z</time>
      </trkpt>
      <trkpt lat="42.87557" lon="1.17959">
        <ele>663.2</ele>
        <time>2024-02-04T13:50:52Z</time>
      </trkpt>
      <trkpt lat="42.8756" lon="1.17953">
        <ele>663.6</ele>
        <time>2024-02-04T13:50:54Z</time>
      </trkpt>
      <trkpt lat="42.87562" lon="1.1795">
        <ele>664</ele>
        <time>2024-02-04T13:50:55Z</time>
      </trkpt>
      <trkpt lat="42.87564" lon="1.17947">
        <ele>664.6</ele>
        <time>2024-02-04T13:50:56Z</time>
      </trkpt>
      <trkpt lat="42.87566" lon="1.17943">
        <ele>665</ele>
        <time>2024-02-04T13:50:57Z</time>
      </trkpt>
      <trkpt lat="42.87568" lon="1.1794">
        <ele>665.4</ele>
        <time>2024-02-04T13:50:58Z</time>
      </trkpt>
      <trkpt lat="42.8757" lon="1.17934">
        <ele>665.8</ele>
        <time>2024-02-04T13:51:00Z</time>
      </trkpt>
      <trkpt lat="42.87571" lon="1.17931">
        <ele>666.4</ele>
        <time>2024-02-04T13:51:01Z</time>
      </trkpt>
      <trkpt lat="42.87572" lon="1.17928">
        <ele>666.8</ele>
        <time>2024-02-04T13:51:02Z</time>
      </trkpt>
      <trkpt lat="42.87573" lon="1.17925">
        <ele>667.6</ele>
        <time>2024-02-04T13:51:03Z</time>
      </trkpt>
      <trkpt lat="42.87575" lon="1.17923">
        <ele>667.6</ele>
        <time>2024-02-04T13:51:04Z</time>
      </trkpt>
      <trkpt lat="42.87578" lon="1.17916">
        <ele>668.2</ele>
        <time>2024-02-04T13:51:06Z</time>
      </trkpt>
      <trkpt lat="42.87579" lon="1.17913">
        <ele>668.6</ele>
        <time>2024-02-04T13:51:07Z</time>
      </trkpt>
      <trkpt lat="42.8758" lon="1.1791">
        <ele>669</ele>
        <time>2024-02-04T13:51:08Z</time>
      </trkpt>
      <trkpt lat="42.87581" lon="1.17908">
        <ele>669.6</ele>
        <time>2024-02-04T13:51:09Z</time>
      </trkpt>
      <trkpt lat="42.87583" lon="1.17905">
        <ele>670</ele>
        <time>2024-02-04T13:51:10Z</time>
      </trkpt>
      <trkpt lat="42.87586" lon="1.17899">
        <ele>670.4</ele>
        <time>2024-02-04T13:51:12Z</time>
      </trkpt>
      <trkpt lat="42.87588" lon="1.17896">
        <ele>670.8</ele>
        <time>2024-02-04T13:51:13Z</time>
      </trkpt>
      <trkpt lat="42.87589" lon="1.17893">
        <ele>671.2</ele>
        <time>2024-02-04T13:51:14Z</time>
      </trkpt>
      <trkpt lat="42.8759" lon="1.1789">
        <ele>671.6</ele>
        <time>2024-02-04T13:51:15Z</time>
      </trkpt>
      <trkpt lat="42.87592" lon="1.17888">
        <ele>672</ele>
        <time>2024-02-04T13:51:16Z</time>
      </trkpt>
      <trkpt lat="42.87596" lon="1.17883">
        <ele>672.4</ele>
        <time>2024-02-04T13:51:18Z</time>
      </trkpt>
      <trkpt lat="42.87599" lon="1.1788">
        <ele>672.8</ele>
        <time>2024-02-04T13:51:19Z</time>
      </trkpt>
      <trkpt lat="42.876" lon="1.17878">
        <ele>673.2</ele>
        <time>2024-02-04T13:51:20Z</time>
      </trkpt>
      <trkpt lat="42.87602" lon="1.17875">
        <ele>673.6</ele>
        <time>2024-02-04T13:51:21Z</time>
      </trkpt>
      <trkpt lat="42.87603" lon="1.17872">
        <ele>674</ele>
        <time>2024-02-04T13:51:22Z</time>
      </trkpt>
      <trkpt lat="42.87605" lon="1.17869">
        <ele>674</ele>
        <time>2024-02-04T13:51:23Z</time>
      </trkpt>
      <trkpt lat="42.87606" lon="1.17866">
        <ele>674.6</ele>
        <time>2024-02-04T13:51:24Z</time>
      </trkpt>
      <trkpt lat="42.87608" lon="1.17864">
        <ele>675</ele>
        <time>2024-02-04T13:51:25Z</time>
      </trkpt>
      <trkpt lat="42.87609" lon="1.17861">
        <ele>675.4</ele>
        <time>2024-02-04T13:51:26Z</time>
      </trkpt>
      <trkpt lat="42.8761" lon="1.17856">
        <ele>675.8</ele>
        <time>2024-02-04T13:51:27Z</time>
      </trkpt>
      <trkpt lat="42.87612" lon="1.17853">
        <ele>676.2</ele>
        <time>2024-02-04T13:51:28Z</time>
      </trkpt>
      <trkpt lat="42.87613" lon="1.1785">
        <ele>676.6</ele>
        <time>2024-02-04T13:51:29Z</time>
      </trkpt>
      <trkpt lat="42.87615" lon="1.17846">
        <ele>677.2</ele>
        <time>2024-02-04T13:51:30Z</time>
      </trkpt>
      <trkpt lat="42.87617" lon="1.17843">
        <ele>677.6</ele>
        <time>2024-02-04T13:51:31Z</time>
      </trkpt>
      <trkpt lat="42.87618" lon="1.1784">
        <ele>678</ele>
        <time>2024-02-04T13:51:32Z</time>
      </trkpt>
      <trkpt lat="42.8762" lon="1.17836">
        <ele>678.6</ele>
        <time>2024-02-04T13:51:33Z</time>
      </trkpt>
      <trkpt lat="42.87623" lon="1.17824">
        <ele>679</ele>
        <time>2024-02-04T13:51:36Z</time>
      </trkpt>
      <trkpt lat="42.87624" lon="1.1782">
        <ele>679.4</ele>
        <time>2024-02-04T13:51:37Z</time>
      </trkpt>
      <trkpt lat="42.87626" lon="1.17817">
        <ele>680</ele>
        <time>2024-02-04T13:51:38Z</time>
      </trkpt>
      <trkpt lat="42.87628" lon="1.17814">
        <ele>680.4</ele>
        <time>2024-02-04T13:51:39Z</time>
      </trkpt>
      <trkpt lat="42.8763" lon="1.17812">
        <ele>681</ele>
        <time>2024-02-04T13:51:40Z</time>
      </trkpt>
      <trkpt lat="42.87632" lon="1.17809">
        <ele>681.4</ele>
        <time>2024-02-04T13:51:41Z</time>
      </trkpt>
      <trkpt lat="42.87634" lon="1.17806">
        <ele>681.8</ele>
        <time>2024-02-04T13:51:42Z</time>
      </trkpt>
      <trkpt lat="42.87635" lon="1.17803">
        <ele>682.4</ele>
        <time>2024-02-04T13:51:43Z</time>
      </trkpt>
      <trkpt lat="42.87636" lon="1.17799">
        <ele>682.8</ele>
        <time>2024-02-04T13:51:44Z</time>
      </trkpt>
      <trkpt lat="42.87637" lon="1.17795">
        <ele>683.4</ele>
        <time>2024-02-04T13:51:45Z</time>
      </trkpt>
      <trkpt lat="42.8764" lon="1.17781">
        <ele>683.8</ele>
        <time>2024-02-04T13:51:49Z</time>
      </trkpt>
      <trkpt lat="42.87641" lon="1.17777">
        <ele>684.2</ele>
        <time>2024-02-04T13:51:50Z</time>
      </trkpt>
      <trkpt lat="42.87642" lon="1.17774">
        <ele>684.8</ele>
        <time>2024-02-04T13:51:51Z</time>
      </trkpt>
      <trkpt lat="42.87641" lon="1.17769">
        <ele>685.2</ele>
        <time>2024-02-04T13:51:52Z</time>
      </trkpt>
      <trkpt lat="42.87642" lon="1.17766">
        <ele>686</ele>
        <time>2024-02-04T13:51:53Z</time>
      </trkpt>
      <trkpt lat="42.8764" lon="1.17761">
        <ele>686.6</ele>
        <time>2024-02-04T13:51:54Z</time>
      </trkpt>
      <trkpt lat="42.8764" lon="1.17757">
        <ele>687</ele>
        <time>2024-02-04T13:51:55Z</time>
      </trkpt>
      <trkpt lat="42.8764" lon="1.17754">
        <ele>687.4</ele>
        <time>2024-02-04T13:51:56Z</time>
      </trkpt>
      <trkpt lat="42.8764" lon="1.1775">
        <ele>687.8</ele>
        <time>2024-02-04T13:51:57Z</time>
      </trkpt>
      <trkpt lat="42.8764" lon="1.17746">
        <ele>688.2</ele>
        <time>2024-02-04T13:51:58Z</time>
      </trkpt>
      <trkpt lat="42.8764" lon="1.17742">
        <ele>688.8</ele>
        <time>2024-02-04T13:51:59Z</time>
      </trkpt>
      <trkpt lat="42.8764" lon="1.17739">
        <ele>689.2</ele>
        <time>2024-02-04T13:52:00Z</time>
      </trkpt>
      <trkpt lat="42.8764" lon="1.17735">
        <ele>689.6</ele>
        <time>2024-02-04T13:52:01Z</time>
      </trkpt>
      <trkpt lat="42.8764" lon="1.17732">
        <ele>690.2</ele>
        <time>2024-02-04T13:52:02Z</time>
      </trkpt>
      <trkpt lat="42.87641" lon="1.17729">
        <ele>690.6</ele>
        <time>2024-02-04T13:52:03Z</time>
      </trkpt>
      <trkpt lat="42.87641" lon="1.17727">
        <ele>691.2</ele>
        <time>2024-02-04T13:52:04Z</time>
      </trkpt>
      <trkpt lat="42.87641" lon="1.17723">
        <ele>691.6</ele>
        <time>2024-02-04T13:52:05Z</time>
      </trkpt>
      <trkpt lat="42.87642" lon="1.1772">
        <ele>692.2</ele>
        <time>2024-02-04T13:52:06Z</time>
      </trkpt>
      <trkpt lat="42.87643" lon="1.17718">
        <ele>692.8</ele>
        <time>2024-02-04T13:52:07Z</time>
      </trkpt>
      <trkpt lat="42.87644" lon="1.17715">
        <ele>693.4</ele>
        <time>2024-02-04T13:52:08Z</time>
      </trkpt>
      <trkpt lat="42.87646" lon="1.17713">
        <ele>694</ele>
        <time>2024-02-04T13:52:09Z</time>
      </trkpt>
      <trkpt lat="42.87647" lon="1.17712">
        <ele>694.6</ele>
        <time>2024-02-04T13:52:10Z</time>
      </trkpt>
      <trkpt lat="42.87649" lon="1.17711">
        <ele>695.2</ele>
        <time>2024-02-04T13:52:11Z</time>
      </trkpt>
      <trkpt lat="42.8765" lon="1.17709">
        <ele>695.6</ele>
        <time>2024-02-04T13:52:12Z</time>
      </trkpt>
      <trkpt lat="42.87651" lon="1.17708">
        <ele>696</ele>
        <time>2024-02-04T13:52:13Z</time>
      </trkpt>
      <trkpt lat="42.87653" lon="1.17707">
        <ele>696.6</ele>
        <time>2024-02-04T13:52:14Z</time>
      </trkpt>
      <trkpt lat="42.87654" lon="1.17707">
        <ele>697</ele>
        <time>2024-02-04T13:52:15Z</time>
      </trkpt>
      <trkpt lat="42.87656" lon="1.17705">
        <ele>697.6</ele>
        <time>2024-02-04T13:52:16Z</time>
      </trkpt>
      <trkpt lat="42.87657" lon="1.17702">
        <ele>698.6</ele>
        <time>2024-02-04T13:52:17Z</time>
      </trkpt>
      <trkpt lat="42.87659" lon="1.17699">
        <ele>699.2</ele>
        <time>2024-02-04T13:52:18Z</time>
      </trkpt>
      <trkpt lat="42.87662" lon="1.17697">
        <ele>699.6</ele>
        <time>2024-02-04T13:52:19Z</time>
      </trkpt>
      <trkpt lat="42.87664" lon="1.17696">
        <ele>700.2</ele>
        <time>2024-02-04T13:52:20Z</time>
      </trkpt>
      <trkpt lat="42.87666" lon="1.17695">
        <ele>700.6</ele>
        <time>2024-02-04T13:52:21Z</time>
      </trkpt>
      <trkpt lat="42.87668" lon="1.17695">
        <ele>701.2</ele>
        <time>2024-02-04T13:52:22Z</time>
      </trkpt>
      <trkpt lat="42.87673" lon="1.17693">
        <ele>701.6</ele>
        <time>2024-02-04T13:52:24Z</time>
      </trkpt>
      <trkpt lat="42.87674" lon="1.17691">
        <ele>702</ele>
        <time>2024-02-04T13:52:25Z</time>
      </trkpt>
      <trkpt lat="42.87676" lon="1.1769">
        <ele>702.4</ele>
        <time>2024-02-04T13:52:26Z</time>
      </trkpt>
      <trkpt lat="42.87678" lon="1.17687">
        <ele>702.8</ele>
        <time>2024-02-04T13:52:27Z</time>
      </trkpt>
      <trkpt lat="42.87679" lon="1.17686">
        <ele>703.2</ele>
        <time>2024-02-04T13:52:28Z</time>
      </trkpt>
      <trkpt lat="42.87682" lon="1.17681">
        <ele>703.8</ele>
        <time>2024-02-04T13:52:30Z</time>
      </trkpt>
      <trkpt lat="42.87683" lon="1.17679">
        <ele>704.2</ele>
        <time>2024-02-04T13:52:31Z</time>
      </trkpt>
      <trkpt lat="42.87684" lon="1.17676">
        <ele>704.6</ele>
        <time>2024-02-04T13:52:32Z</time>
      </trkpt>
      <trkpt lat="42.87684" lon="1.17673">
        <ele>705</ele>
        <time>2024-02-04T13:52:33Z</time>
      </trkpt>
      <trkpt lat="42.87685" lon="1.1767">
        <ele>705.4</ele>
        <time>2024-02-04T13:52:34Z</time>
      </trkpt>
      <trkpt lat="42.87685" lon="1.17664">
        <ele>706</ele>
        <time>2024-02-04T13:52:36Z</time>
      </trkpt>
      <trkpt lat="42.87685" lon="1.1766">
        <ele>706.4</ele>
        <time>2024-02-04T13:52:37Z</time>
      </trkpt>
      <trkpt lat="42.87685" lon="1.17658">
        <ele>706.8</ele>
        <time>2024-02-04T13:52:38Z</time>
      </trkpt>
      <trkpt lat="42.87687" lon="1.17655">
        <ele>707.2</ele>
        <time>2024-02-04T13:52:39Z</time>
      </trkpt>
      <trkpt lat="42.87688" lon="1.17653">
        <ele>707.8</ele>
        <time>2024-02-04T13:52:40Z</time>
      </trkpt>
      <trkpt lat="42.87691" lon="1.17646">
        <ele>708.6</ele>
        <time>2024-02-04T13:52:43Z</time>
      </trkpt>
      <trkpt lat="42.87692" lon="1.17644">
        <ele>709</ele>
        <time>2024-02-04T13:52:44Z</time>
      </trkpt>
      <trkpt lat="42.87694" lon="1.17642">
        <ele>709.4</ele>
        <time>2024-02-04T13:52:45Z</time>
      </trkpt>
      <trkpt lat="42.87695" lon="1.1764">
        <ele>710</ele>
        <time>2024-02-04T13:52:46Z</time>
      </trkpt>
      <trkpt lat="42.87697" lon="1.17636">
        <ele>710.4</ele>
        <time>2024-02-04T13:52:48Z</time>
      </trkpt>
      <trkpt lat="42.87698" lon="1.17635">
        <ele>711</ele>
        <time>2024-02-04T13:52:49Z</time>
      </trkpt>
      <trkpt lat="42.877" lon="1.17634">
        <ele>711.4</ele>
        <time>2024-02-04T13:52:50Z</time>
      </trkpt>
      <trkpt lat="42.87702" lon="1.17632">
        <ele>711.8</ele>
        <time>2024-02-04T13:52:51Z</time>
      </trkpt>
      <trkpt lat="42.87704" lon="1.17629">
        <ele>712.4</ele>
        <time>2024-02-04T13:52:52Z</time>
      </trkpt>
      <trkpt lat="42.87711" lon="1.17618">
        <ele>712.8</ele>
        <time>2024-02-04T13:52:56Z</time>
      </trkpt>
      <trkpt lat="42.87713" lon="1.17616">
        <ele>713.4</ele>
        <time>2024-02-04T13:52:57Z</time>
      </trkpt>
      <trkpt lat="42.87715" lon="1.17614">
        <ele>713.8</ele>
        <time>2024-02-04T13:52:58Z</time>
      </trkpt>
      <trkpt lat="42.87717" lon="1.17611">
        <ele>714.2</ele>
        <time>2024-02-04T13:52:59Z</time>
      </trkpt>
      <trkpt lat="42.87718" lon="1.17609">
        <ele>714.8</ele>
        <time>2024-02-04T13:53:00Z</time>
      </trkpt>
      <trkpt lat="42.87725" lon="1.17601">
        <ele>715.2</ele>
        <time>2024-02-04T13:53:03Z</time>
      </trkpt>
      <trkpt lat="42.87728" lon="1.17599">
        <ele>715.6</ele>
        <time>2024-02-04T13:53:04Z</time>
      </trkpt>
      <trkpt lat="42.87731" lon="1.17597">
        <ele>716</ele>
        <time>2024-02-04T13:53:05Z</time>
      </trkpt>
      <trkpt lat="42.87733" lon="1.17595">
        <ele>716.4</ele>
        <time>2024-02-04T13:53:06Z</time>
      </trkpt>
      <trkpt lat="42.87736" lon="1.17593">
        <ele>716.8</ele>
        <time>2024-02-04T13:53:07Z</time>
      </trkpt>
      <trkpt lat="42.87745" lon="1.17584">
        <ele>716.8</ele>
        <time>2024-02-04T13:53:11Z</time>
      </trkpt>
      <trkpt lat="42.87747" lon="1.17581">
        <ele>717.2</ele>
        <time>2024-02-04T13:53:12Z</time>
      </trkpt>
      <trkpt lat="42.87749" lon="1.17579">
        <ele>717.6</ele>
        <time>2024-02-04T13:53:13Z</time>
      </trkpt>
      <trkpt lat="42.8775" lon="1.17575">
        <ele>718</ele>
        <time>2024-02-04T13:53:14Z</time>
      </trkpt>
      <trkpt lat="42.8775" lon="1.17571">
        <ele>718.4</ele>
        <time>2024-02-04T13:53:15Z</time>
      </trkpt>
      <trkpt lat="42.8775" lon="1.17568">
        <ele>718.8</ele>
        <time>2024-02-04T13:53:16Z</time>
      </trkpt>
      <trkpt lat="42.87742" lon="1.17567">
        <ele>719.4</ele>
        <time>2024-02-04T13:53:19Z</time>
      </trkpt>
      <trkpt lat="42.8774" lon="1.17568">
        <ele>719.8</ele>
        <time>2024-02-04T13:53:20Z</time>
      </trkpt>
      <trkpt lat="42.87737" lon="1.17569">
        <ele>720.2</ele>
        <time>2024-02-04T13:53:21Z</time>
      </trkpt>
      <trkpt lat="42.87735" lon="1.17571">
        <ele>720.6</ele>
        <time>2024-02-04T13:53:22Z</time>
      </trkpt>
      <trkpt lat="42.87731" lon="1.17573">
        <ele>721</ele>
        <time>2024-02-04T13:53:23Z</time>
      </trkpt>
      <trkpt lat="42.87728" lon="1.17574">
        <ele>721</ele>
        <time>2024-02-04T13:53:24Z</time>
      </trkpt>
      <trkpt lat="42.87723" lon="1.17576">
        <ele>721.4</ele>
        <time>2024-02-04T13:53:26Z</time>
      </trkpt>
      <trkpt lat="42.87721" lon="1.17577">
        <ele>721.8</ele>
        <time>2024-02-04T13:53:27Z</time>
      </trkpt>
      <trkpt lat="42.87719" lon="1.17578">
        <ele>722.2</ele>
        <time>2024-02-04T13:53:28Z</time>
      </trkpt>
      <trkpt lat="42.87717" lon="1.17579">
        <ele>722.6</ele>
        <time>2024-02-04T13:53:29Z</time>
      </trkpt>
      <trkpt lat="42.87714" lon="1.1758">
        <ele>723</ele>
        <time>2024-02-04T13:53:30Z</time>
      </trkpt>
      <trkpt lat="42.87708" lon="1.17583">
        <ele>723.4</ele>
        <time>2024-02-04T13:53:32Z</time>
      </trkpt>
      <trkpt lat="42.87705" lon="1.17584">
        <ele>723.8</ele>
        <time>2024-02-04T13:53:33Z</time>
      </trkpt>
      <trkpt lat="42.87701" lon="1.17584">
        <ele>724.2</ele>
        <time>2024-02-04T13:53:34Z</time>
      </trkpt>
      <trkpt lat="42.87698" lon="1.17585">
        <ele>724.6</ele>
        <time>2024-02-04T13:53:35Z</time>
      </trkpt>
      <trkpt lat="42.87695" lon="1.17585">
        <ele>725</ele>
        <time>2024-02-04T13:53:36Z</time>
      </trkpt>
      <trkpt lat="42.87682" lon="1.17581">
        <ele>725.4</ele>
        <time>2024-02-04T13:53:40Z</time>
      </trkpt>
      <trkpt lat="42.8768" lon="1.17578">
        <ele>725.8</ele>
        <time>2024-02-04T13:53:41Z</time>
      </trkpt>
      <trkpt lat="42.87677" lon="1.17575">
        <ele>726.2</ele>
        <time>2024-02-04T13:53:42Z</time>
      </trkpt>
      <trkpt lat="42.87676" lon="1.17572">
        <ele>726.6</ele>
        <time>2024-02-04T13:53:43Z</time>
      </trkpt>
      <trkpt lat="42.87674" lon="1.17568">
        <ele>727</ele>
        <time>2024-02-04T13:53:44Z</time>
      </trkpt>
      <trkpt lat="42.87669" lon="1.17558">
        <ele>727</ele>
        <time>2024-02-04T13:53:47Z</time>
      </trkpt>
      <trkpt lat="42.87667" lon="1.17551">
        <ele>727.6</ele>
        <time>2024-02-04T13:53:49Z</time>
      </trkpt>
      <trkpt lat="42.87667" lon="1.17546">
        <ele>728</ele>
        <time>2024-02-04T13:53:50Z</time>
      </trkpt>
      <trkpt lat="42.87667" lon="1.17542">
        <ele>728.4</ele>
        <time>2024-02-04T13:53:51Z</time>
      </trkpt>
      <trkpt lat="42.87667" lon="1.17538">
        <ele>728.8</ele>
        <time>2024-02-04T13:53:52Z</time>
      </trkpt>
      <trkpt lat="42.87667" lon="1.17534">
        <ele>729.2</ele>
        <time>2024-02-04T13:53:53Z</time>
      </trkpt>
      <trkpt lat="42.87668" lon="1.17531">
        <ele>729.2</ele>
        <time>2024-02-04T13:53:54Z</time>
      </trkpt>
      <trkpt lat="42.87668" lon="1.17523">
        <ele>729.6</ele>
        <time>2024-02-04T13:53:56Z</time>
      </trkpt>
      <trkpt lat="42.87667" lon="1.17518">
        <ele>730.4</ele>
        <time>2024-02-04T13:53:57Z</time>
      </trkpt>
      <trkpt lat="42.87667" lon="1.17514">
        <ele>730.8</ele>
        <time>2024-02-04T13:53:58Z</time>
      </trkpt>
      <trkpt lat="42.87667" lon="1.1751">
        <ele>731.4</ele>
        <time>2024-02-04T13:53:59Z</time>
      </trkpt>
      <trkpt lat="42.87668" lon="1.17495">
        <ele>731.4</ele>
        <time>2024-02-04T13:54:02Z</time>
      </trkpt>
      <trkpt lat="42.87667" lon="1.17485">
        <ele>731.8</ele>
        <time>2024-02-04T13:54:04Z</time>
      </trkpt>
      <trkpt lat="42.87668" lon="1.1748">
        <ele>732.2</ele>
        <time>2024-02-04T13:54:05Z</time>
      </trkpt>
      <trkpt lat="42.87668" lon="1.17475">
        <ele>732.6</ele>
        <time>2024-02-04T13:54:06Z</time>
      </trkpt>
      <trkpt lat="42.87669" lon="1.1747">
        <ele>733</ele>
        <time>2024-02-04T13:54:07Z</time>
      </trkpt>
      <trkpt lat="42.8767" lon="1.17466">
        <ele>733.4</ele>
        <time>2024-02-04T13:54:08Z</time>
      </trkpt>
      <trkpt lat="42.87671" lon="1.17462">
        <ele>733.4</ele>
        <time>2024-02-04T13:54:09Z</time>
      </trkpt>
      <trkpt lat="42.87675" lon="1.17453">
        <ele>733.8</ele>
        <time>2024-02-04T13:54:11Z</time>
      </trkpt>
      <trkpt lat="42.87676" lon="1.17449">
        <ele>734.2</ele>
        <time>2024-02-04T13:54:12Z</time>
      </trkpt>
      <trkpt lat="42.87677" lon="1.17444">
        <ele>734.8</ele>
        <time>2024-02-04T13:54:13Z</time>
      </trkpt>
      <trkpt lat="42.87679" lon="1.1744">
        <ele>735.2</ele>
        <time>2024-02-04T13:54:14Z</time>
      </trkpt>
      <trkpt lat="42.8768" lon="1.17436">
        <ele>735.6</ele>
        <time>2024-02-04T13:54:15Z</time>
      </trkpt>
      <trkpt lat="42.87687" lon="1.17422">
        <ele>736</ele>
        <time>2024-02-04T13:54:19Z</time>
      </trkpt>
      <trkpt lat="42.87689" lon="1.17418">
        <ele>736.4</ele>
        <time>2024-02-04T13:54:20Z</time>
      </trkpt>
      <trkpt lat="42.87691" lon="1.17414">
        <ele>737.4</ele>
        <time>2024-02-04T13:54:21Z</time>
      </trkpt>
      <trkpt lat="42.87692" lon="1.17411">
        <ele>737.8</ele>
        <time>2024-02-04T13:54:22Z</time>
      </trkpt>
      <trkpt lat="42.87695" lon="1.17403">
        <ele>738.2</ele>
        <time>2024-02-04T13:54:24Z</time>
      </trkpt>
      <trkpt lat="42.87696" lon="1.17399">
        <ele>738.6</ele>
        <time>2024-02-04T13:54:25Z</time>
      </trkpt>
      <trkpt lat="42.87697" lon="1.17394">
        <ele>739</ele>
        <time>2024-02-04T13:54:26Z</time>
      </trkpt>
      <trkpt lat="42.87698" lon="1.17389">
        <ele>739.6</ele>
        <time>2024-02-04T13:54:27Z</time>
      </trkpt>
      <trkpt lat="42.87698" lon="1.17384">
        <ele>740</ele>
        <time>2024-02-04T13:54:28Z</time>
      </trkpt>
      <trkpt lat="42.87701" lon="1.17361">
        <ele>740</ele>
        <time>2024-02-04T13:54:33Z</time>
      </trkpt>
      <trkpt lat="42.87702" lon="1.17356">
        <ele>740.4</ele>
        <time>2024-02-04T13:54:34Z</time>
      </trkpt>
      <trkpt lat="42.87703" lon="1.17352">
        <ele>740.8</ele>
        <time>2024-02-04T13:54:35Z</time>
      </trkpt>
      <trkpt lat="42.87705" lon="1.17348">
        <ele>741.2</ele>
        <time>2024-02-04T13:54:36Z</time>
      </trkpt>
      <trkpt lat="42.87706" lon="1.17343">
        <ele>741.6</ele>
        <time>2024-02-04T13:54:37Z</time>
      </trkpt>
      <trkpt lat="42.87707" lon="1.17338">
        <ele>742</ele>
        <time>2024-02-04T13:54:38Z</time>
      </trkpt>
      <trkpt lat="42.87711" lon="1.17317">
        <ele>742</ele>
        <time>2024-02-04T13:54:43Z</time>
      </trkpt>
      <trkpt lat="42.87713" lon="1.1731">
        <ele>742.4</ele>
        <time>2024-02-04T13:54:45Z</time>
      </trkpt>
      <trkpt lat="42.87714" lon="1.17307">
        <ele>742.8</ele>
        <time>2024-02-04T13:54:46Z</time>
      </trkpt>
      <trkpt lat="42.87715" lon="1.17303">
        <ele>743.6</ele>
        <time>2024-02-04T13:54:47Z</time>
      </trkpt>
      <trkpt lat="42.87716" lon="1.173">
        <ele>744</ele>
        <time>2024-02-04T13:54:48Z</time>
      </trkpt>
      <trkpt lat="42.87719" lon="1.17282">
        <ele>744.4</ele>
        <time>2024-02-04T13:54:53Z</time>
      </trkpt>
      <trkpt lat="42.87718" lon="1.17276">
        <ele>744.8</ele>
        <time>2024-02-04T13:54:54Z</time>
      </trkpt>
      <trkpt lat="42.87718" lon="1.17272">
        <ele>745.2</ele>
        <time>2024-02-04T13:54:55Z</time>
      </trkpt>
      <trkpt lat="42.87717" lon="1.17266">
        <ele>745.6</ele>
        <time>2024-02-04T13:54:56Z</time>
      </trkpt>
      <trkpt lat="42.87716" lon="1.1726">
        <ele>746.2</ele>
        <time>2024-02-04T13:54:57Z</time>
      </trkpt>
      <trkpt lat="42.87715" lon="1.1725">
        <ele>746.2</ele>
        <time>2024-02-04T13:54:59Z</time>
      </trkpt>
      <trkpt lat="42.87714" lon="1.17241">
        <ele>746.6</ele>
        <time>2024-02-04T13:55:01Z</time>
      </trkpt>
      <trkpt lat="42.87714" lon="1.17236">
        <ele>747</ele>
        <time>2024-02-04T13:55:02Z</time>
      </trkpt>
      <trkpt lat="42.87712" lon="1.17231">
        <ele>747.6</ele>
        <time>2024-02-04T13:55:03Z</time>
      </trkpt>
      <trkpt lat="42.87711" lon="1.17226">
        <ele>748</ele>
        <time>2024-02-04T13:55:04Z</time>
      </trkpt>
      <trkpt lat="42.8771" lon="1.17221">
        <ele>748.4</ele>
        <time>2024-02-04T13:55:05Z</time>
      </trkpt>
      <trkpt lat="42.87708" lon="1.17212">
        <ele>748.8</ele>
        <time>2024-02-04T13:55:07Z</time>
      </trkpt>
      <trkpt lat="42.87707" lon="1.17207">
        <ele>749.2</ele>
        <time>2024-02-04T13:55:08Z</time>
      </trkpt>
      <trkpt lat="42.87705" lon="1.17203">
        <ele>749.6</ele>
        <time>2024-02-04T13:55:09Z</time>
      </trkpt>
      <trkpt lat="42.87704" lon="1.17199">
        <ele>750</ele>
        <time>2024-02-04T13:55:10Z</time>
      </trkpt>
      <trkpt lat="42.87702" lon="1.17195">
        <ele>751</ele>
        <time>2024-02-04T13:55:11Z</time>
      </trkpt>
      <trkpt lat="42.87701" lon="1.17192">
        <ele>751.6</ele>
        <time>2024-02-04T13:55:12Z</time>
      </trkpt>
      <trkpt lat="42.87699" lon="1.17189">
        <ele>752</ele>
        <time>2024-02-04T13:55:13Z</time>
      </trkpt>
      <trkpt lat="42.87698" lon="1.17185">
        <ele>752.6</ele>
        <time>2024-02-04T13:55:14Z</time>
      </trkpt>
      <trkpt lat="42.87694" lon="1.17178">
        <ele>753</ele>
        <time>2024-02-04T13:55:16Z</time>
      </trkpt>
      <trkpt lat="42.87693" lon="1.17174">
        <ele>753.4</ele>
        <time>2024-02-04T13:55:17Z</time>
      </trkpt>
      <trkpt lat="42.87692" lon="1.1717">
        <ele>754</ele>
        <time>2024-02-04T13:55:18Z</time>
      </trkpt>
      <trkpt lat="42.87691" lon="1.17166">
        <ele>754.4</ele>
        <time>2024-02-04T13:55:19Z</time>
      </trkpt>
      <trkpt lat="42.87689" lon="1.17161">
        <ele>754.8</ele>
        <time>2024-02-04T13:55:20Z</time>
      </trkpt>
      <trkpt lat="42.87688" lon="1.17157">
        <ele>754.8</ele>
        <time>2024-02-04T13:55:21Z</time>
      </trkpt>
      <trkpt lat="42.87686" lon="1.17149">
        <ele>755.2</ele>
        <time>2024-02-04T13:55:23Z</time>
      </trkpt>
      <trkpt lat="42.87685" lon="1.17145">
        <ele>755.8</ele>
        <time>2024-02-04T13:55:24Z</time>
      </trkpt>
      <trkpt lat="42.87684" lon="1.1714">
        <ele>756.2</ele>
        <time>2024-02-04T13:55:25Z</time>
      </trkpt>
      <trkpt lat="42.87683" lon="1.17135">
        <ele>756.6</ele>
        <time>2024-02-04T13:55:26Z</time>
      </trkpt>
      <trkpt lat="42.87682" lon="1.17131">
        <ele>757</ele>
        <time>2024-02-04T13:55:27Z</time>
      </trkpt>
      <trkpt lat="42.8768" lon="1.17122">
        <ele>757.4</ele>
        <time>2024-02-04T13:55:29Z</time>
      </trkpt>
      <trkpt lat="42.87679" lon="1.17118">
        <ele>757.8</ele>
        <time>2024-02-04T13:55:30Z</time>
      </trkpt>
      <trkpt lat="42.87679" lon="1.17114">
        <ele>758.2</ele>
        <time>2024-02-04T13:55:31Z</time>
      </trkpt>
      <trkpt lat="42.87679" lon="1.17109">
        <ele>758.6</ele>
        <time>2024-02-04T13:55:32Z</time>
      </trkpt>
      <trkpt lat="42.87678" lon="1.17104">
        <ele>759</ele>
        <time>2024-02-04T13:55:33Z</time>
      </trkpt>
      <trkpt lat="42.87675" lon="1.17092">
        <ele>759.6</ele>
        <time>2024-02-04T13:55:36Z</time>
      </trkpt>
      <trkpt lat="42.87674" lon="1.17088">
        <ele>760</ele>
        <time>2024-02-04T13:55:37Z</time>
      </trkpt>
      <trkpt lat="42.87674" lon="1.17084">
        <ele>760.4</ele>
        <time>2024-02-04T13:55:38Z</time>
      </trkpt>
      <trkpt lat="42.87673" lon="1.1708">
        <ele>760.8</ele>
        <time>2024-02-04T13:55:39Z</time>
      </trkpt>
      <trkpt lat="42.87673" lon="1.17075">
        <ele>761.2</ele>
        <time>2024-02-04T13:55:40Z</time>
      </trkpt>
      <trkpt lat="42.87674" lon="1.17067">
        <ele>761.6</ele>
        <time>2024-02-04T13:55:42Z</time>
      </trkpt>
      <trkpt lat="42.87675" lon="1.17063">
        <ele>762</ele>
        <time>2024-02-04T13:55:43Z</time>
      </trkpt>
      <trkpt lat="42.87678" lon="1.17059">
        <ele>762.6</ele>
        <time>2024-02-04T13:55:44Z</time>
      </trkpt>
      <trkpt lat="42.87681" lon="1.17055">
        <ele>763</ele>
        <time>2024-02-04T13:55:45Z</time>
      </trkpt>
      <trkpt lat="42.87683" lon="1.17051">
        <ele>763.4</ele>
        <time>2024-02-04T13:55:46Z</time>
      </trkpt>
      <trkpt lat="42.87688" lon="1.17043">
        <ele>763.8</ele>
        <time>2024-02-04T13:55:48Z</time>
      </trkpt>
      <trkpt lat="42.8769" lon="1.17039">
        <ele>764.2</ele>
        <time>2024-02-04T13:55:49Z</time>
      </trkpt>
      <trkpt lat="42.87692" lon="1.17036">
        <ele>764.6</ele>
        <time>2024-02-04T13:55:50Z</time>
      </trkpt>
      <trkpt lat="42.87693" lon="1.17032">
        <ele>765</ele>
        <time>2024-02-04T13:55:51Z</time>
      </trkpt>
      <trkpt lat="42.87694" lon="1.17028">
        <ele>765.4</ele>
        <time>2024-02-04T13:55:52Z</time>
      </trkpt>
      <trkpt lat="42.87695" lon="1.17025">
        <ele>765.8</ele>
        <time>2024-02-04T13:55:53Z</time>
      </trkpt>
      <trkpt lat="42.87697" lon="1.17021">
        <ele>766.2</ele>
        <time>2024-02-04T13:55:54Z</time>
      </trkpt>
      <trkpt lat="42.87698" lon="1.17018">
        <ele>766.8</ele>
        <time>2024-02-04T13:55:55Z</time>
      </trkpt>
      <trkpt lat="42.87699" lon="1.17015">
        <ele>767.2</ele>
        <time>2024-02-04T13:55:56Z</time>
      </trkpt>
      <trkpt lat="42.87699" lon="1.17012">
        <ele>767.6</ele>
        <time>2024-02-04T13:55:57Z</time>
      </trkpt>
      <trkpt lat="42.87699" lon="1.17005">
        <ele>768</ele>
        <time>2024-02-04T13:55:59Z</time>
      </trkpt>
      <trkpt lat="42.87699" lon="1.17002">
        <ele>768.4</ele>
        <time>2024-02-04T13:56:00Z</time>
      </trkpt>
      <trkpt lat="42.877" lon="1.16999">
        <ele>769.2</ele>
        <time>2024-02-04T13:56:01Z</time>
      </trkpt>
      <trkpt lat="42.877" lon="1.16995">
        <ele>769.6</ele>
        <time>2024-02-04T13:56:02Z</time>
      </trkpt>
      <trkpt lat="42.87701" lon="1.16991">
        <ele>770.2</ele>
        <time>2024-02-04T13:56:03Z</time>
      </trkpt>
      <trkpt lat="42.87702" lon="1.16987">
        <ele>770.6</ele>
        <time>2024-02-04T13:56:04Z</time>
      </trkpt>
      <trkpt lat="42.87702" lon="1.16983">
        <ele>771.2</ele>
        <time>2024-02-04T13:56:05Z</time>
      </trkpt>
      <trkpt lat="42.87703" lon="1.1698">
        <ele>771.6</ele>
        <time>2024-02-04T13:56:06Z</time>
      </trkpt>
      <trkpt lat="42.87704" lon="1.16977">
        <ele>772.2</ele>
        <time>2024-02-04T13:56:07Z</time>
      </trkpt>
      <trkpt lat="42.87704" lon="1.16969">
        <ele>772.6</ele>
        <time>2024-02-04T13:56:09Z</time>
      </trkpt>
      <trkpt lat="42.87704" lon="1.16966">
        <ele>773</ele>
        <time>2024-02-04T13:56:10Z</time>
      </trkpt>
      <trkpt lat="42.87705" lon="1.16961">
        <ele>773.6</ele>
        <time>2024-02-04T13:56:11Z</time>
      </trkpt>
      <trkpt lat="42.87705" lon="1.16956">
        <ele>774</ele>
        <time>2024-02-04T13:56:12Z</time>
      </trkpt>
      <trkpt lat="42.87705" lon="1.16952">
        <ele>774.4</ele>
        <time>2024-02-04T13:56:13Z</time>
      </trkpt>
      <trkpt lat="42.87705" lon="1.16947">
        <ele>774.8</ele>
        <time>2024-02-04T13:56:14Z</time>
      </trkpt>
      <trkpt lat="42.87705" lon="1.16943">
        <ele>775.2</ele>
        <time>2024-02-04T13:56:15Z</time>
      </trkpt>
      <trkpt lat="42.87705" lon="1.1694">
        <ele>775.6</ele>
        <time>2024-02-04T13:56:16Z</time>
      </trkpt>
      <trkpt lat="42.87705" lon="1.16936">
        <ele>776.2</ele>
        <time>2024-02-04T13:56:17Z</time>
      </trkpt>
      <trkpt lat="42.87705" lon="1.16931">
        <ele>776.6</ele>
        <time>2024-02-04T13:56:18Z</time>
      </trkpt>
      <trkpt lat="42.87708" lon="1.16909">
        <ele>777</ele>
        <time>2024-02-04T13:56:23Z</time>
      </trkpt>
      <trkpt lat="42.87709" lon="1.16905">
        <ele>777.4</ele>
        <time>2024-02-04T13:56:24Z</time>
      </trkpt>
      <trkpt lat="42.8771" lon="1.169">
        <ele>778.2</ele>
        <time>2024-02-04T13:56:25Z</time>
      </trkpt>
      <trkpt lat="42.87712" lon="1.16896">
        <ele>778.6</ele>
        <time>2024-02-04T13:56:26Z</time>
      </trkpt>
      <trkpt lat="42.87716" lon="1.1688">
        <ele>779</ele>
        <time>2024-02-04T13:56:30Z</time>
      </trkpt>
      <trkpt lat="42.87717" lon="1.16876">
        <ele>779.4</ele>
        <time>2024-02-04T13:56:31Z</time>
      </trkpt>
      <trkpt lat="42.87719" lon="1.16873">
        <ele>779.8</ele>
        <time>2024-02-04T13:56:32Z</time>
      </trkpt>
      <trkpt lat="42.8772" lon="1.16869">
        <ele>780.4</ele>
        <time>2024-02-04T13:56:33Z</time>
      </trkpt>
      <trkpt lat="42.87721" lon="1.16866">
        <ele>780.8</ele>
        <time>2024-02-04T13:56:34Z</time>
      </trkpt>
      <trkpt lat="42.87723" lon="1.16862">
        <ele>780.8</ele>
        <time>2024-02-04T13:56:35Z</time>
      </trkpt>
      <trkpt lat="42.87725" lon="1.16855">
        <ele>781.2</ele>
        <time>2024-02-04T13:56:37Z</time>
      </trkpt>
      <trkpt lat="42.87725" lon="1.16851">
        <ele>781.6</ele>
        <time>2024-02-04T13:56:38Z</time>
      </trkpt>
      <trkpt lat="42.87726" lon="1.16847">
        <ele>782</ele>
        <time>2024-02-04T13:56:39Z</time>
      </trkpt>
      <trkpt lat="42.87726" lon="1.16843">
        <ele>782.4</ele>
        <time>2024-02-04T13:56:40Z</time>
      </trkpt>
      <trkpt lat="42.87726" lon="1.16839">
        <ele>782.8</ele>
        <time>2024-02-04T13:56:41Z</time>
      </trkpt>
      <trkpt lat="42.87727" lon="1.16831">
        <ele>783.2</ele>
        <time>2024-02-04T13:56:43Z</time>
      </trkpt>
      <trkpt lat="42.87728" lon="1.16827">
        <ele>783.6</ele>
        <time>2024-02-04T13:56:44Z</time>
      </trkpt>
      <trkpt lat="42.87729" lon="1.16823">
        <ele>784</ele>
        <time>2024-02-04T13:56:45Z</time>
      </trkpt>
      <trkpt lat="42.8773" lon="1.16819">
        <ele>784.4</ele>
        <time>2024-02-04T13:56:46Z</time>
      </trkpt>
      <trkpt lat="42.8773" lon="1.16815">
        <ele>784.8</ele>
        <time>2024-02-04T13:56:47Z</time>
      </trkpt>
      <trkpt lat="42.87732" lon="1.16803">
        <ele>785.6</ele>
        <time>2024-02-04T13:56:50Z</time>
      </trkpt>
      <trkpt lat="42.87733" lon="1.168">
        <ele>786</ele>
        <time>2024-02-04T13:56:51Z</time>
      </trkpt>
      <trkpt lat="42.87734" lon="1.16796">
        <ele>786.4</ele>
        <time>2024-02-04T13:56:52Z</time>
      </trkpt>
      <trkpt lat="42.87735" lon="1.16793">
        <ele>786.8</ele>
        <time>2024-02-04T13:56:53Z</time>
      </trkpt>
      <trkpt lat="42.87738" lon="1.16777">
        <ele>786.8</ele>
        <time>2024-02-04T13:56:57Z</time>
      </trkpt>
      <trkpt lat="42.87739" lon="1.16755">
        <ele>786.8</ele>
        <time>2024-02-04T13:57:02Z</time>
      </trkpt>
      <trkpt lat="42.87739" lon="1.16721">
        <ele>786.8</ele>
        <time>2024-02-04T13:57:08Z</time>
      </trkpt>
      <trkpt lat="42.8777" lon="1.16688">
        <ele>786.8</ele>
        <time>2024-02-04T13:57:15Z</time>
      </trkpt>
      <trkpt lat="42.87769" lon="1.16673">
        <ele>786.8</ele>
        <time>2024-02-04T13:57:18Z</time>
      </trkpt>
      <trkpt lat="42.87769" lon="1.16656">
        <ele>786.8</ele>
        <time>2024-02-04T13:57:21Z</time>
      </trkpt>
      <trkpt lat="42.87765" lon="1.16627">
        <ele>786.8</ele>
        <time>2024-02-04T13:57:27Z</time>
      </trkpt>
      <trkpt lat="42.87755" lon="1.16591">
        <ele>786.8</ele>
        <time>2024-02-04T13:57:34Z</time>
      </trkpt>
      <trkpt lat="42.87753" lon="1.16586">
        <ele>786.8</ele>
        <time>2024-02-04T13:57:35Z</time>
      </trkpt>
      <trkpt lat="42.87746" lon="1.16566">
        <ele>786.8</ele>
        <time>2024-02-04T13:57:39Z</time>
      </trkpt>
      <trkpt lat="42.87737" lon="1.16543">
        <ele>786.8</ele>
        <time>2024-02-04T13:57:44Z</time>
      </trkpt>
      <trkpt lat="42.87735" lon="1.16538">
        <ele>786.8</ele>
        <time>2024-02-04T13:57:45Z</time>
      </trkpt>
      <trkpt lat="42.87725" lon="1.16507">
        <ele>786.8</ele>
        <time>2024-02-04T13:57:51Z</time>
      </trkpt>
      <trkpt lat="42.8772" lon="1.16481">
        <ele>786.8</ele>
        <time>2024-02-04T13:57:57Z</time>
      </trkpt>
      <trkpt lat="42.87721" lon="1.16461">
        <ele>786.8</ele>
        <time>2024-02-04T13:58:01Z</time>
      </trkpt>
      <trkpt lat="42.8773" lon="1.16439">
        <ele>786.8</ele>
        <time>2024-02-04T13:58:06Z</time>
      </trkpt>
      <trkpt lat="42.87746" lon="1.16422">
        <ele>786.8</ele>
        <time>2024-02-04T13:58:11Z</time>
      </trkpt>
      <trkpt lat="42.8775" lon="1.16419">
        <ele>786.8</ele>
        <time>2024-02-04T13:58:12Z</time>
      </trkpt>
      <trkpt lat="42.8777" lon="1.16398">
        <ele>786.8</ele>
        <time>2024-02-04T13:58:18Z</time>
      </trkpt>
      <trkpt lat="42.87773" lon="1.16393">
        <ele>786.8</ele>
        <time>2024-02-04T13:58:19Z</time>
      </trkpt>
      <trkpt lat="42.87778" lon="1.16384">
        <ele>786.8</ele>
        <time>2024-02-04T13:58:21Z</time>
      </trkpt>
      <trkpt lat="42.87781" lon="1.16367">
        <ele>786.8</ele>
        <time>2024-02-04T13:58:24Z</time>
      </trkpt>
      <trkpt lat="42.87782" lon="1.16361">
        <ele>786.8</ele>
        <time>2024-02-04T13:58:25Z</time>
      </trkpt>
      <trkpt lat="42.87783" lon="1.16356">
        <ele>786.8</ele>
        <time>2024-02-04T13:58:26Z</time>
      </trkpt>
      <trkpt lat="42.87789" lon="1.16338">
        <ele>786.8</ele>
        <time>2024-02-04T13:58:29Z</time>
      </trkpt>
      <trkpt lat="42.87795" lon="1.16329">
        <ele>786.8</ele>
        <time>2024-02-04T13:58:31Z</time>
      </trkpt>
      <trkpt lat="42.87798" lon="1.16325">
        <ele>786.8</ele>
        <time>2024-02-04T13:58:32Z</time>
      </trkpt>
      <trkpt lat="42.87804" lon="1.16318">
        <ele>786.8</ele>
        <time>2024-02-04T13:58:34Z</time>
      </trkpt>
      <trkpt lat="42.87823" lon="1.16302">
        <ele>787.2</ele>
        <time>2024-02-04T13:58:39Z</time>
      </trkpt>
      <trkpt lat="42.87826" lon="1.16298">
        <ele>787.6</ele>
        <time>2024-02-04T13:58:40Z</time>
      </trkpt>
      <trkpt lat="42.8783" lon="1.16295">
        <ele>788</ele>
        <time>2024-02-04T13:58:41Z</time>
      </trkpt>
      <trkpt lat="42.87834" lon="1.16291">
        <ele>788.4</ele>
        <time>2024-02-04T13:58:42Z</time>
      </trkpt>
      <trkpt lat="42.87838" lon="1.16289">
        <ele>788.8</ele>
        <time>2024-02-04T13:58:43Z</time>
      </trkpt>
      <trkpt lat="42.8785" lon="1.16283">
        <ele>788.8</ele>
        <time>2024-02-04T13:58:46Z</time>
      </trkpt>
      <trkpt lat="42.87864" lon="1.16277">
        <ele>788.8</ele>
        <time>2024-02-04T13:58:51Z</time>
      </trkpt>
      <trkpt lat="42.8788" lon="1.1627">
        <ele>789.2</ele>
        <time>2024-02-04T13:58:56Z</time>
      </trkpt>
      <trkpt lat="42.87883" lon="1.16267">
        <ele>789.6</ele>
        <time>2024-02-04T13:58:57Z</time>
      </trkpt>
      <trkpt lat="42.87886" lon="1.16265">
        <ele>790</ele>
        <time>2024-02-04T13:58:58Z</time>
      </trkpt>
      <trkpt lat="42.87889" lon="1.16263">
        <ele>790.4</ele>
        <time>2024-02-04T13:58:59Z</time>
      </trkpt>
      <trkpt lat="42.87891" lon="1.1626">
        <ele>791</ele>
        <time>2024-02-04T13:59:00Z</time>
      </trkpt>
      <trkpt lat="42.87902" lon="1.16248">
        <ele>791</ele>
        <time>2024-02-04T13:59:04Z</time>
      </trkpt>
      <trkpt lat="42.87911" lon="1.16238">
        <ele>791.4</ele>
        <time>2024-02-04T13:59:07Z</time>
      </trkpt>
      <trkpt lat="42.87914" lon="1.16234">
        <ele>791.8</ele>
        <time>2024-02-04T13:59:08Z</time>
      </trkpt>
      <trkpt lat="42.87918" lon="1.1623">
        <ele>792.2</ele>
        <time>2024-02-04T13:59:09Z</time>
      </trkpt>
      <trkpt lat="42.8792" lon="1.16226">
        <ele>792.6</ele>
        <time>2024-02-04T13:59:10Z</time>
      </trkpt>
      <trkpt lat="42.87923" lon="1.16222">
        <ele>793</ele>
        <time>2024-02-04T13:59:11Z</time>
      </trkpt>
      <trkpt lat="42.87927" lon="1.16219">
        <ele>793</ele>
        <time>2024-02-04T13:59:12Z</time>
      </trkpt>
      <trkpt lat="42.87938" lon="1.16209">
        <ele>793</ele>
        <time>2024-02-04T13:59:15Z</time>
      </trkpt>
      <trkpt lat="42.87941" lon="1.16207">
        <ele>793</ele>
        <time>2024-02-04T13:59:16Z</time>
      </trkpt>
      <trkpt lat="42.87953" lon="1.16208">
        <ele>793</ele>
        <time>2024-02-04T13:59:19Z</time>
      </trkpt>
      <trkpt lat="42.87961" lon="1.16214">
        <ele>793</ele>
        <time>2024-02-04T13:59:21Z</time>
      </trkpt>
      <trkpt lat="42.87965" lon="1.16218">
        <ele>793.4</ele>
        <time>2024-02-04T13:59:22Z</time>
      </trkpt>
      <trkpt lat="42.87969" lon="1.16221">
        <ele>793.8</ele>
        <time>2024-02-04T13:59:23Z</time>
      </trkpt>
      <trkpt lat="42.87973" lon="1.16224">
        <ele>794.2</ele>
        <time>2024-02-04T13:59:24Z</time>
      </trkpt>
      <trkpt lat="42.87977" lon="1.16227">
        <ele>794.8</ele>
        <time>2024-02-04T13:59:25Z</time>
      </trkpt>
      <trkpt lat="42.8798" lon="1.16229">
        <ele>795.2</ele>
        <time>2024-02-04T13:59:26Z</time>
      </trkpt>
      <trkpt lat="42.87994" lon="1.16236">
        <ele>795.6</ele>
        <time>2024-02-04T13:59:30Z</time>
      </trkpt>
      <trkpt lat="42.87998" lon="1.16237">
        <ele>796</ele>
        <time>2024-02-04T13:59:31Z</time>
      </trkpt>
      <trkpt lat="42.88002" lon="1.16237">
        <ele>796.4</ele>
        <time>2024-02-04T13:59:32Z</time>
      </trkpt>
      <trkpt lat="42.88006" lon="1.16237">
        <ele>797</ele>
        <time>2024-02-04T13:59:33Z</time>
      </trkpt>
      <trkpt lat="42.8801" lon="1.16237">
        <ele>797.4</ele>
        <time>2024-02-04T13:59:34Z</time>
      </trkpt>
      <trkpt lat="42.88017" lon="1.16235">
        <ele>797.4</ele>
        <time>2024-02-04T13:59:36Z</time>
      </trkpt>
      <trkpt lat="42.88024" lon="1.16232">
        <ele>797.8</ele>
        <time>2024-02-04T13:59:38Z</time>
      </trkpt>
      <trkpt lat="42.88028" lon="1.1623">
        <ele>798.2</ele>
        <time>2024-02-04T13:59:39Z</time>
      </trkpt>
      <trkpt lat="42.88031" lon="1.16228">
        <ele>798.6</ele>
        <time>2024-02-04T13:59:40Z</time>
      </trkpt>
      <trkpt lat="42.88034" lon="1.16226">
        <ele>799</ele>
        <time>2024-02-04T13:59:41Z</time>
      </trkpt>
      <trkpt lat="42.88037" lon="1.16223">
        <ele>799.4</ele>
        <time>2024-02-04T13:59:42Z</time>
      </trkpt>
      <trkpt lat="42.88047" lon="1.16216">
        <ele>799.8</ele>
        <time>2024-02-04T13:59:45Z</time>
      </trkpt>
      <trkpt lat="42.8805" lon="1.16214">
        <ele>800.2</ele>
        <time>2024-02-04T13:59:46Z</time>
      </trkpt>
      <trkpt lat="42.88053" lon="1.16211">
        <ele>800.6</ele>
        <time>2024-02-04T13:59:47Z</time>
      </trkpt>
      <trkpt lat="42.88056" lon="1.16209">
        <ele>801.2</ele>
        <time>2024-02-04T13:59:48Z</time>
      </trkpt>
      <trkpt lat="42.88059" lon="1.16207">
        <ele>801.6</ele>
        <time>2024-02-04T13:59:49Z</time>
      </trkpt>
      <trkpt lat="42.88062" lon="1.16205">
        <ele>802</ele>
        <time>2024-02-04T13:59:50Z</time>
      </trkpt>
      <trkpt lat="42.88064" lon="1.16203">
        <ele>802.4</ele>
        <time>2024-02-04T13:59:51Z</time>
      </trkpt>
      <trkpt lat="42.88067" lon="1.16201">
        <ele>802.8</ele>
        <time>2024-02-04T13:59:52Z</time>
      </trkpt>
      <trkpt lat="42.8807" lon="1.16199">
        <ele>803.2</ele>
        <time>2024-02-04T13:59:53Z</time>
      </trkpt>
      <trkpt lat="42.88072" lon="1.16196">
        <ele>803.6</ele>
        <time>2024-02-04T13:59:54Z</time>
      </trkpt>
      <trkpt lat="42.88079" lon="1.16185">
        <ele>803.6</ele>
        <time>2024-02-04T13:59:57Z</time>
      </trkpt>
      <trkpt lat="42.88097" lon="1.1616">
        <ele>803.6</ele>
        <time>2024-02-04T14:00:02Z</time>
      </trkpt>
      <trkpt lat="42.8812" lon="1.1614">
        <ele>803.6</ele>
        <time>2024-02-04T14:00:06Z</time>
      </trkpt>
      <trkpt lat="42.88133" lon="1.1612">
        <ele>803.6</ele>
        <time>2024-02-04T14:00:09Z</time>
      </trkpt>
      <trkpt lat="42.88137" lon="1.16113">
        <ele>803.6</ele>
        <time>2024-02-04T14:00:10Z</time>
      </trkpt>
      <trkpt lat="42.88141" lon="1.16106">
        <ele>803.6</ele>
        <time>2024-02-04T14:00:11Z</time>
      </trkpt>
      <trkpt lat="42.88151" lon="1.16101">
        <ele>803.2</ele>
        <time>2024-02-04T14:00:13Z</time>
      </trkpt>
      <trkpt lat="42.88157" lon="1.16103">
        <ele>802.8</ele>
        <time>2024-02-04T14:00:14Z</time>
      </trkpt>
      <trkpt lat="42.88161" lon="1.16109">
        <ele>802.4</ele>
        <time>2024-02-04T14:00:15Z</time>
      </trkpt>
      <trkpt lat="42.88163" lon="1.16116">
        <ele>802</ele>
        <time>2024-02-04T14:00:16Z</time>
      </trkpt>
      <trkpt lat="42.88164" lon="1.16123">
        <ele>801.6</ele>
        <time>2024-02-04T14:00:17Z</time>
      </trkpt>
      <trkpt lat="42.88165" lon="1.16129">
        <ele>801.6</ele>
        <time>2024-02-04T14:00:18Z</time>
      </trkpt>
      <trkpt lat="42.88166" lon="1.16136">
        <ele>801.6</ele>
        <time>2024-02-04T14:00:19Z</time>
      </trkpt>
      <trkpt lat="42.88177" lon="1.1615">
        <ele>801.6</ele>
        <time>2024-02-04T14:00:22Z</time>
      </trkpt>
      <trkpt lat="42.88181" lon="1.16151">
        <ele>802</ele>
        <time>2024-02-04T14:00:23Z</time>
      </trkpt>
      <trkpt lat="42.88186" lon="1.1615">
        <ele>802.4</ele>
        <time>2024-02-04T14:00:24Z</time>
      </trkpt>
      <trkpt lat="42.88191" lon="1.16149">
        <ele>802.8</ele>
        <time>2024-02-04T14:00:25Z</time>
      </trkpt>
      <trkpt lat="42.88197" lon="1.16147">
        <ele>803.4</ele>
        <time>2024-02-04T14:00:26Z</time>
      </trkpt>
      <trkpt lat="42.88202" lon="1.16145">
        <ele>803.8</ele>
        <time>2024-02-04T14:00:27Z</time>
      </trkpt>
      <trkpt lat="42.88207" lon="1.16142">
        <ele>803.8</ele>
        <time>2024-02-04T14:00:28Z</time>
      </trkpt>
      <trkpt lat="42.88224" lon="1.16135">
        <ele>803.8</ele>
        <time>2024-02-04T14:00:31Z</time>
      </trkpt>
      <trkpt lat="42.88238" lon="1.16142">
        <ele>803.8</ele>
        <time>2024-02-04T14:00:34Z</time>
      </trkpt>
      <trkpt lat="42.8825" lon="1.16145">
        <ele>803.8</ele>
        <time>2024-02-04T14:00:37Z</time>
      </trkpt>
      <trkpt lat="42.88258" lon="1.16143">
        <ele>803.8</ele>
        <time>2024-02-04T14:00:39Z</time>
      </trkpt>
      <trkpt lat="42.88271" lon="1.16138">
        <ele>803.8</ele>
        <time>2024-02-04T14:00:42Z</time>
      </trkpt>
      <trkpt lat="42.88275" lon="1.16135">
        <ele>803.8</ele>
        <time>2024-02-04T14:00:43Z</time>
      </trkpt>
      <trkpt lat="42.88284" lon="1.16132">
        <ele>803.8</ele>
        <time>2024-02-04T14:00:45Z</time>
      </trkpt>
      <trkpt lat="42.88298" lon="1.16129">
        <ele>803.8</ele>
        <time>2024-02-04T14:00:48Z</time>
      </trkpt>
      <trkpt lat="42.88325" lon="1.16126">
        <ele>803.8</ele>
        <time>2024-02-04T14:00:54Z</time>
      </trkpt>
      <trkpt lat="42.88352" lon="1.16124">
        <ele>803.8</ele>
        <time>2024-02-04T14:01:00Z</time>
      </trkpt>
      <trkpt lat="42.88363" lon="1.16122">
        <ele>803.8</ele>
        <time>2024-02-04T14:01:03Z</time>
      </trkpt>
      <trkpt lat="42.88372" lon="1.16119">
        <ele>803.8</ele>
        <time>2024-02-04T14:01:05Z</time>
      </trkpt>
      <trkpt lat="42.88384" lon="1.16111">
        <ele>803.8</ele>
        <time>2024-02-04T14:01:07Z</time>
      </trkpt>
      <trkpt lat="42.8839" lon="1.16106">
        <ele>803.8</ele>
        <time>2024-02-04T14:01:08Z</time>
      </trkpt>
      <trkpt lat="42.884" lon="1.16097">
        <ele>803.8</ele>
        <time>2024-02-04T14:01:10Z</time>
      </trkpt>
      <trkpt lat="42.88404" lon="1.16096">
        <ele>803.8</ele>
        <time>2024-02-04T14:01:11Z</time>
      </trkpt>
      <trkpt lat="42.88413" lon="1.16106">
        <ele>803.8</ele>
        <time>2024-02-04T14:01:13Z</time>
      </trkpt>
      <trkpt lat="42.88419" lon="1.1611">
        <ele>803.8</ele>
        <time>2024-02-04T14:01:14Z</time>
      </trkpt>
      <trkpt lat="42.8843" lon="1.16116">
        <ele>803.8</ele>
        <time>2024-02-04T14:01:16Z</time>
      </trkpt>
      <trkpt lat="42.8845" lon="1.16122">
        <ele>803.8</ele>
        <time>2024-02-04T14:01:19Z</time>
      </trkpt>
      <trkpt lat="42.88462" lon="1.16128">
        <ele>803.8</ele>
        <time>2024-02-04T14:01:21Z</time>
      </trkpt>
      <trkpt lat="42.88473" lon="1.16136">
        <ele>803.8</ele>
        <time>2024-02-04T14:01:23Z</time>
      </trkpt>
      <trkpt lat="42.88487" lon="1.16144">
        <ele>803.8</ele>
        <time>2024-02-04T14:01:26Z</time>
      </trkpt>
      <trkpt lat="42.88492" lon="1.16146">
        <ele>803.8</ele>
        <time>2024-02-04T14:01:27Z</time>
      </trkpt>
      <trkpt lat="42.88515" lon="1.16151">
        <ele>804.2</ele>
        <time>2024-02-04T14:01:32Z</time>
      </trkpt>
      <trkpt lat="42.88519" lon="1.16152">
        <ele>804.6</ele>
        <time>2024-02-04T14:01:33Z</time>
      </trkpt>
      <trkpt lat="42.88523" lon="1.16152">
        <ele>805</ele>
        <time>2024-02-04T14:01:34Z</time>
      </trkpt>
      <trkpt lat="42.88527" lon="1.16151">
        <ele>805.4</ele>
        <time>2024-02-04T14:01:35Z</time>
      </trkpt>
      <trkpt lat="42.88531" lon="1.16149">
        <ele>805.8</ele>
        <time>2024-02-04T14:01:36Z</time>
      </trkpt>
      <trkpt lat="42.88535" lon="1.16147">
        <ele>805.8</ele>
        <time>2024-02-04T14:01:37Z</time>
      </trkpt>
      <trkpt lat="42.88544" lon="1.16127">
        <ele>805.8</ele>
        <time>2024-02-04T14:01:41Z</time>
      </trkpt>
      <trkpt lat="42.88551" lon="1.16092">
        <ele>806.8</ele>
        <time>2024-02-04T14:01:47Z</time>
      </trkpt>
      <trkpt lat="42.88553" lon="1.16086">
        <ele>807.2</ele>
        <time>2024-02-04T14:01:48Z</time>
      </trkpt>
      <trkpt lat="42.88554" lon="1.1608">
        <ele>807.8</ele>
        <time>2024-02-04T14:01:49Z</time>
      </trkpt>
      <trkpt lat="42.88556" lon="1.16075">
        <ele>808.2</ele>
        <time>2024-02-04T14:01:50Z</time>
      </trkpt>
      <trkpt lat="42.88561" lon="1.16058">
        <ele>808.2</ele>
        <time>2024-02-04T14:01:53Z</time>
      </trkpt>
      <trkpt lat="42.88571" lon="1.16037">
        <ele>808.6</ele>
        <time>2024-02-04T14:01:57Z</time>
      </trkpt>
      <trkpt lat="42.88573" lon="1.16032">
        <ele>809.2</ele>
        <time>2024-02-04T14:01:58Z</time>
      </trkpt>
      <trkpt lat="42.88576" lon="1.16027">
        <ele>809.6</ele>
        <time>2024-02-04T14:01:59Z</time>
      </trkpt>
      <trkpt lat="42.8858" lon="1.16023">
        <ele>810</ele>
        <time>2024-02-04T14:02:00Z</time>
      </trkpt>
      <trkpt lat="42.88584" lon="1.16021">
        <ele>810.6</ele>
        <time>2024-02-04T14:02:01Z</time>
      </trkpt>
      <trkpt lat="42.88593" lon="1.16024">
        <ele>810.6</ele>
        <time>2024-02-04T14:02:03Z</time>
      </trkpt>
      <trkpt lat="42.88609" lon="1.16044">
        <ele>810.6</ele>
        <time>2024-02-04T14:02:07Z</time>
      </trkpt>
      <trkpt lat="42.88636" lon="1.16075">
        <ele>810.6</ele>
        <time>2024-02-04T14:02:14Z</time>
      </trkpt>
      <trkpt lat="42.88659" lon="1.16105">
        <ele>811</ele>
        <time>2024-02-04T14:02:21Z</time>
      </trkpt>
      <trkpt lat="42.88662" lon="1.16109">
        <ele>811.4</ele>
        <time>2024-02-04T14:02:22Z</time>
      </trkpt>
      <trkpt lat="42.88665" lon="1.16112">
        <ele>811.8</ele>
        <time>2024-02-04T14:02:23Z</time>
      </trkpt>
      <trkpt lat="42.88669" lon="1.16114">
        <ele>812.4</ele>
        <time>2024-02-04T14:02:24Z</time>
      </trkpt>
      <trkpt lat="42.88674" lon="1.16115">
        <ele>812.8</ele>
        <time>2024-02-04T14:02:25Z</time>
      </trkpt>
      <trkpt lat="42.88678" lon="1.16114">
        <ele>813.2</ele>
        <time>2024-02-04T14:02:26Z</time>
      </trkpt>
      <trkpt lat="42.88682" lon="1.16113">
        <ele>813.6</ele>
        <time>2024-02-04T14:02:27Z</time>
      </trkpt>
      <trkpt lat="42.88686" lon="1.16111">
        <ele>814</ele>
        <time>2024-02-04T14:02:28Z</time>
      </trkpt>
      <trkpt lat="42.8869" lon="1.16108">
        <ele>814.6</ele>
        <time>2024-02-04T14:02:29Z</time>
      </trkpt>
      <trkpt lat="42.88694" lon="1.16104">
        <ele>815</ele>
        <time>2024-02-04T14:02:30Z</time>
      </trkpt>
      <trkpt lat="42.88697" lon="1.16101">
        <ele>815</ele>
        <time>2024-02-04T14:02:31Z</time>
      </trkpt>
      <trkpt lat="42.88707" lon="1.16089">
        <ele>815.4</ele>
        <time>2024-02-04T14:02:34Z</time>
      </trkpt>
      <trkpt lat="42.88711" lon="1.16085">
        <ele>815.8</ele>
        <time>2024-02-04T14:02:35Z</time>
      </trkpt>
      <trkpt lat="42.88714" lon="1.16081">
        <ele>816.8</ele>
        <time>2024-02-04T14:02:36Z</time>
      </trkpt>
      <trkpt lat="42.88717" lon="1.16078">
        <ele>817.2</ele>
        <time>2024-02-04T14:02:37Z</time>
      </trkpt>
      <trkpt lat="42.88732" lon="1.16063">
        <ele>817.2</ele>
        <time>2024-02-04T14:02:41Z</time>
      </trkpt>
      <trkpt lat="42.88745" lon="1.16054">
        <ele>817.2</ele>
        <time>2024-02-04T14:02:44Z</time>
      </trkpt>
      <trkpt lat="42.88755" lon="1.1605">
        <ele>817.2</ele>
        <time>2024-02-04T14:02:46Z</time>
      </trkpt>
      <trkpt lat="42.88766" lon="1.16051">
        <ele>817.2</ele>
        <time>2024-02-04T14:02:48Z</time>
      </trkpt>
      <trkpt lat="42.88771" lon="1.16052">
        <ele>817.2</ele>
        <time>2024-02-04T14:02:49Z</time>
      </trkpt>
      <trkpt lat="42.88776" lon="1.16053">
        <ele>817.2</ele>
        <time>2024-02-04T14:02:50Z</time>
      </trkpt>
      <trkpt lat="42.88803" lon="1.1606">
        <ele>817.2</ele>
        <time>2024-02-04T14:02:56Z</time>
      </trkpt>
      <trkpt lat="42.88807" lon="1.1606">
        <ele>817.2</ele>
        <time>2024-02-04T14:02:57Z</time>
      </trkpt>
      <trkpt lat="42.88836" lon="1.16055">
        <ele>817.2</ele>
        <time>2024-02-04T14:03:03Z</time>
      </trkpt>
      <trkpt lat="42.88854" lon="1.16055">
        <ele>817.6</ele>
        <time>2024-02-04T14:03:07Z</time>
      </trkpt>
      <trkpt lat="42.88859" lon="1.16055">
        <ele>818</ele>
        <time>2024-02-04T14:03:08Z</time>
      </trkpt>
      <trkpt lat="42.88863" lon="1.16054">
        <ele>818.4</ele>
        <time>2024-02-04T14:03:09Z</time>
      </trkpt>
      <trkpt lat="42.88867" lon="1.16054">
        <ele>818.8</ele>
        <time>2024-02-04T14:03:10Z</time>
      </trkpt>
      <trkpt lat="42.88872" lon="1.16054">
        <ele>819.2</ele>
        <time>2024-02-04T14:03:11Z</time>
      </trkpt>
      <trkpt lat="42.88894" lon="1.16056">
        <ele>819.2</ele>
        <time>2024-02-04T14:03:16Z</time>
      </trkpt>
      <trkpt lat="42.88914" lon="1.1606">
        <ele>819.2</ele>
        <time>2024-02-04T14:03:21Z</time>
      </trkpt>
      <trkpt lat="42.88923" lon="1.16062">
        <ele>819.6</ele>
        <time>2024-02-04T14:03:23Z</time>
      </trkpt>
      <trkpt lat="42.88927" lon="1.16064">
        <ele>820.6</ele>
        <time>2024-02-04T14:03:24Z</time>
      </trkpt>
      <trkpt lat="42.88931" lon="1.16067">
        <ele>821</ele>
        <time>2024-02-04T14:03:25Z</time>
      </trkpt>
      <trkpt lat="42.88934" lon="1.16072">
        <ele>821.4</ele>
        <time>2024-02-04T14:03:26Z</time>
      </trkpt>
      <trkpt lat="42.88942" lon="1.16093">
        <ele>821.4</ele>
        <time>2024-02-04T14:03:30Z</time>
      </trkpt>
      <trkpt lat="42.88944" lon="1.16099">
        <ele>821.4</ele>
        <time>2024-02-04T14:03:31Z</time>
      </trkpt>
      <trkpt lat="42.88952" lon="1.16117">
        <ele>821.8</ele>
        <time>2024-02-04T14:03:35Z</time>
      </trkpt>
      <trkpt lat="42.88954" lon="1.16121">
        <ele>822.2</ele>
        <time>2024-02-04T14:03:36Z</time>
      </trkpt>
      <trkpt lat="42.88958" lon="1.16127">
        <ele>822.8</ele>
        <time>2024-02-04T14:03:37Z</time>
      </trkpt>
      <trkpt lat="42.8896" lon="1.16133">
        <ele>823.2</ele>
        <time>2024-02-04T14:03:38Z</time>
      </trkpt>
      <trkpt lat="42.8896" lon="1.16139">
        <ele>823.6</ele>
        <time>2024-02-04T14:03:39Z</time>
      </trkpt>
      <trkpt lat="42.88959" lon="1.16145">
        <ele>824</ele>
        <time>2024-02-04T14:03:40Z</time>
      </trkpt>
      <trkpt lat="42.88958" lon="1.1615">
        <ele>824.4</ele>
        <time>2024-02-04T14:03:41Z</time>
      </trkpt>
      <trkpt lat="42.88957" lon="1.16155">
        <ele>825</ele>
        <time>2024-02-04T14:03:42Z</time>
      </trkpt>
      <trkpt lat="42.88956" lon="1.1616">
        <ele>825.4</ele>
        <time>2024-02-04T14:03:43Z</time>
      </trkpt>
      <trkpt lat="42.88954" lon="1.16164">
        <ele>826</ele>
        <time>2024-02-04T14:03:44Z</time>
      </trkpt>
      <trkpt lat="42.88953" lon="1.16169">
        <ele>826.4</ele>
        <time>2024-02-04T14:03:45Z</time>
      </trkpt>
      <trkpt lat="42.88952" lon="1.16173">
        <ele>827</ele>
        <time>2024-02-04T14:03:46Z</time>
      </trkpt>
      <trkpt lat="42.88951" lon="1.16176">
        <ele>827.6</ele>
        <time>2024-02-04T14:03:47Z</time>
      </trkpt>
      <trkpt lat="42.8895" lon="1.1618">
        <ele>828</ele>
        <time>2024-02-04T14:03:48Z</time>
      </trkpt>
      <trkpt lat="42.88948" lon="1.16188">
        <ele>828</ele>
        <time>2024-02-04T14:03:50Z</time>
      </trkpt>
      <trkpt lat="42.88946" lon="1.16204">
        <ele>828</ele>
        <time>2024-02-04T14:03:55Z</time>
      </trkpt>
      <trkpt lat="42.88941" lon="1.1622">
        <ele>828</ele>
        <time>2024-02-04T14:03:59Z</time>
      </trkpt>
      <trkpt lat="42.88936" lon="1.16237">
        <ele>828</ele>
        <time>2024-02-04T14:04:02Z</time>
      </trkpt>
      <trkpt lat="42.88932" lon="1.16241">
        <ele>828</ele>
        <time>2024-02-04T14:04:03Z</time>
      </trkpt>
      <trkpt lat="42.88917" lon="1.16258">
        <ele>828</ele>
        <time>2024-02-04T14:04:08Z</time>
      </trkpt>
      <trkpt lat="42.88895" lon="1.1629">
        <ele>828</ele>
        <time>2024-02-04T14:04:16Z</time>
      </trkpt>
      <trkpt lat="42.88888" lon="1.16302">
        <ele>828</ele>
        <time>2024-02-04T14:04:19Z</time>
      </trkpt>
      <trkpt lat="42.88883" lon="1.16312">
        <ele>828.6</ele>
        <time>2024-02-04T14:04:21Z</time>
      </trkpt>
      <trkpt lat="42.88881" lon="1.16317">
        <ele>829</ele>
        <time>2024-02-04T14:04:22Z</time>
      </trkpt>
      <trkpt lat="42.88879" lon="1.16322">
        <ele>829.4</ele>
        <time>2024-02-04T14:04:23Z</time>
      </trkpt>
      <trkpt lat="42.88877" lon="1.16327">
        <ele>829.8</ele>
        <time>2024-02-04T14:04:24Z</time>
      </trkpt>
      <trkpt lat="42.88875" lon="1.16332">
        <ele>830.2</ele>
        <time>2024-02-04T14:04:25Z</time>
      </trkpt>
      <trkpt lat="42.88873" lon="1.16337">
        <ele>830.2</ele>
        <time>2024-02-04T14:04:26Z</time>
      </trkpt>
      <trkpt lat="42.88867" lon="1.16359">
        <ele>830.6</ele>
        <time>2024-02-04T14:04:30Z</time>
      </trkpt>
      <trkpt lat="42.88866" lon="1.16364">
        <ele>831</ele>
        <time>2024-02-04T14:04:31Z</time>
      </trkpt>
      <trkpt lat="42.88865" lon="1.1637">
        <ele>831.8</ele>
        <time>2024-02-04T14:04:32Z</time>
      </trkpt>
      <trkpt lat="42.88863" lon="1.16376">
        <ele>832.4</ele>
        <time>2024-02-04T14:04:33Z</time>
      </trkpt>
      <trkpt lat="42.88857" lon="1.16404">
        <ele>832.8</ele>
        <time>2024-02-04T14:04:38Z</time>
      </trkpt>
      <trkpt lat="42.88856" lon="1.1641">
        <ele>833.2</ele>
        <time>2024-02-04T14:04:39Z</time>
      </trkpt>
      <trkpt lat="42.88855" lon="1.16416">
        <ele>833.6</ele>
        <time>2024-02-04T14:04:40Z</time>
      </trkpt>
      <trkpt lat="42.88854" lon="1.16423">
        <ele>834</ele>
        <time>2024-02-04T14:04:41Z</time>
      </trkpt>
      <trkpt lat="42.88853" lon="1.16429">
        <ele>834.4</ele>
        <time>2024-02-04T14:04:42Z</time>
      </trkpt>
      <trkpt lat="42.88851" lon="1.16446">
        <ele>834.4</ele>
        <time>2024-02-04T14:04:45Z</time>
      </trkpt>
      <trkpt lat="42.88848" lon="1.16457">
        <ele>835</ele>
        <time>2024-02-04T14:04:47Z</time>
      </trkpt>
      <trkpt lat="42.88846" lon="1.16462">
        <ele>835.4</ele>
        <time>2024-02-04T14:04:48Z</time>
      </trkpt>
      <trkpt lat="42.88844" lon="1.16468">
        <ele>835.8</ele>
        <time>2024-02-04T14:04:49Z</time>
      </trkpt>
      <trkpt lat="42.88842" lon="1.16472">
        <ele>836.2</ele>
        <time>2024-02-04T14:04:50Z</time>
      </trkpt>
      <trkpt lat="42.8884" lon="1.16477">
        <ele>836.6</ele>
        <time>2024-02-04T14:04:51Z</time>
      </trkpt>
      <trkpt lat="42.88833" lon="1.16491">
        <ele>836.6</ele>
        <time>2024-02-04T14:04:54Z</time>
      </trkpt>
      <trkpt lat="42.88827" lon="1.16509">
        <ele>837.4</ele>
        <time>2024-02-04T14:04:57Z</time>
      </trkpt>
      <trkpt lat="42.88825" lon="1.16515">
        <ele>837.8</ele>
        <time>2024-02-04T14:04:58Z</time>
      </trkpt>
      <trkpt lat="42.88823" lon="1.16522">
        <ele>838.2</ele>
        <time>2024-02-04T14:04:59Z</time>
      </trkpt>
      <trkpt lat="42.8882" lon="1.16527">
        <ele>838.6</ele>
        <time>2024-02-04T14:05:00Z</time>
      </trkpt>
      <trkpt lat="42.88814" lon="1.16543">
        <ele>838.6</ele>
        <time>2024-02-04T14:05:03Z</time>
      </trkpt>
      <trkpt lat="42.88808" lon="1.16567">
        <ele>839</ele>
        <time>2024-02-04T14:05:07Z</time>
      </trkpt>
      <trkpt lat="42.88806" lon="1.16573">
        <ele>839.6</ele>
        <time>2024-02-04T14:05:08Z</time>
      </trkpt>
      <trkpt lat="42.88805" lon="1.16579">
        <ele>840</ele>
        <time>2024-02-04T14:05:09Z</time>
      </trkpt>
      <trkpt lat="42.88803" lon="1.16585">
        <ele>840.4</ele>
        <time>2024-02-04T14:05:10Z</time>
      </trkpt>
      <trkpt lat="42.88802" lon="1.16591">
        <ele>840.8</ele>
        <time>2024-02-04T14:05:11Z</time>
      </trkpt>
      <trkpt lat="42.88795" lon="1.16627">
        <ele>841.2</ele>
        <time>2024-02-04T14:05:17Z</time>
      </trkpt>
      <trkpt lat="42.88794" lon="1.16633">
        <ele>841.6</ele>
        <time>2024-02-04T14:05:18Z</time>
      </trkpt>
      <trkpt lat="42.88793" lon="1.16639">
        <ele>842</ele>
        <time>2024-02-04T14:05:19Z</time>
      </trkpt>
      <trkpt lat="42.88792" lon="1.16645">
        <ele>842.6</ele>
        <time>2024-02-04T14:05:20Z</time>
      </trkpt>
      <trkpt lat="42.88791" lon="1.16651">
        <ele>843</ele>
        <time>2024-02-04T14:05:21Z</time>
      </trkpt>
      <trkpt lat="42.88787" lon="1.1667">
        <ele>843</ele>
        <time>2024-02-04T14:05:24Z</time>
      </trkpt>
      <trkpt lat="42.88784" lon="1.16695">
        <ele>843.4</ele>
        <time>2024-02-04T14:05:28Z</time>
      </trkpt>
      <trkpt lat="42.88784" lon="1.16701">
        <ele>843.8</ele>
        <time>2024-02-04T14:05:29Z</time>
      </trkpt>
      <trkpt lat="42.88784" lon="1.16707">
        <ele>844.2</ele>
        <time>2024-02-04T14:05:30Z</time>
      </trkpt>
      <trkpt lat="42.88784" lon="1.16714">
        <ele>844.6</ele>
        <time>2024-02-04T14:05:31Z</time>
      </trkpt>
      <trkpt lat="42.88784" lon="1.1672">
        <ele>845</ele>
        <time>2024-02-04T14:05:32Z</time>
      </trkpt>
      <trkpt lat="42.88785" lon="1.16757">
        <ele>845.4</ele>
        <time>2024-02-04T14:05:38Z</time>
      </trkpt>
      <trkpt lat="42.88786" lon="1.16763">
        <ele>846</ele>
        <time>2024-02-04T14:05:39Z</time>
      </trkpt>
      <trkpt lat="42.88789" lon="1.16768">
        <ele>846.4</ele>
        <time>2024-02-04T14:05:40Z</time>
      </trkpt>
      <trkpt lat="42.88792" lon="1.16772">
        <ele>846.8</ele>
        <time>2024-02-04T14:05:41Z</time>
      </trkpt>
      <trkpt lat="42.88795" lon="1.16773">
        <ele>847.4</ele>
        <time>2024-02-04T14:05:42Z</time>
      </trkpt>
      <trkpt lat="42.88799" lon="1.16773">
        <ele>847.4</ele>
        <time>2024-02-04T14:05:43Z</time>
      </trkpt>
      <trkpt lat="42.88811" lon="1.16766">
        <ele>847.4</ele>
        <time>2024-02-04T14:05:46Z</time>
      </trkpt>
      <trkpt lat="42.88814" lon="1.16762">
        <ele>847.4</ele>
        <time>2024-02-04T14:05:47Z</time>
      </trkpt>
      <trkpt lat="42.88827" lon="1.16743">
        <ele>847.8</ele>
        <time>2024-02-04T14:05:51Z</time>
      </trkpt>
      <trkpt lat="42.8883" lon="1.16739">
        <ele>848.2</ele>
        <time>2024-02-04T14:05:52Z</time>
      </trkpt>
      <trkpt lat="42.88834" lon="1.16735">
        <ele>848.6</ele>
        <time>2024-02-04T14:05:53Z</time>
      </trkpt>
      <trkpt lat="42.88837" lon="1.16731">
        <ele>849</ele>
        <time>2024-02-04T14:05:54Z</time>
      </trkpt>
      <trkpt lat="42.88841" lon="1.16726">
        <ele>849.4</ele>
        <time>2024-02-04T14:05:55Z</time>
      </trkpt>
      <trkpt lat="42.88844" lon="1.16722">
        <ele>849.4</ele>
        <time>2024-02-04T14:05:56Z</time>
      </trkpt>
      <trkpt lat="42.88859" lon="1.16708">
        <ele>849.4</ele>
        <time>2024-02-04T14:06:00Z</time>
      </trkpt>
      <trkpt lat="42.88863" lon="1.16706">
        <ele>850</ele>
        <time>2024-02-04T14:06:01Z</time>
      </trkpt>
      <trkpt lat="42.88868" lon="1.16704">
        <ele>850.4</ele>
        <time>2024-02-04T14:06:02Z</time>
      </trkpt>
      <trkpt lat="42.88872" lon="1.16704">
        <ele>851</ele>
        <time>2024-02-04T14:06:03Z</time>
      </trkpt>
      <trkpt lat="42.88876" lon="1.16705">
        <ele>851.4</ele>
        <time>2024-02-04T14:06:04Z</time>
      </trkpt>
      <trkpt lat="42.8888" lon="1.16707">
        <ele>852</ele>
        <time>2024-02-04T14:06:05Z</time>
      </trkpt>
      <trkpt lat="42.88889" lon="1.16711">
        <ele>852</ele>
        <time>2024-02-04T14:06:07Z</time>
      </trkpt>
      <trkpt lat="42.88893" lon="1.16714">
        <ele>852.4</ele>
        <time>2024-02-04T14:06:08Z</time>
      </trkpt>
      <trkpt lat="42.88897" lon="1.16717">
        <ele>852.8</ele>
        <time>2024-02-04T14:06:09Z</time>
      </trkpt>
      <trkpt lat="42.88901" lon="1.1672">
        <ele>853.2</ele>
        <time>2024-02-04T14:06:10Z</time>
      </trkpt>
      <trkpt lat="42.88905" lon="1.16722">
        <ele>854</ele>
        <time>2024-02-04T14:06:11Z</time>
      </trkpt>
      <trkpt lat="42.8892" lon="1.16724">
        <ele>854.4</ele>
        <time>2024-02-04T14:06:14Z</time>
      </trkpt>
      <trkpt lat="42.88925" lon="1.16724">
        <ele>854.8</ele>
        <time>2024-02-04T14:06:15Z</time>
      </trkpt>
      <trkpt lat="42.8893" lon="1.16724">
        <ele>855.4</ele>
        <time>2024-02-04T14:06:16Z</time>
      </trkpt>
      <trkpt lat="42.88935" lon="1.16723">
        <ele>855.8</ele>
        <time>2024-02-04T14:06:17Z</time>
      </trkpt>
      <trkpt lat="42.88939" lon="1.16721">
        <ele>856.2</ele>
        <time>2024-02-04T14:06:18Z</time>
      </trkpt>
      <trkpt lat="42.88948" lon="1.16718">
        <ele>856.2</ele>
        <time>2024-02-04T14:06:20Z</time>
      </trkpt>
      <trkpt lat="42.8897" lon="1.1671">
        <ele>856.2</ele>
        <time>2024-02-04T14:06:26Z</time>
      </trkpt>
      <trkpt lat="42.88974" lon="1.16707">
        <ele>856.6</ele>
        <time>2024-02-04T14:06:28Z</time>
      </trkpt>
      <trkpt lat="42.88977" lon="1.16704">
        <ele>857.2</ele>
        <time>2024-02-04T14:06:29Z</time>
      </trkpt>
      <trkpt lat="42.88981" lon="1.16701">
        <ele>857.6</ele>
        <time>2024-02-04T14:06:30Z</time>
      </trkpt>
      <trkpt lat="42.88985" lon="1.16699">
        <ele>858</ele>
        <time>2024-02-04T14:06:31Z</time>
      </trkpt>
      <trkpt lat="42.88988" lon="1.16697">
        <ele>858.6</ele>
        <time>2024-02-04T14:06:32Z</time>
      </trkpt>
      <trkpt lat="42.88998" lon="1.16693">
        <ele>858.6</ele>
        <time>2024-02-04T14:06:35Z</time>
      </trkpt>
      <trkpt lat="42.89009" lon="1.16686">
        <ele>859</ele>
        <time>2024-02-04T14:06:39Z</time>
      </trkpt>
      <trkpt lat="42.89011" lon="1.16684">
        <ele>859.4</ele>
        <time>2024-02-04T14:06:40Z</time>
      </trkpt>
      <trkpt lat="42.89014" lon="1.16682">
        <ele>859.8</ele>
        <time>2024-02-04T14:06:41Z</time>
      </trkpt>
      <trkpt lat="42.89017" lon="1.1668">
        <ele>860.2</ele>
        <time>2024-02-04T14:06:42Z</time>
      </trkpt>
      <trkpt lat="42.89019" lon="1.16677">
        <ele>860.6</ele>
        <time>2024-02-04T14:06:43Z</time>
      </trkpt>
      <trkpt lat="42.89025" lon="1.16673">
        <ele>860.6</ele>
        <time>2024-02-04T14:06:45Z</time>
      </trkpt>
      <trkpt lat="42.89043" lon="1.16657">
        <ele>861</ele>
        <time>2024-02-04T14:06:51Z</time>
      </trkpt>
      <trkpt lat="42.89046" lon="1.16654">
        <ele>861.4</ele>
        <time>2024-02-04T14:06:52Z</time>
      </trkpt>
      <trkpt lat="42.89049" lon="1.16652">
        <ele>862</ele>
        <time>2024-02-04T14:06:53Z</time>
      </trkpt>
      <trkpt lat="42.89052" lon="1.16649">
        <ele>862.4</ele>
        <time>2024-02-04T14:06:54Z</time>
      </trkpt>
      <trkpt lat="42.89054" lon="1.16646">
        <ele>862.8</ele>
        <time>2024-02-04T14:06:55Z</time>
      </trkpt>
      <trkpt lat="42.89059" lon="1.16641">
        <ele>862.8</ele>
        <time>2024-02-04T14:06:57Z</time>
      </trkpt>
      <trkpt lat="42.8907" lon="1.16631">
        <ele>863.2</ele>
        <time>2024-02-04T14:07:01Z</time>
      </trkpt>
      <trkpt lat="42.89074" lon="1.16628">
        <ele>863.6</ele>
        <time>2024-02-04T14:07:02Z</time>
      </trkpt>
      <trkpt lat="42.89077" lon="1.16626">
        <ele>864</ele>
        <time>2024-02-04T14:07:03Z</time>
      </trkpt>
      <trkpt lat="42.89081" lon="1.16624">
        <ele>864.4</ele>
        <time>2024-02-04T14:07:04Z</time>
      </trkpt>
      <trkpt lat="42.89084" lon="1.16623">
        <ele>864.8</ele>
        <time>2024-02-04T14:07:05Z</time>
      </trkpt>
      <trkpt lat="42.89089" lon="1.16621">
        <ele>864.8</ele>
        <time>2024-02-04T14:07:07Z</time>
      </trkpt>
      <trkpt lat="42.89098" lon="1.16618">
        <ele>865.2</ele>
        <time>2024-02-04T14:07:11Z</time>
      </trkpt>
      <trkpt lat="42.891" lon="1.16617">
        <ele>865.6</ele>
        <time>2024-02-04T14:07:12Z</time>
      </trkpt>
      <trkpt lat="42.89103" lon="1.16616">
        <ele>866</ele>
        <time>2024-02-04T14:07:13Z</time>
      </trkpt>
      <trkpt lat="42.89106" lon="1.16617">
        <ele>866.6</ele>
        <time>2024-02-04T14:07:14Z</time>
      </trkpt>
      <trkpt lat="42.89109" lon="1.16617">
        <ele>867</ele>
        <time>2024-02-04T14:07:15Z</time>
      </trkpt>
      <trkpt lat="42.89119" lon="1.16622">
        <ele>867</ele>
        <time>2024-02-04T14:07:18Z</time>
      </trkpt>
      <trkpt lat="42.89125" lon="1.16625">
        <ele>867.4</ele>
        <time>2024-02-04T14:07:20Z</time>
      </trkpt>
      <trkpt lat="42.89128" lon="1.16627">
        <ele>867.8</ele>
        <time>2024-02-04T14:07:21Z</time>
      </trkpt>
      <trkpt lat="42.89132" lon="1.16627">
        <ele>868.2</ele>
        <time>2024-02-04T14:07:22Z</time>
      </trkpt>
      <trkpt lat="42.89137" lon="1.16628">
        <ele>868.6</ele>
        <time>2024-02-04T14:07:23Z</time>
      </trkpt>
      <trkpt lat="42.8914" lon="1.16628">
        <ele>869</ele>
        <time>2024-02-04T14:07:24Z</time>
      </trkpt>
      <trkpt lat="42.89142" lon="1.16627">
        <ele>869</ele>
        <time>2024-02-04T14:07:25Z</time>
      </trkpt>
      <trkpt lat="42.89146" lon="1.16627">
        <ele>869</ele>
        <time>2024-02-04T14:07:27Z</time>
      </trkpt>
      <trkpt lat="42.8916" lon="1.16629">
        <ele>869</ele>
        <time>2024-02-04T14:07:32Z</time>
      </trkpt>
      <trkpt lat="42.89174" lon="1.16628">
        <ele>869</ele>
        <time>2024-02-04T14:07:36Z</time>
      </trkpt>
      <trkpt lat="42.89183" lon="1.16627">
        <ele>869.4</ele>
        <time>2024-02-04T14:07:40Z</time>
      </trkpt>
      <trkpt lat="42.89184" lon="1.16627">
        <ele>869.8</ele>
        <time>2024-02-04T14:07:41Z</time>
      </trkpt>
      <trkpt lat="42.89185" lon="1.16626">
        <ele>870.2</ele>
        <time>2024-02-04T14:07:42Z</time>
      </trkpt>
      <trkpt lat="42.89186" lon="1.16625">
        <ele>870.6</ele>
        <time>2024-02-04T14:07:43Z</time>
      </trkpt>
      <trkpt lat="42.89189" lon="1.16624">
        <ele>871</ele>
        <time>2024-02-04T14:07:44Z</time>
      </trkpt>
      <trkpt lat="42.89194" lon="1.16622">
        <ele>871</ele>
        <time>2024-02-04T14:07:49Z</time>
      </trkpt>
      <trkpt lat="42.89196" lon="1.16622">
        <ele>871</ele>
        <time>2024-02-04T14:07:51Z</time>
      </trkpt>
      <trkpt lat="42.8921" lon="1.16621">
        <ele>871</ele>
        <time>2024-02-04T14:10:40Z</time>
      </trkpt>
      <trkpt lat="42.89216" lon="1.16619">
        <ele>871</ele>
        <time>2024-02-04T14:10:42Z</time>
      </trkpt>
      <trkpt lat="42.89227" lon="1.16613">
        <ele>871.4</ele>
        <time>2024-02-04T14:10:46Z</time>
      </trkpt>
      <trkpt lat="42.89231" lon="1.16611">
        <ele>872</ele>
        <time>2024-02-04T14:10:47Z</time>
      </trkpt>
      <trkpt lat="42.89234" lon="1.16609">
        <ele>872.4</ele>
        <time>2024-02-04T14:10:48Z</time>
      </trkpt>
      <trkpt lat="42.89237" lon="1.16607">
        <ele>872.8</ele>
        <time>2024-02-04T14:10:49Z</time>
      </trkpt>
      <trkpt lat="42.89241" lon="1.16606">
        <ele>873.2</ele>
        <time>2024-02-04T14:10:50Z</time>
      </trkpt>
      <trkpt lat="42.8925" lon="1.16604">
        <ele>873.2</ele>
        <time>2024-02-04T14:10:52Z</time>
      </trkpt>
      <trkpt lat="42.89259" lon="1.16603">
        <ele>873.6</ele>
        <time>2024-02-04T14:10:54Z</time>
      </trkpt>
      <trkpt lat="42.89263" lon="1.16603">
        <ele>874</ele>
        <time>2024-02-04T14:10:55Z</time>
      </trkpt>
      <trkpt lat="42.89267" lon="1.16604">
        <ele>874.4</ele>
        <time>2024-02-04T14:10:56Z</time>
      </trkpt>
      <trkpt lat="42.89271" lon="1.16606">
        <ele>875</ele>
        <time>2024-02-04T14:10:57Z</time>
      </trkpt>
      <trkpt lat="42.89275" lon="1.16609">
        <ele>875.4</ele>
        <time>2024-02-04T14:10:58Z</time>
      </trkpt>
      <trkpt lat="42.89283" lon="1.16616">
        <ele>875.4</ele>
        <time>2024-02-04T14:11:00Z</time>
      </trkpt>
      <trkpt lat="42.89289" lon="1.16625">
        <ele>875.8</ele>
        <time>2024-02-04T14:11:02Z</time>
      </trkpt>
      <trkpt lat="42.89292" lon="1.16629">
        <ele>876.4</ele>
        <time>2024-02-04T14:11:03Z</time>
      </trkpt>
      <trkpt lat="42.89296" lon="1.16633">
        <ele>876.8</ele>
        <time>2024-02-04T14:11:04Z</time>
      </trkpt>
      <trkpt lat="42.89299" lon="1.16637">
        <ele>877.2</ele>
        <time>2024-02-04T14:11:05Z</time>
      </trkpt>
      <trkpt lat="42.89303" lon="1.1664">
        <ele>877.8</ele>
        <time>2024-02-04T14:11:06Z</time>
      </trkpt>
      <trkpt lat="42.89307" lon="1.16644">
        <ele>877.8</ele>
        <time>2024-02-04T14:11:07Z</time>
      </trkpt>
      <trkpt lat="42.8931" lon="1.16648">
        <ele>877.8</ele>
        <time>2024-02-04T14:11:08Z</time>
      </trkpt>
      <trkpt lat="42.89312" lon="1.16652">
        <ele>878.2</ele>
        <time>2024-02-04T14:11:09Z</time>
      </trkpt>
      <trkpt lat="42.89315" lon="1.16657">
        <ele>878.6</ele>
        <time>2024-02-04T14:11:10Z</time>
      </trkpt>
      <trkpt lat="42.89317" lon="1.16662">
        <ele>879</ele>
        <time>2024-02-04T14:11:11Z</time>
      </trkpt>
      <trkpt lat="42.89319" lon="1.16667">
        <ele>879.4</ele>
        <time>2024-02-04T14:11:12Z</time>
      </trkpt>
      <trkpt lat="42.89321" lon="1.16672">
        <ele>879.8</ele>
        <time>2024-02-04T14:11:13Z</time>
      </trkpt>
      <trkpt lat="42.89329" lon="1.16689">
        <ele>879.8</ele>
        <time>2024-02-04T14:11:16Z</time>
      </trkpt>
      <trkpt lat="42.89333" lon="1.167">
        <ele>879.8</ele>
        <time>2024-02-04T14:11:18Z</time>
      </trkpt>
      <trkpt lat="42.89334" lon="1.16706">
        <ele>880.2</ele>
        <time>2024-02-04T14:11:19Z</time>
      </trkpt>
      <trkpt lat="42.89336" lon="1.16712">
        <ele>880.8</ele>
        <time>2024-02-04T14:11:20Z</time>
      </trkpt>
      <trkpt lat="42.89337" lon="1.16717">
        <ele>881.2</ele>
        <time>2024-02-04T14:11:21Z</time>
      </trkpt>
      <trkpt lat="42.89339" lon="1.16722">
        <ele>881.6</ele>
        <time>2024-02-04T14:11:22Z</time>
      </trkpt>
      <trkpt lat="42.89341" lon="1.16728">
        <ele>882</ele>
        <time>2024-02-04T14:11:23Z</time>
      </trkpt>
      <trkpt lat="42.89351" lon="1.16761">
        <ele>882</ele>
        <time>2024-02-04T14:11:30Z</time>
      </trkpt>
      <trkpt lat="42.89352" lon="1.16766">
        <ele>882.8</ele>
        <time>2024-02-04T14:11:31Z</time>
      </trkpt>
      <trkpt lat="42.89354" lon="1.16769">
        <ele>883.2</ele>
        <time>2024-02-04T14:11:32Z</time>
      </trkpt>
      <trkpt lat="42.89357" lon="1.16773">
        <ele>883.6</ele>
        <time>2024-02-04T14:11:33Z</time>
      </trkpt>
      <trkpt lat="42.89359" lon="1.16776">
        <ele>884</ele>
        <time>2024-02-04T14:11:34Z</time>
      </trkpt>
      <trkpt lat="42.89364" lon="1.16781">
        <ele>884</ele>
        <time>2024-02-04T14:11:36Z</time>
      </trkpt>
      <trkpt lat="42.8938" lon="1.16792">
        <ele>884</ele>
        <time>2024-02-04T14:11:42Z</time>
      </trkpt>
      <trkpt lat="42.89386" lon="1.16795">
        <ele>884.4</ele>
        <time>2024-02-04T14:11:44Z</time>
      </trkpt>
      <trkpt lat="42.89389" lon="1.16796">
        <ele>884.8</ele>
        <time>2024-02-04T14:11:45Z</time>
      </trkpt>
      <trkpt lat="42.89391" lon="1.16797">
        <ele>885.2</ele>
        <time>2024-02-04T14:11:46Z</time>
      </trkpt>
      <trkpt lat="42.89394" lon="1.16799">
        <ele>885.6</ele>
        <time>2024-02-04T14:11:47Z</time>
      </trkpt>
      <trkpt lat="42.89396" lon="1.16801">
        <ele>886</ele>
        <time>2024-02-04T14:11:48Z</time>
      </trkpt>
      <trkpt lat="42.8941" lon="1.1681">
        <ele>886</ele>
        <time>2024-02-04T14:11:53Z</time>
      </trkpt>
      <trkpt lat="42.89414" lon="1.16814">
        <ele>886</ele>
        <time>2024-02-04T14:11:57Z</time>
      </trkpt>
      <trkpt lat="42.89414" lon="1.16813">
        <ele>886</ele>
        <time>2024-02-04T14:11:58Z</time>
      </trkpt>
      <trkpt lat="42.89415" lon="1.16822">
        <ele>884</ele>
        <time>2024-02-04T14:13:27Z</time>
      </trkpt>
      <trkpt lat="42.89415" lon="1.16826">
        <ele>884</ele>
        <time>2024-02-04T14:13:28Z</time>
      </trkpt>
      <trkpt lat="42.89415" lon="1.16852">
        <ele>884</ele>
        <time>2024-02-04T14:13:33Z</time>
      </trkpt>
      <trkpt lat="42.8942" lon="1.16875">
        <ele>883.6</ele>
        <time>2024-02-04T14:13:37Z</time>
      </trkpt>
      <trkpt lat="42.89421" lon="1.16882">
        <ele>883.2</ele>
        <time>2024-02-04T14:13:38Z</time>
      </trkpt>
      <trkpt lat="42.89422" lon="1.16889">
        <ele>882.8</ele>
        <time>2024-02-04T14:13:39Z</time>
      </trkpt>
      <trkpt lat="42.89422" lon="1.16896">
        <ele>882.2</ele>
        <time>2024-02-04T14:13:40Z</time>
      </trkpt>
      <trkpt lat="42.89424" lon="1.16903">
        <ele>881.8</ele>
        <time>2024-02-04T14:13:41Z</time>
      </trkpt>
      <trkpt lat="42.89428" lon="1.16917">
        <ele>881.8</ele>
        <time>2024-02-04T14:13:43Z</time>
      </trkpt>
      <trkpt lat="42.8943" lon="1.16925">
        <ele>881.8</ele>
        <time>2024-02-04T14:13:44Z</time>
      </trkpt>
      <trkpt lat="42.89439" lon="1.16956">
        <ele>881.4</ele>
        <time>2024-02-04T14:13:48Z</time>
      </trkpt>
      <trkpt lat="42.89442" lon="1.16963">
        <ele>881</ele>
        <time>2024-02-04T14:13:49Z</time>
      </trkpt>
      <trkpt lat="42.89445" lon="1.16971">
        <ele>880.6</ele>
        <time>2024-02-04T14:13:50Z</time>
      </trkpt>
      <trkpt lat="42.89448" lon="1.16979">
        <ele>880.2</ele>
        <time>2024-02-04T14:13:51Z</time>
      </trkpt>
      <trkpt lat="42.8945" lon="1.16987">
        <ele>879.6</ele>
        <time>2024-02-04T14:13:52Z</time>
      </trkpt>
      <trkpt lat="42.89458" lon="1.17007">
        <ele>879.6</ele>
        <time>2024-02-04T14:13:55Z</time>
      </trkpt>
      <trkpt lat="42.89464" lon="1.1702">
        <ele>879.6</ele>
        <time>2024-02-04T14:13:57Z</time>
      </trkpt>
      <trkpt lat="42.89468" lon="1.17027">
        <ele>879.2</ele>
        <time>2024-02-04T14:13:58Z</time>
      </trkpt>
      <trkpt lat="42.89471" lon="1.17033">
        <ele>878.4</ele>
        <time>2024-02-04T14:13:59Z</time>
      </trkpt>
      <trkpt lat="42.89474" lon="1.1704">
        <ele>878</ele>
        <time>2024-02-04T14:14:00Z</time>
      </trkpt>
      <trkpt lat="42.89477" lon="1.17047">
        <ele>877.6</ele>
        <time>2024-02-04T14:14:01Z</time>
      </trkpt>
      <trkpt lat="42.89482" lon="1.1706">
        <ele>877.6</ele>
        <time>2024-02-04T14:14:03Z</time>
      </trkpt>
      <trkpt lat="42.8949" lon="1.17072">
        <ele>877.6</ele>
        <time>2024-02-04T14:14:05Z</time>
      </trkpt>
      <trkpt lat="42.89493" lon="1.17078">
        <ele>877.6</ele>
        <time>2024-02-04T14:14:06Z</time>
      </trkpt>
      <trkpt lat="42.89504" lon="1.17098">
        <ele>877.6</ele>
        <time>2024-02-04T14:14:09Z</time>
      </trkpt>
      <trkpt lat="42.89507" lon="1.17105">
        <ele>877.2</ele>
        <time>2024-02-04T14:14:10Z</time>
      </trkpt>
      <trkpt lat="42.89511" lon="1.17111">
        <ele>876.6</ele>
        <time>2024-02-04T14:14:11Z</time>
      </trkpt>
      <trkpt lat="42.89515" lon="1.17117">
        <ele>876.2</ele>
        <time>2024-02-04T14:14:12Z</time>
      </trkpt>
      <trkpt lat="42.89519" lon="1.17124">
        <ele>875.8</ele>
        <time>2024-02-04T14:14:13Z</time>
      </trkpt>
      <trkpt lat="42.89523" lon="1.17131">
        <ele>875.4</ele>
        <time>2024-02-04T14:14:14Z</time>
      </trkpt>
      <trkpt lat="42.89531" lon="1.17143">
        <ele>875.4</ele>
        <time>2024-02-04T14:14:16Z</time>
      </trkpt>
      <trkpt lat="42.89543" lon="1.17163">
        <ele>875</ele>
        <time>2024-02-04T14:14:19Z</time>
      </trkpt>
      <trkpt lat="42.89547" lon="1.1717">
        <ele>874.6</ele>
        <time>2024-02-04T14:14:20Z</time>
      </trkpt>
      <trkpt lat="42.89551" lon="1.17179">
        <ele>874</ele>
        <time>2024-02-04T14:14:21Z</time>
      </trkpt>
      <trkpt lat="42.89555" lon="1.17187">
        <ele>873.6</ele>
        <time>2024-02-04T14:14:22Z</time>
      </trkpt>
      <trkpt lat="42.89559" lon="1.17196">
        <ele>873.2</ele>
        <time>2024-02-04T14:14:23Z</time>
      </trkpt>
      <trkpt lat="42.89563" lon="1.17205">
        <ele>872.8</ele>
        <time>2024-02-04T14:14:24Z</time>
      </trkpt>
      <trkpt lat="42.89566" lon="1.17214">
        <ele>872.2</ele>
        <time>2024-02-04T14:14:25Z</time>
      </trkpt>
      <trkpt lat="42.89569" lon="1.17224">
        <ele>871.8</ele>
        <time>2024-02-04T14:14:26Z</time>
      </trkpt>
      <trkpt lat="42.89572" lon="1.17234">
        <ele>871.2</ele>
        <time>2024-02-04T14:14:27Z</time>
      </trkpt>
      <trkpt lat="42.89575" lon="1.17244">
        <ele>870.8</ele>
        <time>2024-02-04T14:14:28Z</time>
      </trkpt>
      <trkpt lat="42.89578" lon="1.17255">
        <ele>870.4</ele>
        <time>2024-02-04T14:14:29Z</time>
      </trkpt>
      <trkpt lat="42.8958" lon="1.17266">
        <ele>869.8</ele>
        <time>2024-02-04T14:14:30Z</time>
      </trkpt>
      <trkpt lat="42.89582" lon="1.17277">
        <ele>869.4</ele>
        <time>2024-02-04T14:14:31Z</time>
      </trkpt>
      <trkpt lat="42.89583" lon="1.17289">
        <ele>869</ele>
        <time>2024-02-04T14:14:32Z</time>
      </trkpt>
      <trkpt lat="42.89584" lon="1.173">
        <ele>868.4</ele>
        <time>2024-02-04T14:14:33Z</time>
      </trkpt>
      <trkpt lat="42.89584" lon="1.17311">
        <ele>868</ele>
        <time>2024-02-04T14:14:34Z</time>
      </trkpt>
      <trkpt lat="42.89584" lon="1.17322">
        <ele>867.4</ele>
        <time>2024-02-04T14:14:35Z</time>
      </trkpt>
      <trkpt lat="42.89584" lon="1.17334">
        <ele>867</ele>
        <time>2024-02-04T14:14:36Z</time>
      </trkpt>
      <trkpt lat="42.89583" lon="1.17346">
        <ele>866.4</ele>
        <time>2024-02-04T14:14:37Z</time>
      </trkpt>
      <trkpt lat="42.8958" lon="1.17357">
        <ele>866</ele>
        <time>2024-02-04T14:14:38Z</time>
      </trkpt>
      <trkpt lat="42.89579" lon="1.17369">
        <ele>865.6</ele>
        <time>2024-02-04T14:14:39Z</time>
      </trkpt>
      <trkpt lat="42.89577" lon="1.17381">
        <ele>865.2</ele>
        <time>2024-02-04T14:14:40Z</time>
      </trkpt>
      <trkpt lat="42.89575" lon="1.17393">
        <ele>864.6</ele>
        <time>2024-02-04T14:14:41Z</time>
      </trkpt>
      <trkpt lat="42.89572" lon="1.17405">
        <ele>864.2</ele>
        <time>2024-02-04T14:14:42Z</time>
      </trkpt>
      <trkpt lat="42.8957" lon="1.17416">
        <ele>863.8</ele>
        <time>2024-02-04T14:14:43Z</time>
      </trkpt>
      <trkpt lat="42.89568" lon="1.17428">
        <ele>863.4</ele>
        <time>2024-02-04T14:14:44Z</time>
      </trkpt>
      <trkpt lat="42.89565" lon="1.17441">
        <ele>862.8</ele>
        <time>2024-02-04T14:14:45Z</time>
      </trkpt>
      <trkpt lat="42.89562" lon="1.17453">
        <ele>862.4</ele>
        <time>2024-02-04T14:14:46Z</time>
      </trkpt>
      <trkpt lat="42.89558" lon="1.17465">
        <ele>861.8</ele>
        <time>2024-02-04T14:14:47Z</time>
      </trkpt>
      <trkpt lat="42.89556" lon="1.17477">
        <ele>861.2</ele>
        <time>2024-02-04T14:14:48Z</time>
      </trkpt>
      <trkpt lat="42.89552" lon="1.17489">
        <ele>860.2</ele>
        <time>2024-02-04T14:14:49Z</time>
      </trkpt>
      <trkpt lat="42.89549" lon="1.175">
        <ele>859.6</ele>
        <time>2024-02-04T14:14:50Z</time>
      </trkpt>
      <trkpt lat="42.89548" lon="1.17512">
        <ele>859.2</ele>
        <time>2024-02-04T14:14:51Z</time>
      </trkpt>
      <trkpt lat="42.89546" lon="1.17525">
        <ele>858.8</ele>
        <time>2024-02-04T14:14:52Z</time>
      </trkpt>
      <trkpt lat="42.89546" lon="1.17536">
        <ele>858.4</ele>
        <time>2024-02-04T14:14:53Z</time>
      </trkpt>
      <trkpt lat="42.89546" lon="1.17548">
        <ele>858</ele>
        <time>2024-02-04T14:14:54Z</time>
      </trkpt>
      <trkpt lat="42.89547" lon="1.17561">
        <ele>857.6</ele>
        <time>2024-02-04T14:14:55Z</time>
      </trkpt>
      <trkpt lat="42.89548" lon="1.17586">
        <ele>857.2</ele>
        <time>2024-02-04T14:14:57Z</time>
      </trkpt>
      <trkpt lat="42.89549" lon="1.17598">
        <ele>856.8</ele>
        <time>2024-02-04T14:14:58Z</time>
      </trkpt>
      <trkpt lat="42.89551" lon="1.17611">
        <ele>856.4</ele>
        <time>2024-02-04T14:14:59Z</time>
      </trkpt>
      <trkpt lat="42.89552" lon="1.17622">
        <ele>856</ele>
        <time>2024-02-04T14:15:00Z</time>
      </trkpt>
      <trkpt lat="42.89554" lon="1.17634">
        <ele>855.6</ele>
        <time>2024-02-04T14:15:01Z</time>
      </trkpt>
      <trkpt lat="42.89559" lon="1.17667">
        <ele>855.6</ele>
        <time>2024-02-04T14:15:04Z</time>
      </trkpt>
      <trkpt lat="42.8956" lon="1.17677">
        <ele>855.2</ele>
        <time>2024-02-04T14:15:05Z</time>
      </trkpt>
      <trkpt lat="42.89562" lon="1.17688">
        <ele>854.6</ele>
        <time>2024-02-04T14:15:06Z</time>
      </trkpt>
      <trkpt lat="42.89563" lon="1.177">
        <ele>854.2</ele>
        <time>2024-02-04T14:15:07Z</time>
      </trkpt>
      <trkpt lat="42.89563" lon="1.1771">
        <ele>853.8</ele>
        <time>2024-02-04T14:15:08Z</time>
      </trkpt>
      <trkpt lat="42.89564" lon="1.17721">
        <ele>853.2</ele>
        <time>2024-02-04T14:15:09Z</time>
      </trkpt>
      <trkpt lat="42.89567" lon="1.17753">
        <ele>853.2</ele>
        <time>2024-02-04T14:15:12Z</time>
      </trkpt>
      <trkpt lat="42.89567" lon="1.17762">
        <ele>852.8</ele>
        <time>2024-02-04T14:15:13Z</time>
      </trkpt>
      <trkpt lat="42.89567" lon="1.17772">
        <ele>852.4</ele>
        <time>2024-02-04T14:15:14Z</time>
      </trkpt>
      <trkpt lat="42.89567" lon="1.17781">
        <ele>852</ele>
        <time>2024-02-04T14:15:15Z</time>
      </trkpt>
      <trkpt lat="42.89567" lon="1.17789">
        <ele>851.4</ele>
        <time>2024-02-04T14:15:16Z</time>
      </trkpt>
      <trkpt lat="42.89566" lon="1.17797">
        <ele>851</ele>
        <time>2024-02-04T14:15:17Z</time>
      </trkpt>
      <trkpt lat="42.89566" lon="1.17812">
        <ele>850.6</ele>
        <time>2024-02-04T14:15:19Z</time>
      </trkpt>
      <trkpt lat="42.89565" lon="1.17816">
        <ele>850.2</ele>
        <time>2024-02-04T14:15:20Z</time>
      </trkpt>
      <trkpt lat="42.89565" lon="1.17821">
        <ele>849.6</ele>
        <time>2024-02-04T14:15:21Z</time>
      </trkpt>
      <trkpt lat="42.89564" lon="1.17823">
        <ele>849.2</ele>
        <time>2024-02-04T14:15:22Z</time>
      </trkpt>
      <trkpt lat="42.89564" lon="1.17824">
        <ele>848.8</ele>
        <time>2024-02-04T14:15:23Z</time>
      </trkpt>
      <trkpt lat="42.89565" lon="1.17823">
        <ele>848.8</ele>
        <time>2024-02-04T14:15:24Z</time>
      </trkpt>
      <trkpt lat="42.89562" lon="1.17825">
        <ele>848.8</ele>
        <time>2024-02-04T14:15:32Z</time>
      </trkpt>
      <trkpt lat="42.89558" lon="1.17828">
        <ele>848.8</ele>
        <time>2024-02-04T14:15:34Z</time>
      </trkpt>
      <trkpt lat="42.89545" lon="1.17836">
        <ele>848.8</ele>
        <time>2024-02-04T14:15:39Z</time>
      </trkpt>
      <trkpt lat="42.89526" lon="1.1783">
        <ele>848.8</ele>
        <time>2024-02-04T14:15:44Z</time>
      </trkpt>
      <trkpt lat="42.89521" lon="1.17829">
        <ele>848.4</ele>
        <time>2024-02-04T14:15:45Z</time>
      </trkpt>
      <trkpt lat="42.89517" lon="1.17827">
        <ele>848</ele>
        <time>2024-02-04T14:15:46Z</time>
      </trkpt>
      <trkpt lat="42.89512" lon="1.17826">
        <ele>847.6</ele>
        <time>2024-02-04T14:15:47Z</time>
      </trkpt>
      <trkpt lat="42.89507" lon="1.17824">
        <ele>847.2</ele>
        <time>2024-02-04T14:15:48Z</time>
      </trkpt>
      <trkpt lat="42.89501" lon="1.17822">
        <ele>846.8</ele>
        <time>2024-02-04T14:15:49Z</time>
      </trkpt>
      <trkpt lat="42.89495" lon="1.17821">
        <ele>846.8</ele>
        <time>2024-02-04T14:15:50Z</time>
      </trkpt>
      <trkpt lat="42.89475" lon="1.17819">
        <ele>846.2</ele>
        <time>2024-02-04T14:15:53Z</time>
      </trkpt>
      <trkpt lat="42.89468" lon="1.17819">
        <ele>845.8</ele>
        <time>2024-02-04T14:15:54Z</time>
      </trkpt>
      <trkpt lat="42.89462" lon="1.17823">
        <ele>845.2</ele>
        <time>2024-02-04T14:15:55Z</time>
      </trkpt>
      <trkpt lat="42.89458" lon="1.17831">
        <ele>844.8</ele>
        <time>2024-02-04T14:15:56Z</time>
      </trkpt>
      <trkpt lat="42.89455" lon="1.1784">
        <ele>844.2</ele>
        <time>2024-02-04T14:15:57Z</time>
      </trkpt>
      <trkpt lat="42.89457" lon="1.17846">
        <ele>843.8</ele>
        <time>2024-02-04T14:15:58Z</time>
      </trkpt>
      <trkpt lat="42.89462" lon="1.1785">
        <ele>843.2</ele>
        <time>2024-02-04T14:15:59Z</time>
      </trkpt>
      <trkpt lat="42.89468" lon="1.17852">
        <ele>842.8</ele>
        <time>2024-02-04T14:16:00Z</time>
      </trkpt>
      <trkpt lat="42.89475" lon="1.17856">
        <ele>842.2</ele>
        <time>2024-02-04T14:16:01Z</time>
      </trkpt>
      <trkpt lat="42.89482" lon="1.17861">
        <ele>841.6</ele>
        <time>2024-02-04T14:16:02Z</time>
      </trkpt>
      <trkpt lat="42.89489" lon="1.17865">
        <ele>840.4</ele>
        <time>2024-02-04T14:16:03Z</time>
      </trkpt>
      <trkpt lat="42.89495" lon="1.17869">
        <ele>839.8</ele>
        <time>2024-02-04T14:16:04Z</time>
      </trkpt>
      <trkpt lat="42.89499" lon="1.17872">
        <ele>839.2</ele>
        <time>2024-02-04T14:16:05Z</time>
      </trkpt>
      <trkpt lat="42.89501" lon="1.17874">
        <ele>838.6</ele>
        <time>2024-02-04T14:16:06Z</time>
      </trkpt>
      <trkpt lat="42.89502" lon="1.17875">
        <ele>838</ele>
        <time>2024-02-04T14:16:07Z</time>
      </trkpt>
      <trkpt lat="42.89503" lon="1.1788">
        <ele>838</ele>
        <time>2024-02-04T14:16:09Z</time>
      </trkpt>
      <trkpt lat="42.89502" lon="1.17881">
        <ele>838</ele>
        <time>2024-02-04T14:16:10Z</time>
      </trkpt>
      <trkpt lat="42.89501" lon="1.17879">
        <ele>837.6</ele>
        <time>2024-02-04T14:16:11Z</time>
      </trkpt>
      <trkpt lat="42.89498" lon="1.17876">
        <ele>837.2</ele>
        <time>2024-02-04T14:16:12Z</time>
      </trkpt>
      <trkpt lat="42.89494" lon="1.17874">
        <ele>836.8</ele>
        <time>2024-02-04T14:16:13Z</time>
      </trkpt>
      <trkpt lat="42.89489" lon="1.17872">
        <ele>836.4</ele>
        <time>2024-02-04T14:16:14Z</time>
      </trkpt>
      <trkpt lat="42.89483" lon="1.17871">
        <ele>836</ele>
        <time>2024-02-04T14:16:15Z</time>
      </trkpt>
      <trkpt lat="42.89477" lon="1.17869">
        <ele>835.4</ele>
        <time>2024-02-04T14:16:16Z</time>
      </trkpt>
      <trkpt lat="42.8947" lon="1.17866">
        <ele>835</ele>
        <time>2024-02-04T14:16:17Z</time>
      </trkpt>
      <trkpt lat="42.89464" lon="1.17863">
        <ele>834.4</ele>
        <time>2024-02-04T14:16:18Z</time>
      </trkpt>
      <trkpt lat="42.89458" lon="1.1786">
        <ele>834</ele>
        <time>2024-02-04T14:16:19Z</time>
      </trkpt>
      <trkpt lat="42.89452" lon="1.17857">
        <ele>833.4</ele>
        <time>2024-02-04T14:16:20Z</time>
      </trkpt>
      <trkpt lat="42.89446" lon="1.17854">
        <ele>833.4</ele>
        <time>2024-02-04T14:16:21Z</time>
      </trkpt>
      <trkpt lat="42.89441" lon="1.1785">
        <ele>833.4</ele>
        <time>2024-02-04T14:16:22Z</time>
      </trkpt>
      <trkpt lat="42.89432" lon="1.17841">
        <ele>833.4</ele>
        <time>2024-02-04T14:16:25Z</time>
      </trkpt>
      <trkpt lat="42.89418" lon="1.17835">
        <ele>833.4</ele>
        <time>2024-02-04T14:16:29Z</time>
      </trkpt>
      <trkpt lat="42.89413" lon="1.1783">
        <ele>833.4</ele>
        <time>2024-02-04T14:16:30Z</time>
      </trkpt>
      <trkpt lat="42.89408" lon="1.17823">
        <ele>833</ele>
        <time>2024-02-04T14:16:31Z</time>
      </trkpt>
      <trkpt lat="42.89404" lon="1.17817">
        <ele>832.6</ele>
        <time>2024-02-04T14:16:32Z</time>
      </trkpt>
      <trkpt lat="42.89399" lon="1.17811">
        <ele>832.2</ele>
        <time>2024-02-04T14:16:33Z</time>
      </trkpt>
      <trkpt lat="42.89394" lon="1.17807">
        <ele>831.4</ele>
        <time>2024-02-04T14:16:34Z</time>
      </trkpt>
      <trkpt lat="42.89389" lon="1.17802">
        <ele>830.8</ele>
        <time>2024-02-04T14:16:35Z</time>
      </trkpt>
      <trkpt lat="42.89385" lon="1.17796">
        <ele>830.2</ele>
        <time>2024-02-04T14:16:36Z</time>
      </trkpt>
      <trkpt lat="42.8938" lon="1.17792">
        <ele>829.4</ele>
        <time>2024-02-04T14:16:37Z</time>
      </trkpt>
      <trkpt lat="42.89374" lon="1.17788">
        <ele>828.6</ele>
        <time>2024-02-04T14:16:38Z</time>
      </trkpt>
      <trkpt lat="42.89369" lon="1.17784">
        <ele>827.8</ele>
        <time>2024-02-04T14:16:39Z</time>
      </trkpt>
      <trkpt lat="42.89364" lon="1.17779">
        <ele>827.2</ele>
        <time>2024-02-04T14:16:40Z</time>
      </trkpt>
      <trkpt lat="42.8936" lon="1.17776">
        <ele>826.4</ele>
        <time>2024-02-04T14:16:41Z</time>
      </trkpt>
      <trkpt lat="42.89356" lon="1.17775">
        <ele>825.8</ele>
        <time>2024-02-04T14:16:42Z</time>
      </trkpt>
      <trkpt lat="42.89352" lon="1.17777">
        <ele>825</ele>
        <time>2024-02-04T14:16:43Z</time>
      </trkpt>
      <trkpt lat="42.89347" lon="1.17778">
        <ele>824.2</ele>
        <time>2024-02-04T14:16:44Z</time>
      </trkpt>
      <trkpt lat="42.89342" lon="1.1778">
        <ele>823.4</ele>
        <time>2024-02-04T14:16:45Z</time>
      </trkpt>
      <trkpt lat="42.89336" lon="1.17782">
        <ele>822.8</ele>
        <time>2024-02-04T14:16:46Z</time>
      </trkpt>
      <trkpt lat="42.8933" lon="1.17781">
        <ele>822.2</ele>
        <time>2024-02-04T14:16:47Z</time>
      </trkpt>
      <trkpt lat="42.89326" lon="1.17778">
        <ele>821.6</ele>
        <time>2024-02-04T14:16:48Z</time>
      </trkpt>
      <trkpt lat="42.89323" lon="1.17773">
        <ele>821</ele>
        <time>2024-02-04T14:16:49Z</time>
      </trkpt>
      <trkpt lat="42.8932" lon="1.17768">
        <ele>820.4</ele>
        <time>2024-02-04T14:16:50Z</time>
      </trkpt>
      <trkpt lat="42.89317" lon="1.17763">
        <ele>819.6</ele>
        <time>2024-02-04T14:16:51Z</time>
      </trkpt>
      <trkpt lat="42.89314" lon="1.17759">
        <ele>818.2</ele>
        <time>2024-02-04T14:16:52Z</time>
      </trkpt>
      <trkpt lat="42.89309" lon="1.17757">
        <ele>817.6</ele>
        <time>2024-02-04T14:16:53Z</time>
      </trkpt>
      <trkpt lat="42.89304" lon="1.17756">
        <ele>817</ele>
        <time>2024-02-04T14:16:54Z</time>
      </trkpt>
      <trkpt lat="42.893" lon="1.17754">
        <ele>816.4</ele>
        <time>2024-02-04T14:16:55Z</time>
      </trkpt>
      <trkpt lat="42.89297" lon="1.17756">
        <ele>815.8</ele>
        <time>2024-02-04T14:16:56Z</time>
      </trkpt>
      <trkpt lat="42.89295" lon="1.17757">
        <ele>815.2</ele>
        <time>2024-02-04T14:16:57Z</time>
      </trkpt>
      <trkpt lat="42.89285" lon="1.17758">
        <ele>815.2</ele>
        <time>2024-02-04T14:17:01Z</time>
      </trkpt>
      <trkpt lat="42.8927" lon="1.17759">
        <ele>815.2</ele>
        <time>2024-02-04T14:17:05Z</time>
      </trkpt>
      <trkpt lat="42.89267" lon="1.17759">
        <ele>815.2</ele>
        <time>2024-02-04T14:17:06Z</time>
      </trkpt>
      <trkpt lat="42.89243" lon="1.17759">
        <ele>815.2</ele>
        <time>2024-02-04T14:17:11Z</time>
      </trkpt>
      <trkpt lat="42.89237" lon="1.17759">
        <ele>815.6</ele>
        <time>2024-02-04T14:17:12Z</time>
      </trkpt>
      <trkpt lat="42.89233" lon="1.1776">
        <ele>816.2</ele>
        <time>2024-02-04T14:17:13Z</time>
      </trkpt>
      <trkpt lat="42.8923" lon="1.1776">
        <ele>816.6</ele>
        <time>2024-02-04T14:17:14Z</time>
      </trkpt>
      <trkpt lat="42.89228" lon="1.17761">
        <ele>817</ele>
        <time>2024-02-04T14:17:15Z</time>
      </trkpt>
      <trkpt lat="42.89225" lon="1.17761">
        <ele>817.4</ele>
        <time>2024-02-04T14:17:16Z</time>
      </trkpt>
      <trkpt lat="42.89214" lon="1.17764">
        <ele>817.4</ele>
        <time>2024-02-04T14:17:21Z</time>
      </trkpt>
      <trkpt lat="42.89211" lon="1.17769">
        <ele>819.6</ele>
        <time>2024-02-04T14:17:33Z</time>
      </trkpt>
      <trkpt lat="42.89206" lon="1.17777">
        <ele>819.6</ele>
        <time>2024-02-04T14:17:35Z</time>
      </trkpt>
      <trkpt lat="42.89197" lon="1.17794">
        <ele>819.6</ele>
        <time>2024-02-04T14:17:40Z</time>
      </trkpt>
      <trkpt lat="42.89194" lon="1.17801">
        <ele>819.6</ele>
        <time>2024-02-04T14:17:42Z</time>
      </trkpt>
      <trkpt lat="42.8919" lon="1.17811">
        <ele>819.6</ele>
        <time>2024-02-04T14:17:45Z</time>
      </trkpt>
      <trkpt lat="42.89181" lon="1.17831">
        <ele>820</ele>
        <time>2024-02-04T14:17:49Z</time>
      </trkpt>
      <trkpt lat="42.89179" lon="1.17836">
        <ele>820.4</ele>
        <time>2024-02-04T14:17:50Z</time>
      </trkpt>
      <trkpt lat="42.89176" lon="1.17842">
        <ele>820.8</ele>
        <time>2024-02-04T14:17:51Z</time>
      </trkpt>
      <trkpt lat="42.89172" lon="1.17847">
        <ele>821.4</ele>
        <time>2024-02-04T14:17:52Z</time>
      </trkpt>
      <trkpt lat="42.8917" lon="1.17851">
        <ele>821.8</ele>
        <time>2024-02-04T14:17:53Z</time>
      </trkpt>
      <trkpt lat="42.89162" lon="1.17866">
        <ele>821.8</ele>
        <time>2024-02-04T14:17:57Z</time>
      </trkpt>
      <trkpt lat="42.8915" lon="1.17889">
        <ele>821.8</ele>
        <time>2024-02-04T14:18:02Z</time>
      </trkpt>
      <trkpt lat="42.89128" lon="1.17924">
        <ele>821.8</ele>
        <time>2024-02-04T14:18:09Z</time>
      </trkpt>
      <trkpt lat="42.89116" lon="1.17934">
        <ele>821.8</ele>
        <time>2024-02-04T14:18:13Z</time>
      </trkpt>
      <trkpt lat="42.8911" lon="1.17944">
        <ele>821.4</ele>
        <time>2024-02-04T14:18:15Z</time>
      </trkpt>
      <trkpt lat="42.89107" lon="1.17947">
        <ele>820.8</ele>
        <time>2024-02-04T14:18:16Z</time>
      </trkpt>
      <trkpt lat="42.89105" lon="1.1795">
        <ele>820.4</ele>
        <time>2024-02-04T14:18:17Z</time>
      </trkpt>
      <trkpt lat="42.89101" lon="1.1795">
        <ele>819.6</ele>
        <time>2024-02-04T14:18:18Z</time>
      </trkpt>
      <trkpt lat="42.89097" lon="1.17949">
        <ele>818.8</ele>
        <time>2024-02-04T14:18:19Z</time>
      </trkpt>
      <trkpt lat="42.89095" lon="1.17948">
        <ele>818</ele>
        <time>2024-02-04T14:18:20Z</time>
      </trkpt>
      <trkpt lat="42.89091" lon="1.17946">
        <ele>817.2</ele>
        <time>2024-02-04T14:18:21Z</time>
      </trkpt>
      <trkpt lat="42.89087" lon="1.17941">
        <ele>816.2</ele>
        <time>2024-02-04T14:18:22Z</time>
      </trkpt>
      <trkpt lat="42.89082" lon="1.17937">
        <ele>815.4</ele>
        <time>2024-02-04T14:18:23Z</time>
      </trkpt>
      <trkpt lat="42.89077" lon="1.17936">
        <ele>814.8</ele>
        <time>2024-02-04T14:18:24Z</time>
      </trkpt>
      <trkpt lat="42.89072" lon="1.17932">
        <ele>814.2</ele>
        <time>2024-02-04T14:18:25Z</time>
      </trkpt>
      <trkpt lat="42.89066" lon="1.1793">
        <ele>813.6</ele>
        <time>2024-02-04T14:18:26Z</time>
      </trkpt>
      <trkpt lat="42.8906" lon="1.17928">
        <ele>813</ele>
        <time>2024-02-04T14:18:27Z</time>
      </trkpt>
      <trkpt lat="42.89054" lon="1.17928">
        <ele>812.4</ele>
        <time>2024-02-04T14:18:28Z</time>
      </trkpt>
      <trkpt lat="42.89048" lon="1.17928">
        <ele>811.8</ele>
        <time>2024-02-04T14:18:29Z</time>
      </trkpt>
      <trkpt lat="42.89042" lon="1.17927">
        <ele>811.2</ele>
        <time>2024-02-04T14:18:30Z</time>
      </trkpt>
      <trkpt lat="42.89036" lon="1.17927">
        <ele>810</ele>
        <time>2024-02-04T14:18:31Z</time>
      </trkpt>
      <trkpt lat="42.89028" lon="1.1793">
        <ele>809.2</ele>
        <time>2024-02-04T14:18:32Z</time>
      </trkpt>
      <trkpt lat="42.8902" lon="1.17935">
        <ele>808.6</ele>
        <time>2024-02-04T14:18:33Z</time>
      </trkpt>
      <trkpt lat="42.89013" lon="1.17941">
        <ele>808</ele>
        <time>2024-02-04T14:18:34Z</time>
      </trkpt>
      <trkpt lat="42.89005" lon="1.17944">
        <ele>807.4</ele>
        <time>2024-02-04T14:18:35Z</time>
      </trkpt>
      <trkpt lat="42.88997" lon="1.17949">
        <ele>806.8</ele>
        <time>2024-02-04T14:18:36Z</time>
      </trkpt>
      <trkpt lat="42.8899" lon="1.17956">
        <ele>806.2</ele>
        <time>2024-02-04T14:18:37Z</time>
      </trkpt>
      <trkpt lat="42.88983" lon="1.17963">
        <ele>805.6</ele>
        <time>2024-02-04T14:18:38Z</time>
      </trkpt>
      <trkpt lat="42.88976" lon="1.1797">
        <ele>805</ele>
        <time>2024-02-04T14:18:39Z</time>
      </trkpt>
      <trkpt lat="42.8897" lon="1.17975">
        <ele>804.6</ele>
        <time>2024-02-04T14:18:40Z</time>
      </trkpt>
      <trkpt lat="42.88963" lon="1.17979">
        <ele>804.2</ele>
        <time>2024-02-04T14:18:41Z</time>
      </trkpt>
      <trkpt lat="42.88956" lon="1.17984">
        <ele>803.6</ele>
        <time>2024-02-04T14:18:42Z</time>
      </trkpt>
      <trkpt lat="42.88949" lon="1.17989">
        <ele>803.2</ele>
        <time>2024-02-04T14:18:43Z</time>
      </trkpt>
      <trkpt lat="42.88942" lon="1.17993">
        <ele>802.8</ele>
        <time>2024-02-04T14:18:44Z</time>
      </trkpt>
      <trkpt lat="42.88935" lon="1.17997">
        <ele>802.2</ele>
        <time>2024-02-04T14:18:45Z</time>
      </trkpt>
      <trkpt lat="42.88929" lon="1.17999">
        <ele>801.8</ele>
        <time>2024-02-04T14:18:46Z</time>
      </trkpt>
      <trkpt lat="42.88923" lon="1.18001">
        <ele>801.4</ele>
        <time>2024-02-04T14:18:47Z</time>
      </trkpt>
      <trkpt lat="42.88917" lon="1.18002">
        <ele>801</ele>
        <time>2024-02-04T14:18:48Z</time>
      </trkpt>
      <trkpt lat="42.88904" lon="1.18">
        <ele>800.4</ele>
        <time>2024-02-04T14:18:50Z</time>
      </trkpt>
      <trkpt lat="42.88898" lon="1.18">
        <ele>799.8</ele>
        <time>2024-02-04T14:18:51Z</time>
      </trkpt>
      <trkpt lat="42.88892" lon="1.18003">
        <ele>799.4</ele>
        <time>2024-02-04T14:18:52Z</time>
      </trkpt>
      <trkpt lat="42.88886" lon="1.18006">
        <ele>798.6</ele>
        <time>2024-02-04T14:18:53Z</time>
      </trkpt>
      <trkpt lat="42.8888" lon="1.18011">
        <ele>798</ele>
        <time>2024-02-04T14:18:54Z</time>
      </trkpt>
      <trkpt lat="42.88875" lon="1.18015">
        <ele>797.2</ele>
        <time>2024-02-04T14:18:55Z</time>
      </trkpt>
      <trkpt lat="42.8887" lon="1.1802">
        <ele>795.6</ele>
        <time>2024-02-04T14:18:56Z</time>
      </trkpt>
      <trkpt lat="42.88866" lon="1.18024">
        <ele>794.6</ele>
        <time>2024-02-04T14:18:57Z</time>
      </trkpt>
      <trkpt lat="42.8886" lon="1.18029">
        <ele>793.8</ele>
        <time>2024-02-04T14:18:58Z</time>
      </trkpt>
      <trkpt lat="42.88855" lon="1.18032">
        <ele>793</ele>
        <time>2024-02-04T14:18:59Z</time>
      </trkpt>
      <trkpt lat="42.88851" lon="1.18034">
        <ele>793</ele>
        <time>2024-02-04T14:19:00Z</time>
      </trkpt>
      <trkpt lat="42.88846" lon="1.18037">
        <ele>793</ele>
        <time>2024-02-04T14:19:01Z</time>
      </trkpt>
      <trkpt lat="42.88829" lon="1.18054">
        <ele>792.6</ele>
        <time>2024-02-04T14:19:05Z</time>
      </trkpt>
      <trkpt lat="42.88825" lon="1.18058">
        <ele>792.2</ele>
        <time>2024-02-04T14:19:06Z</time>
      </trkpt>
      <trkpt lat="42.88822" lon="1.18063">
        <ele>791.6</ele>
        <time>2024-02-04T14:19:07Z</time>
      </trkpt>
      <trkpt lat="42.88817" lon="1.18069">
        <ele>791.2</ele>
        <time>2024-02-04T14:19:08Z</time>
      </trkpt>
      <trkpt lat="42.88813" lon="1.18073">
        <ele>790.8</ele>
        <time>2024-02-04T14:19:09Z</time>
      </trkpt>
      <trkpt lat="42.88804" lon="1.18084">
        <ele>790.4</ele>
        <time>2024-02-04T14:19:11Z</time>
      </trkpt>
      <trkpt lat="42.888" lon="1.18089">
        <ele>790</ele>
        <time>2024-02-04T14:19:12Z</time>
      </trkpt>
      <trkpt lat="42.88794" lon="1.18094">
        <ele>789.6</ele>
        <time>2024-02-04T14:19:13Z</time>
      </trkpt>
      <trkpt lat="42.88788" lon="1.18095">
        <ele>788.8</ele>
        <time>2024-02-04T14:19:14Z</time>
      </trkpt>
      <trkpt lat="42.88783" lon="1.18096">
        <ele>788</ele>
        <time>2024-02-04T14:19:15Z</time>
      </trkpt>
      <trkpt lat="42.88778" lon="1.18095">
        <ele>787.4</ele>
        <time>2024-02-04T14:19:16Z</time>
      </trkpt>
      <trkpt lat="42.88773" lon="1.18093">
        <ele>786.6</ele>
        <time>2024-02-04T14:19:17Z</time>
      </trkpt>
      <trkpt lat="42.88768" lon="1.18093">
        <ele>786</ele>
        <time>2024-02-04T14:19:18Z</time>
      </trkpt>
      <trkpt lat="42.88762" lon="1.1809">
        <ele>785.2</ele>
        <time>2024-02-04T14:19:19Z</time>
      </trkpt>
      <trkpt lat="42.88758" lon="1.18088">
        <ele>783.6</ele>
        <time>2024-02-04T14:19:20Z</time>
      </trkpt>
      <trkpt lat="42.88752" lon="1.18089">
        <ele>782.8</ele>
        <time>2024-02-04T14:19:21Z</time>
      </trkpt>
      <trkpt lat="42.88746" lon="1.18088">
        <ele>781.8</ele>
        <time>2024-02-04T14:19:22Z</time>
      </trkpt>
      <trkpt lat="42.8874" lon="1.18088">
        <ele>780.8</ele>
        <time>2024-02-04T14:19:23Z</time>
      </trkpt>
      <trkpt lat="42.88735" lon="1.18087">
        <ele>779.6</ele>
        <time>2024-02-04T14:19:24Z</time>
      </trkpt>
      <trkpt lat="42.8873" lon="1.18087">
        <ele>778.4</ele>
        <time>2024-02-04T14:19:25Z</time>
      </trkpt>
      <trkpt lat="42.88724" lon="1.18088">
        <ele>777.2</ele>
        <time>2024-02-04T14:19:26Z</time>
      </trkpt>
      <trkpt lat="42.88719" lon="1.18088">
        <ele>776</ele>
        <time>2024-02-04T14:19:27Z</time>
      </trkpt>
      <trkpt lat="42.88714" lon="1.18089">
        <ele>774.6</ele>
        <time>2024-02-04T14:19:28Z</time>
      </trkpt>
      <trkpt lat="42.88709" lon="1.18089">
        <ele>773.6</ele>
        <time>2024-02-04T14:19:29Z</time>
      </trkpt>
      <trkpt lat="42.88703" lon="1.18088">
        <ele>772.8</ele>
        <time>2024-02-04T14:19:30Z</time>
      </trkpt>
      <trkpt lat="42.88698" lon="1.18089">
        <ele>771.8</ele>
        <time>2024-02-04T14:19:31Z</time>
      </trkpt>
      <trkpt lat="42.88693" lon="1.18093">
        <ele>770.8</ele>
        <time>2024-02-04T14:19:32Z</time>
      </trkpt>
      <trkpt lat="42.88689" lon="1.18095">
        <ele>769.8</ele>
        <time>2024-02-04T14:19:33Z</time>
      </trkpt>
      <trkpt lat="42.88684" lon="1.18098">
        <ele>769.8</ele>
        <time>2024-02-04T14:19:34Z</time>
      </trkpt>
      <trkpt lat="42.88677" lon="1.18103">
        <ele>769.8</ele>
        <time>2024-02-04T14:19:36Z</time>
      </trkpt>
      <trkpt lat="42.88663" lon="1.18113">
        <ele>769.8</ele>
        <time>2024-02-04T14:19:42Z</time>
      </trkpt>
      <trkpt lat="42.88662" lon="1.18115">
        <ele>767.6</ele>
        <time>2024-02-04T14:20:04Z</time>
      </trkpt>
      <trkpt lat="42.88659" lon="1.18122">
        <ele>767.6</ele>
        <time>2024-02-04T14:20:06Z</time>
      </trkpt>
      <trkpt lat="42.88656" lon="1.18126">
        <ele>767.6</ele>
        <time>2024-02-04T14:20:08Z</time>
      </trkpt>
      <trkpt lat="42.88651" lon="1.18132">
        <ele>767.2</ele>
        <time>2024-02-04T14:20:10Z</time>
      </trkpt>
      <trkpt lat="42.88649" lon="1.18135">
        <ele>766.8</ele>
        <time>2024-02-04T14:20:11Z</time>
      </trkpt>
      <trkpt lat="42.88646" lon="1.18138">
        <ele>766.4</ele>
        <time>2024-02-04T14:20:12Z</time>
      </trkpt>
      <trkpt lat="42.88643" lon="1.18141">
        <ele>766</ele>
        <time>2024-02-04T14:20:13Z</time>
      </trkpt>
      <trkpt lat="42.88641" lon="1.18144">
        <ele>765.6</ele>
        <time>2024-02-04T14:20:14Z</time>
      </trkpt>
      <trkpt lat="42.88638" lon="1.18147">
        <ele>765.6</ele>
        <time>2024-02-04T14:20:15Z</time>
      </trkpt>
      <trkpt lat="42.88618" lon="1.18166">
        <ele>765.6</ele>
        <time>2024-02-04T14:20:21Z</time>
      </trkpt>
      <trkpt lat="42.88613" lon="1.18179">
        <ele>765.6</ele>
        <time>2024-02-04T14:20:26Z</time>
      </trkpt>
      <trkpt lat="42.88613" lon="1.18181">
        <ele>765.2</ele>
        <time>2024-02-04T14:20:27Z</time>
      </trkpt>
      <trkpt lat="42.88612" lon="1.18182">
        <ele>764.6</ele>
        <time>2024-02-04T14:20:28Z</time>
      </trkpt>
      <trkpt lat="42.88612" lon="1.18188">
        <ele>763.2</ele>
        <time>2024-02-04T14:20:43Z</time>
      </trkpt>
      <trkpt lat="42.88611" lon="1.1819">
        <ele>763.2</ele>
        <time>2024-02-04T14:20:44Z</time>
      </trkpt>
      <trkpt lat="42.8861" lon="1.18192">
        <ele>762.6</ele>
        <time>2024-02-04T14:20:45Z</time>
      </trkpt>
      <trkpt lat="42.88609" lon="1.18194">
        <ele>762.2</ele>
        <time>2024-02-04T14:20:46Z</time>
      </trkpt>
      <trkpt lat="42.88608" lon="1.18195">
        <ele>761.8</ele>
        <time>2024-02-04T14:20:47Z</time>
      </trkpt>
      <trkpt lat="42.88603" lon="1.18195">
        <ele>761</ele>
        <time>2024-02-04T14:22:56Z</time>
      </trkpt>
      <trkpt lat="42.88592" lon="1.18186">
        <ele>761</ele>
        <time>2024-02-04T14:22:59Z</time>
      </trkpt>
      <trkpt lat="42.88586" lon="1.18181">
        <ele>760.4</ele>
        <time>2024-02-04T14:23:00Z</time>
      </trkpt>
      <trkpt lat="42.88581" lon="1.18175">
        <ele>760</ele>
        <time>2024-02-04T14:23:01Z</time>
      </trkpt>
      <trkpt lat="42.88574" lon="1.18169">
        <ele>759.4</ele>
        <time>2024-02-04T14:23:02Z</time>
      </trkpt>
      <trkpt lat="42.88566" lon="1.18163">
        <ele>758.2</ele>
        <time>2024-02-04T14:23:03Z</time>
      </trkpt>
      <trkpt lat="42.88558" lon="1.18158">
        <ele>757.4</ele>
        <time>2024-02-04T14:23:04Z</time>
      </trkpt>
      <trkpt lat="42.88549" lon="1.18155">
        <ele>756.6</ele>
        <time>2024-02-04T14:23:05Z</time>
      </trkpt>
      <trkpt lat="42.88541" lon="1.18154">
        <ele>755.6</ele>
        <time>2024-02-04T14:23:06Z</time>
      </trkpt>
      <trkpt lat="42.88532" lon="1.18156">
        <ele>754.6</ele>
        <time>2024-02-04T14:23:07Z</time>
      </trkpt>
      <trkpt lat="42.88522" lon="1.1816">
        <ele>753.4</ele>
        <time>2024-02-04T14:23:08Z</time>
      </trkpt>
      <trkpt lat="42.88514" lon="1.18164">
        <ele>752.4</ele>
        <time>2024-02-04T14:23:09Z</time>
      </trkpt>
      <trkpt lat="42.88505" lon="1.18168">
        <ele>751.2</ele>
        <time>2024-02-04T14:23:10Z</time>
      </trkpt>
      <trkpt lat="42.88497" lon="1.18172">
        <ele>749.8</ele>
        <time>2024-02-04T14:23:11Z</time>
      </trkpt>
      <trkpt lat="42.88488" lon="1.18176">
        <ele>748.6</ele>
        <time>2024-02-04T14:23:12Z</time>
      </trkpt>
      <trkpt lat="42.88478" lon="1.18181">
        <ele>747.4</ele>
        <time>2024-02-04T14:23:13Z</time>
      </trkpt>
      <trkpt lat="42.88469" lon="1.18185">
        <ele>746</ele>
        <time>2024-02-04T14:23:14Z</time>
      </trkpt>
      <trkpt lat="42.88459" lon="1.18189">
        <ele>744.6</ele>
        <time>2024-02-04T14:23:15Z</time>
      </trkpt>
      <trkpt lat="42.8845" lon="1.18194">
        <ele>743.2</ele>
        <time>2024-02-04T14:23:16Z</time>
      </trkpt>
      <trkpt lat="42.88441" lon="1.18202">
        <ele>741.8</ele>
        <time>2024-02-04T14:23:17Z</time>
      </trkpt>
      <trkpt lat="42.88432" lon="1.1821">
        <ele>740.2</ele>
        <time>2024-02-04T14:23:18Z</time>
      </trkpt>
      <trkpt lat="42.88423" lon="1.18219">
        <ele>738.8</ele>
        <time>2024-02-04T14:23:19Z</time>
      </trkpt>
      <trkpt lat="42.88414" lon="1.18228">
        <ele>737.4</ele>
        <time>2024-02-04T14:23:20Z</time>
      </trkpt>
      <trkpt lat="42.88405" lon="1.18235">
        <ele>736</ele>
        <time>2024-02-04T14:23:21Z</time>
      </trkpt>
      <trkpt lat="42.88395" lon="1.18242">
        <ele>734.6</ele>
        <time>2024-02-04T14:23:22Z</time>
      </trkpt>
      <trkpt lat="42.88386" lon="1.18248">
        <ele>733.2</ele>
        <time>2024-02-04T14:23:23Z</time>
      </trkpt>
      <trkpt lat="42.88378" lon="1.18253">
        <ele>732.4</ele>
        <time>2024-02-04T14:23:24Z</time>
      </trkpt>
      <trkpt lat="42.88369" lon="1.18258">
        <ele>731.6</ele>
        <time>2024-02-04T14:23:25Z</time>
      </trkpt>
      <trkpt lat="42.88361" lon="1.18263">
        <ele>731</ele>
        <time>2024-02-04T14:23:26Z</time>
      </trkpt>
      <trkpt lat="42.88354" lon="1.18267">
        <ele>729.4</ele>
        <time>2024-02-04T14:23:27Z</time>
      </trkpt>
      <trkpt lat="42.88347" lon="1.18272">
        <ele>729.4</ele>
        <time>2024-02-04T14:23:28Z</time>
      </trkpt>
      <trkpt lat="42.88329" lon="1.18284">
        <ele>729.4</ele>
        <time>2024-02-04T14:23:32Z</time>
      </trkpt>
      <trkpt lat="42.88321" lon="1.18289">
        <ele>729.4</ele>
        <time>2024-02-04T14:23:34Z</time>
      </trkpt>
      <trkpt lat="42.88312" lon="1.18298">
        <ele>729.4</ele>
        <time>2024-02-04T14:23:36Z</time>
      </trkpt>
      <trkpt lat="42.88308" lon="1.18301">
        <ele>729.8</ele>
        <time>2024-02-04T14:23:37Z</time>
      </trkpt>
      <trkpt lat="42.88304" lon="1.18305">
        <ele>730.4</ele>
        <time>2024-02-04T14:23:38Z</time>
      </trkpt>
      <trkpt lat="42.88299" lon="1.18308">
        <ele>730.8</ele>
        <time>2024-02-04T14:23:39Z</time>
      </trkpt>
      <trkpt lat="42.88295" lon="1.1831">
        <ele>731.2</ele>
        <time>2024-02-04T14:23:40Z</time>
      </trkpt>
      <trkpt lat="42.88292" lon="1.18313">
        <ele>731.6</ele>
        <time>2024-02-04T14:23:41Z</time>
      </trkpt>
      <trkpt lat="42.88286" lon="1.18321">
        <ele>731.6</ele>
        <time>2024-02-04T14:23:43Z</time>
      </trkpt>
      <trkpt lat="42.88283" lon="1.18326">
        <ele>732</ele>
        <time>2024-02-04T14:23:44Z</time>
      </trkpt>
      <trkpt lat="42.8828" lon="1.18331">
        <ele>732.4</ele>
        <time>2024-02-04T14:23:45Z</time>
      </trkpt>
      <trkpt lat="42.88276" lon="1.18336">
        <ele>733</ele>
        <time>2024-02-04T14:23:46Z</time>
      </trkpt>
      <trkpt lat="42.88273" lon="1.18342">
        <ele>733.4</ele>
        <time>2024-02-04T14:23:47Z</time>
      </trkpt>
      <trkpt lat="42.8827" lon="1.18346">
        <ele>733.8</ele>
        <time>2024-02-04T14:23:48Z</time>
      </trkpt>
      <trkpt lat="42.88262" lon="1.18361">
        <ele>733.8</ele>
        <time>2024-02-04T14:23:51Z</time>
      </trkpt>
      <trkpt lat="42.88251" lon="1.18386">
        <ele>733.8</ele>
        <time>2024-02-04T14:23:56Z</time>
      </trkpt>
      <trkpt lat="42.88233" lon="1.18412">
        <ele>733.4</ele>
        <time>2024-02-04T14:24:00Z</time>
      </trkpt>
      <trkpt lat="42.88228" lon="1.18418">
        <ele>733</ele>
        <time>2024-02-04T14:24:01Z</time>
      </trkpt>
      <trkpt lat="42.88223" lon="1.18425">
        <ele>732.6</ele>
        <time>2024-02-04T14:24:02Z</time>
      </trkpt>
      <trkpt lat="42.88217" lon="1.18433">
        <ele>731.8</ele>
        <time>2024-02-04T14:24:03Z</time>
      </trkpt>
      <trkpt lat="42.88211" lon="1.1844">
        <ele>731.2</ele>
        <time>2024-02-04T14:24:04Z</time>
      </trkpt>
      <trkpt lat="42.88206" lon="1.18448">
        <ele>730.6</ele>
        <time>2024-02-04T14:24:05Z</time>
      </trkpt>
      <trkpt lat="42.88201" lon="1.18458">
        <ele>730</ele>
        <time>2024-02-04T14:24:06Z</time>
      </trkpt>
      <trkpt lat="42.88197" lon="1.18468">
        <ele>729.4</ele>
        <time>2024-02-04T14:24:07Z</time>
      </trkpt>
      <trkpt lat="42.88194" lon="1.18477">
        <ele>728.8</ele>
        <time>2024-02-04T14:24:08Z</time>
      </trkpt>
      <trkpt lat="42.88192" lon="1.18485">
        <ele>728</ele>
        <time>2024-02-04T14:24:09Z</time>
      </trkpt>
      <trkpt lat="42.8819" lon="1.18491">
        <ele>727.4</ele>
        <time>2024-02-04T14:24:10Z</time>
      </trkpt>
      <trkpt lat="42.88186" lon="1.18494">
        <ele>726.8</ele>
        <time>2024-02-04T14:24:11Z</time>
      </trkpt>
      <trkpt lat="42.88175" lon="1.18506">
        <ele>726.8</ele>
        <time>2024-02-04T14:24:14Z</time>
      </trkpt>
      <trkpt lat="42.8816" lon="1.18523">
        <ele>726.8</ele>
        <time>2024-02-04T14:24:18Z</time>
      </trkpt>
      <trkpt lat="42.88155" lon="1.18527">
        <ele>726.8</ele>
        <time>2024-02-04T14:24:19Z</time>
      </trkpt>
      <trkpt lat="42.88145" lon="1.18535">
        <ele>726.8</ele>
        <time>2024-02-04T14:24:21Z</time>
      </trkpt>
      <trkpt lat="42.88131" lon="1.18549">
        <ele>726.8</ele>
        <time>2024-02-04T14:24:24Z</time>
      </trkpt>
      <trkpt lat="42.88106" lon="1.18569">
        <ele>726.8</ele>
        <time>2024-02-04T14:24:29Z</time>
      </trkpt>
      <trkpt lat="42.88101" lon="1.18572">
        <ele>726.8</ele>
        <time>2024-02-04T14:24:30Z</time>
      </trkpt>
      <trkpt lat="42.88092" lon="1.1858">
        <ele>726.8</ele>
        <time>2024-02-04T14:24:32Z</time>
      </trkpt>
      <trkpt lat="42.88088" lon="1.18583">
        <ele>726.8</ele>
        <time>2024-02-04T14:24:33Z</time>
      </trkpt>
      <trkpt lat="42.88077" lon="1.18589">
        <ele>726.8</ele>
        <time>2024-02-04T14:24:35Z</time>
      </trkpt>
      <trkpt lat="42.88062" lon="1.186">
        <ele>726.8</ele>
        <time>2024-02-04T14:24:38Z</time>
      </trkpt>
      <trkpt lat="42.88039" lon="1.18617">
        <ele>726.8</ele>
        <time>2024-02-04T14:24:43Z</time>
      </trkpt>
      <trkpt lat="42.88035" lon="1.18621">
        <ele>726.4</ele>
        <time>2024-02-04T14:24:44Z</time>
      </trkpt>
      <trkpt lat="42.88031" lon="1.18625">
        <ele>726</ele>
        <time>2024-02-04T14:24:45Z</time>
      </trkpt>
      <trkpt lat="42.88027" lon="1.18629">
        <ele>725.6</ele>
        <time>2024-02-04T14:24:46Z</time>
      </trkpt>
      <trkpt lat="42.88023" lon="1.18633">
        <ele>725.2</ele>
        <time>2024-02-04T14:24:47Z</time>
      </trkpt>
      <trkpt lat="42.88019" lon="1.18637">
        <ele>724.8</ele>
        <time>2024-02-04T14:24:48Z</time>
      </trkpt>
      <trkpt lat="42.88014" lon="1.18643">
        <ele>724.8</ele>
        <time>2024-02-04T14:24:49Z</time>
      </trkpt>
      <trkpt lat="42.88007" lon="1.18654">
        <ele>724.8</ele>
        <time>2024-02-04T14:24:51Z</time>
      </trkpt>
      <trkpt lat="42.88003" lon="1.1866">
        <ele>724.8</ele>
        <time>2024-02-04T14:24:52Z</time>
      </trkpt>
      <trkpt lat="42.87992" lon="1.18677">
        <ele>724.8</ele>
        <time>2024-02-04T14:24:55Z</time>
      </trkpt>
      <trkpt lat="42.87983" lon="1.18698">
        <ele>724.8</ele>
        <time>2024-02-04T14:24:58Z</time>
      </trkpt>
      <trkpt lat="42.8797" lon="1.18722">
        <ele>724.8</ele>
        <time>2024-02-04T14:25:02Z</time>
      </trkpt>
      <trkpt lat="42.87966" lon="1.18727">
        <ele>724.8</ele>
        <time>2024-02-04T14:25:03Z</time>
      </trkpt>
      <trkpt lat="42.87948" lon="1.18754">
        <ele>724.4</ele>
        <time>2024-02-04T14:25:07Z</time>
      </trkpt>
      <trkpt lat="42.87944" lon="1.18761">
        <ele>723.8</ele>
        <time>2024-02-04T14:25:08Z</time>
      </trkpt>
      <trkpt lat="42.8794" lon="1.18767">
        <ele>723.4</ele>
        <time>2024-02-04T14:25:09Z</time>
      </trkpt>
      <trkpt lat="42.87936" lon="1.18772">
        <ele>722.8</ele>
        <time>2024-02-04T14:25:10Z</time>
      </trkpt>
      <trkpt lat="42.87932" lon="1.18776">
        <ele>722.2</ele>
        <time>2024-02-04T14:25:11Z</time>
      </trkpt>
      <trkpt lat="42.87926" lon="1.1878">
        <ele>721.6</ele>
        <time>2024-02-04T14:25:12Z</time>
      </trkpt>
      <trkpt lat="42.87921" lon="1.18782">
        <ele>720.8</ele>
        <time>2024-02-04T14:25:13Z</time>
      </trkpt>
      <trkpt lat="42.87914" lon="1.18783">
        <ele>720</ele>
        <time>2024-02-04T14:25:14Z</time>
      </trkpt>
      <trkpt lat="42.87908" lon="1.18784">
        <ele>719</ele>
        <time>2024-02-04T14:25:15Z</time>
      </trkpt>
      <trkpt lat="42.87901" lon="1.18784">
        <ele>718</ele>
        <time>2024-02-04T14:25:16Z</time>
      </trkpt>
      <trkpt lat="42.87894" lon="1.18786">
        <ele>717</ele>
        <time>2024-02-04T14:25:17Z</time>
      </trkpt>
      <trkpt lat="42.87887" lon="1.18788">
        <ele>715.8</ele>
        <time>2024-02-04T14:25:18Z</time>
      </trkpt>
      <trkpt lat="42.8788" lon="1.18791">
        <ele>714.4</ele>
        <time>2024-02-04T14:25:19Z</time>
      </trkpt>
      <trkpt lat="42.87874" lon="1.18794">
        <ele>713</ele>
        <time>2024-02-04T14:25:20Z</time>
      </trkpt>
      <trkpt lat="42.87868" lon="1.18797">
        <ele>711.6</ele>
        <time>2024-02-04T14:25:21Z</time>
      </trkpt>
      <trkpt lat="42.87861" lon="1.188">
        <ele>710.4</ele>
        <time>2024-02-04T14:25:22Z</time>
      </trkpt>
      <trkpt lat="42.87854" lon="1.18804">
        <ele>709</ele>
        <time>2024-02-04T14:25:23Z</time>
      </trkpt>
      <trkpt lat="42.87846" lon="1.18807">
        <ele>707.6</ele>
        <time>2024-02-04T14:25:24Z</time>
      </trkpt>
      <trkpt lat="42.87838" lon="1.18808">
        <ele>706.4</ele>
        <time>2024-02-04T14:25:25Z</time>
      </trkpt>
      <trkpt lat="42.87832" lon="1.18809">
        <ele>705</ele>
        <time>2024-02-04T14:25:26Z</time>
      </trkpt>
      <trkpt lat="42.87824" lon="1.1881">
        <ele>703.6</ele>
        <time>2024-02-04T14:25:27Z</time>
      </trkpt>
      <trkpt lat="42.87816" lon="1.18813">
        <ele>702.2</ele>
        <time>2024-02-04T14:25:28Z</time>
      </trkpt>
      <trkpt lat="42.87807" lon="1.18815">
        <ele>700.8</ele>
        <time>2024-02-04T14:25:29Z</time>
      </trkpt>
      <trkpt lat="42.87798" lon="1.18815">
        <ele>699.2</ele>
        <time>2024-02-04T14:25:30Z</time>
      </trkpt>
      <trkpt lat="42.87789" lon="1.18812">
        <ele>696.2</ele>
        <time>2024-02-04T14:25:31Z</time>
      </trkpt>
      <trkpt lat="42.8778" lon="1.18805">
        <ele>694.6</ele>
        <time>2024-02-04T14:25:32Z</time>
      </trkpt>
      <trkpt lat="42.87772" lon="1.188">
        <ele>693.6</ele>
        <time>2024-02-04T14:25:33Z</time>
      </trkpt>
      <trkpt lat="42.87763" lon="1.18797">
        <ele>692.4</ele>
        <time>2024-02-04T14:25:34Z</time>
      </trkpt>
      <trkpt lat="42.87756" lon="1.18796">
        <ele>691.4</ele>
        <time>2024-02-04T14:25:35Z</time>
      </trkpt>
      <trkpt lat="42.87748" lon="1.18796">
        <ele>690.6</ele>
        <time>2024-02-04T14:25:36Z</time>
      </trkpt>
      <trkpt lat="42.8774" lon="1.18796">
        <ele>689.6</ele>
        <time>2024-02-04T14:25:37Z</time>
      </trkpt>
      <trkpt lat="42.87733" lon="1.18795">
        <ele>688.8</ele>
        <time>2024-02-04T14:25:38Z</time>
      </trkpt>
      <trkpt lat="42.87725" lon="1.18795">
        <ele>687.8</ele>
        <time>2024-02-04T14:25:39Z</time>
      </trkpt>
      <trkpt lat="42.87718" lon="1.18795">
        <ele>687.2</ele>
        <time>2024-02-04T14:25:40Z</time>
      </trkpt>
      <trkpt lat="42.87711" lon="1.18795">
        <ele>686.6</ele>
        <time>2024-02-04T14:25:41Z</time>
      </trkpt>
      <trkpt lat="42.87703" lon="1.18796">
        <ele>686</ele>
        <time>2024-02-04T14:25:42Z</time>
      </trkpt>
      <trkpt lat="42.87696" lon="1.18797">
        <ele>685.4</ele>
        <time>2024-02-04T14:25:43Z</time>
      </trkpt>
      <trkpt lat="42.87689" lon="1.18798">
        <ele>684.8</ele>
        <time>2024-02-04T14:25:44Z</time>
      </trkpt>
      <trkpt lat="42.87682" lon="1.18799">
        <ele>684.8</ele>
        <time>2024-02-04T14:25:45Z</time>
      </trkpt>
      <trkpt lat="42.87659" lon="1.18803">
        <ele>684.4</ele>
        <time>2024-02-04T14:25:49Z</time>
      </trkpt>
      <trkpt lat="42.87654" lon="1.18804">
        <ele>684</ele>
        <time>2024-02-04T14:25:50Z</time>
      </trkpt>
      <trkpt lat="42.8765" lon="1.18806">
        <ele>683.6</ele>
        <time>2024-02-04T14:25:51Z</time>
      </trkpt>
      <trkpt lat="42.87646" lon="1.18807">
        <ele>683.2</ele>
        <time>2024-02-04T14:25:52Z</time>
      </trkpt>
      <trkpt lat="42.87642" lon="1.18808">
        <ele>682.8</ele>
        <time>2024-02-04T14:25:53Z</time>
      </trkpt>
      <trkpt lat="42.87639" lon="1.18808">
        <ele>682.8</ele>
        <time>2024-02-04T14:25:54Z</time>
      </trkpt>
      <trkpt lat="42.87623" lon="1.18814">
        <ele>682.8</ele>
        <time>2024-02-04T14:25:58Z</time>
      </trkpt>
      <trkpt lat="42.87605" lon="1.18822">
        <ele>682.8</ele>
        <time>2024-02-04T14:26:03Z</time>
      </trkpt>
      <trkpt lat="42.87595" lon="1.18826">
        <ele>682.8</ele>
        <time>2024-02-04T14:26:05Z</time>
      </trkpt>
      <trkpt lat="42.8759" lon="1.1883">
        <ele>682.8</ele>
        <time>2024-02-04T14:26:06Z</time>
      </trkpt>
      <trkpt lat="42.8756" lon="1.18846">
        <ele>682.8</ele>
        <time>2024-02-04T14:26:11Z</time>
      </trkpt>
      <trkpt lat="42.87554" lon="1.18849">
        <ele>682.4</ele>
        <time>2024-02-04T14:26:12Z</time>
      </trkpt>
      <trkpt lat="42.87549" lon="1.18853">
        <ele>681.8</ele>
        <time>2024-02-04T14:26:13Z</time>
      </trkpt>
      <trkpt lat="42.87543" lon="1.18857">
        <ele>681.4</ele>
        <time>2024-02-04T14:26:14Z</time>
      </trkpt>
      <trkpt lat="42.87536" lon="1.18862">
        <ele>681</ele>
        <time>2024-02-04T14:26:15Z</time>
      </trkpt>
      <trkpt lat="42.8753" lon="1.18867">
        <ele>680.6</ele>
        <time>2024-02-04T14:26:16Z</time>
      </trkpt>
      <trkpt lat="42.87525" lon="1.18872">
        <ele>680.6</ele>
        <time>2024-02-04T14:26:17Z</time>
      </trkpt>
      <trkpt lat="42.87514" lon="1.18881">
        <ele>680.2</ele>
        <time>2024-02-04T14:26:19Z</time>
      </trkpt>
      <trkpt lat="42.87509" lon="1.18887">
        <ele>679.8</ele>
        <time>2024-02-04T14:26:20Z</time>
      </trkpt>
      <trkpt lat="42.87505" lon="1.18892">
        <ele>679</ele>
        <time>2024-02-04T14:26:21Z</time>
      </trkpt>
      <trkpt lat="42.875" lon="1.18897">
        <ele>678.6</ele>
        <time>2024-02-04T14:26:22Z</time>
      </trkpt>
      <trkpt lat="42.87496" lon="1.18902">
        <ele>678.2</ele>
        <time>2024-02-04T14:26:23Z</time>
      </trkpt>
      <trkpt lat="42.87492" lon="1.18908">
        <ele>677.6</ele>
        <time>2024-02-04T14:26:24Z</time>
      </trkpt>
      <trkpt lat="42.87488" lon="1.18914">
        <ele>677.2</ele>
        <time>2024-02-04T14:26:25Z</time>
      </trkpt>
      <trkpt lat="42.87484" lon="1.18921">
        <ele>676.6</ele>
        <time>2024-02-04T14:26:26Z</time>
      </trkpt>
      <trkpt lat="42.87482" lon="1.18928">
        <ele>675.8</ele>
        <time>2024-02-04T14:26:27Z</time>
      </trkpt>
      <trkpt lat="42.87478" lon="1.18936">
        <ele>675</ele>
        <time>2024-02-04T14:26:28Z</time>
      </trkpt>
      <trkpt lat="42.87475" lon="1.18942">
        <ele>674.2</ele>
        <time>2024-02-04T14:26:29Z</time>
      </trkpt>
      <trkpt lat="42.87471" lon="1.18947">
        <ele>673.4</ele>
        <time>2024-02-04T14:26:30Z</time>
      </trkpt>
      <trkpt lat="42.87468" lon="1.1895">
        <ele>672.4</ele>
        <time>2024-02-04T14:26:31Z</time>
      </trkpt>
      <trkpt lat="42.87465" lon="1.18952">
        <ele>671.6</ele>
        <time>2024-02-04T14:26:32Z</time>
      </trkpt>
      <trkpt lat="42.87461" lon="1.18954">
        <ele>671.6</ele>
        <time>2024-02-04T14:26:33Z</time>
      </trkpt>
      <trkpt lat="42.87454" lon="1.18964">
        <ele>671.6</ele>
        <time>2024-02-04T14:26:35Z</time>
      </trkpt>
      <trkpt lat="42.87447" lon="1.18976">
        <ele>671.6</ele>
        <time>2024-02-04T14:26:37Z</time>
      </trkpt>
      <trkpt lat="42.8744" lon="1.18988">
        <ele>671.6</ele>
        <time>2024-02-04T14:26:39Z</time>
      </trkpt>
      <trkpt lat="42.87434" lon="1.18994">
        <ele>671.6</ele>
        <time>2024-02-04T14:26:41Z</time>
      </trkpt>
      <trkpt lat="42.87423" lon="1.19002">
        <ele>672.2</ele>
        <time>2024-02-04T14:26:44Z</time>
      </trkpt>
      <trkpt lat="42.87421" lon="1.19004">
        <ele>672.6</ele>
        <time>2024-02-04T14:26:45Z</time>
      </trkpt>
      <trkpt lat="42.87417" lon="1.19006">
        <ele>673.6</ele>
        <time>2024-02-04T14:26:46Z</time>
      </trkpt>
      <trkpt lat="42.87414" lon="1.19008">
        <ele>674.2</ele>
        <time>2024-02-04T14:26:47Z</time>
      </trkpt>
      <trkpt lat="42.87412" lon="1.1901">
        <ele>674.8</ele>
        <time>2024-02-04T14:26:48Z</time>
      </trkpt>
      <trkpt lat="42.8741" lon="1.1901">
        <ele>675.4</ele>
        <time>2024-02-04T14:26:49Z</time>
      </trkpt>
      <trkpt lat="42.87408" lon="1.19011">
        <ele>676</ele>
        <time>2024-02-04T14:26:50Z</time>
      </trkpt>
      <trkpt lat="42.87407" lon="1.19012">
        <ele>676.8</ele>
        <time>2024-02-04T14:26:51Z</time>
      </trkpt>
      <trkpt lat="42.87405" lon="1.19014">
        <ele>677.4</ele>
        <time>2024-02-04T14:26:52Z</time>
      </trkpt>
      <trkpt lat="42.87404" lon="1.19016">
        <ele>678.2</ele>
        <time>2024-02-04T14:26:53Z</time>
      </trkpt>
      <trkpt lat="42.87403" lon="1.19016">
        <ele>678.8</ele>
        <time>2024-02-04T14:26:54Z</time>
      </trkpt>
      <trkpt lat="42.87402" lon="1.19017">
        <ele>678.8</ele>
        <time>2024-02-04T14:26:55Z</time>
      </trkpt>
      <trkpt lat="42.87399" lon="1.19018">
        <ele>679.4</ele>
        <time>2024-02-04T14:26:58Z</time>
      </trkpt>
      <trkpt lat="42.8739" lon="1.19025">
        <ele>681</ele>
        <time>2024-02-04T14:27:32Z</time>
      </trkpt>
      <trkpt lat="42.87387" lon="1.19032">
        <ele>682</ele>
        <time>2024-02-04T14:27:35Z</time>
      </trkpt>
      <trkpt lat="42.87386" lon="1.19033">
        <ele>682.4</ele>
        <time>2024-02-04T14:27:36Z</time>
      </trkpt>
      <trkpt lat="42.87385" lon="1.19036">
        <ele>683</ele>
        <time>2024-02-04T14:27:37Z</time>
      </trkpt>
      <trkpt lat="42.87384" lon="1.19039">
        <ele>683.4</ele>
        <time>2024-02-04T14:27:38Z</time>
      </trkpt>
      <trkpt lat="42.87383" lon="1.19042">
        <ele>683.4</ele>
        <time>2024-02-04T14:27:39Z</time>
      </trkpt>
      <trkpt lat="42.87381" lon="1.19049">
        <ele>683.4</ele>
        <time>2024-02-04T14:27:42Z</time>
      </trkpt>
      <trkpt lat="42.87381" lon="1.19051">
        <ele>683.4</ele>
        <time>2024-02-04T14:27:43Z</time>
      </trkpt>
      <trkpt lat="42.8738" lon="1.19055">
        <ele>683.8</ele>
        <time>2024-02-04T14:27:44Z</time>
      </trkpt>
      <trkpt lat="42.87378" lon="1.19058">
        <ele>684.4</ele>
        <time>2024-02-04T14:27:45Z</time>
      </trkpt>
      <trkpt lat="42.87376" lon="1.19061">
        <ele>684.8</ele>
        <time>2024-02-04T14:27:46Z</time>
      </trkpt>
      <trkpt lat="42.87375" lon="1.19065">
        <ele>685.2</ele>
        <time>2024-02-04T14:27:47Z</time>
      </trkpt>
      <trkpt lat="42.87372" lon="1.19069">
        <ele>685.8</ele>
        <time>2024-02-04T14:27:48Z</time>
      </trkpt>
      <trkpt lat="42.87369" lon="1.19073">
        <ele>686.2</ele>
        <time>2024-02-04T14:27:49Z</time>
      </trkpt>
      <trkpt lat="42.87366" lon="1.19078">
        <ele>686.6</ele>
        <time>2024-02-04T14:27:50Z</time>
      </trkpt>
      <trkpt lat="42.87362" lon="1.19083">
        <ele>687.2</ele>
        <time>2024-02-04T14:27:51Z</time>
      </trkpt>
      <trkpt lat="42.87359" lon="1.19087">
        <ele>687.6</ele>
        <time>2024-02-04T14:27:52Z</time>
      </trkpt>
      <trkpt lat="42.87356" lon="1.19092">
        <ele>688</ele>
        <time>2024-02-04T14:27:53Z</time>
      </trkpt>
      <trkpt lat="42.87353" lon="1.19096">
        <ele>688.4</ele>
        <time>2024-02-04T14:27:54Z</time>
      </trkpt>
      <trkpt lat="42.8735" lon="1.191">
        <ele>689</ele>
        <time>2024-02-04T14:27:55Z</time>
      </trkpt>
      <trkpt lat="42.87347" lon="1.19104">
        <ele>689.4</ele>
        <time>2024-02-04T14:27:56Z</time>
      </trkpt>
      <trkpt lat="42.87344" lon="1.19108">
        <ele>689.8</ele>
        <time>2024-02-04T14:27:57Z</time>
      </trkpt>
      <trkpt lat="42.8734" lon="1.19112">
        <ele>690.4</ele>
        <time>2024-02-04T14:27:58Z</time>
      </trkpt>
      <trkpt lat="42.87337" lon="1.19116">
        <ele>690.8</ele>
        <time>2024-02-04T14:27:59Z</time>
      </trkpt>
      <trkpt lat="42.87333" lon="1.19121">
        <ele>691.6</ele>
        <time>2024-02-04T14:28:00Z</time>
      </trkpt>
      <trkpt lat="42.8733" lon="1.19125">
        <ele>692.2</ele>
        <time>2024-02-04T14:28:01Z</time>
      </trkpt>
      <trkpt lat="42.87326" lon="1.1913">
        <ele>692.6</ele>
        <time>2024-02-04T14:28:02Z</time>
      </trkpt>
      <trkpt lat="42.87318" lon="1.19139">
        <ele>692.6</ele>
        <time>2024-02-04T14:28:04Z</time>
      </trkpt>
      <trkpt lat="42.87308" lon="1.19155">
        <ele>692.6</ele>
        <time>2024-02-04T14:28:07Z</time>
      </trkpt>
      <trkpt lat="42.87304" lon="1.19159">
        <ele>692.6</ele>
        <time>2024-02-04T14:28:08Z</time>
      </trkpt>
      <trkpt lat="42.87292" lon="1.1917">
        <ele>692.6</ele>
        <time>2024-02-04T14:28:11Z</time>
      </trkpt>
      <trkpt lat="42.87288" lon="1.19174">
        <ele>692.6</ele>
        <time>2024-02-04T14:28:12Z</time>
      </trkpt>
      <trkpt lat="42.87274" lon="1.19185">
        <ele>692.6</ele>
        <time>2024-02-04T14:28:15Z</time>
      </trkpt>
      <trkpt lat="42.87269" lon="1.19187">
        <ele>692.6</ele>
        <time>2024-02-04T14:28:16Z</time>
      </trkpt>
      <trkpt lat="42.87263" lon="1.19191">
        <ele>692.6</ele>
        <time>2024-02-04T14:28:17Z</time>
      </trkpt>
      <trkpt lat="42.87246" lon="1.19205">
        <ele>692.2</ele>
        <time>2024-02-04T14:28:20Z</time>
      </trkpt>
      <trkpt lat="42.8724" lon="1.19211">
        <ele>691.8</ele>
        <time>2024-02-04T14:28:21Z</time>
      </trkpt>
      <trkpt lat="42.87234" lon="1.1922">
        <ele>691.2</ele>
        <time>2024-02-04T14:28:22Z</time>
      </trkpt>
      <trkpt lat="42.87228" lon="1.19229">
        <ele>690.8</ele>
        <time>2024-02-04T14:28:23Z</time>
      </trkpt>
      <trkpt lat="42.87223" lon="1.19237">
        <ele>689.6</ele>
        <time>2024-02-04T14:28:24Z</time>
      </trkpt>
      <trkpt lat="42.87218" lon="1.19246">
        <ele>689</ele>
        <time>2024-02-04T14:28:25Z</time>
      </trkpt>
      <trkpt lat="42.87213" lon="1.19257">
        <ele>688.4</ele>
        <time>2024-02-04T14:28:26Z</time>
      </trkpt>
      <trkpt lat="42.8721" lon="1.19267">
        <ele>688.4</ele>
        <time>2024-02-04T14:28:27Z</time>
      </trkpt>
      <trkpt lat="42.87207" lon="1.19278">
        <ele>687.8</ele>
        <time>2024-02-04T14:28:28Z</time>
      </trkpt>
      <trkpt lat="42.87203" lon="1.1929">
        <ele>687.4</ele>
        <time>2024-02-04T14:28:29Z</time>
      </trkpt>
      <trkpt lat="42.872" lon="1.19301">
        <ele>686.8</ele>
        <time>2024-02-04T14:28:30Z</time>
      </trkpt>
      <trkpt lat="42.87196" lon="1.19311">
        <ele>686.4</ele>
        <time>2024-02-04T14:28:31Z</time>
      </trkpt>
      <trkpt lat="42.87192" lon="1.1932">
        <ele>685.8</ele>
        <time>2024-02-04T14:28:32Z</time>
      </trkpt>
      <trkpt lat="42.87187" lon="1.19329">
        <ele>685.2</ele>
        <time>2024-02-04T14:28:33Z</time>
      </trkpt>
      <trkpt lat="42.87181" lon="1.19336">
        <ele>684.8</ele>
        <time>2024-02-04T14:28:34Z</time>
      </trkpt>
      <trkpt lat="42.87175" lon="1.19343">
        <ele>684</ele>
        <time>2024-02-04T14:28:35Z</time>
      </trkpt>
      <trkpt lat="42.87168" lon="1.19349">
        <ele>683.2</ele>
        <time>2024-02-04T14:28:36Z</time>
      </trkpt>
      <trkpt lat="42.8716" lon="1.19353">
        <ele>682.2</ele>
        <time>2024-02-04T14:28:37Z</time>
      </trkpt>
      <trkpt lat="42.87153" lon="1.19357">
        <ele>681.4</ele>
        <time>2024-02-04T14:28:38Z</time>
      </trkpt>
      <trkpt lat="42.87145" lon="1.19362">
        <ele>680.4</ele>
        <time>2024-02-04T14:28:39Z</time>
      </trkpt>
      <trkpt lat="42.87137" lon="1.19367">
        <ele>679.6</ele>
        <time>2024-02-04T14:28:40Z</time>
      </trkpt>
      <trkpt lat="42.87131" lon="1.19373">
        <ele>678.8</ele>
        <time>2024-02-04T14:28:41Z</time>
      </trkpt>
      <trkpt lat="42.87125" lon="1.19381">
        <ele>678</ele>
        <time>2024-02-04T14:28:42Z</time>
      </trkpt>
      <trkpt lat="42.8712" lon="1.19388">
        <ele>677.2</ele>
        <time>2024-02-04T14:28:43Z</time>
      </trkpt>
      <trkpt lat="42.87116" lon="1.19396">
        <ele>676.4</ele>
        <time>2024-02-04T14:28:44Z</time>
      </trkpt>
      <trkpt lat="42.87113" lon="1.19404">
        <ele>676</ele>
        <time>2024-02-04T14:28:45Z</time>
      </trkpt>
      <trkpt lat="42.87109" lon="1.19409">
        <ele>675.6</ele>
        <time>2024-02-04T14:28:46Z</time>
      </trkpt>
      <trkpt lat="42.87107" lon="1.19415">
        <ele>675.2</ele>
        <time>2024-02-04T14:28:47Z</time>
      </trkpt>
      <trkpt lat="42.87104" lon="1.19421">
        <ele>674.8</ele>
        <time>2024-02-04T14:28:48Z</time>
      </trkpt>
      <trkpt lat="42.87101" lon="1.19426">
        <ele>674.4</ele>
        <time>2024-02-04T14:28:49Z</time>
      </trkpt>
      <trkpt lat="42.87089" lon="1.19448">
        <ele>674.4</ele>
        <time>2024-02-04T14:28:53Z</time>
      </trkpt>
      <trkpt lat="42.87084" lon="1.19452">
        <ele>674.4</ele>
        <time>2024-02-04T14:28:54Z</time>
      </trkpt>
      <trkpt lat="42.8708" lon="1.19458">
        <ele>674.4</ele>
        <time>2024-02-04T14:28:55Z</time>
      </trkpt>
      <trkpt lat="42.87074" lon="1.19469">
        <ele>674.4</ele>
        <time>2024-02-04T14:28:57Z</time>
      </trkpt>
      <trkpt lat="42.8707" lon="1.19474">
        <ele>674.4</ele>
        <time>2024-02-04T14:28:58Z</time>
      </trkpt>
      <trkpt lat="42.87062" lon="1.19483">
        <ele>674.4</ele>
        <time>2024-02-04T14:29:00Z</time>
      </trkpt>
      <trkpt lat="42.87056" lon="1.19496">
        <ele>674.4</ele>
        <time>2024-02-04T14:29:02Z</time>
      </trkpt>
      <trkpt lat="42.87043" lon="1.19524">
        <ele>674.4</ele>
        <time>2024-02-04T14:29:06Z</time>
      </trkpt>
      <trkpt lat="42.87027" lon="1.19561">
        <ele>674.4</ele>
        <time>2024-02-04T14:29:11Z</time>
      </trkpt>
      <trkpt lat="42.87014" lon="1.19582">
        <ele>674.4</ele>
        <time>2024-02-04T14:29:14Z</time>
      </trkpt>
      <trkpt lat="42.87006" lon="1.19596">
        <ele>674.4</ele>
        <time>2024-02-04T14:29:16Z</time>
      </trkpt>
      <trkpt lat="42.87002" lon="1.19603">
        <ele>674.4</ele>
        <time>2024-02-04T14:29:17Z</time>
      </trkpt>
      <trkpt lat="42.86996" lon="1.19622">
        <ele>674.4</ele>
        <time>2024-02-04T14:29:20Z</time>
      </trkpt>
      <trkpt lat="42.86997" lon="1.19627">
        <ele>674.4</ele>
        <time>2024-02-04T14:29:22Z</time>
      </trkpt>
      <trkpt lat="42.86997" lon="1.19628">
        <ele>674.4</ele>
        <time>2024-02-04T14:29:23Z</time>
      </trkpt>
      <trkpt lat="42.86994" lon="1.19639">
        <ele>674.4</ele>
        <time>2024-02-04T14:29:32Z</time>
      </trkpt>
      <trkpt lat="42.86992" lon="1.19644">
        <ele>674.4</ele>
        <time>2024-02-04T14:29:35Z</time>
      </trkpt>
      <trkpt lat="42.86992" lon="1.19648">
        <ele>674.4</ele>
        <time>2024-02-04T14:29:39Z</time>
      </trkpt>
      <trkpt lat="42.86986" lon="1.19665">
        <ele>674.4</ele>
        <time>2024-02-04T14:29:42Z</time>
      </trkpt>
      <trkpt lat="42.86983" lon="1.1967">
        <ele>674.4</ele>
        <time>2024-02-04T14:29:43Z</time>
      </trkpt>
      <trkpt lat="42.86973" lon="1.19689">
        <ele>674.4</ele>
        <time>2024-02-04T14:29:46Z</time>
      </trkpt>
      <trkpt lat="42.86964" lon="1.19704">
        <ele>673.8</ele>
        <time>2024-02-04T14:29:48Z</time>
      </trkpt>
      <trkpt lat="42.86959" lon="1.19711">
        <ele>673.4</ele>
        <time>2024-02-04T14:29:49Z</time>
      </trkpt>
      <trkpt lat="42.86954" lon="1.19718">
        <ele>673</ele>
        <time>2024-02-04T14:29:50Z</time>
      </trkpt>
      <trkpt lat="42.86949" lon="1.19726">
        <ele>672.6</ele>
        <time>2024-02-04T14:29:51Z</time>
      </trkpt>
      <trkpt lat="42.86945" lon="1.19735">
        <ele>672</ele>
        <time>2024-02-04T14:29:52Z</time>
      </trkpt>
      <trkpt lat="42.86938" lon="1.19753">
        <ele>671.6</ele>
        <time>2024-02-04T14:29:54Z</time>
      </trkpt>
      <trkpt lat="42.86935" lon="1.19761">
        <ele>671.2</ele>
        <time>2024-02-04T14:29:55Z</time>
      </trkpt>
      <trkpt lat="42.86932" lon="1.19769">
        <ele>670.6</ele>
        <time>2024-02-04T14:29:56Z</time>
      </trkpt>
      <trkpt lat="42.86928" lon="1.19777">
        <ele>670.2</ele>
        <time>2024-02-04T14:29:57Z</time>
      </trkpt>
      <trkpt lat="42.86925" lon="1.19786">
        <ele>669.8</ele>
        <time>2024-02-04T14:29:58Z</time>
      </trkpt>
      <trkpt lat="42.86922" lon="1.19795">
        <ele>669.4</ele>
        <time>2024-02-04T14:29:59Z</time>
      </trkpt>
      <trkpt lat="42.86919" lon="1.19803">
        <ele>669</ele>
        <time>2024-02-04T14:30:00Z</time>
      </trkpt>
      <trkpt lat="42.86916" lon="1.19812">
        <ele>668.6</ele>
        <time>2024-02-04T14:30:01Z</time>
      </trkpt>
      <trkpt lat="42.86912" lon="1.19821">
        <ele>668</ele>
        <time>2024-02-04T14:30:02Z</time>
      </trkpt>
      <trkpt lat="42.86909" lon="1.19829">
        <ele>667.6</ele>
        <time>2024-02-04T14:30:03Z</time>
      </trkpt>
      <trkpt lat="42.86906" lon="1.19837">
        <ele>667.2</ele>
        <time>2024-02-04T14:30:04Z</time>
      </trkpt>
      <trkpt lat="42.86902" lon="1.19843">
        <ele>666.8</ele>
        <time>2024-02-04T14:30:05Z</time>
      </trkpt>
      <trkpt lat="42.869" lon="1.1985">
        <ele>666.4</ele>
        <time>2024-02-04T14:30:06Z</time>
      </trkpt>
      <trkpt lat="42.86899" lon="1.19855">
        <ele>666</ele>
        <time>2024-02-04T14:30:07Z</time>
      </trkpt>
      <trkpt lat="42.86897" lon="1.19861">
        <ele>665.4</ele>
        <time>2024-02-04T14:30:08Z</time>
      </trkpt>
      <trkpt lat="42.86893" lon="1.19868">
        <ele>665.4</ele>
        <time>2024-02-04T14:30:10Z</time>
      </trkpt>
      <trkpt lat="42.86879" lon="1.19871">
        <ele>665</ele>
        <time>2024-02-04T14:30:13Z</time>
      </trkpt>
      <trkpt lat="42.86874" lon="1.19872">
        <ele>664.6</ele>
        <time>2024-02-04T14:30:14Z</time>
      </trkpt>
      <trkpt lat="42.8687" lon="1.19874">
        <ele>664.2</ele>
        <time>2024-02-04T14:30:15Z</time>
      </trkpt>
      <trkpt lat="42.86865" lon="1.19876">
        <ele>663.8</ele>
        <time>2024-02-04T14:30:16Z</time>
      </trkpt>
      <trkpt lat="42.8686" lon="1.19879">
        <ele>663.4</ele>
        <time>2024-02-04T14:30:17Z</time>
      </trkpt>
      <trkpt lat="42.86856" lon="1.19882">
        <ele>663</ele>
        <time>2024-02-04T14:30:18Z</time>
      </trkpt>
      <trkpt lat="42.86851" lon="1.19888">
        <ele>662.6</ele>
        <time>2024-02-04T14:30:19Z</time>
      </trkpt>
      <trkpt lat="42.86845" lon="1.19894">
        <ele>662</ele>
        <time>2024-02-04T14:30:20Z</time>
      </trkpt>
      <trkpt lat="42.8684" lon="1.19899">
        <ele>661.4</ele>
        <time>2024-02-04T14:30:21Z</time>
      </trkpt>
      <trkpt lat="42.86836" lon="1.19905">
        <ele>660.6</ele>
        <time>2024-02-04T14:30:22Z</time>
      </trkpt>
      <trkpt lat="42.86832" lon="1.1991">
        <ele>659.8</ele>
        <time>2024-02-04T14:30:23Z</time>
      </trkpt>
      <trkpt lat="42.86828" lon="1.19913">
        <ele>659</ele>
        <time>2024-02-04T14:30:24Z</time>
      </trkpt>
      <trkpt lat="42.86823" lon="1.19915">
        <ele>658</ele>
        <time>2024-02-04T14:30:25Z</time>
      </trkpt>
      <trkpt lat="42.8682" lon="1.19918">
        <ele>657</ele>
        <time>2024-02-04T14:30:26Z</time>
      </trkpt>
      <trkpt lat="42.86817" lon="1.19921">
        <ele>656</ele>
        <time>2024-02-04T14:30:27Z</time>
      </trkpt>
      <trkpt lat="42.86815" lon="1.19924">
        <ele>653.6</ele>
        <time>2024-02-04T14:30:28Z</time>
      </trkpt>
      <trkpt lat="42.86813" lon="1.19928">
        <ele>652.6</ele>
        <time>2024-02-04T14:30:29Z</time>
      </trkpt>
      <trkpt lat="42.86812" lon="1.19931">
        <ele>651.4</ele>
        <time>2024-02-04T14:30:30Z</time>
      </trkpt>
      <trkpt lat="42.86811" lon="1.19934">
        <ele>650.4</ele>
        <time>2024-02-04T14:30:31Z</time>
      </trkpt>
      <trkpt lat="42.86811" lon="1.19937">
        <ele>649.2</ele>
        <time>2024-02-04T14:30:32Z</time>
      </trkpt>
      <trkpt lat="42.86811" lon="1.19941">
        <ele>648</ele>
        <time>2024-02-04T14:30:33Z</time>
      </trkpt>
      <trkpt lat="42.8681" lon="1.19945">
        <ele>646.8</ele>
        <time>2024-02-04T14:30:34Z</time>
      </trkpt>
      <trkpt lat="42.86809" lon="1.19948">
        <ele>645.8</ele>
        <time>2024-02-04T14:30:35Z</time>
      </trkpt>
      <trkpt lat="42.86807" lon="1.19949">
        <ele>644.8</ele>
        <time>2024-02-04T14:30:36Z</time>
      </trkpt>
      <trkpt lat="42.86806" lon="1.19949">
        <ele>643.8</ele>
        <time>2024-02-04T14:30:37Z</time>
      </trkpt>
      <trkpt lat="42.86806" lon="1.19951">
        <ele>643</ele>
        <time>2024-02-04T14:30:38Z</time>
      </trkpt>
      <trkpt lat="42.86806" lon="1.19951">
        <ele>642.2</ele>
        <time>2024-02-04T14:30:39Z</time>
      </trkpt>
      <trkpt lat="42.86806" lon="1.19952">
        <ele>641.4</ele>
        <time>2024-02-04T14:30:40Z</time>
      </trkpt>
      <trkpt lat="42.86804" lon="1.19954">
        <ele>639.6</ele>
        <time>2024-02-04T14:30:51Z</time>
      </trkpt>
      <trkpt lat="42.86801" lon="1.19955">
        <ele>639.2</ele>
        <time>2024-02-04T14:30:52Z</time>
      </trkpt>
      <trkpt lat="42.86797" lon="1.19959">
        <ele>638.8</ele>
        <time>2024-02-04T14:30:53Z</time>
      </trkpt>
      <trkpt lat="42.86795" lon="1.19963">
        <ele>638</ele>
        <time>2024-02-04T14:30:54Z</time>
      </trkpt>
      <trkpt lat="42.86794" lon="1.19967">
        <ele>637.4</ele>
        <time>2024-02-04T14:30:55Z</time>
      </trkpt>
      <trkpt lat="42.86794" lon="1.19971">
        <ele>636.2</ele>
        <time>2024-02-04T14:30:56Z</time>
      </trkpt>
      <trkpt lat="42.86793" lon="1.19976">
        <ele>635.2</ele>
        <time>2024-02-04T14:30:57Z</time>
      </trkpt>
      <trkpt lat="42.86792" lon="1.1998">
        <ele>634</ele>
        <time>2024-02-04T14:30:58Z</time>
      </trkpt>
      <trkpt lat="42.86791" lon="1.19984">
        <ele>632.8</ele>
        <time>2024-02-04T14:30:59Z</time>
      </trkpt>
      <trkpt lat="42.8679" lon="1.19987">
        <ele>631.6</ele>
        <time>2024-02-04T14:31:00Z</time>
      </trkpt>
      <trkpt lat="42.86789" lon="1.19989">
        <ele>630.2</ele>
        <time>2024-02-04T14:31:01Z</time>
      </trkpt>
      <trkpt lat="42.86787" lon="1.19991">
        <ele>629</ele>
        <time>2024-02-04T14:31:02Z</time>
      </trkpt>
      <trkpt lat="42.86785" lon="1.19995">
        <ele>627.8</ele>
        <time>2024-02-04T14:31:03Z</time>
      </trkpt>
      <trkpt lat="42.86782" lon="1.19998">
        <ele>626.6</ele>
        <time>2024-02-04T14:31:04Z</time>
      </trkpt>
      <trkpt lat="42.86781" lon="1.20001">
        <ele>625.4</ele>
        <time>2024-02-04T14:31:05Z</time>
      </trkpt>
      <trkpt lat="42.8678" lon="1.20005">
        <ele>624</ele>
        <time>2024-02-04T14:31:06Z</time>
      </trkpt>
      <trkpt lat="42.86778" lon="1.20011">
        <ele>622.8</ele>
        <time>2024-02-04T14:31:07Z</time>
      </trkpt>
      <trkpt lat="42.86776" lon="1.20015">
        <ele>621.6</ele>
        <time>2024-02-04T14:31:08Z</time>
      </trkpt>
      <trkpt lat="42.86775" lon="1.20019">
        <ele>620.2</ele>
        <time>2024-02-04T14:31:09Z</time>
      </trkpt>
      <trkpt lat="42.86773" lon="1.20022">
        <ele>619</ele>
        <time>2024-02-04T14:31:10Z</time>
      </trkpt>
      <trkpt lat="42.86771" lon="1.20025">
        <ele>617.6</ele>
        <time>2024-02-04T14:31:11Z</time>
      </trkpt>
      <trkpt lat="42.86769" lon="1.20028">
        <ele>616.4</ele>
        <time>2024-02-04T14:31:12Z</time>
      </trkpt>
      <trkpt lat="42.86767" lon="1.2003">
        <ele>615.2</ele>
        <time>2024-02-04T14:31:13Z</time>
      </trkpt>
      <trkpt lat="42.86765" lon="1.20032">
        <ele>613.8</ele>
        <time>2024-02-04T14:31:14Z</time>
      </trkpt>
      <trkpt lat="42.86764" lon="1.20035">
        <ele>612.6</ele>
        <time>2024-02-04T14:31:15Z</time>
      </trkpt>
      <trkpt lat="42.86763" lon="1.20038">
        <ele>611.4</ele>
        <time>2024-02-04T14:31:16Z</time>
      </trkpt>
      <trkpt lat="42.86761" lon="1.20041">
        <ele>610</ele>
        <time>2024-02-04T14:31:17Z</time>
      </trkpt>
      <trkpt lat="42.86759" lon="1.20045">
        <ele>607.4</ele>
        <time>2024-02-04T14:31:18Z</time>
      </trkpt>
      <trkpt lat="42.86757" lon="1.20048">
        <ele>606.2</ele>
        <time>2024-02-04T14:31:19Z</time>
      </trkpt>
      <trkpt lat="42.86756" lon="1.20052">
        <ele>605</ele>
        <time>2024-02-04T14:31:20Z</time>
      </trkpt>
      <trkpt lat="42.86754" lon="1.20055">
        <ele>603.8</ele>
        <time>2024-02-04T14:31:21Z</time>
      </trkpt>
      <trkpt lat="42.86751" lon="1.20059">
        <ele>602.6</ele>
        <time>2024-02-04T14:31:22Z</time>
      </trkpt>
      <trkpt lat="42.86749" lon="1.20062">
        <ele>601.2</ele>
        <time>2024-02-04T14:31:23Z</time>
      </trkpt>
      <trkpt lat="42.86746" lon="1.20065">
        <ele>600</ele>
        <time>2024-02-04T14:31:24Z</time>
      </trkpt>
      <trkpt lat="42.86743" lon="1.20069">
        <ele>598.6</ele>
        <time>2024-02-04T14:31:25Z</time>
      </trkpt>
      <trkpt lat="42.8674" lon="1.20073">
        <ele>597.4</ele>
        <time>2024-02-04T14:31:26Z</time>
      </trkpt>
      <trkpt lat="42.86736" lon="1.20078">
        <ele>596</ele>
        <time>2024-02-04T14:31:27Z</time>
      </trkpt>
      <trkpt lat="42.86734" lon="1.2008">
        <ele>594.8</ele>
        <time>2024-02-04T14:31:28Z</time>
      </trkpt>
      <trkpt lat="42.86731" lon="1.20082">
        <ele>593.4</ele>
        <time>2024-02-04T14:31:29Z</time>
      </trkpt>
      <trkpt lat="42.86728" lon="1.20082">
        <ele>592.2</ele>
        <time>2024-02-04T14:31:30Z</time>
      </trkpt>
      <trkpt lat="42.86727" lon="1.20084">
        <ele>591</ele>
        <time>2024-02-04T14:31:31Z</time>
      </trkpt>
      <trkpt lat="42.86726" lon="1.20085">
        <ele>590</ele>
        <time>2024-02-04T14:31:32Z</time>
      </trkpt>
      <trkpt lat="42.86725" lon="1.20086">
        <ele>589</ele>
        <time>2024-02-04T14:31:33Z</time>
      </trkpt>
      <trkpt lat="42.86722" lon="1.20088">
        <ele>586.2</ele>
        <time>2024-02-04T14:31:45Z</time>
      </trkpt>
      <trkpt lat="42.8672" lon="1.20087">
        <ele>586.2</ele>
        <time>2024-02-04T14:31:46Z</time>
      </trkpt>
      <trkpt lat="42.86708" lon="1.20075">
        <ele>586.2</ele>
        <time>2024-02-04T14:31:51Z</time>
      </trkpt>
      <trkpt lat="42.86694" lon="1.20064">
        <ele>585.6</ele>
        <time>2024-02-04T14:31:54Z</time>
      </trkpt>
      <trkpt lat="42.86689" lon="1.2006">
        <ele>585.2</ele>
        <time>2024-02-04T14:31:55Z</time>
      </trkpt>
      <trkpt lat="42.86685" lon="1.20058">
        <ele>584.8</ele>
        <time>2024-02-04T14:31:56Z</time>
      </trkpt>
      <trkpt lat="42.86681" lon="1.20059">
        <ele>584.2</ele>
        <time>2024-02-04T14:31:57Z</time>
      </trkpt>
      <trkpt lat="42.86679" lon="1.20061">
        <ele>583.4</ele>
        <time>2024-02-04T14:31:58Z</time>
      </trkpt>
      <trkpt lat="42.86677" lon="1.20064">
        <ele>582.8</ele>
        <time>2024-02-04T14:31:59Z</time>
      </trkpt>
      <trkpt lat="42.86674" lon="1.20069">
        <ele>581.8</ele>
        <time>2024-02-04T14:32:00Z</time>
      </trkpt>
      <trkpt lat="42.86673" lon="1.20074">
        <ele>580.8</ele>
        <time>2024-02-04T14:32:01Z</time>
      </trkpt>
      <trkpt lat="42.86674" lon="1.20078">
        <ele>579.6</ele>
        <time>2024-02-04T14:32:02Z</time>
      </trkpt>
      <trkpt lat="42.86675" lon="1.20082">
        <ele>578.4</ele>
        <time>2024-02-04T14:32:03Z</time>
      </trkpt>
      <trkpt lat="42.86676" lon="1.20085">
        <ele>577.2</ele>
        <time>2024-02-04T14:32:04Z</time>
      </trkpt>
      <trkpt lat="42.86676" lon="1.20088">
        <ele>576</ele>
        <time>2024-02-04T14:32:05Z</time>
      </trkpt>
      <trkpt lat="42.86676" lon="1.20091">
        <ele>574.8</ele>
        <time>2024-02-04T14:32:06Z</time>
      </trkpt>
      <trkpt lat="42.86675" lon="1.20093">
        <ele>573</ele>
        <time>2024-02-04T14:32:07Z</time>
      </trkpt>
      <trkpt lat="42.86673" lon="1.20093">
        <ele>572</ele>
        <time>2024-02-04T14:32:08Z</time>
      </trkpt>
      <trkpt lat="42.86671" lon="1.20093">
        <ele>571</ele>
        <time>2024-02-04T14:32:09Z</time>
      </trkpt>
      <trkpt lat="42.86669" lon="1.20091">
        <ele>570</ele>
        <time>2024-02-04T14:32:10Z</time>
      </trkpt>
      <trkpt lat="42.86663" lon="1.20086">
        <ele>570</ele>
        <time>2024-02-04T14:32:14Z</time>
      </trkpt>
      <trkpt lat="42.8666" lon="1.20083">
        <ele>570</ele>
        <time>2024-02-04T14:32:18Z</time>
      </trkpt>
      <trkpt lat="42.86659" lon="1.20085">
        <ele>570</ele>
        <time>2024-02-04T14:32:20Z</time>
      </trkpt>
      <trkpt lat="42.86658" lon="1.20086">
        <ele>570</ele>
        <time>2024-02-04T14:34:46Z</time>
      </trkpt>
      <trkpt lat="42.86655" lon="1.20088">
        <ele>570</ele>
        <time>2024-02-04T14:34:47Z</time>
      </trkpt>
      <trkpt lat="42.86639" lon="1.20087">
        <ele>570</ele>
        <time>2024-02-04T14:34:50Z</time>
      </trkpt>
      <trkpt lat="42.86622" lon="1.20088">
        <ele>569.6</ele>
        <time>2024-02-04T14:34:52Z</time>
      </trkpt>
      <trkpt lat="42.86615" lon="1.20089">
        <ele>569.2</ele>
        <time>2024-02-04T14:34:53Z</time>
      </trkpt>
      <trkpt lat="42.86608" lon="1.20092">
        <ele>568.2</ele>
        <time>2024-02-04T14:34:54Z</time>
      </trkpt>
      <trkpt lat="42.866" lon="1.20098">
        <ele>567.4</ele>
        <time>2024-02-04T14:34:55Z</time>
      </trkpt>
      <trkpt lat="42.86593" lon="1.20102">
        <ele>566.2</ele>
        <time>2024-02-04T14:34:56Z</time>
      </trkpt>
      <trkpt lat="42.86588" lon="1.20106">
        <ele>565.2</ele>
        <time>2024-02-04T14:34:57Z</time>
      </trkpt>
      <trkpt lat="42.86582" lon="1.2011">
        <ele>564</ele>
        <time>2024-02-04T14:34:58Z</time>
      </trkpt>
      <trkpt lat="42.86576" lon="1.20115">
        <ele>563</ele>
        <time>2024-02-04T14:34:59Z</time>
      </trkpt>
      <trkpt lat="42.86571" lon="1.20119">
        <ele>560.6</ele>
        <time>2024-02-04T14:35:00Z</time>
      </trkpt>
      <trkpt lat="42.86565" lon="1.20123">
        <ele>559.4</ele>
        <time>2024-02-04T14:35:01Z</time>
      </trkpt>
      <trkpt lat="42.86558" lon="1.20125">
        <ele>558.2</ele>
        <time>2024-02-04T14:35:02Z</time>
      </trkpt>
      <trkpt lat="42.8655" lon="1.20127">
        <ele>557</ele>
        <time>2024-02-04T14:35:03Z</time>
      </trkpt>
      <trkpt lat="42.86541" lon="1.20127">
        <ele>555.6</ele>
        <time>2024-02-04T14:35:04Z</time>
      </trkpt>
      <trkpt lat="42.86533" lon="1.20127">
        <ele>554.2</ele>
        <time>2024-02-04T14:35:05Z</time>
      </trkpt>
      <trkpt lat="42.86526" lon="1.20127">
        <ele>552.6</ele>
        <time>2024-02-04T14:35:06Z</time>
      </trkpt>
      <trkpt lat="42.8652" lon="1.20126">
        <ele>551.4</ele>
        <time>2024-02-04T14:35:07Z</time>
      </trkpt>
      <trkpt lat="42.86516" lon="1.20125">
        <ele>550</ele>
        <time>2024-02-04T14:35:08Z</time>
      </trkpt>
      <trkpt lat="42.86514" lon="1.20122">
        <ele>548.6</ele>
        <time>2024-02-04T14:35:09Z</time>
      </trkpt>
      <trkpt lat="42.86512" lon="1.20119">
        <ele>547.6</ele>
        <time>2024-02-04T14:35:10Z</time>
      </trkpt>
      <trkpt lat="42.8651" lon="1.20118">
        <ele>546.8</ele>
        <time>2024-02-04T14:35:11Z</time>
      </trkpt>
      <trkpt lat="42.86508" lon="1.2012">
        <ele>545.8</ele>
        <time>2024-02-04T14:35:12Z</time>
      </trkpt>
      <trkpt lat="42.86507" lon="1.20124">
        <ele>544.8</ele>
        <time>2024-02-04T14:35:13Z</time>
      </trkpt>
      <trkpt lat="42.86506" lon="1.20127">
        <ele>544</ele>
        <time>2024-02-04T14:35:14Z</time>
      </trkpt>
      <trkpt lat="42.86507" lon="1.20129">
        <ele>543.4</ele>
        <time>2024-02-04T14:35:15Z</time>
      </trkpt>
      <trkpt lat="42.86506" lon="1.20131">
        <ele>542.8</ele>
        <time>2024-02-04T14:35:16Z</time>
      </trkpt>
      <trkpt lat="42.86507" lon="1.20133">
        <ele>542</ele>
        <time>2024-02-04T14:35:17Z</time>
      </trkpt>
      <trkpt lat="42.86507" lon="1.20134">
        <ele>541.4</ele>
        <time>2024-02-04T14:35:18Z</time>
      </trkpt>
      <trkpt lat="42.86506" lon="1.20135">
        <ele>540.8</ele>
        <time>2024-02-04T14:35:19Z</time>
      </trkpt>
      <trkpt lat="42.86505" lon="1.20137">
        <ele>540</ele>
        <time>2024-02-04T14:35:20Z</time>
      </trkpt>
      <trkpt lat="42.86504" lon="1.20139">
        <ele>539.4</ele>
        <time>2024-02-04T14:35:21Z</time>
      </trkpt>
      <trkpt lat="42.86502" lon="1.20139">
        <ele>539</ele>
        <time>2024-02-04T14:35:22Z</time>
      </trkpt>
      <trkpt lat="42.865" lon="1.20136">
        <ele>538.6</ele>
        <time>2024-02-04T14:35:23Z</time>
      </trkpt>
      <trkpt lat="42.86498" lon="1.20131">
        <ele>538.2</ele>
        <time>2024-02-04T14:35:24Z</time>
      </trkpt>
      <trkpt lat="42.86497" lon="1.20125">
        <ele>537.2</ele>
        <time>2024-02-04T14:35:25Z</time>
      </trkpt>
      <trkpt lat="42.86495" lon="1.2012">
        <ele>536.8</ele>
        <time>2024-02-04T14:35:26Z</time>
      </trkpt>
      <trkpt lat="42.86495" lon="1.20118">
        <ele>536.4</ele>
        <time>2024-02-04T14:35:27Z</time>
      </trkpt>
      <trkpt lat="42.86494" lon="1.20117">
        <ele>535.8</ele>
        <time>2024-02-04T14:35:28Z</time>
      </trkpt>
      <trkpt lat="42.86493" lon="1.20118">
        <ele>535.4</ele>
        <time>2024-02-04T14:35:29Z</time>
      </trkpt>
      <trkpt lat="42.86491" lon="1.20121">
        <ele>535</ele>
        <time>2024-02-04T14:35:30Z</time>
      </trkpt>
      <trkpt lat="42.86489" lon="1.20123">
        <ele>534.6</ele>
        <time>2024-02-04T14:35:31Z</time>
      </trkpt>
      <trkpt lat="42.86488" lon="1.20124">
        <ele>534</ele>
        <time>2024-02-04T14:35:32Z</time>
      </trkpt>
      <trkpt lat="42.86487" lon="1.20124">
        <ele>533.6</ele>
        <time>2024-02-04T14:35:33Z</time>
      </trkpt>
      <trkpt lat="42.86487" lon="1.20122">
        <ele>533.2</ele>
        <time>2024-02-04T14:35:34Z</time>
      </trkpt>
      <trkpt lat="42.86487" lon="1.20119">
        <ele>532.6</ele>
        <time>2024-02-04T14:35:35Z</time>
      </trkpt>
      <trkpt lat="42.86488" lon="1.20114">
        <ele>532</ele>
        <time>2024-02-04T14:35:36Z</time>
      </trkpt>
      <trkpt lat="42.86489" lon="1.2011">
        <ele>531.4</ele>
        <time>2024-02-04T14:35:37Z</time>
      </trkpt>
      <trkpt lat="42.86489" lon="1.20106">
        <ele>530.8</ele>
        <time>2024-02-04T14:35:38Z</time>
      </trkpt>
      <trkpt lat="42.86489" lon="1.20101">
        <ele>530.8</ele>
        <time>2024-02-04T14:35:39Z</time>
      </trkpt>
      <trkpt lat="42.86494" lon="1.20088">
        <ele>530.8</ele>
        <time>2024-02-04T14:35:42Z</time>
      </trkpt>
      <trkpt lat="42.86496" lon="1.20084">
        <ele>531.2</ele>
        <time>2024-02-04T14:35:43Z</time>
      </trkpt>
      <trkpt lat="42.86499" lon="1.20082">
        <ele>531.8</ele>
        <time>2024-02-04T14:35:44Z</time>
      </trkpt>
      <trkpt lat="42.86502" lon="1.20079">
        <ele>532.2</ele>
        <time>2024-02-04T14:35:45Z</time>
      </trkpt>
      <trkpt lat="42.86506" lon="1.20077">
        <ele>532.6</ele>
        <time>2024-02-04T14:35:46Z</time>
      </trkpt>
      <trkpt lat="42.86509" lon="1.20076">
        <ele>533</ele>
        <time>2024-02-04T14:35:47Z</time>
      </trkpt>
      <trkpt lat="42.86521" lon="1.20066">
        <ele>533</ele>
        <time>2024-02-04T14:35:51Z</time>
      </trkpt>
      <trkpt lat="42.86529" lon="1.20062">
        <ele>533</ele>
        <time>2024-02-04T14:35:53Z</time>
      </trkpt>
      <trkpt lat="42.86547" lon="1.20051">
        <ele>533</ele>
        <time>2024-02-04T14:35:57Z</time>
      </trkpt>
      <trkpt lat="42.86557" lon="1.20033">
        <ele>533</ele>
        <time>2024-02-04T14:36:00Z</time>
      </trkpt>
      <trkpt lat="42.86559" lon="1.20025">
        <ele>533</ele>
        <time>2024-02-04T14:36:01Z</time>
      </trkpt>
      <trkpt lat="42.86561" lon="1.20017">
        <ele>533</ele>
        <time>2024-02-04T14:36:02Z</time>
      </trkpt>
      <trkpt lat="42.86569" lon="1.20003">
        <ele>532.4</ele>
        <time>2024-02-04T14:36:04Z</time>
      </trkpt>
      <trkpt lat="42.86573" lon="1.19997">
        <ele>532</ele>
        <time>2024-02-04T14:36:05Z</time>
      </trkpt>
      <trkpt lat="42.86578" lon="1.1999">
        <ele>531.4</ele>
        <time>2024-02-04T14:36:06Z</time>
      </trkpt>
      <trkpt lat="42.86581" lon="1.19983">
        <ele>531</ele>
        <time>2024-02-04T14:36:07Z</time>
      </trkpt>
      <trkpt lat="42.86583" lon="1.19975">
        <ele>530.6</ele>
        <time>2024-02-04T14:36:08Z</time>
      </trkpt>
      <trkpt lat="42.86583" lon="1.19967">
        <ele>530.6</ele>
        <time>2024-02-04T14:36:09Z</time>
      </trkpt>
      <trkpt lat="42.86576" lon="1.19956">
        <ele>530.2</ele>
        <time>2024-02-04T14:36:11Z</time>
      </trkpt>
      <trkpt lat="42.86571" lon="1.19954">
        <ele>529.6</ele>
        <time>2024-02-04T14:36:12Z</time>
      </trkpt>
      <trkpt lat="42.86565" lon="1.19954">
        <ele>529.2</ele>
        <time>2024-02-04T14:36:13Z</time>
      </trkpt>
      <trkpt lat="42.86559" lon="1.19953">
        <ele>528.4</ele>
        <time>2024-02-04T14:36:14Z</time>
      </trkpt>
      <trkpt lat="42.86554" lon="1.19953">
        <ele>527.8</ele>
        <time>2024-02-04T14:36:15Z</time>
      </trkpt>
      <trkpt lat="42.86549" lon="1.19952">
        <ele>527.4</ele>
        <time>2024-02-04T14:36:16Z</time>
      </trkpt>
      <trkpt lat="42.86545" lon="1.19952">
        <ele>526.8</ele>
        <time>2024-02-04T14:36:17Z</time>
      </trkpt>
      <trkpt lat="42.86541" lon="1.19952">
        <ele>526.2</ele>
        <time>2024-02-04T14:36:18Z</time>
      </trkpt>
      <trkpt lat="42.86538" lon="1.19952">
        <ele>525.6</ele>
        <time>2024-02-04T14:36:19Z</time>
      </trkpt>
      <trkpt lat="42.86537" lon="1.19952">
        <ele>525</ele>
        <time>2024-02-04T14:36:20Z</time>
      </trkpt>
      <trkpt lat="42.86536" lon="1.19952">
        <ele>524.6</ele>
        <time>2024-02-04T14:36:21Z</time>
      </trkpt>
      <trkpt lat="42.86536" lon="1.19952">
        <ele>524</ele>
        <time>2024-02-04T14:36:22Z</time>
      </trkpt>
      <trkpt lat="42.86534" lon="1.19955">
        <ele>524</ele>
        <time>2024-02-04T14:36:27Z</time>
      </trkpt>
      <trkpt lat="42.8653" lon="1.19961">
        <ele>524</ele>
        <time>2024-02-04T14:36:29Z</time>
      </trkpt>
      <trkpt lat="42.86521" lon="1.19979">
        <ele>523.4</ele>
        <time>2024-02-04T14:36:32Z</time>
      </trkpt>
      <trkpt lat="42.86517" lon="1.19985">
        <ele>523</ele>
        <time>2024-02-04T14:36:33Z</time>
      </trkpt>
      <trkpt lat="42.86513" lon="1.19993">
        <ele>522.6</ele>
        <time>2024-02-04T14:36:34Z</time>
      </trkpt>
      <trkpt lat="42.86509" lon="1.2">
        <ele>522.2</ele>
        <time>2024-02-04T14:36:35Z</time>
      </trkpt>
      <trkpt lat="42.86504" lon="1.20008">
        <ele>521.6</ele>
        <time>2024-02-04T14:36:36Z</time>
      </trkpt>
      <trkpt lat="42.86496" lon="1.20026">
        <ele>521.2</ele>
        <time>2024-02-04T14:36:38Z</time>
      </trkpt>
      <trkpt lat="42.86491" lon="1.20034">
        <ele>520.2</ele>
        <time>2024-02-04T14:36:39Z</time>
      </trkpt>
      <trkpt lat="42.86487" lon="1.20042">
        <ele>519.8</ele>
        <time>2024-02-04T14:36:40Z</time>
      </trkpt>
      <trkpt lat="42.86482" lon="1.2005">
        <ele>519.4</ele>
        <time>2024-02-04T14:36:41Z</time>
      </trkpt>
      <trkpt lat="42.86478" lon="1.20058">
        <ele>519</ele>
        <time>2024-02-04T14:36:42Z</time>
      </trkpt>
      <trkpt lat="42.86473" lon="1.20065">
        <ele>518.6</ele>
        <time>2024-02-04T14:36:43Z</time>
      </trkpt>
      <trkpt lat="42.86468" lon="1.20072">
        <ele>518.2</ele>
        <time>2024-02-04T14:36:44Z</time>
      </trkpt>
      <trkpt lat="42.86464" lon="1.20078">
        <ele>517.8</ele>
        <time>2024-02-04T14:36:45Z</time>
      </trkpt>
      <trkpt lat="42.8646" lon="1.20084">
        <ele>517.4</ele>
        <time>2024-02-04T14:36:46Z</time>
      </trkpt>
      <trkpt lat="42.86448" lon="1.20102">
        <ele>517.4</ele>
        <time>2024-02-04T14:36:49Z</time>
      </trkpt>
      <trkpt lat="42.86439" lon="1.20116">
        <ele>516.8</ele>
        <time>2024-02-04T14:36:52Z</time>
      </trkpt>
      <trkpt lat="42.86437" lon="1.2012">
        <ele>516.4</ele>
        <time>2024-02-04T14:36:53Z</time>
      </trkpt>
      <trkpt lat="42.86434" lon="1.20124">
        <ele>516</ele>
        <time>2024-02-04T14:36:54Z</time>
      </trkpt>
      <trkpt lat="42.86433" lon="1.20128">
        <ele>515.6</ele>
        <time>2024-02-04T14:36:55Z</time>
      </trkpt>
      <trkpt lat="42.86433" lon="1.20132">
        <ele>515.2</ele>
        <time>2024-02-04T14:36:56Z</time>
      </trkpt>
      <trkpt lat="42.86435" lon="1.20136">
        <ele>515.2</ele>
        <time>2024-02-04T14:36:57Z</time>
      </trkpt>
      <trkpt lat="42.86443" lon="1.20145">
        <ele>515.2</ele>
        <time>2024-02-04T14:37:00Z</time>
      </trkpt>
      <trkpt lat="42.8646" lon="1.20163">
        <ele>515.2</ele>
        <time>2024-02-04T14:37:05Z</time>
      </trkpt>
      <trkpt lat="42.86464" lon="1.20167">
        <ele>515.2</ele>
        <time>2024-02-04T14:37:06Z</time>
      </trkpt>
      <trkpt lat="42.86504" lon="1.20195">
        <ele>515.2</ele>
        <time>2024-02-04T14:37:14Z</time>
      </trkpt>
      <trkpt lat="42.86535" lon="1.20211">
        <ele>515.2</ele>
        <time>2024-02-04T14:37:20Z</time>
      </trkpt>
      <trkpt lat="42.86569" lon="1.20228">
        <ele>515.2</ele>
        <time>2024-02-04T14:37:26Z</time>
      </trkpt>
      <trkpt lat="42.86585" lon="1.20238">
        <ele>514.8</ele>
        <time>2024-02-04T14:37:29Z</time>
      </trkpt>
      <trkpt lat="42.86592" lon="1.2024">
        <ele>514.4</ele>
        <time>2024-02-04T14:37:30Z</time>
      </trkpt>
      <trkpt lat="42.86598" lon="1.20243">
        <ele>514</ele>
        <time>2024-02-04T14:37:31Z</time>
      </trkpt>
      <trkpt lat="42.86604" lon="1.20246">
        <ele>513.6</ele>
        <time>2024-02-04T14:37:32Z</time>
      </trkpt>
      <trkpt lat="42.86611" lon="1.20249">
        <ele>513.2</ele>
        <time>2024-02-04T14:37:33Z</time>
      </trkpt>
      <trkpt lat="42.86646" lon="1.20268">
        <ele>513.2</ele>
        <time>2024-02-04T14:37:39Z</time>
      </trkpt>
      <trkpt lat="42.86652" lon="1.20271">
        <ele>512.8</ele>
        <time>2024-02-04T14:37:40Z</time>
      </trkpt>
      <trkpt lat="42.86658" lon="1.20274">
        <ele>512.2</ele>
        <time>2024-02-04T14:37:41Z</time>
      </trkpt>
      <trkpt lat="42.86664" lon="1.20277">
        <ele>511.8</ele>
        <time>2024-02-04T14:37:42Z</time>
      </trkpt>
      <trkpt lat="42.8667" lon="1.2028">
        <ele>511.2</ele>
        <time>2024-02-04T14:37:43Z</time>
      </trkpt>
      <trkpt lat="42.86676" lon="1.20283">
        <ele>510.8</ele>
        <time>2024-02-04T14:37:44Z</time>
      </trkpt>
      <trkpt lat="42.86682" lon="1.20286">
        <ele>510.8</ele>
        <time>2024-02-04T14:37:45Z</time>
      </trkpt>
      <trkpt lat="42.8672" lon="1.20306">
        <ele>510.8</ele>
        <time>2024-02-04T14:37:52Z</time>
      </trkpt>
      <trkpt lat="42.86755" lon="1.20328">
        <ele>510.8</ele>
        <time>2024-02-04T14:37:59Z</time>
      </trkpt>
      <trkpt lat="42.86776" lon="1.20339">
        <ele>510.4</ele>
        <time>2024-02-04T14:38:03Z</time>
      </trkpt>
      <trkpt lat="42.86781" lon="1.20342">
        <ele>510</ele>
        <time>2024-02-04T14:38:04Z</time>
      </trkpt>
      <trkpt lat="42.86786" lon="1.20345">
        <ele>509.6</ele>
        <time>2024-02-04T14:38:05Z</time>
      </trkpt>
      <trkpt lat="42.86791" lon="1.20348">
        <ele>509.2</ele>
        <time>2024-02-04T14:38:06Z</time>
      </trkpt>
      <trkpt lat="42.86796" lon="1.20351">
        <ele>508.8</ele>
        <time>2024-02-04T14:38:07Z</time>
      </trkpt>
      <trkpt lat="42.86835" lon="1.20373">
        <ele>508.8</ele>
        <time>2024-02-04T14:38:14Z</time>
      </trkpt>
      <trkpt lat="42.86879" lon="1.20399">
        <ele>508.8</ele>
        <time>2024-02-04T14:38:22Z</time>
      </trkpt>
      <trkpt lat="42.86908" lon="1.20417">
        <ele>508.8</ele>
        <time>2024-02-04T14:38:28Z</time>
      </trkpt>
      <trkpt lat="42.86947" lon="1.20438">
        <ele>508.8</ele>
        <time>2024-02-04T14:38:36Z</time>
      </trkpt>
      <trkpt lat="42.86968" lon="1.20453">
        <ele>508.8</ele>
        <time>2024-02-04T14:38:41Z</time>
      </trkpt>
      <trkpt lat="42.8697" lon="1.20456">
        <ele>508.8</ele>
        <time>2024-02-04T14:38:42Z</time>
      </trkpt>
      <trkpt lat="42.86976" lon="1.20481">
        <ele>508.8</ele>
        <time>2024-02-04T14:38:46Z</time>
      </trkpt>
      <trkpt lat="42.8697" lon="1.20504">
        <ele>508.8</ele>
        <time>2024-02-04T14:38:49Z</time>
      </trkpt>
      <trkpt lat="42.86968" lon="1.20511">
        <ele>508.8</ele>
        <time>2024-02-04T14:38:50Z</time>
      </trkpt>
      <trkpt lat="42.86962" lon="1.20526">
        <ele>508.8</ele>
        <time>2024-02-04T14:38:52Z</time>
      </trkpt>
      <trkpt lat="42.86952" lon="1.20547">
        <ele>508.8</ele>
        <time>2024-02-04T14:38:55Z</time>
      </trkpt>
      <trkpt lat="42.86925" lon="1.20611">
        <ele>508.8</ele>
        <time>2024-02-04T14:39:04Z</time>
      </trkpt>
      <trkpt lat="42.86922" lon="1.20618">
        <ele>508.4</ele>
        <time>2024-02-04T14:39:05Z</time>
      </trkpt>
      <trkpt lat="42.86919" lon="1.20625">
        <ele>508</ele>
        <time>2024-02-04T14:39:06Z</time>
      </trkpt>
      <trkpt lat="42.86915" lon="1.20631">
        <ele>507.6</ele>
        <time>2024-02-04T14:39:07Z</time>
      </trkpt>
      <trkpt lat="42.86912" lon="1.20637">
        <ele>506.6</ele>
        <time>2024-02-04T14:39:08Z</time>
      </trkpt>
      <trkpt lat="42.86907" lon="1.2065">
        <ele>506.6</ele>
        <time>2024-02-04T14:39:10Z</time>
      </trkpt>
      <trkpt lat="42.86888" lon="1.20694">
        <ele>506.6</ele>
        <time>2024-02-04T14:39:17Z</time>
      </trkpt>
      <trkpt lat="42.86867" lon="1.20741">
        <ele>506.6</ele>
        <time>2024-02-04T14:39:25Z</time>
      </trkpt>
      <trkpt lat="42.86849" lon="1.20779">
        <ele>506.6</ele>
        <time>2024-02-04T14:39:32Z</time>
      </trkpt>
      <trkpt lat="42.86845" lon="1.2079">
        <ele>507</ele>
        <time>2024-02-04T14:39:34Z</time>
      </trkpt>
      <trkpt lat="42.86843" lon="1.20795">
        <ele>507.6</ele>
        <time>2024-02-04T14:39:35Z</time>
      </trkpt>
      <trkpt lat="42.8684" lon="1.208">
        <ele>508</ele>
        <time>2024-02-04T14:39:36Z</time>
      </trkpt>
      <trkpt lat="42.86837" lon="1.20805">
        <ele>508.4</ele>
        <time>2024-02-04T14:39:37Z</time>
      </trkpt>
      <trkpt lat="42.86835" lon="1.20811">
        <ele>508.8</ele>
        <time>2024-02-04T14:39:38Z</time>
      </trkpt>
      <trkpt lat="42.86831" lon="1.20821">
        <ele>508.8</ele>
        <time>2024-02-04T14:39:40Z</time>
      </trkpt>
      <trkpt lat="42.86827" lon="1.20825">
        <ele>508.8</ele>
        <time>2024-02-04T14:39:41Z</time>
      </trkpt>
      <trkpt lat="42.86816" lon="1.20835">
        <ele>508.8</ele>
        <time>2024-02-04T14:39:44Z</time>
      </trkpt>
      <trkpt lat="42.86814" lon="1.20852">
        <ele>508.8</ele>
        <time>2024-02-04T14:39:47Z</time>
      </trkpt>
      <trkpt lat="42.86824" lon="1.20857">
        <ele>509.2</ele>
        <time>2024-02-04T14:39:49Z</time>
      </trkpt>
      <trkpt lat="42.86829" lon="1.2086">
        <ele>509.6</ele>
        <time>2024-02-04T14:39:50Z</time>
      </trkpt>
      <trkpt lat="42.86834" lon="1.20863">
        <ele>510</ele>
        <time>2024-02-04T14:39:51Z</time>
      </trkpt>
      <trkpt lat="42.86838" lon="1.20868">
        <ele>510.4</ele>
        <time>2024-02-04T14:39:52Z</time>
      </trkpt>
      <trkpt lat="42.86841" lon="1.20875">
        <ele>511</ele>
        <time>2024-02-04T14:39:53Z</time>
      </trkpt>
      <trkpt lat="42.86856" lon="1.20888">
        <ele>511</ele>
        <time>2024-02-04T14:39:56Z</time>
      </trkpt>
      <trkpt lat="42.86862" lon="1.20891">
        <ele>511</ele>
        <time>2024-02-04T14:39:57Z</time>
      </trkpt>
      <trkpt lat="42.86898" lon="1.20912">
        <ele>511</ele>
        <time>2024-02-04T14:40:03Z</time>
      </trkpt>
      <trkpt lat="42.86932" lon="1.20939">
        <ele>511</ele>
        <time>2024-02-04T14:40:09Z</time>
      </trkpt>
      <trkpt lat="42.86952" lon="1.20961">
        <ele>510.4</ele>
        <time>2024-02-04T14:40:13Z</time>
      </trkpt>
      <trkpt lat="42.86956" lon="1.20967">
        <ele>510</ele>
        <time>2024-02-04T14:40:14Z</time>
      </trkpt>
      <trkpt lat="42.86961" lon="1.20973">
        <ele>509.6</ele>
        <time>2024-02-04T14:40:15Z</time>
      </trkpt>
      <trkpt lat="42.86965" lon="1.20979">
        <ele>509.2</ele>
        <time>2024-02-04T14:40:16Z</time>
      </trkpt>
      <trkpt lat="42.86969" lon="1.20985">
        <ele>508.8</ele>
        <time>2024-02-04T14:40:17Z</time>
      </trkpt>
      <trkpt lat="42.86992" lon="1.21012">
        <ele>508.8</ele>
        <time>2024-02-04T14:40:22Z</time>
      </trkpt>
      <trkpt lat="42.86997" lon="1.21016">
        <ele>508.4</ele>
        <time>2024-02-04T14:40:23Z</time>
      </trkpt>
      <trkpt lat="42.87002" lon="1.21021">
        <ele>507.8</ele>
        <time>2024-02-04T14:40:24Z</time>
      </trkpt>
      <trkpt lat="42.87007" lon="1.21025">
        <ele>507.4</ele>
        <time>2024-02-04T14:40:25Z</time>
      </trkpt>
      <trkpt lat="42.87012" lon="1.21027">
        <ele>507</ele>
        <time>2024-02-04T14:40:26Z</time>
      </trkpt>
      <trkpt lat="42.87018" lon="1.2103">
        <ele>506.6</ele>
        <time>2024-02-04T14:40:27Z</time>
      </trkpt>
      <trkpt lat="42.8706" lon="1.21055">
        <ele>506.6</ele>
        <time>2024-02-04T14:40:34Z</time>
      </trkpt>
      <trkpt lat="42.871" lon="1.21079">
        <ele>506.6</ele>
        <time>2024-02-04T14:40:41Z</time>
      </trkpt>
      <trkpt lat="42.8714" lon="1.211">
        <ele>506.6</ele>
        <time>2024-02-04T14:40:48Z</time>
      </trkpt>
      <trkpt lat="42.87174" lon="1.21115">
        <ele>506.6</ele>
        <time>2024-02-04T14:40:54Z</time>
      </trkpt>
      <trkpt lat="42.87208" lon="1.21129">
        <ele>506.6</ele>
        <time>2024-02-04T14:41:00Z</time>
      </trkpt>
      <trkpt lat="42.87245" lon="1.21151">
        <ele>506.6</ele>
        <time>2024-02-04T14:41:07Z</time>
      </trkpt>
      <trkpt lat="42.87265" lon="1.2117">
        <ele>506.2</ele>
        <time>2024-02-04T14:41:11Z</time>
      </trkpt>
      <trkpt lat="42.8727" lon="1.21175">
        <ele>505.4</ele>
        <time>2024-02-04T14:41:12Z</time>
      </trkpt>
      <trkpt lat="42.87274" lon="1.2118">
        <ele>505</ele>
        <time>2024-02-04T14:41:13Z</time>
      </trkpt>
      <trkpt lat="42.87278" lon="1.21184">
        <ele>504.6</ele>
        <time>2024-02-04T14:41:14Z</time>
      </trkpt>
      <trkpt lat="42.87314" lon="1.21223">
        <ele>504.6</ele>
        <time>2024-02-04T14:41:22Z</time>
      </trkpt>
      <trkpt lat="42.87346" lon="1.21259">
        <ele>504.6</ele>
        <time>2024-02-04T14:41:29Z</time>
      </trkpt>
      <trkpt lat="42.87379" lon="1.21296">
        <ele>504.6</ele>
        <time>2024-02-04T14:41:36Z</time>
      </trkpt>
      <trkpt lat="42.87413" lon="1.21333">
        <ele>504.6</ele>
        <time>2024-02-04T14:41:43Z</time>
      </trkpt>
      <trkpt lat="42.87445" lon="1.21368">
        <ele>504.6</ele>
        <time>2024-02-04T14:41:50Z</time>
      </trkpt>
      <trkpt lat="42.87475" lon="1.21406">
        <ele>504.6</ele>
        <time>2024-02-04T14:41:57Z</time>
      </trkpt>
      <trkpt lat="42.87485" lon="1.21436">
        <ele>504.6</ele>
        <time>2024-02-04T14:42:01Z</time>
      </trkpt>
      <trkpt lat="42.87496" lon="1.21473">
        <ele>504.6</ele>
        <time>2024-02-04T14:42:06Z</time>
      </trkpt>
      <trkpt lat="42.87502" lon="1.21494">
        <ele>504.6</ele>
        <time>2024-02-04T14:42:09Z</time>
      </trkpt>
      <trkpt lat="42.87501" lon="1.21509">
        <ele>504.6</ele>
        <time>2024-02-04T14:42:11Z</time>
      </trkpt>
      <trkpt lat="42.87494" lon="1.21531">
        <ele>504.6</ele>
        <time>2024-02-04T14:42:14Z</time>
      </trkpt>
      <trkpt lat="42.87492" lon="1.21538">
        <ele>504.6</ele>
        <time>2024-02-04T14:42:15Z</time>
      </trkpt>
      <trkpt lat="42.87477" lon="1.21574">
        <ele>504.6</ele>
        <time>2024-02-04T14:42:20Z</time>
      </trkpt>
      <trkpt lat="42.87448" lon="1.21621">
        <ele>504.6</ele>
        <time>2024-02-04T14:42:28Z</time>
      </trkpt>
      <trkpt lat="42.87439" lon="1.21637">
        <ele>504.6</ele>
        <time>2024-02-04T14:42:31Z</time>
      </trkpt>
      <trkpt lat="42.8744" lon="1.21644">
        <ele>504.6</ele>
        <time>2024-02-04T14:42:32Z</time>
      </trkpt>
      <trkpt lat="42.87444" lon="1.21665">
        <ele>504.6</ele>
        <time>2024-02-04T14:42:35Z</time>
      </trkpt>
      <trkpt lat="42.87445" lon="1.21689">
        <ele>504.6</ele>
        <time>2024-02-04T14:42:38Z</time>
      </trkpt>
      <trkpt lat="42.87447" lon="1.21713">
        <ele>504.6</ele>
        <time>2024-02-04T14:42:41Z</time>
      </trkpt>
      <trkpt lat="42.87454" lon="1.21738">
        <ele>504.6</ele>
        <time>2024-02-04T14:42:45Z</time>
      </trkpt>
      <trkpt lat="42.87456" lon="1.21744">
        <ele>504.6</ele>
        <time>2024-02-04T14:42:46Z</time>
      </trkpt>
      <trkpt lat="42.87462" lon="1.2177">
        <ele>504.6</ele>
        <time>2024-02-04T14:42:50Z</time>
      </trkpt>
      <trkpt lat="42.87465" lon="1.21779">
        <ele>504.6</ele>
        <time>2024-02-04T14:42:52Z</time>
      </trkpt>
      <trkpt lat="42.87477" lon="1.2178">
        <ele>504.6</ele>
        <time>2024-02-04T14:42:55Z</time>
      </trkpt>
      <trkpt lat="42.87487" lon="1.21775">
        <ele>504.6</ele>
        <time>2024-02-04T14:42:57Z</time>
      </trkpt>
      <trkpt lat="42.87498" lon="1.21771">
        <ele>504.6</ele>
        <time>2024-02-04T14:42:59Z</time>
      </trkpt>
      <trkpt lat="42.87503" lon="1.21768">
        <ele>504.2</ele>
        <time>2024-02-04T14:43:00Z</time>
      </trkpt>
      <trkpt lat="42.87508" lon="1.21769">
        <ele>503.8</ele>
        <time>2024-02-04T14:43:01Z</time>
      </trkpt>
      <trkpt lat="42.87512" lon="1.21773">
        <ele>503.4</ele>
        <time>2024-02-04T14:43:02Z</time>
      </trkpt>
      <trkpt lat="42.87515" lon="1.21778">
        <ele>503</ele>
        <time>2024-02-04T14:43:03Z</time>
      </trkpt>
      <trkpt lat="42.87517" lon="1.21783">
        <ele>502.6</ele>
        <time>2024-02-04T14:43:04Z</time>
      </trkpt>
      <trkpt lat="42.87518" lon="1.21789">
        <ele>502.6</ele>
        <time>2024-02-04T14:43:05Z</time>
      </trkpt>
      <trkpt lat="42.87528" lon="1.21811">
        <ele>502.6</ele>
        <time>2024-02-04T14:43:09Z</time>
      </trkpt>
      <trkpt lat="42.87531" lon="1.21816">
        <ele>502.6</ele>
        <time>2024-02-04T14:43:10Z</time>
      </trkpt>
      <trkpt lat="42.87537" lon="1.21832">
        <ele>502.6</ele>
        <time>2024-02-04T14:43:13Z</time>
      </trkpt>
      <trkpt lat="42.87545" lon="1.21843">
        <ele>502.6</ele>
        <time>2024-02-04T14:43:16Z</time>
      </trkpt>
      <trkpt lat="42.87549" lon="1.21845">
        <ele>503</ele>
        <time>2024-02-04T14:43:17Z</time>
      </trkpt>
      <trkpt lat="42.87553" lon="1.21847">
        <ele>503.4</ele>
        <time>2024-02-04T14:43:18Z</time>
      </trkpt>
      <trkpt lat="42.87557" lon="1.21849">
        <ele>503.8</ele>
        <time>2024-02-04T14:43:19Z</time>
      </trkpt>
      <trkpt lat="42.87562" lon="1.21852">
        <ele>504.2</ele>
        <time>2024-02-04T14:43:20Z</time>
      </trkpt>
      <trkpt lat="42.87566" lon="1.21854">
        <ele>504.6</ele>
        <time>2024-02-04T14:43:21Z</time>
      </trkpt>
      <trkpt lat="42.8757" lon="1.21856">
        <ele>504.6</ele>
        <time>2024-02-04T14:43:22Z</time>
      </trkpt>
      <trkpt lat="42.87594" lon="1.21872">
        <ele>505</ele>
        <time>2024-02-04T14:43:28Z</time>
      </trkpt>
      <trkpt lat="42.87599" lon="1.21873">
        <ele>505.4</ele>
        <time>2024-02-04T14:43:29Z</time>
      </trkpt>
      <trkpt lat="42.87603" lon="1.21873">
        <ele>505.8</ele>
        <time>2024-02-04T14:43:30Z</time>
      </trkpt>
      <trkpt lat="42.87608" lon="1.21873">
        <ele>506.2</ele>
        <time>2024-02-04T14:43:31Z</time>
      </trkpt>
      <trkpt lat="42.87612" lon="1.21872">
        <ele>506.6</ele>
        <time>2024-02-04T14:43:32Z</time>
      </trkpt>
      <trkpt lat="42.87617" lon="1.21872">
        <ele>507.2</ele>
        <time>2024-02-04T14:43:33Z</time>
      </trkpt>
      <trkpt lat="42.87621" lon="1.21871">
        <ele>507.6</ele>
        <time>2024-02-04T14:43:34Z</time>
      </trkpt>
      <trkpt lat="42.87625" lon="1.21871">
        <ele>508.2</ele>
        <time>2024-02-04T14:43:35Z</time>
      </trkpt>
      <trkpt lat="42.87628" lon="1.21869">
        <ele>508.6</ele>
        <time>2024-02-04T14:43:36Z</time>
      </trkpt>
      <trkpt lat="42.87632" lon="1.21867">
        <ele>509.2</ele>
        <time>2024-02-04T14:43:37Z</time>
      </trkpt>
      <trkpt lat="42.87636" lon="1.21865">
        <ele>509.8</ele>
        <time>2024-02-04T14:43:38Z</time>
      </trkpt>
      <trkpt lat="42.8764" lon="1.21863">
        <ele>510.4</ele>
        <time>2024-02-04T14:43:39Z</time>
      </trkpt>
      <trkpt lat="42.87644" lon="1.21863">
        <ele>511.6</ele>
        <time>2024-02-04T14:43:40Z</time>
      </trkpt>
      <trkpt lat="42.87649" lon="1.21862">
        <ele>512</ele>
        <time>2024-02-04T14:43:41Z</time>
      </trkpt>
      <trkpt lat="42.87654" lon="1.21863">
        <ele>512.4</ele>
        <time>2024-02-04T14:43:42Z</time>
      </trkpt>
      <trkpt lat="42.87658" lon="1.21863">
        <ele>512.8</ele>
        <time>2024-02-04T14:43:43Z</time>
      </trkpt>
      <trkpt lat="42.87663" lon="1.21863">
        <ele>513.4</ele>
        <time>2024-02-04T14:43:44Z</time>
      </trkpt>
      <trkpt lat="42.87667" lon="1.21865">
        <ele>513.8</ele>
        <time>2024-02-04T14:43:45Z</time>
      </trkpt>
      <trkpt lat="42.87676" lon="1.21865">
        <ele>514.2</ele>
        <time>2024-02-04T14:43:47Z</time>
      </trkpt>
      <trkpt lat="42.87681" lon="1.21865">
        <ele>514.6</ele>
        <time>2024-02-04T14:43:48Z</time>
      </trkpt>
      <trkpt lat="42.87686" lon="1.21864">
        <ele>515</ele>
        <time>2024-02-04T14:43:49Z</time>
      </trkpt>
      <trkpt lat="42.87691" lon="1.21863">
        <ele>515.4</ele>
        <time>2024-02-04T14:43:50Z</time>
      </trkpt>
      <trkpt lat="42.87696" lon="1.21862">
        <ele>515.8</ele>
        <time>2024-02-04T14:43:51Z</time>
      </trkpt>
      <trkpt lat="42.87712" lon="1.2186">
        <ele>516.2</ele>
        <time>2024-02-04T14:43:54Z</time>
      </trkpt>
      <trkpt lat="42.87716" lon="1.2186">
        <ele>516.8</ele>
        <time>2024-02-04T14:43:55Z</time>
      </trkpt>
      <trkpt lat="42.87721" lon="1.21859">
        <ele>517.2</ele>
        <time>2024-02-04T14:43:56Z</time>
      </trkpt>
      <trkpt lat="42.87725" lon="1.21859">
        <ele>517.6</ele>
        <time>2024-02-04T14:43:57Z</time>
      </trkpt>
      <trkpt lat="42.87729" lon="1.21858">
        <ele>518</ele>
        <time>2024-02-04T14:43:58Z</time>
      </trkpt>
      <trkpt lat="42.87733" lon="1.21859">
        <ele>518</ele>
        <time>2024-02-04T14:43:59Z</time>
      </trkpt>
      <trkpt lat="42.87738" lon="1.21859">
        <ele>518.4</ele>
        <time>2024-02-04T14:44:00Z</time>
      </trkpt>
      <trkpt lat="42.87742" lon="1.21859">
        <ele>519</ele>
        <time>2024-02-04T14:44:01Z</time>
      </trkpt>
      <trkpt lat="42.87746" lon="1.2186">
        <ele>519.4</ele>
        <time>2024-02-04T14:44:02Z</time>
      </trkpt>
      <trkpt lat="42.8775" lon="1.2186">
        <ele>519.8</ele>
        <time>2024-02-04T14:44:03Z</time>
      </trkpt>
      <trkpt lat="42.87754" lon="1.2186">
        <ele>520.4</ele>
        <time>2024-02-04T14:44:04Z</time>
      </trkpt>
      <trkpt lat="42.87759" lon="1.2186">
        <ele>521.2</ele>
        <time>2024-02-04T14:44:05Z</time>
      </trkpt>
      <trkpt lat="42.87763" lon="1.21859">
        <ele>521.6</ele>
        <time>2024-02-04T14:44:06Z</time>
      </trkpt>
      <trkpt lat="42.87768" lon="1.21858">
        <ele>522</ele>
        <time>2024-02-04T14:44:07Z</time>
      </trkpt>
      <trkpt lat="42.87772" lon="1.21857">
        <ele>522.4</ele>
        <time>2024-02-04T14:44:08Z</time>
      </trkpt>
      <trkpt lat="42.87776" lon="1.21855">
        <ele>522.4</ele>
        <time>2024-02-04T14:44:09Z</time>
      </trkpt>
      <trkpt lat="42.8778" lon="1.21853">
        <ele>522.8</ele>
        <time>2024-02-04T14:44:10Z</time>
      </trkpt>
      <trkpt lat="42.87784" lon="1.21851">
        <ele>523.4</ele>
        <time>2024-02-04T14:44:11Z</time>
      </trkpt>
      <trkpt lat="42.87788" lon="1.21849">
        <ele>523.8</ele>
        <time>2024-02-04T14:44:12Z</time>
      </trkpt>
      <trkpt lat="42.87791" lon="1.21847">
        <ele>524.4</ele>
        <time>2024-02-04T14:44:13Z</time>
      </trkpt>
      <trkpt lat="42.87795" lon="1.21846">
        <ele>524.8</ele>
        <time>2024-02-04T14:44:14Z</time>
      </trkpt>
      <trkpt lat="42.87799" lon="1.21844">
        <ele>525.4</ele>
        <time>2024-02-04T14:44:15Z</time>
      </trkpt>
      <trkpt lat="42.87803" lon="1.21843">
        <ele>525.8</ele>
        <time>2024-02-04T14:44:16Z</time>
      </trkpt>
      <trkpt lat="42.87806" lon="1.21841">
        <ele>526.4</ele>
        <time>2024-02-04T14:44:17Z</time>
      </trkpt>
      <trkpt lat="42.8781" lon="1.2184">
        <ele>527</ele>
        <time>2024-02-04T14:44:18Z</time>
      </trkpt>
      <trkpt lat="42.87815" lon="1.21839">
        <ele>527.6</ele>
        <time>2024-02-04T14:44:19Z</time>
      </trkpt>
      <trkpt lat="42.87819" lon="1.21838">
        <ele>528.2</ele>
        <time>2024-02-04T14:44:20Z</time>
      </trkpt>
      <trkpt lat="42.87823" lon="1.21838">
        <ele>528.8</ele>
        <time>2024-02-04T14:44:21Z</time>
      </trkpt>
      <trkpt lat="42.87827" lon="1.21837">
        <ele>529.4</ele>
        <time>2024-02-04T14:44:22Z</time>
      </trkpt>
      <trkpt lat="42.87841" lon="1.21837">
        <ele>529.8</ele>
        <time>2024-02-04T14:44:25Z</time>
      </trkpt>
      <trkpt lat="42.87846" lon="1.21837">
        <ele>530.4</ele>
        <time>2024-02-04T14:44:26Z</time>
      </trkpt>
      <trkpt lat="42.8785" lon="1.21837">
        <ele>530.8</ele>
        <time>2024-02-04T14:44:27Z</time>
      </trkpt>
      <trkpt lat="42.87855" lon="1.21837">
        <ele>531.2</ele>
        <time>2024-02-04T14:44:28Z</time>
      </trkpt>
      <trkpt lat="42.87859" lon="1.21837">
        <ele>532.2</ele>
        <time>2024-02-04T14:44:29Z</time>
      </trkpt>
      <trkpt lat="42.87863" lon="1.21838">
        <ele>532.8</ele>
        <time>2024-02-04T14:44:30Z</time>
      </trkpt>
      <trkpt lat="42.87866" lon="1.21838">
        <ele>533.2</ele>
        <time>2024-02-04T14:44:31Z</time>
      </trkpt>
      <trkpt lat="42.8787" lon="1.21838">
        <ele>533.6</ele>
        <time>2024-02-04T14:44:32Z</time>
      </trkpt>
      <trkpt lat="42.87874" lon="1.21838">
        <ele>534.2</ele>
        <time>2024-02-04T14:44:33Z</time>
      </trkpt>
      <trkpt lat="42.87877" lon="1.21839">
        <ele>534.6</ele>
        <time>2024-02-04T14:44:34Z</time>
      </trkpt>
      <trkpt lat="42.87881" lon="1.2184">
        <ele>535</ele>
        <time>2024-02-04T14:44:35Z</time>
      </trkpt>
      <trkpt lat="42.87885" lon="1.21841">
        <ele>535.6</ele>
        <time>2024-02-04T14:44:36Z</time>
      </trkpt>
      <trkpt lat="42.87888" lon="1.21844">
        <ele>536</ele>
        <time>2024-02-04T14:44:37Z</time>
      </trkpt>
      <trkpt lat="42.87891" lon="1.21846">
        <ele>536.6</ele>
        <time>2024-02-04T14:44:38Z</time>
      </trkpt>
      <trkpt lat="42.87894" lon="1.21848">
        <ele>537.2</ele>
        <time>2024-02-04T14:44:39Z</time>
      </trkpt>
      <trkpt lat="42.87896" lon="1.21851">
        <ele>537.8</ele>
        <time>2024-02-04T14:44:40Z</time>
      </trkpt>
      <trkpt lat="42.87899" lon="1.21854">
        <ele>538.2</ele>
        <time>2024-02-04T14:44:41Z</time>
      </trkpt>
      <trkpt lat="42.879" lon="1.21857">
        <ele>538.8</ele>
        <time>2024-02-04T14:44:42Z</time>
      </trkpt>
      <trkpt lat="42.87902" lon="1.21861">
        <ele>539.4</ele>
        <time>2024-02-04T14:44:43Z</time>
      </trkpt>
      <trkpt lat="42.87903" lon="1.21864">
        <ele>539.8</ele>
        <time>2024-02-04T14:44:44Z</time>
      </trkpt>
      <trkpt lat="42.87904" lon="1.21868">
        <ele>540.4</ele>
        <time>2024-02-04T14:44:45Z</time>
      </trkpt>
      <trkpt lat="42.87905" lon="1.21872">
        <ele>541</ele>
        <time>2024-02-04T14:44:46Z</time>
      </trkpt>
      <trkpt lat="42.87906" lon="1.21876">
        <ele>541.6</ele>
        <time>2024-02-04T14:44:47Z</time>
      </trkpt>
      <trkpt lat="42.87907" lon="1.21879">
        <ele>542.2</ele>
        <time>2024-02-04T14:44:48Z</time>
      </trkpt>
      <trkpt lat="42.87907" lon="1.21883">
        <ele>542.6</ele>
        <time>2024-02-04T14:44:49Z</time>
      </trkpt>
      <trkpt lat="42.87907" lon="1.21887">
        <ele>543.2</ele>
        <time>2024-02-04T14:44:50Z</time>
      </trkpt>
      <trkpt lat="42.87907" lon="1.21891">
        <ele>543.8</ele>
        <time>2024-02-04T14:44:51Z</time>
      </trkpt>
      <trkpt lat="42.87907" lon="1.21895">
        <ele>544.4</ele>
        <time>2024-02-04T14:44:52Z</time>
      </trkpt>
      <trkpt lat="42.87907" lon="1.21899">
        <ele>545</ele>
        <time>2024-02-04T14:44:53Z</time>
      </trkpt>
      <trkpt lat="42.87906" lon="1.21903">
        <ele>545.8</ele>
        <time>2024-02-04T14:44:54Z</time>
      </trkpt>
      <trkpt lat="42.87906" lon="1.21909">
        <ele>546.4</ele>
        <time>2024-02-04T14:44:55Z</time>
      </trkpt>
      <trkpt lat="42.87906" lon="1.21913">
        <ele>546.8</ele>
        <time>2024-02-04T14:44:56Z</time>
      </trkpt>
      <trkpt lat="42.87905" lon="1.21918">
        <ele>547.4</ele>
        <time>2024-02-04T14:44:57Z</time>
      </trkpt>
      <trkpt lat="42.87905" lon="1.21928">
        <ele>547.8</ele>
        <time>2024-02-04T14:44:59Z</time>
      </trkpt>
      <trkpt lat="42.87905" lon="1.21933">
        <ele>548.2</ele>
        <time>2024-02-04T14:45:00Z</time>
      </trkpt>
      <trkpt lat="42.87905" lon="1.21938">
        <ele>548.6</ele>
        <time>2024-02-04T14:45:01Z</time>
      </trkpt>
      <trkpt lat="42.87905" lon="1.21941">
        <ele>549</ele>
        <time>2024-02-04T14:45:02Z</time>
      </trkpt>
      <trkpt lat="42.87905" lon="1.21946">
        <ele>549.4</ele>
        <time>2024-02-04T14:45:03Z</time>
      </trkpt>
      <trkpt lat="42.87906" lon="1.21954">
        <ele>549.8</ele>
        <time>2024-02-04T14:45:06Z</time>
      </trkpt>
      <trkpt lat="42.87905" lon="1.21956">
        <ele>550.2</ele>
        <time>2024-02-04T14:45:07Z</time>
      </trkpt>
      <trkpt lat="42.87906" lon="1.21958">
        <ele>550.6</ele>
        <time>2024-02-04T14:45:08Z</time>
      </trkpt>
      <trkpt lat="42.87907" lon="1.21959">
        <ele>551</ele>
        <time>2024-02-04T14:45:09Z</time>
      </trkpt>
      <trkpt lat="42.87907" lon="1.21961">
        <ele>551.4</ele>
        <time>2024-02-04T14:45:10Z</time>
      </trkpt>
      <trkpt lat="42.87907" lon="1.21963">
        <ele>551.4</ele>
        <time>2024-02-04T14:45:11Z</time>
      </trkpt>
      <trkpt lat="42.87907" lon="1.21979">
        <ele>551.4</ele>
        <time>2024-02-04T14:45:16Z</time>
      </trkpt>
      <trkpt lat="42.87908" lon="1.21985">
        <ele>551.4</ele>
        <time>2024-02-04T14:45:17Z</time>
      </trkpt>
      <trkpt lat="42.87915" lon="1.21995">
        <ele>551.4</ele>
        <time>2024-02-04T14:45:20Z</time>
      </trkpt>
      <trkpt lat="42.87926" lon="1.21992">
        <ele>551.4</ele>
        <time>2024-02-04T14:45:23Z</time>
      </trkpt>
      <trkpt lat="42.87931" lon="1.2199">
        <ele>551.4</ele>
        <time>2024-02-04T14:45:24Z</time>
      </trkpt>
      <trkpt lat="42.8794" lon="1.21983">
        <ele>551.4</ele>
        <time>2024-02-04T14:45:27Z</time>
      </trkpt>
      <trkpt lat="42.87944" lon="1.21982">
        <ele>551.8</ele>
        <time>2024-02-04T14:45:28Z</time>
      </trkpt>
      <trkpt lat="42.87947" lon="1.21981">
        <ele>552.4</ele>
        <time>2024-02-04T14:45:29Z</time>
      </trkpt>
      <trkpt lat="42.87951" lon="1.21981">
        <ele>552.8</ele>
        <time>2024-02-04T14:45:30Z</time>
      </trkpt>
      <trkpt lat="42.87955" lon="1.21981">
        <ele>553.2</ele>
        <time>2024-02-04T14:45:31Z</time>
      </trkpt>
      <trkpt lat="42.87959" lon="1.21981">
        <ele>553.8</ele>
        <time>2024-02-04T14:45:32Z</time>
      </trkpt>
      <trkpt lat="42.87962" lon="1.21983">
        <ele>554.2</ele>
        <time>2024-02-04T14:45:33Z</time>
      </trkpt>
      <trkpt lat="42.87966" lon="1.21984">
        <ele>554.6</ele>
        <time>2024-02-04T14:45:34Z</time>
      </trkpt>
      <trkpt lat="42.87969" lon="1.21985">
        <ele>555</ele>
        <time>2024-02-04T14:45:35Z</time>
      </trkpt>
      <trkpt lat="42.87971" lon="1.21987">
        <ele>555.4</ele>
        <time>2024-02-04T14:45:36Z</time>
      </trkpt>
      <trkpt lat="42.87974" lon="1.21989">
        <ele>555.8</ele>
        <time>2024-02-04T14:45:37Z</time>
      </trkpt>
      <trkpt lat="42.87976" lon="1.2199">
        <ele>556.2</ele>
        <time>2024-02-04T14:45:38Z</time>
      </trkpt>
      <trkpt lat="42.87979" lon="1.21992">
        <ele>556.6</ele>
        <time>2024-02-04T14:45:39Z</time>
      </trkpt>
      <trkpt lat="42.87982" lon="1.21994">
        <ele>557</ele>
        <time>2024-02-04T14:45:40Z</time>
      </trkpt>
      <trkpt lat="42.87985" lon="1.21995">
        <ele>557.4</ele>
        <time>2024-02-04T14:45:41Z</time>
      </trkpt>
      <trkpt lat="42.87988" lon="1.21997">
        <ele>558</ele>
        <time>2024-02-04T14:45:42Z</time>
      </trkpt>
      <trkpt lat="42.8799" lon="1.21998">
        <ele>558.4</ele>
        <time>2024-02-04T14:45:43Z</time>
      </trkpt>
      <trkpt lat="42.87993" lon="1.22">
        <ele>559.2</ele>
        <time>2024-02-04T14:45:44Z</time>
      </trkpt>
      <trkpt lat="42.87996" lon="1.22002">
        <ele>559.6</ele>
        <time>2024-02-04T14:45:45Z</time>
      </trkpt>
      <trkpt lat="42.87998" lon="1.22003">
        <ele>560</ele>
        <time>2024-02-04T14:45:46Z</time>
      </trkpt>
      <trkpt lat="42.88001" lon="1.22004">
        <ele>560.4</ele>
        <time>2024-02-04T14:45:47Z</time>
      </trkpt>
      <trkpt lat="42.88004" lon="1.22005">
        <ele>560.8</ele>
        <time>2024-02-04T14:45:48Z</time>
      </trkpt>
      <trkpt lat="42.88007" lon="1.22005">
        <ele>561.2</ele>
        <time>2024-02-04T14:45:49Z</time>
      </trkpt>
      <trkpt lat="42.8801" lon="1.22006">
        <ele>561.6</ele>
        <time>2024-02-04T14:45:50Z</time>
      </trkpt>
      <trkpt lat="42.88013" lon="1.22007">
        <ele>562</ele>
        <time>2024-02-04T14:45:51Z</time>
      </trkpt>
      <trkpt lat="42.88022" lon="1.22011">
        <ele>562.4</ele>
        <time>2024-02-04T14:45:54Z</time>
      </trkpt>
      <trkpt lat="42.88024" lon="1.22012">
        <ele>562.8</ele>
        <time>2024-02-04T14:45:55Z</time>
      </trkpt>
      <trkpt lat="42.88027" lon="1.22014">
        <ele>563.4</ele>
        <time>2024-02-04T14:45:56Z</time>
      </trkpt>
      <trkpt lat="42.8803" lon="1.22016">
        <ele>563.8</ele>
        <time>2024-02-04T14:45:57Z</time>
      </trkpt>
      <trkpt lat="42.88033" lon="1.22017">
        <ele>564.2</ele>
        <time>2024-02-04T14:45:58Z</time>
      </trkpt>
      <trkpt lat="42.88048" lon="1.22026">
        <ele>564.6</ele>
        <time>2024-02-04T14:46:03Z</time>
      </trkpt>
      <trkpt lat="42.88051" lon="1.22027">
        <ele>565.2</ele>
        <time>2024-02-04T14:46:04Z</time>
      </trkpt>
      <trkpt lat="42.88054" lon="1.22029">
        <ele>565.6</ele>
        <time>2024-02-04T14:46:05Z</time>
      </trkpt>
      <trkpt lat="42.88057" lon="1.22031">
        <ele>566</ele>
        <time>2024-02-04T14:46:06Z</time>
      </trkpt>
      <trkpt lat="42.8806" lon="1.22033">
        <ele>566.6</ele>
        <time>2024-02-04T14:46:07Z</time>
      </trkpt>
      <trkpt lat="42.88065" lon="1.22036">
        <ele>567.4</ele>
        <time>2024-02-04T14:46:09Z</time>
      </trkpt>
      <trkpt lat="42.88068" lon="1.22037">
        <ele>568</ele>
        <time>2024-02-04T14:46:10Z</time>
      </trkpt>
      <trkpt lat="42.8807" lon="1.22039">
        <ele>568.4</ele>
        <time>2024-02-04T14:46:11Z</time>
      </trkpt>
      <trkpt lat="42.88073" lon="1.2204">
        <ele>568.8</ele>
        <time>2024-02-04T14:46:12Z</time>
      </trkpt>
      <trkpt lat="42.88079" lon="1.22044">
        <ele>568.8</ele>
        <time>2024-02-04T14:46:14Z</time>
      </trkpt>
      <trkpt lat="42.88082" lon="1.22046">
        <ele>569.4</ele>
        <time>2024-02-04T14:46:15Z</time>
      </trkpt>
      <trkpt lat="42.88084" lon="1.22048">
        <ele>569.8</ele>
        <time>2024-02-04T14:46:16Z</time>
      </trkpt>
      <trkpt lat="42.88088" lon="1.2205">
        <ele>570.2</ele>
        <time>2024-02-04T14:46:17Z</time>
      </trkpt>
      <trkpt lat="42.8809" lon="1.22051">
        <ele>570.8</ele>
        <time>2024-02-04T14:46:18Z</time>
      </trkpt>
      <trkpt lat="42.88093" lon="1.22053">
        <ele>571.2</ele>
        <time>2024-02-04T14:46:19Z</time>
      </trkpt>
      <trkpt lat="42.881" lon="1.22057">
        <ele>571.2</ele>
        <time>2024-02-04T14:46:21Z</time>
      </trkpt>
      <trkpt lat="42.88102" lon="1.22059">
        <ele>571.6</ele>
        <time>2024-02-04T14:46:22Z</time>
      </trkpt>
      <trkpt lat="42.88105" lon="1.22061">
        <ele>572</ele>
        <time>2024-02-04T14:46:23Z</time>
      </trkpt>
      <trkpt lat="42.88109" lon="1.22062">
        <ele>572.4</ele>
        <time>2024-02-04T14:46:24Z</time>
      </trkpt>
      <trkpt lat="42.88111" lon="1.22064">
        <ele>572.8</ele>
        <time>2024-02-04T14:46:25Z</time>
      </trkpt>
      <trkpt lat="42.88114" lon="1.22066">
        <ele>573.2</ele>
        <time>2024-02-04T14:46:26Z</time>
      </trkpt>
      <trkpt lat="42.88117" lon="1.22068">
        <ele>573.2</ele>
        <time>2024-02-04T14:46:27Z</time>
      </trkpt>
      <trkpt lat="42.88123" lon="1.22071">
        <ele>573.6</ele>
        <time>2024-02-04T14:46:29Z</time>
      </trkpt>
      <trkpt lat="42.88126" lon="1.22073">
        <ele>574.2</ele>
        <time>2024-02-04T14:46:30Z</time>
      </trkpt>
      <trkpt lat="42.88129" lon="1.22074">
        <ele>574.6</ele>
        <time>2024-02-04T14:46:31Z</time>
      </trkpt>
      <trkpt lat="42.88132" lon="1.22076">
        <ele>575</ele>
        <time>2024-02-04T14:46:32Z</time>
      </trkpt>
      <trkpt lat="42.88135" lon="1.22078">
        <ele>575.8</ele>
        <time>2024-02-04T14:46:33Z</time>
      </trkpt>
      <trkpt lat="42.88138" lon="1.2208">
        <ele>576.4</ele>
        <time>2024-02-04T14:46:34Z</time>
      </trkpt>
      <trkpt lat="42.88141" lon="1.22081">
        <ele>576.8</ele>
        <time>2024-02-04T14:46:35Z</time>
      </trkpt>
      <trkpt lat="42.88144" lon="1.22083">
        <ele>577.2</ele>
        <time>2024-02-04T14:46:36Z</time>
      </trkpt>
      <trkpt lat="42.88146" lon="1.22085">
        <ele>577.8</ele>
        <time>2024-02-04T14:46:37Z</time>
      </trkpt>
      <trkpt lat="42.88149" lon="1.22086">
        <ele>578.2</ele>
        <time>2024-02-04T14:46:38Z</time>
      </trkpt>
      <trkpt lat="42.88153" lon="1.22088">
        <ele>578.8</ele>
        <time>2024-02-04T14:46:39Z</time>
      </trkpt>
      <trkpt lat="42.88156" lon="1.2209">
        <ele>579.2</ele>
        <time>2024-02-04T14:46:40Z</time>
      </trkpt>
      <trkpt lat="42.88158" lon="1.22092">
        <ele>579.6</ele>
        <time>2024-02-04T14:46:41Z</time>
      </trkpt>
      <trkpt lat="42.88161" lon="1.22094">
        <ele>580.2</ele>
        <time>2024-02-04T14:46:42Z</time>
      </trkpt>
      <trkpt lat="42.88164" lon="1.22096">
        <ele>580.6</ele>
        <time>2024-02-04T14:46:43Z</time>
      </trkpt>
      <trkpt lat="42.88167" lon="1.22098">
        <ele>581</ele>
        <time>2024-02-04T14:46:44Z</time>
      </trkpt>
      <trkpt lat="42.8817" lon="1.221">
        <ele>581.4</ele>
        <time>2024-02-04T14:46:45Z</time>
      </trkpt>
      <trkpt lat="42.88173" lon="1.22102">
        <ele>581.8</ele>
        <time>2024-02-04T14:46:46Z</time>
      </trkpt>
      <trkpt lat="42.88176" lon="1.22104">
        <ele>582.2</ele>
        <time>2024-02-04T14:46:47Z</time>
      </trkpt>
      <trkpt lat="42.88179" lon="1.22106">
        <ele>582.6</ele>
        <time>2024-02-04T14:46:48Z</time>
      </trkpt>
      <trkpt lat="42.88183" lon="1.22109">
        <ele>583</ele>
        <time>2024-02-04T14:46:49Z</time>
      </trkpt>
      <trkpt lat="42.88186" lon="1.2211">
        <ele>583.4</ele>
        <time>2024-02-04T14:46:50Z</time>
      </trkpt>
      <trkpt lat="42.88189" lon="1.22112">
        <ele>583.8</ele>
        <time>2024-02-04T14:46:51Z</time>
      </trkpt>
      <trkpt lat="42.88191" lon="1.22114">
        <ele>584.2</ele>
        <time>2024-02-04T14:46:52Z</time>
      </trkpt>
      <trkpt lat="42.88197" lon="1.22118">
        <ele>584.6</ele>
        <time>2024-02-04T14:46:54Z</time>
      </trkpt>
      <trkpt lat="42.88201" lon="1.2212">
        <ele>585</ele>
        <time>2024-02-04T14:46:55Z</time>
      </trkpt>
      <trkpt lat="42.88204" lon="1.22122">
        <ele>585.4</ele>
        <time>2024-02-04T14:46:56Z</time>
      </trkpt>
      <trkpt lat="42.88207" lon="1.22124">
        <ele>585.8</ele>
        <time>2024-02-04T14:46:57Z</time>
      </trkpt>
      <trkpt lat="42.8821" lon="1.22127">
        <ele>586.4</ele>
        <time>2024-02-04T14:46:58Z</time>
      </trkpt>
      <trkpt lat="42.88221" lon="1.22133">
        <ele>586.8</ele>
        <time>2024-02-04T14:47:01Z</time>
      </trkpt>
      <trkpt lat="42.88223" lon="1.22136">
        <ele>587.2</ele>
        <time>2024-02-04T14:47:02Z</time>
      </trkpt>
      <trkpt lat="42.88226" lon="1.22139">
        <ele>587.6</ele>
        <time>2024-02-04T14:47:03Z</time>
      </trkpt>
      <trkpt lat="42.88229" lon="1.22141">
        <ele>588</ele>
        <time>2024-02-04T14:47:04Z</time>
      </trkpt>
      <trkpt lat="42.88231" lon="1.22145">
        <ele>588.4</ele>
        <time>2024-02-04T14:47:05Z</time>
      </trkpt>
      <trkpt lat="42.88236" lon="1.22151">
        <ele>588.4</ele>
        <time>2024-02-04T14:47:07Z</time>
      </trkpt>
      <trkpt lat="42.88248" lon="1.22163">
        <ele>588.4</ele>
        <time>2024-02-04T14:47:11Z</time>
      </trkpt>
      <trkpt lat="42.88254" lon="1.22166">
        <ele>588</ele>
        <time>2024-02-04T14:47:13Z</time>
      </trkpt>
      <trkpt lat="42.88257" lon="1.22167">
        <ele>587.4</ele>
        <time>2024-02-04T14:47:14Z</time>
      </trkpt>
      <trkpt lat="42.8826" lon="1.22169">
        <ele>586.6</ele>
        <time>2024-02-04T14:47:15Z</time>
      </trkpt>
      <trkpt lat="42.88259" lon="1.22173">
        <ele>585.8</ele>
        <time>2024-02-04T14:47:16Z</time>
      </trkpt>
      <trkpt lat="42.88259" lon="1.22179">
        <ele>585</ele>
        <time>2024-02-04T14:47:17Z</time>
      </trkpt>
      <trkpt lat="42.88259" lon="1.22186">
        <ele>584</ele>
        <time>2024-02-04T14:47:18Z</time>
      </trkpt>
      <trkpt lat="42.8826" lon="1.22193">
        <ele>582.8</ele>
        <time>2024-02-04T14:47:19Z</time>
      </trkpt>
      <trkpt lat="42.8826" lon="1.22198">
        <ele>581.6</ele>
        <time>2024-02-04T14:47:20Z</time>
      </trkpt>
      <trkpt lat="42.88262" lon="1.22205">
        <ele>580.4</ele>
        <time>2024-02-04T14:47:21Z</time>
      </trkpt>
      <trkpt lat="42.88265" lon="1.22211">
        <ele>579.2</ele>
        <time>2024-02-04T14:47:22Z</time>
      </trkpt>
      <trkpt lat="42.88266" lon="1.22218">
        <ele>576.4</ele>
        <time>2024-02-04T14:47:23Z</time>
      </trkpt>
      <trkpt lat="42.88268" lon="1.22224">
        <ele>575</ele>
        <time>2024-02-04T14:47:24Z</time>
      </trkpt>
      <trkpt lat="42.88268" lon="1.2223">
        <ele>573.6</ele>
        <time>2024-02-04T14:47:25Z</time>
      </trkpt>
      <trkpt lat="42.88269" lon="1.22234">
        <ele>572.2</ele>
        <time>2024-02-04T14:47:26Z</time>
      </trkpt>
      <trkpt lat="42.88269" lon="1.22235">
        <ele>571</ele>
        <time>2024-02-04T14:47:27Z</time>
      </trkpt>
      <trkpt lat="42.8827" lon="1.22236">
        <ele>569.6</ele>
        <time>2024-02-04T14:47:28Z</time>
      </trkpt>
      <trkpt lat="42.88273" lon="1.22234">
        <ele>568.2</ele>
        <time>2024-02-04T14:47:29Z</time>
      </trkpt>
      <trkpt lat="42.88276" lon="1.22232">
        <ele>567</ele>
        <time>2024-02-04T14:47:30Z</time>
      </trkpt>
      <trkpt lat="42.88285" lon="1.22219">
        <ele>566.6</ele>
        <time>2024-02-04T14:47:33Z</time>
      </trkpt>
      <trkpt lat="42.88288" lon="1.22213">
        <ele>566.2</ele>
        <time>2024-02-04T14:47:34Z</time>
      </trkpt>
      <trkpt lat="42.88292" lon="1.22206">
        <ele>565.8</ele>
        <time>2024-02-04T14:47:35Z</time>
      </trkpt>
      <trkpt lat="42.88295" lon="1.22201">
        <ele>565.4</ele>
        <time>2024-02-04T14:47:36Z</time>
      </trkpt>
      <trkpt lat="42.88299" lon="1.22194">
        <ele>565</ele>
        <time>2024-02-04T14:47:37Z</time>
      </trkpt>
      <trkpt lat="42.88302" lon="1.22191">
        <ele>565</ele>
        <time>2024-02-04T14:47:38Z</time>
      </trkpt>
      <trkpt lat="42.88305" lon="1.22184">
        <ele>565</ele>
        <time>2024-02-04T14:47:39Z</time>
      </trkpt>
      <trkpt lat="42.88315" lon="1.2217">
        <ele>565</ele>
        <time>2024-02-04T14:47:42Z</time>
      </trkpt>
      <trkpt lat="42.88332" lon="1.22148">
        <ele>565</ele>
        <time>2024-02-04T14:47:47Z</time>
      </trkpt>
      <trkpt lat="42.88339" lon="1.22138">
        <ele>565.4</ele>
        <time>2024-02-04T14:47:49Z</time>
      </trkpt>
      <trkpt lat="42.88342" lon="1.22133">
        <ele>565.8</ele>
        <time>2024-02-04T14:47:50Z</time>
      </trkpt>
      <trkpt lat="42.88344" lon="1.22127">
        <ele>566.4</ele>
        <time>2024-02-04T14:47:51Z</time>
      </trkpt>
      <trkpt lat="42.88347" lon="1.22121">
        <ele>566.8</ele>
        <time>2024-02-04T14:47:52Z</time>
      </trkpt>
      <trkpt lat="42.88348" lon="1.22115">
        <ele>567.2</ele>
        <time>2024-02-04T14:47:53Z</time>
      </trkpt>
      <trkpt lat="42.8835" lon="1.22109">
        <ele>567.6</ele>
        <time>2024-02-04T14:47:54Z</time>
      </trkpt>
      <trkpt lat="42.88351" lon="1.22103">
        <ele>568</ele>
        <time>2024-02-04T14:47:55Z</time>
      </trkpt>
      <trkpt lat="42.88353" lon="1.22098">
        <ele>568.4</ele>
        <time>2024-02-04T14:47:56Z</time>
      </trkpt>
      <trkpt lat="42.88356" lon="1.22093">
        <ele>569</ele>
        <time>2024-02-04T14:47:57Z</time>
      </trkpt>
      <trkpt lat="42.88358" lon="1.22088">
        <ele>569.4</ele>
        <time>2024-02-04T14:47:58Z</time>
      </trkpt>
      <trkpt lat="42.88366" lon="1.22076">
        <ele>569.4</ele>
        <time>2024-02-04T14:48:00Z</time>
      </trkpt>
      <trkpt lat="42.88369" lon="1.2207">
        <ele>569.4</ele>
        <time>2024-02-04T14:48:01Z</time>
      </trkpt>
      <trkpt lat="42.88378" lon="1.22059">
        <ele>569.4</ele>
        <time>2024-02-04T14:48:03Z</time>
      </trkpt>
      <trkpt lat="42.88388" lon="1.22046">
        <ele>569.4</ele>
        <time>2024-02-04T14:48:05Z</time>
      </trkpt>
      <trkpt lat="42.88394" lon="1.22042">
        <ele>568.8</ele>
        <time>2024-02-04T14:48:06Z</time>
      </trkpt>
      <trkpt lat="42.88403" lon="1.22036">
        <ele>568.2</ele>
        <time>2024-02-04T14:48:07Z</time>
      </trkpt>
      <trkpt lat="42.8841" lon="1.22032">
        <ele>567.4</ele>
        <time>2024-02-04T14:48:08Z</time>
      </trkpt>
      <trkpt lat="42.88418" lon="1.22027">
        <ele>566.6</ele>
        <time>2024-02-04T14:48:09Z</time>
      </trkpt>
      <trkpt lat="42.88424" lon="1.22022">
        <ele>565.8</ele>
        <time>2024-02-04T14:48:10Z</time>
      </trkpt>
      <trkpt lat="42.88431" lon="1.22016">
        <ele>565</ele>
        <time>2024-02-04T14:48:11Z</time>
      </trkpt>
      <trkpt lat="42.88439" lon="1.22009">
        <ele>564.2</ele>
        <time>2024-02-04T14:48:12Z</time>
      </trkpt>
      <trkpt lat="42.88447" lon="1.22004">
        <ele>562.6</ele>
        <time>2024-02-04T14:48:13Z</time>
      </trkpt>
      <trkpt lat="42.88454" lon="1.21998">
        <ele>561.8</ele>
        <time>2024-02-04T14:48:14Z</time>
      </trkpt>
      <trkpt lat="42.88461" lon="1.21993">
        <ele>561</ele>
        <time>2024-02-04T14:48:15Z</time>
      </trkpt>
      <trkpt lat="42.88467" lon="1.21989">
        <ele>560.2</ele>
        <time>2024-02-04T14:48:16Z</time>
      </trkpt>
      <trkpt lat="42.88473" lon="1.21986">
        <ele>559.6</ele>
        <time>2024-02-04T14:48:17Z</time>
      </trkpt>
      <trkpt lat="42.88478" lon="1.21985">
        <ele>559</ele>
        <time>2024-02-04T14:48:18Z</time>
      </trkpt>
      <trkpt lat="42.88483" lon="1.21982">
        <ele>558.6</ele>
        <time>2024-02-04T14:48:19Z</time>
      </trkpt>
      <trkpt lat="42.88487" lon="1.21976">
        <ele>558.2</ele>
        <time>2024-02-04T14:48:20Z</time>
      </trkpt>
      <trkpt lat="42.88488" lon="1.21971">
        <ele>557.4</ele>
        <time>2024-02-04T14:48:21Z</time>
      </trkpt>
      <trkpt lat="42.88488" lon="1.21966">
        <ele>556.8</ele>
        <time>2024-02-04T14:48:22Z</time>
      </trkpt>
      <trkpt lat="42.88488" lon="1.21963">
        <ele>556.2</ele>
        <time>2024-02-04T14:48:23Z</time>
      </trkpt>
      <trkpt lat="42.88488" lon="1.2196">
        <ele>555.4</ele>
        <time>2024-02-04T14:48:24Z</time>
      </trkpt>
      <trkpt lat="42.88489" lon="1.2196">
        <ele>554.8</ele>
        <time>2024-02-04T14:48:25Z</time>
      </trkpt>
      <trkpt lat="42.88487" lon="1.21951">
        <ele>554.8</ele>
        <time>2024-02-04T14:48:34Z</time>
      </trkpt>
      <trkpt lat="42.88484" lon="1.21947">
        <ele>554.8</ele>
        <time>2024-02-04T14:48:35Z</time>
      </trkpt>
      <trkpt lat="42.88479" lon="1.21943">
        <ele>554.2</ele>
        <time>2024-02-04T14:48:36Z</time>
      </trkpt>
      <trkpt lat="42.88476" lon="1.21937">
        <ele>552.8</ele>
        <time>2024-02-04T14:48:37Z</time>
      </trkpt>
      <trkpt lat="42.88474" lon="1.21929">
        <ele>552</ele>
        <time>2024-02-04T14:48:38Z</time>
      </trkpt>
      <trkpt lat="42.88472" lon="1.21923">
        <ele>551</ele>
        <time>2024-02-04T14:48:39Z</time>
      </trkpt>
      <trkpt lat="42.88471" lon="1.21916">
        <ele>550</ele>
        <time>2024-02-04T14:48:40Z</time>
      </trkpt>
      <trkpt lat="42.8847" lon="1.21909">
        <ele>549.2</ele>
        <time>2024-02-04T14:48:41Z</time>
      </trkpt>
      <trkpt lat="42.8847" lon="1.21902">
        <ele>548.2</ele>
        <time>2024-02-04T14:48:42Z</time>
      </trkpt>
      <trkpt lat="42.88469" lon="1.21894">
        <ele>547.2</ele>
        <time>2024-02-04T14:48:43Z</time>
      </trkpt>
      <trkpt lat="42.88469" lon="1.21885">
        <ele>546.4</ele>
        <time>2024-02-04T14:48:44Z</time>
      </trkpt>
      <trkpt lat="42.8847" lon="1.21878">
        <ele>545.6</ele>
        <time>2024-02-04T14:48:45Z</time>
      </trkpt>
      <trkpt lat="42.88469" lon="1.21871">
        <ele>544.6</ele>
        <time>2024-02-04T14:48:46Z</time>
      </trkpt>
      <trkpt lat="42.88469" lon="1.21864">
        <ele>543.8</ele>
        <time>2024-02-04T14:48:47Z</time>
      </trkpt>
      <trkpt lat="42.88469" lon="1.21857">
        <ele>543</ele>
        <time>2024-02-04T14:48:48Z</time>
      </trkpt>
      <trkpt lat="42.88469" lon="1.21849">
        <ele>542.2</ele>
        <time>2024-02-04T14:48:49Z</time>
      </trkpt>
      <trkpt lat="42.8847" lon="1.21842">
        <ele>541.6</ele>
        <time>2024-02-04T14:48:50Z</time>
      </trkpt>
      <trkpt lat="42.88469" lon="1.21831">
        <ele>541</ele>
        <time>2024-02-04T14:48:51Z</time>
      </trkpt>
      <trkpt lat="42.88469" lon="1.21821">
        <ele>540.2</ele>
        <time>2024-02-04T14:48:52Z</time>
      </trkpt>
      <trkpt lat="42.88468" lon="1.21812">
        <ele>539.6</ele>
        <time>2024-02-04T14:48:53Z</time>
      </trkpt>
      <trkpt lat="42.88468" lon="1.21802">
        <ele>539</ele>
        <time>2024-02-04T14:48:54Z</time>
      </trkpt>
      <trkpt lat="42.88468" lon="1.21793">
        <ele>538.2</ele>
        <time>2024-02-04T14:48:55Z</time>
      </trkpt>
      <trkpt lat="42.88468" lon="1.21784">
        <ele>537.6</ele>
        <time>2024-02-04T14:48:56Z</time>
      </trkpt>
      <trkpt lat="42.88467" lon="1.21774">
        <ele>537.2</ele>
        <time>2024-02-04T14:48:57Z</time>
      </trkpt>
      <trkpt lat="42.88466" lon="1.21765">
        <ele>536.8</ele>
        <time>2024-02-04T14:48:58Z</time>
      </trkpt>
      <trkpt lat="42.88466" lon="1.21757">
        <ele>536.2</ele>
        <time>2024-02-04T14:48:59Z</time>
      </trkpt>
      <trkpt lat="42.88464" lon="1.21749">
        <ele>535.8</ele>
        <time>2024-02-04T14:49:00Z</time>
      </trkpt>
      <trkpt lat="42.88465" lon="1.21741">
        <ele>535.4</ele>
        <time>2024-02-04T14:49:01Z</time>
      </trkpt>
      <trkpt lat="42.88466" lon="1.21734">
        <ele>534.6</ele>
        <time>2024-02-04T14:49:02Z</time>
      </trkpt>
      <trkpt lat="42.88465" lon="1.21728">
        <ele>534.2</ele>
        <time>2024-02-04T14:49:03Z</time>
      </trkpt>
      <trkpt lat="42.88466" lon="1.21721">
        <ele>533.6</ele>
        <time>2024-02-04T14:49:04Z</time>
      </trkpt>
      <trkpt lat="42.88469" lon="1.21714">
        <ele>533.2</ele>
        <time>2024-02-04T14:49:05Z</time>
      </trkpt>
      <trkpt lat="42.88479" lon="1.217">
        <ele>532.8</ele>
        <time>2024-02-04T14:49:09Z</time>
      </trkpt>
      <trkpt lat="42.88481" lon="1.21699">
        <ele>532.4</ele>
        <time>2024-02-04T14:49:10Z</time>
      </trkpt>
      <trkpt lat="42.88484" lon="1.21697">
        <ele>532</ele>
        <time>2024-02-04T14:49:11Z</time>
      </trkpt>
      <trkpt lat="42.88487" lon="1.21696">
        <ele>531.6</ele>
        <time>2024-02-04T14:49:12Z</time>
      </trkpt>
      <trkpt lat="42.88489" lon="1.21695">
        <ele>531</ele>
        <time>2024-02-04T14:49:13Z</time>
      </trkpt>
      <trkpt lat="42.88492" lon="1.21692">
        <ele>531</ele>
        <time>2024-02-04T14:49:14Z</time>
      </trkpt>
      <trkpt lat="42.88506" lon="1.21689">
        <ele>531</ele>
        <time>2024-02-04T14:49:18Z</time>
      </trkpt>
      <trkpt lat="42.8852" lon="1.21684">
        <ele>531</ele>
        <time>2024-02-04T14:49:22Z</time>
      </trkpt>
      <trkpt lat="42.88531" lon="1.21668">
        <ele>531</ele>
        <time>2024-02-04T14:49:26Z</time>
      </trkpt>
      <trkpt lat="42.88537" lon="1.21653">
        <ele>530.6</ele>
        <time>2024-02-04T14:49:29Z</time>
      </trkpt>
      <trkpt lat="42.8854" lon="1.2165">
        <ele>530</ele>
        <time>2024-02-04T14:49:30Z</time>
      </trkpt>
      <trkpt lat="42.88544" lon="1.21647">
        <ele>529.6</ele>
        <time>2024-02-04T14:49:31Z</time>
      </trkpt>
      <trkpt lat="42.88546" lon="1.21646">
        <ele>528.8</ele>
        <time>2024-02-04T14:49:32Z</time>
      </trkpt>
      <trkpt lat="42.8855" lon="1.21643">
        <ele>528.2</ele>
        <time>2024-02-04T14:49:33Z</time>
      </trkpt>
      <trkpt lat="42.88554" lon="1.21639">
        <ele>527.6</ele>
        <time>2024-02-04T14:49:34Z</time>
      </trkpt>
      <trkpt lat="42.88559" lon="1.21635">
        <ele>526.8</ele>
        <time>2024-02-04T14:49:35Z</time>
      </trkpt>
      <trkpt lat="42.88563" lon="1.2163">
        <ele>525.8</ele>
        <time>2024-02-04T14:49:36Z</time>
      </trkpt>
      <trkpt lat="42.88568" lon="1.21627">
        <ele>525</ele>
        <time>2024-02-04T14:49:37Z</time>
      </trkpt>
      <trkpt lat="42.88572" lon="1.21624">
        <ele>524</ele>
        <time>2024-02-04T14:49:38Z</time>
      </trkpt>
      <trkpt lat="42.88576" lon="1.21621">
        <ele>523</ele>
        <time>2024-02-04T14:49:39Z</time>
      </trkpt>
      <trkpt lat="42.8858" lon="1.21619">
        <ele>522.2</ele>
        <time>2024-02-04T14:49:40Z</time>
      </trkpt>
      <trkpt lat="42.88586" lon="1.21617">
        <ele>521.2</ele>
        <time>2024-02-04T14:49:41Z</time>
      </trkpt>
      <trkpt lat="42.8859" lon="1.21615">
        <ele>520.2</ele>
        <time>2024-02-04T14:49:42Z</time>
      </trkpt>
      <trkpt lat="42.88594" lon="1.21611">
        <ele>519.2</ele>
        <time>2024-02-04T14:49:43Z</time>
      </trkpt>
      <trkpt lat="42.88595" lon="1.21606">
        <ele>518</ele>
        <time>2024-02-04T14:49:44Z</time>
      </trkpt>
      <trkpt lat="42.88595" lon="1.21602">
        <ele>517</ele>
        <time>2024-02-04T14:49:45Z</time>
      </trkpt>
      <trkpt lat="42.88594" lon="1.21598">
        <ele>515.8</ele>
        <time>2024-02-04T14:49:46Z</time>
      </trkpt>
      <trkpt lat="42.88592" lon="1.21593">
        <ele>514.8</ele>
        <time>2024-02-04T14:49:47Z</time>
      </trkpt>
      <trkpt lat="42.88589" lon="1.21589">
        <ele>513.6</ele>
        <time>2024-02-04T14:49:48Z</time>
      </trkpt>
      <trkpt lat="42.88586" lon="1.21585">
        <ele>512.4</ele>
        <time>2024-02-04T14:49:49Z</time>
      </trkpt>
      <trkpt lat="42.88583" lon="1.21581">
        <ele>511.2</ele>
        <time>2024-02-04T14:49:50Z</time>
      </trkpt>
      <trkpt lat="42.8858" lon="1.21579">
        <ele>509</ele>
        <time>2024-02-04T14:49:51Z</time>
      </trkpt>
      <trkpt lat="42.88578" lon="1.21577">
        <ele>507.8</ele>
        <time>2024-02-04T14:49:52Z</time>
      </trkpt>
      <trkpt lat="42.88577" lon="1.21575">
        <ele>506.6</ele>
        <time>2024-02-04T14:49:53Z</time>
      </trkpt>
      <trkpt lat="42.88577" lon="1.21575">
        <ele>505.4</ele>
        <time>2024-02-04T14:49:54Z</time>
      </trkpt>
      <trkpt lat="42.88577" lon="1.21574">
        <ele>504.8</ele>
        <time>2024-02-04T14:49:55Z</time>
      </trkpt>
      <trkpt lat="42.8858" lon="1.21572">
        <ele>502.2</ele>
        <time>2024-02-04T14:49:59Z</time>
      </trkpt>
      <trkpt lat="42.8858" lon="1.21572">
        <ele>502.2</ele>
        <time>2024-02-04T14:50:00Z</time>
      </trkpt>
      <trkpt lat="42.88587" lon="1.2157">
        <ele>502.2</ele>
        <time>2024-02-04T14:50:06Z</time>
      </trkpt>
      <trkpt lat="42.88588" lon="1.21568">
        <ele>502.2</ele>
        <time>2024-02-04T14:50:08Z</time>
      </trkpt>
      <trkpt lat="42.88592" lon="1.21568">
        <ele>502.2</ele>
        <time>2024-02-04T14:50:23Z</time>
      </trkpt>
      <trkpt lat="42.88594" lon="1.21568">
        <ele>502.2</ele>
        <time>2024-02-04T14:50:24Z</time>
      </trkpt>
      <trkpt lat="42.88598" lon="1.21568">
        <ele>502.2</ele>
        <time>2024-02-04T14:50:26Z</time>
      </trkpt>
      <trkpt lat="42.886" lon="1.21569">
        <ele>502.2</ele>
        <time>2024-02-04T14:50:28Z</time>
      </trkpt>
      <trkpt lat="42.88603" lon="1.2157">
        <ele>502.2</ele>
        <time>2024-02-04T14:50:31Z</time>
      </trkpt>
      <trkpt lat="42.88605" lon="1.2157">
        <ele>502.2</ele>
        <time>2024-02-04T14:50:32Z</time>
      </trkpt>
      <trkpt lat="42.88616" lon="1.21571">
        <ele>502.2</ele>
        <time>2024-02-04T14:50:36Z</time>
      </trkpt>
      <trkpt lat="42.88621" lon="1.21568">
        <ele>501.6</ele>
        <time>2024-02-04T14:50:37Z</time>
      </trkpt>
      <trkpt lat="42.88626" lon="1.21566">
        <ele>501</ele>
        <time>2024-02-04T14:50:38Z</time>
      </trkpt>
      <trkpt lat="42.88629" lon="1.21563">
        <ele>500.4</ele>
        <time>2024-02-04T14:50:39Z</time>
      </trkpt>
      <trkpt lat="42.88633" lon="1.2156">
        <ele>500</ele>
        <time>2024-02-04T14:50:40Z</time>
      </trkpt>
      <trkpt lat="42.88637" lon="1.21558">
        <ele>499.4</ele>
        <time>2024-02-04T14:50:41Z</time>
      </trkpt>
      <trkpt lat="42.88644" lon="1.21554">
        <ele>499</ele>
        <time>2024-02-04T14:50:43Z</time>
      </trkpt>
      <trkpt lat="42.88648" lon="1.21554">
        <ele>498.6</ele>
        <time>2024-02-04T14:50:44Z</time>
      </trkpt>
      <trkpt lat="42.88652" lon="1.21552">
        <ele>498.2</ele>
        <time>2024-02-04T14:50:45Z</time>
      </trkpt>
      <trkpt lat="42.88656" lon="1.2155">
        <ele>497.8</ele>
        <time>2024-02-04T14:50:46Z</time>
      </trkpt>
      <trkpt lat="42.88658" lon="1.2155">
        <ele>497.4</ele>
        <time>2024-02-04T14:50:47Z</time>
      </trkpt>
      <trkpt lat="42.88664" lon="1.21549">
        <ele>497.4</ele>
        <time>2024-02-04T14:50:49Z</time>
      </trkpt>
      <trkpt lat="42.88676" lon="1.21545">
        <ele>497.4</ele>
        <time>2024-02-04T14:50:53Z</time>
      </trkpt>
      <trkpt lat="42.8868" lon="1.21543">
        <ele>497.4</ele>
        <time>2024-02-04T14:50:54Z</time>
      </trkpt>
      <trkpt lat="42.88698" lon="1.21528">
        <ele>497.4</ele>
        <time>2024-02-04T14:50:58Z</time>
      </trkpt>
      <trkpt lat="42.88701" lon="1.21522">
        <ele>496.6</ele>
        <time>2024-02-04T14:50:59Z</time>
      </trkpt>
      <trkpt lat="42.88704" lon="1.21519">
        <ele>496</ele>
        <time>2024-02-04T14:51:00Z</time>
      </trkpt>
      <trkpt lat="42.8871" lon="1.21516">
        <ele>495.2</ele>
        <time>2024-02-04T14:51:01Z</time>
      </trkpt>
      <trkpt lat="42.88716" lon="1.21515">
        <ele>494.2</ele>
        <time>2024-02-04T14:51:02Z</time>
      </trkpt>
      <trkpt lat="42.88723" lon="1.21515">
        <ele>493.2</ele>
        <time>2024-02-04T14:51:03Z</time>
      </trkpt>
      <trkpt lat="42.88729" lon="1.21516">
        <ele>492.4</ele>
        <time>2024-02-04T14:51:04Z</time>
      </trkpt>
      <trkpt lat="42.88736" lon="1.21517">
        <ele>490.8</ele>
        <time>2024-02-04T14:51:05Z</time>
      </trkpt>
      <trkpt lat="42.88741" lon="1.21517">
        <ele>490</ele>
        <time>2024-02-04T14:51:06Z</time>
      </trkpt>
      <trkpt lat="42.88746" lon="1.21518">
        <ele>489.2</ele>
        <time>2024-02-04T14:51:07Z</time>
      </trkpt>
      <trkpt lat="42.88755" lon="1.21521">
        <ele>489.2</ele>
        <time>2024-02-04T14:51:09Z</time>
      </trkpt>
      <trkpt lat="42.88773" lon="1.21527">
        <ele>489.2</ele>
        <time>2024-02-04T14:51:14Z</time>
      </trkpt>
      <trkpt lat="42.88782" lon="1.21539">
        <ele>489.2</ele>
        <time>2024-02-04T14:51:18Z</time>
      </trkpt>
      <trkpt lat="42.88793" lon="1.2155">
        <ele>489.2</ele>
        <time>2024-02-04T14:51:23Z</time>
      </trkpt>
      <trkpt lat="42.88799" lon="1.21556">
        <ele>488.8</ele>
        <time>2024-02-04T14:51:28Z</time>
      </trkpt>
      <trkpt lat="42.88801" lon="1.21559">
        <ele>488.4</ele>
        <time>2024-02-04T14:51:29Z</time>
      </trkpt>
      <trkpt lat="42.88802" lon="1.21562">
        <ele>487.6</ele>
        <time>2024-02-04T14:51:30Z</time>
      </trkpt>
      <trkpt lat="42.88804" lon="1.21564">
        <ele>487.2</ele>
        <time>2024-02-04T14:51:31Z</time>
      </trkpt>
      <trkpt lat="42.8881" lon="1.21569">
        <ele>487.6</ele>
        <time>2024-02-04T14:51:33Z</time>
      </trkpt>
      <trkpt lat="42.88814" lon="1.21573">
        <ele>488</ele>
        <time>2024-02-04T14:51:34Z</time>
      </trkpt>
      <trkpt lat="42.88818" lon="1.21576">
        <ele>488.4</ele>
        <time>2024-02-04T14:51:35Z</time>
      </trkpt>
      <trkpt lat="42.88822" lon="1.21577">
        <ele>488.8</ele>
        <time>2024-02-04T14:51:36Z</time>
      </trkpt>
      <trkpt lat="42.88826" lon="1.21579">
        <ele>489.2</ele>
        <time>2024-02-04T14:51:37Z</time>
      </trkpt>
      <trkpt lat="42.8885" lon="1.21586">
        <ele>489.2</ele>
        <time>2024-02-04T14:51:42Z</time>
      </trkpt>
      <trkpt lat="42.88859" lon="1.21588">
        <ele>489.6</ele>
        <time>2024-02-04T14:51:44Z</time>
      </trkpt>
      <trkpt lat="42.88864" lon="1.21589">
        <ele>490</ele>
        <time>2024-02-04T14:51:45Z</time>
      </trkpt>
      <trkpt lat="42.88868" lon="1.21589">
        <ele>490.4</ele>
        <time>2024-02-04T14:51:46Z</time>
      </trkpt>
      <trkpt lat="42.88872" lon="1.21589">
        <ele>490.8</ele>
        <time>2024-02-04T14:51:47Z</time>
      </trkpt>
      <trkpt lat="42.88877" lon="1.2159">
        <ele>491.2</ele>
        <time>2024-02-04T14:51:48Z</time>
      </trkpt>
      <trkpt lat="42.88892" lon="1.21593">
        <ele>491.2</ele>
        <time>2024-02-04T14:51:52Z</time>
      </trkpt>
      <trkpt lat="42.88916" lon="1.21595">
        <ele>490.8</ele>
        <time>2024-02-04T14:51:56Z</time>
      </trkpt>
      <trkpt lat="42.88923" lon="1.21596">
        <ele>490.4</ele>
        <time>2024-02-04T14:51:57Z</time>
      </trkpt>
      <trkpt lat="42.88929" lon="1.21597">
        <ele>490</ele>
        <time>2024-02-04T14:51:58Z</time>
      </trkpt>
      <trkpt lat="42.88934" lon="1.21596">
        <ele>489.6</ele>
        <time>2024-02-04T14:51:59Z</time>
      </trkpt>
      <trkpt lat="42.88939" lon="1.21597">
        <ele>489.2</ele>
        <time>2024-02-04T14:52:00Z</time>
      </trkpt>
      <trkpt lat="42.88944" lon="1.21595">
        <ele>489.2</ele>
        <time>2024-02-04T14:52:01Z</time>
      </trkpt>
      <trkpt lat="42.88961" lon="1.21595">
        <ele>489.2</ele>
        <time>2024-02-04T14:52:04Z</time>
      </trkpt>
      <trkpt lat="42.88966" lon="1.21595">
        <ele>489.2</ele>
        <time>2024-02-04T14:52:05Z</time>
      </trkpt>
      <trkpt lat="42.88977" lon="1.21591">
        <ele>489.2</ele>
        <time>2024-02-04T14:52:07Z</time>
      </trkpt>
      <trkpt lat="42.88988" lon="1.21587">
        <ele>489.2</ele>
        <time>2024-02-04T14:52:09Z</time>
      </trkpt>
      <trkpt lat="42.89007" lon="1.21584">
        <ele>489.2</ele>
        <time>2024-02-04T14:52:13Z</time>
      </trkpt>
      <trkpt lat="42.89023" lon="1.2158">
        <ele>489.2</ele>
        <time>2024-02-04T14:52:17Z</time>
      </trkpt>
      <trkpt lat="42.89028" lon="1.21578">
        <ele>489.2</ele>
        <time>2024-02-04T14:52:18Z</time>
      </trkpt>
      <trkpt lat="42.89037" lon="1.21576">
        <ele>489.2</ele>
        <time>2024-02-04T14:52:20Z</time>
      </trkpt>
      <trkpt lat="42.89049" lon="1.21573">
        <ele>489.2</ele>
        <time>2024-02-04T14:52:23Z</time>
      </trkpt>
      <trkpt lat="42.89061" lon="1.21569">
        <ele>489.2</ele>
        <time>2024-02-04T14:52:26Z</time>
      </trkpt>
      <trkpt lat="42.89066" lon="1.21566">
        <ele>489.2</ele>
        <time>2024-02-04T14:52:27Z</time>
      </trkpt>
      <trkpt lat="42.8907" lon="1.21565">
        <ele>489.2</ele>
        <time>2024-02-04T14:52:28Z</time>
      </trkpt>
      <trkpt lat="42.89082" lon="1.21561">
        <ele>489.2</ele>
        <time>2024-02-04T14:52:31Z</time>
      </trkpt>
      <trkpt lat="42.89095" lon="1.21557">
        <ele>489.2</ele>
        <time>2024-02-04T14:52:34Z</time>
      </trkpt>
      <trkpt lat="42.89103" lon="1.21554">
        <ele>489.2</ele>
        <time>2024-02-04T14:52:36Z</time>
      </trkpt>
      <trkpt lat="42.89132" lon="1.21543">
        <ele>489.2</ele>
        <time>2024-02-04T14:52:43Z</time>
      </trkpt>
      <trkpt lat="42.89144" lon="1.21534">
        <ele>489.2</ele>
        <time>2024-02-04T14:52:47Z</time>
      </trkpt>
      <trkpt lat="42.8916" lon="1.21526">
        <ele>489.2</ele>
        <time>2024-02-04T14:52:52Z</time>
      </trkpt>
      <trkpt lat="42.89166" lon="1.21521">
        <ele>489.2</ele>
        <time>2024-02-04T14:52:54Z</time>
      </trkpt>
      <trkpt lat="42.89165" lon="1.21519">
        <ele>488.6</ele>
        <time>2024-02-04T14:52:55Z</time>
      </trkpt>
      <trkpt lat="42.89162" lon="1.21518">
        <ele>488.2</ele>
        <time>2024-02-04T14:52:56Z</time>
      </trkpt>
      <trkpt lat="42.89159" lon="1.21517">
        <ele>487.6</ele>
        <time>2024-02-04T14:52:57Z</time>
      </trkpt>
      <trkpt lat="42.89155" lon="1.21515">
        <ele>487.2</ele>
        <time>2024-02-04T14:52:58Z</time>
      </trkpt>
      <trkpt lat="42.8915" lon="1.21512">
        <ele>486.6</ele>
        <time>2024-02-04T14:52:59Z</time>
      </trkpt>
      <trkpt lat="42.89144" lon="1.21495">
        <ele>486.2</ele>
        <time>2024-02-04T14:53:01Z</time>
      </trkpt>
      <trkpt lat="42.89145" lon="1.21488">
        <ele>485.6</ele>
        <time>2024-02-04T14:53:02Z</time>
      </trkpt>
      <trkpt lat="42.89146" lon="1.21484">
        <ele>485.2</ele>
        <time>2024-02-04T14:53:03Z</time>
      </trkpt>
      <trkpt lat="42.89147" lon="1.21479">
        <ele>484.8</ele>
        <time>2024-02-04T14:53:04Z</time>
      </trkpt>
      <trkpt lat="42.8915" lon="1.21473">
        <ele>484.2</ele>
        <time>2024-02-04T14:53:05Z</time>
      </trkpt>
      <trkpt lat="42.89158" lon="1.21461">
        <ele>484.2</ele>
        <time>2024-02-04T14:53:08Z</time>
      </trkpt>
      <trkpt lat="42.89161" lon="1.21457">
        <ele>484.2</ele>
        <time>2024-02-04T14:53:09Z</time>
      </trkpt>
      <trkpt lat="42.89169" lon="1.21452">
        <ele>484.2</ele>
        <time>2024-02-04T14:53:11Z</time>
      </trkpt>
      <trkpt lat="42.89177" lon="1.21449">
        <ele>484.2</ele>
        <time>2024-02-04T14:53:13Z</time>
      </trkpt>
      <trkpt lat="42.89202" lon="1.21441">
        <ele>484.2</ele>
        <time>2024-02-04T14:53:20Z</time>
      </trkpt>
      <trkpt lat="42.8921" lon="1.21439">
        <ele>484.2</ele>
        <time>2024-02-04T14:53:22Z</time>
      </trkpt>
      <trkpt lat="42.89223" lon="1.21434">
        <ele>484.2</ele>
        <time>2024-02-04T14:53:25Z</time>
      </trkpt>
      <trkpt lat="42.89237" lon="1.21413">
        <ele>484.2</ele>
        <time>2024-02-04T14:53:29Z</time>
      </trkpt>
      <trkpt lat="42.89244" lon="1.21402">
        <ele>483.8</ele>
        <time>2024-02-04T14:53:31Z</time>
      </trkpt>
      <trkpt lat="42.89247" lon="1.21396">
        <ele>483.4</ele>
        <time>2024-02-04T14:53:32Z</time>
      </trkpt>
      <trkpt lat="42.8925" lon="1.21391">
        <ele>482.6</ele>
        <time>2024-02-04T14:53:33Z</time>
      </trkpt>
      <trkpt lat="42.89253" lon="1.21387">
        <ele>482.2</ele>
        <time>2024-02-04T14:53:34Z</time>
      </trkpt>
      <trkpt lat="42.89255" lon="1.21382">
        <ele>482.2</ele>
        <time>2024-02-04T14:53:35Z</time>
      </trkpt>
      <trkpt lat="42.89259" lon="1.21372">
        <ele>482.2</ele>
        <time>2024-02-04T14:53:37Z</time>
      </trkpt>
      <trkpt lat="42.89259" lon="1.21353">
        <ele>482.2</ele>
        <time>2024-02-04T14:53:40Z</time>
      </trkpt>
      <trkpt lat="42.8926" lon="1.21335">
        <ele>482.2</ele>
        <time>2024-02-04T14:53:44Z</time>
      </trkpt>
      <trkpt lat="42.89263" lon="1.21336">
        <ele>482.2</ele>
        <time>2024-02-04T14:53:45Z</time>
      </trkpt>
      <trkpt lat="42.89267" lon="1.21339">
        <ele>482.2</ele>
        <time>2024-02-04T14:53:47Z</time>
      </trkpt>
      <trkpt lat="42.89277" lon="1.21347">
        <ele>482.2</ele>
        <time>2024-02-04T14:53:50Z</time>
      </trkpt>
      <trkpt lat="42.89291" lon="1.21353">
        <ele>482.2</ele>
        <time>2024-02-04T14:53:54Z</time>
      </trkpt>
      <trkpt lat="42.89295" lon="1.21354">
        <ele>482.2</ele>
        <time>2024-02-04T14:53:55Z</time>
      </trkpt>
      <trkpt lat="42.89301" lon="1.21354">
        <ele>482.2</ele>
        <time>2024-02-04T14:53:56Z</time>
      </trkpt>
      <trkpt lat="42.89319" lon="1.21352">
        <ele>482.2</ele>
        <time>2024-02-04T14:54:00Z</time>
      </trkpt>
      <trkpt lat="42.89328" lon="1.2135">
        <ele>481.8</ele>
        <time>2024-02-04T14:54:02Z</time>
      </trkpt>
      <trkpt lat="42.89333" lon="1.21349">
        <ele>481.4</ele>
        <time>2024-02-04T14:54:03Z</time>
      </trkpt>
      <trkpt lat="42.89336" lon="1.21346">
        <ele>481</ele>
        <time>2024-02-04T14:54:04Z</time>
      </trkpt>
      <trkpt lat="42.89339" lon="1.21341">
        <ele>480.6</ele>
        <time>2024-02-04T14:54:05Z</time>
      </trkpt>
      <trkpt lat="42.89342" lon="1.21335">
        <ele>480.2</ele>
        <time>2024-02-04T14:54:06Z</time>
      </trkpt>
      <trkpt lat="42.89344" lon="1.21329">
        <ele>480.2</ele>
        <time>2024-02-04T14:54:07Z</time>
      </trkpt>
      <trkpt lat="42.89345" lon="1.21322">
        <ele>480.2</ele>
        <time>2024-02-04T14:54:08Z</time>
      </trkpt>
      <trkpt lat="42.89347" lon="1.21314">
        <ele>480.2</ele>
        <time>2024-02-04T14:54:09Z</time>
      </trkpt>
      <trkpt lat="42.89359" lon="1.21271">
        <ele>480.2</ele>
        <time>2024-02-04T14:54:15Z</time>
      </trkpt>
      <trkpt lat="42.89373" lon="1.21223">
        <ele>480.2</ele>
        <time>2024-02-04T14:54:23Z</time>
      </trkpt>
      <trkpt lat="42.89374" lon="1.21217">
        <ele>480.6</ele>
        <time>2024-02-04T14:54:24Z</time>
      </trkpt>
      <trkpt lat="42.89375" lon="1.21212">
        <ele>481.2</ele>
        <time>2024-02-04T14:54:25Z</time>
      </trkpt>
      <trkpt lat="42.89375" lon="1.21207">
        <ele>481.6</ele>
        <time>2024-02-04T14:54:26Z</time>
      </trkpt>
      <trkpt lat="42.89377" lon="1.21203">
        <ele>482</ele>
        <time>2024-02-04T14:54:27Z</time>
      </trkpt>
      <trkpt lat="42.89378" lon="1.21199">
        <ele>482.4</ele>
        <time>2024-02-04T14:54:28Z</time>
      </trkpt>
      <trkpt lat="42.8938" lon="1.21195">
        <ele>482.4</ele>
        <time>2024-02-04T14:54:29Z</time>
      </trkpt>
      <trkpt lat="42.89388" lon="1.21181">
        <ele>482.4</ele>
        <time>2024-02-04T14:54:34Z</time>
      </trkpt>
      <trkpt lat="42.8939" lon="1.21181">
        <ele>482.4</ele>
        <time>2024-02-04T14:54:35Z</time>
      </trkpt>
      <trkpt lat="42.89398" lon="1.2118">
        <ele>482.4</ele>
        <time>2024-02-04T14:54:41Z</time>
      </trkpt>
      <trkpt lat="42.89401" lon="1.21177">
        <ele>482.4</ele>
        <time>2024-02-04T14:54:46Z</time>
      </trkpt>
    </trkseg>
  </trk>
</gpx>